<?xml version="1.0" encoding="UTF-8" standalone="no" ?>
<gpx xmlns="http://www.topografix.com/GPX/1/1" xmlns:xsi="http://www.w3.org/2001/XMLSchema-instance" xsi:schemaLocation="http://www.topografix.com/GPX/1/1 http://www.topografix.com/GPX/1/1/gpx.xsd" version="1.1" creator="EditGPX">
  <metadata>
    <name>Foulées de Madranges 18 km</name>
  </metadata>
  <trk>
    <name>Foulées de Madranges</name>
    <extensions>
      <line xmlns="http://www.topografix.com/GPX/gpx_style/0/2">
        <color>0000FF</color>
        <width>4</width>
      </line>
    </extensions>
    <trkseg>
      <trkpt lat="45.474898" lon="1.784857">
        <ele>606</ele>
        <time>2023-05-07T08:36:09Z</time>
      </trkpt>
      <trkpt lat="45.474892" lon="1.784848">
        <ele>606</ele>
        <time>2023-05-07T08:36:10Z</time>
      </trkpt>
      <trkpt lat="45.474885" lon="1.784839">
        <ele>606</ele>
        <time>2023-05-07T08:36:11Z</time>
      </trkpt>
      <trkpt lat="45.474880" lon="1.784827">
        <ele>606</ele>
        <time>2023-05-07T08:36:12Z</time>
      </trkpt>
      <trkpt lat="45.474875" lon="1.784816">
        <ele>606</ele>
        <time>2023-05-07T08:36:13Z</time>
      </trkpt>
      <trkpt lat="45.474873" lon="1.784804">
        <ele>606</ele>
        <time>2023-05-07T08:36:14Z</time>
      </trkpt>
      <trkpt lat="45.474872" lon="1.784792">
        <ele>606</ele>
        <time>2023-05-07T08:36:15Z</time>
      </trkpt>
      <trkpt lat="45.474875" lon="1.784781">
        <ele>606</ele>
        <time>2023-05-07T08:36:16Z</time>
      </trkpt>
      <trkpt lat="45.474877" lon="1.784771">
        <ele>606</ele>
        <time>2023-05-07T08:36:17Z</time>
      </trkpt>
      <trkpt lat="45.474879" lon="1.784763">
        <ele>606</ele>
        <time>2023-05-07T08:36:18Z</time>
      </trkpt>
      <trkpt lat="45.474880" lon="1.784755">
        <ele>606</ele>
        <time>2023-05-07T08:36:19Z</time>
      </trkpt>
      <trkpt lat="45.474876" lon="1.784745">
        <ele>606</ele>
        <time>2023-05-07T08:36:20Z</time>
      </trkpt>
      <trkpt lat="45.474871" lon="1.784736">
        <ele>606</ele>
        <time>2023-05-07T08:36:21Z</time>
      </trkpt>
      <trkpt lat="45.474858" lon="1.784722">
        <ele>606</ele>
        <time>2023-05-07T08:36:22Z</time>
      </trkpt>
      <trkpt lat="45.474846" lon="1.784708">
        <ele>606</ele>
        <time>2023-05-07T08:36:23Z</time>
      </trkpt>
      <trkpt lat="45.474830" lon="1.784687">
        <ele>606</ele>
        <time>2023-05-07T08:36:24Z</time>
      </trkpt>
      <trkpt lat="45.474815" lon="1.784667">
        <ele>606</ele>
        <time>2023-05-07T08:36:25Z</time>
      </trkpt>
      <trkpt lat="45.474796" lon="1.784642">
        <ele>606</ele>
        <time>2023-05-07T08:36:26Z</time>
      </trkpt>
      <trkpt lat="45.474778" lon="1.784618">
        <ele>606</ele>
        <time>2023-05-07T08:36:27Z</time>
      </trkpt>
      <trkpt lat="45.474756" lon="1.784588">
        <ele>606</ele>
        <time>2023-05-07T08:36:28Z</time>
      </trkpt>
      <trkpt lat="45.474735" lon="1.784559">
        <ele>606</ele>
        <time>2023-05-07T08:36:29Z</time>
      </trkpt>
      <trkpt lat="45.474711" lon="1.784525">
        <ele>606</ele>
        <time>2023-05-07T08:36:30Z</time>
      </trkpt>
      <trkpt lat="45.474686" lon="1.784491">
        <ele>606</ele>
        <time>2023-05-07T08:36:31Z</time>
      </trkpt>
      <trkpt lat="45.474658" lon="1.784455">
        <ele>606</ele>
        <time>2023-05-07T08:36:32Z</time>
      </trkpt>
      <trkpt lat="45.474631" lon="1.784418">
        <ele>606</ele>
        <time>2023-05-07T08:36:33Z</time>
      </trkpt>
      <trkpt lat="45.474601" lon="1.784381">
        <ele>606</ele>
        <time>2023-05-07T08:36:34Z</time>
      </trkpt>
      <trkpt lat="45.474572" lon="1.784345">
        <ele>606</ele>
        <time>2023-05-07T08:36:35Z</time>
      </trkpt>
      <trkpt lat="45.474543" lon="1.784308">
        <ele>606</ele>
        <time>2023-05-07T08:36:36Z</time>
      </trkpt>
      <trkpt lat="45.474514" lon="1.784271">
        <ele>606</ele>
        <time>2023-05-07T08:36:37Z</time>
      </trkpt>
      <trkpt lat="45.474489" lon="1.784236">
        <ele>605</ele>
        <time>2023-05-07T08:36:38Z</time>
      </trkpt>
      <trkpt lat="45.474464" lon="1.784201">
        <ele>605</ele>
        <time>2023-05-07T08:36:39Z</time>
      </trkpt>
      <trkpt lat="45.474444" lon="1.784173">
        <ele>605</ele>
        <time>2023-05-07T08:36:40Z</time>
      </trkpt>
      <trkpt lat="45.474423" lon="1.784144">
        <ele>605</ele>
        <time>2023-05-07T08:36:41Z</time>
      </trkpt>
      <trkpt lat="45.474405" lon="1.784123">
        <ele>605</ele>
        <time>2023-05-07T08:36:42Z</time>
      </trkpt>
      <trkpt lat="45.474386" lon="1.784101">
        <ele>605</ele>
        <time>2023-05-07T08:36:43Z</time>
      </trkpt>
      <trkpt lat="45.474369" lon="1.784088">
        <ele>605</ele>
        <time>2023-05-07T08:36:44Z</time>
      </trkpt>
      <trkpt lat="45.474352" lon="1.784076">
        <ele>605</ele>
        <time>2023-05-07T08:36:45Z</time>
      </trkpt>
      <trkpt lat="45.474334" lon="1.784068">
        <ele>605</ele>
        <time>2023-05-07T08:36:46Z</time>
      </trkpt>
      <trkpt lat="45.474315" lon="1.784061">
        <ele>605</ele>
        <time>2023-05-07T08:36:47Z</time>
      </trkpt>
      <trkpt lat="45.474296" lon="1.784060">
        <ele>604</ele>
        <time>2023-05-07T08:36:48Z</time>
      </trkpt>
      <trkpt lat="45.474277" lon="1.784060">
        <ele>604</ele>
        <time>2023-05-07T08:36:49Z</time>
      </trkpt>
      <trkpt lat="45.474257" lon="1.784068">
        <ele>604</ele>
        <time>2023-05-07T08:36:50Z</time>
      </trkpt>
      <trkpt lat="45.474237" lon="1.784076">
        <ele>604</ele>
        <time>2023-05-07T08:36:51Z</time>
      </trkpt>
      <trkpt lat="45.474215" lon="1.784089">
        <ele>604</ele>
        <time>2023-05-07T08:36:52Z</time>
      </trkpt>
      <trkpt lat="45.474193" lon="1.784102">
        <ele>604</ele>
        <time>2023-05-07T08:36:53Z</time>
      </trkpt>
      <trkpt lat="45.474171" lon="1.784115">
        <ele>604</ele>
        <time>2023-05-07T08:36:54Z</time>
      </trkpt>
      <trkpt lat="45.474148" lon="1.784129">
        <ele>604</ele>
        <time>2023-05-07T08:36:55Z</time>
      </trkpt>
      <trkpt lat="45.474126" lon="1.784145">
        <ele>604</ele>
        <time>2023-05-07T08:36:56Z</time>
      </trkpt>
      <trkpt lat="45.474103" lon="1.784161">
        <ele>604</ele>
        <time>2023-05-07T08:36:57Z</time>
      </trkpt>
      <trkpt lat="45.474083" lon="1.784177">
        <ele>603</ele>
        <time>2023-05-07T08:36:58Z</time>
      </trkpt>
      <trkpt lat="45.474062" lon="1.784194">
        <ele>603</ele>
        <time>2023-05-07T08:36:59Z</time>
      </trkpt>
      <trkpt lat="45.474043" lon="1.784209">
        <ele>603</ele>
        <time>2023-05-07T08:37:00Z</time>
      </trkpt>
      <trkpt lat="45.474024" lon="1.784224">
        <ele>603</ele>
        <time>2023-05-07T08:37:01Z</time>
      </trkpt>
      <trkpt lat="45.474005" lon="1.784239">
        <ele>603</ele>
        <time>2023-05-07T08:37:02Z</time>
      </trkpt>
      <trkpt lat="45.473985" lon="1.784253">
        <ele>602</ele>
        <time>2023-05-07T08:37:03Z</time>
      </trkpt>
      <trkpt lat="45.473965" lon="1.784269">
        <ele>602</ele>
        <time>2023-05-07T08:37:04Z</time>
      </trkpt>
      <trkpt lat="45.473945" lon="1.784285">
        <ele>602</ele>
        <time>2023-05-07T08:37:05Z</time>
      </trkpt>
      <trkpt lat="45.473925" lon="1.784302">
        <ele>602</ele>
        <time>2023-05-07T08:37:06Z</time>
      </trkpt>
      <trkpt lat="45.473905" lon="1.784320">
        <ele>602</ele>
        <time>2023-05-07T08:37:07Z</time>
      </trkpt>
      <trkpt lat="45.473885" lon="1.784336">
        <ele>602</ele>
        <time>2023-05-07T08:37:08Z</time>
      </trkpt>
      <trkpt lat="45.473865" lon="1.784353">
        <ele>602</ele>
        <time>2023-05-07T08:37:09Z</time>
      </trkpt>
      <trkpt lat="45.473844" lon="1.784370">
        <ele>602</ele>
        <time>2023-05-07T08:37:10Z</time>
      </trkpt>
      <trkpt lat="45.473822" lon="1.784387">
        <ele>602</ele>
        <time>2023-05-07T08:37:11Z</time>
      </trkpt>
      <trkpt lat="45.473802" lon="1.784403">
        <ele>602</ele>
        <time>2023-05-07T08:37:12Z</time>
      </trkpt>
      <trkpt lat="45.473781" lon="1.784419">
        <ele>601</ele>
        <time>2023-05-07T08:37:13Z</time>
      </trkpt>
      <trkpt lat="45.473762" lon="1.784435">
        <ele>601</ele>
        <time>2023-05-07T08:37:14Z</time>
      </trkpt>
      <trkpt lat="45.473743" lon="1.784451">
        <ele>601</ele>
        <time>2023-05-07T08:37:15Z</time>
      </trkpt>
      <trkpt lat="45.473726" lon="1.784465">
        <ele>601</ele>
        <time>2023-05-07T08:37:16Z</time>
      </trkpt>
      <trkpt lat="45.473709" lon="1.784479">
        <ele>601</ele>
        <time>2023-05-07T08:37:17Z</time>
      </trkpt>
      <trkpt lat="45.473691" lon="1.784496">
        <ele>600</ele>
        <time>2023-05-07T08:37:18Z</time>
      </trkpt>
      <trkpt lat="45.473673" lon="1.784512">
        <ele>600</ele>
        <time>2023-05-07T08:37:19Z</time>
      </trkpt>
      <trkpt lat="45.473653" lon="1.784531">
        <ele>600</ele>
        <time>2023-05-07T08:37:20Z</time>
      </trkpt>
      <trkpt lat="45.473634" lon="1.784550">
        <ele>600</ele>
        <time>2023-05-07T08:37:21Z</time>
      </trkpt>
      <trkpt lat="45.473612" lon="1.784571">
        <ele>600</ele>
        <time>2023-05-07T08:37:22Z</time>
      </trkpt>
      <trkpt lat="45.473591" lon="1.784593">
        <ele>600</ele>
        <time>2023-05-07T08:37:23Z</time>
      </trkpt>
      <trkpt lat="45.473572" lon="1.784613">
        <ele>600</ele>
        <time>2023-05-07T08:37:24Z</time>
      </trkpt>
      <trkpt lat="45.473554" lon="1.784633">
        <ele>600</ele>
        <time>2023-05-07T08:37:25Z</time>
      </trkpt>
      <trkpt lat="45.473538" lon="1.784652">
        <ele>600</ele>
        <time>2023-05-07T08:37:26Z</time>
      </trkpt>
      <trkpt lat="45.473523" lon="1.784669">
        <ele>600</ele>
        <time>2023-05-07T08:37:27Z</time>
      </trkpt>
      <trkpt lat="45.473510" lon="1.784689">
        <ele>599</ele>
        <time>2023-05-07T08:37:28Z</time>
      </trkpt>
      <trkpt lat="45.473496" lon="1.784708">
        <ele>599</ele>
        <time>2023-05-07T08:37:29Z</time>
      </trkpt>
      <trkpt lat="45.473481" lon="1.784729">
        <ele>599</ele>
        <time>2023-05-07T08:37:30Z</time>
      </trkpt>
      <trkpt lat="45.473467" lon="1.784751">
        <ele>599</ele>
        <time>2023-05-07T08:37:31Z</time>
      </trkpt>
      <trkpt lat="45.473450" lon="1.784774">
        <ele>599</ele>
        <time>2023-05-07T08:37:32Z</time>
      </trkpt>
      <trkpt lat="45.473434" lon="1.784797">
        <ele>599</ele>
        <time>2023-05-07T08:37:33Z</time>
      </trkpt>
      <trkpt lat="45.473416" lon="1.784819">
        <ele>599</ele>
        <time>2023-05-07T08:37:34Z</time>
      </trkpt>
      <trkpt lat="45.473399" lon="1.784842">
        <ele>599</ele>
        <time>2023-05-07T08:37:35Z</time>
      </trkpt>
      <trkpt lat="45.473381" lon="1.784863">
        <ele>599</ele>
        <time>2023-05-07T08:37:36Z</time>
      </trkpt>
      <trkpt lat="45.473363" lon="1.784884">
        <ele>599</ele>
        <time>2023-05-07T08:37:37Z</time>
      </trkpt>
      <trkpt lat="45.473345" lon="1.784903">
        <ele>598</ele>
        <time>2023-05-07T08:37:38Z</time>
      </trkpt>
      <trkpt lat="45.473328" lon="1.784923">
        <ele>598</ele>
        <time>2023-05-07T08:37:39Z</time>
      </trkpt>
      <trkpt lat="45.473311" lon="1.784941">
        <ele>598</ele>
        <time>2023-05-07T08:37:40Z</time>
      </trkpt>
      <trkpt lat="45.473294" lon="1.784958">
        <ele>598</ele>
        <time>2023-05-07T08:37:41Z</time>
      </trkpt>
      <trkpt lat="45.473278" lon="1.784975">
        <ele>598</ele>
        <time>2023-05-07T08:37:42Z</time>
      </trkpt>
      <trkpt lat="45.473262" lon="1.784992">
        <ele>598</ele>
        <time>2023-05-07T08:37:43Z</time>
      </trkpt>
      <trkpt lat="45.473243" lon="1.785003">
        <ele>598</ele>
        <time>2023-05-07T08:37:44Z</time>
      </trkpt>
      <trkpt lat="45.473225" lon="1.785015">
        <ele>598</ele>
        <time>2023-05-07T08:37:45Z</time>
      </trkpt>
      <trkpt lat="45.473203" lon="1.785011">
        <ele>598</ele>
        <time>2023-05-07T08:37:46Z</time>
      </trkpt>
      <trkpt lat="45.473181" lon="1.785008">
        <ele>598</ele>
        <time>2023-05-07T08:37:47Z</time>
      </trkpt>
      <trkpt lat="45.473160" lon="1.784985">
        <ele>597</ele>
        <time>2023-05-07T08:37:48Z</time>
      </trkpt>
      <trkpt lat="45.473139" lon="1.784963">
        <ele>597</ele>
        <time>2023-05-07T08:37:49Z</time>
      </trkpt>
      <trkpt lat="45.473122" lon="1.784930">
        <ele>597</ele>
        <time>2023-05-07T08:37:50Z</time>
      </trkpt>
      <trkpt lat="45.473105" lon="1.784896">
        <ele>597</ele>
        <time>2023-05-07T08:37:51Z</time>
      </trkpt>
      <trkpt lat="45.473089" lon="1.784856">
        <ele>597</ele>
        <time>2023-05-07T08:37:52Z</time>
      </trkpt>
      <trkpt lat="45.473073" lon="1.784816">
        <ele>597</ele>
        <time>2023-05-07T08:37:53Z</time>
      </trkpt>
      <trkpt lat="45.473058" lon="1.784776">
        <ele>597</ele>
        <time>2023-05-07T08:37:54Z</time>
      </trkpt>
      <trkpt lat="45.473042" lon="1.784736">
        <ele>597</ele>
        <time>2023-05-07T08:37:55Z</time>
      </trkpt>
      <trkpt lat="45.473027" lon="1.784697">
        <ele>597</ele>
        <time>2023-05-07T08:37:56Z</time>
      </trkpt>
      <trkpt lat="45.473012" lon="1.784659">
        <ele>597</ele>
        <time>2023-05-07T08:37:57Z</time>
      </trkpt>
      <trkpt lat="45.472995" lon="1.784620">
        <ele>596</ele>
        <time>2023-05-07T08:37:58Z</time>
      </trkpt>
      <trkpt lat="45.472979" lon="1.784582">
        <ele>596</ele>
        <time>2023-05-07T08:37:59Z</time>
      </trkpt>
      <trkpt lat="45.472961" lon="1.784542">
        <ele>596</ele>
        <time>2023-05-07T08:38:00Z</time>
      </trkpt>
      <trkpt lat="45.472943" lon="1.784502">
        <ele>596</ele>
        <time>2023-05-07T08:38:01Z</time>
      </trkpt>
      <trkpt lat="45.472924" lon="1.784460">
        <ele>596</ele>
        <time>2023-05-07T08:38:02Z</time>
      </trkpt>
      <trkpt lat="45.472905" lon="1.784419">
        <ele>596</ele>
        <time>2023-05-07T08:38:03Z</time>
      </trkpt>
      <trkpt lat="45.472886" lon="1.784377">
        <ele>596</ele>
        <time>2023-05-07T08:38:04Z</time>
      </trkpt>
      <trkpt lat="45.472867" lon="1.784336">
        <ele>596</ele>
        <time>2023-05-07T08:38:05Z</time>
      </trkpt>
      <trkpt lat="45.472848" lon="1.784294">
        <ele>596</ele>
        <time>2023-05-07T08:38:06Z</time>
      </trkpt>
      <trkpt lat="45.472829" lon="1.784252">
        <ele>596</ele>
        <time>2023-05-07T08:38:07Z</time>
      </trkpt>
      <trkpt lat="45.472810" lon="1.784211">
        <ele>596</ele>
        <time>2023-05-07T08:38:08Z</time>
      </trkpt>
      <trkpt lat="45.472791" lon="1.784169">
        <ele>596</ele>
        <time>2023-05-07T08:38:09Z</time>
      </trkpt>
      <trkpt lat="45.472771" lon="1.784127">
        <ele>596</ele>
        <time>2023-05-07T08:38:10Z</time>
      </trkpt>
      <trkpt lat="45.472752" lon="1.784085">
        <ele>596</ele>
        <time>2023-05-07T08:38:11Z</time>
      </trkpt>
      <trkpt lat="45.472732" lon="1.784043">
        <ele>596</ele>
        <time>2023-05-07T08:38:12Z</time>
      </trkpt>
      <trkpt lat="45.472713" lon="1.784001">
        <ele>595</ele>
        <time>2023-05-07T08:38:13Z</time>
      </trkpt>
      <trkpt lat="45.472694" lon="1.783958">
        <ele>595</ele>
        <time>2023-05-07T08:38:14Z</time>
      </trkpt>
      <trkpt lat="45.472675" lon="1.783915">
        <ele>595</ele>
        <time>2023-05-07T08:38:15Z</time>
      </trkpt>
      <trkpt lat="45.472656" lon="1.783873">
        <ele>595</ele>
        <time>2023-05-07T08:38:16Z</time>
      </trkpt>
      <trkpt lat="45.472637" lon="1.783831">
        <ele>595</ele>
        <time>2023-05-07T08:38:17Z</time>
      </trkpt>
      <trkpt lat="45.472618" lon="1.783791">
        <ele>595</ele>
        <time>2023-05-07T08:38:18Z</time>
      </trkpt>
      <trkpt lat="45.472599" lon="1.783750">
        <ele>595</ele>
        <time>2023-05-07T08:38:19Z</time>
      </trkpt>
      <trkpt lat="45.472582" lon="1.783712">
        <ele>595</ele>
        <time>2023-05-07T08:38:20Z</time>
      </trkpt>
      <trkpt lat="45.472565" lon="1.783674">
        <ele>595</ele>
        <time>2023-05-07T08:38:21Z</time>
      </trkpt>
      <trkpt lat="45.472549" lon="1.783637">
        <ele>595</ele>
        <time>2023-05-07T08:38:22Z</time>
      </trkpt>
      <trkpt lat="45.472533" lon="1.783600">
        <ele>595</ele>
        <time>2023-05-07T08:38:23Z</time>
      </trkpt>
      <trkpt lat="45.472518" lon="1.783565">
        <ele>595</ele>
        <time>2023-05-07T08:38:24Z</time>
      </trkpt>
      <trkpt lat="45.472502" lon="1.783529">
        <ele>595</ele>
        <time>2023-05-07T08:38:25Z</time>
      </trkpt>
      <trkpt lat="45.472487" lon="1.783495">
        <ele>595</ele>
        <time>2023-05-07T08:38:26Z</time>
      </trkpt>
      <trkpt lat="45.472472" lon="1.783461">
        <ele>595</ele>
        <time>2023-05-07T08:38:27Z</time>
      </trkpt>
      <trkpt lat="45.472457" lon="1.783427">
        <ele>594</ele>
        <time>2023-05-07T08:38:28Z</time>
      </trkpt>
      <trkpt lat="45.472442" lon="1.783394">
        <ele>594</ele>
        <time>2023-05-07T08:38:29Z</time>
      </trkpt>
      <trkpt lat="45.472428" lon="1.783361">
        <ele>594</ele>
        <time>2023-05-07T08:38:30Z</time>
      </trkpt>
      <trkpt lat="45.472413" lon="1.783327">
        <ele>594</ele>
        <time>2023-05-07T08:38:31Z</time>
      </trkpt>
      <trkpt lat="45.472398" lon="1.783295">
        <ele>594</ele>
        <time>2023-05-07T08:38:32Z</time>
      </trkpt>
      <trkpt lat="45.472384" lon="1.783262">
        <ele>594</ele>
        <time>2023-05-07T08:38:33Z</time>
      </trkpt>
      <trkpt lat="45.472368" lon="1.783227">
        <ele>594</ele>
        <time>2023-05-07T08:38:34Z</time>
      </trkpt>
      <trkpt lat="45.472352" lon="1.783193">
        <ele>594</ele>
        <time>2023-05-07T08:38:35Z</time>
      </trkpt>
      <trkpt lat="45.472336" lon="1.783158">
        <ele>594</ele>
        <time>2023-05-07T08:38:36Z</time>
      </trkpt>
      <trkpt lat="45.472319" lon="1.783122">
        <ele>594</ele>
        <time>2023-05-07T08:38:37Z</time>
      </trkpt>
      <trkpt lat="45.472302" lon="1.783087">
        <ele>594</ele>
        <time>2023-05-07T08:38:38Z</time>
      </trkpt>
      <trkpt lat="45.472286" lon="1.783052">
        <ele>594</ele>
        <time>2023-05-07T08:38:39Z</time>
      </trkpt>
      <trkpt lat="45.472270" lon="1.783017">
        <ele>594</ele>
        <time>2023-05-07T08:38:40Z</time>
      </trkpt>
      <trkpt lat="45.472255" lon="1.782981">
        <ele>594</ele>
        <time>2023-05-07T08:38:41Z</time>
      </trkpt>
      <trkpt lat="45.472240" lon="1.782948">
        <ele>594</ele>
        <time>2023-05-07T08:38:42Z</time>
      </trkpt>
      <trkpt lat="45.472225" lon="1.782914">
        <ele>594</ele>
        <time>2023-05-07T08:38:43Z</time>
      </trkpt>
      <trkpt lat="45.472210" lon="1.782881">
        <ele>594</ele>
        <time>2023-05-07T08:38:44Z</time>
      </trkpt>
      <trkpt lat="45.472195" lon="1.782848">
        <ele>594</ele>
        <time>2023-05-07T08:38:45Z</time>
      </trkpt>
      <trkpt lat="45.472180" lon="1.782813">
        <ele>594</ele>
        <time>2023-05-07T08:38:46Z</time>
      </trkpt>
      <trkpt lat="45.472165" lon="1.782779">
        <ele>594</ele>
        <time>2023-05-07T08:38:47Z</time>
      </trkpt>
      <trkpt lat="45.472150" lon="1.782744">
        <ele>594</ele>
        <time>2023-05-07T08:38:48Z</time>
      </trkpt>
      <trkpt lat="45.472135" lon="1.782709">
        <ele>594</ele>
        <time>2023-05-07T08:38:49Z</time>
      </trkpt>
      <trkpt lat="45.472118" lon="1.782674">
        <ele>594</ele>
        <time>2023-05-07T08:38:50Z</time>
      </trkpt>
      <trkpt lat="45.472102" lon="1.782639">
        <ele>594</ele>
        <time>2023-05-07T08:38:51Z</time>
      </trkpt>
      <trkpt lat="45.472086" lon="1.782601">
        <ele>594</ele>
        <time>2023-05-07T08:38:52Z</time>
      </trkpt>
      <trkpt lat="45.472069" lon="1.782563">
        <ele>594</ele>
        <time>2023-05-07T08:38:53Z</time>
      </trkpt>
      <trkpt lat="45.472052" lon="1.782520">
        <ele>594</ele>
        <time>2023-05-07T08:38:54Z</time>
      </trkpt>
      <trkpt lat="45.472035" lon="1.782478">
        <ele>594</ele>
        <time>2023-05-07T08:38:55Z</time>
      </trkpt>
      <trkpt lat="45.472017" lon="1.782433">
        <ele>594</ele>
        <time>2023-05-07T08:38:56Z</time>
      </trkpt>
      <trkpt lat="45.471999" lon="1.782388">
        <ele>594</ele>
        <time>2023-05-07T08:38:57Z</time>
      </trkpt>
      <trkpt lat="45.471980" lon="1.782341">
        <ele>594</ele>
        <time>2023-05-07T08:38:58Z</time>
      </trkpt>
      <trkpt lat="45.471961" lon="1.782293">
        <ele>594</ele>
        <time>2023-05-07T08:38:59Z</time>
      </trkpt>
      <trkpt lat="45.471941" lon="1.782244">
        <ele>594</ele>
        <time>2023-05-07T08:39:00Z</time>
      </trkpt>
      <trkpt lat="45.471921" lon="1.782195">
        <ele>594</ele>
        <time>2023-05-07T08:39:01Z</time>
      </trkpt>
      <trkpt lat="45.471902" lon="1.782146">
        <ele>594</ele>
        <time>2023-05-07T08:39:02Z</time>
      </trkpt>
      <trkpt lat="45.471883" lon="1.782096">
        <ele>593</ele>
        <time>2023-05-07T08:39:03Z</time>
      </trkpt>
      <trkpt lat="45.471866" lon="1.782048">
        <ele>593</ele>
        <time>2023-05-07T08:39:04Z</time>
      </trkpt>
      <trkpt lat="45.471849" lon="1.782000">
        <ele>593</ele>
        <time>2023-05-07T08:39:05Z</time>
      </trkpt>
      <trkpt lat="45.471833" lon="1.781952">
        <ele>593</ele>
        <time>2023-05-07T08:39:06Z</time>
      </trkpt>
      <trkpt lat="45.471816" lon="1.781904">
        <ele>593</ele>
        <time>2023-05-07T08:39:07Z</time>
      </trkpt>
      <trkpt lat="45.471800" lon="1.781856">
        <ele>593</ele>
        <time>2023-05-07T08:39:08Z</time>
      </trkpt>
      <trkpt lat="45.471784" lon="1.781808">
        <ele>593</ele>
        <time>2023-05-07T08:39:09Z</time>
      </trkpt>
      <trkpt lat="45.471769" lon="1.781760">
        <ele>593</ele>
        <time>2023-05-07T08:39:10Z</time>
      </trkpt>
      <trkpt lat="45.471753" lon="1.781713">
        <ele>593</ele>
        <time>2023-05-07T08:39:11Z</time>
      </trkpt>
      <trkpt lat="45.471740" lon="1.781667">
        <ele>593</ele>
        <time>2023-05-07T08:39:12Z</time>
      </trkpt>
      <trkpt lat="45.471726" lon="1.781622">
        <ele>592</ele>
        <time>2023-05-07T08:39:13Z</time>
      </trkpt>
      <trkpt lat="45.471715" lon="1.781580">
        <ele>592</ele>
        <time>2023-05-07T08:39:14Z</time>
      </trkpt>
      <trkpt lat="45.471703" lon="1.781538">
        <ele>592</ele>
        <time>2023-05-07T08:39:15Z</time>
      </trkpt>
      <trkpt lat="45.471692" lon="1.781502">
        <ele>592</ele>
        <time>2023-05-07T08:39:16Z</time>
      </trkpt>
      <trkpt lat="45.471680" lon="1.781466">
        <ele>592</ele>
        <time>2023-05-07T08:39:17Z</time>
      </trkpt>
      <trkpt lat="45.471665" lon="1.781439">
        <ele>592</ele>
        <time>2023-05-07T08:39:18Z</time>
      </trkpt>
      <trkpt lat="45.471651" lon="1.781413">
        <ele>592</ele>
        <time>2023-05-07T08:39:19Z</time>
      </trkpt>
      <trkpt lat="45.471632" lon="1.781395">
        <ele>592</ele>
        <time>2023-05-07T08:39:20Z</time>
      </trkpt>
      <trkpt lat="45.471613" lon="1.781378">
        <ele>592</ele>
        <time>2023-05-07T08:39:21Z</time>
      </trkpt>
      <trkpt lat="45.471590" lon="1.781370">
        <ele>592</ele>
        <time>2023-05-07T08:39:22Z</time>
      </trkpt>
      <trkpt lat="45.471568" lon="1.781361">
        <ele>591</ele>
        <time>2023-05-07T08:39:23Z</time>
      </trkpt>
      <trkpt lat="45.471544" lon="1.781355">
        <ele>591</ele>
        <time>2023-05-07T08:39:24Z</time>
      </trkpt>
      <trkpt lat="45.471521" lon="1.781349">
        <ele>591</ele>
        <time>2023-05-07T08:39:25Z</time>
      </trkpt>
      <trkpt lat="45.471497" lon="1.781342">
        <ele>591</ele>
        <time>2023-05-07T08:39:26Z</time>
      </trkpt>
      <trkpt lat="45.471473" lon="1.781336">
        <ele>591</ele>
        <time>2023-05-07T08:39:27Z</time>
      </trkpt>
      <trkpt lat="45.471449" lon="1.781328">
        <ele>591</ele>
        <time>2023-05-07T08:39:28Z</time>
      </trkpt>
      <trkpt lat="45.471425" lon="1.781321">
        <ele>591</ele>
        <time>2023-05-07T08:39:29Z</time>
      </trkpt>
      <trkpt lat="45.471402" lon="1.781314">
        <ele>591</ele>
        <time>2023-05-07T08:39:30Z</time>
      </trkpt>
      <trkpt lat="45.471378" lon="1.781306">
        <ele>591</ele>
        <time>2023-05-07T08:39:31Z</time>
      </trkpt>
      <trkpt lat="45.471355" lon="1.781298">
        <ele>591</ele>
        <time>2023-05-07T08:39:32Z</time>
      </trkpt>
      <trkpt lat="45.471332" lon="1.781291">
        <ele>590</ele>
        <time>2023-05-07T08:39:33Z</time>
      </trkpt>
      <trkpt lat="45.471308" lon="1.781281">
        <ele>590</ele>
        <time>2023-05-07T08:39:34Z</time>
      </trkpt>
      <trkpt lat="45.471283" lon="1.781272">
        <ele>590</ele>
        <time>2023-05-07T08:39:35Z</time>
      </trkpt>
      <trkpt lat="45.471257" lon="1.781262">
        <ele>590</ele>
        <time>2023-05-07T08:39:36Z</time>
      </trkpt>
      <trkpt lat="45.471230" lon="1.781252">
        <ele>590</ele>
        <time>2023-05-07T08:39:37Z</time>
      </trkpt>
      <trkpt lat="45.471202" lon="1.781242">
        <ele>590</ele>
        <time>2023-05-07T08:39:38Z</time>
      </trkpt>
      <trkpt lat="45.471173" lon="1.781231">
        <ele>590</ele>
        <time>2023-05-07T08:39:39Z</time>
      </trkpt>
      <trkpt lat="45.471145" lon="1.781221">
        <ele>590</ele>
        <time>2023-05-07T08:39:40Z</time>
      </trkpt>
      <trkpt lat="45.471117" lon="1.781210">
        <ele>590</ele>
        <time>2023-05-07T08:39:41Z</time>
      </trkpt>
      <trkpt lat="45.471091" lon="1.781200">
        <ele>590</ele>
        <time>2023-05-07T08:39:42Z</time>
      </trkpt>
      <trkpt lat="45.471064" lon="1.781189">
        <ele>590</ele>
        <time>2023-05-07T08:39:43Z</time>
      </trkpt>
      <trkpt lat="45.471041" lon="1.781179">
        <ele>590</ele>
        <time>2023-05-07T08:39:44Z</time>
      </trkpt>
      <trkpt lat="45.471018" lon="1.781169">
        <ele>590</ele>
        <time>2023-05-07T08:39:45Z</time>
      </trkpt>
      <trkpt lat="45.470997" lon="1.781159">
        <ele>590</ele>
        <time>2023-05-07T08:39:46Z</time>
      </trkpt>
      <trkpt lat="45.470976" lon="1.781149">
        <ele>590</ele>
        <time>2023-05-07T08:39:47Z</time>
      </trkpt>
      <trkpt lat="45.470956" lon="1.781140">
        <ele>589</ele>
        <time>2023-05-07T08:39:48Z</time>
      </trkpt>
      <trkpt lat="45.470935" lon="1.781130">
        <ele>589</ele>
        <time>2023-05-07T08:39:49Z</time>
      </trkpt>
      <trkpt lat="45.470912" lon="1.781120">
        <ele>589</ele>
        <time>2023-05-07T08:39:50Z</time>
      </trkpt>
      <trkpt lat="45.470889" lon="1.781111">
        <ele>589</ele>
        <time>2023-05-07T08:39:51Z</time>
      </trkpt>
      <trkpt lat="45.470865" lon="1.781101">
        <ele>589</ele>
        <time>2023-05-07T08:39:52Z</time>
      </trkpt>
      <trkpt lat="45.470841" lon="1.781092">
        <ele>588</ele>
        <time>2023-05-07T08:39:53Z</time>
      </trkpt>
      <trkpt lat="45.470817" lon="1.781080">
        <ele>588</ele>
        <time>2023-05-07T08:39:54Z</time>
      </trkpt>
      <trkpt lat="45.470794" lon="1.781068">
        <ele>588</ele>
        <time>2023-05-07T08:39:55Z</time>
      </trkpt>
      <trkpt lat="45.470771" lon="1.781057">
        <ele>588</ele>
        <time>2023-05-07T08:39:56Z</time>
      </trkpt>
      <trkpt lat="45.470748" lon="1.781045">
        <ele>588</ele>
        <time>2023-05-07T08:39:57Z</time>
      </trkpt>
      <trkpt lat="45.470728" lon="1.781038">
        <ele>587</ele>
        <time>2023-05-07T08:39:58Z</time>
      </trkpt>
      <trkpt lat="45.470708" lon="1.781030">
        <ele>587</ele>
        <time>2023-05-07T08:39:59Z</time>
      </trkpt>
      <trkpt lat="45.470691" lon="1.781031">
        <ele>587</ele>
        <time>2023-05-07T08:40:00Z</time>
      </trkpt>
      <trkpt lat="45.470675" lon="1.781032">
        <ele>587</ele>
        <time>2023-05-07T08:40:01Z</time>
      </trkpt>
      <trkpt lat="45.470665" lon="1.781043">
        <ele>587</ele>
        <time>2023-05-07T08:40:02Z</time>
      </trkpt>
      <trkpt lat="45.470656" lon="1.781054">
        <ele>587</ele>
        <time>2023-05-07T08:40:03Z</time>
      </trkpt>
      <trkpt lat="45.470651" lon="1.781076">
        <ele>587</ele>
        <time>2023-05-07T08:40:04Z</time>
      </trkpt>
      <trkpt lat="45.470646" lon="1.781098">
        <ele>587</ele>
        <time>2023-05-07T08:40:05Z</time>
      </trkpt>
      <trkpt lat="45.470643" lon="1.781127">
        <ele>587</ele>
        <time>2023-05-07T08:40:06Z</time>
      </trkpt>
      <trkpt lat="45.470639" lon="1.781155">
        <ele>587</ele>
        <time>2023-05-07T08:40:07Z</time>
      </trkpt>
      <trkpt lat="45.470635" lon="1.781187">
        <ele>586</ele>
        <time>2023-05-07T08:40:08Z</time>
      </trkpt>
      <trkpt lat="45.470631" lon="1.781220">
        <ele>586</ele>
        <time>2023-05-07T08:40:09Z</time>
      </trkpt>
      <trkpt lat="45.470625" lon="1.781256">
        <ele>586</ele>
        <time>2023-05-07T08:40:10Z</time>
      </trkpt>
      <trkpt lat="45.470619" lon="1.781291">
        <ele>586</ele>
        <time>2023-05-07T08:40:11Z</time>
      </trkpt>
      <trkpt lat="45.470611" lon="1.781329">
        <ele>586</ele>
        <time>2023-05-07T08:40:12Z</time>
      </trkpt>
      <trkpt lat="45.470603" lon="1.781366">
        <ele>586</ele>
        <time>2023-05-07T08:40:13Z</time>
      </trkpt>
      <trkpt lat="45.470599" lon="1.781403">
        <ele>586</ele>
        <time>2023-05-07T08:40:14Z</time>
      </trkpt>
      <trkpt lat="45.470594" lon="1.781440">
        <ele>586</ele>
        <time>2023-05-07T08:40:15Z</time>
      </trkpt>
      <trkpt lat="45.470594" lon="1.781478">
        <ele>586</ele>
        <time>2023-05-07T08:40:16Z</time>
      </trkpt>
      <trkpt lat="45.470595" lon="1.781516">
        <ele>586</ele>
        <time>2023-05-07T08:40:17Z</time>
      </trkpt>
      <trkpt lat="45.470597" lon="1.781558">
        <ele>585</ele>
        <time>2023-05-07T08:40:18Z</time>
      </trkpt>
      <trkpt lat="45.470599" lon="1.781601">
        <ele>585</ele>
        <time>2023-05-07T08:40:19Z</time>
      </trkpt>
      <trkpt lat="45.470601" lon="1.781647">
        <ele>585</ele>
        <time>2023-05-07T08:40:20Z</time>
      </trkpt>
      <trkpt lat="45.470603" lon="1.781693">
        <ele>585</ele>
        <time>2023-05-07T08:40:21Z</time>
      </trkpt>
      <trkpt lat="45.470607" lon="1.781741">
        <ele>585</ele>
        <time>2023-05-07T08:40:22Z</time>
      </trkpt>
      <trkpt lat="45.470610" lon="1.781789">
        <ele>585</ele>
        <time>2023-05-07T08:40:23Z</time>
      </trkpt>
      <trkpt lat="45.470613" lon="1.781836">
        <ele>585</ele>
        <time>2023-05-07T08:40:24Z</time>
      </trkpt>
      <trkpt lat="45.470617" lon="1.781884">
        <ele>585</ele>
        <time>2023-05-07T08:40:25Z</time>
      </trkpt>
      <trkpt lat="45.470618" lon="1.781930">
        <ele>585</ele>
        <time>2023-05-07T08:40:26Z</time>
      </trkpt>
      <trkpt lat="45.470619" lon="1.781975">
        <ele>585</ele>
        <time>2023-05-07T08:40:27Z</time>
      </trkpt>
      <trkpt lat="45.470618" lon="1.782015">
        <ele>585</ele>
        <time>2023-05-07T08:40:28Z</time>
      </trkpt>
      <trkpt lat="45.470617" lon="1.782054">
        <ele>585</ele>
        <time>2023-05-07T08:40:29Z</time>
      </trkpt>
      <trkpt lat="45.470614" lon="1.782090">
        <ele>585</ele>
        <time>2023-05-07T08:40:30Z</time>
      </trkpt>
      <trkpt lat="45.470612" lon="1.782125">
        <ele>585</ele>
        <time>2023-05-07T08:40:31Z</time>
      </trkpt>
      <trkpt lat="45.470609" lon="1.782156">
        <ele>585</ele>
        <time>2023-05-07T08:40:32Z</time>
      </trkpt>
      <trkpt lat="45.470607" lon="1.782187">
        <ele>585</ele>
        <time>2023-05-07T08:40:33Z</time>
      </trkpt>
      <trkpt lat="45.470606" lon="1.782214">
        <ele>585</ele>
        <time>2023-05-07T08:40:34Z</time>
      </trkpt>
      <trkpt lat="45.470605" lon="1.782241">
        <ele>585</ele>
        <time>2023-05-07T08:40:35Z</time>
      </trkpt>
      <trkpt lat="45.470607" lon="1.782265">
        <ele>585</ele>
        <time>2023-05-07T08:40:36Z</time>
      </trkpt>
      <trkpt lat="45.470610" lon="1.782290">
        <ele>585</ele>
        <time>2023-05-07T08:40:37Z</time>
      </trkpt>
      <trkpt lat="45.470612" lon="1.782313">
        <ele>584</ele>
        <time>2023-05-07T08:40:38Z</time>
      </trkpt>
      <trkpt lat="45.470615" lon="1.782337">
        <ele>584</ele>
        <time>2023-05-07T08:40:39Z</time>
      </trkpt>
      <trkpt lat="45.470616" lon="1.782362">
        <ele>584</ele>
        <time>2023-05-07T08:40:40Z</time>
      </trkpt>
      <trkpt lat="45.470618" lon="1.782387">
        <ele>584</ele>
        <time>2023-05-07T08:40:41Z</time>
      </trkpt>
      <trkpt lat="45.470618" lon="1.782412">
        <ele>584</ele>
        <time>2023-05-07T08:40:42Z</time>
      </trkpt>
      <trkpt lat="45.470619" lon="1.782438">
        <ele>584</ele>
        <time>2023-05-07T08:40:43Z</time>
      </trkpt>
      <trkpt lat="45.470618" lon="1.782464">
        <ele>584</ele>
        <time>2023-05-07T08:40:44Z</time>
      </trkpt>
      <trkpt lat="45.470618" lon="1.782491">
        <ele>584</ele>
        <time>2023-05-07T08:40:45Z</time>
      </trkpt>
      <trkpt lat="45.470616" lon="1.782518">
        <ele>584</ele>
        <time>2023-05-07T08:40:46Z</time>
      </trkpt>
      <trkpt lat="45.470615" lon="1.782544">
        <ele>584</ele>
        <time>2023-05-07T08:40:47Z</time>
      </trkpt>
      <trkpt lat="45.470613" lon="1.782571">
        <ele>584</ele>
        <time>2023-05-07T08:40:48Z</time>
      </trkpt>
      <trkpt lat="45.470611" lon="1.782599">
        <ele>584</ele>
        <time>2023-05-07T08:40:49Z</time>
      </trkpt>
      <trkpt lat="45.470610" lon="1.782627">
        <ele>584</ele>
        <time>2023-05-07T08:40:50Z</time>
      </trkpt>
      <trkpt lat="45.470609" lon="1.782655">
        <ele>584</ele>
        <time>2023-05-07T08:40:51Z</time>
      </trkpt>
      <trkpt lat="45.470609" lon="1.782685">
        <ele>585</ele>
        <time>2023-05-07T08:40:52Z</time>
      </trkpt>
      <trkpt lat="45.470610" lon="1.782715">
        <ele>585</ele>
        <time>2023-05-07T08:40:53Z</time>
      </trkpt>
      <trkpt lat="45.470611" lon="1.782746">
        <ele>585</ele>
        <time>2023-05-07T08:40:54Z</time>
      </trkpt>
      <trkpt lat="45.470612" lon="1.782776">
        <ele>585</ele>
        <time>2023-05-07T08:40:55Z</time>
      </trkpt>
      <trkpt lat="45.470611" lon="1.782806">
        <ele>585</ele>
        <time>2023-05-07T08:40:56Z</time>
      </trkpt>
      <trkpt lat="45.470611" lon="1.782836">
        <ele>585</ele>
        <time>2023-05-07T08:40:57Z</time>
      </trkpt>
      <trkpt lat="45.470610" lon="1.782866">
        <ele>585</ele>
        <time>2023-05-07T08:40:58Z</time>
      </trkpt>
      <trkpt lat="45.470610" lon="1.782895">
        <ele>585</ele>
        <time>2023-05-07T08:40:59Z</time>
      </trkpt>
      <trkpt lat="45.470607" lon="1.782925">
        <ele>585</ele>
        <time>2023-05-07T08:41:00Z</time>
      </trkpt>
      <trkpt lat="45.470605" lon="1.782954">
        <ele>585</ele>
        <time>2023-05-07T08:41:01Z</time>
      </trkpt>
      <trkpt lat="45.470604" lon="1.782985">
        <ele>585</ele>
        <time>2023-05-07T08:41:02Z</time>
      </trkpt>
      <trkpt lat="45.470602" lon="1.783016">
        <ele>585</ele>
        <time>2023-05-07T08:41:03Z</time>
      </trkpt>
      <trkpt lat="45.470600" lon="1.783048">
        <ele>585</ele>
        <time>2023-05-07T08:41:04Z</time>
      </trkpt>
      <trkpt lat="45.470599" lon="1.783079">
        <ele>585</ele>
        <time>2023-05-07T08:41:05Z</time>
      </trkpt>
      <trkpt lat="45.470599" lon="1.783111">
        <ele>585</ele>
        <time>2023-05-07T08:41:06Z</time>
      </trkpt>
      <trkpt lat="45.470598" lon="1.783144">
        <ele>585</ele>
        <time>2023-05-07T08:41:07Z</time>
      </trkpt>
      <trkpt lat="45.470597" lon="1.783175">
        <ele>585</ele>
        <time>2023-05-07T08:41:08Z</time>
      </trkpt>
      <trkpt lat="45.470596" lon="1.783206">
        <ele>585</ele>
        <time>2023-05-07T08:41:09Z</time>
      </trkpt>
      <trkpt lat="45.470595" lon="1.783238">
        <ele>585</ele>
        <time>2023-05-07T08:41:10Z</time>
      </trkpt>
      <trkpt lat="45.470594" lon="1.783269">
        <ele>585</ele>
        <time>2023-05-07T08:41:11Z</time>
      </trkpt>
      <trkpt lat="45.470595" lon="1.783301">
        <ele>586</ele>
        <time>2023-05-07T08:41:12Z</time>
      </trkpt>
      <trkpt lat="45.470596" lon="1.783333">
        <ele>586</ele>
        <time>2023-05-07T08:41:13Z</time>
      </trkpt>
      <trkpt lat="45.470595" lon="1.783364">
        <ele>586</ele>
        <time>2023-05-07T08:41:14Z</time>
      </trkpt>
      <trkpt lat="45.470595" lon="1.783396">
        <ele>586</ele>
        <time>2023-05-07T08:41:15Z</time>
      </trkpt>
      <trkpt lat="45.470593" lon="1.783427">
        <ele>586</ele>
        <time>2023-05-07T08:41:16Z</time>
      </trkpt>
      <trkpt lat="45.470592" lon="1.783458">
        <ele>586</ele>
        <time>2023-05-07T08:41:17Z</time>
      </trkpt>
      <trkpt lat="45.470590" lon="1.783489">
        <ele>586</ele>
        <time>2023-05-07T08:41:18Z</time>
      </trkpt>
      <trkpt lat="45.470588" lon="1.783520">
        <ele>586</ele>
        <time>2023-05-07T08:41:19Z</time>
      </trkpt>
      <trkpt lat="45.470586" lon="1.783550">
        <ele>586</ele>
        <time>2023-05-07T08:41:20Z</time>
      </trkpt>
      <trkpt lat="45.470585" lon="1.783581">
        <ele>586</ele>
        <time>2023-05-07T08:41:21Z</time>
      </trkpt>
      <trkpt lat="45.470583" lon="1.783611">
        <ele>586</ele>
        <time>2023-05-07T08:41:22Z</time>
      </trkpt>
      <trkpt lat="45.470582" lon="1.783640">
        <ele>586</ele>
        <time>2023-05-07T08:41:23Z</time>
      </trkpt>
      <trkpt lat="45.470581" lon="1.783670">
        <ele>586</ele>
        <time>2023-05-07T08:41:24Z</time>
      </trkpt>
      <trkpt lat="45.470580" lon="1.783700">
        <ele>586</ele>
        <time>2023-05-07T08:41:25Z</time>
      </trkpt>
      <trkpt lat="45.470580" lon="1.783729">
        <ele>586</ele>
        <time>2023-05-07T08:41:26Z</time>
      </trkpt>
      <trkpt lat="45.470581" lon="1.783758">
        <ele>587</ele>
        <time>2023-05-07T08:41:27Z</time>
      </trkpt>
      <trkpt lat="45.470581" lon="1.783787">
        <ele>587</ele>
        <time>2023-05-07T08:41:28Z</time>
      </trkpt>
      <trkpt lat="45.470582" lon="1.783816">
        <ele>587</ele>
        <time>2023-05-07T08:41:29Z</time>
      </trkpt>
      <trkpt lat="45.470581" lon="1.783844">
        <ele>587</ele>
        <time>2023-05-07T08:41:30Z</time>
      </trkpt>
      <trkpt lat="45.470580" lon="1.783873">
        <ele>587</ele>
        <time>2023-05-07T08:41:31Z</time>
      </trkpt>
      <trkpt lat="45.470579" lon="1.783900">
        <ele>587</ele>
        <time>2023-05-07T08:41:32Z</time>
      </trkpt>
      <trkpt lat="45.470577" lon="1.783928">
        <ele>587</ele>
        <time>2023-05-07T08:41:33Z</time>
      </trkpt>
      <trkpt lat="45.470574" lon="1.783955">
        <ele>587</ele>
        <time>2023-05-07T08:41:34Z</time>
      </trkpt>
      <trkpt lat="45.470572" lon="1.783983">
        <ele>587</ele>
        <time>2023-05-07T08:41:35Z</time>
      </trkpt>
      <trkpt lat="45.470571" lon="1.784011">
        <ele>587</ele>
        <time>2023-05-07T08:41:36Z</time>
      </trkpt>
      <trkpt lat="45.470570" lon="1.784040">
        <ele>587</ele>
        <time>2023-05-07T08:41:37Z</time>
      </trkpt>
      <trkpt lat="45.470569" lon="1.784070">
        <ele>587</ele>
        <time>2023-05-07T08:41:38Z</time>
      </trkpt>
      <trkpt lat="45.470568" lon="1.784099">
        <ele>587</ele>
        <time>2023-05-07T08:41:39Z</time>
      </trkpt>
      <trkpt lat="45.470567" lon="1.784129">
        <ele>587</ele>
        <time>2023-05-07T08:41:40Z</time>
      </trkpt>
      <trkpt lat="45.470565" lon="1.784158">
        <ele>587</ele>
        <time>2023-05-07T08:41:41Z</time>
      </trkpt>
      <trkpt lat="45.470563" lon="1.784188">
        <ele>587</ele>
        <time>2023-05-07T08:41:42Z</time>
      </trkpt>
      <trkpt lat="45.470561" lon="1.784219">
        <ele>587</ele>
        <time>2023-05-07T08:41:43Z</time>
      </trkpt>
      <trkpt lat="45.470560" lon="1.784251">
        <ele>587</ele>
        <time>2023-05-07T08:41:44Z</time>
      </trkpt>
      <trkpt lat="45.470560" lon="1.784283">
        <ele>587</ele>
        <time>2023-05-07T08:41:45Z</time>
      </trkpt>
      <trkpt lat="45.470560" lon="1.784316">
        <ele>587</ele>
        <time>2023-05-07T08:41:46Z</time>
      </trkpt>
      <trkpt lat="45.470562" lon="1.784349">
        <ele>588</ele>
        <time>2023-05-07T08:41:47Z</time>
      </trkpt>
      <trkpt lat="45.470564" lon="1.784385">
        <ele>588</ele>
        <time>2023-05-07T08:41:48Z</time>
      </trkpt>
      <trkpt lat="45.470566" lon="1.784422">
        <ele>588</ele>
        <time>2023-05-07T08:41:49Z</time>
      </trkpt>
      <trkpt lat="45.470570" lon="1.784463">
        <ele>588</ele>
        <time>2023-05-07T08:41:50Z</time>
      </trkpt>
      <trkpt lat="45.470574" lon="1.784503">
        <ele>588</ele>
        <time>2023-05-07T08:41:51Z</time>
      </trkpt>
      <trkpt lat="45.470582" lon="1.784547">
        <ele>588</ele>
        <time>2023-05-07T08:41:52Z</time>
      </trkpt>
      <trkpt lat="45.470589" lon="1.784591">
        <ele>588</ele>
        <time>2023-05-07T08:41:53Z</time>
      </trkpt>
      <trkpt lat="45.470598" lon="1.784636">
        <ele>588</ele>
        <time>2023-05-07T08:41:54Z</time>
      </trkpt>
      <trkpt lat="45.470607" lon="1.784681">
        <ele>588</ele>
        <time>2023-05-07T08:41:55Z</time>
      </trkpt>
      <trkpt lat="45.470617" lon="1.784727">
        <ele>588</ele>
        <time>2023-05-07T08:41:56Z</time>
      </trkpt>
      <trkpt lat="45.470627" lon="1.784774">
        <ele>588</ele>
        <time>2023-05-07T08:41:57Z</time>
      </trkpt>
      <trkpt lat="45.470639" lon="1.784823">
        <ele>588</ele>
        <time>2023-05-07T08:41:58Z</time>
      </trkpt>
      <trkpt lat="45.470651" lon="1.784873">
        <ele>588</ele>
        <time>2023-05-07T08:41:59Z</time>
      </trkpt>
      <trkpt lat="45.470665" lon="1.784925">
        <ele>588</ele>
        <time>2023-05-07T08:42:00Z</time>
      </trkpt>
      <trkpt lat="45.470680" lon="1.784977">
        <ele>588</ele>
        <time>2023-05-07T08:42:01Z</time>
      </trkpt>
      <trkpt lat="45.470695" lon="1.785033">
        <ele>588</ele>
        <time>2023-05-07T08:42:02Z</time>
      </trkpt>
      <trkpt lat="45.470709" lon="1.785088">
        <ele>587</ele>
        <time>2023-05-07T08:42:03Z</time>
      </trkpt>
      <trkpt lat="45.470724" lon="1.785145">
        <ele>587</ele>
        <time>2023-05-07T08:42:04Z</time>
      </trkpt>
      <trkpt lat="45.470738" lon="1.785201">
        <ele>587</ele>
        <time>2023-05-07T08:42:05Z</time>
      </trkpt>
      <trkpt lat="45.470755" lon="1.785262">
        <ele>587</ele>
        <time>2023-05-07T08:42:06Z</time>
      </trkpt>
      <trkpt lat="45.470773" lon="1.785322">
        <ele>587</ele>
        <time>2023-05-07T08:42:07Z</time>
      </trkpt>
      <trkpt lat="45.470793" lon="1.785385">
        <ele>587</ele>
        <time>2023-05-07T08:42:08Z</time>
      </trkpt>
      <trkpt lat="45.470813" lon="1.785448">
        <ele>587</ele>
        <time>2023-05-07T08:42:09Z</time>
      </trkpt>
      <trkpt lat="45.470833" lon="1.785513">
        <ele>587</ele>
        <time>2023-05-07T08:42:10Z</time>
      </trkpt>
      <trkpt lat="45.470854" lon="1.785577">
        <ele>587</ele>
        <time>2023-05-07T08:42:11Z</time>
      </trkpt>
      <trkpt lat="45.470875" lon="1.785642">
        <ele>587</ele>
        <time>2023-05-07T08:42:12Z</time>
      </trkpt>
      <trkpt lat="45.470897" lon="1.785707">
        <ele>586</ele>
        <time>2023-05-07T08:42:13Z</time>
      </trkpt>
      <trkpt lat="45.470919" lon="1.785769">
        <ele>586</ele>
        <time>2023-05-07T08:42:14Z</time>
      </trkpt>
      <trkpt lat="45.470942" lon="1.785830">
        <ele>586</ele>
        <time>2023-05-07T08:42:15Z</time>
      </trkpt>
      <trkpt lat="45.470969" lon="1.785886">
        <ele>586</ele>
        <time>2023-05-07T08:42:16Z</time>
      </trkpt>
      <trkpt lat="45.470996" lon="1.785942">
        <ele>586</ele>
        <time>2023-05-07T08:42:17Z</time>
      </trkpt>
      <trkpt lat="45.471026" lon="1.785993">
        <ele>585</ele>
        <time>2023-05-07T08:42:18Z</time>
      </trkpt>
      <trkpt lat="45.471055" lon="1.786045">
        <ele>585</ele>
        <time>2023-05-07T08:42:19Z</time>
      </trkpt>
      <trkpt lat="45.471086" lon="1.786093">
        <ele>585</ele>
        <time>2023-05-07T08:42:20Z</time>
      </trkpt>
      <trkpt lat="45.471116" lon="1.786141">
        <ele>585</ele>
        <time>2023-05-07T08:42:21Z</time>
      </trkpt>
      <trkpt lat="45.471144" lon="1.786190">
        <ele>585</ele>
        <time>2023-05-07T08:42:22Z</time>
      </trkpt>
      <trkpt lat="45.471173" lon="1.786238">
        <ele>584</ele>
        <time>2023-05-07T08:42:23Z</time>
      </trkpt>
      <trkpt lat="45.471196" lon="1.786287">
        <ele>584</ele>
        <time>2023-05-07T08:42:24Z</time>
      </trkpt>
      <trkpt lat="45.471219" lon="1.786336">
        <ele>584</ele>
        <time>2023-05-07T08:42:25Z</time>
      </trkpt>
      <trkpt lat="45.471238" lon="1.786387">
        <ele>584</ele>
        <time>2023-05-07T08:42:26Z</time>
      </trkpt>
      <trkpt lat="45.471256" lon="1.786438">
        <ele>584</ele>
        <time>2023-05-07T08:42:27Z</time>
      </trkpt>
      <trkpt lat="45.471270" lon="1.786492">
        <ele>583</ele>
        <time>2023-05-07T08:42:28Z</time>
      </trkpt>
      <trkpt lat="45.471285" lon="1.786546">
        <ele>583</ele>
        <time>2023-05-07T08:42:29Z</time>
      </trkpt>
      <trkpt lat="45.471295" lon="1.786600">
        <ele>583</ele>
        <time>2023-05-07T08:42:30Z</time>
      </trkpt>
      <trkpt lat="45.471305" lon="1.786654">
        <ele>583</ele>
        <time>2023-05-07T08:42:31Z</time>
      </trkpt>
      <trkpt lat="45.471312" lon="1.786706">
        <ele>583</ele>
        <time>2023-05-07T08:42:32Z</time>
      </trkpt>
      <trkpt lat="45.471319" lon="1.786758">
        <ele>583</ele>
        <time>2023-05-07T08:42:33Z</time>
      </trkpt>
      <trkpt lat="45.471325" lon="1.786810">
        <ele>583</ele>
        <time>2023-05-07T08:42:34Z</time>
      </trkpt>
      <trkpt lat="45.471330" lon="1.786861">
        <ele>583</ele>
        <time>2023-05-07T08:42:35Z</time>
      </trkpt>
      <trkpt lat="45.471334" lon="1.786909">
        <ele>583</ele>
        <time>2023-05-07T08:42:36Z</time>
      </trkpt>
      <trkpt lat="45.471337" lon="1.786956">
        <ele>583</ele>
        <time>2023-05-07T08:42:37Z</time>
      </trkpt>
      <trkpt lat="45.471342" lon="1.786999">
        <ele>582</ele>
        <time>2023-05-07T08:42:38Z</time>
      </trkpt>
      <trkpt lat="45.471346" lon="1.787042">
        <ele>582</ele>
        <time>2023-05-07T08:42:39Z</time>
      </trkpt>
      <trkpt lat="45.471352" lon="1.787083">
        <ele>582</ele>
        <time>2023-05-07T08:42:40Z</time>
      </trkpt>
      <trkpt lat="45.471359" lon="1.787123">
        <ele>582</ele>
        <time>2023-05-07T08:42:41Z</time>
      </trkpt>
      <trkpt lat="45.471367" lon="1.787163">
        <ele>582</ele>
        <time>2023-05-07T08:42:42Z</time>
      </trkpt>
      <trkpt lat="45.471376" lon="1.787202">
        <ele>582</ele>
        <time>2023-05-07T08:42:43Z</time>
      </trkpt>
      <trkpt lat="45.471386" lon="1.787239">
        <ele>582</ele>
        <time>2023-05-07T08:42:44Z</time>
      </trkpt>
      <trkpt lat="45.471395" lon="1.787276">
        <ele>582</ele>
        <time>2023-05-07T08:42:45Z</time>
      </trkpt>
      <trkpt lat="45.471407" lon="1.787310">
        <ele>582</ele>
        <time>2023-05-07T08:42:46Z</time>
      </trkpt>
      <trkpt lat="45.471418" lon="1.787344">
        <ele>582</ele>
        <time>2023-05-07T08:42:47Z</time>
      </trkpt>
      <trkpt lat="45.471431" lon="1.787374">
        <ele>582</ele>
        <time>2023-05-07T08:42:48Z</time>
      </trkpt>
      <trkpt lat="45.471444" lon="1.787405">
        <ele>582</ele>
        <time>2023-05-07T08:42:49Z</time>
      </trkpt>
      <trkpt lat="45.471458" lon="1.787433">
        <ele>582</ele>
        <time>2023-05-07T08:42:50Z</time>
      </trkpt>
      <trkpt lat="45.471472" lon="1.787461">
        <ele>582</ele>
        <time>2023-05-07T08:42:51Z</time>
      </trkpt>
      <trkpt lat="45.471488" lon="1.787486">
        <ele>582</ele>
        <time>2023-05-07T08:42:52Z</time>
      </trkpt>
      <trkpt lat="45.471504" lon="1.787511">
        <ele>582</ele>
        <time>2023-05-07T08:42:53Z</time>
      </trkpt>
      <trkpt lat="45.471520" lon="1.787535">
        <ele>582</ele>
        <time>2023-05-07T08:42:54Z</time>
      </trkpt>
      <trkpt lat="45.471537" lon="1.787559">
        <ele>582</ele>
        <time>2023-05-07T08:42:55Z</time>
      </trkpt>
      <trkpt lat="45.471554" lon="1.787583">
        <ele>582</ele>
        <time>2023-05-07T08:42:56Z</time>
      </trkpt>
      <trkpt lat="45.471570" lon="1.787607">
        <ele>582</ele>
        <time>2023-05-07T08:42:57Z</time>
      </trkpt>
      <trkpt lat="45.471585" lon="1.787631">
        <ele>582</ele>
        <time>2023-05-07T08:42:58Z</time>
      </trkpt>
      <trkpt lat="45.471599" lon="1.787655">
        <ele>582</ele>
        <time>2023-05-07T08:42:59Z</time>
      </trkpt>
      <trkpt lat="45.471611" lon="1.787680">
        <ele>582</ele>
        <time>2023-05-07T08:43:00Z</time>
      </trkpt>
      <trkpt lat="45.471623" lon="1.787706">
        <ele>582</ele>
        <time>2023-05-07T08:43:01Z</time>
      </trkpt>
      <trkpt lat="45.471632" lon="1.787732">
        <ele>583</ele>
        <time>2023-05-07T08:43:02Z</time>
      </trkpt>
      <trkpt lat="45.471641" lon="1.787758">
        <ele>583</ele>
        <time>2023-05-07T08:43:03Z</time>
      </trkpt>
      <trkpt lat="45.471647" lon="1.787785">
        <ele>583</ele>
        <time>2023-05-07T08:43:04Z</time>
      </trkpt>
      <trkpt lat="45.471652" lon="1.787811">
        <ele>583</ele>
        <time>2023-05-07T08:43:05Z</time>
      </trkpt>
      <trkpt lat="45.471656" lon="1.787836">
        <ele>583</ele>
        <time>2023-05-07T08:43:06Z</time>
      </trkpt>
      <trkpt lat="45.471660" lon="1.787861">
        <ele>583</ele>
        <time>2023-05-07T08:43:07Z</time>
      </trkpt>
      <trkpt lat="45.471662" lon="1.787886">
        <ele>583</ele>
        <time>2023-05-07T08:43:08Z</time>
      </trkpt>
      <trkpt lat="45.471663" lon="1.787911">
        <ele>583</ele>
        <time>2023-05-07T08:43:09Z</time>
      </trkpt>
      <trkpt lat="45.471663" lon="1.787935">
        <ele>583</ele>
        <time>2023-05-07T08:43:10Z</time>
      </trkpt>
      <trkpt lat="45.471663" lon="1.787960">
        <ele>583</ele>
        <time>2023-05-07T08:43:11Z</time>
      </trkpt>
      <trkpt lat="45.471662" lon="1.787986">
        <ele>584</ele>
        <time>2023-05-07T08:43:12Z</time>
      </trkpt>
      <trkpt lat="45.471660" lon="1.788013">
        <ele>584</ele>
        <time>2023-05-07T08:43:13Z</time>
      </trkpt>
      <trkpt lat="45.471659" lon="1.788039">
        <ele>584</ele>
        <time>2023-05-07T08:43:14Z</time>
      </trkpt>
      <trkpt lat="45.471657" lon="1.788065">
        <ele>584</ele>
        <time>2023-05-07T08:43:15Z</time>
      </trkpt>
      <trkpt lat="45.471656" lon="1.788090">
        <ele>584</ele>
        <time>2023-05-07T08:43:16Z</time>
      </trkpt>
      <trkpt lat="45.471655" lon="1.788116">
        <ele>585</ele>
        <time>2023-05-07T08:43:17Z</time>
      </trkpt>
      <trkpt lat="45.471656" lon="1.788140">
        <ele>585</ele>
        <time>2023-05-07T08:43:18Z</time>
      </trkpt>
      <trkpt lat="45.471657" lon="1.788165">
        <ele>585</ele>
        <time>2023-05-07T08:43:19Z</time>
      </trkpt>
      <trkpt lat="45.471660" lon="1.788188">
        <ele>585</ele>
        <time>2023-05-07T08:43:20Z</time>
      </trkpt>
      <trkpt lat="45.471663" lon="1.788211">
        <ele>585</ele>
        <time>2023-05-07T08:43:21Z</time>
      </trkpt>
      <trkpt lat="45.471664" lon="1.788232">
        <ele>586</ele>
        <time>2023-05-07T08:43:22Z</time>
      </trkpt>
      <trkpt lat="45.471665" lon="1.788253">
        <ele>586</ele>
        <time>2023-05-07T08:43:23Z</time>
      </trkpt>
      <trkpt lat="45.471663" lon="1.788273">
        <ele>586</ele>
        <time>2023-05-07T08:43:24Z</time>
      </trkpt>
      <trkpt lat="45.471662" lon="1.788292">
        <ele>586</ele>
        <time>2023-05-07T08:43:25Z</time>
      </trkpt>
      <trkpt lat="45.471658" lon="1.788311">
        <ele>586</ele>
        <time>2023-05-07T08:43:26Z</time>
      </trkpt>
      <trkpt lat="45.471654" lon="1.788331">
        <ele>587</ele>
        <time>2023-05-07T08:43:27Z</time>
      </trkpt>
      <trkpt lat="45.471649" lon="1.788349">
        <ele>587</ele>
        <time>2023-05-07T08:43:28Z</time>
      </trkpt>
      <trkpt lat="45.471644" lon="1.788367">
        <ele>587</ele>
        <time>2023-05-07T08:43:29Z</time>
      </trkpt>
      <trkpt lat="45.471638" lon="1.788384">
        <ele>587</ele>
        <time>2023-05-07T08:43:30Z</time>
      </trkpt>
      <trkpt lat="45.471632" lon="1.788400">
        <ele>587</ele>
        <time>2023-05-07T08:43:31Z</time>
      </trkpt>
      <trkpt lat="45.471626" lon="1.788418">
        <ele>588</ele>
        <time>2023-05-07T08:43:32Z</time>
      </trkpt>
      <trkpt lat="45.471619" lon="1.788435">
        <ele>588</ele>
        <time>2023-05-07T08:43:33Z</time>
      </trkpt>
      <trkpt lat="45.471612" lon="1.788452">
        <ele>588</ele>
        <time>2023-05-07T08:43:34Z</time>
      </trkpt>
      <trkpt lat="45.471604" lon="1.788469">
        <ele>588</ele>
        <time>2023-05-07T08:43:35Z</time>
      </trkpt>
      <trkpt lat="45.471597" lon="1.788487">
        <ele>588</ele>
        <time>2023-05-07T08:43:36Z</time>
      </trkpt>
      <trkpt lat="45.471590" lon="1.788505">
        <ele>589</ele>
        <time>2023-05-07T08:43:37Z</time>
      </trkpt>
      <trkpt lat="45.471584" lon="1.788524">
        <ele>589</ele>
        <time>2023-05-07T08:43:38Z</time>
      </trkpt>
      <trkpt lat="45.471578" lon="1.788543">
        <ele>589</ele>
        <time>2023-05-07T08:43:39Z</time>
      </trkpt>
      <trkpt lat="45.471574" lon="1.788565">
        <ele>589</ele>
        <time>2023-05-07T08:43:40Z</time>
      </trkpt>
      <trkpt lat="45.471570" lon="1.788586">
        <ele>589</ele>
        <time>2023-05-07T08:43:41Z</time>
      </trkpt>
      <trkpt lat="45.471568" lon="1.788608">
        <ele>589</ele>
        <time>2023-05-07T08:43:42Z</time>
      </trkpt>
      <trkpt lat="45.471565" lon="1.788629">
        <ele>589</ele>
        <time>2023-05-07T08:43:43Z</time>
      </trkpt>
      <trkpt lat="45.471562" lon="1.788650">
        <ele>589</ele>
        <time>2023-05-07T08:43:44Z</time>
      </trkpt>
      <trkpt lat="45.471559" lon="1.788670">
        <ele>589</ele>
        <time>2023-05-07T08:43:45Z</time>
      </trkpt>
      <trkpt lat="45.471557" lon="1.788689">
        <ele>589</ele>
        <time>2023-05-07T08:43:46Z</time>
      </trkpt>
      <trkpt lat="45.471554" lon="1.788709">
        <ele>590</ele>
        <time>2023-05-07T08:43:47Z</time>
      </trkpt>
      <trkpt lat="45.471550" lon="1.788729">
        <ele>590</ele>
        <time>2023-05-07T08:43:48Z</time>
      </trkpt>
      <trkpt lat="45.471546" lon="1.788749">
        <ele>590</ele>
        <time>2023-05-07T08:43:49Z</time>
      </trkpt>
      <trkpt lat="45.471541" lon="1.788770">
        <ele>590</ele>
        <time>2023-05-07T08:43:50Z</time>
      </trkpt>
      <trkpt lat="45.471536" lon="1.788792">
        <ele>590</ele>
        <time>2023-05-07T08:43:51Z</time>
      </trkpt>
      <trkpt lat="45.471532" lon="1.788812">
        <ele>590</ele>
        <time>2023-05-07T08:43:52Z</time>
      </trkpt>
      <trkpt lat="45.471527" lon="1.788832">
        <ele>590</ele>
        <time>2023-05-07T08:43:53Z</time>
      </trkpt>
      <trkpt lat="45.471524" lon="1.788850">
        <ele>590</ele>
        <time>2023-05-07T08:43:54Z</time>
      </trkpt>
      <trkpt lat="45.471520" lon="1.788869">
        <ele>590</ele>
        <time>2023-05-07T08:43:55Z</time>
      </trkpt>
      <trkpt lat="45.471515" lon="1.788891">
        <ele>590</ele>
        <time>2023-05-07T08:43:56Z</time>
      </trkpt>
      <trkpt lat="45.471510" lon="1.788913">
        <ele>591</ele>
        <time>2023-05-07T08:43:57Z</time>
      </trkpt>
      <trkpt lat="45.471502" lon="1.788938">
        <ele>591</ele>
        <time>2023-05-07T08:43:58Z</time>
      </trkpt>
      <trkpt lat="45.471494" lon="1.788963">
        <ele>591</ele>
        <time>2023-05-07T08:43:59Z</time>
      </trkpt>
      <trkpt lat="45.471486" lon="1.788989">
        <ele>591</ele>
        <time>2023-05-07T08:44:00Z</time>
      </trkpt>
      <trkpt lat="45.471479" lon="1.789014">
        <ele>591</ele>
        <time>2023-05-07T08:44:01Z</time>
      </trkpt>
      <trkpt lat="45.471472" lon="1.789036">
        <ele>591</ele>
        <time>2023-05-07T08:44:02Z</time>
      </trkpt>
      <trkpt lat="45.471465" lon="1.789059">
        <ele>591</ele>
        <time>2023-05-07T08:44:03Z</time>
      </trkpt>
      <trkpt lat="45.471459" lon="1.789079">
        <ele>591</ele>
        <time>2023-05-07T08:44:04Z</time>
      </trkpt>
      <trkpt lat="45.471453" lon="1.789100">
        <ele>591</ele>
        <time>2023-05-07T08:44:05Z</time>
      </trkpt>
      <trkpt lat="45.471449" lon="1.789119">
        <ele>591</ele>
        <time>2023-05-07T08:44:06Z</time>
      </trkpt>
      <trkpt lat="45.471446" lon="1.789139">
        <ele>591</ele>
        <time>2023-05-07T08:44:07Z</time>
      </trkpt>
      <trkpt lat="45.471441" lon="1.789158">
        <ele>591</ele>
        <time>2023-05-07T08:44:08Z</time>
      </trkpt>
      <trkpt lat="45.471437" lon="1.789177">
        <ele>591</ele>
        <time>2023-05-07T08:44:09Z</time>
      </trkpt>
      <trkpt lat="45.471430" lon="1.789197">
        <ele>591</ele>
        <time>2023-05-07T08:44:10Z</time>
      </trkpt>
      <trkpt lat="45.471424" lon="1.789216">
        <ele>591</ele>
        <time>2023-05-07T08:44:11Z</time>
      </trkpt>
      <trkpt lat="45.471420" lon="1.789235">
        <ele>591</ele>
        <time>2023-05-07T08:44:12Z</time>
      </trkpt>
      <trkpt lat="45.471416" lon="1.789255">
        <ele>591</ele>
        <time>2023-05-07T08:44:13Z</time>
      </trkpt>
      <trkpt lat="45.471413" lon="1.789275">
        <ele>591</ele>
        <time>2023-05-07T08:44:14Z</time>
      </trkpt>
      <trkpt lat="45.471411" lon="1.789295">
        <ele>591</ele>
        <time>2023-05-07T08:44:15Z</time>
      </trkpt>
      <trkpt lat="45.471407" lon="1.789314">
        <ele>591</ele>
        <time>2023-05-07T08:44:16Z</time>
      </trkpt>
      <trkpt lat="45.471403" lon="1.789332">
        <ele>591</ele>
        <time>2023-05-07T08:44:17Z</time>
      </trkpt>
      <trkpt lat="45.471397" lon="1.789349">
        <ele>591</ele>
        <time>2023-05-07T08:44:18Z</time>
      </trkpt>
      <trkpt lat="45.471391" lon="1.789365">
        <ele>591</ele>
        <time>2023-05-07T08:44:19Z</time>
      </trkpt>
      <trkpt lat="45.471383" lon="1.789383">
        <ele>591</ele>
        <time>2023-05-07T08:44:20Z</time>
      </trkpt>
      <trkpt lat="45.471375" lon="1.789400">
        <ele>591</ele>
        <time>2023-05-07T08:44:21Z</time>
      </trkpt>
      <trkpt lat="45.471367" lon="1.789419">
        <ele>591</ele>
        <time>2023-05-07T08:44:22Z</time>
      </trkpt>
      <trkpt lat="45.471359" lon="1.789438">
        <ele>591</ele>
        <time>2023-05-07T08:44:23Z</time>
      </trkpt>
      <trkpt lat="45.471351" lon="1.789457">
        <ele>591</ele>
        <time>2023-05-07T08:44:24Z</time>
      </trkpt>
      <trkpt lat="45.471342" lon="1.789476">
        <ele>591</ele>
        <time>2023-05-07T08:44:25Z</time>
      </trkpt>
      <trkpt lat="45.471334" lon="1.789495">
        <ele>591</ele>
        <time>2023-05-07T08:44:26Z</time>
      </trkpt>
      <trkpt lat="45.471326" lon="1.789515">
        <ele>591</ele>
        <time>2023-05-07T08:44:27Z</time>
      </trkpt>
      <trkpt lat="45.471318" lon="1.789537">
        <ele>591</ele>
        <time>2023-05-07T08:44:28Z</time>
      </trkpt>
      <trkpt lat="45.471310" lon="1.789559">
        <ele>591</ele>
        <time>2023-05-07T08:44:29Z</time>
      </trkpt>
      <trkpt lat="45.471300" lon="1.789578">
        <ele>591</ele>
        <time>2023-05-07T08:44:30Z</time>
      </trkpt>
      <trkpt lat="45.471291" lon="1.789598">
        <ele>591</ele>
        <time>2023-05-07T08:44:31Z</time>
      </trkpt>
      <trkpt lat="45.471285" lon="1.789614">
        <ele>591</ele>
        <time>2023-05-07T08:44:32Z</time>
      </trkpt>
      <trkpt lat="45.471278" lon="1.789631">
        <ele>591</ele>
        <time>2023-05-07T08:44:33Z</time>
      </trkpt>
      <trkpt lat="45.471274" lon="1.789645">
        <ele>591</ele>
        <time>2023-05-07T08:44:34Z</time>
      </trkpt>
      <trkpt lat="45.471270" lon="1.789659">
        <ele>591</ele>
        <time>2023-05-07T08:44:35Z</time>
      </trkpt>
      <trkpt lat="45.471265" lon="1.789673">
        <ele>591</ele>
        <time>2023-05-07T08:44:36Z</time>
      </trkpt>
      <trkpt lat="45.471260" lon="1.789688">
        <ele>591</ele>
        <time>2023-05-07T08:44:37Z</time>
      </trkpt>
      <trkpt lat="45.471253" lon="1.789704">
        <ele>591</ele>
        <time>2023-05-07T08:44:38Z</time>
      </trkpt>
      <trkpt lat="45.471246" lon="1.789720">
        <ele>591</ele>
        <time>2023-05-07T08:44:39Z</time>
      </trkpt>
      <trkpt lat="45.471239" lon="1.789736">
        <ele>591</ele>
        <time>2023-05-07T08:44:40Z</time>
      </trkpt>
      <trkpt lat="45.471231" lon="1.789752">
        <ele>591</ele>
        <time>2023-05-07T08:44:41Z</time>
      </trkpt>
      <trkpt lat="45.471224" lon="1.789773">
        <ele>591</ele>
        <time>2023-05-07T08:44:42Z</time>
      </trkpt>
      <trkpt lat="45.471217" lon="1.789794">
        <ele>591</ele>
        <time>2023-05-07T08:44:43Z</time>
      </trkpt>
      <trkpt lat="45.471210" lon="1.789820">
        <ele>591</ele>
        <time>2023-05-07T08:44:44Z</time>
      </trkpt>
      <trkpt lat="45.471204" lon="1.789846">
        <ele>591</ele>
        <time>2023-05-07T08:44:45Z</time>
      </trkpt>
      <trkpt lat="45.471200" lon="1.789873">
        <ele>591</ele>
        <time>2023-05-07T08:44:46Z</time>
      </trkpt>
      <trkpt lat="45.471196" lon="1.789900">
        <ele>591</ele>
        <time>2023-05-07T08:44:47Z</time>
      </trkpt>
      <trkpt lat="45.471193" lon="1.789928">
        <ele>591</ele>
        <time>2023-05-07T08:44:48Z</time>
      </trkpt>
      <trkpt lat="45.471190" lon="1.789955">
        <ele>591</ele>
        <time>2023-05-07T08:44:49Z</time>
      </trkpt>
      <trkpt lat="45.471183" lon="1.789981">
        <ele>591</ele>
        <time>2023-05-07T08:44:50Z</time>
      </trkpt>
      <trkpt lat="45.471177" lon="1.790007">
        <ele>591</ele>
        <time>2023-05-07T08:44:51Z</time>
      </trkpt>
      <trkpt lat="45.471165" lon="1.790026">
        <ele>591</ele>
        <time>2023-05-07T08:44:52Z</time>
      </trkpt>
      <trkpt lat="45.471153" lon="1.790046">
        <ele>591</ele>
        <time>2023-05-07T08:44:53Z</time>
      </trkpt>
      <trkpt lat="45.471139" lon="1.790058">
        <ele>591</ele>
        <time>2023-05-07T08:44:54Z</time>
      </trkpt>
      <trkpt lat="45.471124" lon="1.790071">
        <ele>591</ele>
        <time>2023-05-07T08:44:55Z</time>
      </trkpt>
      <trkpt lat="45.471111" lon="1.790077">
        <ele>591</ele>
        <time>2023-05-07T08:44:56Z</time>
      </trkpt>
      <trkpt lat="45.471099" lon="1.790083">
        <ele>591</ele>
        <time>2023-05-07T08:44:57Z</time>
      </trkpt>
      <trkpt lat="45.471091" lon="1.790086">
        <ele>591</ele>
        <time>2023-05-07T08:44:58Z</time>
      </trkpt>
      <trkpt lat="45.471082" lon="1.790088">
        <ele>591</ele>
        <time>2023-05-07T08:44:59Z</time>
      </trkpt>
      <trkpt lat="45.471071" lon="1.790094">
        <ele>591</ele>
        <time>2023-05-07T08:45:00Z</time>
      </trkpt>
      <trkpt lat="45.471060" lon="1.790099">
        <ele>591</ele>
        <time>2023-05-07T08:45:01Z</time>
      </trkpt>
      <trkpt lat="45.471044" lon="1.790111">
        <ele>591</ele>
        <time>2023-05-07T08:45:02Z</time>
      </trkpt>
      <trkpt lat="45.471029" lon="1.790122">
        <ele>590</ele>
        <time>2023-05-07T08:45:03Z</time>
      </trkpt>
      <trkpt lat="45.471014" lon="1.790133">
        <ele>590</ele>
        <time>2023-05-07T08:45:04Z</time>
      </trkpt>
      <trkpt lat="45.470999" lon="1.790145">
        <ele>590</ele>
        <time>2023-05-07T08:45:05Z</time>
      </trkpt>
      <trkpt lat="45.470985" lon="1.790156">
        <ele>590</ele>
        <time>2023-05-07T08:45:06Z</time>
      </trkpt>
      <trkpt lat="45.470970" lon="1.790167">
        <ele>590</ele>
        <time>2023-05-07T08:45:07Z</time>
      </trkpt>
      <trkpt lat="45.470959" lon="1.790180">
        <ele>590</ele>
        <time>2023-05-07T08:45:08Z</time>
      </trkpt>
      <trkpt lat="45.470947" lon="1.790192">
        <ele>590</ele>
        <time>2023-05-07T08:45:09Z</time>
      </trkpt>
      <trkpt lat="45.470934" lon="1.790206">
        <ele>590</ele>
        <time>2023-05-07T08:45:10Z</time>
      </trkpt>
      <trkpt lat="45.470922" lon="1.790221">
        <ele>590</ele>
        <time>2023-05-07T08:45:11Z</time>
      </trkpt>
      <trkpt lat="45.470911" lon="1.790234">
        <ele>590</ele>
        <time>2023-05-07T08:45:12Z</time>
      </trkpt>
      <trkpt lat="45.470899" lon="1.790248">
        <ele>590</ele>
        <time>2023-05-07T08:45:13Z</time>
      </trkpt>
      <trkpt lat="45.470890" lon="1.790261">
        <ele>590</ele>
        <time>2023-05-07T08:45:14Z</time>
      </trkpt>
      <trkpt lat="45.470882" lon="1.790274">
        <ele>590</ele>
        <time>2023-05-07T08:45:15Z</time>
      </trkpt>
      <trkpt lat="45.470869" lon="1.790288">
        <ele>590</ele>
        <time>2023-05-07T08:45:16Z</time>
      </trkpt>
      <trkpt lat="45.470857" lon="1.790302">
        <ele>590</ele>
        <time>2023-05-07T08:45:17Z</time>
      </trkpt>
      <trkpt lat="45.470840" lon="1.790314">
        <ele>590</ele>
        <time>2023-05-07T08:45:18Z</time>
      </trkpt>
      <trkpt lat="45.470823" lon="1.790326">
        <ele>590</ele>
        <time>2023-05-07T08:45:19Z</time>
      </trkpt>
      <trkpt lat="45.470806" lon="1.790331">
        <ele>590</ele>
        <time>2023-05-07T08:45:20Z</time>
      </trkpt>
      <trkpt lat="45.470789" lon="1.790336">
        <ele>590</ele>
        <time>2023-05-07T08:45:21Z</time>
      </trkpt>
      <trkpt lat="45.470770" lon="1.790337">
        <ele>590</ele>
        <time>2023-05-07T08:45:22Z</time>
      </trkpt>
      <trkpt lat="45.470752" lon="1.790339">
        <ele>590</ele>
        <time>2023-05-07T08:45:23Z</time>
      </trkpt>
      <trkpt lat="45.470734" lon="1.790339">
        <ele>590</ele>
        <time>2023-05-07T08:45:24Z</time>
      </trkpt>
      <trkpt lat="45.470715" lon="1.790339">
        <ele>590</ele>
        <time>2023-05-07T08:45:25Z</time>
      </trkpt>
      <trkpt lat="45.470707" lon="1.790338">
        <ele>590</ele>
        <time>2023-05-07T08:45:26Z</time>
      </trkpt>
      <trkpt lat="45.470699" lon="1.790337">
        <ele>590</ele>
        <time>2023-05-07T08:45:27Z</time>
      </trkpt>
      <trkpt lat="45.470691" lon="1.790337">
        <ele>590</ele>
        <time>2023-05-07T08:45:28Z</time>
      </trkpt>
      <trkpt lat="45.470683" lon="1.790336">
        <ele>590</ele>
        <time>2023-05-07T08:45:29Z</time>
      </trkpt>
      <trkpt lat="45.470673" lon="1.790335">
        <ele>590</ele>
        <time>2023-05-07T08:45:30Z</time>
      </trkpt>
      <trkpt lat="45.470664" lon="1.790333">
        <ele>590</ele>
        <time>2023-05-07T08:45:31Z</time>
      </trkpt>
      <trkpt lat="45.470652" lon="1.790330">
        <ele>591</ele>
        <time>2023-05-07T08:45:38Z</time>
      </trkpt>
      <trkpt lat="45.470648" lon="1.790329">
        <ele>591</ele>
        <time>2023-05-07T08:45:39Z</time>
      </trkpt>
      <trkpt lat="45.470643" lon="1.790328">
        <ele>591</ele>
        <time>2023-05-07T08:45:40Z</time>
      </trkpt>
      <trkpt lat="45.470621" lon="1.790321">
        <ele>591</ele>
        <time>2023-05-07T08:45:51Z</time>
      </trkpt>
      <trkpt lat="45.470609" lon="1.790318">
        <ele>591</ele>
        <time>2023-05-07T08:45:52Z</time>
      </trkpt>
      <trkpt lat="45.470598" lon="1.790314">
        <ele>591</ele>
        <time>2023-05-07T08:45:53Z</time>
      </trkpt>
      <trkpt lat="45.470589" lon="1.790311">
        <ele>591</ele>
        <time>2023-05-07T08:45:54Z</time>
      </trkpt>
      <trkpt lat="45.470580" lon="1.790308">
        <ele>591</ele>
        <time>2023-05-07T08:45:55Z</time>
      </trkpt>
      <trkpt lat="45.470572" lon="1.790306">
        <ele>591</ele>
        <time>2023-05-07T08:45:56Z</time>
      </trkpt>
      <trkpt lat="45.470564" lon="1.790305">
        <ele>591</ele>
        <time>2023-05-07T08:45:57Z</time>
      </trkpt>
      <trkpt lat="45.470561" lon="1.790304">
        <ele>591</ele>
        <time>2023-05-07T08:45:58Z</time>
      </trkpt>
      <trkpt lat="45.470558" lon="1.790303">
        <ele>591</ele>
        <time>2023-05-07T08:45:59Z</time>
      </trkpt>
      <trkpt lat="45.470555" lon="1.790302">
        <ele>591</ele>
        <time>2023-05-07T08:46:00Z</time>
      </trkpt>
      <trkpt lat="45.470547" lon="1.790301">
        <ele>591</ele>
        <time>2023-05-07T08:46:01Z</time>
      </trkpt>
      <trkpt lat="45.470540" lon="1.790299">
        <ele>591</ele>
        <time>2023-05-07T08:46:02Z</time>
      </trkpt>
      <trkpt lat="45.470535" lon="1.790298">
        <ele>591</ele>
        <time>2023-05-07T08:46:03Z</time>
      </trkpt>
      <trkpt lat="45.470531" lon="1.790297">
        <ele>591</ele>
        <time>2023-05-07T08:46:04Z</time>
      </trkpt>
      <trkpt lat="45.470526" lon="1.790296">
        <ele>591</ele>
        <time>2023-05-07T08:46:05Z</time>
      </trkpt>
      <trkpt lat="45.470510" lon="1.790298">
        <ele>592</ele>
        <time>2023-05-07T08:46:18Z</time>
      </trkpt>
      <trkpt lat="45.470500" lon="1.790300">
        <ele>592</ele>
        <time>2023-05-07T08:46:19Z</time>
      </trkpt>
      <trkpt lat="45.470490" lon="1.790302">
        <ele>592</ele>
        <time>2023-05-07T08:46:20Z</time>
      </trkpt>
      <trkpt lat="45.470483" lon="1.790304">
        <ele>592</ele>
        <time>2023-05-07T08:46:21Z</time>
      </trkpt>
      <trkpt lat="45.470476" lon="1.790306">
        <ele>592</ele>
        <time>2023-05-07T08:46:22Z</time>
      </trkpt>
      <trkpt lat="45.470472" lon="1.790307">
        <ele>592</ele>
        <time>2023-05-07T08:46:23Z</time>
      </trkpt>
      <trkpt lat="45.470467" lon="1.790309">
        <ele>592</ele>
        <time>2023-05-07T08:46:24Z</time>
      </trkpt>
      <trkpt lat="45.470462" lon="1.790313">
        <ele>592</ele>
        <time>2023-05-07T08:46:25Z</time>
      </trkpt>
      <trkpt lat="45.470457" lon="1.790316">
        <ele>592</ele>
        <time>2023-05-07T08:46:26Z</time>
      </trkpt>
      <trkpt lat="45.470452" lon="1.790319">
        <ele>593</ele>
        <time>2023-05-07T08:46:27Z</time>
      </trkpt>
      <trkpt lat="45.470447" lon="1.790326">
        <ele>593</ele>
        <time>2023-05-07T08:46:28Z</time>
      </trkpt>
      <trkpt lat="45.470441" lon="1.790333">
        <ele>593</ele>
        <time>2023-05-07T08:46:29Z</time>
      </trkpt>
      <trkpt lat="45.470437" lon="1.790339">
        <ele>593</ele>
        <time>2023-05-07T08:46:30Z</time>
      </trkpt>
      <trkpt lat="45.470432" lon="1.790345">
        <ele>593</ele>
        <time>2023-05-07T08:46:31Z</time>
      </trkpt>
      <trkpt lat="45.470427" lon="1.790350">
        <ele>593</ele>
        <time>2023-05-07T08:46:32Z</time>
      </trkpt>
      <trkpt lat="45.470423" lon="1.790355">
        <ele>593</ele>
        <time>2023-05-07T08:46:33Z</time>
      </trkpt>
      <trkpt lat="45.470418" lon="1.790359">
        <ele>593</ele>
        <time>2023-05-07T08:46:34Z</time>
      </trkpt>
      <trkpt lat="45.470413" lon="1.790363">
        <ele>593</ele>
        <time>2023-05-07T08:46:35Z</time>
      </trkpt>
      <trkpt lat="45.470407" lon="1.790367">
        <ele>593</ele>
        <time>2023-05-07T08:46:36Z</time>
      </trkpt>
      <trkpt lat="45.470402" lon="1.790372">
        <ele>593</ele>
        <time>2023-05-07T08:46:37Z</time>
      </trkpt>
      <trkpt lat="45.470397" lon="1.790376">
        <ele>593</ele>
        <time>2023-05-07T08:46:38Z</time>
      </trkpt>
      <trkpt lat="45.470393" lon="1.790380">
        <ele>593</ele>
        <time>2023-05-07T08:46:39Z</time>
      </trkpt>
      <trkpt lat="45.470389" lon="1.790384">
        <ele>593</ele>
        <time>2023-05-07T08:46:40Z</time>
      </trkpt>
      <trkpt lat="45.470383" lon="1.790391">
        <ele>593</ele>
        <time>2023-05-07T08:46:41Z</time>
      </trkpt>
      <trkpt lat="45.470378" lon="1.790398">
        <ele>593</ele>
        <time>2023-05-07T08:46:42Z</time>
      </trkpt>
      <trkpt lat="45.470373" lon="1.790406">
        <ele>593</ele>
        <time>2023-05-07T08:46:43Z</time>
      </trkpt>
      <trkpt lat="45.470368" lon="1.790413">
        <ele>593</ele>
        <time>2023-05-07T08:46:44Z</time>
      </trkpt>
      <trkpt lat="45.470363" lon="1.790421">
        <ele>593</ele>
        <time>2023-05-07T08:46:45Z</time>
      </trkpt>
      <trkpt lat="45.470358" lon="1.790429">
        <ele>593</ele>
        <time>2023-05-07T08:46:46Z</time>
      </trkpt>
      <trkpt lat="45.470352" lon="1.790435">
        <ele>594</ele>
        <time>2023-05-07T08:46:47Z</time>
      </trkpt>
      <trkpt lat="45.470346" lon="1.790442">
        <ele>594</ele>
        <time>2023-05-07T08:46:48Z</time>
      </trkpt>
      <trkpt lat="45.470339" lon="1.790449">
        <ele>594</ele>
        <time>2023-05-07T08:46:49Z</time>
      </trkpt>
      <trkpt lat="45.470332" lon="1.790455">
        <ele>594</ele>
        <time>2023-05-07T08:46:50Z</time>
      </trkpt>
      <trkpt lat="45.470324" lon="1.790464">
        <ele>594</ele>
        <time>2023-05-07T08:46:51Z</time>
      </trkpt>
      <trkpt lat="45.470316" lon="1.790472">
        <ele>594</ele>
        <time>2023-05-07T08:46:52Z</time>
      </trkpt>
      <trkpt lat="45.470307" lon="1.790479">
        <ele>594</ele>
        <time>2023-05-07T08:46:53Z</time>
      </trkpt>
      <trkpt lat="45.470298" lon="1.790487">
        <ele>594</ele>
        <time>2023-05-07T08:46:54Z</time>
      </trkpt>
      <trkpt lat="45.470289" lon="1.790492">
        <ele>594</ele>
        <time>2023-05-07T08:46:55Z</time>
      </trkpt>
      <trkpt lat="45.470279" lon="1.790497">
        <ele>594</ele>
        <time>2023-05-07T08:46:56Z</time>
      </trkpt>
      <trkpt lat="45.470269" lon="1.790502">
        <ele>594</ele>
        <time>2023-05-07T08:46:57Z</time>
      </trkpt>
      <trkpt lat="45.470258" lon="1.790507">
        <ele>594</ele>
        <time>2023-05-07T08:46:58Z</time>
      </trkpt>
      <trkpt lat="45.470247" lon="1.790514">
        <ele>594</ele>
        <time>2023-05-07T08:46:59Z</time>
      </trkpt>
      <trkpt lat="45.470236" lon="1.790520">
        <ele>594</ele>
        <time>2023-05-07T08:47:00Z</time>
      </trkpt>
      <trkpt lat="45.470212" lon="1.790532">
        <ele>595</ele>
        <time>2023-05-07T08:47:16Z</time>
      </trkpt>
      <trkpt lat="45.470203" lon="1.790534">
        <ele>595</ele>
        <time>2023-05-07T08:47:17Z</time>
      </trkpt>
      <trkpt lat="45.470193" lon="1.790537">
        <ele>595</ele>
        <time>2023-05-07T08:47:18Z</time>
      </trkpt>
      <trkpt lat="45.470185" lon="1.790537">
        <ele>595</ele>
        <time>2023-05-07T08:47:19Z</time>
      </trkpt>
      <trkpt lat="45.470177" lon="1.790538">
        <ele>595</ele>
        <time>2023-05-07T08:47:20Z</time>
      </trkpt>
      <trkpt lat="45.470168" lon="1.790538">
        <ele>595</ele>
        <time>2023-05-07T08:47:21Z</time>
      </trkpt>
      <trkpt lat="45.470159" lon="1.790539">
        <ele>596</ele>
        <time>2023-05-07T08:47:22Z</time>
      </trkpt>
      <trkpt lat="45.470149" lon="1.790540">
        <ele>596</ele>
        <time>2023-05-07T08:47:23Z</time>
      </trkpt>
      <trkpt lat="45.470139" lon="1.790541">
        <ele>596</ele>
        <time>2023-05-07T08:47:24Z</time>
      </trkpt>
      <trkpt lat="45.470130" lon="1.790542">
        <ele>596</ele>
        <time>2023-05-07T08:47:25Z</time>
      </trkpt>
      <trkpt lat="45.470121" lon="1.790544">
        <ele>596</ele>
        <time>2023-05-07T08:47:26Z</time>
      </trkpt>
      <trkpt lat="45.470112" lon="1.790544">
        <ele>596</ele>
        <time>2023-05-07T08:47:27Z</time>
      </trkpt>
      <trkpt lat="45.470102" lon="1.790545">
        <ele>596</ele>
        <time>2023-05-07T08:47:28Z</time>
      </trkpt>
      <trkpt lat="45.470093" lon="1.790547">
        <ele>596</ele>
        <time>2023-05-07T08:47:29Z</time>
      </trkpt>
      <trkpt lat="45.470083" lon="1.790548">
        <ele>596</ele>
        <time>2023-05-07T08:47:30Z</time>
      </trkpt>
      <trkpt lat="45.470075" lon="1.790551">
        <ele>596</ele>
        <time>2023-05-07T08:47:31Z</time>
      </trkpt>
      <trkpt lat="45.470066" lon="1.790553">
        <ele>596</ele>
        <time>2023-05-07T08:47:32Z</time>
      </trkpt>
      <trkpt lat="45.470058" lon="1.790556">
        <ele>596</ele>
        <time>2023-05-07T08:47:33Z</time>
      </trkpt>
      <trkpt lat="45.470050" lon="1.790558">
        <ele>596</ele>
        <time>2023-05-07T08:47:34Z</time>
      </trkpt>
      <trkpt lat="45.470043" lon="1.790562">
        <ele>596</ele>
        <time>2023-05-07T08:47:35Z</time>
      </trkpt>
      <trkpt lat="45.470035" lon="1.790566">
        <ele>596</ele>
        <time>2023-05-07T08:47:36Z</time>
      </trkpt>
      <trkpt lat="45.470028" lon="1.790571">
        <ele>596</ele>
        <time>2023-05-07T08:47:37Z</time>
      </trkpt>
      <trkpt lat="45.470021" lon="1.790577">
        <ele>596</ele>
        <time>2023-05-07T08:47:38Z</time>
      </trkpt>
      <trkpt lat="45.470014" lon="1.790581">
        <ele>596</ele>
        <time>2023-05-07T08:47:39Z</time>
      </trkpt>
      <trkpt lat="45.470007" lon="1.790585">
        <ele>596</ele>
        <time>2023-05-07T08:47:40Z</time>
      </trkpt>
      <trkpt lat="45.469999" lon="1.790590">
        <ele>596</ele>
        <time>2023-05-07T08:47:41Z</time>
      </trkpt>
      <trkpt lat="45.469990" lon="1.790594">
        <ele>597</ele>
        <time>2023-05-07T08:47:42Z</time>
      </trkpt>
      <trkpt lat="45.469982" lon="1.790598">
        <ele>597</ele>
        <time>2023-05-07T08:47:43Z</time>
      </trkpt>
      <trkpt lat="45.469973" lon="1.790601">
        <ele>597</ele>
        <time>2023-05-07T08:47:44Z</time>
      </trkpt>
      <trkpt lat="45.469964" lon="1.790604">
        <ele>597</ele>
        <time>2023-05-07T08:47:45Z</time>
      </trkpt>
      <trkpt lat="45.469955" lon="1.790607">
        <ele>597</ele>
        <time>2023-05-07T08:47:46Z</time>
      </trkpt>
      <trkpt lat="45.469947" lon="1.790610">
        <ele>597</ele>
        <time>2023-05-07T08:47:47Z</time>
      </trkpt>
      <trkpt lat="45.469938" lon="1.790612">
        <ele>597</ele>
        <time>2023-05-07T08:47:48Z</time>
      </trkpt>
      <trkpt lat="45.469931" lon="1.790615">
        <ele>597</ele>
        <time>2023-05-07T08:47:49Z</time>
      </trkpt>
      <trkpt lat="45.469924" lon="1.790618">
        <ele>597</ele>
        <time>2023-05-07T08:47:50Z</time>
      </trkpt>
      <trkpt lat="45.469918" lon="1.790620">
        <ele>597</ele>
        <time>2023-05-07T08:47:51Z</time>
      </trkpt>
      <trkpt lat="45.469912" lon="1.790622">
        <ele>597</ele>
        <time>2023-05-07T08:47:52Z</time>
      </trkpt>
      <trkpt lat="45.469906" lon="1.790622">
        <ele>597</ele>
        <time>2023-05-07T08:47:53Z</time>
      </trkpt>
      <trkpt lat="45.469900" lon="1.790622">
        <ele>597</ele>
        <time>2023-05-07T08:47:54Z</time>
      </trkpt>
      <trkpt lat="45.469893" lon="1.790622">
        <ele>597</ele>
        <time>2023-05-07T08:47:55Z</time>
      </trkpt>
      <trkpt lat="45.469886" lon="1.790623">
        <ele>597</ele>
        <time>2023-05-07T08:47:56Z</time>
      </trkpt>
      <trkpt lat="45.469878" lon="1.790623">
        <ele>598</ele>
        <time>2023-05-07T08:47:57Z</time>
      </trkpt>
      <trkpt lat="45.469870" lon="1.790623">
        <ele>598</ele>
        <time>2023-05-07T08:47:58Z</time>
      </trkpt>
      <trkpt lat="45.469861" lon="1.790625">
        <ele>598</ele>
        <time>2023-05-07T08:47:59Z</time>
      </trkpt>
      <trkpt lat="45.469853" lon="1.790626">
        <ele>598</ele>
        <time>2023-05-07T08:48:00Z</time>
      </trkpt>
      <trkpt lat="45.469845" lon="1.790629">
        <ele>598</ele>
        <time>2023-05-07T08:48:01Z</time>
      </trkpt>
      <trkpt lat="45.469836" lon="1.790631">
        <ele>598</ele>
        <time>2023-05-07T08:48:02Z</time>
      </trkpt>
      <trkpt lat="45.469828" lon="1.790634">
        <ele>598</ele>
        <time>2023-05-07T08:48:03Z</time>
      </trkpt>
      <trkpt lat="45.469820" lon="1.790637">
        <ele>598</ele>
        <time>2023-05-07T08:48:04Z</time>
      </trkpt>
      <trkpt lat="45.469811" lon="1.790642">
        <ele>598</ele>
        <time>2023-05-07T08:48:05Z</time>
      </trkpt>
      <trkpt lat="45.469801" lon="1.790647">
        <ele>598</ele>
        <time>2023-05-07T08:48:06Z</time>
      </trkpt>
      <trkpt lat="45.469792" lon="1.790655">
        <ele>599</ele>
        <time>2023-05-07T08:48:07Z</time>
      </trkpt>
      <trkpt lat="45.469782" lon="1.790663">
        <ele>599</ele>
        <time>2023-05-07T08:48:08Z</time>
      </trkpt>
      <trkpt lat="45.469773" lon="1.790669">
        <ele>599</ele>
        <time>2023-05-07T08:48:09Z</time>
      </trkpt>
      <trkpt lat="45.469764" lon="1.790676">
        <ele>599</ele>
        <time>2023-05-07T08:48:10Z</time>
      </trkpt>
      <trkpt lat="45.469755" lon="1.790684">
        <ele>599</ele>
        <time>2023-05-07T08:48:11Z</time>
      </trkpt>
      <trkpt lat="45.469746" lon="1.790691">
        <ele>599</ele>
        <time>2023-05-07T08:48:12Z</time>
      </trkpt>
      <trkpt lat="45.469736" lon="1.790695">
        <ele>599</ele>
        <time>2023-05-07T08:48:13Z</time>
      </trkpt>
      <trkpt lat="45.469727" lon="1.790700">
        <ele>599</ele>
        <time>2023-05-07T08:48:14Z</time>
      </trkpt>
      <trkpt lat="45.469716" lon="1.790700">
        <ele>599</ele>
        <time>2023-05-07T08:48:15Z</time>
      </trkpt>
      <trkpt lat="45.469705" lon="1.790700">
        <ele>599</ele>
        <time>2023-05-07T08:48:16Z</time>
      </trkpt>
      <trkpt lat="45.469693" lon="1.790699">
        <ele>600</ele>
        <time>2023-05-07T08:48:17Z</time>
      </trkpt>
      <trkpt lat="45.469682" lon="1.790698">
        <ele>600</ele>
        <time>2023-05-07T08:48:18Z</time>
      </trkpt>
      <trkpt lat="45.469672" lon="1.790702">
        <ele>600</ele>
        <time>2023-05-07T08:48:19Z</time>
      </trkpt>
      <trkpt lat="45.469662" lon="1.790705">
        <ele>600</ele>
        <time>2023-05-07T08:48:20Z</time>
      </trkpt>
      <trkpt lat="45.469652" lon="1.790712">
        <ele>600</ele>
        <time>2023-05-07T08:48:21Z</time>
      </trkpt>
      <trkpt lat="45.469643" lon="1.790718">
        <ele>600</ele>
        <time>2023-05-07T08:48:22Z</time>
      </trkpt>
      <trkpt lat="45.469634" lon="1.790721">
        <ele>600</ele>
        <time>2023-05-07T08:48:23Z</time>
      </trkpt>
      <trkpt lat="45.469626" lon="1.790725">
        <ele>600</ele>
        <time>2023-05-07T08:48:24Z</time>
      </trkpt>
      <trkpt lat="45.469611" lon="1.790698">
        <ele>603</ele>
        <time>2023-05-07T08:49:14Z</time>
      </trkpt>
      <trkpt lat="45.469604" lon="1.790680">
        <ele>603</ele>
        <time>2023-05-07T08:49:15Z</time>
      </trkpt>
      <trkpt lat="45.469597" lon="1.790663">
        <ele>603</ele>
        <time>2023-05-07T08:49:16Z</time>
      </trkpt>
      <trkpt lat="45.469595" lon="1.790647">
        <ele>603</ele>
        <time>2023-05-07T08:49:17Z</time>
      </trkpt>
      <trkpt lat="45.469593" lon="1.790632">
        <ele>603</ele>
        <time>2023-05-07T08:49:18Z</time>
      </trkpt>
      <trkpt lat="45.469594" lon="1.790612">
        <ele>603</ele>
        <time>2023-05-07T08:49:19Z</time>
      </trkpt>
      <trkpt lat="45.469594" lon="1.790593">
        <ele>603</ele>
        <time>2023-05-07T08:49:20Z</time>
      </trkpt>
      <trkpt lat="45.469596" lon="1.790572">
        <ele>603</ele>
        <time>2023-05-07T08:49:21Z</time>
      </trkpt>
      <trkpt lat="45.469597" lon="1.790551">
        <ele>603</ele>
        <time>2023-05-07T08:49:22Z</time>
      </trkpt>
      <trkpt lat="45.469600" lon="1.790532">
        <ele>603</ele>
        <time>2023-05-07T08:49:23Z</time>
      </trkpt>
      <trkpt lat="45.469603" lon="1.790512">
        <ele>603</ele>
        <time>2023-05-07T08:49:24Z</time>
      </trkpt>
      <trkpt lat="45.469611" lon="1.790495">
        <ele>603</ele>
        <time>2023-05-07T08:49:25Z</time>
      </trkpt>
      <trkpt lat="45.469618" lon="1.790477">
        <ele>603</ele>
        <time>2023-05-07T08:49:26Z</time>
      </trkpt>
      <trkpt lat="45.469630" lon="1.790457">
        <ele>603</ele>
        <time>2023-05-07T08:49:27Z</time>
      </trkpt>
      <trkpt lat="45.469641" lon="1.790438">
        <ele>603</ele>
        <time>2023-05-07T08:49:28Z</time>
      </trkpt>
      <trkpt lat="45.469656" lon="1.790419">
        <ele>603</ele>
        <time>2023-05-07T08:49:29Z</time>
      </trkpt>
      <trkpt lat="45.469671" lon="1.790400">
        <ele>603</ele>
        <time>2023-05-07T08:49:30Z</time>
      </trkpt>
      <trkpt lat="45.469685" lon="1.790384">
        <ele>603</ele>
        <time>2023-05-07T08:49:31Z</time>
      </trkpt>
      <trkpt lat="45.469700" lon="1.790367">
        <ele>603</ele>
        <time>2023-05-07T08:49:32Z</time>
      </trkpt>
      <trkpt lat="45.469713" lon="1.790353">
        <ele>603</ele>
        <time>2023-05-07T08:49:33Z</time>
      </trkpt>
      <trkpt lat="45.469727" lon="1.790340">
        <ele>603</ele>
        <time>2023-05-07T08:49:34Z</time>
      </trkpt>
      <trkpt lat="45.469738" lon="1.790329">
        <ele>603</ele>
        <time>2023-05-07T08:49:35Z</time>
      </trkpt>
      <trkpt lat="45.469750" lon="1.790319">
        <ele>603</ele>
        <time>2023-05-07T08:49:36Z</time>
      </trkpt>
      <trkpt lat="45.469760" lon="1.790309">
        <ele>604</ele>
        <time>2023-05-07T08:49:37Z</time>
      </trkpt>
      <trkpt lat="45.469771" lon="1.790300">
        <ele>604</ele>
        <time>2023-05-07T08:49:38Z</time>
      </trkpt>
      <trkpt lat="45.469781" lon="1.790288">
        <ele>604</ele>
        <time>2023-05-07T08:49:39Z</time>
      </trkpt>
      <trkpt lat="45.469792" lon="1.790277">
        <ele>604</ele>
        <time>2023-05-07T08:49:40Z</time>
      </trkpt>
      <trkpt lat="45.469803" lon="1.790265">
        <ele>604</ele>
        <time>2023-05-07T08:49:41Z</time>
      </trkpt>
      <trkpt lat="45.469814" lon="1.790252">
        <ele>604</ele>
        <time>2023-05-07T08:49:42Z</time>
      </trkpt>
      <trkpt lat="45.469827" lon="1.790241">
        <ele>604</ele>
        <time>2023-05-07T08:49:43Z</time>
      </trkpt>
      <trkpt lat="45.469840" lon="1.790229">
        <ele>604</ele>
        <time>2023-05-07T08:49:44Z</time>
      </trkpt>
      <trkpt lat="45.469852" lon="1.790217">
        <ele>604</ele>
        <time>2023-05-07T08:49:45Z</time>
      </trkpt>
      <trkpt lat="45.469865" lon="1.790206">
        <ele>604</ele>
        <time>2023-05-07T08:49:46Z</time>
      </trkpt>
      <trkpt lat="45.469876" lon="1.790194">
        <ele>605</ele>
        <time>2023-05-07T08:49:47Z</time>
      </trkpt>
      <trkpt lat="45.469887" lon="1.790182">
        <ele>605</ele>
        <time>2023-05-07T08:49:48Z</time>
      </trkpt>
      <trkpt lat="45.469897" lon="1.790171">
        <ele>605</ele>
        <time>2023-05-07T08:49:49Z</time>
      </trkpt>
      <trkpt lat="45.469908" lon="1.790160">
        <ele>605</ele>
        <time>2023-05-07T08:49:50Z</time>
      </trkpt>
      <trkpt lat="45.469919" lon="1.790149">
        <ele>605</ele>
        <time>2023-05-07T08:49:51Z</time>
      </trkpt>
      <trkpt lat="45.469929" lon="1.790139">
        <ele>605</ele>
        <time>2023-05-07T08:49:52Z</time>
      </trkpt>
      <trkpt lat="45.469941" lon="1.790127">
        <ele>605</ele>
        <time>2023-05-07T08:49:53Z</time>
      </trkpt>
      <trkpt lat="45.469953" lon="1.790116">
        <ele>605</ele>
        <time>2023-05-07T08:49:54Z</time>
      </trkpt>
      <trkpt lat="45.469964" lon="1.790103">
        <ele>605</ele>
        <time>2023-05-07T08:49:55Z</time>
      </trkpt>
      <trkpt lat="45.469975" lon="1.790091">
        <ele>605</ele>
        <time>2023-05-07T08:49:56Z</time>
      </trkpt>
      <trkpt lat="45.469985" lon="1.790075">
        <ele>605</ele>
        <time>2023-05-07T08:49:57Z</time>
      </trkpt>
      <trkpt lat="45.469996" lon="1.790061">
        <ele>605</ele>
        <time>2023-05-07T08:49:58Z</time>
      </trkpt>
      <trkpt lat="45.470005" lon="1.790043">
        <ele>605</ele>
        <time>2023-05-07T08:49:59Z</time>
      </trkpt>
      <trkpt lat="45.470013" lon="1.790025">
        <ele>605</ele>
        <time>2023-05-07T08:50:00Z</time>
      </trkpt>
      <trkpt lat="45.470019" lon="1.790006">
        <ele>605</ele>
        <time>2023-05-07T08:50:01Z</time>
      </trkpt>
      <trkpt lat="45.470024" lon="1.789987">
        <ele>605</ele>
        <time>2023-05-07T08:50:02Z</time>
      </trkpt>
      <trkpt lat="45.470025" lon="1.789968">
        <ele>605</ele>
        <time>2023-05-07T08:50:03Z</time>
      </trkpt>
      <trkpt lat="45.470025" lon="1.789948">
        <ele>605</ele>
        <time>2023-05-07T08:50:04Z</time>
      </trkpt>
      <trkpt lat="45.470022" lon="1.789927">
        <ele>605</ele>
        <time>2023-05-07T08:50:05Z</time>
      </trkpt>
      <trkpt lat="45.470019" lon="1.789906">
        <ele>605</ele>
        <time>2023-05-07T08:50:06Z</time>
      </trkpt>
      <trkpt lat="45.470013" lon="1.789886">
        <ele>605</ele>
        <time>2023-05-07T08:50:07Z</time>
      </trkpt>
      <trkpt lat="45.470008" lon="1.789865">
        <ele>605</ele>
        <time>2023-05-07T08:50:08Z</time>
      </trkpt>
      <trkpt lat="45.469999" lon="1.789849">
        <ele>605</ele>
        <time>2023-05-07T08:50:09Z</time>
      </trkpt>
      <trkpt lat="45.469990" lon="1.789833">
        <ele>605</ele>
        <time>2023-05-07T08:50:10Z</time>
      </trkpt>
      <trkpt lat="45.469976" lon="1.789821">
        <ele>605</ele>
        <time>2023-05-07T08:50:11Z</time>
      </trkpt>
      <trkpt lat="45.469962" lon="1.789809">
        <ele>605</ele>
        <time>2023-05-07T08:50:12Z</time>
      </trkpt>
      <trkpt lat="45.469944" lon="1.789797">
        <ele>605</ele>
        <time>2023-05-07T08:50:13Z</time>
      </trkpt>
      <trkpt lat="45.469927" lon="1.789786">
        <ele>605</ele>
        <time>2023-05-07T08:50:14Z</time>
      </trkpt>
      <trkpt lat="45.469910" lon="1.789776">
        <ele>605</ele>
        <time>2023-05-07T08:50:15Z</time>
      </trkpt>
      <trkpt lat="45.469893" lon="1.789767">
        <ele>605</ele>
        <time>2023-05-07T08:50:16Z</time>
      </trkpt>
      <trkpt lat="45.469878" lon="1.789758">
        <ele>606</ele>
        <time>2023-05-07T08:50:17Z</time>
      </trkpt>
      <trkpt lat="45.469862" lon="1.789749">
        <ele>606</ele>
        <time>2023-05-07T08:50:18Z</time>
      </trkpt>
      <trkpt lat="45.469848" lon="1.789739">
        <ele>606</ele>
        <time>2023-05-07T08:50:19Z</time>
      </trkpt>
      <trkpt lat="45.469834" lon="1.789730">
        <ele>606</ele>
        <time>2023-05-07T08:50:20Z</time>
      </trkpt>
      <trkpt lat="45.469821" lon="1.789718">
        <ele>606</ele>
        <time>2023-05-07T08:50:21Z</time>
      </trkpt>
      <trkpt lat="45.469808" lon="1.789707">
        <ele>606</ele>
        <time>2023-05-07T08:50:22Z</time>
      </trkpt>
      <trkpt lat="45.469795" lon="1.789695">
        <ele>606</ele>
        <time>2023-05-07T08:50:23Z</time>
      </trkpt>
      <trkpt lat="45.469782" lon="1.789683">
        <ele>606</ele>
        <time>2023-05-07T08:50:24Z</time>
      </trkpt>
      <trkpt lat="45.469768" lon="1.789671">
        <ele>606</ele>
        <time>2023-05-07T08:50:25Z</time>
      </trkpt>
      <trkpt lat="45.469754" lon="1.789659">
        <ele>606</ele>
        <time>2023-05-07T08:50:26Z</time>
      </trkpt>
      <trkpt lat="45.469739" lon="1.789648">
        <ele>606</ele>
        <time>2023-05-07T08:50:27Z</time>
      </trkpt>
      <trkpt lat="45.469725" lon="1.789637">
        <ele>606</ele>
        <time>2023-05-07T08:50:28Z</time>
      </trkpt>
      <trkpt lat="45.469710" lon="1.789626">
        <ele>606</ele>
        <time>2023-05-07T08:50:29Z</time>
      </trkpt>
      <trkpt lat="45.469695" lon="1.789616">
        <ele>606</ele>
        <time>2023-05-07T08:50:30Z</time>
      </trkpt>
      <trkpt lat="45.469681" lon="1.789606">
        <ele>606</ele>
        <time>2023-05-07T08:50:31Z</time>
      </trkpt>
      <trkpt lat="45.469668" lon="1.789595">
        <ele>607</ele>
        <time>2023-05-07T08:50:32Z</time>
      </trkpt>
      <trkpt lat="45.469654" lon="1.789587">
        <ele>607</ele>
        <time>2023-05-07T08:50:33Z</time>
      </trkpt>
      <trkpt lat="45.469640" lon="1.789578">
        <ele>607</ele>
        <time>2023-05-07T08:50:34Z</time>
      </trkpt>
      <trkpt lat="45.469627" lon="1.789571">
        <ele>607</ele>
        <time>2023-05-07T08:50:35Z</time>
      </trkpt>
      <trkpt lat="45.469613" lon="1.789563">
        <ele>607</ele>
        <time>2023-05-07T08:50:36Z</time>
      </trkpt>
      <trkpt lat="45.469600" lon="1.789556">
        <ele>607</ele>
        <time>2023-05-07T08:50:37Z</time>
      </trkpt>
      <trkpt lat="45.469586" lon="1.789549">
        <ele>607</ele>
        <time>2023-05-07T08:50:38Z</time>
      </trkpt>
      <trkpt lat="45.469572" lon="1.789542">
        <ele>607</ele>
        <time>2023-05-07T08:50:39Z</time>
      </trkpt>
      <trkpt lat="45.469558" lon="1.789535">
        <ele>607</ele>
        <time>2023-05-07T08:50:40Z</time>
      </trkpt>
      <trkpt lat="45.469541" lon="1.789527">
        <ele>607</ele>
        <time>2023-05-07T08:50:41Z</time>
      </trkpt>
      <trkpt lat="45.469524" lon="1.789519">
        <ele>608</ele>
        <time>2023-05-07T08:50:42Z</time>
      </trkpt>
      <trkpt lat="45.469505" lon="1.789511">
        <ele>608</ele>
        <time>2023-05-07T08:50:43Z</time>
      </trkpt>
      <trkpt lat="45.469486" lon="1.789503">
        <ele>608</ele>
        <time>2023-05-07T08:50:44Z</time>
      </trkpt>
      <trkpt lat="45.469465" lon="1.789495">
        <ele>608</ele>
        <time>2023-05-07T08:50:45Z</time>
      </trkpt>
      <trkpt lat="45.469445" lon="1.789486">
        <ele>608</ele>
        <time>2023-05-07T08:50:46Z</time>
      </trkpt>
      <trkpt lat="45.469424" lon="1.789478">
        <ele>608</ele>
        <time>2023-05-07T08:50:47Z</time>
      </trkpt>
      <trkpt lat="45.469404" lon="1.789469">
        <ele>608</ele>
        <time>2023-05-07T08:50:48Z</time>
      </trkpt>
      <trkpt lat="45.469385" lon="1.789461">
        <ele>608</ele>
        <time>2023-05-07T08:50:49Z</time>
      </trkpt>
      <trkpt lat="45.469366" lon="1.789454">
        <ele>608</ele>
        <time>2023-05-07T08:50:50Z</time>
      </trkpt>
      <trkpt lat="45.469350" lon="1.789451">
        <ele>608</ele>
        <time>2023-05-07T08:50:51Z</time>
      </trkpt>
      <trkpt lat="45.469333" lon="1.789448">
        <ele>609</ele>
        <time>2023-05-07T08:50:52Z</time>
      </trkpt>
      <trkpt lat="45.469318" lon="1.789451">
        <ele>609</ele>
        <time>2023-05-07T08:50:53Z</time>
      </trkpt>
      <trkpt lat="45.469302" lon="1.789453">
        <ele>609</ele>
        <time>2023-05-07T08:50:54Z</time>
      </trkpt>
      <trkpt lat="45.469287" lon="1.789460">
        <ele>609</ele>
        <time>2023-05-07T08:50:55Z</time>
      </trkpt>
      <trkpt lat="45.469272" lon="1.789467">
        <ele>609</ele>
        <time>2023-05-07T08:50:56Z</time>
      </trkpt>
      <trkpt lat="45.469259" lon="1.789480">
        <ele>609</ele>
        <time>2023-05-07T08:50:57Z</time>
      </trkpt>
      <trkpt lat="45.469245" lon="1.789493">
        <ele>609</ele>
        <time>2023-05-07T08:50:58Z</time>
      </trkpt>
      <trkpt lat="45.469234" lon="1.789509">
        <ele>609</ele>
        <time>2023-05-07T08:50:59Z</time>
      </trkpt>
      <trkpt lat="45.469223" lon="1.789526">
        <ele>609</ele>
        <time>2023-05-07T08:51:00Z</time>
      </trkpt>
      <trkpt lat="45.469213" lon="1.789544">
        <ele>609</ele>
        <time>2023-05-07T08:51:01Z</time>
      </trkpt>
      <trkpt lat="45.469202" lon="1.789562">
        <ele>610</ele>
        <time>2023-05-07T08:51:02Z</time>
      </trkpt>
      <trkpt lat="45.469191" lon="1.789582">
        <ele>610</ele>
        <time>2023-05-07T08:51:03Z</time>
      </trkpt>
      <trkpt lat="45.469180" lon="1.789601">
        <ele>610</ele>
        <time>2023-05-07T08:51:04Z</time>
      </trkpt>
      <trkpt lat="45.469168" lon="1.789621">
        <ele>610</ele>
        <time>2023-05-07T08:51:05Z</time>
      </trkpt>
      <trkpt lat="45.469156" lon="1.789641">
        <ele>610</ele>
        <time>2023-05-07T08:51:06Z</time>
      </trkpt>
      <trkpt lat="45.469144" lon="1.789661">
        <ele>611</ele>
        <time>2023-05-07T08:51:07Z</time>
      </trkpt>
      <trkpt lat="45.469132" lon="1.789681">
        <ele>611</ele>
        <time>2023-05-07T08:51:08Z</time>
      </trkpt>
      <trkpt lat="45.469119" lon="1.789700">
        <ele>611</ele>
        <time>2023-05-07T08:51:09Z</time>
      </trkpt>
      <trkpt lat="45.469105" lon="1.789720">
        <ele>611</ele>
        <time>2023-05-07T08:51:10Z</time>
      </trkpt>
      <trkpt lat="45.469091" lon="1.789740">
        <ele>611</ele>
        <time>2023-05-07T08:51:11Z</time>
      </trkpt>
      <trkpt lat="45.469077" lon="1.789759">
        <ele>612</ele>
        <time>2023-05-07T08:51:12Z</time>
      </trkpt>
      <trkpt lat="45.469062" lon="1.789779">
        <ele>612</ele>
        <time>2023-05-07T08:51:13Z</time>
      </trkpt>
      <trkpt lat="45.469048" lon="1.789798">
        <ele>612</ele>
        <time>2023-05-07T08:51:14Z</time>
      </trkpt>
      <trkpt lat="45.469032" lon="1.789817">
        <ele>612</ele>
        <time>2023-05-07T08:51:15Z</time>
      </trkpt>
      <trkpt lat="45.469017" lon="1.789836">
        <ele>612</ele>
        <time>2023-05-07T08:51:16Z</time>
      </trkpt>
      <trkpt lat="45.469001" lon="1.789853">
        <ele>612</ele>
        <time>2023-05-07T08:51:17Z</time>
      </trkpt>
      <trkpt lat="45.468985" lon="1.789870">
        <ele>612</ele>
        <time>2023-05-07T08:51:18Z</time>
      </trkpt>
      <trkpt lat="45.468968" lon="1.789886">
        <ele>612</ele>
        <time>2023-05-07T08:51:19Z</time>
      </trkpt>
      <trkpt lat="45.468951" lon="1.789902">
        <ele>612</ele>
        <time>2023-05-07T08:51:20Z</time>
      </trkpt>
      <trkpt lat="45.468933" lon="1.789917">
        <ele>612</ele>
        <time>2023-05-07T08:51:21Z</time>
      </trkpt>
      <trkpt lat="45.468916" lon="1.789932">
        <ele>613</ele>
        <time>2023-05-07T08:51:22Z</time>
      </trkpt>
      <trkpt lat="45.468898" lon="1.789947">
        <ele>613</ele>
        <time>2023-05-07T08:51:23Z</time>
      </trkpt>
      <trkpt lat="45.468880" lon="1.789961">
        <ele>613</ele>
        <time>2023-05-07T08:51:24Z</time>
      </trkpt>
      <trkpt lat="45.468861" lon="1.789975">
        <ele>613</ele>
        <time>2023-05-07T08:51:25Z</time>
      </trkpt>
      <trkpt lat="45.468843" lon="1.789988">
        <ele>613</ele>
        <time>2023-05-07T08:51:26Z</time>
      </trkpt>
      <trkpt lat="45.468823" lon="1.790000">
        <ele>613</ele>
        <time>2023-05-07T08:51:27Z</time>
      </trkpt>
      <trkpt lat="45.468803" lon="1.790011">
        <ele>613</ele>
        <time>2023-05-07T08:51:28Z</time>
      </trkpt>
      <trkpt lat="45.468782" lon="1.790021">
        <ele>613</ele>
        <time>2023-05-07T08:51:29Z</time>
      </trkpt>
      <trkpt lat="45.468761" lon="1.790031">
        <ele>613</ele>
        <time>2023-05-07T08:51:30Z</time>
      </trkpt>
      <trkpt lat="45.468740" lon="1.790040">
        <ele>613</ele>
        <time>2023-05-07T08:51:31Z</time>
      </trkpt>
      <trkpt lat="45.468719" lon="1.790049">
        <ele>613</ele>
        <time>2023-05-07T08:51:32Z</time>
      </trkpt>
      <trkpt lat="45.468698" lon="1.790058">
        <ele>613</ele>
        <time>2023-05-07T08:51:33Z</time>
      </trkpt>
      <trkpt lat="45.468676" lon="1.790067">
        <ele>613</ele>
        <time>2023-05-07T08:51:34Z</time>
      </trkpt>
      <trkpt lat="45.468652" lon="1.790075">
        <ele>613</ele>
        <time>2023-05-07T08:51:35Z</time>
      </trkpt>
      <trkpt lat="45.468629" lon="1.790083">
        <ele>613</ele>
        <time>2023-05-07T08:51:36Z</time>
      </trkpt>
      <trkpt lat="45.468604" lon="1.790089">
        <ele>613</ele>
        <time>2023-05-07T08:51:37Z</time>
      </trkpt>
      <trkpt lat="45.468580" lon="1.790096">
        <ele>613</ele>
        <time>2023-05-07T08:51:38Z</time>
      </trkpt>
      <trkpt lat="45.468555" lon="1.790101">
        <ele>613</ele>
        <time>2023-05-07T08:51:39Z</time>
      </trkpt>
      <trkpt lat="45.468530" lon="1.790107">
        <ele>613</ele>
        <time>2023-05-07T08:51:40Z</time>
      </trkpt>
      <trkpt lat="45.468503" lon="1.790110">
        <ele>613</ele>
        <time>2023-05-07T08:51:41Z</time>
      </trkpt>
      <trkpt lat="45.468475" lon="1.790113">
        <ele>613</ele>
        <time>2023-05-07T08:51:42Z</time>
      </trkpt>
      <trkpt lat="45.468444" lon="1.790114">
        <ele>613</ele>
        <time>2023-05-07T08:51:43Z</time>
      </trkpt>
      <trkpt lat="45.468414" lon="1.790115">
        <ele>613</ele>
        <time>2023-05-07T08:51:44Z</time>
      </trkpt>
      <trkpt lat="45.468382" lon="1.790111">
        <ele>613</ele>
        <time>2023-05-07T08:51:45Z</time>
      </trkpt>
      <trkpt lat="45.468350" lon="1.790107">
        <ele>613</ele>
        <time>2023-05-07T08:51:46Z</time>
      </trkpt>
      <trkpt lat="45.468317" lon="1.790099">
        <ele>613</ele>
        <time>2023-05-07T08:51:47Z</time>
      </trkpt>
      <trkpt lat="45.468285" lon="1.790092">
        <ele>613</ele>
        <time>2023-05-07T08:51:48Z</time>
      </trkpt>
      <trkpt lat="45.468257" lon="1.790083">
        <ele>613</ele>
        <time>2023-05-07T08:51:49Z</time>
      </trkpt>
      <trkpt lat="45.468229" lon="1.790075">
        <ele>613</ele>
        <time>2023-05-07T08:51:50Z</time>
      </trkpt>
      <trkpt lat="45.468208" lon="1.790068">
        <ele>613</ele>
        <time>2023-05-07T08:51:51Z</time>
      </trkpt>
      <trkpt lat="45.468187" lon="1.790060">
        <ele>613</ele>
        <time>2023-05-07T08:51:52Z</time>
      </trkpt>
      <trkpt lat="45.468168" lon="1.790052">
        <ele>612</ele>
        <time>2023-05-07T08:51:53Z</time>
      </trkpt>
      <trkpt lat="45.468149" lon="1.790043">
        <ele>612</ele>
        <time>2023-05-07T08:51:54Z</time>
      </trkpt>
      <trkpt lat="45.468130" lon="1.790032">
        <ele>612</ele>
        <time>2023-05-07T08:51:55Z</time>
      </trkpt>
      <trkpt lat="45.468110" lon="1.790021">
        <ele>612</ele>
        <time>2023-05-07T08:51:56Z</time>
      </trkpt>
      <trkpt lat="45.468085" lon="1.790007">
        <ele>612</ele>
        <time>2023-05-07T08:51:57Z</time>
      </trkpt>
      <trkpt lat="45.468061" lon="1.789993">
        <ele>612</ele>
        <time>2023-05-07T08:51:58Z</time>
      </trkpt>
      <trkpt lat="45.468033" lon="1.789977">
        <ele>612</ele>
        <time>2023-05-07T08:51:59Z</time>
      </trkpt>
      <trkpt lat="45.468006" lon="1.789962">
        <ele>612</ele>
        <time>2023-05-07T08:52:00Z</time>
      </trkpt>
      <trkpt lat="45.467979" lon="1.789945">
        <ele>612</ele>
        <time>2023-05-07T08:52:01Z</time>
      </trkpt>
      <trkpt lat="45.467952" lon="1.789929">
        <ele>612</ele>
        <time>2023-05-07T08:52:02Z</time>
      </trkpt>
      <trkpt lat="45.467926" lon="1.789913">
        <ele>612</ele>
        <time>2023-05-07T08:52:03Z</time>
      </trkpt>
      <trkpt lat="45.467900" lon="1.789897">
        <ele>612</ele>
        <time>2023-05-07T08:52:04Z</time>
      </trkpt>
      <trkpt lat="45.467875" lon="1.789879">
        <ele>612</ele>
        <time>2023-05-07T08:52:05Z</time>
      </trkpt>
      <trkpt lat="45.467849" lon="1.789861">
        <ele>612</ele>
        <time>2023-05-07T08:52:06Z</time>
      </trkpt>
      <trkpt lat="45.467825" lon="1.789844">
        <ele>612</ele>
        <time>2023-05-07T08:52:07Z</time>
      </trkpt>
      <trkpt lat="45.467802" lon="1.789827">
        <ele>612</ele>
        <time>2023-05-07T08:52:08Z</time>
      </trkpt>
      <trkpt lat="45.467779" lon="1.789809">
        <ele>612</ele>
        <time>2023-05-07T08:52:09Z</time>
      </trkpt>
      <trkpt lat="45.467757" lon="1.789792">
        <ele>612</ele>
        <time>2023-05-07T08:52:10Z</time>
      </trkpt>
      <trkpt lat="45.467734" lon="1.789775">
        <ele>612</ele>
        <time>2023-05-07T08:52:11Z</time>
      </trkpt>
      <trkpt lat="45.467711" lon="1.789755">
        <ele>612</ele>
        <time>2023-05-07T08:52:12Z</time>
      </trkpt>
      <trkpt lat="45.467689" lon="1.789736">
        <ele>612</ele>
        <time>2023-05-07T08:52:13Z</time>
      </trkpt>
      <trkpt lat="45.467667" lon="1.789714">
        <ele>612</ele>
        <time>2023-05-07T08:52:14Z</time>
      </trkpt>
      <trkpt lat="45.467645" lon="1.789692">
        <ele>612</ele>
        <time>2023-05-07T08:52:15Z</time>
      </trkpt>
      <trkpt lat="45.467623" lon="1.789670">
        <ele>612</ele>
        <time>2023-05-07T08:52:16Z</time>
      </trkpt>
      <trkpt lat="45.467601" lon="1.789648">
        <ele>612</ele>
        <time>2023-05-07T08:52:17Z</time>
      </trkpt>
      <trkpt lat="45.467579" lon="1.789625">
        <ele>612</ele>
        <time>2023-05-07T08:52:18Z</time>
      </trkpt>
      <trkpt lat="45.467556" lon="1.789603">
        <ele>612</ele>
        <time>2023-05-07T08:52:19Z</time>
      </trkpt>
      <trkpt lat="45.467532" lon="1.789579">
        <ele>612</ele>
        <time>2023-05-07T08:52:20Z</time>
      </trkpt>
      <trkpt lat="45.467508" lon="1.789554">
        <ele>612</ele>
        <time>2023-05-07T08:52:21Z</time>
      </trkpt>
      <trkpt lat="45.467484" lon="1.789526">
        <ele>612</ele>
        <time>2023-05-07T08:52:22Z</time>
      </trkpt>
      <trkpt lat="45.467459" lon="1.789498">
        <ele>612</ele>
        <time>2023-05-07T08:52:23Z</time>
      </trkpt>
      <trkpt lat="45.467433" lon="1.789466">
        <ele>612</ele>
        <time>2023-05-07T08:52:24Z</time>
      </trkpt>
      <trkpt lat="45.467408" lon="1.789435">
        <ele>612</ele>
        <time>2023-05-07T08:52:25Z</time>
      </trkpt>
      <trkpt lat="45.467384" lon="1.789402">
        <ele>612</ele>
        <time>2023-05-07T08:52:26Z</time>
      </trkpt>
      <trkpt lat="45.467360" lon="1.789368">
        <ele>612</ele>
        <time>2023-05-07T08:52:27Z</time>
      </trkpt>
      <trkpt lat="45.467335" lon="1.789335">
        <ele>612</ele>
        <time>2023-05-07T08:52:28Z</time>
      </trkpt>
      <trkpt lat="45.467312" lon="1.789301">
        <ele>612</ele>
        <time>2023-05-07T08:52:29Z</time>
      </trkpt>
      <trkpt lat="45.467288" lon="1.789269">
        <ele>612</ele>
        <time>2023-05-07T08:52:30Z</time>
      </trkpt>
      <trkpt lat="45.467264" lon="1.789236">
        <ele>612</ele>
        <time>2023-05-07T08:52:31Z</time>
      </trkpt>
      <trkpt lat="45.467241" lon="1.789205">
        <ele>612</ele>
        <time>2023-05-07T08:52:32Z</time>
      </trkpt>
      <trkpt lat="45.467218" lon="1.789175">
        <ele>611</ele>
        <time>2023-05-07T08:52:33Z</time>
      </trkpt>
      <trkpt lat="45.467196" lon="1.789146">
        <ele>611</ele>
        <time>2023-05-07T08:52:34Z</time>
      </trkpt>
      <trkpt lat="45.467174" lon="1.789116">
        <ele>611</ele>
        <time>2023-05-07T08:52:35Z</time>
      </trkpt>
      <trkpt lat="45.467152" lon="1.789087">
        <ele>611</ele>
        <time>2023-05-07T08:52:36Z</time>
      </trkpt>
      <trkpt lat="45.467130" lon="1.789059">
        <ele>611</ele>
        <time>2023-05-07T08:52:37Z</time>
      </trkpt>
      <trkpt lat="45.467107" lon="1.789029">
        <ele>611</ele>
        <time>2023-05-07T08:52:38Z</time>
      </trkpt>
      <trkpt lat="45.467084" lon="1.789000">
        <ele>611</ele>
        <time>2023-05-07T08:52:39Z</time>
      </trkpt>
      <trkpt lat="45.467063" lon="1.788972">
        <ele>611</ele>
        <time>2023-05-07T08:52:40Z</time>
      </trkpt>
      <trkpt lat="45.467041" lon="1.788944">
        <ele>611</ele>
        <time>2023-05-07T08:52:41Z</time>
      </trkpt>
      <trkpt lat="45.467021" lon="1.788916">
        <ele>611</ele>
        <time>2023-05-07T08:52:42Z</time>
      </trkpt>
      <trkpt lat="45.467000" lon="1.788889">
        <ele>610</ele>
        <time>2023-05-07T08:52:43Z</time>
      </trkpt>
      <trkpt lat="45.466980" lon="1.788859">
        <ele>610</ele>
        <time>2023-05-07T08:52:44Z</time>
      </trkpt>
      <trkpt lat="45.466960" lon="1.788830">
        <ele>610</ele>
        <time>2023-05-07T08:52:45Z</time>
      </trkpt>
      <trkpt lat="45.466940" lon="1.788801">
        <ele>610</ele>
        <time>2023-05-07T08:52:46Z</time>
      </trkpt>
      <trkpt lat="45.466920" lon="1.788772">
        <ele>610</ele>
        <time>2023-05-07T08:52:47Z</time>
      </trkpt>
      <trkpt lat="45.466901" lon="1.788747">
        <ele>609</ele>
        <time>2023-05-07T08:52:48Z</time>
      </trkpt>
      <trkpt lat="45.466882" lon="1.788721">
        <ele>609</ele>
        <time>2023-05-07T08:52:49Z</time>
      </trkpt>
      <trkpt lat="45.466863" lon="1.788696">
        <ele>609</ele>
        <time>2023-05-07T08:52:50Z</time>
      </trkpt>
      <trkpt lat="45.466845" lon="1.788671">
        <ele>609</ele>
        <time>2023-05-07T08:52:51Z</time>
      </trkpt>
      <trkpt lat="45.466826" lon="1.788643">
        <ele>609</ele>
        <time>2023-05-07T08:52:52Z</time>
      </trkpt>
      <trkpt lat="45.466808" lon="1.788616">
        <ele>608</ele>
        <time>2023-05-07T08:52:53Z</time>
      </trkpt>
      <trkpt lat="45.466789" lon="1.788586">
        <ele>608</ele>
        <time>2023-05-07T08:52:54Z</time>
      </trkpt>
      <trkpt lat="45.466770" lon="1.788556">
        <ele>608</ele>
        <time>2023-05-07T08:52:55Z</time>
      </trkpt>
      <trkpt lat="45.466753" lon="1.788522">
        <ele>608</ele>
        <time>2023-05-07T08:52:56Z</time>
      </trkpt>
      <trkpt lat="45.466736" lon="1.788488">
        <ele>608</ele>
        <time>2023-05-07T08:52:57Z</time>
      </trkpt>
      <trkpt lat="45.466722" lon="1.788450">
        <ele>607</ele>
        <time>2023-05-07T08:52:58Z</time>
      </trkpt>
      <trkpt lat="45.466708" lon="1.788412">
        <ele>607</ele>
        <time>2023-05-07T08:52:59Z</time>
      </trkpt>
      <trkpt lat="45.466695" lon="1.788371">
        <ele>607</ele>
        <time>2023-05-07T08:53:00Z</time>
      </trkpt>
      <trkpt lat="45.466682" lon="1.788329">
        <ele>607</ele>
        <time>2023-05-07T08:53:01Z</time>
      </trkpt>
      <trkpt lat="45.466668" lon="1.788290">
        <ele>607</ele>
        <time>2023-05-07T08:53:02Z</time>
      </trkpt>
      <trkpt lat="45.466655" lon="1.788251">
        <ele>606</ele>
        <time>2023-05-07T08:53:03Z</time>
      </trkpt>
      <trkpt lat="45.466636" lon="1.788216">
        <ele>606</ele>
        <time>2023-05-07T08:53:04Z</time>
      </trkpt>
      <trkpt lat="45.466618" lon="1.788181">
        <ele>605</ele>
        <time>2023-05-07T08:53:05Z</time>
      </trkpt>
      <trkpt lat="45.466595" lon="1.788151">
        <ele>605</ele>
        <time>2023-05-07T08:53:06Z</time>
      </trkpt>
      <trkpt lat="45.466572" lon="1.788121">
        <ele>605</ele>
        <time>2023-05-07T08:53:07Z</time>
      </trkpt>
      <trkpt lat="45.466548" lon="1.788096">
        <ele>604</ele>
        <time>2023-05-07T08:53:08Z</time>
      </trkpt>
      <trkpt lat="45.466524" lon="1.788071">
        <ele>604</ele>
        <time>2023-05-07T08:53:09Z</time>
      </trkpt>
      <trkpt lat="45.466500" lon="1.788046">
        <ele>604</ele>
        <time>2023-05-07T08:53:10Z</time>
      </trkpt>
      <trkpt lat="45.466472" lon="1.788018">
        <ele>604</ele>
        <time>2023-05-07T08:53:11Z</time>
      </trkpt>
      <trkpt lat="45.466444" lon="1.787990">
        <ele>604</ele>
        <time>2023-05-07T08:53:12Z</time>
      </trkpt>
      <trkpt lat="45.466415" lon="1.787960">
        <ele>603</ele>
        <time>2023-05-07T08:53:13Z</time>
      </trkpt>
      <trkpt lat="45.466385" lon="1.787931">
        <ele>603</ele>
        <time>2023-05-07T08:53:14Z</time>
      </trkpt>
      <trkpt lat="45.466357" lon="1.787898">
        <ele>603</ele>
        <time>2023-05-07T08:53:15Z</time>
      </trkpt>
      <trkpt lat="45.466328" lon="1.787865">
        <ele>603</ele>
        <time>2023-05-07T08:53:16Z</time>
      </trkpt>
      <trkpt lat="45.466305" lon="1.787829">
        <ele>603</ele>
        <time>2023-05-07T08:53:17Z</time>
      </trkpt>
      <trkpt lat="45.466282" lon="1.787792">
        <ele>603</ele>
        <time>2023-05-07T08:53:18Z</time>
      </trkpt>
      <trkpt lat="45.466271" lon="1.787752">
        <ele>603</ele>
        <time>2023-05-07T08:53:19Z</time>
      </trkpt>
      <trkpt lat="45.466259" lon="1.787713">
        <ele>603</ele>
        <time>2023-05-07T08:53:20Z</time>
      </trkpt>
      <trkpt lat="45.466257" lon="1.787669">
        <ele>603</ele>
        <time>2023-05-07T08:53:21Z</time>
      </trkpt>
      <trkpt lat="45.466255" lon="1.787626">
        <ele>603</ele>
        <time>2023-05-07T08:53:22Z</time>
      </trkpt>
      <trkpt lat="45.466257" lon="1.787581">
        <ele>602</ele>
        <time>2023-05-07T08:53:23Z</time>
      </trkpt>
      <trkpt lat="45.466260" lon="1.787536">
        <ele>602</ele>
        <time>2023-05-07T08:53:24Z</time>
      </trkpt>
      <trkpt lat="45.466266" lon="1.787491">
        <ele>602</ele>
        <time>2023-05-07T08:53:25Z</time>
      </trkpt>
      <trkpt lat="45.466272" lon="1.787447">
        <ele>602</ele>
        <time>2023-05-07T08:53:26Z</time>
      </trkpt>
      <trkpt lat="45.466280" lon="1.787404">
        <ele>602</ele>
        <time>2023-05-07T08:53:27Z</time>
      </trkpt>
      <trkpt lat="45.466289" lon="1.787360">
        <ele>602</ele>
        <time>2023-05-07T08:53:28Z</time>
      </trkpt>
      <trkpt lat="45.466299" lon="1.787319">
        <ele>602</ele>
        <time>2023-05-07T08:53:29Z</time>
      </trkpt>
      <trkpt lat="45.466309" lon="1.787278">
        <ele>602</ele>
        <time>2023-05-07T08:53:30Z</time>
      </trkpt>
      <trkpt lat="45.466321" lon="1.787239">
        <ele>602</ele>
        <time>2023-05-07T08:53:31Z</time>
      </trkpt>
      <trkpt lat="45.466332" lon="1.787200">
        <ele>602</ele>
        <time>2023-05-07T08:53:32Z</time>
      </trkpt>
      <trkpt lat="45.466342" lon="1.787165">
        <ele>602</ele>
        <time>2023-05-07T08:53:33Z</time>
      </trkpt>
      <trkpt lat="45.466353" lon="1.787130">
        <ele>602</ele>
        <time>2023-05-07T08:53:34Z</time>
      </trkpt>
      <trkpt lat="45.466362" lon="1.787096">
        <ele>602</ele>
        <time>2023-05-07T08:53:35Z</time>
      </trkpt>
      <trkpt lat="45.466371" lon="1.787061">
        <ele>602</ele>
        <time>2023-05-07T08:53:36Z</time>
      </trkpt>
      <trkpt lat="45.466380" lon="1.787028">
        <ele>602</ele>
        <time>2023-05-07T08:53:37Z</time>
      </trkpt>
      <trkpt lat="45.466389" lon="1.786995">
        <ele>602</ele>
        <time>2023-05-07T08:53:38Z</time>
      </trkpt>
      <trkpt lat="45.466401" lon="1.786965">
        <ele>602</ele>
        <time>2023-05-07T08:53:39Z</time>
      </trkpt>
      <trkpt lat="45.466412" lon="1.786934">
        <ele>602</ele>
        <time>2023-05-07T08:53:40Z</time>
      </trkpt>
      <trkpt lat="45.466426" lon="1.786904">
        <ele>602</ele>
        <time>2023-05-07T08:53:41Z</time>
      </trkpt>
      <trkpt lat="45.466440" lon="1.786875">
        <ele>602</ele>
        <time>2023-05-07T08:53:42Z</time>
      </trkpt>
      <trkpt lat="45.466454" lon="1.786845">
        <ele>602</ele>
        <time>2023-05-07T08:53:43Z</time>
      </trkpt>
      <trkpt lat="45.466468" lon="1.786815">
        <ele>602</ele>
        <time>2023-05-07T08:53:44Z</time>
      </trkpt>
      <trkpt lat="45.466481" lon="1.786783">
        <ele>602</ele>
        <time>2023-05-07T08:53:45Z</time>
      </trkpt>
      <trkpt lat="45.466494" lon="1.786751">
        <ele>602</ele>
        <time>2023-05-07T08:53:46Z</time>
      </trkpt>
      <trkpt lat="45.466507" lon="1.786718">
        <ele>602</ele>
        <time>2023-05-07T08:53:47Z</time>
      </trkpt>
      <trkpt lat="45.466520" lon="1.786685">
        <ele>602</ele>
        <time>2023-05-07T08:53:48Z</time>
      </trkpt>
      <trkpt lat="45.466532" lon="1.786651">
        <ele>602</ele>
        <time>2023-05-07T08:53:49Z</time>
      </trkpt>
      <trkpt lat="45.466544" lon="1.786618">
        <ele>602</ele>
        <time>2023-05-07T08:53:50Z</time>
      </trkpt>
      <trkpt lat="45.466553" lon="1.786583">
        <ele>602</ele>
        <time>2023-05-07T08:53:51Z</time>
      </trkpt>
      <trkpt lat="45.466563" lon="1.786549">
        <ele>602</ele>
        <time>2023-05-07T08:53:52Z</time>
      </trkpt>
      <trkpt lat="45.466569" lon="1.786515">
        <ele>602</ele>
        <time>2023-05-07T08:53:53Z</time>
      </trkpt>
      <trkpt lat="45.466576" lon="1.786481">
        <ele>602</ele>
        <time>2023-05-07T08:53:54Z</time>
      </trkpt>
      <trkpt lat="45.466580" lon="1.786444">
        <ele>602</ele>
        <time>2023-05-07T08:53:55Z</time>
      </trkpt>
      <trkpt lat="45.466584" lon="1.786407">
        <ele>602</ele>
        <time>2023-05-07T08:53:56Z</time>
      </trkpt>
      <trkpt lat="45.466586" lon="1.786366">
        <ele>603</ele>
        <time>2023-05-07T08:53:57Z</time>
      </trkpt>
      <trkpt lat="45.466587" lon="1.786325">
        <ele>602</ele>
        <time>2023-05-07T08:53:58Z</time>
      </trkpt>
      <trkpt lat="45.466588" lon="1.786285">
        <ele>602</ele>
        <time>2023-05-07T08:53:59Z</time>
      </trkpt>
      <trkpt lat="45.466589" lon="1.786245">
        <ele>602</ele>
        <time>2023-05-07T08:54:00Z</time>
      </trkpt>
      <trkpt lat="45.466592" lon="1.786209">
        <ele>602</ele>
        <time>2023-05-07T08:54:01Z</time>
      </trkpt>
      <trkpt lat="45.466595" lon="1.786173">
        <ele>602</ele>
        <time>2023-05-07T08:54:02Z</time>
      </trkpt>
      <trkpt lat="45.466596" lon="1.786136">
        <ele>602</ele>
        <time>2023-05-07T08:54:03Z</time>
      </trkpt>
      <trkpt lat="45.466597" lon="1.786100">
        <ele>602</ele>
        <time>2023-05-07T08:54:04Z</time>
      </trkpt>
      <trkpt lat="45.466597" lon="1.786061">
        <ele>602</ele>
        <time>2023-05-07T08:54:05Z</time>
      </trkpt>
      <trkpt lat="45.466596" lon="1.786022">
        <ele>602</ele>
        <time>2023-05-07T08:54:06Z</time>
      </trkpt>
      <trkpt lat="45.466596" lon="1.785982">
        <ele>602</ele>
        <time>2023-05-07T08:54:07Z</time>
      </trkpt>
      <trkpt lat="45.466597" lon="1.785943">
        <ele>601</ele>
        <time>2023-05-07T08:54:08Z</time>
      </trkpt>
      <trkpt lat="45.466596" lon="1.785906">
        <ele>601</ele>
        <time>2023-05-07T08:54:09Z</time>
      </trkpt>
      <trkpt lat="45.466596" lon="1.785869">
        <ele>601</ele>
        <time>2023-05-07T08:54:10Z</time>
      </trkpt>
      <trkpt lat="45.466596" lon="1.785831">
        <ele>601</ele>
        <time>2023-05-07T08:54:11Z</time>
      </trkpt>
      <trkpt lat="45.466595" lon="1.785793">
        <ele>601</ele>
        <time>2023-05-07T08:54:12Z</time>
      </trkpt>
      <trkpt lat="45.466594" lon="1.785757">
        <ele>600</ele>
        <time>2023-05-07T08:54:13Z</time>
      </trkpt>
      <trkpt lat="45.466592" lon="1.785720">
        <ele>600</ele>
        <time>2023-05-07T08:54:14Z</time>
      </trkpt>
      <trkpt lat="45.466588" lon="1.785684">
        <ele>600</ele>
        <time>2023-05-07T08:54:15Z</time>
      </trkpt>
      <trkpt lat="45.466583" lon="1.785647">
        <ele>600</ele>
        <time>2023-05-07T08:54:16Z</time>
      </trkpt>
      <trkpt lat="45.466572" lon="1.785612">
        <ele>600</ele>
        <time>2023-05-07T08:54:17Z</time>
      </trkpt>
      <trkpt lat="45.466562" lon="1.785578">
        <ele>599</ele>
        <time>2023-05-07T08:54:18Z</time>
      </trkpt>
      <trkpt lat="45.466551" lon="1.785548">
        <ele>599</ele>
        <time>2023-05-07T08:54:19Z</time>
      </trkpt>
      <trkpt lat="45.466540" lon="1.785519">
        <ele>599</ele>
        <time>2023-05-07T08:54:20Z</time>
      </trkpt>
      <trkpt lat="45.466527" lon="1.785496">
        <ele>599</ele>
        <time>2023-05-07T08:54:21Z</time>
      </trkpt>
      <trkpt lat="45.466515" lon="1.785473">
        <ele>599</ele>
        <time>2023-05-07T08:54:22Z</time>
      </trkpt>
      <trkpt lat="45.466497" lon="1.785454">
        <ele>598</ele>
        <time>2023-05-07T08:54:23Z</time>
      </trkpt>
      <trkpt lat="45.466480" lon="1.785434">
        <ele>598</ele>
        <time>2023-05-07T08:54:24Z</time>
      </trkpt>
      <trkpt lat="45.466459" lon="1.785414">
        <ele>597</ele>
        <time>2023-05-07T08:54:25Z</time>
      </trkpt>
      <trkpt lat="45.466438" lon="1.785394">
        <ele>597</ele>
        <time>2023-05-07T08:54:26Z</time>
      </trkpt>
      <trkpt lat="45.466420" lon="1.785377">
        <ele>597</ele>
        <time>2023-05-07T08:54:27Z</time>
      </trkpt>
      <trkpt lat="45.466402" lon="1.785360">
        <ele>596</ele>
        <time>2023-05-07T08:54:28Z</time>
      </trkpt>
      <trkpt lat="45.466385" lon="1.785344">
        <ele>596</ele>
        <time>2023-05-07T08:54:29Z</time>
      </trkpt>
      <trkpt lat="45.466368" lon="1.785329">
        <ele>596</ele>
        <time>2023-05-07T08:54:30Z</time>
      </trkpt>
      <trkpt lat="45.466348" lon="1.785315">
        <ele>596</ele>
        <time>2023-05-07T08:54:31Z</time>
      </trkpt>
      <trkpt lat="45.466329" lon="1.785301">
        <ele>596</ele>
        <time>2023-05-07T08:54:32Z</time>
      </trkpt>
      <trkpt lat="45.466307" lon="1.785286">
        <ele>595</ele>
        <time>2023-05-07T08:54:33Z</time>
      </trkpt>
      <trkpt lat="45.466285" lon="1.785271">
        <ele>595</ele>
        <time>2023-05-07T08:54:34Z</time>
      </trkpt>
      <trkpt lat="45.466262" lon="1.785259">
        <ele>595</ele>
        <time>2023-05-07T08:54:35Z</time>
      </trkpt>
      <trkpt lat="45.466239" lon="1.785246">
        <ele>595</ele>
        <time>2023-05-07T08:54:36Z</time>
      </trkpt>
      <trkpt lat="45.466215" lon="1.785238">
        <ele>595</ele>
        <time>2023-05-07T08:54:37Z</time>
      </trkpt>
      <trkpt lat="45.466191" lon="1.785229">
        <ele>594</ele>
        <time>2023-05-07T08:54:38Z</time>
      </trkpt>
      <trkpt lat="45.466167" lon="1.785221">
        <ele>594</ele>
        <time>2023-05-07T08:54:39Z</time>
      </trkpt>
      <trkpt lat="45.466144" lon="1.785215">
        <ele>594</ele>
        <time>2023-05-07T08:54:40Z</time>
      </trkpt>
      <trkpt lat="45.466120" lon="1.785209">
        <ele>594</ele>
        <time>2023-05-07T08:54:41Z</time>
      </trkpt>
      <trkpt lat="45.466096" lon="1.785205">
        <ele>594</ele>
        <time>2023-05-07T08:54:42Z</time>
      </trkpt>
      <trkpt lat="45.466073" lon="1.785200">
        <ele>593</ele>
        <time>2023-05-07T08:54:43Z</time>
      </trkpt>
      <trkpt lat="45.466051" lon="1.785197">
        <ele>593</ele>
        <time>2023-05-07T08:54:44Z</time>
      </trkpt>
      <trkpt lat="45.466029" lon="1.785194">
        <ele>593</ele>
        <time>2023-05-07T08:54:45Z</time>
      </trkpt>
      <trkpt lat="45.466006" lon="1.785190">
        <ele>593</ele>
        <time>2023-05-07T08:54:46Z</time>
      </trkpt>
      <trkpt lat="45.465983" lon="1.785186">
        <ele>593</ele>
        <time>2023-05-07T08:54:47Z</time>
      </trkpt>
      <trkpt lat="45.465959" lon="1.785180">
        <ele>592</ele>
        <time>2023-05-07T08:54:48Z</time>
      </trkpt>
      <trkpt lat="45.465935" lon="1.785174">
        <ele>592</ele>
        <time>2023-05-07T08:54:49Z</time>
      </trkpt>
      <trkpt lat="45.465910" lon="1.785165">
        <ele>592</ele>
        <time>2023-05-07T08:54:50Z</time>
      </trkpt>
      <trkpt lat="45.465885" lon="1.785156">
        <ele>592</ele>
        <time>2023-05-07T08:54:51Z</time>
      </trkpt>
      <trkpt lat="45.465860" lon="1.785138">
        <ele>592</ele>
        <time>2023-05-07T08:54:52Z</time>
      </trkpt>
      <trkpt lat="45.465835" lon="1.785120">
        <ele>591</ele>
        <time>2023-05-07T08:54:53Z</time>
      </trkpt>
      <trkpt lat="45.465814" lon="1.785093">
        <ele>591</ele>
        <time>2023-05-07T08:54:54Z</time>
      </trkpt>
      <trkpt lat="45.465792" lon="1.785065">
        <ele>590</ele>
        <time>2023-05-07T08:54:55Z</time>
      </trkpt>
      <trkpt lat="45.465775" lon="1.785030">
        <ele>590</ele>
        <time>2023-05-07T08:54:56Z</time>
      </trkpt>
      <trkpt lat="45.465758" lon="1.784996">
        <ele>590</ele>
        <time>2023-05-07T08:54:57Z</time>
      </trkpt>
      <trkpt lat="45.465740" lon="1.784958">
        <ele>589</ele>
        <time>2023-05-07T08:54:58Z</time>
      </trkpt>
      <trkpt lat="45.465723" lon="1.784920">
        <ele>589</ele>
        <time>2023-05-07T08:54:59Z</time>
      </trkpt>
      <trkpt lat="45.465707" lon="1.784881">
        <ele>589</ele>
        <time>2023-05-07T08:55:00Z</time>
      </trkpt>
      <trkpt lat="45.465691" lon="1.784843">
        <ele>589</ele>
        <time>2023-05-07T08:55:01Z</time>
      </trkpt>
      <trkpt lat="45.465678" lon="1.784805">
        <ele>589</ele>
        <time>2023-05-07T08:55:02Z</time>
      </trkpt>
      <trkpt lat="45.465664" lon="1.784767">
        <ele>588</ele>
        <time>2023-05-07T08:55:03Z</time>
      </trkpt>
      <trkpt lat="45.465649" lon="1.784730">
        <ele>588</ele>
        <time>2023-05-07T08:55:04Z</time>
      </trkpt>
      <trkpt lat="45.465634" lon="1.784694">
        <ele>587</ele>
        <time>2023-05-07T08:55:05Z</time>
      </trkpt>
      <trkpt lat="45.465619" lon="1.784658">
        <ele>587</ele>
        <time>2023-05-07T08:55:06Z</time>
      </trkpt>
      <trkpt lat="45.465604" lon="1.784622">
        <ele>587</ele>
        <time>2023-05-07T08:55:07Z</time>
      </trkpt>
      <trkpt lat="45.465588" lon="1.784587">
        <ele>586</ele>
        <time>2023-05-07T08:55:08Z</time>
      </trkpt>
      <trkpt lat="45.465573" lon="1.784551">
        <ele>586</ele>
        <time>2023-05-07T08:55:09Z</time>
      </trkpt>
      <trkpt lat="45.465558" lon="1.784517">
        <ele>586</ele>
        <time>2023-05-07T08:55:10Z</time>
      </trkpt>
      <trkpt lat="45.465544" lon="1.784482">
        <ele>586</ele>
        <time>2023-05-07T08:55:11Z</time>
      </trkpt>
      <trkpt lat="45.465528" lon="1.784449">
        <ele>586</ele>
        <time>2023-05-07T08:55:12Z</time>
      </trkpt>
      <trkpt lat="45.465513" lon="1.784415">
        <ele>585</ele>
        <time>2023-05-07T08:55:13Z</time>
      </trkpt>
      <trkpt lat="45.465496" lon="1.784383">
        <ele>585</ele>
        <time>2023-05-07T08:55:14Z</time>
      </trkpt>
      <trkpt lat="45.465479" lon="1.784351">
        <ele>585</ele>
        <time>2023-05-07T08:55:15Z</time>
      </trkpt>
      <trkpt lat="45.465461" lon="1.784324">
        <ele>585</ele>
        <time>2023-05-07T08:55:16Z</time>
      </trkpt>
      <trkpt lat="45.465443" lon="1.784298">
        <ele>585</ele>
        <time>2023-05-07T08:55:17Z</time>
      </trkpt>
      <trkpt lat="45.465424" lon="1.784275">
        <ele>585</ele>
        <time>2023-05-07T08:55:18Z</time>
      </trkpt>
      <trkpt lat="45.465405" lon="1.784253">
        <ele>585</ele>
        <time>2023-05-07T08:55:19Z</time>
      </trkpt>
      <trkpt lat="45.465380" lon="1.784231">
        <ele>585</ele>
        <time>2023-05-07T08:55:20Z</time>
      </trkpt>
      <trkpt lat="45.465356" lon="1.784210">
        <ele>585</ele>
        <time>2023-05-07T08:55:21Z</time>
      </trkpt>
      <trkpt lat="45.465331" lon="1.784189">
        <ele>585</ele>
        <time>2023-05-07T08:55:22Z</time>
      </trkpt>
      <trkpt lat="45.465302" lon="1.784169">
        <ele>584</ele>
        <time>2023-05-07T08:55:23Z</time>
      </trkpt>
      <trkpt lat="45.465272" lon="1.784148">
        <ele>584</ele>
        <time>2023-05-07T08:55:24Z</time>
      </trkpt>
      <trkpt lat="45.465241" lon="1.784128">
        <ele>584</ele>
        <time>2023-05-07T08:55:25Z</time>
      </trkpt>
      <trkpt lat="45.465210" lon="1.784107">
        <ele>584</ele>
        <time>2023-05-07T08:55:26Z</time>
      </trkpt>
      <trkpt lat="45.465175" lon="1.784093">
        <ele>584</ele>
        <time>2023-05-07T08:55:27Z</time>
      </trkpt>
      <trkpt lat="45.465140" lon="1.784079">
        <ele>583</ele>
        <time>2023-05-07T08:55:28Z</time>
      </trkpt>
      <trkpt lat="45.465104" lon="1.784072">
        <ele>583</ele>
        <time>2023-05-07T08:55:29Z</time>
      </trkpt>
      <trkpt lat="45.465069" lon="1.784064">
        <ele>583</ele>
        <time>2023-05-07T08:55:30Z</time>
      </trkpt>
      <trkpt lat="45.465033" lon="1.784062">
        <ele>583</ele>
        <time>2023-05-07T08:55:31Z</time>
      </trkpt>
      <trkpt lat="45.464998" lon="1.784060">
        <ele>583</ele>
        <time>2023-05-07T08:55:32Z</time>
      </trkpt>
      <trkpt lat="45.464961" lon="1.784063">
        <ele>582</ele>
        <time>2023-05-07T08:55:33Z</time>
      </trkpt>
      <trkpt lat="45.464925" lon="1.784065">
        <ele>582</ele>
        <time>2023-05-07T08:55:34Z</time>
      </trkpt>
      <trkpt lat="45.464888" lon="1.784066">
        <ele>581</ele>
        <time>2023-05-07T08:55:35Z</time>
      </trkpt>
      <trkpt lat="45.464852" lon="1.784067">
        <ele>581</ele>
        <time>2023-05-07T08:55:36Z</time>
      </trkpt>
      <trkpt lat="45.464816" lon="1.784067">
        <ele>581</ele>
        <time>2023-05-07T08:55:37Z</time>
      </trkpt>
      <trkpt lat="45.464781" lon="1.784067">
        <ele>580</ele>
        <time>2023-05-07T08:55:38Z</time>
      </trkpt>
      <trkpt lat="45.464745" lon="1.784067">
        <ele>580</ele>
        <time>2023-05-07T08:55:39Z</time>
      </trkpt>
      <trkpt lat="45.464710" lon="1.784067">
        <ele>580</ele>
        <time>2023-05-07T08:55:40Z</time>
      </trkpt>
      <trkpt lat="45.464675" lon="1.784066">
        <ele>580</ele>
        <time>2023-05-07T08:55:41Z</time>
      </trkpt>
      <trkpt lat="45.464640" lon="1.784065">
        <ele>580</ele>
        <time>2023-05-07T08:55:42Z</time>
      </trkpt>
      <trkpt lat="45.464606" lon="1.784064">
        <ele>580</ele>
        <time>2023-05-07T08:55:43Z</time>
      </trkpt>
      <trkpt lat="45.464572" lon="1.784063">
        <ele>580</ele>
        <time>2023-05-07T08:55:44Z</time>
      </trkpt>
      <trkpt lat="45.464536" lon="1.784058">
        <ele>580</ele>
        <time>2023-05-07T08:55:45Z</time>
      </trkpt>
      <trkpt lat="45.464500" lon="1.784054">
        <ele>580</ele>
        <time>2023-05-07T08:55:46Z</time>
      </trkpt>
      <trkpt lat="45.464466" lon="1.784047">
        <ele>580</ele>
        <time>2023-05-07T08:55:47Z</time>
      </trkpt>
      <trkpt lat="45.464431" lon="1.784040">
        <ele>579</ele>
        <time>2023-05-07T08:55:48Z</time>
      </trkpt>
      <trkpt lat="45.464402" lon="1.784028">
        <ele>579</ele>
        <time>2023-05-07T08:55:49Z</time>
      </trkpt>
      <trkpt lat="45.464372" lon="1.784017">
        <ele>579</ele>
        <time>2023-05-07T08:55:50Z</time>
      </trkpt>
      <trkpt lat="45.464346" lon="1.784000">
        <ele>579</ele>
        <time>2023-05-07T08:55:51Z</time>
      </trkpt>
      <trkpt lat="45.464319" lon="1.783983">
        <ele>579</ele>
        <time>2023-05-07T08:55:52Z</time>
      </trkpt>
      <trkpt lat="45.464296" lon="1.783962">
        <ele>578</ele>
        <time>2023-05-07T08:55:53Z</time>
      </trkpt>
      <trkpt lat="45.464273" lon="1.783941">
        <ele>578</ele>
        <time>2023-05-07T08:55:54Z</time>
      </trkpt>
      <trkpt lat="45.464253" lon="1.783916">
        <ele>578</ele>
        <time>2023-05-07T08:55:55Z</time>
      </trkpt>
      <trkpt lat="45.464232" lon="1.783891">
        <ele>578</ele>
        <time>2023-05-07T08:55:56Z</time>
      </trkpt>
      <trkpt lat="45.464215" lon="1.783865">
        <ele>578</ele>
        <time>2023-05-07T08:55:57Z</time>
      </trkpt>
      <trkpt lat="45.464197" lon="1.783839">
        <ele>578</ele>
        <time>2023-05-07T08:55:58Z</time>
      </trkpt>
      <trkpt lat="45.464180" lon="1.783806">
        <ele>578</ele>
        <time>2023-05-07T08:55:59Z</time>
      </trkpt>
      <trkpt lat="45.464163" lon="1.783774">
        <ele>578</ele>
        <time>2023-05-07T08:56:00Z</time>
      </trkpt>
      <trkpt lat="45.464148" lon="1.783735">
        <ele>578</ele>
        <time>2023-05-07T08:56:01Z</time>
      </trkpt>
      <trkpt lat="45.464133" lon="1.783696">
        <ele>578</ele>
        <time>2023-05-07T08:56:02Z</time>
      </trkpt>
      <trkpt lat="45.464119" lon="1.783654">
        <ele>578</ele>
        <time>2023-05-07T08:56:03Z</time>
      </trkpt>
      <trkpt lat="45.464105" lon="1.783613">
        <ele>578</ele>
        <time>2023-05-07T08:56:04Z</time>
      </trkpt>
      <trkpt lat="45.464091" lon="1.783573">
        <ele>578</ele>
        <time>2023-05-07T08:56:05Z</time>
      </trkpt>
      <trkpt lat="45.464077" lon="1.783534">
        <ele>578</ele>
        <time>2023-05-07T08:56:06Z</time>
      </trkpt>
      <trkpt lat="45.464064" lon="1.783495">
        <ele>578</ele>
        <time>2023-05-07T08:56:07Z</time>
      </trkpt>
      <trkpt lat="45.464051" lon="1.783456">
        <ele>578</ele>
        <time>2023-05-07T08:56:08Z</time>
      </trkpt>
      <trkpt lat="45.464038" lon="1.783418">
        <ele>578</ele>
        <time>2023-05-07T08:56:09Z</time>
      </trkpt>
      <trkpt lat="45.464025" lon="1.783381">
        <ele>578</ele>
        <time>2023-05-07T08:56:10Z</time>
      </trkpt>
      <trkpt lat="45.464011" lon="1.783344">
        <ele>578</ele>
        <time>2023-05-07T08:56:11Z</time>
      </trkpt>
      <trkpt lat="45.463997" lon="1.783306">
        <ele>578</ele>
        <time>2023-05-07T08:56:12Z</time>
      </trkpt>
      <trkpt lat="45.463982" lon="1.783268">
        <ele>578</ele>
        <time>2023-05-07T08:56:13Z</time>
      </trkpt>
      <trkpt lat="45.463968" lon="1.783230">
        <ele>578</ele>
        <time>2023-05-07T08:56:14Z</time>
      </trkpt>
      <trkpt lat="45.463954" lon="1.783194">
        <ele>578</ele>
        <time>2023-05-07T08:56:15Z</time>
      </trkpt>
      <trkpt lat="45.463940" lon="1.783159">
        <ele>578</ele>
        <time>2023-05-07T08:56:16Z</time>
      </trkpt>
      <trkpt lat="45.463926" lon="1.783123">
        <ele>578</ele>
        <time>2023-05-07T08:56:17Z</time>
      </trkpt>
      <trkpt lat="45.463912" lon="1.783087">
        <ele>578</ele>
        <time>2023-05-07T08:56:18Z</time>
      </trkpt>
      <trkpt lat="45.463898" lon="1.783051">
        <ele>578</ele>
        <time>2023-05-07T08:56:19Z</time>
      </trkpt>
      <trkpt lat="45.463884" lon="1.783016">
        <ele>578</ele>
        <time>2023-05-07T08:56:20Z</time>
      </trkpt>
      <trkpt lat="45.463872" lon="1.782986">
        <ele>578</ele>
        <time>2023-05-07T08:56:21Z</time>
      </trkpt>
      <trkpt lat="45.463860" lon="1.782956">
        <ele>578</ele>
        <time>2023-05-07T08:56:22Z</time>
      </trkpt>
      <trkpt lat="45.463849" lon="1.782927">
        <ele>578</ele>
        <time>2023-05-07T08:56:23Z</time>
      </trkpt>
      <trkpt lat="45.463838" lon="1.782897">
        <ele>578</ele>
        <time>2023-05-07T08:56:24Z</time>
      </trkpt>
      <trkpt lat="45.463826" lon="1.782870">
        <ele>578</ele>
        <time>2023-05-07T08:56:25Z</time>
      </trkpt>
      <trkpt lat="45.463815" lon="1.782843">
        <ele>578</ele>
        <time>2023-05-07T08:56:26Z</time>
      </trkpt>
      <trkpt lat="45.463802" lon="1.782817">
        <ele>578</ele>
        <time>2023-05-07T08:56:27Z</time>
      </trkpt>
      <trkpt lat="45.463789" lon="1.782790">
        <ele>578</ele>
        <time>2023-05-07T08:56:28Z</time>
      </trkpt>
      <trkpt lat="45.463778" lon="1.782767">
        <ele>578</ele>
        <time>2023-05-07T08:56:29Z</time>
      </trkpt>
      <trkpt lat="45.463767" lon="1.782744">
        <ele>578</ele>
        <time>2023-05-07T08:56:30Z</time>
      </trkpt>
      <trkpt lat="45.463757" lon="1.782725">
        <ele>578</ele>
        <time>2023-05-07T08:56:31Z</time>
      </trkpt>
      <trkpt lat="45.463748" lon="1.782707">
        <ele>578</ele>
        <time>2023-05-07T08:56:32Z</time>
      </trkpt>
      <trkpt lat="45.463740" lon="1.782692">
        <ele>578</ele>
        <time>2023-05-07T08:56:33Z</time>
      </trkpt>
      <trkpt lat="45.463733" lon="1.782677">
        <ele>578</ele>
        <time>2023-05-07T08:56:34Z</time>
      </trkpt>
      <trkpt lat="45.463726" lon="1.782665">
        <ele>578</ele>
        <time>2023-05-07T08:56:35Z</time>
      </trkpt>
      <trkpt lat="45.463718" lon="1.782653">
        <ele>578</ele>
        <time>2023-05-07T08:56:36Z</time>
      </trkpt>
      <trkpt lat="45.463710" lon="1.782642">
        <ele>579</ele>
        <time>2023-05-07T08:56:37Z</time>
      </trkpt>
      <trkpt lat="45.463701" lon="1.782631">
        <ele>579</ele>
        <time>2023-05-07T08:56:38Z</time>
      </trkpt>
      <trkpt lat="45.463693" lon="1.782619">
        <ele>579</ele>
        <time>2023-05-07T08:56:39Z</time>
      </trkpt>
      <trkpt lat="45.463684" lon="1.782607">
        <ele>579</ele>
        <time>2023-05-07T08:56:40Z</time>
      </trkpt>
      <trkpt lat="45.463674" lon="1.782592">
        <ele>579</ele>
        <time>2023-05-07T08:56:41Z</time>
      </trkpt>
      <trkpt lat="45.463665" lon="1.782576">
        <ele>579</ele>
        <time>2023-05-07T08:56:42Z</time>
      </trkpt>
      <trkpt lat="45.463656" lon="1.782561">
        <ele>579</ele>
        <time>2023-05-07T08:56:43Z</time>
      </trkpt>
      <trkpt lat="45.463646" lon="1.782545">
        <ele>579</ele>
        <time>2023-05-07T08:56:44Z</time>
      </trkpt>
      <trkpt lat="45.463636" lon="1.782531">
        <ele>579</ele>
        <time>2023-05-07T08:56:45Z</time>
      </trkpt>
      <trkpt lat="45.463626" lon="1.782517">
        <ele>579</ele>
        <time>2023-05-07T08:56:46Z</time>
      </trkpt>
      <trkpt lat="45.463615" lon="1.782504">
        <ele>579</ele>
        <time>2023-05-07T08:56:47Z</time>
      </trkpt>
      <trkpt lat="45.463604" lon="1.782490">
        <ele>579</ele>
        <time>2023-05-07T08:56:48Z</time>
      </trkpt>
      <trkpt lat="45.463593" lon="1.782478">
        <ele>579</ele>
        <time>2023-05-07T08:56:49Z</time>
      </trkpt>
      <trkpt lat="45.463582" lon="1.782465">
        <ele>579</ele>
        <time>2023-05-07T08:56:50Z</time>
      </trkpt>
      <trkpt lat="45.463570" lon="1.782453">
        <ele>579</ele>
        <time>2023-05-07T08:56:51Z</time>
      </trkpt>
      <trkpt lat="45.463558" lon="1.782442">
        <ele>580</ele>
        <time>2023-05-07T08:56:52Z</time>
      </trkpt>
      <trkpt lat="45.463545" lon="1.782430">
        <ele>580</ele>
        <time>2023-05-07T08:56:53Z</time>
      </trkpt>
      <trkpt lat="45.463531" lon="1.782418">
        <ele>580</ele>
        <time>2023-05-07T08:56:54Z</time>
      </trkpt>
      <trkpt lat="45.463516" lon="1.782406">
        <ele>580</ele>
        <time>2023-05-07T08:56:55Z</time>
      </trkpt>
      <trkpt lat="45.463501" lon="1.782394">
        <ele>580</ele>
        <time>2023-05-07T08:56:56Z</time>
      </trkpt>
      <trkpt lat="45.463487" lon="1.782382">
        <ele>580</ele>
        <time>2023-05-07T08:56:57Z</time>
      </trkpt>
      <trkpt lat="45.463472" lon="1.782371">
        <ele>580</ele>
        <time>2023-05-07T08:56:58Z</time>
      </trkpt>
      <trkpt lat="45.463456" lon="1.782360">
        <ele>580</ele>
        <time>2023-05-07T08:56:59Z</time>
      </trkpt>
      <trkpt lat="45.463441" lon="1.782350">
        <ele>580</ele>
        <time>2023-05-07T08:57:00Z</time>
      </trkpt>
      <trkpt lat="45.463425" lon="1.782340">
        <ele>580</ele>
        <time>2023-05-07T08:57:01Z</time>
      </trkpt>
      <trkpt lat="45.463409" lon="1.782330">
        <ele>580</ele>
        <time>2023-05-07T08:57:02Z</time>
      </trkpt>
      <trkpt lat="45.463391" lon="1.782319">
        <ele>580</ele>
        <time>2023-05-07T08:57:03Z</time>
      </trkpt>
      <trkpt lat="45.463373" lon="1.782307">
        <ele>580</ele>
        <time>2023-05-07T08:57:04Z</time>
      </trkpt>
      <trkpt lat="45.463355" lon="1.782293">
        <ele>580</ele>
        <time>2023-05-07T08:57:05Z</time>
      </trkpt>
      <trkpt lat="45.463336" lon="1.782279">
        <ele>580</ele>
        <time>2023-05-07T08:57:06Z</time>
      </trkpt>
      <trkpt lat="45.463316" lon="1.782265">
        <ele>580</ele>
        <time>2023-05-07T08:57:07Z</time>
      </trkpt>
      <trkpt lat="45.463297" lon="1.782251">
        <ele>580</ele>
        <time>2023-05-07T08:57:08Z</time>
      </trkpt>
      <trkpt lat="45.463276" lon="1.782239">
        <ele>580</ele>
        <time>2023-05-07T08:57:09Z</time>
      </trkpt>
      <trkpt lat="45.463255" lon="1.782227">
        <ele>580</ele>
        <time>2023-05-07T08:57:10Z</time>
      </trkpt>
      <trkpt lat="45.463235" lon="1.782217">
        <ele>580</ele>
        <time>2023-05-07T08:57:11Z</time>
      </trkpt>
      <trkpt lat="45.463215" lon="1.782207">
        <ele>580</ele>
        <time>2023-05-07T08:57:12Z</time>
      </trkpt>
      <trkpt lat="45.463196" lon="1.782198">
        <ele>580</ele>
        <time>2023-05-07T08:57:13Z</time>
      </trkpt>
      <trkpt lat="45.463177" lon="1.782188">
        <ele>580</ele>
        <time>2023-05-07T08:57:14Z</time>
      </trkpt>
      <trkpt lat="45.463159" lon="1.782179">
        <ele>580</ele>
        <time>2023-05-07T08:57:15Z</time>
      </trkpt>
      <trkpt lat="45.463142" lon="1.782170">
        <ele>580</ele>
        <time>2023-05-07T08:57:16Z</time>
      </trkpt>
      <trkpt lat="45.463125" lon="1.782161">
        <ele>580</ele>
        <time>2023-05-07T08:57:17Z</time>
      </trkpt>
      <trkpt lat="45.463109" lon="1.782152">
        <ele>579</ele>
        <time>2023-05-07T08:57:18Z</time>
      </trkpt>
      <trkpt lat="45.463091" lon="1.782144">
        <ele>579</ele>
        <time>2023-05-07T08:57:19Z</time>
      </trkpt>
      <trkpt lat="45.463074" lon="1.782135">
        <ele>579</ele>
        <time>2023-05-07T08:57:20Z</time>
      </trkpt>
      <trkpt lat="45.463055" lon="1.782129">
        <ele>579</ele>
        <time>2023-05-07T08:57:21Z</time>
      </trkpt>
      <trkpt lat="45.463037" lon="1.782124">
        <ele>579</ele>
        <time>2023-05-07T08:57:22Z</time>
      </trkpt>
      <trkpt lat="45.463017" lon="1.782119">
        <ele>579</ele>
        <time>2023-05-07T08:57:23Z</time>
      </trkpt>
      <trkpt lat="45.462998" lon="1.782114">
        <ele>579</ele>
        <time>2023-05-07T08:57:24Z</time>
      </trkpt>
      <trkpt lat="45.462976" lon="1.782110">
        <ele>579</ele>
        <time>2023-05-07T08:57:25Z</time>
      </trkpt>
      <trkpt lat="45.462955" lon="1.782106">
        <ele>579</ele>
        <time>2023-05-07T08:57:26Z</time>
      </trkpt>
      <trkpt lat="45.462934" lon="1.782103">
        <ele>579</ele>
        <time>2023-05-07T08:57:27Z</time>
      </trkpt>
      <trkpt lat="45.462913" lon="1.782100">
        <ele>579</ele>
        <time>2023-05-07T08:57:28Z</time>
      </trkpt>
      <trkpt lat="45.462893" lon="1.782097">
        <ele>579</ele>
        <time>2023-05-07T08:57:29Z</time>
      </trkpt>
      <trkpt lat="45.462873" lon="1.782094">
        <ele>579</ele>
        <time>2023-05-07T08:57:30Z</time>
      </trkpt>
      <trkpt lat="45.462853" lon="1.782093">
        <ele>579</ele>
        <time>2023-05-07T08:57:31Z</time>
      </trkpt>
      <trkpt lat="45.462832" lon="1.782091">
        <ele>579</ele>
        <time>2023-05-07T08:57:32Z</time>
      </trkpt>
      <trkpt lat="45.462812" lon="1.782088">
        <ele>579</ele>
        <time>2023-05-07T08:57:33Z</time>
      </trkpt>
      <trkpt lat="45.462792" lon="1.782084">
        <ele>579</ele>
        <time>2023-05-07T08:57:34Z</time>
      </trkpt>
      <trkpt lat="45.462772" lon="1.782078">
        <ele>579</ele>
        <time>2023-05-07T08:57:35Z</time>
      </trkpt>
      <trkpt lat="45.462752" lon="1.782073">
        <ele>579</ele>
        <time>2023-05-07T08:57:36Z</time>
      </trkpt>
      <trkpt lat="45.462733" lon="1.782068">
        <ele>579</ele>
        <time>2023-05-07T08:57:37Z</time>
      </trkpt>
      <trkpt lat="45.462714" lon="1.782063">
        <ele>579</ele>
        <time>2023-05-07T08:57:38Z</time>
      </trkpt>
      <trkpt lat="45.462694" lon="1.782061">
        <ele>579</ele>
        <time>2023-05-07T08:57:39Z</time>
      </trkpt>
      <trkpt lat="45.462675" lon="1.782058">
        <ele>579</ele>
        <time>2023-05-07T08:57:40Z</time>
      </trkpt>
      <trkpt lat="45.462655" lon="1.782055">
        <ele>579</ele>
        <time>2023-05-07T08:57:41Z</time>
      </trkpt>
      <trkpt lat="45.462636" lon="1.782052">
        <ele>579</ele>
        <time>2023-05-07T08:57:42Z</time>
      </trkpt>
      <trkpt lat="45.462616" lon="1.782048">
        <ele>579</ele>
        <time>2023-05-07T08:57:43Z</time>
      </trkpt>
      <trkpt lat="45.462596" lon="1.782043">
        <ele>579</ele>
        <time>2023-05-07T08:57:44Z</time>
      </trkpt>
      <trkpt lat="45.462576" lon="1.782038">
        <ele>579</ele>
        <time>2023-05-07T08:57:45Z</time>
      </trkpt>
      <trkpt lat="45.462556" lon="1.782033">
        <ele>579</ele>
        <time>2023-05-07T08:57:46Z</time>
      </trkpt>
      <trkpt lat="45.462535" lon="1.782027">
        <ele>579</ele>
        <time>2023-05-07T08:57:47Z</time>
      </trkpt>
      <trkpt lat="45.462514" lon="1.782021">
        <ele>579</ele>
        <time>2023-05-07T08:57:48Z</time>
      </trkpt>
      <trkpt lat="45.462494" lon="1.782012">
        <ele>579</ele>
        <time>2023-05-07T08:57:49Z</time>
      </trkpt>
      <trkpt lat="45.462474" lon="1.782004">
        <ele>579</ele>
        <time>2023-05-07T08:57:50Z</time>
      </trkpt>
      <trkpt lat="45.462454" lon="1.781993">
        <ele>579</ele>
        <time>2023-05-07T08:57:51Z</time>
      </trkpt>
      <trkpt lat="45.462435" lon="1.781983">
        <ele>579</ele>
        <time>2023-05-07T08:57:52Z</time>
      </trkpt>
      <trkpt lat="45.462417" lon="1.781973">
        <ele>579</ele>
        <time>2023-05-07T08:57:53Z</time>
      </trkpt>
      <trkpt lat="45.462399" lon="1.781964">
        <ele>579</ele>
        <time>2023-05-07T08:57:54Z</time>
      </trkpt>
      <trkpt lat="45.462384" lon="1.781956">
        <ele>579</ele>
        <time>2023-05-07T08:57:55Z</time>
      </trkpt>
      <trkpt lat="45.462369" lon="1.781948">
        <ele>579</ele>
        <time>2023-05-07T08:57:56Z</time>
      </trkpt>
      <trkpt lat="45.462353" lon="1.781940">
        <ele>579</ele>
        <time>2023-05-07T08:57:57Z</time>
      </trkpt>
      <trkpt lat="45.462337" lon="1.781932">
        <ele>579</ele>
        <time>2023-05-07T08:57:58Z</time>
      </trkpt>
      <trkpt lat="45.462318" lon="1.781920">
        <ele>579</ele>
        <time>2023-05-07T08:57:59Z</time>
      </trkpt>
      <trkpt lat="45.462298" lon="1.781908">
        <ele>579</ele>
        <time>2023-05-07T08:58:00Z</time>
      </trkpt>
      <trkpt lat="45.462278" lon="1.781895">
        <ele>579</ele>
        <time>2023-05-07T08:58:01Z</time>
      </trkpt>
      <trkpt lat="45.462259" lon="1.781882">
        <ele>579</ele>
        <time>2023-05-07T08:58:02Z</time>
      </trkpt>
      <trkpt lat="45.462239" lon="1.781869">
        <ele>579</ele>
        <time>2023-05-07T08:58:03Z</time>
      </trkpt>
      <trkpt lat="45.462220" lon="1.781855">
        <ele>579</ele>
        <time>2023-05-07T08:58:04Z</time>
      </trkpt>
      <trkpt lat="45.462200" lon="1.781841">
        <ele>579</ele>
        <time>2023-05-07T08:58:05Z</time>
      </trkpt>
      <trkpt lat="45.462181" lon="1.781828">
        <ele>579</ele>
        <time>2023-05-07T08:58:06Z</time>
      </trkpt>
      <trkpt lat="45.462161" lon="1.781813">
        <ele>579</ele>
        <time>2023-05-07T08:58:07Z</time>
      </trkpt>
      <trkpt lat="45.462141" lon="1.781798">
        <ele>579</ele>
        <time>2023-05-07T08:58:08Z</time>
      </trkpt>
      <trkpt lat="45.462119" lon="1.781781">
        <ele>579</ele>
        <time>2023-05-07T08:58:09Z</time>
      </trkpt>
      <trkpt lat="45.462097" lon="1.781764">
        <ele>579</ele>
        <time>2023-05-07T08:58:10Z</time>
      </trkpt>
      <trkpt lat="45.462075" lon="1.781748">
        <ele>579</ele>
        <time>2023-05-07T08:58:11Z</time>
      </trkpt>
      <trkpt lat="45.462052" lon="1.781732">
        <ele>579</ele>
        <time>2023-05-07T08:58:12Z</time>
      </trkpt>
      <trkpt lat="45.462032" lon="1.781715">
        <ele>578</ele>
        <time>2023-05-07T08:58:13Z</time>
      </trkpt>
      <trkpt lat="45.462011" lon="1.781698">
        <ele>578</ele>
        <time>2023-05-07T08:58:14Z</time>
      </trkpt>
      <trkpt lat="45.461988" lon="1.781674">
        <ele>578</ele>
        <time>2023-05-07T08:58:15Z</time>
      </trkpt>
      <trkpt lat="45.461965" lon="1.781650">
        <ele>578</ele>
        <time>2023-05-07T08:58:16Z</time>
      </trkpt>
      <trkpt lat="45.461940" lon="1.781621">
        <ele>578</ele>
        <time>2023-05-07T08:58:17Z</time>
      </trkpt>
      <trkpt lat="45.461915" lon="1.781591">
        <ele>578</ele>
        <time>2023-05-07T08:58:18Z</time>
      </trkpt>
      <trkpt lat="45.461890" lon="1.781561">
        <ele>578</ele>
        <time>2023-05-07T08:58:19Z</time>
      </trkpt>
      <trkpt lat="45.461865" lon="1.781530">
        <ele>578</ele>
        <time>2023-05-07T08:58:20Z</time>
      </trkpt>
      <trkpt lat="45.461841" lon="1.781500">
        <ele>578</ele>
        <time>2023-05-07T08:58:21Z</time>
      </trkpt>
      <trkpt lat="45.461817" lon="1.781470">
        <ele>578</ele>
        <time>2023-05-07T08:58:22Z</time>
      </trkpt>
      <trkpt lat="45.461797" lon="1.781442">
        <ele>577</ele>
        <time>2023-05-07T08:58:23Z</time>
      </trkpt>
      <trkpt lat="45.461777" lon="1.781413">
        <ele>577</ele>
        <time>2023-05-07T08:58:24Z</time>
      </trkpt>
      <trkpt lat="45.461761" lon="1.781384">
        <ele>577</ele>
        <time>2023-05-07T08:58:25Z</time>
      </trkpt>
      <trkpt lat="45.461745" lon="1.781356">
        <ele>577</ele>
        <time>2023-05-07T08:58:26Z</time>
      </trkpt>
      <trkpt lat="45.461730" lon="1.781326">
        <ele>577</ele>
        <time>2023-05-07T08:58:27Z</time>
      </trkpt>
      <trkpt lat="45.461716" lon="1.781297">
        <ele>577</ele>
        <time>2023-05-07T08:58:28Z</time>
      </trkpt>
      <trkpt lat="45.461702" lon="1.781268">
        <ele>577</ele>
        <time>2023-05-07T08:58:29Z</time>
      </trkpt>
      <trkpt lat="45.461688" lon="1.781239">
        <ele>577</ele>
        <time>2023-05-07T08:58:30Z</time>
      </trkpt>
      <trkpt lat="45.461674" lon="1.781214">
        <ele>577</ele>
        <time>2023-05-07T08:58:31Z</time>
      </trkpt>
      <trkpt lat="45.461661" lon="1.781188">
        <ele>577</ele>
        <time>2023-05-07T08:58:32Z</time>
      </trkpt>
      <trkpt lat="45.461649" lon="1.781164">
        <ele>576</ele>
        <time>2023-05-07T08:58:33Z</time>
      </trkpt>
      <trkpt lat="45.461638" lon="1.781140">
        <ele>576</ele>
        <time>2023-05-07T08:58:34Z</time>
      </trkpt>
      <trkpt lat="45.461628" lon="1.781117">
        <ele>576</ele>
        <time>2023-05-07T08:58:35Z</time>
      </trkpt>
      <trkpt lat="45.461617" lon="1.781094">
        <ele>576</ele>
        <time>2023-05-07T08:58:36Z</time>
      </trkpt>
      <trkpt lat="45.461607" lon="1.781069">
        <ele>576</ele>
        <time>2023-05-07T08:58:37Z</time>
      </trkpt>
      <trkpt lat="45.461596" lon="1.781044">
        <ele>576</ele>
        <time>2023-05-07T08:58:38Z</time>
      </trkpt>
      <trkpt lat="45.461583" lon="1.781015">
        <ele>576</ele>
        <time>2023-05-07T08:58:39Z</time>
      </trkpt>
      <trkpt lat="45.461570" lon="1.780985">
        <ele>576</ele>
        <time>2023-05-07T08:58:40Z</time>
      </trkpt>
      <trkpt lat="45.461557" lon="1.780956">
        <ele>576</ele>
        <time>2023-05-07T08:58:41Z</time>
      </trkpt>
      <trkpt lat="45.461544" lon="1.780926">
        <ele>576</ele>
        <time>2023-05-07T08:58:42Z</time>
      </trkpt>
      <trkpt lat="45.461531" lon="1.780898">
        <ele>576</ele>
        <time>2023-05-07T08:58:43Z</time>
      </trkpt>
      <trkpt lat="45.461519" lon="1.780869">
        <ele>576</ele>
        <time>2023-05-07T08:58:44Z</time>
      </trkpt>
      <trkpt lat="45.461506" lon="1.780841">
        <ele>576</ele>
        <time>2023-05-07T08:58:45Z</time>
      </trkpt>
      <trkpt lat="45.461493" lon="1.780812">
        <ele>576</ele>
        <time>2023-05-07T08:58:46Z</time>
      </trkpt>
      <trkpt lat="45.461480" lon="1.780784">
        <ele>576</ele>
        <time>2023-05-07T08:58:47Z</time>
      </trkpt>
      <trkpt lat="45.461467" lon="1.780756">
        <ele>576</ele>
        <time>2023-05-07T08:58:48Z</time>
      </trkpt>
      <trkpt lat="45.461454" lon="1.780727">
        <ele>576</ele>
        <time>2023-05-07T08:58:49Z</time>
      </trkpt>
      <trkpt lat="45.461442" lon="1.780699">
        <ele>576</ele>
        <time>2023-05-07T08:58:50Z</time>
      </trkpt>
      <trkpt lat="45.461429" lon="1.780670">
        <ele>576</ele>
        <time>2023-05-07T08:58:51Z</time>
      </trkpt>
      <trkpt lat="45.461416" lon="1.780642">
        <ele>577</ele>
        <time>2023-05-07T08:58:52Z</time>
      </trkpt>
      <trkpt lat="45.461401" lon="1.780614">
        <ele>577</ele>
        <time>2023-05-07T08:58:53Z</time>
      </trkpt>
      <trkpt lat="45.461386" lon="1.780586">
        <ele>577</ele>
        <time>2023-05-07T08:58:54Z</time>
      </trkpt>
      <trkpt lat="45.461372" lon="1.780560">
        <ele>577</ele>
        <time>2023-05-07T08:58:55Z</time>
      </trkpt>
      <trkpt lat="45.461358" lon="1.780533">
        <ele>577</ele>
        <time>2023-05-07T08:58:56Z</time>
      </trkpt>
      <trkpt lat="45.461345" lon="1.780509">
        <ele>577</ele>
        <time>2023-05-07T08:58:57Z</time>
      </trkpt>
      <trkpt lat="45.461332" lon="1.780484">
        <ele>577</ele>
        <time>2023-05-07T08:58:58Z</time>
      </trkpt>
      <trkpt lat="45.461319" lon="1.780460">
        <ele>577</ele>
        <time>2023-05-07T08:58:59Z</time>
      </trkpt>
      <trkpt lat="45.461306" lon="1.780435">
        <ele>577</ele>
        <time>2023-05-07T08:59:00Z</time>
      </trkpt>
      <trkpt lat="45.461292" lon="1.780412">
        <ele>577</ele>
        <time>2023-05-07T08:59:01Z</time>
      </trkpt>
      <trkpt lat="45.461278" lon="1.780389">
        <ele>577</ele>
        <time>2023-05-07T08:59:02Z</time>
      </trkpt>
      <trkpt lat="45.461263" lon="1.780361">
        <ele>577</ele>
        <time>2023-05-07T08:59:03Z</time>
      </trkpt>
      <trkpt lat="45.461248" lon="1.780334">
        <ele>577</ele>
        <time>2023-05-07T08:59:04Z</time>
      </trkpt>
      <trkpt lat="45.461233" lon="1.780303">
        <ele>577</ele>
        <time>2023-05-07T08:59:05Z</time>
      </trkpt>
      <trkpt lat="45.461217" lon="1.780272">
        <ele>577</ele>
        <time>2023-05-07T08:59:06Z</time>
      </trkpt>
      <trkpt lat="45.461202" lon="1.780240">
        <ele>577</ele>
        <time>2023-05-07T08:59:07Z</time>
      </trkpt>
      <trkpt lat="45.461188" lon="1.780210">
        <ele>577</ele>
        <time>2023-05-07T08:59:08Z</time>
      </trkpt>
      <trkpt lat="45.461174" lon="1.780180">
        <ele>577</ele>
        <time>2023-05-07T08:59:09Z</time>
      </trkpt>
      <trkpt lat="45.461160" lon="1.780150">
        <ele>577</ele>
        <time>2023-05-07T08:59:10Z</time>
      </trkpt>
      <trkpt lat="45.461146" lon="1.780120">
        <ele>577</ele>
        <time>2023-05-07T08:59:11Z</time>
      </trkpt>
      <trkpt lat="45.461132" lon="1.780089">
        <ele>577</ele>
        <time>2023-05-07T08:59:12Z</time>
      </trkpt>
      <trkpt lat="45.461117" lon="1.780059">
        <ele>577</ele>
        <time>2023-05-07T08:59:13Z</time>
      </trkpt>
      <trkpt lat="45.461103" lon="1.780029">
        <ele>577</ele>
        <time>2023-05-07T08:59:14Z</time>
      </trkpt>
      <trkpt lat="45.461088" lon="1.779999">
        <ele>577</ele>
        <time>2023-05-07T08:59:15Z</time>
      </trkpt>
      <trkpt lat="45.461074" lon="1.779969">
        <ele>577</ele>
        <time>2023-05-07T08:59:16Z</time>
      </trkpt>
      <trkpt lat="45.461060" lon="1.779940">
        <ele>577</ele>
        <time>2023-05-07T08:59:17Z</time>
      </trkpt>
      <trkpt lat="45.461046" lon="1.779910">
        <ele>576</ele>
        <time>2023-05-07T08:59:18Z</time>
      </trkpt>
      <trkpt lat="45.461031" lon="1.779882">
        <ele>576</ele>
        <time>2023-05-07T08:59:19Z</time>
      </trkpt>
      <trkpt lat="45.461016" lon="1.779853">
        <ele>576</ele>
        <time>2023-05-07T08:59:20Z</time>
      </trkpt>
      <trkpt lat="45.461001" lon="1.779827">
        <ele>576</ele>
        <time>2023-05-07T08:59:21Z</time>
      </trkpt>
      <trkpt lat="45.460985" lon="1.779801">
        <ele>576</ele>
        <time>2023-05-07T08:59:22Z</time>
      </trkpt>
      <trkpt lat="45.460966" lon="1.779775">
        <ele>575</ele>
        <time>2023-05-07T08:59:23Z</time>
      </trkpt>
      <trkpt lat="45.460948" lon="1.779750">
        <ele>575</ele>
        <time>2023-05-07T08:59:24Z</time>
      </trkpt>
      <trkpt lat="45.460927" lon="1.779726">
        <ele>575</ele>
        <time>2023-05-07T08:59:25Z</time>
      </trkpt>
      <trkpt lat="45.460905" lon="1.779701">
        <ele>575</ele>
        <time>2023-05-07T08:59:26Z</time>
      </trkpt>
      <trkpt lat="45.460882" lon="1.779675">
        <ele>575</ele>
        <time>2023-05-07T08:59:27Z</time>
      </trkpt>
      <trkpt lat="45.460859" lon="1.779650">
        <ele>574</ele>
        <time>2023-05-07T08:59:28Z</time>
      </trkpt>
      <trkpt lat="45.460836" lon="1.779623">
        <ele>574</ele>
        <time>2023-05-07T08:59:29Z</time>
      </trkpt>
      <trkpt lat="45.460814" lon="1.779596">
        <ele>573</ele>
        <time>2023-05-07T08:59:30Z</time>
      </trkpt>
      <trkpt lat="45.460793" lon="1.779566">
        <ele>573</ele>
        <time>2023-05-07T08:59:31Z</time>
      </trkpt>
      <trkpt lat="45.460773" lon="1.779536">
        <ele>573</ele>
        <time>2023-05-07T08:59:32Z</time>
      </trkpt>
      <trkpt lat="45.460754" lon="1.779503">
        <ele>572</ele>
        <time>2023-05-07T08:59:33Z</time>
      </trkpt>
      <trkpt lat="45.460734" lon="1.779469">
        <ele>572</ele>
        <time>2023-05-07T08:59:34Z</time>
      </trkpt>
      <trkpt lat="45.460716" lon="1.779431">
        <ele>572</ele>
        <time>2023-05-07T08:59:35Z</time>
      </trkpt>
      <trkpt lat="45.460698" lon="1.779393">
        <ele>572</ele>
        <time>2023-05-07T08:59:36Z</time>
      </trkpt>
      <trkpt lat="45.460679" lon="1.779352">
        <ele>572</ele>
        <time>2023-05-07T08:59:37Z</time>
      </trkpt>
      <trkpt lat="45.460662" lon="1.779312">
        <ele>571</ele>
        <time>2023-05-07T08:59:38Z</time>
      </trkpt>
      <trkpt lat="45.460643" lon="1.779270">
        <ele>571</ele>
        <time>2023-05-07T08:59:39Z</time>
      </trkpt>
      <trkpt lat="45.460625" lon="1.779229">
        <ele>570</ele>
        <time>2023-05-07T08:59:40Z</time>
      </trkpt>
      <trkpt lat="45.460606" lon="1.779189">
        <ele>570</ele>
        <time>2023-05-07T08:59:41Z</time>
      </trkpt>
      <trkpt lat="45.460588" lon="1.779149">
        <ele>570</ele>
        <time>2023-05-07T08:59:42Z</time>
      </trkpt>
      <trkpt lat="45.460570" lon="1.779110">
        <ele>569</ele>
        <time>2023-05-07T08:59:43Z</time>
      </trkpt>
      <trkpt lat="45.460552" lon="1.779071">
        <ele>569</ele>
        <time>2023-05-07T08:59:44Z</time>
      </trkpt>
      <trkpt lat="45.460532" lon="1.779033">
        <ele>569</ele>
        <time>2023-05-07T08:59:45Z</time>
      </trkpt>
      <trkpt lat="45.460512" lon="1.778995">
        <ele>569</ele>
        <time>2023-05-07T08:59:46Z</time>
      </trkpt>
      <trkpt lat="45.460489" lon="1.778955">
        <ele>569</ele>
        <time>2023-05-07T08:59:47Z</time>
      </trkpt>
      <trkpt lat="45.460466" lon="1.778915">
        <ele>568</ele>
        <time>2023-05-07T08:59:48Z</time>
      </trkpt>
      <trkpt lat="45.460440" lon="1.778871">
        <ele>568</ele>
        <time>2023-05-07T08:59:49Z</time>
      </trkpt>
      <trkpt lat="45.460413" lon="1.778826">
        <ele>567</ele>
        <time>2023-05-07T08:59:50Z</time>
      </trkpt>
      <trkpt lat="45.460386" lon="1.778779">
        <ele>567</ele>
        <time>2023-05-07T08:59:51Z</time>
      </trkpt>
      <trkpt lat="45.460358" lon="1.778731">
        <ele>567</ele>
        <time>2023-05-07T08:59:52Z</time>
      </trkpt>
      <trkpt lat="45.460331" lon="1.778684">
        <ele>566</ele>
        <time>2023-05-07T08:59:53Z</time>
      </trkpt>
      <trkpt lat="45.460304" lon="1.778632">
        <ele>566</ele>
        <time>2023-05-07T08:59:54Z</time>
      </trkpt>
      <trkpt lat="45.460276" lon="1.778580">
        <ele>565</ele>
        <time>2023-05-07T08:59:55Z</time>
      </trkpt>
      <trkpt lat="45.460249" lon="1.778520">
        <ele>565</ele>
        <time>2023-05-07T08:59:56Z</time>
      </trkpt>
      <trkpt lat="45.460222" lon="1.778460">
        <ele>565</ele>
        <time>2023-05-07T08:59:57Z</time>
      </trkpt>
      <trkpt lat="45.460197" lon="1.778386">
        <ele>564</ele>
        <time>2023-05-07T08:59:58Z</time>
      </trkpt>
      <trkpt lat="45.460172" lon="1.778313">
        <ele>563</ele>
        <time>2023-05-07T08:59:59Z</time>
      </trkpt>
      <trkpt lat="45.460153" lon="1.778234">
        <ele>563</ele>
        <time>2023-05-07T09:00:00Z</time>
      </trkpt>
      <trkpt lat="45.460135" lon="1.778155">
        <ele>562</ele>
        <time>2023-05-07T09:00:01Z</time>
      </trkpt>
      <trkpt lat="45.460123" lon="1.778075">
        <ele>562</ele>
        <time>2023-05-07T09:00:02Z</time>
      </trkpt>
      <trkpt lat="45.460111" lon="1.777994">
        <ele>561</ele>
        <time>2023-05-07T09:00:03Z</time>
      </trkpt>
      <trkpt lat="45.460104" lon="1.777917">
        <ele>561</ele>
        <time>2023-05-07T09:00:04Z</time>
      </trkpt>
      <trkpt lat="45.460097" lon="1.777840">
        <ele>560</ele>
        <time>2023-05-07T09:00:05Z</time>
      </trkpt>
      <trkpt lat="45.460092" lon="1.777770">
        <ele>560</ele>
        <time>2023-05-07T09:00:06Z</time>
      </trkpt>
      <trkpt lat="45.460087" lon="1.777700">
        <ele>560</ele>
        <time>2023-05-07T09:00:07Z</time>
      </trkpt>
      <trkpt lat="45.460077" lon="1.777634">
        <ele>559</ele>
        <time>2023-05-07T09:00:08Z</time>
      </trkpt>
      <trkpt lat="45.460068" lon="1.777569">
        <ele>559</ele>
        <time>2023-05-07T09:00:09Z</time>
      </trkpt>
      <trkpt lat="45.460053" lon="1.777510">
        <ele>558</ele>
        <time>2023-05-07T09:00:10Z</time>
      </trkpt>
      <trkpt lat="45.460038" lon="1.777452">
        <ele>558</ele>
        <time>2023-05-07T09:00:11Z</time>
      </trkpt>
      <trkpt lat="45.460013" lon="1.777399">
        <ele>558</ele>
        <time>2023-05-07T09:00:12Z</time>
      </trkpt>
      <trkpt lat="45.459989" lon="1.777346">
        <ele>557</ele>
        <time>2023-05-07T09:00:13Z</time>
      </trkpt>
      <trkpt lat="45.459957" lon="1.777300">
        <ele>557</ele>
        <time>2023-05-07T09:00:14Z</time>
      </trkpt>
      <trkpt lat="45.459925" lon="1.777254">
        <ele>557</ele>
        <time>2023-05-07T09:00:15Z</time>
      </trkpt>
      <trkpt lat="45.459888" lon="1.777218">
        <ele>557</ele>
        <time>2023-05-07T09:00:16Z</time>
      </trkpt>
      <trkpt lat="45.459852" lon="1.777183">
        <ele>557</ele>
        <time>2023-05-07T09:00:17Z</time>
      </trkpt>
      <trkpt lat="45.459811" lon="1.777157">
        <ele>557</ele>
        <time>2023-05-07T09:00:18Z</time>
      </trkpt>
      <trkpt lat="45.459769" lon="1.777130">
        <ele>557</ele>
        <time>2023-05-07T09:00:19Z</time>
      </trkpt>
      <trkpt lat="45.459726" lon="1.777112">
        <ele>557</ele>
        <time>2023-05-07T09:00:20Z</time>
      </trkpt>
      <trkpt lat="45.459682" lon="1.777094">
        <ele>557</ele>
        <time>2023-05-07T09:00:21Z</time>
      </trkpt>
      <trkpt lat="45.459639" lon="1.777081">
        <ele>557</ele>
        <time>2023-05-07T09:00:22Z</time>
      </trkpt>
      <trkpt lat="45.459596" lon="1.777068">
        <ele>556</ele>
        <time>2023-05-07T09:00:23Z</time>
      </trkpt>
      <trkpt lat="45.459554" lon="1.777056">
        <ele>556</ele>
        <time>2023-05-07T09:00:24Z</time>
      </trkpt>
      <trkpt lat="45.459512" lon="1.777045">
        <ele>556</ele>
        <time>2023-05-07T09:00:25Z</time>
      </trkpt>
      <trkpt lat="45.459472" lon="1.777033">
        <ele>556</ele>
        <time>2023-05-07T09:00:26Z</time>
      </trkpt>
      <trkpt lat="45.459432" lon="1.777022">
        <ele>556</ele>
        <time>2023-05-07T09:00:27Z</time>
      </trkpt>
      <trkpt lat="45.459392" lon="1.777009">
        <ele>556</ele>
        <time>2023-05-07T09:00:28Z</time>
      </trkpt>
      <trkpt lat="45.459353" lon="1.776997">
        <ele>556</ele>
        <time>2023-05-07T09:00:29Z</time>
      </trkpt>
      <trkpt lat="45.459317" lon="1.776982">
        <ele>556</ele>
        <time>2023-05-07T09:00:30Z</time>
      </trkpt>
      <trkpt lat="45.459280" lon="1.776967">
        <ele>556</ele>
        <time>2023-05-07T09:00:31Z</time>
      </trkpt>
      <trkpt lat="45.459244" lon="1.776952">
        <ele>556</ele>
        <time>2023-05-07T09:00:32Z</time>
      </trkpt>
      <trkpt lat="45.459210" lon="1.776937">
        <ele>556</ele>
        <time>2023-05-07T09:00:33Z</time>
      </trkpt>
      <trkpt lat="45.459175" lon="1.776921">
        <ele>556</ele>
        <time>2023-05-07T09:00:34Z</time>
      </trkpt>
      <trkpt lat="45.459141" lon="1.776908">
        <ele>556</ele>
        <time>2023-05-07T09:00:35Z</time>
      </trkpt>
      <trkpt lat="45.459107" lon="1.776894">
        <ele>556</ele>
        <time>2023-05-07T09:00:36Z</time>
      </trkpt>
      <trkpt lat="45.459069" lon="1.776882">
        <ele>556</ele>
        <time>2023-05-07T09:00:37Z</time>
      </trkpt>
      <trkpt lat="45.459032" lon="1.776870">
        <ele>556</ele>
        <time>2023-05-07T09:00:38Z</time>
      </trkpt>
      <trkpt lat="45.458994" lon="1.776859">
        <ele>556</ele>
        <time>2023-05-07T09:00:39Z</time>
      </trkpt>
      <trkpt lat="45.458956" lon="1.776848">
        <ele>556</ele>
        <time>2023-05-07T09:00:40Z</time>
      </trkpt>
      <trkpt lat="45.458918" lon="1.776841">
        <ele>556</ele>
        <time>2023-05-07T09:00:41Z</time>
      </trkpt>
      <trkpt lat="45.458879" lon="1.776833">
        <ele>557</ele>
        <time>2023-05-07T09:00:42Z</time>
      </trkpt>
      <trkpt lat="45.458840" lon="1.776830">
        <ele>557</ele>
        <time>2023-05-07T09:00:43Z</time>
      </trkpt>
      <trkpt lat="45.458801" lon="1.776827">
        <ele>557</ele>
        <time>2023-05-07T09:00:44Z</time>
      </trkpt>
      <trkpt lat="45.458761" lon="1.776830">
        <ele>557</ele>
        <time>2023-05-07T09:00:45Z</time>
      </trkpt>
      <trkpt lat="45.458722" lon="1.776833">
        <ele>557</ele>
        <time>2023-05-07T09:00:46Z</time>
      </trkpt>
      <trkpt lat="45.458681" lon="1.776843">
        <ele>557</ele>
        <time>2023-05-07T09:00:47Z</time>
      </trkpt>
      <trkpt lat="45.458641" lon="1.776853">
        <ele>557</ele>
        <time>2023-05-07T09:00:48Z</time>
      </trkpt>
      <trkpt lat="45.458601" lon="1.776869">
        <ele>557</ele>
        <time>2023-05-07T09:00:49Z</time>
      </trkpt>
      <trkpt lat="45.458561" lon="1.776885">
        <ele>557</ele>
        <time>2023-05-07T09:00:50Z</time>
      </trkpt>
      <trkpt lat="45.458522" lon="1.776908">
        <ele>557</ele>
        <time>2023-05-07T09:00:51Z</time>
      </trkpt>
      <trkpt lat="45.458483" lon="1.776931">
        <ele>557</ele>
        <time>2023-05-07T09:00:52Z</time>
      </trkpt>
      <trkpt lat="45.458445" lon="1.776958">
        <ele>557</ele>
        <time>2023-05-07T09:00:53Z</time>
      </trkpt>
      <trkpt lat="45.458406" lon="1.776984">
        <ele>557</ele>
        <time>2023-05-07T09:00:54Z</time>
      </trkpt>
      <trkpt lat="45.458368" lon="1.777014">
        <ele>557</ele>
        <time>2023-05-07T09:00:55Z</time>
      </trkpt>
      <trkpt lat="45.458331" lon="1.777044">
        <ele>557</ele>
        <time>2023-05-07T09:00:56Z</time>
      </trkpt>
      <trkpt lat="45.458294" lon="1.777078">
        <ele>557</ele>
        <time>2023-05-07T09:00:57Z</time>
      </trkpt>
      <trkpt lat="45.458257" lon="1.777111">
        <ele>557</ele>
        <time>2023-05-07T09:00:58Z</time>
      </trkpt>
      <trkpt lat="45.458224" lon="1.777147">
        <ele>557</ele>
        <time>2023-05-07T09:00:59Z</time>
      </trkpt>
      <trkpt lat="45.458190" lon="1.777184">
        <ele>557</ele>
        <time>2023-05-07T09:01:00Z</time>
      </trkpt>
      <trkpt lat="45.458158" lon="1.777224">
        <ele>557</ele>
        <time>2023-05-07T09:01:01Z</time>
      </trkpt>
      <trkpt lat="45.458126" lon="1.777264">
        <ele>557</ele>
        <time>2023-05-07T09:01:02Z</time>
      </trkpt>
      <trkpt lat="45.458097" lon="1.777306">
        <ele>557</ele>
        <time>2023-05-07T09:01:03Z</time>
      </trkpt>
      <trkpt lat="45.458068" lon="1.777349">
        <ele>557</ele>
        <time>2023-05-07T09:01:04Z</time>
      </trkpt>
      <trkpt lat="45.458041" lon="1.777396">
        <ele>557</ele>
        <time>2023-05-07T09:01:05Z</time>
      </trkpt>
      <trkpt lat="45.458014" lon="1.777442">
        <ele>557</ele>
        <time>2023-05-07T09:01:06Z</time>
      </trkpt>
      <trkpt lat="45.457987" lon="1.777495">
        <ele>557</ele>
        <time>2023-05-07T09:01:07Z</time>
      </trkpt>
      <trkpt lat="45.457960" lon="1.777548">
        <ele>557</ele>
        <time>2023-05-07T09:01:08Z</time>
      </trkpt>
      <trkpt lat="45.457935" lon="1.777606">
        <ele>557</ele>
        <time>2023-05-07T09:01:09Z</time>
      </trkpt>
      <trkpt lat="45.457911" lon="1.777664">
        <ele>557</ele>
        <time>2023-05-07T09:01:10Z</time>
      </trkpt>
      <trkpt lat="45.457890" lon="1.777725">
        <ele>557</ele>
        <time>2023-05-07T09:01:11Z</time>
      </trkpt>
      <trkpt lat="45.457869" lon="1.777787">
        <ele>557</ele>
        <time>2023-05-07T09:01:12Z</time>
      </trkpt>
      <trkpt lat="45.457853" lon="1.777849">
        <ele>557</ele>
        <time>2023-05-07T09:01:13Z</time>
      </trkpt>
      <trkpt lat="45.457837" lon="1.777911">
        <ele>557</ele>
        <time>2023-05-07T09:01:14Z</time>
      </trkpt>
      <trkpt lat="45.457826" lon="1.777975">
        <ele>557</ele>
        <time>2023-05-07T09:01:15Z</time>
      </trkpt>
      <trkpt lat="45.457814" lon="1.778039">
        <ele>557</ele>
        <time>2023-05-07T09:01:16Z</time>
      </trkpt>
      <trkpt lat="45.457808" lon="1.778104">
        <ele>557</ele>
        <time>2023-05-07T09:01:17Z</time>
      </trkpt>
      <trkpt lat="45.457801" lon="1.778169">
        <ele>556</ele>
        <time>2023-05-07T09:01:18Z</time>
      </trkpt>
      <trkpt lat="45.457797" lon="1.778234">
        <ele>556</ele>
        <time>2023-05-07T09:01:19Z</time>
      </trkpt>
      <trkpt lat="45.457794" lon="1.778299">
        <ele>556</ele>
        <time>2023-05-07T09:01:20Z</time>
      </trkpt>
      <trkpt lat="45.457792" lon="1.778363">
        <ele>556</ele>
        <time>2023-05-07T09:01:21Z</time>
      </trkpt>
      <trkpt lat="45.457791" lon="1.778426">
        <ele>556</ele>
        <time>2023-05-07T09:01:22Z</time>
      </trkpt>
      <trkpt lat="45.457789" lon="1.778486">
        <ele>556</ele>
        <time>2023-05-07T09:01:23Z</time>
      </trkpt>
      <trkpt lat="45.457786" lon="1.778545">
        <ele>556</ele>
        <time>2023-05-07T09:01:24Z</time>
      </trkpt>
      <trkpt lat="45.457784" lon="1.778601">
        <ele>556</ele>
        <time>2023-05-07T09:01:25Z</time>
      </trkpt>
      <trkpt lat="45.457781" lon="1.778657">
        <ele>556</ele>
        <time>2023-05-07T09:01:26Z</time>
      </trkpt>
      <trkpt lat="45.457778" lon="1.778711">
        <ele>556</ele>
        <time>2023-05-07T09:01:27Z</time>
      </trkpt>
      <trkpt lat="45.457775" lon="1.778765">
        <ele>556</ele>
        <time>2023-05-07T09:01:28Z</time>
      </trkpt>
      <trkpt lat="45.457772" lon="1.778818">
        <ele>556</ele>
        <time>2023-05-07T09:01:29Z</time>
      </trkpt>
      <trkpt lat="45.457769" lon="1.778872">
        <ele>556</ele>
        <time>2023-05-07T09:01:30Z</time>
      </trkpt>
      <trkpt lat="45.457766" lon="1.778925">
        <ele>556</ele>
        <time>2023-05-07T09:01:31Z</time>
      </trkpt>
      <trkpt lat="45.457763" lon="1.778979">
        <ele>556</ele>
        <time>2023-05-07T09:01:32Z</time>
      </trkpt>
      <trkpt lat="45.457760" lon="1.779032">
        <ele>556</ele>
        <time>2023-05-07T09:01:33Z</time>
      </trkpt>
      <trkpt lat="45.457756" lon="1.779085">
        <ele>556</ele>
        <time>2023-05-07T09:01:34Z</time>
      </trkpt>
      <trkpt lat="45.457754" lon="1.779137">
        <ele>556</ele>
        <time>2023-05-07T09:01:35Z</time>
      </trkpt>
      <trkpt lat="45.457752" lon="1.779188">
        <ele>556</ele>
        <time>2023-05-07T09:01:36Z</time>
      </trkpt>
      <trkpt lat="45.457752" lon="1.779238">
        <ele>556</ele>
        <time>2023-05-07T09:01:37Z</time>
      </trkpt>
      <trkpt lat="45.457751" lon="1.779288">
        <ele>556</ele>
        <time>2023-05-07T09:01:38Z</time>
      </trkpt>
      <trkpt lat="45.457754" lon="1.779337">
        <ele>556</ele>
        <time>2023-05-07T09:01:39Z</time>
      </trkpt>
      <trkpt lat="45.457757" lon="1.779386">
        <ele>556</ele>
        <time>2023-05-07T09:01:40Z</time>
      </trkpt>
      <trkpt lat="45.457763" lon="1.779434">
        <ele>556</ele>
        <time>2023-05-07T09:01:41Z</time>
      </trkpt>
      <trkpt lat="45.457769" lon="1.779481">
        <ele>557</ele>
        <time>2023-05-07T09:01:42Z</time>
      </trkpt>
      <trkpt lat="45.457777" lon="1.779527">
        <ele>557</ele>
        <time>2023-05-07T09:01:43Z</time>
      </trkpt>
      <trkpt lat="45.457785" lon="1.779572">
        <ele>557</ele>
        <time>2023-05-07T09:01:44Z</time>
      </trkpt>
      <trkpt lat="45.457795" lon="1.779617">
        <ele>557</ele>
        <time>2023-05-07T09:01:45Z</time>
      </trkpt>
      <trkpt lat="45.457805" lon="1.779662">
        <ele>557</ele>
        <time>2023-05-07T09:01:46Z</time>
      </trkpt>
      <trkpt lat="45.457816" lon="1.779706">
        <ele>557</ele>
        <time>2023-05-07T09:01:47Z</time>
      </trkpt>
      <trkpt lat="45.457827" lon="1.779750">
        <ele>557</ele>
        <time>2023-05-07T09:01:48Z</time>
      </trkpt>
      <trkpt lat="45.457838" lon="1.779793">
        <ele>557</ele>
        <time>2023-05-07T09:01:49Z</time>
      </trkpt>
      <trkpt lat="45.457849" lon="1.779837">
        <ele>557</ele>
        <time>2023-05-07T09:01:50Z</time>
      </trkpt>
      <trkpt lat="45.457861" lon="1.779880">
        <ele>557</ele>
        <time>2023-05-07T09:01:51Z</time>
      </trkpt>
      <trkpt lat="45.457872" lon="1.779923">
        <ele>557</ele>
        <time>2023-05-07T09:01:52Z</time>
      </trkpt>
      <trkpt lat="45.457881" lon="1.779967">
        <ele>557</ele>
        <time>2023-05-07T09:01:53Z</time>
      </trkpt>
      <trkpt lat="45.457891" lon="1.780010">
        <ele>557</ele>
        <time>2023-05-07T09:01:54Z</time>
      </trkpt>
      <trkpt lat="45.457894" lon="1.780056">
        <ele>557</ele>
        <time>2023-05-07T09:01:55Z</time>
      </trkpt>
      <trkpt lat="45.457898" lon="1.780102">
        <ele>557</ele>
        <time>2023-05-07T09:01:56Z</time>
      </trkpt>
      <trkpt lat="45.457891" lon="1.780146">
        <ele>558</ele>
        <time>2023-05-07T09:01:57Z</time>
      </trkpt>
      <trkpt lat="45.457885" lon="1.780191">
        <ele>558</ele>
        <time>2023-05-07T09:01:58Z</time>
      </trkpt>
      <trkpt lat="45.457865" lon="1.780226">
        <ele>558</ele>
        <time>2023-05-07T09:01:59Z</time>
      </trkpt>
      <trkpt lat="45.457846" lon="1.780261">
        <ele>558</ele>
        <time>2023-05-07T09:02:00Z</time>
      </trkpt>
      <trkpt lat="45.457816" lon="1.780281">
        <ele>558</ele>
        <time>2023-05-07T09:02:01Z</time>
      </trkpt>
      <trkpt lat="45.457787" lon="1.780301">
        <ele>558</ele>
        <time>2023-05-07T09:02:02Z</time>
      </trkpt>
      <trkpt lat="45.457751" lon="1.780305">
        <ele>558</ele>
        <time>2023-05-07T09:02:03Z</time>
      </trkpt>
      <trkpt lat="45.457716" lon="1.780309">
        <ele>558</ele>
        <time>2023-05-07T09:02:04Z</time>
      </trkpt>
      <trkpt lat="45.457680" lon="1.780297">
        <ele>558</ele>
        <time>2023-05-07T09:02:05Z</time>
      </trkpt>
      <trkpt lat="45.457645" lon="1.780285">
        <ele>558</ele>
        <time>2023-05-07T09:02:06Z</time>
      </trkpt>
      <trkpt lat="45.457612" lon="1.780264">
        <ele>558</ele>
        <time>2023-05-07T09:02:07Z</time>
      </trkpt>
      <trkpt lat="45.457578" lon="1.780243">
        <ele>558</ele>
        <time>2023-05-07T09:02:08Z</time>
      </trkpt>
      <trkpt lat="45.457549" lon="1.780218">
        <ele>558</ele>
        <time>2023-05-07T09:02:09Z</time>
      </trkpt>
      <trkpt lat="45.457519" lon="1.780193">
        <ele>558</ele>
        <time>2023-05-07T09:02:10Z</time>
      </trkpt>
      <trkpt lat="45.457491" lon="1.780168">
        <ele>558</ele>
        <time>2023-05-07T09:02:11Z</time>
      </trkpt>
      <trkpt lat="45.457462" lon="1.780143">
        <ele>559</ele>
        <time>2023-05-07T09:02:12Z</time>
      </trkpt>
      <trkpt lat="45.457436" lon="1.780119">
        <ele>559</ele>
        <time>2023-05-07T09:02:13Z</time>
      </trkpt>
      <trkpt lat="45.457409" lon="1.780094">
        <ele>559</ele>
        <time>2023-05-07T09:02:14Z</time>
      </trkpt>
      <trkpt lat="45.457385" lon="1.780071">
        <ele>559</ele>
        <time>2023-05-07T09:02:15Z</time>
      </trkpt>
      <trkpt lat="45.457361" lon="1.780047">
        <ele>559</ele>
        <time>2023-05-07T09:02:16Z</time>
      </trkpt>
      <trkpt lat="45.457338" lon="1.780025">
        <ele>559</ele>
        <time>2023-05-07T09:02:17Z</time>
      </trkpt>
      <trkpt lat="45.457315" lon="1.780003">
        <ele>559</ele>
        <time>2023-05-07T09:02:18Z</time>
      </trkpt>
      <trkpt lat="45.457292" lon="1.779978">
        <ele>559</ele>
        <time>2023-05-07T09:02:19Z</time>
      </trkpt>
      <trkpt lat="45.457269" lon="1.779953">
        <ele>559</ele>
        <time>2023-05-07T09:02:20Z</time>
      </trkpt>
      <trkpt lat="45.457247" lon="1.779926">
        <ele>559</ele>
        <time>2023-05-07T09:02:21Z</time>
      </trkpt>
      <trkpt lat="45.457224" lon="1.779898">
        <ele>560</ele>
        <time>2023-05-07T09:02:22Z</time>
      </trkpt>
      <trkpt lat="45.457202" lon="1.779866">
        <ele>560</ele>
        <time>2023-05-07T09:02:23Z</time>
      </trkpt>
      <trkpt lat="45.457180" lon="1.779834">
        <ele>560</ele>
        <time>2023-05-07T09:02:24Z</time>
      </trkpt>
      <trkpt lat="45.457160" lon="1.779799">
        <ele>560</ele>
        <time>2023-05-07T09:02:25Z</time>
      </trkpt>
      <trkpt lat="45.457139" lon="1.779764">
        <ele>560</ele>
        <time>2023-05-07T09:02:26Z</time>
      </trkpt>
      <trkpt lat="45.457122" lon="1.779725">
        <ele>560</ele>
        <time>2023-05-07T09:02:27Z</time>
      </trkpt>
      <trkpt lat="45.457105" lon="1.779686">
        <ele>560</ele>
        <time>2023-05-07T09:02:28Z</time>
      </trkpt>
      <trkpt lat="45.457092" lon="1.779646">
        <ele>560</ele>
        <time>2023-05-07T09:02:29Z</time>
      </trkpt>
      <trkpt lat="45.457079" lon="1.779606">
        <ele>560</ele>
        <time>2023-05-07T09:02:30Z</time>
      </trkpt>
      <trkpt lat="45.457069" lon="1.779567">
        <ele>560</ele>
        <time>2023-05-07T09:02:31Z</time>
      </trkpt>
      <trkpt lat="45.457059" lon="1.779528">
        <ele>561</ele>
        <time>2023-05-07T09:02:32Z</time>
      </trkpt>
      <trkpt lat="45.457050" lon="1.779489">
        <ele>561</ele>
        <time>2023-05-07T09:02:33Z</time>
      </trkpt>
      <trkpt lat="45.457041" lon="1.779449">
        <ele>561</ele>
        <time>2023-05-07T09:02:34Z</time>
      </trkpt>
      <trkpt lat="45.457033" lon="1.779413">
        <ele>561</ele>
        <time>2023-05-07T09:02:35Z</time>
      </trkpt>
      <trkpt lat="45.457025" lon="1.779376">
        <ele>561</ele>
        <time>2023-05-07T09:02:36Z</time>
      </trkpt>
      <trkpt lat="45.457017" lon="1.779341">
        <ele>562</ele>
        <time>2023-05-07T09:02:37Z</time>
      </trkpt>
      <trkpt lat="45.457009" lon="1.779306">
        <ele>562</ele>
        <time>2023-05-07T09:02:38Z</time>
      </trkpt>
      <trkpt lat="45.456999" lon="1.779274">
        <ele>562</ele>
        <time>2023-05-07T09:02:39Z</time>
      </trkpt>
      <trkpt lat="45.456990" lon="1.779241">
        <ele>562</ele>
        <time>2023-05-07T09:02:40Z</time>
      </trkpt>
      <trkpt lat="45.456977" lon="1.779209">
        <ele>562</ele>
        <time>2023-05-07T09:02:41Z</time>
      </trkpt>
      <trkpt lat="45.456964" lon="1.779177">
        <ele>562</ele>
        <time>2023-05-07T09:02:42Z</time>
      </trkpt>
      <trkpt lat="45.456945" lon="1.779145">
        <ele>562</ele>
        <time>2023-05-07T09:02:43Z</time>
      </trkpt>
      <trkpt lat="45.456926" lon="1.779113">
        <ele>562</ele>
        <time>2023-05-07T09:02:44Z</time>
      </trkpt>
      <trkpt lat="45.456905" lon="1.779085">
        <ele>562</ele>
        <time>2023-05-07T09:02:45Z</time>
      </trkpt>
      <trkpt lat="45.456884" lon="1.779057">
        <ele>562</ele>
        <time>2023-05-07T09:02:46Z</time>
      </trkpt>
      <trkpt lat="45.456858" lon="1.779034">
        <ele>563</ele>
        <time>2023-05-07T09:02:47Z</time>
      </trkpt>
      <trkpt lat="45.456832" lon="1.779011">
        <ele>563</ele>
        <time>2023-05-07T09:02:48Z</time>
      </trkpt>
      <trkpt lat="45.456803" lon="1.778997">
        <ele>563</ele>
        <time>2023-05-07T09:02:49Z</time>
      </trkpt>
      <trkpt lat="45.456775" lon="1.778983">
        <ele>563</ele>
        <time>2023-05-07T09:02:50Z</time>
      </trkpt>
      <trkpt lat="45.456745" lon="1.778977">
        <ele>563</ele>
        <time>2023-05-07T09:02:51Z</time>
      </trkpt>
      <trkpt lat="45.456715" lon="1.778971">
        <ele>563</ele>
        <time>2023-05-07T09:02:52Z</time>
      </trkpt>
      <trkpt lat="45.456683" lon="1.778971">
        <ele>563</ele>
        <time>2023-05-07T09:02:53Z</time>
      </trkpt>
      <trkpt lat="45.456652" lon="1.778971">
        <ele>563</ele>
        <time>2023-05-07T09:02:54Z</time>
      </trkpt>
      <trkpt lat="45.456621" lon="1.778976">
        <ele>563</ele>
        <time>2023-05-07T09:02:55Z</time>
      </trkpt>
      <trkpt lat="45.456589" lon="1.778981">
        <ele>563</ele>
        <time>2023-05-07T09:02:56Z</time>
      </trkpt>
      <trkpt lat="45.456558" lon="1.778988">
        <ele>564</ele>
        <time>2023-05-07T09:02:57Z</time>
      </trkpt>
      <trkpt lat="45.456527" lon="1.778994">
        <ele>564</ele>
        <time>2023-05-07T09:02:58Z</time>
      </trkpt>
      <trkpt lat="45.456499" lon="1.779000">
        <ele>564</ele>
        <time>2023-05-07T09:02:59Z</time>
      </trkpt>
      <trkpt lat="45.456470" lon="1.779007">
        <ele>564</ele>
        <time>2023-05-07T09:03:00Z</time>
      </trkpt>
      <trkpt lat="45.456442" lon="1.779014">
        <ele>564</ele>
        <time>2023-05-07T09:03:01Z</time>
      </trkpt>
      <trkpt lat="45.456414" lon="1.779021">
        <ele>564</ele>
        <time>2023-05-07T09:03:02Z</time>
      </trkpt>
      <trkpt lat="45.456387" lon="1.779030">
        <ele>564</ele>
        <time>2023-05-07T09:03:03Z</time>
      </trkpt>
      <trkpt lat="45.456360" lon="1.779039">
        <ele>564</ele>
        <time>2023-05-07T09:03:04Z</time>
      </trkpt>
      <trkpt lat="45.456334" lon="1.779049">
        <ele>564</ele>
        <time>2023-05-07T09:03:05Z</time>
      </trkpt>
      <trkpt lat="45.456309" lon="1.779060">
        <ele>564</ele>
        <time>2023-05-07T09:03:06Z</time>
      </trkpt>
      <trkpt lat="45.456284" lon="1.779074">
        <ele>565</ele>
        <time>2023-05-07T09:03:07Z</time>
      </trkpt>
      <trkpt lat="45.456259" lon="1.779088">
        <ele>565</ele>
        <time>2023-05-07T09:03:08Z</time>
      </trkpt>
      <trkpt lat="45.456235" lon="1.779104">
        <ele>565</ele>
        <time>2023-05-07T09:03:09Z</time>
      </trkpt>
      <trkpt lat="45.456212" lon="1.779121">
        <ele>565</ele>
        <time>2023-05-07T09:03:10Z</time>
      </trkpt>
      <trkpt lat="45.456188" lon="1.779139">
        <ele>565</ele>
        <time>2023-05-07T09:03:11Z</time>
      </trkpt>
      <trkpt lat="45.456164" lon="1.779157">
        <ele>565</ele>
        <time>2023-05-07T09:03:12Z</time>
      </trkpt>
      <trkpt lat="45.456142" lon="1.779175">
        <ele>565</ele>
        <time>2023-05-07T09:03:13Z</time>
      </trkpt>
      <trkpt lat="45.456119" lon="1.779192">
        <ele>565</ele>
        <time>2023-05-07T09:03:14Z</time>
      </trkpt>
      <trkpt lat="45.456095" lon="1.779211">
        <ele>565</ele>
        <time>2023-05-07T09:03:15Z</time>
      </trkpt>
      <trkpt lat="45.456072" lon="1.779230">
        <ele>565</ele>
        <time>2023-05-07T09:03:16Z</time>
      </trkpt>
      <trkpt lat="45.456048" lon="1.779250">
        <ele>566</ele>
        <time>2023-05-07T09:03:17Z</time>
      </trkpt>
      <trkpt lat="45.456025" lon="1.779270">
        <ele>566</ele>
        <time>2023-05-07T09:03:18Z</time>
      </trkpt>
      <trkpt lat="45.456002" lon="1.779291">
        <ele>566</ele>
        <time>2023-05-07T09:03:19Z</time>
      </trkpt>
      <trkpt lat="45.455980" lon="1.779312">
        <ele>566</ele>
        <time>2023-05-07T09:03:20Z</time>
      </trkpt>
      <trkpt lat="45.455956" lon="1.779333">
        <ele>566</ele>
        <time>2023-05-07T09:03:21Z</time>
      </trkpt>
      <trkpt lat="45.455932" lon="1.779355">
        <ele>566</ele>
        <time>2023-05-07T09:03:22Z</time>
      </trkpt>
      <trkpt lat="45.455908" lon="1.779374">
        <ele>566</ele>
        <time>2023-05-07T09:03:23Z</time>
      </trkpt>
      <trkpt lat="45.455884" lon="1.779393">
        <ele>566</ele>
        <time>2023-05-07T09:03:24Z</time>
      </trkpt>
      <trkpt lat="45.455860" lon="1.779411">
        <ele>566</ele>
        <time>2023-05-07T09:03:25Z</time>
      </trkpt>
      <trkpt lat="45.455835" lon="1.779429">
        <ele>566</ele>
        <time>2023-05-07T09:03:26Z</time>
      </trkpt>
      <trkpt lat="45.455810" lon="1.779446">
        <ele>567</ele>
        <time>2023-05-07T09:03:27Z</time>
      </trkpt>
      <trkpt lat="45.455785" lon="1.779464">
        <ele>567</ele>
        <time>2023-05-07T09:03:28Z</time>
      </trkpt>
      <trkpt lat="45.455758" lon="1.779479">
        <ele>567</ele>
        <time>2023-05-07T09:03:29Z</time>
      </trkpt>
      <trkpt lat="45.455732" lon="1.779495">
        <ele>567</ele>
        <time>2023-05-07T09:03:30Z</time>
      </trkpt>
      <trkpt lat="45.455703" lon="1.779508">
        <ele>567</ele>
        <time>2023-05-07T09:03:31Z</time>
      </trkpt>
      <trkpt lat="45.455675" lon="1.779521">
        <ele>567</ele>
        <time>2023-05-07T09:03:32Z</time>
      </trkpt>
      <trkpt lat="45.455647" lon="1.779531">
        <ele>567</ele>
        <time>2023-05-07T09:03:33Z</time>
      </trkpt>
      <trkpt lat="45.455619" lon="1.779542">
        <ele>567</ele>
        <time>2023-05-07T09:03:34Z</time>
      </trkpt>
      <trkpt lat="45.455592" lon="1.779548">
        <ele>567</ele>
        <time>2023-05-07T09:03:35Z</time>
      </trkpt>
      <trkpt lat="45.455564" lon="1.779554">
        <ele>567</ele>
        <time>2023-05-07T09:03:36Z</time>
      </trkpt>
      <trkpt lat="45.455534" lon="1.779556">
        <ele>568</ele>
        <time>2023-05-07T09:03:37Z</time>
      </trkpt>
      <trkpt lat="45.455505" lon="1.779559">
        <ele>568</ele>
        <time>2023-05-07T09:03:38Z</time>
      </trkpt>
      <trkpt lat="45.455473" lon="1.779559">
        <ele>568</ele>
        <time>2023-05-07T09:03:39Z</time>
      </trkpt>
      <trkpt lat="45.455442" lon="1.779559">
        <ele>568</ele>
        <time>2023-05-07T09:03:40Z</time>
      </trkpt>
      <trkpt lat="45.455412" lon="1.779554">
        <ele>568</ele>
        <time>2023-05-07T09:03:41Z</time>
      </trkpt>
      <trkpt lat="45.455381" lon="1.779550">
        <ele>569</ele>
        <time>2023-05-07T09:03:42Z</time>
      </trkpt>
      <trkpt lat="45.455352" lon="1.779542">
        <ele>569</ele>
        <time>2023-05-07T09:03:43Z</time>
      </trkpt>
      <trkpt lat="45.455323" lon="1.779533">
        <ele>569</ele>
        <time>2023-05-07T09:03:44Z</time>
      </trkpt>
      <trkpt lat="45.455296" lon="1.779520">
        <ele>569</ele>
        <time>2023-05-07T09:03:45Z</time>
      </trkpt>
      <trkpt lat="45.455268" lon="1.779507">
        <ele>569</ele>
        <time>2023-05-07T09:03:46Z</time>
      </trkpt>
      <trkpt lat="45.455241" lon="1.779489">
        <ele>569</ele>
        <time>2023-05-07T09:03:47Z</time>
      </trkpt>
      <trkpt lat="45.455213" lon="1.779471">
        <ele>569</ele>
        <time>2023-05-07T09:03:48Z</time>
      </trkpt>
      <trkpt lat="45.455187" lon="1.779449">
        <ele>569</ele>
        <time>2023-05-07T09:03:49Z</time>
      </trkpt>
      <trkpt lat="45.455162" lon="1.779428">
        <ele>569</ele>
        <time>2023-05-07T09:03:50Z</time>
      </trkpt>
      <trkpt lat="45.455138" lon="1.779404">
        <ele>569</ele>
        <time>2023-05-07T09:03:51Z</time>
      </trkpt>
      <trkpt lat="45.455115" lon="1.779380">
        <ele>570</ele>
        <time>2023-05-07T09:03:52Z</time>
      </trkpt>
      <trkpt lat="45.455093" lon="1.779355">
        <ele>570</ele>
        <time>2023-05-07T09:03:53Z</time>
      </trkpt>
      <trkpt lat="45.455070" lon="1.779330">
        <ele>570</ele>
        <time>2023-05-07T09:03:54Z</time>
      </trkpt>
      <trkpt lat="45.455049" lon="1.779305">
        <ele>570</ele>
        <time>2023-05-07T09:03:55Z</time>
      </trkpt>
      <trkpt lat="45.455027" lon="1.779280">
        <ele>570</ele>
        <time>2023-05-07T09:03:56Z</time>
      </trkpt>
      <trkpt lat="45.455005" lon="1.779256">
        <ele>571</ele>
        <time>2023-05-07T09:03:57Z</time>
      </trkpt>
      <trkpt lat="45.454983" lon="1.779231">
        <ele>571</ele>
        <time>2023-05-07T09:03:58Z</time>
      </trkpt>
      <trkpt lat="45.454960" lon="1.779208">
        <ele>571</ele>
        <time>2023-05-07T09:03:59Z</time>
      </trkpt>
      <trkpt lat="45.454937" lon="1.779184">
        <ele>571</ele>
        <time>2023-05-07T09:04:00Z</time>
      </trkpt>
      <trkpt lat="45.454912" lon="1.779162">
        <ele>571</ele>
        <time>2023-05-07T09:04:01Z</time>
      </trkpt>
      <trkpt lat="45.454887" lon="1.779139">
        <ele>571</ele>
        <time>2023-05-07T09:04:02Z</time>
      </trkpt>
      <trkpt lat="45.454860" lon="1.779120">
        <ele>571</ele>
        <time>2023-05-07T09:04:03Z</time>
      </trkpt>
      <trkpt lat="45.454834" lon="1.779100">
        <ele>571</ele>
        <time>2023-05-07T09:04:04Z</time>
      </trkpt>
      <trkpt lat="45.454805" lon="1.779084">
        <ele>571</ele>
        <time>2023-05-07T09:04:05Z</time>
      </trkpt>
      <trkpt lat="45.454777" lon="1.779067">
        <ele>571</ele>
        <time>2023-05-07T09:04:06Z</time>
      </trkpt>
      <trkpt lat="45.454747" lon="1.779054">
        <ele>572</ele>
        <time>2023-05-07T09:04:07Z</time>
      </trkpt>
      <trkpt lat="45.454717" lon="1.779040">
        <ele>572</ele>
        <time>2023-05-07T09:04:08Z</time>
      </trkpt>
      <trkpt lat="45.454687" lon="1.779030">
        <ele>572</ele>
        <time>2023-05-07T09:04:09Z</time>
      </trkpt>
      <trkpt lat="45.454656" lon="1.779020">
        <ele>572</ele>
        <time>2023-05-07T09:04:10Z</time>
      </trkpt>
      <trkpt lat="45.454625" lon="1.779013">
        <ele>572</ele>
        <time>2023-05-07T09:04:11Z</time>
      </trkpt>
      <trkpt lat="45.454595" lon="1.779005">
        <ele>573</ele>
        <time>2023-05-07T09:04:12Z</time>
      </trkpt>
      <trkpt lat="45.454564" lon="1.779000">
        <ele>573</ele>
        <time>2023-05-07T09:04:13Z</time>
      </trkpt>
      <trkpt lat="45.454534" lon="1.778994">
        <ele>573</ele>
        <time>2023-05-07T09:04:14Z</time>
      </trkpt>
      <trkpt lat="45.454502" lon="1.778989">
        <ele>573</ele>
        <time>2023-05-07T09:04:15Z</time>
      </trkpt>
      <trkpt lat="45.454471" lon="1.778983">
        <ele>573</ele>
        <time>2023-05-07T09:04:16Z</time>
      </trkpt>
      <trkpt lat="45.454439" lon="1.778979">
        <ele>573</ele>
        <time>2023-05-07T09:04:17Z</time>
      </trkpt>
      <trkpt lat="45.454407" lon="1.778975">
        <ele>573</ele>
        <time>2023-05-07T09:04:18Z</time>
      </trkpt>
      <trkpt lat="45.454376" lon="1.778975">
        <ele>573</ele>
        <time>2023-05-07T09:04:19Z</time>
      </trkpt>
      <trkpt lat="45.454344" lon="1.778974">
        <ele>573</ele>
        <time>2023-05-07T09:04:20Z</time>
      </trkpt>
      <trkpt lat="45.454312" lon="1.778977">
        <ele>573</ele>
        <time>2023-05-07T09:04:21Z</time>
      </trkpt>
      <trkpt lat="45.454281" lon="1.778980">
        <ele>574</ele>
        <time>2023-05-07T09:04:22Z</time>
      </trkpt>
      <trkpt lat="45.454250" lon="1.778987">
        <ele>574</ele>
        <time>2023-05-07T09:04:23Z</time>
      </trkpt>
      <trkpt lat="45.454220" lon="1.778994">
        <ele>574</ele>
        <time>2023-05-07T09:04:24Z</time>
      </trkpt>
      <trkpt lat="45.454189" lon="1.779008">
        <ele>574</ele>
        <time>2023-05-07T09:04:25Z</time>
      </trkpt>
      <trkpt lat="45.454158" lon="1.779022">
        <ele>574</ele>
        <time>2023-05-07T09:04:26Z</time>
      </trkpt>
      <trkpt lat="45.454130" lon="1.779045">
        <ele>574</ele>
        <time>2023-05-07T09:04:27Z</time>
      </trkpt>
      <trkpt lat="45.454103" lon="1.779068">
        <ele>574</ele>
        <time>2023-05-07T09:04:28Z</time>
      </trkpt>
      <trkpt lat="45.454076" lon="1.779096">
        <ele>574</ele>
        <time>2023-05-07T09:04:29Z</time>
      </trkpt>
      <trkpt lat="45.454050" lon="1.779125">
        <ele>574</ele>
        <time>2023-05-07T09:04:30Z</time>
      </trkpt>
      <trkpt lat="45.454026" lon="1.779158">
        <ele>574</ele>
        <time>2023-05-07T09:04:31Z</time>
      </trkpt>
      <trkpt lat="45.454002" lon="1.779192">
        <ele>575</ele>
        <time>2023-05-07T09:04:32Z</time>
      </trkpt>
      <trkpt lat="45.453981" lon="1.779232">
        <ele>575</ele>
        <time>2023-05-07T09:04:33Z</time>
      </trkpt>
      <trkpt lat="45.453960" lon="1.779271">
        <ele>575</ele>
        <time>2023-05-07T09:04:34Z</time>
      </trkpt>
      <trkpt lat="45.453942" lon="1.779313">
        <ele>575</ele>
        <time>2023-05-07T09:04:35Z</time>
      </trkpt>
      <trkpt lat="45.453924" lon="1.779356">
        <ele>575</ele>
        <time>2023-05-07T09:04:36Z</time>
      </trkpt>
      <trkpt lat="45.453907" lon="1.779398">
        <ele>575</ele>
        <time>2023-05-07T09:04:37Z</time>
      </trkpt>
      <trkpt lat="45.453890" lon="1.779441">
        <ele>575</ele>
        <time>2023-05-07T09:04:38Z</time>
      </trkpt>
      <trkpt lat="45.453875" lon="1.779485">
        <ele>575</ele>
        <time>2023-05-07T09:04:39Z</time>
      </trkpt>
      <trkpt lat="45.453859" lon="1.779529">
        <ele>575</ele>
        <time>2023-05-07T09:04:40Z</time>
      </trkpt>
      <trkpt lat="45.453845" lon="1.779574">
        <ele>575</ele>
        <time>2023-05-07T09:04:41Z</time>
      </trkpt>
      <trkpt lat="45.453831" lon="1.779618">
        <ele>576</ele>
        <time>2023-05-07T09:04:42Z</time>
      </trkpt>
      <trkpt lat="45.453816" lon="1.779663">
        <ele>576</ele>
        <time>2023-05-07T09:04:43Z</time>
      </trkpt>
      <trkpt lat="45.453801" lon="1.779708">
        <ele>576</ele>
        <time>2023-05-07T09:04:44Z</time>
      </trkpt>
      <trkpt lat="45.453785" lon="1.779753">
        <ele>576</ele>
        <time>2023-05-07T09:04:45Z</time>
      </trkpt>
      <trkpt lat="45.453770" lon="1.779797">
        <ele>576</ele>
        <time>2023-05-07T09:04:46Z</time>
      </trkpt>
      <trkpt lat="45.453751" lon="1.779844">
        <ele>576</ele>
        <time>2023-05-07T09:04:47Z</time>
      </trkpt>
      <trkpt lat="45.453733" lon="1.779890">
        <ele>576</ele>
        <time>2023-05-07T09:04:48Z</time>
      </trkpt>
      <trkpt lat="45.453712" lon="1.779935">
        <ele>576</ele>
        <time>2023-05-07T09:04:49Z</time>
      </trkpt>
      <trkpt lat="45.453692" lon="1.779980">
        <ele>576</ele>
        <time>2023-05-07T09:04:50Z</time>
      </trkpt>
      <trkpt lat="45.453670" lon="1.780023">
        <ele>576</ele>
        <time>2023-05-07T09:04:51Z</time>
      </trkpt>
      <trkpt lat="45.453648" lon="1.780067">
        <ele>576</ele>
        <time>2023-05-07T09:04:52Z</time>
      </trkpt>
      <trkpt lat="45.453624" lon="1.780105">
        <ele>576</ele>
        <time>2023-05-07T09:04:53Z</time>
      </trkpt>
      <trkpt lat="45.453600" lon="1.780144">
        <ele>576</ele>
        <time>2023-05-07T09:04:54Z</time>
      </trkpt>
      <trkpt lat="45.453574" lon="1.780178">
        <ele>576</ele>
        <time>2023-05-07T09:04:55Z</time>
      </trkpt>
      <trkpt lat="45.453547" lon="1.780213">
        <ele>576</ele>
        <time>2023-05-07T09:04:56Z</time>
      </trkpt>
      <trkpt lat="45.453521" lon="1.780243">
        <ele>576</ele>
        <time>2023-05-07T09:04:57Z</time>
      </trkpt>
      <trkpt lat="45.453494" lon="1.780274">
        <ele>576</ele>
        <time>2023-05-07T09:04:58Z</time>
      </trkpt>
      <trkpt lat="45.453466" lon="1.780302">
        <ele>576</ele>
        <time>2023-05-07T09:04:59Z</time>
      </trkpt>
      <trkpt lat="45.453439" lon="1.780330">
        <ele>576</ele>
        <time>2023-05-07T09:05:00Z</time>
      </trkpt>
      <trkpt lat="45.453411" lon="1.780358">
        <ele>576</ele>
        <time>2023-05-07T09:05:01Z</time>
      </trkpt>
      <trkpt lat="45.453383" lon="1.780386">
        <ele>576</ele>
        <time>2023-05-07T09:05:02Z</time>
      </trkpt>
      <trkpt lat="45.453354" lon="1.780415">
        <ele>576</ele>
        <time>2023-05-07T09:05:03Z</time>
      </trkpt>
      <trkpt lat="45.453326" lon="1.780444">
        <ele>576</ele>
        <time>2023-05-07T09:05:04Z</time>
      </trkpt>
      <trkpt lat="45.453298" lon="1.780477">
        <ele>576</ele>
        <time>2023-05-07T09:05:05Z</time>
      </trkpt>
      <trkpt lat="45.453270" lon="1.780509">
        <ele>576</ele>
        <time>2023-05-07T09:05:06Z</time>
      </trkpt>
      <trkpt lat="45.453246" lon="1.780546">
        <ele>577</ele>
        <time>2023-05-07T09:05:07Z</time>
      </trkpt>
      <trkpt lat="45.453222" lon="1.780582">
        <ele>577</ele>
        <time>2023-05-07T09:05:08Z</time>
      </trkpt>
      <trkpt lat="45.453202" lon="1.780620">
        <ele>577</ele>
        <time>2023-05-07T09:05:09Z</time>
      </trkpt>
      <trkpt lat="45.453181" lon="1.780659">
        <ele>577</ele>
        <time>2023-05-07T09:05:10Z</time>
      </trkpt>
      <trkpt lat="45.453163" lon="1.780699">
        <ele>577</ele>
        <time>2023-05-07T09:05:11Z</time>
      </trkpt>
      <trkpt lat="45.453144" lon="1.780739">
        <ele>577</ele>
        <time>2023-05-07T09:05:12Z</time>
      </trkpt>
      <trkpt lat="45.453130" lon="1.780780">
        <ele>577</ele>
        <time>2023-05-07T09:05:13Z</time>
      </trkpt>
      <trkpt lat="45.453117" lon="1.780820">
        <ele>577</ele>
        <time>2023-05-07T09:05:14Z</time>
      </trkpt>
      <trkpt lat="45.453108" lon="1.780864">
        <ele>577</ele>
        <time>2023-05-07T09:05:15Z</time>
      </trkpt>
      <trkpt lat="45.453100" lon="1.780909">
        <ele>577</ele>
        <time>2023-05-07T09:05:16Z</time>
      </trkpt>
      <trkpt lat="45.453094" lon="1.780954">
        <ele>577</ele>
        <time>2023-05-07T09:05:17Z</time>
      </trkpt>
      <trkpt lat="45.453089" lon="1.780999">
        <ele>577</ele>
        <time>2023-05-07T09:05:18Z</time>
      </trkpt>
      <trkpt lat="45.453085" lon="1.781044">
        <ele>577</ele>
        <time>2023-05-07T09:05:19Z</time>
      </trkpt>
      <trkpt lat="45.453081" lon="1.781090">
        <ele>577</ele>
        <time>2023-05-07T09:05:20Z</time>
      </trkpt>
      <trkpt lat="45.453080" lon="1.781134">
        <ele>577</ele>
        <time>2023-05-07T09:05:21Z</time>
      </trkpt>
      <trkpt lat="45.453080" lon="1.781179">
        <ele>577</ele>
        <time>2023-05-07T09:05:22Z</time>
      </trkpt>
      <trkpt lat="45.453083" lon="1.781223">
        <ele>577</ele>
        <time>2023-05-07T09:05:23Z</time>
      </trkpt>
      <trkpt lat="45.453087" lon="1.781267">
        <ele>577</ele>
        <time>2023-05-07T09:05:24Z</time>
      </trkpt>
      <trkpt lat="45.453094" lon="1.781308">
        <ele>577</ele>
        <time>2023-05-07T09:05:25Z</time>
      </trkpt>
      <trkpt lat="45.453101" lon="1.781350">
        <ele>577</ele>
        <time>2023-05-07T09:05:26Z</time>
      </trkpt>
      <trkpt lat="45.453111" lon="1.781389">
        <ele>578</ele>
        <time>2023-05-07T09:05:27Z</time>
      </trkpt>
      <trkpt lat="45.453121" lon="1.781429">
        <ele>578</ele>
        <time>2023-05-07T09:05:28Z</time>
      </trkpt>
      <trkpt lat="45.453132" lon="1.781467">
        <ele>578</ele>
        <time>2023-05-07T09:05:29Z</time>
      </trkpt>
      <trkpt lat="45.453143" lon="1.781506">
        <ele>578</ele>
        <time>2023-05-07T09:05:30Z</time>
      </trkpt>
      <trkpt lat="45.453156" lon="1.781544">
        <ele>578</ele>
        <time>2023-05-07T09:05:31Z</time>
      </trkpt>
      <trkpt lat="45.453168" lon="1.781583">
        <ele>578</ele>
        <time>2023-05-07T09:05:32Z</time>
      </trkpt>
      <trkpt lat="45.453181" lon="1.781623">
        <ele>578</ele>
        <time>2023-05-07T09:05:33Z</time>
      </trkpt>
      <trkpt lat="45.453194" lon="1.781664">
        <ele>578</ele>
        <time>2023-05-07T09:05:34Z</time>
      </trkpt>
      <trkpt lat="45.453208" lon="1.781704">
        <ele>578</ele>
        <time>2023-05-07T09:05:35Z</time>
      </trkpt>
      <trkpt lat="45.453222" lon="1.781744">
        <ele>578</ele>
        <time>2023-05-07T09:05:36Z</time>
      </trkpt>
      <trkpt lat="45.453237" lon="1.781785">
        <ele>578</ele>
        <time>2023-05-07T09:05:37Z</time>
      </trkpt>
      <trkpt lat="45.453252" lon="1.781827">
        <ele>578</ele>
        <time>2023-05-07T09:05:38Z</time>
      </trkpt>
      <trkpt lat="45.453266" lon="1.781869">
        <ele>578</ele>
        <time>2023-05-07T09:05:39Z</time>
      </trkpt>
      <trkpt lat="45.453280" lon="1.781911">
        <ele>578</ele>
        <time>2023-05-07T09:05:40Z</time>
      </trkpt>
      <trkpt lat="45.453294" lon="1.781952">
        <ele>578</ele>
        <time>2023-05-07T09:05:41Z</time>
      </trkpt>
      <trkpt lat="45.453307" lon="1.781994">
        <ele>578</ele>
        <time>2023-05-07T09:05:42Z</time>
      </trkpt>
      <trkpt lat="45.453320" lon="1.782031">
        <ele>578</ele>
        <time>2023-05-07T09:05:43Z</time>
      </trkpt>
      <trkpt lat="45.453334" lon="1.782067">
        <ele>578</ele>
        <time>2023-05-07T09:05:44Z</time>
      </trkpt>
      <trkpt lat="45.453348" lon="1.782101">
        <ele>578</ele>
        <time>2023-05-07T09:05:45Z</time>
      </trkpt>
      <trkpt lat="45.453362" lon="1.782134">
        <ele>578</ele>
        <time>2023-05-07T09:05:46Z</time>
      </trkpt>
      <trkpt lat="45.453374" lon="1.782172">
        <ele>578</ele>
        <time>2023-05-07T09:05:47Z</time>
      </trkpt>
      <trkpt lat="45.453387" lon="1.782209">
        <ele>578</ele>
        <time>2023-05-07T09:05:48Z</time>
      </trkpt>
      <trkpt lat="45.453398" lon="1.782250">
        <ele>578</ele>
        <time>2023-05-07T09:05:49Z</time>
      </trkpt>
      <trkpt lat="45.453409" lon="1.782291">
        <ele>578</ele>
        <time>2023-05-07T09:05:50Z</time>
      </trkpt>
      <trkpt lat="45.453417" lon="1.782334">
        <ele>578</ele>
        <time>2023-05-07T09:05:51Z</time>
      </trkpt>
      <trkpt lat="45.453426" lon="1.782377">
        <ele>579</ele>
        <time>2023-05-07T09:05:52Z</time>
      </trkpt>
      <trkpt lat="45.453430" lon="1.782419">
        <ele>579</ele>
        <time>2023-05-07T09:05:53Z</time>
      </trkpt>
      <trkpt lat="45.453434" lon="1.782461">
        <ele>579</ele>
        <time>2023-05-07T09:05:54Z</time>
      </trkpt>
      <trkpt lat="45.453433" lon="1.782505">
        <ele>579</ele>
        <time>2023-05-07T09:05:55Z</time>
      </trkpt>
      <trkpt lat="45.453432" lon="1.782549">
        <ele>579</ele>
        <time>2023-05-07T09:05:56Z</time>
      </trkpt>
      <trkpt lat="45.453426" lon="1.782593">
        <ele>579</ele>
        <time>2023-05-07T09:05:57Z</time>
      </trkpt>
      <trkpt lat="45.453419" lon="1.782637">
        <ele>579</ele>
        <time>2023-05-07T09:05:58Z</time>
      </trkpt>
      <trkpt lat="45.453405" lon="1.782677">
        <ele>579</ele>
        <time>2023-05-07T09:05:59Z</time>
      </trkpt>
      <trkpt lat="45.453391" lon="1.782717">
        <ele>579</ele>
        <time>2023-05-07T09:06:00Z</time>
      </trkpt>
      <trkpt lat="45.453369" lon="1.782747">
        <ele>579</ele>
        <time>2023-05-07T09:06:01Z</time>
      </trkpt>
      <trkpt lat="45.453348" lon="1.782778">
        <ele>579</ele>
        <time>2023-05-07T09:06:02Z</time>
      </trkpt>
      <trkpt lat="45.453320" lon="1.782800">
        <ele>579</ele>
        <time>2023-05-07T09:06:03Z</time>
      </trkpt>
      <trkpt lat="45.453293" lon="1.782822">
        <ele>579</ele>
        <time>2023-05-07T09:06:04Z</time>
      </trkpt>
      <trkpt lat="45.453263" lon="1.782834">
        <ele>579</ele>
        <time>2023-05-07T09:06:05Z</time>
      </trkpt>
      <trkpt lat="45.453233" lon="1.782846">
        <ele>579</ele>
        <time>2023-05-07T09:06:06Z</time>
      </trkpt>
      <trkpt lat="45.453201" lon="1.782850">
        <ele>579</ele>
        <time>2023-05-07T09:06:07Z</time>
      </trkpt>
      <trkpt lat="45.453170" lon="1.782853">
        <ele>579</ele>
        <time>2023-05-07T09:06:08Z</time>
      </trkpt>
      <trkpt lat="45.453137" lon="1.782851">
        <ele>579</ele>
        <time>2023-05-07T09:06:09Z</time>
      </trkpt>
      <trkpt lat="45.453105" lon="1.782849">
        <ele>579</ele>
        <time>2023-05-07T09:06:10Z</time>
      </trkpt>
      <trkpt lat="45.453072" lon="1.782844">
        <ele>579</ele>
        <time>2023-05-07T09:06:11Z</time>
      </trkpt>
      <trkpt lat="45.453040" lon="1.782839">
        <ele>579</ele>
        <time>2023-05-07T09:06:12Z</time>
      </trkpt>
      <trkpt lat="45.453008" lon="1.782833">
        <ele>579</ele>
        <time>2023-05-07T09:06:13Z</time>
      </trkpt>
      <trkpt lat="45.452977" lon="1.782828">
        <ele>579</ele>
        <time>2023-05-07T09:06:14Z</time>
      </trkpt>
      <trkpt lat="45.452947" lon="1.782824">
        <ele>579</ele>
        <time>2023-05-07T09:06:15Z</time>
      </trkpt>
      <trkpt lat="45.452916" lon="1.782820">
        <ele>579</ele>
        <time>2023-05-07T09:06:16Z</time>
      </trkpt>
      <trkpt lat="45.452886" lon="1.782817">
        <ele>580</ele>
        <time>2023-05-07T09:06:17Z</time>
      </trkpt>
      <trkpt lat="45.452855" lon="1.782814">
        <ele>580</ele>
        <time>2023-05-07T09:06:18Z</time>
      </trkpt>
      <trkpt lat="45.452823" lon="1.782812">
        <ele>580</ele>
        <time>2023-05-07T09:06:19Z</time>
      </trkpt>
      <trkpt lat="45.452792" lon="1.782810">
        <ele>580</ele>
        <time>2023-05-07T09:06:20Z</time>
      </trkpt>
      <trkpt lat="45.452760" lon="1.782810">
        <ele>580</ele>
        <time>2023-05-07T09:06:21Z</time>
      </trkpt>
      <trkpt lat="45.452729" lon="1.782810">
        <ele>580</ele>
        <time>2023-05-07T09:06:22Z</time>
      </trkpt>
      <trkpt lat="45.452697" lon="1.782812">
        <ele>580</ele>
        <time>2023-05-07T09:06:23Z</time>
      </trkpt>
      <trkpt lat="45.452666" lon="1.782814">
        <ele>580</ele>
        <time>2023-05-07T09:06:24Z</time>
      </trkpt>
      <trkpt lat="45.452637" lon="1.782818">
        <ele>580</ele>
        <time>2023-05-07T09:06:25Z</time>
      </trkpt>
      <trkpt lat="45.452608" lon="1.782822">
        <ele>580</ele>
        <time>2023-05-07T09:06:26Z</time>
      </trkpt>
      <trkpt lat="45.452582" lon="1.782826">
        <ele>580</ele>
        <time>2023-05-07T09:06:27Z</time>
      </trkpt>
      <trkpt lat="45.452555" lon="1.782830">
        <ele>580</ele>
        <time>2023-05-07T09:06:28Z</time>
      </trkpt>
      <trkpt lat="45.452533" lon="1.782833">
        <ele>580</ele>
        <time>2023-05-07T09:06:29Z</time>
      </trkpt>
      <trkpt lat="45.452510" lon="1.782837">
        <ele>580</ele>
        <time>2023-05-07T09:06:30Z</time>
      </trkpt>
      <trkpt lat="45.452490" lon="1.782838">
        <ele>580</ele>
        <time>2023-05-07T09:06:31Z</time>
      </trkpt>
      <trkpt lat="45.452469" lon="1.782840">
        <ele>580</ele>
        <time>2023-05-07T09:06:32Z</time>
      </trkpt>
      <trkpt lat="45.452450" lon="1.782841">
        <ele>580</ele>
        <time>2023-05-07T09:06:33Z</time>
      </trkpt>
      <trkpt lat="45.452430" lon="1.782841">
        <ele>580</ele>
        <time>2023-05-07T09:06:34Z</time>
      </trkpt>
      <trkpt lat="45.452411" lon="1.782841">
        <ele>580</ele>
        <time>2023-05-07T09:06:35Z</time>
      </trkpt>
      <trkpt lat="45.452391" lon="1.782841">
        <ele>580</ele>
        <time>2023-05-07T09:06:36Z</time>
      </trkpt>
      <trkpt lat="45.452371" lon="1.782843">
        <ele>580</ele>
        <time>2023-05-07T09:06:37Z</time>
      </trkpt>
      <trkpt lat="45.452351" lon="1.782846">
        <ele>580</ele>
        <time>2023-05-07T09:06:38Z</time>
      </trkpt>
      <trkpt lat="45.452331" lon="1.782849">
        <ele>580</ele>
        <time>2023-05-07T09:06:39Z</time>
      </trkpt>
      <trkpt lat="45.452312" lon="1.782853">
        <ele>580</ele>
        <time>2023-05-07T09:06:40Z</time>
      </trkpt>
      <trkpt lat="45.452294" lon="1.782857">
        <ele>580</ele>
        <time>2023-05-07T09:06:41Z</time>
      </trkpt>
      <trkpt lat="45.452276" lon="1.782860">
        <ele>580</ele>
        <time>2023-05-07T09:06:42Z</time>
      </trkpt>
      <trkpt lat="45.452259" lon="1.782865">
        <ele>580</ele>
        <time>2023-05-07T09:06:43Z</time>
      </trkpt>
      <trkpt lat="45.452243" lon="1.782869">
        <ele>580</ele>
        <time>2023-05-07T09:06:44Z</time>
      </trkpt>
      <trkpt lat="45.452227" lon="1.782874">
        <ele>580</ele>
        <time>2023-05-07T09:06:45Z</time>
      </trkpt>
      <trkpt lat="45.452211" lon="1.782879">
        <ele>580</ele>
        <time>2023-05-07T09:06:46Z</time>
      </trkpt>
      <trkpt lat="45.452196" lon="1.782883">
        <ele>580</ele>
        <time>2023-05-07T09:06:47Z</time>
      </trkpt>
      <trkpt lat="45.452181" lon="1.782886">
        <ele>580</ele>
        <time>2023-05-07T09:06:48Z</time>
      </trkpt>
      <trkpt lat="45.452167" lon="1.782889">
        <ele>580</ele>
        <time>2023-05-07T09:06:49Z</time>
      </trkpt>
      <trkpt lat="45.452153" lon="1.782891">
        <ele>580</ele>
        <time>2023-05-07T09:06:50Z</time>
      </trkpt>
      <trkpt lat="45.452137" lon="1.782894">
        <ele>580</ele>
        <time>2023-05-07T09:06:51Z</time>
      </trkpt>
      <trkpt lat="45.452122" lon="1.782898">
        <ele>580</ele>
        <time>2023-05-07T09:06:52Z</time>
      </trkpt>
      <trkpt lat="45.452104" lon="1.782901">
        <ele>580</ele>
        <time>2023-05-07T09:06:53Z</time>
      </trkpt>
      <trkpt lat="45.452087" lon="1.782904">
        <ele>580</ele>
        <time>2023-05-07T09:06:54Z</time>
      </trkpt>
      <trkpt lat="45.452066" lon="1.782906">
        <ele>580</ele>
        <time>2023-05-07T09:06:55Z</time>
      </trkpt>
      <trkpt lat="45.452046" lon="1.782909">
        <ele>580</ele>
        <time>2023-05-07T09:06:56Z</time>
      </trkpt>
      <trkpt lat="45.452024" lon="1.782914">
        <ele>581</ele>
        <time>2023-05-07T09:06:57Z</time>
      </trkpt>
      <trkpt lat="45.452001" lon="1.782918">
        <ele>581</ele>
        <time>2023-05-07T09:06:58Z</time>
      </trkpt>
      <trkpt lat="45.451976" lon="1.782924">
        <ele>581</ele>
        <time>2023-05-07T09:06:59Z</time>
      </trkpt>
      <trkpt lat="45.451951" lon="1.782931">
        <ele>581</ele>
        <time>2023-05-07T09:07:00Z</time>
      </trkpt>
      <trkpt lat="45.451924" lon="1.782939">
        <ele>581</ele>
        <time>2023-05-07T09:07:01Z</time>
      </trkpt>
      <trkpt lat="45.451897" lon="1.782947">
        <ele>581</ele>
        <time>2023-05-07T09:07:02Z</time>
      </trkpt>
      <trkpt lat="45.451868" lon="1.782959">
        <ele>581</ele>
        <time>2023-05-07T09:07:03Z</time>
      </trkpt>
      <trkpt lat="45.451840" lon="1.782970">
        <ele>581</ele>
        <time>2023-05-07T09:07:04Z</time>
      </trkpt>
      <trkpt lat="45.451812" lon="1.782986">
        <ele>581</ele>
        <time>2023-05-07T09:07:05Z</time>
      </trkpt>
      <trkpt lat="45.451785" lon="1.783002">
        <ele>581</ele>
        <time>2023-05-07T09:07:06Z</time>
      </trkpt>
      <trkpt lat="45.451758" lon="1.783022">
        <ele>581</ele>
        <time>2023-05-07T09:07:07Z</time>
      </trkpt>
      <trkpt lat="45.451732" lon="1.783043">
        <ele>581</ele>
        <time>2023-05-07T09:07:08Z</time>
      </trkpt>
      <trkpt lat="45.451708" lon="1.783067">
        <ele>581</ele>
        <time>2023-05-07T09:07:09Z</time>
      </trkpt>
      <trkpt lat="45.451684" lon="1.783091">
        <ele>581</ele>
        <time>2023-05-07T09:07:10Z</time>
      </trkpt>
      <trkpt lat="45.451662" lon="1.783119">
        <ele>581</ele>
        <time>2023-05-07T09:07:11Z</time>
      </trkpt>
      <trkpt lat="45.451640" lon="1.783147">
        <ele>581</ele>
        <time>2023-05-07T09:07:12Z</time>
      </trkpt>
      <trkpt lat="45.451621" lon="1.783179">
        <ele>581</ele>
        <time>2023-05-07T09:07:13Z</time>
      </trkpt>
      <trkpt lat="45.451602" lon="1.783211">
        <ele>581</ele>
        <time>2023-05-07T09:07:14Z</time>
      </trkpt>
      <trkpt lat="45.451587" lon="1.783246">
        <ele>581</ele>
        <time>2023-05-07T09:07:15Z</time>
      </trkpt>
      <trkpt lat="45.451571" lon="1.783280">
        <ele>581</ele>
        <time>2023-05-07T09:07:16Z</time>
      </trkpt>
      <trkpt lat="45.451559" lon="1.783317">
        <ele>581</ele>
        <time>2023-05-07T09:07:17Z</time>
      </trkpt>
      <trkpt lat="45.451547" lon="1.783354">
        <ele>581</ele>
        <time>2023-05-07T09:07:18Z</time>
      </trkpt>
      <trkpt lat="45.451536" lon="1.783393">
        <ele>581</ele>
        <time>2023-05-07T09:07:19Z</time>
      </trkpt>
      <trkpt lat="45.451526" lon="1.783432">
        <ele>581</ele>
        <time>2023-05-07T09:07:20Z</time>
      </trkpt>
      <trkpt lat="45.451516" lon="1.783472">
        <ele>581</ele>
        <time>2023-05-07T09:07:21Z</time>
      </trkpt>
      <trkpt lat="45.451506" lon="1.783511">
        <ele>581</ele>
        <time>2023-05-07T09:07:22Z</time>
      </trkpt>
      <trkpt lat="45.451497" lon="1.783551">
        <ele>581</ele>
        <time>2023-05-07T09:07:23Z</time>
      </trkpt>
      <trkpt lat="45.451487" lon="1.783591">
        <ele>581</ele>
        <time>2023-05-07T09:07:24Z</time>
      </trkpt>
      <trkpt lat="45.451478" lon="1.783629">
        <ele>581</ele>
        <time>2023-05-07T09:07:25Z</time>
      </trkpt>
      <trkpt lat="45.451469" lon="1.783668">
        <ele>581</ele>
        <time>2023-05-07T09:07:26Z</time>
      </trkpt>
      <trkpt lat="45.451460" lon="1.783707">
        <ele>581</ele>
        <time>2023-05-07T09:07:27Z</time>
      </trkpt>
      <trkpt lat="45.451452" lon="1.783745">
        <ele>581</ele>
        <time>2023-05-07T09:07:28Z</time>
      </trkpt>
      <trkpt lat="45.451443" lon="1.783782">
        <ele>581</ele>
        <time>2023-05-07T09:07:29Z</time>
      </trkpt>
      <trkpt lat="45.451434" lon="1.783819">
        <ele>581</ele>
        <time>2023-05-07T09:07:30Z</time>
      </trkpt>
      <trkpt lat="45.451425" lon="1.783856">
        <ele>581</ele>
        <time>2023-05-07T09:07:31Z</time>
      </trkpt>
      <trkpt lat="45.451416" lon="1.783894">
        <ele>582</ele>
        <time>2023-05-07T09:07:32Z</time>
      </trkpt>
      <trkpt lat="45.451407" lon="1.783932">
        <ele>582</ele>
        <time>2023-05-07T09:07:33Z</time>
      </trkpt>
      <trkpt lat="45.451397" lon="1.783970">
        <ele>582</ele>
        <time>2023-05-07T09:07:34Z</time>
      </trkpt>
      <trkpt lat="45.451388" lon="1.784007">
        <ele>582</ele>
        <time>2023-05-07T09:07:35Z</time>
      </trkpt>
      <trkpt lat="45.451379" lon="1.784045">
        <ele>582</ele>
        <time>2023-05-07T09:07:36Z</time>
      </trkpt>
      <trkpt lat="45.451370" lon="1.784082">
        <ele>582</ele>
        <time>2023-05-07T09:07:37Z</time>
      </trkpt>
      <trkpt lat="45.451361" lon="1.784119">
        <ele>582</ele>
        <time>2023-05-07T09:07:38Z</time>
      </trkpt>
      <trkpt lat="45.451351" lon="1.784157">
        <ele>582</ele>
        <time>2023-05-07T09:07:39Z</time>
      </trkpt>
      <trkpt lat="45.451341" lon="1.784196">
        <ele>582</ele>
        <time>2023-05-07T09:07:40Z</time>
      </trkpt>
      <trkpt lat="45.451331" lon="1.784235">
        <ele>582</ele>
        <time>2023-05-07T09:07:41Z</time>
      </trkpt>
      <trkpt lat="45.451321" lon="1.784274">
        <ele>582</ele>
        <time>2023-05-07T09:07:42Z</time>
      </trkpt>
      <trkpt lat="45.451311" lon="1.784312">
        <ele>582</ele>
        <time>2023-05-07T09:07:43Z</time>
      </trkpt>
      <trkpt lat="45.451302" lon="1.784350">
        <ele>582</ele>
        <time>2023-05-07T09:07:44Z</time>
      </trkpt>
      <trkpt lat="45.451294" lon="1.784388">
        <ele>582</ele>
        <time>2023-05-07T09:07:45Z</time>
      </trkpt>
      <trkpt lat="45.451285" lon="1.784425">
        <ele>582</ele>
        <time>2023-05-07T09:07:46Z</time>
      </trkpt>
      <trkpt lat="45.451277" lon="1.784461">
        <ele>583</ele>
        <time>2023-05-07T09:07:47Z</time>
      </trkpt>
      <trkpt lat="45.451268" lon="1.784498">
        <ele>583</ele>
        <time>2023-05-07T09:07:48Z</time>
      </trkpt>
      <trkpt lat="45.451259" lon="1.784535">
        <ele>583</ele>
        <time>2023-05-07T09:07:49Z</time>
      </trkpt>
      <trkpt lat="45.451250" lon="1.784573">
        <ele>583</ele>
        <time>2023-05-07T09:07:50Z</time>
      </trkpt>
      <trkpt lat="45.451241" lon="1.784611">
        <ele>583</ele>
        <time>2023-05-07T09:07:51Z</time>
      </trkpt>
      <trkpt lat="45.451233" lon="1.784649">
        <ele>583</ele>
        <time>2023-05-07T09:07:52Z</time>
      </trkpt>
      <trkpt lat="45.451223" lon="1.784688">
        <ele>583</ele>
        <time>2023-05-07T09:07:53Z</time>
      </trkpt>
      <trkpt lat="45.451214" lon="1.784727">
        <ele>583</ele>
        <time>2023-05-07T09:07:54Z</time>
      </trkpt>
      <trkpt lat="45.451204" lon="1.784766">
        <ele>583</ele>
        <time>2023-05-07T09:07:55Z</time>
      </trkpt>
      <trkpt lat="45.451194" lon="1.784804">
        <ele>583</ele>
        <time>2023-05-07T09:07:56Z</time>
      </trkpt>
      <trkpt lat="45.451184" lon="1.784842">
        <ele>583</ele>
        <time>2023-05-07T09:07:57Z</time>
      </trkpt>
      <trkpt lat="45.451175" lon="1.784880">
        <ele>583</ele>
        <time>2023-05-07T09:07:58Z</time>
      </trkpt>
      <trkpt lat="45.451165" lon="1.784919">
        <ele>583</ele>
        <time>2023-05-07T09:07:59Z</time>
      </trkpt>
      <trkpt lat="45.451155" lon="1.784959">
        <ele>583</ele>
        <time>2023-05-07T09:08:00Z</time>
      </trkpt>
      <trkpt lat="45.451143" lon="1.784995">
        <ele>583</ele>
        <time>2023-05-07T09:08:01Z</time>
      </trkpt>
      <trkpt lat="45.451132" lon="1.785030">
        <ele>584</ele>
        <time>2023-05-07T09:08:02Z</time>
      </trkpt>
      <trkpt lat="45.451118" lon="1.785065">
        <ele>584</ele>
        <time>2023-05-07T09:08:03Z</time>
      </trkpt>
      <trkpt lat="45.451105" lon="1.785099">
        <ele>584</ele>
        <time>2023-05-07T09:08:04Z</time>
      </trkpt>
      <trkpt lat="45.451090" lon="1.785132">
        <ele>584</ele>
        <time>2023-05-07T09:08:05Z</time>
      </trkpt>
      <trkpt lat="45.451076" lon="1.785164">
        <ele>584</ele>
        <time>2023-05-07T09:08:06Z</time>
      </trkpt>
      <trkpt lat="45.451059" lon="1.785195">
        <ele>584</ele>
        <time>2023-05-07T09:08:07Z</time>
      </trkpt>
      <trkpt lat="45.451043" lon="1.785227">
        <ele>584</ele>
        <time>2023-05-07T09:08:08Z</time>
      </trkpt>
      <trkpt lat="45.451026" lon="1.785257">
        <ele>584</ele>
        <time>2023-05-07T09:08:09Z</time>
      </trkpt>
      <trkpt lat="45.451008" lon="1.785287">
        <ele>584</ele>
        <time>2023-05-07T09:08:10Z</time>
      </trkpt>
      <trkpt lat="45.450990" lon="1.785314">
        <ele>584</ele>
        <time>2023-05-07T09:08:11Z</time>
      </trkpt>
      <trkpt lat="45.450972" lon="1.785343">
        <ele>584</ele>
        <time>2023-05-07T09:08:12Z</time>
      </trkpt>
      <trkpt lat="45.450952" lon="1.785367">
        <ele>584</ele>
        <time>2023-05-07T09:08:13Z</time>
      </trkpt>
      <trkpt lat="45.450932" lon="1.785392">
        <ele>584</ele>
        <time>2023-05-07T09:08:14Z</time>
      </trkpt>
      <trkpt lat="45.450911" lon="1.785414">
        <ele>584</ele>
        <time>2023-05-07T09:08:15Z</time>
      </trkpt>
      <trkpt lat="45.450890" lon="1.785436">
        <ele>584</ele>
        <time>2023-05-07T09:08:16Z</time>
      </trkpt>
      <trkpt lat="45.450867" lon="1.785455">
        <ele>585</ele>
        <time>2023-05-07T09:08:17Z</time>
      </trkpt>
      <trkpt lat="45.450845" lon="1.785475">
        <ele>585</ele>
        <time>2023-05-07T09:08:18Z</time>
      </trkpt>
      <trkpt lat="45.450821" lon="1.785493">
        <ele>585</ele>
        <time>2023-05-07T09:08:19Z</time>
      </trkpt>
      <trkpt lat="45.450797" lon="1.785512">
        <ele>585</ele>
        <time>2023-05-07T09:08:20Z</time>
      </trkpt>
      <trkpt lat="45.450773" lon="1.785531">
        <ele>585</ele>
        <time>2023-05-07T09:08:21Z</time>
      </trkpt>
      <trkpt lat="45.450748" lon="1.785550">
        <ele>585</ele>
        <time>2023-05-07T09:08:22Z</time>
      </trkpt>
      <trkpt lat="45.450723" lon="1.785570">
        <ele>585</ele>
        <time>2023-05-07T09:08:23Z</time>
      </trkpt>
      <trkpt lat="45.450698" lon="1.785590">
        <ele>585</ele>
        <time>2023-05-07T09:08:24Z</time>
      </trkpt>
      <trkpt lat="45.450674" lon="1.785611">
        <ele>585</ele>
        <time>2023-05-07T09:08:25Z</time>
      </trkpt>
      <trkpt lat="45.450649" lon="1.785632">
        <ele>585</ele>
        <time>2023-05-07T09:08:26Z</time>
      </trkpt>
      <trkpt lat="45.450627" lon="1.785651">
        <ele>586</ele>
        <time>2023-05-07T09:08:27Z</time>
      </trkpt>
      <trkpt lat="45.450604" lon="1.785670">
        <ele>586</ele>
        <time>2023-05-07T09:08:28Z</time>
      </trkpt>
      <trkpt lat="45.450582" lon="1.785689">
        <ele>586</ele>
        <time>2023-05-07T09:08:29Z</time>
      </trkpt>
      <trkpt lat="45.450561" lon="1.785708">
        <ele>586</ele>
        <time>2023-05-07T09:08:30Z</time>
      </trkpt>
      <trkpt lat="45.450540" lon="1.785727">
        <ele>586</ele>
        <time>2023-05-07T09:08:31Z</time>
      </trkpt>
      <trkpt lat="45.450517" lon="1.785745">
        <ele>586</ele>
        <time>2023-05-07T09:08:32Z</time>
      </trkpt>
      <trkpt lat="45.450495" lon="1.785762">
        <ele>586</ele>
        <time>2023-05-07T09:08:33Z</time>
      </trkpt>
      <trkpt lat="45.450473" lon="1.785778">
        <ele>586</ele>
        <time>2023-05-07T09:08:34Z</time>
      </trkpt>
      <trkpt lat="45.450451" lon="1.785794">
        <ele>586</ele>
        <time>2023-05-07T09:08:35Z</time>
      </trkpt>
      <trkpt lat="45.450431" lon="1.785812">
        <ele>586</ele>
        <time>2023-05-07T09:08:36Z</time>
      </trkpt>
      <trkpt lat="45.450410" lon="1.785829">
        <ele>587</ele>
        <time>2023-05-07T09:08:37Z</time>
      </trkpt>
      <trkpt lat="45.450388" lon="1.785848">
        <ele>587</ele>
        <time>2023-05-07T09:08:38Z</time>
      </trkpt>
      <trkpt lat="45.450367" lon="1.785868">
        <ele>587</ele>
        <time>2023-05-07T09:08:39Z</time>
      </trkpt>
      <trkpt lat="45.450345" lon="1.785886">
        <ele>587</ele>
        <time>2023-05-07T09:08:40Z</time>
      </trkpt>
      <trkpt lat="45.450323" lon="1.785905">
        <ele>587</ele>
        <time>2023-05-07T09:08:41Z</time>
      </trkpt>
      <trkpt lat="45.450302" lon="1.785923">
        <ele>587</ele>
        <time>2023-05-07T09:08:42Z</time>
      </trkpt>
      <trkpt lat="45.450280" lon="1.785942">
        <ele>587</ele>
        <time>2023-05-07T09:08:43Z</time>
      </trkpt>
      <trkpt lat="45.450260" lon="1.785959">
        <ele>587</ele>
        <time>2023-05-07T09:08:44Z</time>
      </trkpt>
      <trkpt lat="45.450239" lon="1.785976">
        <ele>587</ele>
        <time>2023-05-07T09:08:45Z</time>
      </trkpt>
      <trkpt lat="45.450218" lon="1.785993">
        <ele>587</ele>
        <time>2023-05-07T09:08:46Z</time>
      </trkpt>
      <trkpt lat="45.450197" lon="1.786010">
        <ele>588</ele>
        <time>2023-05-07T09:08:47Z</time>
      </trkpt>
      <trkpt lat="45.450174" lon="1.786030">
        <ele>588</ele>
        <time>2023-05-07T09:08:48Z</time>
      </trkpt>
      <trkpt lat="45.450151" lon="1.786050">
        <ele>588</ele>
        <time>2023-05-07T09:08:49Z</time>
      </trkpt>
      <trkpt lat="45.450127" lon="1.786073">
        <ele>588</ele>
        <time>2023-05-07T09:08:50Z</time>
      </trkpt>
      <trkpt lat="45.450103" lon="1.786096">
        <ele>588</ele>
        <time>2023-05-07T09:08:51Z</time>
      </trkpt>
      <trkpt lat="45.450078" lon="1.786119">
        <ele>588</ele>
        <time>2023-05-07T09:08:52Z</time>
      </trkpt>
      <trkpt lat="45.450054" lon="1.786143">
        <ele>588</ele>
        <time>2023-05-07T09:08:53Z</time>
      </trkpt>
      <trkpt lat="45.450032" lon="1.786166">
        <ele>588</ele>
        <time>2023-05-07T09:08:54Z</time>
      </trkpt>
      <trkpt lat="45.450009" lon="1.786190">
        <ele>588</ele>
        <time>2023-05-07T09:08:55Z</time>
      </trkpt>
      <trkpt lat="45.449988" lon="1.786215">
        <ele>588</ele>
        <time>2023-05-07T09:08:56Z</time>
      </trkpt>
      <trkpt lat="45.449967" lon="1.786239">
        <ele>589</ele>
        <time>2023-05-07T09:08:57Z</time>
      </trkpt>
      <trkpt lat="45.449946" lon="1.786266">
        <ele>589</ele>
        <time>2023-05-07T09:08:58Z</time>
      </trkpt>
      <trkpt lat="45.449926" lon="1.786293">
        <ele>589</ele>
        <time>2023-05-07T09:08:59Z</time>
      </trkpt>
      <trkpt lat="45.449906" lon="1.786324">
        <ele>589</ele>
        <time>2023-05-07T09:09:00Z</time>
      </trkpt>
      <trkpt lat="45.449887" lon="1.786354">
        <ele>589</ele>
        <time>2023-05-07T09:09:01Z</time>
      </trkpt>
      <trkpt lat="45.449867" lon="1.786385">
        <ele>590</ele>
        <time>2023-05-07T09:09:02Z</time>
      </trkpt>
      <trkpt lat="45.449848" lon="1.786417">
        <ele>590</ele>
        <time>2023-05-07T09:09:03Z</time>
      </trkpt>
      <trkpt lat="45.449830" lon="1.786450">
        <ele>590</ele>
        <time>2023-05-07T09:09:04Z</time>
      </trkpt>
      <trkpt lat="45.449811" lon="1.786483">
        <ele>590</ele>
        <time>2023-05-07T09:09:05Z</time>
      </trkpt>
      <trkpt lat="45.449793" lon="1.786515">
        <ele>590</ele>
        <time>2023-05-07T09:09:06Z</time>
      </trkpt>
      <trkpt lat="45.449775" lon="1.786548">
        <ele>590</ele>
        <time>2023-05-07T09:09:07Z</time>
      </trkpt>
      <trkpt lat="45.449758" lon="1.786580">
        <ele>590</ele>
        <time>2023-05-07T09:09:08Z</time>
      </trkpt>
      <trkpt lat="45.449741" lon="1.786612">
        <ele>590</ele>
        <time>2023-05-07T09:09:09Z</time>
      </trkpt>
      <trkpt lat="45.449725" lon="1.786642">
        <ele>590</ele>
        <time>2023-05-07T09:09:10Z</time>
      </trkpt>
      <trkpt lat="45.449710" lon="1.786673">
        <ele>590</ele>
        <time>2023-05-07T09:09:11Z</time>
      </trkpt>
      <trkpt lat="45.449694" lon="1.786706">
        <ele>591</ele>
        <time>2023-05-07T09:09:12Z</time>
      </trkpt>
      <trkpt lat="45.449679" lon="1.786739">
        <ele>591</ele>
        <time>2023-05-07T09:09:13Z</time>
      </trkpt>
      <trkpt lat="45.449666" lon="1.786772">
        <ele>591</ele>
        <time>2023-05-07T09:09:14Z</time>
      </trkpt>
      <trkpt lat="45.449653" lon="1.786806">
        <ele>591</ele>
        <time>2023-05-07T09:09:15Z</time>
      </trkpt>
      <trkpt lat="45.449643" lon="1.786833">
        <ele>591</ele>
        <time>2023-05-07T09:09:16Z</time>
      </trkpt>
      <trkpt lat="45.449633" lon="1.786860">
        <ele>592</ele>
        <time>2023-05-07T09:09:17Z</time>
      </trkpt>
      <trkpt lat="45.449633" lon="1.786865">
        <ele>593</ele>
        <time>2023-05-07T09:11:41Z</time>
      </trkpt>
      <trkpt lat="45.449632" lon="1.786871">
        <ele>593</ele>
        <time>2023-05-07T09:11:42Z</time>
      </trkpt>
      <trkpt lat="45.449631" lon="1.786876">
        <ele>593</ele>
        <time>2023-05-07T09:11:43Z</time>
      </trkpt>
      <trkpt lat="45.449630" lon="1.786887">
        <ele>593</ele>
        <time>2023-05-07T09:11:44Z</time>
      </trkpt>
      <trkpt lat="45.449629" lon="1.786898">
        <ele>593</ele>
        <time>2023-05-07T09:11:45Z</time>
      </trkpt>
      <trkpt lat="45.449629" lon="1.786915">
        <ele>593</ele>
        <time>2023-05-07T09:11:46Z</time>
      </trkpt>
      <trkpt lat="45.449629" lon="1.786933">
        <ele>593</ele>
        <time>2023-05-07T09:11:47Z</time>
      </trkpt>
      <trkpt lat="45.449630" lon="1.786949">
        <ele>593</ele>
        <time>2023-05-07T09:11:48Z</time>
      </trkpt>
      <trkpt lat="45.449632" lon="1.786966">
        <ele>593</ele>
        <time>2023-05-07T09:11:49Z</time>
      </trkpt>
      <trkpt lat="45.449636" lon="1.786976">
        <ele>593</ele>
        <time>2023-05-07T09:12:07Z</time>
      </trkpt>
      <trkpt lat="45.449639" lon="1.786982">
        <ele>593</ele>
        <time>2023-05-07T09:12:08Z</time>
      </trkpt>
      <trkpt lat="45.449643" lon="1.786988">
        <ele>593</ele>
        <time>2023-05-07T09:12:09Z</time>
      </trkpt>
      <trkpt lat="45.449649" lon="1.786995">
        <ele>593</ele>
        <time>2023-05-07T09:12:10Z</time>
      </trkpt>
      <trkpt lat="45.449656" lon="1.787001">
        <ele>593</ele>
        <time>2023-05-07T09:12:11Z</time>
      </trkpt>
      <trkpt lat="45.449666" lon="1.787003">
        <ele>593</ele>
        <time>2023-05-07T09:12:12Z</time>
      </trkpt>
      <trkpt lat="45.449677" lon="1.787006">
        <ele>593</ele>
        <time>2023-05-07T09:12:13Z</time>
      </trkpt>
      <trkpt lat="45.449689" lon="1.786998">
        <ele>593</ele>
        <time>2023-05-07T09:12:14Z</time>
      </trkpt>
      <trkpt lat="45.449701" lon="1.786990">
        <ele>593</ele>
        <time>2023-05-07T09:12:15Z</time>
      </trkpt>
      <trkpt lat="45.449713" lon="1.786975">
        <ele>593</ele>
        <time>2023-05-07T09:12:16Z</time>
      </trkpt>
      <trkpt lat="45.449725" lon="1.786959">
        <ele>593</ele>
        <time>2023-05-07T09:12:17Z</time>
      </trkpt>
      <trkpt lat="45.449739" lon="1.786941">
        <ele>593</ele>
        <time>2023-05-07T09:12:18Z</time>
      </trkpt>
      <trkpt lat="45.449752" lon="1.786922">
        <ele>593</ele>
        <time>2023-05-07T09:12:19Z</time>
      </trkpt>
      <trkpt lat="45.449765" lon="1.786901">
        <ele>593</ele>
        <time>2023-05-07T09:12:20Z</time>
      </trkpt>
      <trkpt lat="45.449779" lon="1.786880">
        <ele>593</ele>
        <time>2023-05-07T09:12:21Z</time>
      </trkpt>
      <trkpt lat="45.449793" lon="1.786858">
        <ele>593</ele>
        <time>2023-05-07T09:12:22Z</time>
      </trkpt>
      <trkpt lat="45.449806" lon="1.786837">
        <ele>593</ele>
        <time>2023-05-07T09:12:23Z</time>
      </trkpt>
      <trkpt lat="45.449821" lon="1.786817">
        <ele>593</ele>
        <time>2023-05-07T09:12:24Z</time>
      </trkpt>
      <trkpt lat="45.449837" lon="1.786796">
        <ele>593</ele>
        <time>2023-05-07T09:12:25Z</time>
      </trkpt>
      <trkpt lat="45.449853" lon="1.786778">
        <ele>593</ele>
        <time>2023-05-07T09:12:26Z</time>
      </trkpt>
      <trkpt lat="45.449869" lon="1.786761">
        <ele>593</ele>
        <time>2023-05-07T09:12:27Z</time>
      </trkpt>
      <trkpt lat="45.449884" lon="1.786747">
        <ele>593</ele>
        <time>2023-05-07T09:12:28Z</time>
      </trkpt>
      <trkpt lat="45.449899" lon="1.786734">
        <ele>593</ele>
        <time>2023-05-07T09:12:29Z</time>
      </trkpt>
      <trkpt lat="45.449912" lon="1.786719">
        <ele>593</ele>
        <time>2023-05-07T09:12:30Z</time>
      </trkpt>
      <trkpt lat="45.449925" lon="1.786705">
        <ele>593</ele>
        <time>2023-05-07T09:12:31Z</time>
      </trkpt>
      <trkpt lat="45.449940" lon="1.786689">
        <ele>594</ele>
        <time>2023-05-07T09:12:32Z</time>
      </trkpt>
      <trkpt lat="45.449954" lon="1.786673">
        <ele>594</ele>
        <time>2023-05-07T09:12:33Z</time>
      </trkpt>
      <trkpt lat="45.449971" lon="1.786659">
        <ele>594</ele>
        <time>2023-05-07T09:12:34Z</time>
      </trkpt>
      <trkpt lat="45.449988" lon="1.786644">
        <ele>594</ele>
        <time>2023-05-07T09:12:35Z</time>
      </trkpt>
      <trkpt lat="45.450007" lon="1.786631">
        <ele>594</ele>
        <time>2023-05-07T09:12:36Z</time>
      </trkpt>
      <trkpt lat="45.450026" lon="1.786619">
        <ele>594</ele>
        <time>2023-05-07T09:12:37Z</time>
      </trkpt>
      <trkpt lat="45.450046" lon="1.786607">
        <ele>594</ele>
        <time>2023-05-07T09:12:38Z</time>
      </trkpt>
      <trkpt lat="45.450065" lon="1.786596">
        <ele>594</ele>
        <time>2023-05-07T09:12:39Z</time>
      </trkpt>
      <trkpt lat="45.450086" lon="1.786586">
        <ele>594</ele>
        <time>2023-05-07T09:12:40Z</time>
      </trkpt>
      <trkpt lat="45.450107" lon="1.786576">
        <ele>594</ele>
        <time>2023-05-07T09:12:41Z</time>
      </trkpt>
      <trkpt lat="45.450128" lon="1.786566">
        <ele>595</ele>
        <time>2023-05-07T09:12:42Z</time>
      </trkpt>
      <trkpt lat="45.450150" lon="1.786557">
        <ele>595</ele>
        <time>2023-05-07T09:12:43Z</time>
      </trkpt>
      <trkpt lat="45.450170" lon="1.786548">
        <ele>595</ele>
        <time>2023-05-07T09:12:44Z</time>
      </trkpt>
      <trkpt lat="45.450190" lon="1.786540">
        <ele>595</ele>
        <time>2023-05-07T09:12:45Z</time>
      </trkpt>
      <trkpt lat="45.450208" lon="1.786534">
        <ele>595</ele>
        <time>2023-05-07T09:12:46Z</time>
      </trkpt>
      <trkpt lat="45.450227" lon="1.786528">
        <ele>595</ele>
        <time>2023-05-07T09:12:47Z</time>
      </trkpt>
      <trkpt lat="45.450246" lon="1.786525">
        <ele>595</ele>
        <time>2023-05-07T09:12:48Z</time>
      </trkpt>
      <trkpt lat="45.450265" lon="1.786522">
        <ele>595</ele>
        <time>2023-05-07T09:12:49Z</time>
      </trkpt>
      <trkpt lat="45.450286" lon="1.786519">
        <ele>595</ele>
        <time>2023-05-07T09:12:50Z</time>
      </trkpt>
      <trkpt lat="45.450307" lon="1.786517">
        <ele>595</ele>
        <time>2023-05-07T09:12:51Z</time>
      </trkpt>
      <trkpt lat="45.450330" lon="1.786514">
        <ele>595</ele>
        <time>2023-05-07T09:12:52Z</time>
      </trkpt>
      <trkpt lat="45.450353" lon="1.786512">
        <ele>595</ele>
        <time>2023-05-07T09:12:53Z</time>
      </trkpt>
      <trkpt lat="45.450375" lon="1.786508">
        <ele>595</ele>
        <time>2023-05-07T09:12:54Z</time>
      </trkpt>
      <trkpt lat="45.450398" lon="1.786504">
        <ele>595</ele>
        <time>2023-05-07T09:12:55Z</time>
      </trkpt>
      <trkpt lat="45.450421" lon="1.786499">
        <ele>595</ele>
        <time>2023-05-07T09:12:56Z</time>
      </trkpt>
      <trkpt lat="45.450443" lon="1.786493">
        <ele>596</ele>
        <time>2023-05-07T09:12:57Z</time>
      </trkpt>
      <trkpt lat="45.450467" lon="1.786487">
        <ele>596</ele>
        <time>2023-05-07T09:12:58Z</time>
      </trkpt>
      <trkpt lat="45.450490" lon="1.786481">
        <ele>596</ele>
        <time>2023-05-07T09:12:59Z</time>
      </trkpt>
      <trkpt lat="45.450513" lon="1.786475">
        <ele>596</ele>
        <time>2023-05-07T09:13:00Z</time>
      </trkpt>
      <trkpt lat="45.450536" lon="1.786469">
        <ele>596</ele>
        <time>2023-05-07T09:13:01Z</time>
      </trkpt>
      <trkpt lat="45.450559" lon="1.786465">
        <ele>597</ele>
        <time>2023-05-07T09:13:02Z</time>
      </trkpt>
      <trkpt lat="45.450582" lon="1.786461">
        <ele>597</ele>
        <time>2023-05-07T09:13:03Z</time>
      </trkpt>
      <trkpt lat="45.450604" lon="1.786459">
        <ele>597</ele>
        <time>2023-05-07T09:13:04Z</time>
      </trkpt>
      <trkpt lat="45.450627" lon="1.786458">
        <ele>597</ele>
        <time>2023-05-07T09:13:05Z</time>
      </trkpt>
      <trkpt lat="45.450651" lon="1.786456">
        <ele>597</ele>
        <time>2023-05-07T09:13:06Z</time>
      </trkpt>
      <trkpt lat="45.450676" lon="1.786455">
        <ele>597</ele>
        <time>2023-05-07T09:13:07Z</time>
      </trkpt>
      <trkpt lat="45.450702" lon="1.786455">
        <ele>597</ele>
        <time>2023-05-07T09:13:08Z</time>
      </trkpt>
      <trkpt lat="45.450729" lon="1.786454">
        <ele>597</ele>
        <time>2023-05-07T09:13:09Z</time>
      </trkpt>
      <trkpt lat="45.450756" lon="1.786456">
        <ele>597</ele>
        <time>2023-05-07T09:13:10Z</time>
      </trkpt>
      <trkpt lat="45.450783" lon="1.786458">
        <ele>597</ele>
        <time>2023-05-07T09:13:11Z</time>
      </trkpt>
      <trkpt lat="45.450810" lon="1.786460">
        <ele>598</ele>
        <time>2023-05-07T09:13:12Z</time>
      </trkpt>
      <trkpt lat="45.450837" lon="1.786462">
        <ele>598</ele>
        <time>2023-05-07T09:13:13Z</time>
      </trkpt>
      <trkpt lat="45.450865" lon="1.786464">
        <ele>598</ele>
        <time>2023-05-07T09:13:14Z</time>
      </trkpt>
      <trkpt lat="45.450894" lon="1.786466">
        <ele>598</ele>
        <time>2023-05-07T09:13:15Z</time>
      </trkpt>
      <trkpt lat="45.450922" lon="1.786466">
        <ele>598</ele>
        <time>2023-05-07T09:13:16Z</time>
      </trkpt>
      <trkpt lat="45.450950" lon="1.786466">
        <ele>599</ele>
        <time>2023-05-07T09:13:17Z</time>
      </trkpt>
      <trkpt lat="45.450975" lon="1.786464">
        <ele>599</ele>
        <time>2023-05-07T09:13:18Z</time>
      </trkpt>
      <trkpt lat="45.451000" lon="1.786462">
        <ele>599</ele>
        <time>2023-05-07T09:13:19Z</time>
      </trkpt>
      <trkpt lat="45.451023" lon="1.786460">
        <ele>599</ele>
        <time>2023-05-07T09:13:20Z</time>
      </trkpt>
      <trkpt lat="45.451045" lon="1.786458">
        <ele>599</ele>
        <time>2023-05-07T09:13:21Z</time>
      </trkpt>
      <trkpt lat="45.451067" lon="1.786456">
        <ele>599</ele>
        <time>2023-05-07T09:13:22Z</time>
      </trkpt>
      <trkpt lat="45.451088" lon="1.786456">
        <ele>599</ele>
        <time>2023-05-07T09:13:23Z</time>
      </trkpt>
      <trkpt lat="45.451108" lon="1.786454">
        <ele>599</ele>
        <time>2023-05-07T09:13:24Z</time>
      </trkpt>
      <trkpt lat="45.451129" lon="1.786453">
        <ele>599</ele>
        <time>2023-05-07T09:13:25Z</time>
      </trkpt>
      <trkpt lat="45.451150" lon="1.786453">
        <ele>599</ele>
        <time>2023-05-07T09:13:26Z</time>
      </trkpt>
      <trkpt lat="45.451171" lon="1.786454">
        <ele>600</ele>
        <time>2023-05-07T09:13:27Z</time>
      </trkpt>
      <trkpt lat="45.451193" lon="1.786457">
        <ele>600</ele>
        <time>2023-05-07T09:13:28Z</time>
      </trkpt>
      <trkpt lat="45.451216" lon="1.786460">
        <ele>600</ele>
        <time>2023-05-07T09:13:29Z</time>
      </trkpt>
      <trkpt lat="45.451239" lon="1.786464">
        <ele>600</ele>
        <time>2023-05-07T09:13:30Z</time>
      </trkpt>
      <trkpt lat="45.451262" lon="1.786469">
        <ele>600</ele>
        <time>2023-05-07T09:13:31Z</time>
      </trkpt>
      <trkpt lat="45.451286" lon="1.786474">
        <ele>600</ele>
        <time>2023-05-07T09:13:32Z</time>
      </trkpt>
      <trkpt lat="45.451310" lon="1.786478">
        <ele>600</ele>
        <time>2023-05-07T09:13:33Z</time>
      </trkpt>
      <trkpt lat="45.451335" lon="1.786484">
        <ele>600</ele>
        <time>2023-05-07T09:13:34Z</time>
      </trkpt>
      <trkpt lat="45.451360" lon="1.786489">
        <ele>600</ele>
        <time>2023-05-07T09:13:35Z</time>
      </trkpt>
      <trkpt lat="45.451384" lon="1.786495">
        <ele>600</ele>
        <time>2023-05-07T09:13:36Z</time>
      </trkpt>
      <trkpt lat="45.451408" lon="1.786501">
        <ele>601</ele>
        <time>2023-05-07T09:13:37Z</time>
      </trkpt>
      <trkpt lat="45.451432" lon="1.786508">
        <ele>601</ele>
        <time>2023-05-07T09:13:38Z</time>
      </trkpt>
      <trkpt lat="45.451455" lon="1.786515">
        <ele>601</ele>
        <time>2023-05-07T09:13:39Z</time>
      </trkpt>
      <trkpt lat="45.451479" lon="1.786523">
        <ele>601</ele>
        <time>2023-05-07T09:13:40Z</time>
      </trkpt>
      <trkpt lat="45.451504" lon="1.786531">
        <ele>601</ele>
        <time>2023-05-07T09:13:41Z</time>
      </trkpt>
      <trkpt lat="45.451528" lon="1.786536">
        <ele>601</ele>
        <time>2023-05-07T09:13:42Z</time>
      </trkpt>
      <trkpt lat="45.451552" lon="1.786542">
        <ele>601</ele>
        <time>2023-05-07T09:13:43Z</time>
      </trkpt>
      <trkpt lat="45.451575" lon="1.786547">
        <ele>601</ele>
        <time>2023-05-07T09:13:44Z</time>
      </trkpt>
      <trkpt lat="45.451598" lon="1.786553">
        <ele>601</ele>
        <time>2023-05-07T09:13:45Z</time>
      </trkpt>
      <trkpt lat="45.451621" lon="1.786559">
        <ele>601</ele>
        <time>2023-05-07T09:13:46Z</time>
      </trkpt>
      <trkpt lat="45.451643" lon="1.786565">
        <ele>602</ele>
        <time>2023-05-07T09:13:47Z</time>
      </trkpt>
      <trkpt lat="45.451665" lon="1.786573">
        <ele>602</ele>
        <time>2023-05-07T09:13:48Z</time>
      </trkpt>
      <trkpt lat="45.451687" lon="1.786581">
        <ele>602</ele>
        <time>2023-05-07T09:13:49Z</time>
      </trkpt>
      <trkpt lat="45.451707" lon="1.786590">
        <ele>602</ele>
        <time>2023-05-07T09:13:50Z</time>
      </trkpt>
      <trkpt lat="45.451728" lon="1.786599">
        <ele>602</ele>
        <time>2023-05-07T09:13:51Z</time>
      </trkpt>
      <trkpt lat="45.451749" lon="1.786610">
        <ele>603</ele>
        <time>2023-05-07T09:13:52Z</time>
      </trkpt>
      <trkpt lat="45.451769" lon="1.786621">
        <ele>603</ele>
        <time>2023-05-07T09:13:53Z</time>
      </trkpt>
      <trkpt lat="45.451790" lon="1.786631">
        <ele>603</ele>
        <time>2023-05-07T09:13:54Z</time>
      </trkpt>
      <trkpt lat="45.451811" lon="1.786642">
        <ele>603</ele>
        <time>2023-05-07T09:13:55Z</time>
      </trkpt>
      <trkpt lat="45.451831" lon="1.786652">
        <ele>603</ele>
        <time>2023-05-07T09:13:56Z</time>
      </trkpt>
      <trkpt lat="45.451852" lon="1.786662">
        <ele>603</ele>
        <time>2023-05-07T09:13:57Z</time>
      </trkpt>
      <trkpt lat="45.451872" lon="1.786673">
        <ele>603</ele>
        <time>2023-05-07T09:13:58Z</time>
      </trkpt>
      <trkpt lat="45.451892" lon="1.786683">
        <ele>603</ele>
        <time>2023-05-07T09:13:59Z</time>
      </trkpt>
      <trkpt lat="45.451912" lon="1.786693">
        <ele>603</ele>
        <time>2023-05-07T09:14:00Z</time>
      </trkpt>
      <trkpt lat="45.451932" lon="1.786703">
        <ele>603</ele>
        <time>2023-05-07T09:14:01Z</time>
      </trkpt>
      <trkpt lat="45.451951" lon="1.786714">
        <ele>604</ele>
        <time>2023-05-07T09:14:02Z</time>
      </trkpt>
      <trkpt lat="45.451969" lon="1.786725">
        <ele>604</ele>
        <time>2023-05-07T09:14:03Z</time>
      </trkpt>
      <trkpt lat="45.451987" lon="1.786736">
        <ele>604</ele>
        <time>2023-05-07T09:14:04Z</time>
      </trkpt>
      <trkpt lat="45.452004" lon="1.786747">
        <ele>604</ele>
        <time>2023-05-07T09:14:05Z</time>
      </trkpt>
      <trkpt lat="45.452021" lon="1.786759">
        <ele>604</ele>
        <time>2023-05-07T09:14:06Z</time>
      </trkpt>
      <trkpt lat="45.452038" lon="1.786771">
        <ele>605</ele>
        <time>2023-05-07T09:14:07Z</time>
      </trkpt>
      <trkpt lat="45.452055" lon="1.786781">
        <ele>605</ele>
        <time>2023-05-07T09:14:08Z</time>
      </trkpt>
      <trkpt lat="45.452073" lon="1.786792">
        <ele>605</ele>
        <time>2023-05-07T09:14:09Z</time>
      </trkpt>
      <trkpt lat="45.452093" lon="1.786801">
        <ele>605</ele>
        <time>2023-05-07T09:14:10Z</time>
      </trkpt>
      <trkpt lat="45.452112" lon="1.786811">
        <ele>605</ele>
        <time>2023-05-07T09:14:11Z</time>
      </trkpt>
      <trkpt lat="45.452131" lon="1.786820">
        <ele>605</ele>
        <time>2023-05-07T09:14:12Z</time>
      </trkpt>
      <trkpt lat="45.452150" lon="1.786830">
        <ele>605</ele>
        <time>2023-05-07T09:14:13Z</time>
      </trkpt>
      <trkpt lat="45.452167" lon="1.786841">
        <ele>605</ele>
        <time>2023-05-07T09:14:14Z</time>
      </trkpt>
      <trkpt lat="45.452184" lon="1.786851">
        <ele>605</ele>
        <time>2023-05-07T09:14:15Z</time>
      </trkpt>
      <trkpt lat="45.452200" lon="1.786861">
        <ele>605</ele>
        <time>2023-05-07T09:14:16Z</time>
      </trkpt>
      <trkpt lat="45.452217" lon="1.786871">
        <ele>606</ele>
        <time>2023-05-07T09:14:17Z</time>
      </trkpt>
      <trkpt lat="45.452234" lon="1.786881">
        <ele>606</ele>
        <time>2023-05-07T09:14:18Z</time>
      </trkpt>
      <trkpt lat="45.452251" lon="1.786891">
        <ele>606</ele>
        <time>2023-05-07T09:14:19Z</time>
      </trkpt>
      <trkpt lat="45.452268" lon="1.786901">
        <ele>606</ele>
        <time>2023-05-07T09:14:20Z</time>
      </trkpt>
      <trkpt lat="45.452286" lon="1.786911">
        <ele>606</ele>
        <time>2023-05-07T09:14:21Z</time>
      </trkpt>
      <trkpt lat="45.452302" lon="1.786920">
        <ele>607</ele>
        <time>2023-05-07T09:14:22Z</time>
      </trkpt>
      <trkpt lat="45.452319" lon="1.786930">
        <ele>607</ele>
        <time>2023-05-07T09:14:23Z</time>
      </trkpt>
      <trkpt lat="45.452336" lon="1.786940">
        <ele>607</ele>
        <time>2023-05-07T09:14:24Z</time>
      </trkpt>
      <trkpt lat="45.452352" lon="1.786950">
        <ele>607</ele>
        <time>2023-05-07T09:14:25Z</time>
      </trkpt>
      <trkpt lat="45.452368" lon="1.786961">
        <ele>607</ele>
        <time>2023-05-07T09:14:26Z</time>
      </trkpt>
      <trkpt lat="45.452385" lon="1.786972">
        <ele>607</ele>
        <time>2023-05-07T09:14:27Z</time>
      </trkpt>
      <trkpt lat="45.452400" lon="1.786983">
        <ele>607</ele>
        <time>2023-05-07T09:14:28Z</time>
      </trkpt>
      <trkpt lat="45.452415" lon="1.786995">
        <ele>607</ele>
        <time>2023-05-07T09:14:29Z</time>
      </trkpt>
      <trkpt lat="45.452430" lon="1.787005">
        <ele>607</ele>
        <time>2023-05-07T09:14:30Z</time>
      </trkpt>
      <trkpt lat="45.452446" lon="1.787016">
        <ele>607</ele>
        <time>2023-05-07T09:14:31Z</time>
      </trkpt>
      <trkpt lat="45.452462" lon="1.787027">
        <ele>608</ele>
        <time>2023-05-07T09:14:32Z</time>
      </trkpt>
      <trkpt lat="45.452478" lon="1.787038">
        <ele>608</ele>
        <time>2023-05-07T09:14:33Z</time>
      </trkpt>
      <trkpt lat="45.452494" lon="1.787049">
        <ele>608</ele>
        <time>2023-05-07T09:14:34Z</time>
      </trkpt>
      <trkpt lat="45.452511" lon="1.787061">
        <ele>608</ele>
        <time>2023-05-07T09:14:35Z</time>
      </trkpt>
      <trkpt lat="45.452528" lon="1.787072">
        <ele>608</ele>
        <time>2023-05-07T09:14:36Z</time>
      </trkpt>
      <trkpt lat="45.452545" lon="1.787084">
        <ele>608</ele>
        <time>2023-05-07T09:14:37Z</time>
      </trkpt>
      <trkpt lat="45.452561" lon="1.787096">
        <ele>608</ele>
        <time>2023-05-07T09:14:38Z</time>
      </trkpt>
      <trkpt lat="45.452578" lon="1.787108">
        <ele>608</ele>
        <time>2023-05-07T09:14:39Z</time>
      </trkpt>
      <trkpt lat="45.452595" lon="1.787119">
        <ele>608</ele>
        <time>2023-05-07T09:14:40Z</time>
      </trkpt>
      <trkpt lat="45.452613" lon="1.787130">
        <ele>608</ele>
        <time>2023-05-07T09:14:41Z</time>
      </trkpt>
      <trkpt lat="45.452631" lon="1.787141">
        <ele>609</ele>
        <time>2023-05-07T09:14:42Z</time>
      </trkpt>
      <trkpt lat="45.452650" lon="1.787153">
        <ele>609</ele>
        <time>2023-05-07T09:14:43Z</time>
      </trkpt>
      <trkpt lat="45.452670" lon="1.787167">
        <ele>609</ele>
        <time>2023-05-07T09:14:44Z</time>
      </trkpt>
      <trkpt lat="45.452690" lon="1.787180">
        <ele>609</ele>
        <time>2023-05-07T09:14:45Z</time>
      </trkpt>
      <trkpt lat="45.452710" lon="1.787196">
        <ele>609</ele>
        <time>2023-05-07T09:14:46Z</time>
      </trkpt>
      <trkpt lat="45.452731" lon="1.787211">
        <ele>609</ele>
        <time>2023-05-07T09:14:47Z</time>
      </trkpt>
      <trkpt lat="45.452751" lon="1.787227">
        <ele>609</ele>
        <time>2023-05-07T09:14:48Z</time>
      </trkpt>
      <trkpt lat="45.452772" lon="1.787243">
        <ele>609</ele>
        <time>2023-05-07T09:14:49Z</time>
      </trkpt>
      <trkpt lat="45.452792" lon="1.787259">
        <ele>609</ele>
        <time>2023-05-07T09:14:50Z</time>
      </trkpt>
      <trkpt lat="45.452813" lon="1.787276">
        <ele>609</ele>
        <time>2023-05-07T09:14:51Z</time>
      </trkpt>
      <trkpt lat="45.452833" lon="1.787294">
        <ele>610</ele>
        <time>2023-05-07T09:14:52Z</time>
      </trkpt>
      <trkpt lat="45.452854" lon="1.787311">
        <ele>610</ele>
        <time>2023-05-07T09:14:53Z</time>
      </trkpt>
      <trkpt lat="45.452874" lon="1.787331">
        <ele>610</ele>
        <time>2023-05-07T09:14:54Z</time>
      </trkpt>
      <trkpt lat="45.452894" lon="1.787351">
        <ele>610</ele>
        <time>2023-05-07T09:14:55Z</time>
      </trkpt>
      <trkpt lat="45.452912" lon="1.787371">
        <ele>610</ele>
        <time>2023-05-07T09:14:56Z</time>
      </trkpt>
      <trkpt lat="45.452931" lon="1.787392">
        <ele>611</ele>
        <time>2023-05-07T09:14:57Z</time>
      </trkpt>
      <trkpt lat="45.452949" lon="1.787412">
        <ele>611</ele>
        <time>2023-05-07T09:14:58Z</time>
      </trkpt>
      <trkpt lat="45.452967" lon="1.787432">
        <ele>611</ele>
        <time>2023-05-07T09:14:59Z</time>
      </trkpt>
      <trkpt lat="45.452986" lon="1.787452">
        <ele>611</ele>
        <time>2023-05-07T09:15:00Z</time>
      </trkpt>
      <trkpt lat="45.453004" lon="1.787472">
        <ele>611</ele>
        <time>2023-05-07T09:15:01Z</time>
      </trkpt>
      <trkpt lat="45.453021" lon="1.787492">
        <ele>611</ele>
        <time>2023-05-07T09:15:02Z</time>
      </trkpt>
      <trkpt lat="45.453039" lon="1.787511">
        <ele>611</ele>
        <time>2023-05-07T09:15:03Z</time>
      </trkpt>
      <trkpt lat="45.453057" lon="1.787530">
        <ele>611</ele>
        <time>2023-05-07T09:15:04Z</time>
      </trkpt>
      <trkpt lat="45.453075" lon="1.787548">
        <ele>611</ele>
        <time>2023-05-07T09:15:05Z</time>
      </trkpt>
      <trkpt lat="45.453094" lon="1.787567">
        <ele>611</ele>
        <time>2023-05-07T09:15:06Z</time>
      </trkpt>
      <trkpt lat="45.453113" lon="1.787586">
        <ele>612</ele>
        <time>2023-05-07T09:15:07Z</time>
      </trkpt>
      <trkpt lat="45.453132" lon="1.787604">
        <ele>612</ele>
        <time>2023-05-07T09:15:08Z</time>
      </trkpt>
      <trkpt lat="45.453151" lon="1.787622">
        <ele>612</ele>
        <time>2023-05-07T09:15:09Z</time>
      </trkpt>
      <trkpt lat="45.453170" lon="1.787639">
        <ele>612</ele>
        <time>2023-05-07T09:15:10Z</time>
      </trkpt>
      <trkpt lat="45.453189" lon="1.787656">
        <ele>612</ele>
        <time>2023-05-07T09:15:11Z</time>
      </trkpt>
      <trkpt lat="45.453209" lon="1.787673">
        <ele>613</ele>
        <time>2023-05-07T09:15:12Z</time>
      </trkpt>
      <trkpt lat="45.453230" lon="1.787691">
        <ele>613</ele>
        <time>2023-05-07T09:15:13Z</time>
      </trkpt>
      <trkpt lat="45.453249" lon="1.787709">
        <ele>613</ele>
        <time>2023-05-07T09:15:14Z</time>
      </trkpt>
      <trkpt lat="45.453269" lon="1.787727">
        <ele>613</ele>
        <time>2023-05-07T09:15:15Z</time>
      </trkpt>
      <trkpt lat="45.453287" lon="1.787746">
        <ele>613</ele>
        <time>2023-05-07T09:15:16Z</time>
      </trkpt>
      <trkpt lat="45.453306" lon="1.787766">
        <ele>613</ele>
        <time>2023-05-07T09:15:17Z</time>
      </trkpt>
      <trkpt lat="45.453325" lon="1.787785">
        <ele>613</ele>
        <time>2023-05-07T09:15:18Z</time>
      </trkpt>
      <trkpt lat="45.453343" lon="1.787804">
        <ele>613</ele>
        <time>2023-05-07T09:15:19Z</time>
      </trkpt>
      <trkpt lat="45.453360" lon="1.787823">
        <ele>613</ele>
        <time>2023-05-07T09:15:20Z</time>
      </trkpt>
      <trkpt lat="45.453377" lon="1.787842">
        <ele>613</ele>
        <time>2023-05-07T09:15:21Z</time>
      </trkpt>
      <trkpt lat="45.453394" lon="1.787861">
        <ele>614</ele>
        <time>2023-05-07T09:15:22Z</time>
      </trkpt>
      <trkpt lat="45.453410" lon="1.787880">
        <ele>614</ele>
        <time>2023-05-07T09:15:23Z</time>
      </trkpt>
      <trkpt lat="45.453428" lon="1.787898">
        <ele>614</ele>
        <time>2023-05-07T09:15:24Z</time>
      </trkpt>
      <trkpt lat="45.453446" lon="1.787917">
        <ele>614</ele>
        <time>2023-05-07T09:15:25Z</time>
      </trkpt>
      <trkpt lat="45.453465" lon="1.787934">
        <ele>614</ele>
        <time>2023-05-07T09:15:26Z</time>
      </trkpt>
      <trkpt lat="45.453483" lon="1.787951">
        <ele>615</ele>
        <time>2023-05-07T09:15:27Z</time>
      </trkpt>
      <trkpt lat="45.453501" lon="1.787968">
        <ele>615</ele>
        <time>2023-05-07T09:15:28Z</time>
      </trkpt>
      <trkpt lat="45.453519" lon="1.787986">
        <ele>615</ele>
        <time>2023-05-07T09:15:29Z</time>
      </trkpt>
      <trkpt lat="45.453536" lon="1.788004">
        <ele>615</ele>
        <time>2023-05-07T09:15:30Z</time>
      </trkpt>
      <trkpt lat="45.453553" lon="1.788022">
        <ele>615</ele>
        <time>2023-05-07T09:15:31Z</time>
      </trkpt>
      <trkpt lat="45.453570" lon="1.788040">
        <ele>615</ele>
        <time>2023-05-07T09:15:32Z</time>
      </trkpt>
      <trkpt lat="45.453587" lon="1.788057">
        <ele>615</ele>
        <time>2023-05-07T09:15:33Z</time>
      </trkpt>
      <trkpt lat="45.453605" lon="1.788074">
        <ele>615</ele>
        <time>2023-05-07T09:15:34Z</time>
      </trkpt>
      <trkpt lat="45.453624" lon="1.788090">
        <ele>615</ele>
        <time>2023-05-07T09:15:35Z</time>
      </trkpt>
      <trkpt lat="45.453643" lon="1.788107">
        <ele>615</ele>
        <time>2023-05-07T09:15:36Z</time>
      </trkpt>
      <trkpt lat="45.453662" lon="1.788123">
        <ele>616</ele>
        <time>2023-05-07T09:15:37Z</time>
      </trkpt>
      <trkpt lat="45.453682" lon="1.788141">
        <ele>616</ele>
        <time>2023-05-07T09:15:38Z</time>
      </trkpt>
      <trkpt lat="45.453701" lon="1.788159">
        <ele>616</ele>
        <time>2023-05-07T09:15:39Z</time>
      </trkpt>
      <trkpt lat="45.453720" lon="1.788175">
        <ele>616</ele>
        <time>2023-05-07T09:15:40Z</time>
      </trkpt>
      <trkpt lat="45.453739" lon="1.788191">
        <ele>616</ele>
        <time>2023-05-07T09:15:41Z</time>
      </trkpt>
      <trkpt lat="45.453758" lon="1.788205">
        <ele>616</ele>
        <time>2023-05-07T09:15:42Z</time>
      </trkpt>
      <trkpt lat="45.453776" lon="1.788219">
        <ele>616</ele>
        <time>2023-05-07T09:15:43Z</time>
      </trkpt>
      <trkpt lat="45.453794" lon="1.788232">
        <ele>616</ele>
        <time>2023-05-07T09:15:44Z</time>
      </trkpt>
      <trkpt lat="45.453813" lon="1.788244">
        <ele>616</ele>
        <time>2023-05-07T09:15:45Z</time>
      </trkpt>
      <trkpt lat="45.453829" lon="1.788255">
        <ele>616</ele>
        <time>2023-05-07T09:15:46Z</time>
      </trkpt>
      <trkpt lat="45.453845" lon="1.788266">
        <ele>617</ele>
        <time>2023-05-07T09:15:47Z</time>
      </trkpt>
      <trkpt lat="45.453861" lon="1.788277">
        <ele>617</ele>
        <time>2023-05-07T09:15:48Z</time>
      </trkpt>
      <trkpt lat="45.453877" lon="1.788288">
        <ele>617</ele>
        <time>2023-05-07T09:15:49Z</time>
      </trkpt>
      <trkpt lat="45.453895" lon="1.788299">
        <ele>617</ele>
        <time>2023-05-07T09:15:50Z</time>
      </trkpt>
      <trkpt lat="45.453912" lon="1.788310">
        <ele>617</ele>
        <time>2023-05-07T09:15:51Z</time>
      </trkpt>
      <trkpt lat="45.453931" lon="1.788323">
        <ele>617</ele>
        <time>2023-05-07T09:15:52Z</time>
      </trkpt>
      <trkpt lat="45.453951" lon="1.788335">
        <ele>617</ele>
        <time>2023-05-07T09:15:53Z</time>
      </trkpt>
      <trkpt lat="45.453971" lon="1.788347">
        <ele>617</ele>
        <time>2023-05-07T09:15:54Z</time>
      </trkpt>
      <trkpt lat="45.453992" lon="1.788358">
        <ele>617</ele>
        <time>2023-05-07T09:15:55Z</time>
      </trkpt>
      <trkpt lat="45.454014" lon="1.788366">
        <ele>617</ele>
        <time>2023-05-07T09:15:56Z</time>
      </trkpt>
      <trkpt lat="45.454037" lon="1.788375">
        <ele>618</ele>
        <time>2023-05-07T09:15:57Z</time>
      </trkpt>
      <trkpt lat="45.454059" lon="1.788380">
        <ele>618</ele>
        <time>2023-05-07T09:15:58Z</time>
      </trkpt>
      <trkpt lat="45.454081" lon="1.788386">
        <ele>618</ele>
        <time>2023-05-07T09:15:59Z</time>
      </trkpt>
      <trkpt lat="45.454104" lon="1.788390">
        <ele>618</ele>
        <time>2023-05-07T09:16:00Z</time>
      </trkpt>
      <trkpt lat="45.454127" lon="1.788395">
        <ele>618</ele>
        <time>2023-05-07T09:16:01Z</time>
      </trkpt>
      <trkpt lat="45.454150" lon="1.788400">
        <ele>618</ele>
        <time>2023-05-07T09:16:02Z</time>
      </trkpt>
      <trkpt lat="45.454174" lon="1.788405">
        <ele>618</ele>
        <time>2023-05-07T09:16:03Z</time>
      </trkpt>
      <trkpt lat="45.454196" lon="1.788410">
        <ele>618</ele>
        <time>2023-05-07T09:16:04Z</time>
      </trkpt>
      <trkpt lat="45.454219" lon="1.788415">
        <ele>618</ele>
        <time>2023-05-07T09:16:05Z</time>
      </trkpt>
      <trkpt lat="45.454242" lon="1.788417">
        <ele>618</ele>
        <time>2023-05-07T09:16:06Z</time>
      </trkpt>
      <trkpt lat="45.454264" lon="1.788420">
        <ele>619</ele>
        <time>2023-05-07T09:16:07Z</time>
      </trkpt>
      <trkpt lat="45.454287" lon="1.788420">
        <ele>619</ele>
        <time>2023-05-07T09:16:08Z</time>
      </trkpt>
      <trkpt lat="45.454310" lon="1.788421">
        <ele>619</ele>
        <time>2023-05-07T09:16:09Z</time>
      </trkpt>
      <trkpt lat="45.454334" lon="1.788421">
        <ele>619</ele>
        <time>2023-05-07T09:16:10Z</time>
      </trkpt>
      <trkpt lat="45.454357" lon="1.788421">
        <ele>619</ele>
        <time>2023-05-07T09:16:11Z</time>
      </trkpt>
      <trkpt lat="45.454380" lon="1.788420">
        <ele>620</ele>
        <time>2023-05-07T09:16:12Z</time>
      </trkpt>
      <trkpt lat="45.454402" lon="1.788418">
        <ele>620</ele>
        <time>2023-05-07T09:16:13Z</time>
      </trkpt>
      <trkpt lat="45.454424" lon="1.788416">
        <ele>620</ele>
        <time>2023-05-07T09:16:14Z</time>
      </trkpt>
      <trkpt lat="45.454446" lon="1.788414">
        <ele>620</ele>
        <time>2023-05-07T09:16:15Z</time>
      </trkpt>
      <trkpt lat="45.454468" lon="1.788411">
        <ele>620</ele>
        <time>2023-05-07T09:16:16Z</time>
      </trkpt>
      <trkpt lat="45.454490" lon="1.788408">
        <ele>620</ele>
        <time>2023-05-07T09:16:17Z</time>
      </trkpt>
      <trkpt lat="45.454511" lon="1.788404">
        <ele>620</ele>
        <time>2023-05-07T09:16:18Z</time>
      </trkpt>
      <trkpt lat="45.454533" lon="1.788401">
        <ele>620</ele>
        <time>2023-05-07T09:16:19Z</time>
      </trkpt>
      <trkpt lat="45.454556" lon="1.788398">
        <ele>620</ele>
        <time>2023-05-07T09:16:20Z</time>
      </trkpt>
      <trkpt lat="45.454579" lon="1.788395">
        <ele>620</ele>
        <time>2023-05-07T09:16:21Z</time>
      </trkpt>
      <trkpt lat="45.454602" lon="1.788391">
        <ele>621</ele>
        <time>2023-05-07T09:16:22Z</time>
      </trkpt>
      <trkpt lat="45.454625" lon="1.788387">
        <ele>621</ele>
        <time>2023-05-07T09:16:23Z</time>
      </trkpt>
      <trkpt lat="45.454650" lon="1.788384">
        <ele>621</ele>
        <time>2023-05-07T09:16:24Z</time>
      </trkpt>
      <trkpt lat="45.454674" lon="1.788380">
        <ele>621</ele>
        <time>2023-05-07T09:16:25Z</time>
      </trkpt>
      <trkpt lat="45.454698" lon="1.788379">
        <ele>621</ele>
        <time>2023-05-07T09:16:26Z</time>
      </trkpt>
      <trkpt lat="45.454723" lon="1.788377">
        <ele>621</ele>
        <time>2023-05-07T09:16:27Z</time>
      </trkpt>
      <trkpt lat="45.454749" lon="1.788376">
        <ele>621</ele>
        <time>2023-05-07T09:16:28Z</time>
      </trkpt>
      <trkpt lat="45.454776" lon="1.788376">
        <ele>621</ele>
        <time>2023-05-07T09:16:29Z</time>
      </trkpt>
      <trkpt lat="45.454804" lon="1.788376">
        <ele>621</ele>
        <time>2023-05-07T09:16:30Z</time>
      </trkpt>
      <trkpt lat="45.454831" lon="1.788376">
        <ele>621</ele>
        <time>2023-05-07T09:16:31Z</time>
      </trkpt>
      <trkpt lat="45.454859" lon="1.788374">
        <ele>622</ele>
        <time>2023-05-07T09:16:32Z</time>
      </trkpt>
      <trkpt lat="45.454886" lon="1.788372">
        <ele>622</ele>
        <time>2023-05-07T09:16:33Z</time>
      </trkpt>
      <trkpt lat="45.454913" lon="1.788369">
        <ele>622</ele>
        <time>2023-05-07T09:16:34Z</time>
      </trkpt>
      <trkpt lat="45.454940" lon="1.788366">
        <ele>622</ele>
        <time>2023-05-07T09:16:35Z</time>
      </trkpt>
      <trkpt lat="45.454966" lon="1.788364">
        <ele>622</ele>
        <time>2023-05-07T09:16:36Z</time>
      </trkpt>
      <trkpt lat="45.454992" lon="1.788361">
        <ele>622</ele>
        <time>2023-05-07T09:16:37Z</time>
      </trkpt>
      <trkpt lat="45.455017" lon="1.788359">
        <ele>622</ele>
        <time>2023-05-07T09:16:38Z</time>
      </trkpt>
      <trkpt lat="45.455043" lon="1.788357">
        <ele>622</ele>
        <time>2023-05-07T09:16:39Z</time>
      </trkpt>
      <trkpt lat="45.455068" lon="1.788355">
        <ele>622</ele>
        <time>2023-05-07T09:16:40Z</time>
      </trkpt>
      <trkpt lat="45.455093" lon="1.788352">
        <ele>622</ele>
        <time>2023-05-07T09:16:41Z</time>
      </trkpt>
      <trkpt lat="45.455117" lon="1.788350">
        <ele>622</ele>
        <time>2023-05-07T09:16:42Z</time>
      </trkpt>
      <trkpt lat="45.455141" lon="1.788348">
        <ele>622</ele>
        <time>2023-05-07T09:16:43Z</time>
      </trkpt>
      <trkpt lat="45.455164" lon="1.788345">
        <ele>622</ele>
        <time>2023-05-07T09:16:44Z</time>
      </trkpt>
      <trkpt lat="45.455187" lon="1.788343">
        <ele>622</ele>
        <time>2023-05-07T09:16:45Z</time>
      </trkpt>
      <trkpt lat="45.455210" lon="1.788339">
        <ele>622</ele>
        <time>2023-05-07T09:16:46Z</time>
      </trkpt>
      <trkpt lat="45.455232" lon="1.788336">
        <ele>623</ele>
        <time>2023-05-07T09:16:47Z</time>
      </trkpt>
      <trkpt lat="45.455257" lon="1.788333">
        <ele>623</ele>
        <time>2023-05-07T09:16:48Z</time>
      </trkpt>
      <trkpt lat="45.455281" lon="1.788330">
        <ele>623</ele>
        <time>2023-05-07T09:16:49Z</time>
      </trkpt>
      <trkpt lat="45.455308" lon="1.788328">
        <ele>623</ele>
        <time>2023-05-07T09:16:50Z</time>
      </trkpt>
      <trkpt lat="45.455334" lon="1.788326">
        <ele>623</ele>
        <time>2023-05-07T09:16:51Z</time>
      </trkpt>
      <trkpt lat="45.455361" lon="1.788323">
        <ele>623</ele>
        <time>2023-05-07T09:16:52Z</time>
      </trkpt>
      <trkpt lat="45.455388" lon="1.788321">
        <ele>623</ele>
        <time>2023-05-07T09:16:53Z</time>
      </trkpt>
      <trkpt lat="45.455414" lon="1.788316">
        <ele>623</ele>
        <time>2023-05-07T09:16:54Z</time>
      </trkpt>
      <trkpt lat="45.455441" lon="1.788312">
        <ele>623</ele>
        <time>2023-05-07T09:16:55Z</time>
      </trkpt>
      <trkpt lat="45.455467" lon="1.788307">
        <ele>623</ele>
        <time>2023-05-07T09:16:56Z</time>
      </trkpt>
      <trkpt lat="45.455493" lon="1.788301">
        <ele>623</ele>
        <time>2023-05-07T09:16:57Z</time>
      </trkpt>
      <trkpt lat="45.455519" lon="1.788299">
        <ele>623</ele>
        <time>2023-05-07T09:16:58Z</time>
      </trkpt>
      <trkpt lat="45.455545" lon="1.788297">
        <ele>623</ele>
        <time>2023-05-07T09:16:59Z</time>
      </trkpt>
      <trkpt lat="45.455571" lon="1.788296">
        <ele>623</ele>
        <time>2023-05-07T09:17:00Z</time>
      </trkpt>
      <trkpt lat="45.455596" lon="1.788296">
        <ele>623</ele>
        <time>2023-05-07T09:17:01Z</time>
      </trkpt>
      <trkpt lat="45.455620" lon="1.788296">
        <ele>624</ele>
        <time>2023-05-07T09:17:02Z</time>
      </trkpt>
      <trkpt lat="45.455644" lon="1.788296">
        <ele>624</ele>
        <time>2023-05-07T09:17:03Z</time>
      </trkpt>
      <trkpt lat="45.455667" lon="1.788294">
        <ele>624</ele>
        <time>2023-05-07T09:17:04Z</time>
      </trkpt>
      <trkpt lat="45.455689" lon="1.788293">
        <ele>624</ele>
        <time>2023-05-07T09:17:05Z</time>
      </trkpt>
      <trkpt lat="45.455711" lon="1.788293">
        <ele>624</ele>
        <time>2023-05-07T09:17:06Z</time>
      </trkpt>
      <trkpt lat="45.455733" lon="1.788292">
        <ele>624</ele>
        <time>2023-05-07T09:17:07Z</time>
      </trkpt>
      <trkpt lat="45.455754" lon="1.788289">
        <ele>624</ele>
        <time>2023-05-07T09:17:08Z</time>
      </trkpt>
      <trkpt lat="45.455775" lon="1.788287">
        <ele>624</ele>
        <time>2023-05-07T09:17:09Z</time>
      </trkpt>
      <trkpt lat="45.455797" lon="1.788284">
        <ele>624</ele>
        <time>2023-05-07T09:17:10Z</time>
      </trkpt>
      <trkpt lat="45.455819" lon="1.788281">
        <ele>624</ele>
        <time>2023-05-07T09:17:11Z</time>
      </trkpt>
      <trkpt lat="45.455844" lon="1.788280">
        <ele>624</ele>
        <time>2023-05-07T09:17:12Z</time>
      </trkpt>
      <trkpt lat="45.455870" lon="1.788278">
        <ele>624</ele>
        <time>2023-05-07T09:17:13Z</time>
      </trkpt>
      <trkpt lat="45.455897" lon="1.788278">
        <ele>624</ele>
        <time>2023-05-07T09:17:14Z</time>
      </trkpt>
      <trkpt lat="45.455924" lon="1.788279">
        <ele>624</ele>
        <time>2023-05-07T09:17:15Z</time>
      </trkpt>
      <trkpt lat="45.455953" lon="1.788280">
        <ele>624</ele>
        <time>2023-05-07T09:17:16Z</time>
      </trkpt>
      <trkpt lat="45.455981" lon="1.788282">
        <ele>625</ele>
        <time>2023-05-07T09:17:17Z</time>
      </trkpt>
      <trkpt lat="45.456011" lon="1.788285">
        <ele>625</ele>
        <time>2023-05-07T09:17:18Z</time>
      </trkpt>
      <trkpt lat="45.456041" lon="1.788288">
        <ele>625</ele>
        <time>2023-05-07T09:17:19Z</time>
      </trkpt>
      <trkpt lat="45.456070" lon="1.788288">
        <ele>625</ele>
        <time>2023-05-07T09:17:20Z</time>
      </trkpt>
      <trkpt lat="45.456100" lon="1.788289">
        <ele>625</ele>
        <time>2023-05-07T09:17:21Z</time>
      </trkpt>
      <trkpt lat="45.456130" lon="1.788286">
        <ele>625</ele>
        <time>2023-05-07T09:17:22Z</time>
      </trkpt>
      <trkpt lat="45.456159" lon="1.788283">
        <ele>625</ele>
        <time>2023-05-07T09:17:23Z</time>
      </trkpt>
      <trkpt lat="45.456188" lon="1.788281">
        <ele>625</ele>
        <time>2023-05-07T09:17:24Z</time>
      </trkpt>
      <trkpt lat="45.456217" lon="1.788279">
        <ele>625</ele>
        <time>2023-05-07T09:17:25Z</time>
      </trkpt>
      <trkpt lat="45.456244" lon="1.788280">
        <ele>625</ele>
        <time>2023-05-07T09:17:26Z</time>
      </trkpt>
      <trkpt lat="45.456272" lon="1.788281">
        <ele>626</ele>
        <time>2023-05-07T09:17:27Z</time>
      </trkpt>
      <trkpt lat="45.456299" lon="1.788286">
        <ele>626</ele>
        <time>2023-05-07T09:17:28Z</time>
      </trkpt>
      <trkpt lat="45.456326" lon="1.788290">
        <ele>626</ele>
        <time>2023-05-07T09:17:29Z</time>
      </trkpt>
      <trkpt lat="45.456351" lon="1.788298">
        <ele>626</ele>
        <time>2023-05-07T09:17:30Z</time>
      </trkpt>
      <trkpt lat="45.456375" lon="1.788306">
        <ele>626</ele>
        <time>2023-05-07T09:17:31Z</time>
      </trkpt>
      <trkpt lat="45.456399" lon="1.788318">
        <ele>626</ele>
        <time>2023-05-07T09:17:32Z</time>
      </trkpt>
      <trkpt lat="45.456422" lon="1.788329">
        <ele>626</ele>
        <time>2023-05-07T09:17:33Z</time>
      </trkpt>
      <trkpt lat="45.456446" lon="1.788344">
        <ele>626</ele>
        <time>2023-05-07T09:17:34Z</time>
      </trkpt>
      <trkpt lat="45.456469" lon="1.788358">
        <ele>626</ele>
        <time>2023-05-07T09:17:35Z</time>
      </trkpt>
      <trkpt lat="45.456492" lon="1.788376">
        <ele>626</ele>
        <time>2023-05-07T09:17:36Z</time>
      </trkpt>
      <trkpt lat="45.456514" lon="1.788394">
        <ele>627</ele>
        <time>2023-05-07T09:17:37Z</time>
      </trkpt>
      <trkpt lat="45.456536" lon="1.788415">
        <ele>627</ele>
        <time>2023-05-07T09:17:38Z</time>
      </trkpt>
      <trkpt lat="45.456558" lon="1.788435">
        <ele>627</ele>
        <time>2023-05-07T09:17:39Z</time>
      </trkpt>
      <trkpt lat="45.456578" lon="1.788457">
        <ele>627</ele>
        <time>2023-05-07T09:17:40Z</time>
      </trkpt>
      <trkpt lat="45.456598" lon="1.788479">
        <ele>627</ele>
        <time>2023-05-07T09:17:41Z</time>
      </trkpt>
      <trkpt lat="45.456615" lon="1.788502">
        <ele>627</ele>
        <time>2023-05-07T09:17:42Z</time>
      </trkpt>
      <trkpt lat="45.456632" lon="1.788526">
        <ele>627</ele>
        <time>2023-05-07T09:17:43Z</time>
      </trkpt>
      <trkpt lat="45.456649" lon="1.788550">
        <ele>627</ele>
        <time>2023-05-07T09:17:44Z</time>
      </trkpt>
      <trkpt lat="45.456667" lon="1.788575">
        <ele>627</ele>
        <time>2023-05-07T09:17:45Z</time>
      </trkpt>
      <trkpt lat="45.456685" lon="1.788601">
        <ele>627</ele>
        <time>2023-05-07T09:17:46Z</time>
      </trkpt>
      <trkpt lat="45.456704" lon="1.788626">
        <ele>627</ele>
        <time>2023-05-07T09:17:47Z</time>
      </trkpt>
      <trkpt lat="45.456723" lon="1.788653">
        <ele>627</ele>
        <time>2023-05-07T09:17:48Z</time>
      </trkpt>
      <trkpt lat="45.456743" lon="1.788680">
        <ele>627</ele>
        <time>2023-05-07T09:17:49Z</time>
      </trkpt>
      <trkpt lat="45.456761" lon="1.788707">
        <ele>627</ele>
        <time>2023-05-07T09:17:50Z</time>
      </trkpt>
      <trkpt lat="45.456780" lon="1.788734">
        <ele>627</ele>
        <time>2023-05-07T09:17:51Z</time>
      </trkpt>
      <trkpt lat="45.456798" lon="1.788760">
        <ele>628</ele>
        <time>2023-05-07T09:17:52Z</time>
      </trkpt>
      <trkpt lat="45.456816" lon="1.788787">
        <ele>628</ele>
        <time>2023-05-07T09:17:53Z</time>
      </trkpt>
      <trkpt lat="45.456834" lon="1.788811">
        <ele>628</ele>
        <time>2023-05-07T09:17:54Z</time>
      </trkpt>
      <trkpt lat="45.456851" lon="1.788835">
        <ele>628</ele>
        <time>2023-05-07T09:17:55Z</time>
      </trkpt>
      <trkpt lat="45.456868" lon="1.788859">
        <ele>628</ele>
        <time>2023-05-07T09:17:56Z</time>
      </trkpt>
      <trkpt lat="45.456886" lon="1.788882">
        <ele>628</ele>
        <time>2023-05-07T09:17:57Z</time>
      </trkpt>
      <trkpt lat="45.456902" lon="1.788904">
        <ele>628</ele>
        <time>2023-05-07T09:17:58Z</time>
      </trkpt>
      <trkpt lat="45.456918" lon="1.788927">
        <ele>628</ele>
        <time>2023-05-07T09:17:59Z</time>
      </trkpt>
      <trkpt lat="45.456933" lon="1.788950">
        <ele>628</ele>
        <time>2023-05-07T09:18:00Z</time>
      </trkpt>
      <trkpt lat="45.456948" lon="1.788973">
        <ele>628</ele>
        <time>2023-05-07T09:18:01Z</time>
      </trkpt>
      <trkpt lat="45.456962" lon="1.788996">
        <ele>628</ele>
        <time>2023-05-07T09:18:02Z</time>
      </trkpt>
      <trkpt lat="45.456975" lon="1.789020">
        <ele>628</ele>
        <time>2023-05-07T09:18:03Z</time>
      </trkpt>
      <trkpt lat="45.456990" lon="1.789044">
        <ele>628</ele>
        <time>2023-05-07T09:18:04Z</time>
      </trkpt>
      <trkpt lat="45.457005" lon="1.789067">
        <ele>628</ele>
        <time>2023-05-07T09:18:05Z</time>
      </trkpt>
      <trkpt lat="45.457021" lon="1.789091">
        <ele>628</ele>
        <time>2023-05-07T09:18:06Z</time>
      </trkpt>
      <trkpt lat="45.457038" lon="1.789116">
        <ele>628</ele>
        <time>2023-05-07T09:18:07Z</time>
      </trkpt>
      <trkpt lat="45.457055" lon="1.789141">
        <ele>628</ele>
        <time>2023-05-07T09:18:08Z</time>
      </trkpt>
      <trkpt lat="45.457072" lon="1.789167">
        <ele>628</ele>
        <time>2023-05-07T09:18:09Z</time>
      </trkpt>
      <trkpt lat="45.457089" lon="1.789190">
        <ele>628</ele>
        <time>2023-05-07T09:18:10Z</time>
      </trkpt>
      <trkpt lat="45.457106" lon="1.789214">
        <ele>628</ele>
        <time>2023-05-07T09:18:11Z</time>
      </trkpt>
      <trkpt lat="45.457121" lon="1.789238">
        <ele>628</ele>
        <time>2023-05-07T09:18:12Z</time>
      </trkpt>
      <trkpt lat="45.457137" lon="1.789262">
        <ele>628</ele>
        <time>2023-05-07T09:18:13Z</time>
      </trkpt>
      <trkpt lat="45.457152" lon="1.789286">
        <ele>628</ele>
        <time>2023-05-07T09:18:14Z</time>
      </trkpt>
      <trkpt lat="45.457168" lon="1.789311">
        <ele>628</ele>
        <time>2023-05-07T09:18:15Z</time>
      </trkpt>
      <trkpt lat="45.457184" lon="1.789337">
        <ele>628</ele>
        <time>2023-05-07T09:18:16Z</time>
      </trkpt>
      <trkpt lat="45.457200" lon="1.789363">
        <ele>629</ele>
        <time>2023-05-07T09:18:17Z</time>
      </trkpt>
      <trkpt lat="45.457217" lon="1.789390">
        <ele>629</ele>
        <time>2023-05-07T09:18:18Z</time>
      </trkpt>
      <trkpt lat="45.457234" lon="1.789417">
        <ele>629</ele>
        <time>2023-05-07T09:18:19Z</time>
      </trkpt>
      <trkpt lat="45.457252" lon="1.789445">
        <ele>629</ele>
        <time>2023-05-07T09:18:20Z</time>
      </trkpt>
      <trkpt lat="45.457269" lon="1.789473">
        <ele>629</ele>
        <time>2023-05-07T09:18:21Z</time>
      </trkpt>
      <trkpt lat="45.457287" lon="1.789501">
        <ele>629</ele>
        <time>2023-05-07T09:18:22Z</time>
      </trkpt>
      <trkpt lat="45.457305" lon="1.789528">
        <ele>629</ele>
        <time>2023-05-07T09:18:23Z</time>
      </trkpt>
      <trkpt lat="45.457323" lon="1.789557">
        <ele>629</ele>
        <time>2023-05-07T09:18:24Z</time>
      </trkpt>
      <trkpt lat="45.457341" lon="1.789587">
        <ele>629</ele>
        <time>2023-05-07T09:18:25Z</time>
      </trkpt>
      <trkpt lat="45.457359" lon="1.789614">
        <ele>629</ele>
        <time>2023-05-07T09:18:26Z</time>
      </trkpt>
      <trkpt lat="45.457377" lon="1.789642">
        <ele>629</ele>
        <time>2023-05-07T09:18:27Z</time>
      </trkpt>
      <trkpt lat="45.457394" lon="1.789666">
        <ele>629</ele>
        <time>2023-05-07T09:18:28Z</time>
      </trkpt>
      <trkpt lat="45.457410" lon="1.789690">
        <ele>629</ele>
        <time>2023-05-07T09:18:29Z</time>
      </trkpt>
      <trkpt lat="45.457427" lon="1.789714">
        <ele>629</ele>
        <time>2023-05-07T09:18:30Z</time>
      </trkpt>
      <trkpt lat="45.457443" lon="1.789738">
        <ele>629</ele>
        <time>2023-05-07T09:18:31Z</time>
      </trkpt>
      <trkpt lat="45.457462" lon="1.789764">
        <ele>629</ele>
        <time>2023-05-07T09:18:32Z</time>
      </trkpt>
      <trkpt lat="45.457479" lon="1.789789">
        <ele>629</ele>
        <time>2023-05-07T09:18:33Z</time>
      </trkpt>
      <trkpt lat="45.457496" lon="1.789815">
        <ele>629</ele>
        <time>2023-05-07T09:18:34Z</time>
      </trkpt>
      <trkpt lat="45.457514" lon="1.789840">
        <ele>629</ele>
        <time>2023-05-07T09:18:35Z</time>
      </trkpt>
      <trkpt lat="45.457529" lon="1.789867">
        <ele>629</ele>
        <time>2023-05-07T09:18:36Z</time>
      </trkpt>
      <trkpt lat="45.457544" lon="1.789894">
        <ele>629</ele>
        <time>2023-05-07T09:18:37Z</time>
      </trkpt>
      <trkpt lat="45.457559" lon="1.789920">
        <ele>629</ele>
        <time>2023-05-07T09:18:38Z</time>
      </trkpt>
      <trkpt lat="45.457573" lon="1.789947">
        <ele>629</ele>
        <time>2023-05-07T09:18:39Z</time>
      </trkpt>
      <trkpt lat="45.457589" lon="1.789973">
        <ele>629</ele>
        <time>2023-05-07T09:18:40Z</time>
      </trkpt>
      <trkpt lat="45.457605" lon="1.789999">
        <ele>629</ele>
        <time>2023-05-07T09:18:41Z</time>
      </trkpt>
      <trkpt lat="45.457622" lon="1.790023">
        <ele>629</ele>
        <time>2023-05-07T09:18:42Z</time>
      </trkpt>
      <trkpt lat="45.457638" lon="1.790047">
        <ele>629</ele>
        <time>2023-05-07T09:18:43Z</time>
      </trkpt>
      <trkpt lat="45.457654" lon="1.790069">
        <ele>629</ele>
        <time>2023-05-07T09:18:44Z</time>
      </trkpt>
      <trkpt lat="45.457670" lon="1.790092">
        <ele>629</ele>
        <time>2023-05-07T09:18:45Z</time>
      </trkpt>
      <trkpt lat="45.457686" lon="1.790116">
        <ele>629</ele>
        <time>2023-05-07T09:18:46Z</time>
      </trkpt>
      <trkpt lat="45.457702" lon="1.790140">
        <ele>629</ele>
        <time>2023-05-07T09:18:47Z</time>
      </trkpt>
      <trkpt lat="45.457719" lon="1.790166">
        <ele>629</ele>
        <time>2023-05-07T09:18:48Z</time>
      </trkpt>
      <trkpt lat="45.457737" lon="1.790191">
        <ele>629</ele>
        <time>2023-05-07T09:18:49Z</time>
      </trkpt>
      <trkpt lat="45.457754" lon="1.790218">
        <ele>629</ele>
        <time>2023-05-07T09:18:50Z</time>
      </trkpt>
      <trkpt lat="45.457771" lon="1.790244">
        <ele>629</ele>
        <time>2023-05-07T09:18:51Z</time>
      </trkpt>
      <trkpt lat="45.457788" lon="1.790273">
        <ele>629</ele>
        <time>2023-05-07T09:18:52Z</time>
      </trkpt>
      <trkpt lat="45.457805" lon="1.790302">
        <ele>629</ele>
        <time>2023-05-07T09:18:53Z</time>
      </trkpt>
      <trkpt lat="45.457822" lon="1.790331">
        <ele>629</ele>
        <time>2023-05-07T09:18:54Z</time>
      </trkpt>
      <trkpt lat="45.457839" lon="1.790360">
        <ele>629</ele>
        <time>2023-05-07T09:18:55Z</time>
      </trkpt>
      <trkpt lat="45.457856" lon="1.790387">
        <ele>629</ele>
        <time>2023-05-07T09:18:56Z</time>
      </trkpt>
      <trkpt lat="45.457872" lon="1.790413">
        <ele>629</ele>
        <time>2023-05-07T09:18:57Z</time>
      </trkpt>
      <trkpt lat="45.457889" lon="1.790436">
        <ele>629</ele>
        <time>2023-05-07T09:18:58Z</time>
      </trkpt>
      <trkpt lat="45.457905" lon="1.790460">
        <ele>629</ele>
        <time>2023-05-07T09:18:59Z</time>
      </trkpt>
      <trkpt lat="45.457922" lon="1.790483">
        <ele>629</ele>
        <time>2023-05-07T09:19:00Z</time>
      </trkpt>
      <trkpt lat="45.457940" lon="1.790506">
        <ele>629</ele>
        <time>2023-05-07T09:19:01Z</time>
      </trkpt>
      <trkpt lat="45.457957" lon="1.790530">
        <ele>629</ele>
        <time>2023-05-07T09:19:02Z</time>
      </trkpt>
      <trkpt lat="45.457974" lon="1.790554">
        <ele>629</ele>
        <time>2023-05-07T09:19:03Z</time>
      </trkpt>
      <trkpt lat="45.457991" lon="1.790580">
        <ele>629</ele>
        <time>2023-05-07T09:19:04Z</time>
      </trkpt>
      <trkpt lat="45.458008" lon="1.790606">
        <ele>629</ele>
        <time>2023-05-07T09:19:05Z</time>
      </trkpt>
      <trkpt lat="45.458026" lon="1.790630">
        <ele>629</ele>
        <time>2023-05-07T09:19:06Z</time>
      </trkpt>
      <trkpt lat="45.458044" lon="1.790654">
        <ele>629</ele>
        <time>2023-05-07T09:19:07Z</time>
      </trkpt>
      <trkpt lat="45.458062" lon="1.790676">
        <ele>629</ele>
        <time>2023-05-07T09:19:08Z</time>
      </trkpt>
      <trkpt lat="45.458080" lon="1.790698">
        <ele>629</ele>
        <time>2023-05-07T09:19:09Z</time>
      </trkpt>
      <trkpt lat="45.458097" lon="1.790722">
        <ele>629</ele>
        <time>2023-05-07T09:19:10Z</time>
      </trkpt>
      <trkpt lat="45.458114" lon="1.790745">
        <ele>629</ele>
        <time>2023-05-07T09:19:11Z</time>
      </trkpt>
      <trkpt lat="45.458131" lon="1.790769">
        <ele>630</ele>
        <time>2023-05-07T09:19:12Z</time>
      </trkpt>
      <trkpt lat="45.458148" lon="1.790793">
        <ele>630</ele>
        <time>2023-05-07T09:19:13Z</time>
      </trkpt>
      <trkpt lat="45.458164" lon="1.790818">
        <ele>630</ele>
        <time>2023-05-07T09:19:14Z</time>
      </trkpt>
      <trkpt lat="45.458180" lon="1.790842">
        <ele>630</ele>
        <time>2023-05-07T09:19:15Z</time>
      </trkpt>
      <trkpt lat="45.458197" lon="1.790867">
        <ele>630</ele>
        <time>2023-05-07T09:19:16Z</time>
      </trkpt>
      <trkpt lat="45.458214" lon="1.790892">
        <ele>630</ele>
        <time>2023-05-07T09:19:17Z</time>
      </trkpt>
      <trkpt lat="45.458230" lon="1.790917">
        <ele>630</ele>
        <time>2023-05-07T09:19:18Z</time>
      </trkpt>
      <trkpt lat="45.458247" lon="1.790941">
        <ele>630</ele>
        <time>2023-05-07T09:19:19Z</time>
      </trkpt>
      <trkpt lat="45.458263" lon="1.790965">
        <ele>630</ele>
        <time>2023-05-07T09:19:20Z</time>
      </trkpt>
      <trkpt lat="45.458278" lon="1.790988">
        <ele>630</ele>
        <time>2023-05-07T09:19:21Z</time>
      </trkpt>
      <trkpt lat="45.458294" lon="1.791011">
        <ele>630</ele>
        <time>2023-05-07T09:19:22Z</time>
      </trkpt>
      <trkpt lat="45.458309" lon="1.791034">
        <ele>630</ele>
        <time>2023-05-07T09:19:23Z</time>
      </trkpt>
      <trkpt lat="45.458325" lon="1.791057">
        <ele>630</ele>
        <time>2023-05-07T09:19:24Z</time>
      </trkpt>
      <trkpt lat="45.458340" lon="1.791081">
        <ele>630</ele>
        <time>2023-05-07T09:19:25Z</time>
      </trkpt>
      <trkpt lat="45.458355" lon="1.791107">
        <ele>630</ele>
        <time>2023-05-07T09:19:26Z</time>
      </trkpt>
      <trkpt lat="45.458370" lon="1.791132">
        <ele>630</ele>
        <time>2023-05-07T09:19:27Z</time>
      </trkpt>
      <trkpt lat="45.458385" lon="1.791160">
        <ele>630</ele>
        <time>2023-05-07T09:19:28Z</time>
      </trkpt>
      <trkpt lat="45.458401" lon="1.791188">
        <ele>630</ele>
        <time>2023-05-07T09:19:29Z</time>
      </trkpt>
      <trkpt lat="45.458416" lon="1.791217">
        <ele>630</ele>
        <time>2023-05-07T09:19:30Z</time>
      </trkpt>
      <trkpt lat="45.458432" lon="1.791245">
        <ele>630</ele>
        <time>2023-05-07T09:19:31Z</time>
      </trkpt>
      <trkpt lat="45.458449" lon="1.791272">
        <ele>630</ele>
        <time>2023-05-07T09:19:32Z</time>
      </trkpt>
      <trkpt lat="45.458466" lon="1.791300">
        <ele>630</ele>
        <time>2023-05-07T09:19:33Z</time>
      </trkpt>
      <trkpt lat="45.458485" lon="1.791325">
        <ele>630</ele>
        <time>2023-05-07T09:19:34Z</time>
      </trkpt>
      <trkpt lat="45.458503" lon="1.791350">
        <ele>630</ele>
        <time>2023-05-07T09:19:35Z</time>
      </trkpt>
      <trkpt lat="45.458521" lon="1.791376">
        <ele>630</ele>
        <time>2023-05-07T09:19:36Z</time>
      </trkpt>
      <trkpt lat="45.458539" lon="1.791401">
        <ele>631</ele>
        <time>2023-05-07T09:19:37Z</time>
      </trkpt>
      <trkpt lat="45.458556" lon="1.791426">
        <ele>631</ele>
        <time>2023-05-07T09:19:38Z</time>
      </trkpt>
      <trkpt lat="45.458573" lon="1.791451">
        <ele>631</ele>
        <time>2023-05-07T09:19:39Z</time>
      </trkpt>
      <trkpt lat="45.458590" lon="1.791477">
        <ele>631</ele>
        <time>2023-05-07T09:19:40Z</time>
      </trkpt>
      <trkpt lat="45.458607" lon="1.791502">
        <ele>631</ele>
        <time>2023-05-07T09:19:41Z</time>
      </trkpt>
      <trkpt lat="45.458624" lon="1.791527">
        <ele>631</ele>
        <time>2023-05-07T09:19:42Z</time>
      </trkpt>
      <trkpt lat="45.458641" lon="1.791552">
        <ele>631</ele>
        <time>2023-05-07T09:19:43Z</time>
      </trkpt>
      <trkpt lat="45.458658" lon="1.791576">
        <ele>631</ele>
        <time>2023-05-07T09:19:44Z</time>
      </trkpt>
      <trkpt lat="45.458674" lon="1.791600">
        <ele>631</ele>
        <time>2023-05-07T09:19:45Z</time>
      </trkpt>
      <trkpt lat="45.458691" lon="1.791623">
        <ele>631</ele>
        <time>2023-05-07T09:19:46Z</time>
      </trkpt>
      <trkpt lat="45.458708" lon="1.791646">
        <ele>631</ele>
        <time>2023-05-07T09:19:47Z</time>
      </trkpt>
      <trkpt lat="45.458724" lon="1.791667">
        <ele>631</ele>
        <time>2023-05-07T09:19:48Z</time>
      </trkpt>
      <trkpt lat="45.458740" lon="1.791688">
        <ele>631</ele>
        <time>2023-05-07T09:19:49Z</time>
      </trkpt>
      <trkpt lat="45.458755" lon="1.791708">
        <ele>631</ele>
        <time>2023-05-07T09:19:50Z</time>
      </trkpt>
      <trkpt lat="45.458770" lon="1.791727">
        <ele>631</ele>
        <time>2023-05-07T09:19:51Z</time>
      </trkpt>
      <trkpt lat="45.458784" lon="1.791746">
        <ele>631</ele>
        <time>2023-05-07T09:19:52Z</time>
      </trkpt>
      <trkpt lat="45.458798" lon="1.791764">
        <ele>631</ele>
        <time>2023-05-07T09:19:53Z</time>
      </trkpt>
      <trkpt lat="45.458811" lon="1.791783">
        <ele>631</ele>
        <time>2023-05-07T09:19:54Z</time>
      </trkpt>
      <trkpt lat="45.458823" lon="1.791802">
        <ele>631</ele>
        <time>2023-05-07T09:19:55Z</time>
      </trkpt>
      <trkpt lat="45.458836" lon="1.791820">
        <ele>631</ele>
        <time>2023-05-07T09:19:56Z</time>
      </trkpt>
      <trkpt lat="45.458849" lon="1.791838">
        <ele>632</ele>
        <time>2023-05-07T09:19:57Z</time>
      </trkpt>
      <trkpt lat="45.458862" lon="1.791857">
        <ele>632</ele>
        <time>2023-05-07T09:19:58Z</time>
      </trkpt>
      <trkpt lat="45.458875" lon="1.791876">
        <ele>632</ele>
        <time>2023-05-07T09:19:59Z</time>
      </trkpt>
      <trkpt lat="45.458888" lon="1.791897">
        <ele>632</ele>
        <time>2023-05-07T09:20:00Z</time>
      </trkpt>
      <trkpt lat="45.458901" lon="1.791917">
        <ele>632</ele>
        <time>2023-05-07T09:20:01Z</time>
      </trkpt>
      <trkpt lat="45.458912" lon="1.791937">
        <ele>632</ele>
        <time>2023-05-07T09:20:02Z</time>
      </trkpt>
      <trkpt lat="45.458923" lon="1.791958">
        <ele>632</ele>
        <time>2023-05-07T09:20:03Z</time>
      </trkpt>
      <trkpt lat="45.458934" lon="1.791977">
        <ele>632</ele>
        <time>2023-05-07T09:20:04Z</time>
      </trkpt>
      <trkpt lat="45.458944" lon="1.791996">
        <ele>632</ele>
        <time>2023-05-07T09:20:05Z</time>
      </trkpt>
      <trkpt lat="45.458956" lon="1.792014">
        <ele>632</ele>
        <time>2023-05-07T09:20:06Z</time>
      </trkpt>
      <trkpt lat="45.458967" lon="1.792032">
        <ele>633</ele>
        <time>2023-05-07T09:20:07Z</time>
      </trkpt>
      <trkpt lat="45.458978" lon="1.792050">
        <ele>633</ele>
        <time>2023-05-07T09:20:08Z</time>
      </trkpt>
      <trkpt lat="45.458989" lon="1.792067">
        <ele>633</ele>
        <time>2023-05-07T09:20:09Z</time>
      </trkpt>
      <trkpt lat="45.459001" lon="1.792084">
        <ele>633</ele>
        <time>2023-05-07T09:20:10Z</time>
      </trkpt>
      <trkpt lat="45.459012" lon="1.792101">
        <ele>633</ele>
        <time>2023-05-07T09:20:11Z</time>
      </trkpt>
      <trkpt lat="45.459025" lon="1.792119">
        <ele>633</ele>
        <time>2023-05-07T09:20:12Z</time>
      </trkpt>
      <trkpt lat="45.459037" lon="1.792136">
        <ele>633</ele>
        <time>2023-05-07T09:20:13Z</time>
      </trkpt>
      <trkpt lat="45.459049" lon="1.792154">
        <ele>633</ele>
        <time>2023-05-07T09:20:14Z</time>
      </trkpt>
      <trkpt lat="45.459061" lon="1.792171">
        <ele>633</ele>
        <time>2023-05-07T09:20:15Z</time>
      </trkpt>
      <trkpt lat="45.459073" lon="1.792189">
        <ele>633</ele>
        <time>2023-05-07T09:20:16Z</time>
      </trkpt>
      <trkpt lat="45.459086" lon="1.792207">
        <ele>634</ele>
        <time>2023-05-07T09:20:17Z</time>
      </trkpt>
      <trkpt lat="45.459097" lon="1.792225">
        <ele>634</ele>
        <time>2023-05-07T09:20:18Z</time>
      </trkpt>
      <trkpt lat="45.459109" lon="1.792244">
        <ele>634</ele>
        <time>2023-05-07T09:20:19Z</time>
      </trkpt>
      <trkpt lat="45.459122" lon="1.792262">
        <ele>634</ele>
        <time>2023-05-07T09:20:20Z</time>
      </trkpt>
      <trkpt lat="45.459134" lon="1.792281">
        <ele>634</ele>
        <time>2023-05-07T09:20:21Z</time>
      </trkpt>
      <trkpt lat="45.459148" lon="1.792299">
        <ele>634</ele>
        <time>2023-05-07T09:20:22Z</time>
      </trkpt>
      <trkpt lat="45.459162" lon="1.792318">
        <ele>634</ele>
        <time>2023-05-07T09:20:23Z</time>
      </trkpt>
      <trkpt lat="45.459175" lon="1.792336">
        <ele>634</ele>
        <time>2023-05-07T09:20:24Z</time>
      </trkpt>
      <trkpt lat="45.459188" lon="1.792355">
        <ele>634</ele>
        <time>2023-05-07T09:20:25Z</time>
      </trkpt>
      <trkpt lat="45.459201" lon="1.792374">
        <ele>634</ele>
        <time>2023-05-07T09:20:26Z</time>
      </trkpt>
      <trkpt lat="45.459215" lon="1.792393">
        <ele>634</ele>
        <time>2023-05-07T09:20:27Z</time>
      </trkpt>
      <trkpt lat="45.459228" lon="1.792412">
        <ele>634</ele>
        <time>2023-05-07T09:20:28Z</time>
      </trkpt>
      <trkpt lat="45.459242" lon="1.792432">
        <ele>634</ele>
        <time>2023-05-07T09:20:29Z</time>
      </trkpt>
      <trkpt lat="45.459254" lon="1.792451">
        <ele>634</ele>
        <time>2023-05-07T09:20:30Z</time>
      </trkpt>
      <trkpt lat="45.459267" lon="1.792471">
        <ele>634</ele>
        <time>2023-05-07T09:20:31Z</time>
      </trkpt>
      <trkpt lat="45.459281" lon="1.792492">
        <ele>635</ele>
        <time>2023-05-07T09:20:32Z</time>
      </trkpt>
      <trkpt lat="45.459294" lon="1.792513">
        <ele>635</ele>
        <time>2023-05-07T09:20:33Z</time>
      </trkpt>
      <trkpt lat="45.459309" lon="1.792536">
        <ele>635</ele>
        <time>2023-05-07T09:20:34Z</time>
      </trkpt>
      <trkpt lat="45.459324" lon="1.792560">
        <ele>635</ele>
        <time>2023-05-07T09:20:35Z</time>
      </trkpt>
      <trkpt lat="45.459339" lon="1.792584">
        <ele>635</ele>
        <time>2023-05-07T09:20:36Z</time>
      </trkpt>
      <trkpt lat="45.459353" lon="1.792608">
        <ele>635</ele>
        <time>2023-05-07T09:20:37Z</time>
      </trkpt>
      <trkpt lat="45.459368" lon="1.792631">
        <ele>635</ele>
        <time>2023-05-07T09:20:38Z</time>
      </trkpt>
      <trkpt lat="45.459382" lon="1.792655">
        <ele>635</ele>
        <time>2023-05-07T09:20:39Z</time>
      </trkpt>
      <trkpt lat="45.459396" lon="1.792677">
        <ele>635</ele>
        <time>2023-05-07T09:20:40Z</time>
      </trkpt>
      <trkpt lat="45.459411" lon="1.792699">
        <ele>635</ele>
        <time>2023-05-07T09:20:41Z</time>
      </trkpt>
      <trkpt lat="45.459426" lon="1.792720">
        <ele>635</ele>
        <time>2023-05-07T09:20:42Z</time>
      </trkpt>
      <trkpt lat="45.459441" lon="1.792742">
        <ele>635</ele>
        <time>2023-05-07T09:20:43Z</time>
      </trkpt>
      <trkpt lat="45.459456" lon="1.792763">
        <ele>635</ele>
        <time>2023-05-07T09:20:44Z</time>
      </trkpt>
      <trkpt lat="45.459471" lon="1.792785">
        <ele>635</ele>
        <time>2023-05-07T09:20:45Z</time>
      </trkpt>
      <trkpt lat="45.459486" lon="1.792806">
        <ele>635</ele>
        <time>2023-05-07T09:20:46Z</time>
      </trkpt>
      <trkpt lat="45.459501" lon="1.792827">
        <ele>636</ele>
        <time>2023-05-07T09:20:47Z</time>
      </trkpt>
      <trkpt lat="45.459514" lon="1.792845">
        <ele>636</ele>
        <time>2023-05-07T09:20:48Z</time>
      </trkpt>
      <trkpt lat="45.459527" lon="1.792864">
        <ele>636</ele>
        <time>2023-05-07T09:20:49Z</time>
      </trkpt>
      <trkpt lat="45.459538" lon="1.792881">
        <ele>636</ele>
        <time>2023-05-07T09:20:50Z</time>
      </trkpt>
      <trkpt lat="45.459549" lon="1.792898">
        <ele>636</ele>
        <time>2023-05-07T09:20:51Z</time>
      </trkpt>
      <trkpt lat="45.459559" lon="1.792915">
        <ele>637</ele>
        <time>2023-05-07T09:20:52Z</time>
      </trkpt>
      <trkpt lat="45.459569" lon="1.792931">
        <ele>637</ele>
        <time>2023-05-07T09:20:53Z</time>
      </trkpt>
      <trkpt lat="45.459576" lon="1.792946">
        <ele>637</ele>
        <time>2023-05-07T09:20:54Z</time>
      </trkpt>
      <trkpt lat="45.459582" lon="1.792960">
        <ele>637</ele>
        <time>2023-05-07T09:20:55Z</time>
      </trkpt>
      <trkpt lat="45.459587" lon="1.792989">
        <ele>638</ele>
        <time>2023-05-07T09:23:52Z</time>
      </trkpt>
      <trkpt lat="45.459588" lon="1.793007">
        <ele>638</ele>
        <time>2023-05-07T09:23:53Z</time>
      </trkpt>
      <trkpt lat="45.459588" lon="1.793025">
        <ele>638</ele>
        <time>2023-05-07T09:23:54Z</time>
      </trkpt>
      <trkpt lat="45.459584" lon="1.793039">
        <ele>638</ele>
        <time>2023-05-07T09:23:55Z</time>
      </trkpt>
      <trkpt lat="45.459580" lon="1.793055">
        <ele>638</ele>
        <time>2023-05-07T09:23:56Z</time>
      </trkpt>
      <trkpt lat="45.459574" lon="1.793072">
        <ele>638</ele>
        <time>2023-05-07T09:23:57Z</time>
      </trkpt>
      <trkpt lat="45.459568" lon="1.793089">
        <ele>638</ele>
        <time>2023-05-07T09:23:58Z</time>
      </trkpt>
      <trkpt lat="45.459564" lon="1.793110">
        <ele>638</ele>
        <time>2023-05-07T09:23:59Z</time>
      </trkpt>
      <trkpt lat="45.459561" lon="1.793131">
        <ele>638</ele>
        <time>2023-05-07T09:24:00Z</time>
      </trkpt>
      <trkpt lat="45.459558" lon="1.793157">
        <ele>638</ele>
        <time>2023-05-07T09:24:01Z</time>
      </trkpt>
      <trkpt lat="45.459556" lon="1.793183">
        <ele>638</ele>
        <time>2023-05-07T09:24:02Z</time>
      </trkpt>
      <trkpt lat="45.459556" lon="1.793212">
        <ele>638</ele>
        <time>2023-05-07T09:24:03Z</time>
      </trkpt>
      <trkpt lat="45.459556" lon="1.793241">
        <ele>638</ele>
        <time>2023-05-07T09:24:04Z</time>
      </trkpt>
      <trkpt lat="45.459557" lon="1.793269">
        <ele>638</ele>
        <time>2023-05-07T09:24:05Z</time>
      </trkpt>
      <trkpt lat="45.459559" lon="1.793296">
        <ele>638</ele>
        <time>2023-05-07T09:24:06Z</time>
      </trkpt>
      <trkpt lat="45.459561" lon="1.793320">
        <ele>638</ele>
        <time>2023-05-07T09:24:07Z</time>
      </trkpt>
      <trkpt lat="45.459564" lon="1.793344">
        <ele>638</ele>
        <time>2023-05-07T09:24:08Z</time>
      </trkpt>
      <trkpt lat="45.459569" lon="1.793367">
        <ele>638</ele>
        <time>2023-05-07T09:24:09Z</time>
      </trkpt>
      <trkpt lat="45.459573" lon="1.793389">
        <ele>638</ele>
        <time>2023-05-07T09:24:10Z</time>
      </trkpt>
      <trkpt lat="45.459579" lon="1.793412">
        <ele>638</ele>
        <time>2023-05-07T09:24:11Z</time>
      </trkpt>
      <trkpt lat="45.459584" lon="1.793434">
        <ele>638</ele>
        <time>2023-05-07T09:24:12Z</time>
      </trkpt>
      <trkpt lat="45.459589" lon="1.793457">
        <ele>638</ele>
        <time>2023-05-07T09:24:13Z</time>
      </trkpt>
      <trkpt lat="45.459595" lon="1.793480">
        <ele>638</ele>
        <time>2023-05-07T09:24:14Z</time>
      </trkpt>
      <trkpt lat="45.459599" lon="1.793502">
        <ele>638</ele>
        <time>2023-05-07T09:24:15Z</time>
      </trkpt>
      <trkpt lat="45.459604" lon="1.793525">
        <ele>638</ele>
        <time>2023-05-07T09:24:16Z</time>
      </trkpt>
      <trkpt lat="45.459608" lon="1.793548">
        <ele>638</ele>
        <time>2023-05-07T09:24:17Z</time>
      </trkpt>
      <trkpt lat="45.459612" lon="1.793570">
        <ele>638</ele>
        <time>2023-05-07T09:24:18Z</time>
      </trkpt>
      <trkpt lat="45.459617" lon="1.793593">
        <ele>638</ele>
        <time>2023-05-07T09:24:19Z</time>
      </trkpt>
      <trkpt lat="45.459621" lon="1.793616">
        <ele>638</ele>
        <time>2023-05-07T09:24:20Z</time>
      </trkpt>
      <trkpt lat="45.459626" lon="1.793638">
        <ele>638</ele>
        <time>2023-05-07T09:24:21Z</time>
      </trkpt>
      <trkpt lat="45.459631" lon="1.793660">
        <ele>638</ele>
        <time>2023-05-07T09:24:22Z</time>
      </trkpt>
      <trkpt lat="45.459634" lon="1.793682">
        <ele>638</ele>
        <time>2023-05-07T09:24:23Z</time>
      </trkpt>
      <trkpt lat="45.459638" lon="1.793703">
        <ele>638</ele>
        <time>2023-05-07T09:24:24Z</time>
      </trkpt>
      <trkpt lat="45.459641" lon="1.793725">
        <ele>638</ele>
        <time>2023-05-07T09:24:25Z</time>
      </trkpt>
      <trkpt lat="45.459645" lon="1.793746">
        <ele>638</ele>
        <time>2023-05-07T09:24:26Z</time>
      </trkpt>
      <trkpt lat="45.459649" lon="1.793769">
        <ele>638</ele>
        <time>2023-05-07T09:24:27Z</time>
      </trkpt>
      <trkpt lat="45.459652" lon="1.793791">
        <ele>638</ele>
        <time>2023-05-07T09:24:28Z</time>
      </trkpt>
      <trkpt lat="45.459657" lon="1.793813">
        <ele>638</ele>
        <time>2023-05-07T09:24:29Z</time>
      </trkpt>
      <trkpt lat="45.459661" lon="1.793834">
        <ele>638</ele>
        <time>2023-05-07T09:24:30Z</time>
      </trkpt>
      <trkpt lat="45.459665" lon="1.793856">
        <ele>638</ele>
        <time>2023-05-07T09:24:31Z</time>
      </trkpt>
      <trkpt lat="45.459669" lon="1.793878">
        <ele>639</ele>
        <time>2023-05-07T09:24:32Z</time>
      </trkpt>
      <trkpt lat="45.459673" lon="1.793901">
        <ele>639</ele>
        <time>2023-05-07T09:24:33Z</time>
      </trkpt>
      <trkpt lat="45.459676" lon="1.793924">
        <ele>639</ele>
        <time>2023-05-07T09:24:34Z</time>
      </trkpt>
      <trkpt lat="45.459679" lon="1.793947">
        <ele>639</ele>
        <time>2023-05-07T09:24:35Z</time>
      </trkpt>
      <trkpt lat="45.459682" lon="1.793971">
        <ele>639</ele>
        <time>2023-05-07T09:24:36Z</time>
      </trkpt>
      <trkpt lat="45.459686" lon="1.793995">
        <ele>639</ele>
        <time>2023-05-07T09:24:37Z</time>
      </trkpt>
      <trkpt lat="45.459690" lon="1.794019">
        <ele>639</ele>
        <time>2023-05-07T09:24:38Z</time>
      </trkpt>
      <trkpt lat="45.459694" lon="1.794044">
        <ele>639</ele>
        <time>2023-05-07T09:24:39Z</time>
      </trkpt>
      <trkpt lat="45.459698" lon="1.794069">
        <ele>639</ele>
        <time>2023-05-07T09:24:40Z</time>
      </trkpt>
      <trkpt lat="45.459702" lon="1.794096">
        <ele>639</ele>
        <time>2023-05-07T09:24:41Z</time>
      </trkpt>
      <trkpt lat="45.459706" lon="1.794123">
        <ele>640</ele>
        <time>2023-05-07T09:24:42Z</time>
      </trkpt>
      <trkpt lat="45.459710" lon="1.794149">
        <ele>640</ele>
        <time>2023-05-07T09:24:43Z</time>
      </trkpt>
      <trkpt lat="45.459714" lon="1.794176">
        <ele>640</ele>
        <time>2023-05-07T09:24:44Z</time>
      </trkpt>
      <trkpt lat="45.459719" lon="1.794201">
        <ele>640</ele>
        <time>2023-05-07T09:24:45Z</time>
      </trkpt>
      <trkpt lat="45.459723" lon="1.794226">
        <ele>640</ele>
        <time>2023-05-07T09:24:46Z</time>
      </trkpt>
      <trkpt lat="45.459727" lon="1.794250">
        <ele>640</ele>
        <time>2023-05-07T09:24:47Z</time>
      </trkpt>
      <trkpt lat="45.459731" lon="1.794273">
        <ele>640</ele>
        <time>2023-05-07T09:24:48Z</time>
      </trkpt>
      <trkpt lat="45.459735" lon="1.794295">
        <ele>640</ele>
        <time>2023-05-07T09:24:49Z</time>
      </trkpt>
      <trkpt lat="45.459739" lon="1.794317">
        <ele>640</ele>
        <time>2023-05-07T09:24:50Z</time>
      </trkpt>
      <trkpt lat="45.459742" lon="1.794339">
        <ele>640</ele>
        <time>2023-05-07T09:24:51Z</time>
      </trkpt>
      <trkpt lat="45.459746" lon="1.794361">
        <ele>640</ele>
        <time>2023-05-07T09:24:52Z</time>
      </trkpt>
      <trkpt lat="45.459750" lon="1.794383">
        <ele>640</ele>
        <time>2023-05-07T09:24:53Z</time>
      </trkpt>
      <trkpt lat="45.459753" lon="1.794406">
        <ele>640</ele>
        <time>2023-05-07T09:24:54Z</time>
      </trkpt>
      <trkpt lat="45.459756" lon="1.794428">
        <ele>640</ele>
        <time>2023-05-07T09:24:55Z</time>
      </trkpt>
      <trkpt lat="45.459760" lon="1.794451">
        <ele>640</ele>
        <time>2023-05-07T09:24:56Z</time>
      </trkpt>
      <trkpt lat="45.459764" lon="1.794474">
        <ele>641</ele>
        <time>2023-05-07T09:24:57Z</time>
      </trkpt>
      <trkpt lat="45.459768" lon="1.794497">
        <ele>641</ele>
        <time>2023-05-07T09:24:58Z</time>
      </trkpt>
      <trkpt lat="45.459772" lon="1.794523">
        <ele>641</ele>
        <time>2023-05-07T09:24:59Z</time>
      </trkpt>
      <trkpt lat="45.459777" lon="1.794549">
        <ele>641</ele>
        <time>2023-05-07T09:25:00Z</time>
      </trkpt>
      <trkpt lat="45.459780" lon="1.794574">
        <ele>641</ele>
        <time>2023-05-07T09:25:01Z</time>
      </trkpt>
      <trkpt lat="45.459783" lon="1.794600">
        <ele>641</ele>
        <time>2023-05-07T09:25:02Z</time>
      </trkpt>
      <trkpt lat="45.459785" lon="1.794624">
        <ele>641</ele>
        <time>2023-05-07T09:25:03Z</time>
      </trkpt>
      <trkpt lat="45.459787" lon="1.794648">
        <ele>641</ele>
        <time>2023-05-07T09:25:04Z</time>
      </trkpt>
      <trkpt lat="45.459789" lon="1.794674">
        <ele>641</ele>
        <time>2023-05-07T09:25:05Z</time>
      </trkpt>
      <trkpt lat="45.459791" lon="1.794699">
        <ele>641</ele>
        <time>2023-05-07T09:25:06Z</time>
      </trkpt>
      <trkpt lat="45.459795" lon="1.794726">
        <ele>641</ele>
        <time>2023-05-07T09:25:07Z</time>
      </trkpt>
      <trkpt lat="45.459798" lon="1.794753">
        <ele>641</ele>
        <time>2023-05-07T09:25:08Z</time>
      </trkpt>
      <trkpt lat="45.459801" lon="1.794780">
        <ele>641</ele>
        <time>2023-05-07T09:25:09Z</time>
      </trkpt>
      <trkpt lat="45.459804" lon="1.794808">
        <ele>641</ele>
        <time>2023-05-07T09:25:10Z</time>
      </trkpt>
      <trkpt lat="45.459807" lon="1.794836">
        <ele>641</ele>
        <time>2023-05-07T09:25:11Z</time>
      </trkpt>
      <trkpt lat="45.459810" lon="1.794863">
        <ele>641</ele>
        <time>2023-05-07T09:25:12Z</time>
      </trkpt>
      <trkpt lat="45.459814" lon="1.794890">
        <ele>641</ele>
        <time>2023-05-07T09:25:13Z</time>
      </trkpt>
      <trkpt lat="45.459817" lon="1.794917">
        <ele>641</ele>
        <time>2023-05-07T09:25:14Z</time>
      </trkpt>
      <trkpt lat="45.459820" lon="1.794942">
        <ele>641</ele>
        <time>2023-05-07T09:25:15Z</time>
      </trkpt>
      <trkpt lat="45.459824" lon="1.794967">
        <ele>641</ele>
        <time>2023-05-07T09:25:16Z</time>
      </trkpt>
      <trkpt lat="45.459828" lon="1.794992">
        <ele>641</ele>
        <time>2023-05-07T09:25:17Z</time>
      </trkpt>
      <trkpt lat="45.459833" lon="1.795017">
        <ele>641</ele>
        <time>2023-05-07T09:25:18Z</time>
      </trkpt>
      <trkpt lat="45.459838" lon="1.795043">
        <ele>641</ele>
        <time>2023-05-07T09:25:19Z</time>
      </trkpt>
      <trkpt lat="45.459844" lon="1.795069">
        <ele>641</ele>
        <time>2023-05-07T09:25:20Z</time>
      </trkpt>
      <trkpt lat="45.459850" lon="1.795095">
        <ele>641</ele>
        <time>2023-05-07T09:25:21Z</time>
      </trkpt>
      <trkpt lat="45.459856" lon="1.795120">
        <ele>641</ele>
        <time>2023-05-07T09:25:22Z</time>
      </trkpt>
      <trkpt lat="45.459861" lon="1.795147">
        <ele>641</ele>
        <time>2023-05-07T09:25:23Z</time>
      </trkpt>
      <trkpt lat="45.459866" lon="1.795173">
        <ele>641</ele>
        <time>2023-05-07T09:25:24Z</time>
      </trkpt>
      <trkpt lat="45.459873" lon="1.795201">
        <ele>641</ele>
        <time>2023-05-07T09:25:25Z</time>
      </trkpt>
      <trkpt lat="45.459879" lon="1.795228">
        <ele>641</ele>
        <time>2023-05-07T09:25:26Z</time>
      </trkpt>
      <trkpt lat="45.459886" lon="1.795257">
        <ele>641</ele>
        <time>2023-05-07T09:25:27Z</time>
      </trkpt>
      <trkpt lat="45.459894" lon="1.795285">
        <ele>641</ele>
        <time>2023-05-07T09:25:28Z</time>
      </trkpt>
      <trkpt lat="45.459902" lon="1.795312">
        <ele>641</ele>
        <time>2023-05-07T09:25:29Z</time>
      </trkpt>
      <trkpt lat="45.459911" lon="1.795339">
        <ele>641</ele>
        <time>2023-05-07T09:25:30Z</time>
      </trkpt>
      <trkpt lat="45.459920" lon="1.795366">
        <ele>641</ele>
        <time>2023-05-07T09:25:31Z</time>
      </trkpt>
      <trkpt lat="45.459930" lon="1.795393">
        <ele>642</ele>
        <time>2023-05-07T09:25:32Z</time>
      </trkpt>
      <trkpt lat="45.459941" lon="1.795420">
        <ele>642</ele>
        <time>2023-05-07T09:25:33Z</time>
      </trkpt>
      <trkpt lat="45.459952" lon="1.795447">
        <ele>642</ele>
        <time>2023-05-07T09:25:34Z</time>
      </trkpt>
      <trkpt lat="45.459965" lon="1.795475">
        <ele>642</ele>
        <time>2023-05-07T09:25:35Z</time>
      </trkpt>
      <trkpt lat="45.459978" lon="1.795503">
        <ele>642</ele>
        <time>2023-05-07T09:25:36Z</time>
      </trkpt>
      <trkpt lat="45.459991" lon="1.795531">
        <ele>642</ele>
        <time>2023-05-07T09:25:37Z</time>
      </trkpt>
      <trkpt lat="45.460005" lon="1.795560">
        <ele>641</ele>
        <time>2023-05-07T09:25:38Z</time>
      </trkpt>
      <trkpt lat="45.460017" lon="1.795588">
        <ele>641</ele>
        <time>2023-05-07T09:25:39Z</time>
      </trkpt>
      <trkpt lat="45.460029" lon="1.795615">
        <ele>641</ele>
        <time>2023-05-07T09:25:40Z</time>
      </trkpt>
      <trkpt lat="45.460042" lon="1.795640">
        <ele>641</ele>
        <time>2023-05-07T09:25:41Z</time>
      </trkpt>
      <trkpt lat="45.460055" lon="1.795665">
        <ele>641</ele>
        <time>2023-05-07T09:25:42Z</time>
      </trkpt>
      <trkpt lat="45.460069" lon="1.795688">
        <ele>641</ele>
        <time>2023-05-07T09:25:43Z</time>
      </trkpt>
      <trkpt lat="45.460083" lon="1.795711">
        <ele>641</ele>
        <time>2023-05-07T09:25:44Z</time>
      </trkpt>
      <trkpt lat="45.460099" lon="1.795734">
        <ele>641</ele>
        <time>2023-05-07T09:25:45Z</time>
      </trkpt>
      <trkpt lat="45.460116" lon="1.795757">
        <ele>641</ele>
        <time>2023-05-07T09:25:46Z</time>
      </trkpt>
      <trkpt lat="45.460133" lon="1.795780">
        <ele>641</ele>
        <time>2023-05-07T09:25:47Z</time>
      </trkpt>
      <trkpt lat="45.460151" lon="1.795802">
        <ele>641</ele>
        <time>2023-05-07T09:25:48Z</time>
      </trkpt>
      <trkpt lat="45.460170" lon="1.795828">
        <ele>641</ele>
        <time>2023-05-07T09:25:49Z</time>
      </trkpt>
      <trkpt lat="45.460189" lon="1.795854">
        <ele>641</ele>
        <time>2023-05-07T09:25:50Z</time>
      </trkpt>
      <trkpt lat="45.460209" lon="1.795883">
        <ele>641</ele>
        <time>2023-05-07T09:25:51Z</time>
      </trkpt>
      <trkpt lat="45.460229" lon="1.795912">
        <ele>641</ele>
        <time>2023-05-07T09:25:52Z</time>
      </trkpt>
      <trkpt lat="45.460251" lon="1.795943">
        <ele>641</ele>
        <time>2023-05-07T09:25:53Z</time>
      </trkpt>
      <trkpt lat="45.460272" lon="1.795975">
        <ele>641</ele>
        <time>2023-05-07T09:25:54Z</time>
      </trkpt>
      <trkpt lat="45.460294" lon="1.796004">
        <ele>641</ele>
        <time>2023-05-07T09:25:55Z</time>
      </trkpt>
      <trkpt lat="45.460315" lon="1.796034">
        <ele>641</ele>
        <time>2023-05-07T09:25:56Z</time>
      </trkpt>
      <trkpt lat="45.460336" lon="1.796062">
        <ele>641</ele>
        <time>2023-05-07T09:25:57Z</time>
      </trkpt>
      <trkpt lat="45.460357" lon="1.796090">
        <ele>640</ele>
        <time>2023-05-07T09:25:58Z</time>
      </trkpt>
      <trkpt lat="45.460378" lon="1.796118">
        <ele>640</ele>
        <time>2023-05-07T09:25:59Z</time>
      </trkpt>
      <trkpt lat="45.460400" lon="1.796145">
        <ele>640</ele>
        <time>2023-05-07T09:26:00Z</time>
      </trkpt>
      <trkpt lat="45.460420" lon="1.796176">
        <ele>640</ele>
        <time>2023-05-07T09:26:01Z</time>
      </trkpt>
      <trkpt lat="45.460441" lon="1.796207">
        <ele>640</ele>
        <time>2023-05-07T09:26:02Z</time>
      </trkpt>
      <trkpt lat="45.460460" lon="1.796238">
        <ele>640</ele>
        <time>2023-05-07T09:26:03Z</time>
      </trkpt>
      <trkpt lat="45.460478" lon="1.796269">
        <ele>640</ele>
        <time>2023-05-07T09:26:04Z</time>
      </trkpt>
      <trkpt lat="45.460494" lon="1.796300">
        <ele>640</ele>
        <time>2023-05-07T09:26:05Z</time>
      </trkpt>
      <trkpt lat="45.460510" lon="1.796331">
        <ele>640</ele>
        <time>2023-05-07T09:26:06Z</time>
      </trkpt>
      <trkpt lat="45.460523" lon="1.796364">
        <ele>640</ele>
        <time>2023-05-07T09:26:07Z</time>
      </trkpt>
      <trkpt lat="45.460536" lon="1.796398">
        <ele>639</ele>
        <time>2023-05-07T09:26:08Z</time>
      </trkpt>
      <trkpt lat="45.460547" lon="1.796432">
        <ele>639</ele>
        <time>2023-05-07T09:26:09Z</time>
      </trkpt>
      <trkpt lat="45.460558" lon="1.796467">
        <ele>639</ele>
        <time>2023-05-07T09:26:10Z</time>
      </trkpt>
      <trkpt lat="45.460566" lon="1.796498">
        <ele>639</ele>
        <time>2023-05-07T09:26:11Z</time>
      </trkpt>
      <trkpt lat="45.460574" lon="1.796529">
        <ele>639</ele>
        <time>2023-05-07T09:26:12Z</time>
      </trkpt>
      <trkpt lat="45.460580" lon="1.796554">
        <ele>638</ele>
        <time>2023-05-07T09:26:13Z</time>
      </trkpt>
      <trkpt lat="45.460586" lon="1.796579">
        <ele>638</ele>
        <time>2023-05-07T09:26:14Z</time>
      </trkpt>
      <trkpt lat="45.460593" lon="1.796604">
        <ele>638</ele>
        <time>2023-05-07T09:26:15Z</time>
      </trkpt>
      <trkpt lat="45.460600" lon="1.796628">
        <ele>638</ele>
        <time>2023-05-07T09:26:16Z</time>
      </trkpt>
      <trkpt lat="45.460607" lon="1.796653">
        <ele>638</ele>
        <time>2023-05-07T09:26:17Z</time>
      </trkpt>
      <trkpt lat="45.460614" lon="1.796678">
        <ele>638</ele>
        <time>2023-05-07T09:26:18Z</time>
      </trkpt>
      <trkpt lat="45.460620" lon="1.796706">
        <ele>638</ele>
        <time>2023-05-07T09:26:19Z</time>
      </trkpt>
      <trkpt lat="45.460625" lon="1.796733">
        <ele>638</ele>
        <time>2023-05-07T09:26:20Z</time>
      </trkpt>
      <trkpt lat="45.460632" lon="1.796766">
        <ele>638</ele>
        <time>2023-05-07T09:26:21Z</time>
      </trkpt>
      <trkpt lat="45.460640" lon="1.796799">
        <ele>638</ele>
        <time>2023-05-07T09:26:22Z</time>
      </trkpt>
      <trkpt lat="45.460649" lon="1.796834">
        <ele>637</ele>
        <time>2023-05-07T09:26:23Z</time>
      </trkpt>
      <trkpt lat="45.460658" lon="1.796869">
        <ele>637</ele>
        <time>2023-05-07T09:26:24Z</time>
      </trkpt>
      <trkpt lat="45.460669" lon="1.796902">
        <ele>637</ele>
        <time>2023-05-07T09:26:25Z</time>
      </trkpt>
      <trkpt lat="45.460681" lon="1.796935">
        <ele>637</ele>
        <time>2023-05-07T09:26:26Z</time>
      </trkpt>
      <trkpt lat="45.460692" lon="1.796967">
        <ele>637</ele>
        <time>2023-05-07T09:26:27Z</time>
      </trkpt>
      <trkpt lat="45.460704" lon="1.796999">
        <ele>636</ele>
        <time>2023-05-07T09:26:28Z</time>
      </trkpt>
      <trkpt lat="45.460716" lon="1.797030">
        <ele>636</ele>
        <time>2023-05-07T09:26:29Z</time>
      </trkpt>
      <trkpt lat="45.460727" lon="1.797062">
        <ele>636</ele>
        <time>2023-05-07T09:26:30Z</time>
      </trkpt>
      <trkpt lat="45.460738" lon="1.797092">
        <ele>636</ele>
        <time>2023-05-07T09:26:31Z</time>
      </trkpt>
      <trkpt lat="45.460748" lon="1.797123">
        <ele>636</ele>
        <time>2023-05-07T09:26:32Z</time>
      </trkpt>
      <trkpt lat="45.460758" lon="1.797155">
        <ele>636</ele>
        <time>2023-05-07T09:26:33Z</time>
      </trkpt>
      <trkpt lat="45.460768" lon="1.797187">
        <ele>636</ele>
        <time>2023-05-07T09:26:34Z</time>
      </trkpt>
      <trkpt lat="45.460775" lon="1.797221">
        <ele>636</ele>
        <time>2023-05-07T09:26:35Z</time>
      </trkpt>
      <trkpt lat="45.460782" lon="1.797256">
        <ele>636</ele>
        <time>2023-05-07T09:26:36Z</time>
      </trkpt>
      <trkpt lat="45.460786" lon="1.797292">
        <ele>636</ele>
        <time>2023-05-07T09:26:37Z</time>
      </trkpt>
      <trkpt lat="45.460791" lon="1.797328">
        <ele>635</ele>
        <time>2023-05-07T09:26:38Z</time>
      </trkpt>
      <trkpt lat="45.460794" lon="1.797367">
        <ele>635</ele>
        <time>2023-05-07T09:26:39Z</time>
      </trkpt>
      <trkpt lat="45.460799" lon="1.797405">
        <ele>635</ele>
        <time>2023-05-07T09:26:40Z</time>
      </trkpt>
      <trkpt lat="45.460802" lon="1.797444">
        <ele>635</ele>
        <time>2023-05-07T09:26:41Z</time>
      </trkpt>
      <trkpt lat="45.460804" lon="1.797483">
        <ele>635</ele>
        <time>2023-05-07T09:26:42Z</time>
      </trkpt>
      <trkpt lat="45.460804" lon="1.797520">
        <ele>635</ele>
        <time>2023-05-07T09:26:43Z</time>
      </trkpt>
      <trkpt lat="45.460803" lon="1.797557">
        <ele>635</ele>
        <time>2023-05-07T09:26:44Z</time>
      </trkpt>
      <trkpt lat="45.460798" lon="1.797590">
        <ele>635</ele>
        <time>2023-05-07T09:26:45Z</time>
      </trkpt>
      <trkpt lat="45.460794" lon="1.797623">
        <ele>635</ele>
        <time>2023-05-07T09:26:46Z</time>
      </trkpt>
      <trkpt lat="45.460786" lon="1.797651">
        <ele>635</ele>
        <time>2023-05-07T09:26:47Z</time>
      </trkpt>
      <trkpt lat="45.460779" lon="1.797679">
        <ele>634</ele>
        <time>2023-05-07T09:26:48Z</time>
      </trkpt>
      <trkpt lat="45.460767" lon="1.797704">
        <ele>634</ele>
        <time>2023-05-07T09:26:49Z</time>
      </trkpt>
      <trkpt lat="45.460756" lon="1.797729">
        <ele>634</ele>
        <time>2023-05-07T09:26:50Z</time>
      </trkpt>
      <trkpt lat="45.460744" lon="1.797755">
        <ele>634</ele>
        <time>2023-05-07T09:26:51Z</time>
      </trkpt>
      <trkpt lat="45.460732" lon="1.797780">
        <ele>634</ele>
        <time>2023-05-07T09:26:52Z</time>
      </trkpt>
      <trkpt lat="45.460719" lon="1.797808">
        <ele>634</ele>
        <time>2023-05-07T09:26:53Z</time>
      </trkpt>
      <trkpt lat="45.460706" lon="1.797835">
        <ele>634</ele>
        <time>2023-05-07T09:26:54Z</time>
      </trkpt>
      <trkpt lat="45.460692" lon="1.797864">
        <ele>634</ele>
        <time>2023-05-07T09:26:55Z</time>
      </trkpt>
      <trkpt lat="45.460679" lon="1.797894">
        <ele>634</ele>
        <time>2023-05-07T09:26:56Z</time>
      </trkpt>
      <trkpt lat="45.460665" lon="1.797924">
        <ele>634</ele>
        <time>2023-05-07T09:26:57Z</time>
      </trkpt>
      <trkpt lat="45.460652" lon="1.797955">
        <ele>634</ele>
        <time>2023-05-07T09:26:58Z</time>
      </trkpt>
      <trkpt lat="45.460639" lon="1.797987">
        <ele>634</ele>
        <time>2023-05-07T09:26:59Z</time>
      </trkpt>
      <trkpt lat="45.460627" lon="1.798018">
        <ele>634</ele>
        <time>2023-05-07T09:27:00Z</time>
      </trkpt>
      <trkpt lat="45.460614" lon="1.798050">
        <ele>634</ele>
        <time>2023-05-07T09:27:01Z</time>
      </trkpt>
      <trkpt lat="45.460602" lon="1.798081">
        <ele>634</ele>
        <time>2023-05-07T09:27:02Z</time>
      </trkpt>
      <trkpt lat="45.460589" lon="1.798111">
        <ele>634</ele>
        <time>2023-05-07T09:27:03Z</time>
      </trkpt>
      <trkpt lat="45.460577" lon="1.798142">
        <ele>634</ele>
        <time>2023-05-07T09:27:04Z</time>
      </trkpt>
      <trkpt lat="45.460564" lon="1.798171">
        <ele>634</ele>
        <time>2023-05-07T09:27:05Z</time>
      </trkpt>
      <trkpt lat="45.460552" lon="1.798201">
        <ele>634</ele>
        <time>2023-05-07T09:27:06Z</time>
      </trkpt>
      <trkpt lat="45.460539" lon="1.798229">
        <ele>634</ele>
        <time>2023-05-07T09:27:07Z</time>
      </trkpt>
      <trkpt lat="45.460527" lon="1.798258">
        <ele>634</ele>
        <time>2023-05-07T09:27:08Z</time>
      </trkpt>
      <trkpt lat="45.460515" lon="1.798286">
        <ele>634</ele>
        <time>2023-05-07T09:27:09Z</time>
      </trkpt>
      <trkpt lat="45.460504" lon="1.798313">
        <ele>634</ele>
        <time>2023-05-07T09:27:10Z</time>
      </trkpt>
      <trkpt lat="45.460493" lon="1.798341">
        <ele>634</ele>
        <time>2023-05-07T09:27:11Z</time>
      </trkpt>
      <trkpt lat="45.460481" lon="1.798368">
        <ele>634</ele>
        <time>2023-05-07T09:27:12Z</time>
      </trkpt>
      <trkpt lat="45.460470" lon="1.798396">
        <ele>634</ele>
        <time>2023-05-07T09:27:13Z</time>
      </trkpt>
      <trkpt lat="45.460458" lon="1.798424">
        <ele>634</ele>
        <time>2023-05-07T09:27:14Z</time>
      </trkpt>
      <trkpt lat="45.460447" lon="1.798453">
        <ele>634</ele>
        <time>2023-05-07T09:27:15Z</time>
      </trkpt>
      <trkpt lat="45.460435" lon="1.798481">
        <ele>634</ele>
        <time>2023-05-07T09:27:16Z</time>
      </trkpt>
      <trkpt lat="45.460424" lon="1.798510">
        <ele>634</ele>
        <time>2023-05-07T09:27:17Z</time>
      </trkpt>
      <trkpt lat="45.460413" lon="1.798539">
        <ele>634</ele>
        <time>2023-05-07T09:27:18Z</time>
      </trkpt>
      <trkpt lat="45.460400" lon="1.798567">
        <ele>634</ele>
        <time>2023-05-07T09:27:19Z</time>
      </trkpt>
      <trkpt lat="45.460387" lon="1.798595">
        <ele>634</ele>
        <time>2023-05-07T09:27:20Z</time>
      </trkpt>
      <trkpt lat="45.460374" lon="1.798624">
        <ele>634</ele>
        <time>2023-05-07T09:27:21Z</time>
      </trkpt>
      <trkpt lat="45.460360" lon="1.798653">
        <ele>634</ele>
        <time>2023-05-07T09:27:22Z</time>
      </trkpt>
      <trkpt lat="45.460347" lon="1.798682">
        <ele>634</ele>
        <time>2023-05-07T09:27:23Z</time>
      </trkpt>
      <trkpt lat="45.460333" lon="1.798711">
        <ele>634</ele>
        <time>2023-05-07T09:27:24Z</time>
      </trkpt>
      <trkpt lat="45.460321" lon="1.798739">
        <ele>634</ele>
        <time>2023-05-07T09:27:25Z</time>
      </trkpt>
      <trkpt lat="45.460309" lon="1.798768">
        <ele>634</ele>
        <time>2023-05-07T09:27:26Z</time>
      </trkpt>
      <trkpt lat="45.460298" lon="1.798797">
        <ele>634</ele>
        <time>2023-05-07T09:27:27Z</time>
      </trkpt>
      <trkpt lat="45.460287" lon="1.798826">
        <ele>634</ele>
        <time>2023-05-07T09:27:28Z</time>
      </trkpt>
      <trkpt lat="45.460275" lon="1.798855">
        <ele>634</ele>
        <time>2023-05-07T09:27:29Z</time>
      </trkpt>
      <trkpt lat="45.460264" lon="1.798883">
        <ele>634</ele>
        <time>2023-05-07T09:27:30Z</time>
      </trkpt>
      <trkpt lat="45.460253" lon="1.798912">
        <ele>634</ele>
        <time>2023-05-07T09:27:31Z</time>
      </trkpt>
      <trkpt lat="45.460242" lon="1.798941">
        <ele>634</ele>
        <time>2023-05-07T09:27:32Z</time>
      </trkpt>
      <trkpt lat="45.460231" lon="1.798969">
        <ele>634</ele>
        <time>2023-05-07T09:27:33Z</time>
      </trkpt>
      <trkpt lat="45.460220" lon="1.798997">
        <ele>634</ele>
        <time>2023-05-07T09:27:34Z</time>
      </trkpt>
      <trkpt lat="45.460210" lon="1.799023">
        <ele>634</ele>
        <time>2023-05-07T09:27:35Z</time>
      </trkpt>
      <trkpt lat="45.460199" lon="1.799049">
        <ele>634</ele>
        <time>2023-05-07T09:27:36Z</time>
      </trkpt>
      <trkpt lat="45.460188" lon="1.799075">
        <ele>634</ele>
        <time>2023-05-07T09:27:37Z</time>
      </trkpt>
      <trkpt lat="45.460177" lon="1.799101">
        <ele>634</ele>
        <time>2023-05-07T09:27:38Z</time>
      </trkpt>
      <trkpt lat="45.460165" lon="1.799129">
        <ele>634</ele>
        <time>2023-05-07T09:27:39Z</time>
      </trkpt>
      <trkpt lat="45.460153" lon="1.799156">
        <ele>634</ele>
        <time>2023-05-07T09:27:40Z</time>
      </trkpt>
      <trkpt lat="45.460141" lon="1.799184">
        <ele>634</ele>
        <time>2023-05-07T09:27:41Z</time>
      </trkpt>
      <trkpt lat="45.460129" lon="1.799212">
        <ele>634</ele>
        <time>2023-05-07T09:27:42Z</time>
      </trkpt>
      <trkpt lat="45.460116" lon="1.799239">
        <ele>634</ele>
        <time>2023-05-07T09:27:43Z</time>
      </trkpt>
      <trkpt lat="45.460103" lon="1.799265">
        <ele>634</ele>
        <time>2023-05-07T09:27:44Z</time>
      </trkpt>
      <trkpt lat="45.460090" lon="1.799291">
        <ele>634</ele>
        <time>2023-05-07T09:27:45Z</time>
      </trkpt>
      <trkpt lat="45.460076" lon="1.799316">
        <ele>634</ele>
        <time>2023-05-07T09:27:46Z</time>
      </trkpt>
      <trkpt lat="45.460062" lon="1.799343">
        <ele>634</ele>
        <time>2023-05-07T09:27:47Z</time>
      </trkpt>
      <trkpt lat="45.460048" lon="1.799369">
        <ele>634</ele>
        <time>2023-05-07T09:27:48Z</time>
      </trkpt>
      <trkpt lat="45.460032" lon="1.799395">
        <ele>634</ele>
        <time>2023-05-07T09:27:49Z</time>
      </trkpt>
      <trkpt lat="45.460017" lon="1.799422">
        <ele>634</ele>
        <time>2023-05-07T09:27:50Z</time>
      </trkpt>
      <trkpt lat="45.460000" lon="1.799447">
        <ele>634</ele>
        <time>2023-05-07T09:27:51Z</time>
      </trkpt>
      <trkpt lat="45.459984" lon="1.799472">
        <ele>634</ele>
        <time>2023-05-07T09:27:52Z</time>
      </trkpt>
      <trkpt lat="45.459965" lon="1.799498">
        <ele>634</ele>
        <time>2023-05-07T09:27:53Z</time>
      </trkpt>
      <trkpt lat="45.459947" lon="1.799523">
        <ele>634</ele>
        <time>2023-05-07T09:27:54Z</time>
      </trkpt>
      <trkpt lat="45.459926" lon="1.799548">
        <ele>634</ele>
        <time>2023-05-07T09:27:55Z</time>
      </trkpt>
      <trkpt lat="45.459905" lon="1.799573">
        <ele>634</ele>
        <time>2023-05-07T09:27:56Z</time>
      </trkpt>
      <trkpt lat="45.459882" lon="1.799595">
        <ele>634</ele>
        <time>2023-05-07T09:27:57Z</time>
      </trkpt>
      <trkpt lat="45.459859" lon="1.799618">
        <ele>634</ele>
        <time>2023-05-07T09:27:58Z</time>
      </trkpt>
      <trkpt lat="45.459834" lon="1.799638">
        <ele>634</ele>
        <time>2023-05-07T09:27:59Z</time>
      </trkpt>
      <trkpt lat="45.459809" lon="1.799658">
        <ele>634</ele>
        <time>2023-05-07T09:28:00Z</time>
      </trkpt>
      <trkpt lat="45.459784" lon="1.799678">
        <ele>634</ele>
        <time>2023-05-07T09:28:01Z</time>
      </trkpt>
      <trkpt lat="45.459758" lon="1.799699">
        <ele>634</ele>
        <time>2023-05-07T09:28:02Z</time>
      </trkpt>
      <trkpt lat="45.459731" lon="1.799723">
        <ele>634</ele>
        <time>2023-05-07T09:28:03Z</time>
      </trkpt>
      <trkpt lat="45.459704" lon="1.799747">
        <ele>634</ele>
        <time>2023-05-07T09:28:04Z</time>
      </trkpt>
      <trkpt lat="45.459675" lon="1.799775">
        <ele>634</ele>
        <time>2023-05-07T09:28:05Z</time>
      </trkpt>
      <trkpt lat="45.459647" lon="1.799804">
        <ele>634</ele>
        <time>2023-05-07T09:28:06Z</time>
      </trkpt>
      <trkpt lat="45.459618" lon="1.799836">
        <ele>634</ele>
        <time>2023-05-07T09:28:07Z</time>
      </trkpt>
      <trkpt lat="45.459589" lon="1.799868">
        <ele>633</ele>
        <time>2023-05-07T09:28:08Z</time>
      </trkpt>
      <trkpt lat="45.459562" lon="1.799901">
        <ele>633</ele>
        <time>2023-05-07T09:28:09Z</time>
      </trkpt>
      <trkpt lat="45.459535" lon="1.799934">
        <ele>633</ele>
        <time>2023-05-07T09:28:10Z</time>
      </trkpt>
      <trkpt lat="45.459508" lon="1.799966">
        <ele>633</ele>
        <time>2023-05-07T09:28:11Z</time>
      </trkpt>
      <trkpt lat="45.459480" lon="1.799998">
        <ele>633</ele>
        <time>2023-05-07T09:28:12Z</time>
      </trkpt>
      <trkpt lat="45.459451" lon="1.800028">
        <ele>632</ele>
        <time>2023-05-07T09:28:13Z</time>
      </trkpt>
      <trkpt lat="45.459421" lon="1.800059">
        <ele>632</ele>
        <time>2023-05-07T09:28:14Z</time>
      </trkpt>
      <trkpt lat="45.459389" lon="1.800086">
        <ele>632</ele>
        <time>2023-05-07T09:28:15Z</time>
      </trkpt>
      <trkpt lat="45.459357" lon="1.800114">
        <ele>632</ele>
        <time>2023-05-07T09:28:16Z</time>
      </trkpt>
      <trkpt lat="45.459324" lon="1.800138">
        <ele>632</ele>
        <time>2023-05-07T09:28:17Z</time>
      </trkpt>
      <trkpt lat="45.459292" lon="1.800163">
        <ele>631</ele>
        <time>2023-05-07T09:28:18Z</time>
      </trkpt>
      <trkpt lat="45.459261" lon="1.800185">
        <ele>631</ele>
        <time>2023-05-07T09:28:19Z</time>
      </trkpt>
      <trkpt lat="45.459230" lon="1.800207">
        <ele>631</ele>
        <time>2023-05-07T09:28:20Z</time>
      </trkpt>
      <trkpt lat="45.459204" lon="1.800226">
        <ele>631</ele>
        <time>2023-05-07T09:28:21Z</time>
      </trkpt>
      <trkpt lat="45.459177" lon="1.800246">
        <ele>631</ele>
        <time>2023-05-07T09:28:22Z</time>
      </trkpt>
      <trkpt lat="45.459154" lon="1.800259">
        <ele>630</ele>
        <time>2023-05-07T09:28:23Z</time>
      </trkpt>
      <trkpt lat="45.459132" lon="1.800273">
        <ele>630</ele>
        <time>2023-05-07T09:28:24Z</time>
      </trkpt>
      <trkpt lat="45.459113" lon="1.800286">
        <ele>629</ele>
        <time>2023-05-07T09:28:25Z</time>
      </trkpt>
      <trkpt lat="45.459093" lon="1.800299">
        <ele>629</ele>
        <time>2023-05-07T09:28:26Z</time>
      </trkpt>
      <trkpt lat="45.459077" lon="1.800313">
        <ele>629</ele>
        <time>2023-05-07T09:28:27Z</time>
      </trkpt>
      <trkpt lat="45.459060" lon="1.800327">
        <ele>628</ele>
        <time>2023-05-07T09:28:28Z</time>
      </trkpt>
      <trkpt lat="45.459047" lon="1.800338">
        <ele>628</ele>
        <time>2023-05-07T09:28:29Z</time>
      </trkpt>
      <trkpt lat="45.459033" lon="1.800350">
        <ele>628</ele>
        <time>2023-05-07T09:28:30Z</time>
      </trkpt>
      <trkpt lat="45.459020" lon="1.800367">
        <ele>626</ele>
        <time>2023-05-07T09:29:48Z</time>
      </trkpt>
      <trkpt lat="45.459020" lon="1.800373">
        <ele>626</ele>
        <time>2023-05-07T09:29:49Z</time>
      </trkpt>
      <trkpt lat="45.459020" lon="1.800379">
        <ele>626</ele>
        <time>2023-05-07T09:29:50Z</time>
      </trkpt>
      <trkpt lat="45.459022" lon="1.800383">
        <ele>626</ele>
        <time>2023-05-07T09:29:51Z</time>
      </trkpt>
      <trkpt lat="45.459024" lon="1.800386">
        <ele>626</ele>
        <time>2023-05-07T09:29:52Z</time>
      </trkpt>
      <trkpt lat="45.459026" lon="1.800390">
        <ele>626</ele>
        <time>2023-05-07T09:29:53Z</time>
      </trkpt>
      <trkpt lat="45.459033" lon="1.800396">
        <ele>626</ele>
        <time>2023-05-07T09:29:54Z</time>
      </trkpt>
      <trkpt lat="45.459040" lon="1.800401">
        <ele>626</ele>
        <time>2023-05-07T09:29:55Z</time>
      </trkpt>
      <trkpt lat="45.459050" lon="1.800409">
        <ele>626</ele>
        <time>2023-05-07T09:29:56Z</time>
      </trkpt>
      <trkpt lat="45.459060" lon="1.800417">
        <ele>626</ele>
        <time>2023-05-07T09:29:57Z</time>
      </trkpt>
      <trkpt lat="45.459071" lon="1.800425">
        <ele>626</ele>
        <time>2023-05-07T09:29:58Z</time>
      </trkpt>
      <trkpt lat="45.459085" lon="1.800435">
        <ele>626</ele>
        <time>2023-05-07T09:29:59Z</time>
      </trkpt>
      <trkpt lat="45.459100" lon="1.800445">
        <ele>626</ele>
        <time>2023-05-07T09:30:00Z</time>
      </trkpt>
      <trkpt lat="45.459118" lon="1.800456">
        <ele>626</ele>
        <time>2023-05-07T09:30:01Z</time>
      </trkpt>
      <trkpt lat="45.459136" lon="1.800468">
        <ele>626</ele>
        <time>2023-05-07T09:30:02Z</time>
      </trkpt>
      <trkpt lat="45.459159" lon="1.800481">
        <ele>626</ele>
        <time>2023-05-07T09:30:03Z</time>
      </trkpt>
      <trkpt lat="45.459181" lon="1.800493">
        <ele>626</ele>
        <time>2023-05-07T09:30:04Z</time>
      </trkpt>
      <trkpt lat="45.459207" lon="1.800505">
        <ele>626</ele>
        <time>2023-05-07T09:30:05Z</time>
      </trkpt>
      <trkpt lat="45.459233" lon="1.800517">
        <ele>626</ele>
        <time>2023-05-07T09:30:06Z</time>
      </trkpt>
      <trkpt lat="45.459263" lon="1.800528">
        <ele>626</ele>
        <time>2023-05-07T09:30:07Z</time>
      </trkpt>
      <trkpt lat="45.459293" lon="1.800540">
        <ele>626</ele>
        <time>2023-05-07T09:30:08Z</time>
      </trkpt>
      <trkpt lat="45.459325" lon="1.800552">
        <ele>626</ele>
        <time>2023-05-07T09:30:09Z</time>
      </trkpt>
      <trkpt lat="45.459357" lon="1.800563">
        <ele>626</ele>
        <time>2023-05-07T09:30:10Z</time>
      </trkpt>
      <trkpt lat="45.459390" lon="1.800575">
        <ele>626</ele>
        <time>2023-05-07T09:30:11Z</time>
      </trkpt>
      <trkpt lat="45.459423" lon="1.800587">
        <ele>626</ele>
        <time>2023-05-07T09:30:12Z</time>
      </trkpt>
      <trkpt lat="45.459454" lon="1.800600">
        <ele>625</ele>
        <time>2023-05-07T09:30:13Z</time>
      </trkpt>
      <trkpt lat="45.459485" lon="1.800614">
        <ele>625</ele>
        <time>2023-05-07T09:30:14Z</time>
      </trkpt>
      <trkpt lat="45.459515" lon="1.800629">
        <ele>625</ele>
        <time>2023-05-07T09:30:15Z</time>
      </trkpt>
      <trkpt lat="45.459544" lon="1.800644">
        <ele>625</ele>
        <time>2023-05-07T09:30:16Z</time>
      </trkpt>
      <trkpt lat="45.459572" lon="1.800660">
        <ele>625</ele>
        <time>2023-05-07T09:30:17Z</time>
      </trkpt>
      <trkpt lat="45.459601" lon="1.800675">
        <ele>625</ele>
        <time>2023-05-07T09:30:18Z</time>
      </trkpt>
      <trkpt lat="45.459629" lon="1.800692">
        <ele>625</ele>
        <time>2023-05-07T09:30:19Z</time>
      </trkpt>
      <trkpt lat="45.459659" lon="1.800709">
        <ele>625</ele>
        <time>2023-05-07T09:30:20Z</time>
      </trkpt>
      <trkpt lat="45.459690" lon="1.800729">
        <ele>625</ele>
        <time>2023-05-07T09:30:21Z</time>
      </trkpt>
      <trkpt lat="45.459721" lon="1.800750">
        <ele>625</ele>
        <time>2023-05-07T09:30:22Z</time>
      </trkpt>
      <trkpt lat="45.459755" lon="1.800779">
        <ele>624</ele>
        <time>2023-05-07T09:30:23Z</time>
      </trkpt>
      <trkpt lat="45.459790" lon="1.800809">
        <ele>624</ele>
        <time>2023-05-07T09:30:24Z</time>
      </trkpt>
      <trkpt lat="45.459821" lon="1.800844">
        <ele>624</ele>
        <time>2023-05-07T09:30:25Z</time>
      </trkpt>
      <trkpt lat="45.459852" lon="1.800880">
        <ele>624</ele>
        <time>2023-05-07T09:30:26Z</time>
      </trkpt>
      <trkpt lat="45.459879" lon="1.800924">
        <ele>624</ele>
        <time>2023-05-07T09:30:27Z</time>
      </trkpt>
      <trkpt lat="45.459905" lon="1.800969">
        <ele>623</ele>
        <time>2023-05-07T09:30:28Z</time>
      </trkpt>
      <trkpt lat="45.459927" lon="1.801021">
        <ele>623</ele>
        <time>2023-05-07T09:30:29Z</time>
      </trkpt>
      <trkpt lat="45.459949" lon="1.801074">
        <ele>623</ele>
        <time>2023-05-07T09:30:30Z</time>
      </trkpt>
      <trkpt lat="45.459966" lon="1.801131">
        <ele>623</ele>
        <time>2023-05-07T09:30:31Z</time>
      </trkpt>
      <trkpt lat="45.459982" lon="1.801188">
        <ele>623</ele>
        <time>2023-05-07T09:30:32Z</time>
      </trkpt>
      <trkpt lat="45.459995" lon="1.801249">
        <ele>622</ele>
        <time>2023-05-07T09:30:33Z</time>
      </trkpt>
      <trkpt lat="45.460008" lon="1.801310">
        <ele>622</ele>
        <time>2023-05-07T09:30:34Z</time>
      </trkpt>
      <trkpt lat="45.460019" lon="1.801373">
        <ele>622</ele>
        <time>2023-05-07T09:30:35Z</time>
      </trkpt>
      <trkpt lat="45.460030" lon="1.801435">
        <ele>622</ele>
        <time>2023-05-07T09:30:36Z</time>
      </trkpt>
      <trkpt lat="45.460041" lon="1.801499">
        <ele>622</ele>
        <time>2023-05-07T09:30:37Z</time>
      </trkpt>
      <trkpt lat="45.460051" lon="1.801563">
        <ele>621</ele>
        <time>2023-05-07T09:30:38Z</time>
      </trkpt>
      <trkpt lat="45.460062" lon="1.801633">
        <ele>621</ele>
        <time>2023-05-07T09:30:39Z</time>
      </trkpt>
      <trkpt lat="45.460074" lon="1.801704">
        <ele>621</ele>
        <time>2023-05-07T09:30:40Z</time>
      </trkpt>
      <trkpt lat="45.460087" lon="1.801781">
        <ele>621</ele>
        <time>2023-05-07T09:30:41Z</time>
      </trkpt>
      <trkpt lat="45.460100" lon="1.801857">
        <ele>621</ele>
        <time>2023-05-07T09:30:42Z</time>
      </trkpt>
      <trkpt lat="45.460114" lon="1.801937">
        <ele>620</ele>
        <time>2023-05-07T09:30:43Z</time>
      </trkpt>
      <trkpt lat="45.460129" lon="1.802017">
        <ele>620</ele>
        <time>2023-05-07T09:30:44Z</time>
      </trkpt>
      <trkpt lat="45.460142" lon="1.802096">
        <ele>620</ele>
        <time>2023-05-07T09:30:45Z</time>
      </trkpt>
      <trkpt lat="45.460156" lon="1.802174">
        <ele>620</ele>
        <time>2023-05-07T09:30:46Z</time>
      </trkpt>
      <trkpt lat="45.460169" lon="1.802249">
        <ele>620</ele>
        <time>2023-05-07T09:30:47Z</time>
      </trkpt>
      <trkpt lat="45.460182" lon="1.802324">
        <ele>619</ele>
        <time>2023-05-07T09:30:48Z</time>
      </trkpt>
      <trkpt lat="45.460195" lon="1.802398">
        <ele>619</ele>
        <time>2023-05-07T09:30:49Z</time>
      </trkpt>
      <trkpt lat="45.460209" lon="1.802473">
        <ele>618</ele>
        <time>2023-05-07T09:30:50Z</time>
      </trkpt>
      <trkpt lat="45.460220" lon="1.802538">
        <ele>618</ele>
        <time>2023-05-07T09:30:51Z</time>
      </trkpt>
      <trkpt lat="45.460232" lon="1.802603">
        <ele>618</ele>
        <time>2023-05-07T09:30:52Z</time>
      </trkpt>
      <trkpt lat="45.460243" lon="1.802660">
        <ele>617</ele>
        <time>2023-05-07T09:30:53Z</time>
      </trkpt>
      <trkpt lat="45.460254" lon="1.802716">
        <ele>617</ele>
        <time>2023-05-07T09:30:54Z</time>
      </trkpt>
      <trkpt lat="45.460265" lon="1.802765">
        <ele>616</ele>
        <time>2023-05-07T09:30:55Z</time>
      </trkpt>
      <trkpt lat="45.460275" lon="1.802814">
        <ele>616</ele>
        <time>2023-05-07T09:30:56Z</time>
      </trkpt>
      <trkpt lat="45.460283" lon="1.802856">
        <ele>616</ele>
        <time>2023-05-07T09:30:57Z</time>
      </trkpt>
      <trkpt lat="45.460290" lon="1.802898">
        <ele>615</ele>
        <time>2023-05-07T09:30:58Z</time>
      </trkpt>
      <trkpt lat="45.460290" lon="1.802936">
        <ele>615</ele>
        <time>2023-05-07T09:30:59Z</time>
      </trkpt>
      <trkpt lat="45.460291" lon="1.802973">
        <ele>615</ele>
        <time>2023-05-07T09:31:00Z</time>
      </trkpt>
      <trkpt lat="45.460280" lon="1.803005">
        <ele>615</ele>
        <time>2023-05-07T09:31:01Z</time>
      </trkpt>
      <trkpt lat="45.460270" lon="1.803037">
        <ele>615</ele>
        <time>2023-05-07T09:31:02Z</time>
      </trkpt>
      <trkpt lat="45.460248" lon="1.803057">
        <ele>614</ele>
        <time>2023-05-07T09:31:03Z</time>
      </trkpt>
      <trkpt lat="45.460226" lon="1.803077">
        <ele>614</ele>
        <time>2023-05-07T09:31:04Z</time>
      </trkpt>
      <trkpt lat="45.460197" lon="1.803083">
        <ele>614</ele>
        <time>2023-05-07T09:31:05Z</time>
      </trkpt>
      <trkpt lat="45.460168" lon="1.803088">
        <ele>614</ele>
        <time>2023-05-07T09:31:06Z</time>
      </trkpt>
      <trkpt lat="45.460138" lon="1.803083">
        <ele>614</ele>
        <time>2023-05-07T09:31:07Z</time>
      </trkpt>
      <trkpt lat="45.460108" lon="1.803078">
        <ele>614</ele>
        <time>2023-05-07T09:31:08Z</time>
      </trkpt>
      <trkpt lat="45.460084" lon="1.803065">
        <ele>614</ele>
        <time>2023-05-07T09:31:09Z</time>
      </trkpt>
      <trkpt lat="45.460060" lon="1.803053">
        <ele>614</ele>
        <time>2023-05-07T09:31:10Z</time>
      </trkpt>
      <trkpt lat="45.460037" lon="1.803037">
        <ele>614</ele>
        <time>2023-05-07T09:31:11Z</time>
      </trkpt>
      <trkpt lat="45.460015" lon="1.803022">
        <ele>614</ele>
        <time>2023-05-07T09:31:12Z</time>
      </trkpt>
      <trkpt lat="45.459996" lon="1.803006">
        <ele>614</ele>
        <time>2023-05-07T09:31:13Z</time>
      </trkpt>
      <trkpt lat="45.459976" lon="1.802990">
        <ele>614</ele>
        <time>2023-05-07T09:31:14Z</time>
      </trkpt>
      <trkpt lat="45.459955" lon="1.802975">
        <ele>614</ele>
        <time>2023-05-07T09:31:15Z</time>
      </trkpt>
      <trkpt lat="45.459935" lon="1.802959">
        <ele>614</ele>
        <time>2023-05-07T09:31:16Z</time>
      </trkpt>
      <trkpt lat="45.459913" lon="1.802947">
        <ele>614</ele>
        <time>2023-05-07T09:31:17Z</time>
      </trkpt>
      <trkpt lat="45.459891" lon="1.802935">
        <ele>614</ele>
        <time>2023-05-07T09:31:18Z</time>
      </trkpt>
      <trkpt lat="45.459868" lon="1.802923">
        <ele>614</ele>
        <time>2023-05-07T09:31:19Z</time>
      </trkpt>
      <trkpt lat="45.459845" lon="1.802912">
        <ele>614</ele>
        <time>2023-05-07T09:31:20Z</time>
      </trkpt>
      <trkpt lat="45.459824" lon="1.802898">
        <ele>614</ele>
        <time>2023-05-07T09:31:21Z</time>
      </trkpt>
      <trkpt lat="45.459804" lon="1.802884">
        <ele>614</ele>
        <time>2023-05-07T09:31:22Z</time>
      </trkpt>
      <trkpt lat="45.459783" lon="1.802864">
        <ele>614</ele>
        <time>2023-05-07T09:31:23Z</time>
      </trkpt>
      <trkpt lat="45.459763" lon="1.802845">
        <ele>614</ele>
        <time>2023-05-07T09:31:24Z</time>
      </trkpt>
      <trkpt lat="45.459739" lon="1.802823">
        <ele>614</ele>
        <time>2023-05-07T09:31:25Z</time>
      </trkpt>
      <trkpt lat="45.459716" lon="1.802801">
        <ele>614</ele>
        <time>2023-05-07T09:31:26Z</time>
      </trkpt>
      <trkpt lat="45.459693" lon="1.802785">
        <ele>614</ele>
        <time>2023-05-07T09:31:27Z</time>
      </trkpt>
      <trkpt lat="45.459670" lon="1.802768">
        <ele>614</ele>
        <time>2023-05-07T09:31:28Z</time>
      </trkpt>
      <trkpt lat="45.459649" lon="1.802759">
        <ele>614</ele>
        <time>2023-05-07T09:31:29Z</time>
      </trkpt>
      <trkpt lat="45.459628" lon="1.802749">
        <ele>614</ele>
        <time>2023-05-07T09:31:30Z</time>
      </trkpt>
      <trkpt lat="45.459605" lon="1.802746">
        <ele>614</ele>
        <time>2023-05-07T09:31:31Z</time>
      </trkpt>
      <trkpt lat="45.459582" lon="1.802742">
        <ele>614</ele>
        <time>2023-05-07T09:31:32Z</time>
      </trkpt>
      <trkpt lat="45.459560" lon="1.802742">
        <ele>614</ele>
        <time>2023-05-07T09:31:33Z</time>
      </trkpt>
      <trkpt lat="45.459538" lon="1.802742">
        <ele>614</ele>
        <time>2023-05-07T09:31:34Z</time>
      </trkpt>
      <trkpt lat="45.459521" lon="1.802742">
        <ele>614</ele>
        <time>2023-05-07T09:31:35Z</time>
      </trkpt>
      <trkpt lat="45.459503" lon="1.802743">
        <ele>614</ele>
        <time>2023-05-07T09:31:36Z</time>
      </trkpt>
      <trkpt lat="45.459484" lon="1.802744">
        <ele>614</ele>
        <time>2023-05-07T09:31:37Z</time>
      </trkpt>
      <trkpt lat="45.459465" lon="1.802744">
        <ele>614</ele>
        <time>2023-05-07T09:31:38Z</time>
      </trkpt>
      <trkpt lat="45.459443" lon="1.802743">
        <ele>614</ele>
        <time>2023-05-07T09:31:39Z</time>
      </trkpt>
      <trkpt lat="45.459421" lon="1.802742">
        <ele>614</ele>
        <time>2023-05-07T09:31:40Z</time>
      </trkpt>
      <trkpt lat="45.459400" lon="1.802741">
        <ele>614</ele>
        <time>2023-05-07T09:31:41Z</time>
      </trkpt>
      <trkpt lat="45.459378" lon="1.802740">
        <ele>614</ele>
        <time>2023-05-07T09:31:42Z</time>
      </trkpt>
      <trkpt lat="45.459356" lon="1.802743">
        <ele>614</ele>
        <time>2023-05-07T09:31:43Z</time>
      </trkpt>
      <trkpt lat="45.459334" lon="1.802745">
        <ele>614</ele>
        <time>2023-05-07T09:31:44Z</time>
      </trkpt>
      <trkpt lat="45.459315" lon="1.802752">
        <ele>614</ele>
        <time>2023-05-07T09:31:45Z</time>
      </trkpt>
      <trkpt lat="45.459296" lon="1.802758">
        <ele>614</ele>
        <time>2023-05-07T09:31:46Z</time>
      </trkpt>
      <trkpt lat="45.459278" lon="1.802768">
        <ele>615</ele>
        <time>2023-05-07T09:31:47Z</time>
      </trkpt>
      <trkpt lat="45.459260" lon="1.802778">
        <ele>615</ele>
        <time>2023-05-07T09:31:48Z</time>
      </trkpt>
      <trkpt lat="45.459243" lon="1.802792">
        <ele>615</ele>
        <time>2023-05-07T09:31:49Z</time>
      </trkpt>
      <trkpt lat="45.459227" lon="1.802805">
        <ele>615</ele>
        <time>2023-05-07T09:31:50Z</time>
      </trkpt>
      <trkpt lat="45.459210" lon="1.802819">
        <ele>615</ele>
        <time>2023-05-07T09:31:51Z</time>
      </trkpt>
      <trkpt lat="45.459195" lon="1.802835">
        <ele>615</ele>
        <time>2023-05-07T09:31:52Z</time>
      </trkpt>
      <trkpt lat="45.459181" lon="1.802851">
        <ele>615</ele>
        <time>2023-05-07T09:31:53Z</time>
      </trkpt>
      <trkpt lat="45.459164" lon="1.802863">
        <ele>615</ele>
        <time>2023-05-07T09:31:54Z</time>
      </trkpt>
      <trkpt lat="45.459148" lon="1.802875">
        <ele>615</ele>
        <time>2023-05-07T09:31:55Z</time>
      </trkpt>
      <trkpt lat="45.459130" lon="1.802885">
        <ele>615</ele>
        <time>2023-05-07T09:31:56Z</time>
      </trkpt>
      <trkpt lat="45.459111" lon="1.802896">
        <ele>616</ele>
        <time>2023-05-07T09:31:57Z</time>
      </trkpt>
      <trkpt lat="45.459091" lon="1.802907">
        <ele>616</ele>
        <time>2023-05-07T09:31:58Z</time>
      </trkpt>
      <trkpt lat="45.459072" lon="1.802918">
        <ele>616</ele>
        <time>2023-05-07T09:31:59Z</time>
      </trkpt>
      <trkpt lat="45.459051" lon="1.802926">
        <ele>616</ele>
        <time>2023-05-07T09:32:00Z</time>
      </trkpt>
      <trkpt lat="45.459031" lon="1.802935">
        <ele>616</ele>
        <time>2023-05-07T09:32:01Z</time>
      </trkpt>
      <trkpt lat="45.459013" lon="1.802941">
        <ele>616</ele>
        <time>2023-05-07T09:32:02Z</time>
      </trkpt>
      <trkpt lat="45.458995" lon="1.802947">
        <ele>616</ele>
        <time>2023-05-07T09:32:03Z</time>
      </trkpt>
      <trkpt lat="45.458976" lon="1.802950">
        <ele>616</ele>
        <time>2023-05-07T09:32:04Z</time>
      </trkpt>
      <trkpt lat="45.458958" lon="1.802954">
        <ele>616</ele>
        <time>2023-05-07T09:32:05Z</time>
      </trkpt>
      <trkpt lat="45.458941" lon="1.802960">
        <ele>616</ele>
        <time>2023-05-07T09:32:06Z</time>
      </trkpt>
      <trkpt lat="45.458923" lon="1.802965">
        <ele>617</ele>
        <time>2023-05-07T09:32:07Z</time>
      </trkpt>
      <trkpt lat="45.458905" lon="1.802973">
        <ele>617</ele>
        <time>2023-05-07T09:32:08Z</time>
      </trkpt>
      <trkpt lat="45.458887" lon="1.802980">
        <ele>617</ele>
        <time>2023-05-07T09:32:09Z</time>
      </trkpt>
      <trkpt lat="45.458866" lon="1.802989">
        <ele>617</ele>
        <time>2023-05-07T09:32:10Z</time>
      </trkpt>
      <trkpt lat="45.458845" lon="1.802998">
        <ele>617</ele>
        <time>2023-05-07T09:32:11Z</time>
      </trkpt>
      <trkpt lat="45.458823" lon="1.803006">
        <ele>617</ele>
        <time>2023-05-07T09:32:12Z</time>
      </trkpt>
      <trkpt lat="45.458801" lon="1.803013">
        <ele>617</ele>
        <time>2023-05-07T09:32:13Z</time>
      </trkpt>
      <trkpt lat="45.458779" lon="1.803020">
        <ele>617</ele>
        <time>2023-05-07T09:32:14Z</time>
      </trkpt>
      <trkpt lat="45.458757" lon="1.803028">
        <ele>617</ele>
        <time>2023-05-07T09:32:15Z</time>
      </trkpt>
      <trkpt lat="45.458737" lon="1.803036">
        <ele>617</ele>
        <time>2023-05-07T09:32:16Z</time>
      </trkpt>
      <trkpt lat="45.458717" lon="1.803045">
        <ele>617</ele>
        <time>2023-05-07T09:32:17Z</time>
      </trkpt>
      <trkpt lat="45.458700" lon="1.803057">
        <ele>617</ele>
        <time>2023-05-07T09:32:18Z</time>
      </trkpt>
      <trkpt lat="45.458683" lon="1.803068">
        <ele>617</ele>
        <time>2023-05-07T09:32:19Z</time>
      </trkpt>
      <trkpt lat="45.458669" lon="1.803079">
        <ele>617</ele>
        <time>2023-05-07T09:32:20Z</time>
      </trkpt>
      <trkpt lat="45.458654" lon="1.803089">
        <ele>617</ele>
        <time>2023-05-07T09:32:21Z</time>
      </trkpt>
      <trkpt lat="45.458641" lon="1.803100">
        <ele>617</ele>
        <time>2023-05-07T09:32:22Z</time>
      </trkpt>
      <trkpt lat="45.458627" lon="1.803110">
        <ele>617</ele>
        <time>2023-05-07T09:32:23Z</time>
      </trkpt>
      <trkpt lat="45.458616" lon="1.803125">
        <ele>617</ele>
        <time>2023-05-07T09:32:24Z</time>
      </trkpt>
      <trkpt lat="45.458604" lon="1.803141">
        <ele>617</ele>
        <time>2023-05-07T09:32:25Z</time>
      </trkpt>
      <trkpt lat="45.458590" lon="1.803162">
        <ele>617</ele>
        <time>2023-05-07T09:32:26Z</time>
      </trkpt>
      <trkpt lat="45.458575" lon="1.803183">
        <ele>617</ele>
        <time>2023-05-07T09:32:27Z</time>
      </trkpt>
      <trkpt lat="45.458557" lon="1.803209">
        <ele>617</ele>
        <time>2023-05-07T09:32:28Z</time>
      </trkpt>
      <trkpt lat="45.458539" lon="1.803235">
        <ele>617</ele>
        <time>2023-05-07T09:32:29Z</time>
      </trkpt>
      <trkpt lat="45.458517" lon="1.803263">
        <ele>617</ele>
        <time>2023-05-07T09:32:30Z</time>
      </trkpt>
      <trkpt lat="45.458495" lon="1.803292">
        <ele>617</ele>
        <time>2023-05-07T09:32:31Z</time>
      </trkpt>
      <trkpt lat="45.458472" lon="1.803321">
        <ele>617</ele>
        <time>2023-05-07T09:32:32Z</time>
      </trkpt>
      <trkpt lat="45.458449" lon="1.803349">
        <ele>617</ele>
        <time>2023-05-07T09:32:33Z</time>
      </trkpt>
      <trkpt lat="45.458424" lon="1.803373">
        <ele>617</ele>
        <time>2023-05-07T09:32:34Z</time>
      </trkpt>
      <trkpt lat="45.458400" lon="1.803397">
        <ele>617</ele>
        <time>2023-05-07T09:32:35Z</time>
      </trkpt>
      <trkpt lat="45.458377" lon="1.803412">
        <ele>617</ele>
        <time>2023-05-07T09:32:36Z</time>
      </trkpt>
      <trkpt lat="45.458354" lon="1.803428">
        <ele>617</ele>
        <time>2023-05-07T09:32:37Z</time>
      </trkpt>
      <trkpt lat="45.458331" lon="1.803434">
        <ele>617</ele>
        <time>2023-05-07T09:32:38Z</time>
      </trkpt>
      <trkpt lat="45.458308" lon="1.803441">
        <ele>617</ele>
        <time>2023-05-07T09:32:39Z</time>
      </trkpt>
      <trkpt lat="45.458286" lon="1.803445">
        <ele>617</ele>
        <time>2023-05-07T09:32:40Z</time>
      </trkpt>
      <trkpt lat="45.458264" lon="1.803449">
        <ele>617</ele>
        <time>2023-05-07T09:32:41Z</time>
      </trkpt>
      <trkpt lat="45.458244" lon="1.803457">
        <ele>617</ele>
        <time>2023-05-07T09:32:42Z</time>
      </trkpt>
      <trkpt lat="45.458223" lon="1.803464">
        <ele>617</ele>
        <time>2023-05-07T09:32:43Z</time>
      </trkpt>
      <trkpt lat="45.458209" lon="1.803477">
        <ele>617</ele>
        <time>2023-05-07T09:32:44Z</time>
      </trkpt>
      <trkpt lat="45.458194" lon="1.803490">
        <ele>617</ele>
        <time>2023-05-07T09:32:45Z</time>
      </trkpt>
      <trkpt lat="45.458180" lon="1.803503">
        <ele>617</ele>
        <time>2023-05-07T09:32:46Z</time>
      </trkpt>
      <trkpt lat="45.458160" lon="1.803520">
        <ele>616</ele>
        <time>2023-05-07T09:32:59Z</time>
      </trkpt>
      <trkpt lat="45.458149" lon="1.803531">
        <ele>616</ele>
        <time>2023-05-07T09:33:00Z</time>
      </trkpt>
      <trkpt lat="45.458137" lon="1.803543">
        <ele>616</ele>
        <time>2023-05-07T09:33:01Z</time>
      </trkpt>
      <trkpt lat="45.458126" lon="1.803552">
        <ele>616</ele>
        <time>2023-05-07T09:33:02Z</time>
      </trkpt>
      <trkpt lat="45.458116" lon="1.803561">
        <ele>616</ele>
        <time>2023-05-07T09:33:03Z</time>
      </trkpt>
      <trkpt lat="45.458104" lon="1.803570">
        <ele>616</ele>
        <time>2023-05-07T09:33:04Z</time>
      </trkpt>
      <trkpt lat="45.458092" lon="1.803579">
        <ele>616</ele>
        <time>2023-05-07T09:33:05Z</time>
      </trkpt>
      <trkpt lat="45.458081" lon="1.803588">
        <ele>616</ele>
        <time>2023-05-07T09:33:06Z</time>
      </trkpt>
      <trkpt lat="45.458069" lon="1.803598">
        <ele>616</ele>
        <time>2023-05-07T09:33:07Z</time>
      </trkpt>
      <trkpt lat="45.458057" lon="1.803611">
        <ele>616</ele>
        <time>2023-05-07T09:33:08Z</time>
      </trkpt>
      <trkpt lat="45.458045" lon="1.803624">
        <ele>616</ele>
        <time>2023-05-07T09:33:09Z</time>
      </trkpt>
      <trkpt lat="45.458026" lon="1.803639">
        <ele>616</ele>
        <time>2023-05-07T09:33:10Z</time>
      </trkpt>
      <trkpt lat="45.458007" lon="1.803654">
        <ele>616</ele>
        <time>2023-05-07T09:33:11Z</time>
      </trkpt>
      <trkpt lat="45.457987" lon="1.803670">
        <ele>616</ele>
        <time>2023-05-07T09:33:12Z</time>
      </trkpt>
      <trkpt lat="45.457968" lon="1.803686">
        <ele>616</ele>
        <time>2023-05-07T09:33:13Z</time>
      </trkpt>
      <trkpt lat="45.457951" lon="1.803705">
        <ele>616</ele>
        <time>2023-05-07T09:33:14Z</time>
      </trkpt>
      <trkpt lat="45.457935" lon="1.803725">
        <ele>616</ele>
        <time>2023-05-07T09:33:15Z</time>
      </trkpt>
      <trkpt lat="45.457917" lon="1.803747">
        <ele>616</ele>
        <time>2023-05-07T09:33:16Z</time>
      </trkpt>
      <trkpt lat="45.457898" lon="1.803770">
        <ele>616</ele>
        <time>2023-05-07T09:33:17Z</time>
      </trkpt>
      <trkpt lat="45.457878" lon="1.803795">
        <ele>615</ele>
        <time>2023-05-07T09:33:18Z</time>
      </trkpt>
      <trkpt lat="45.457857" lon="1.803821">
        <ele>615</ele>
        <time>2023-05-07T09:33:19Z</time>
      </trkpt>
      <trkpt lat="45.457833" lon="1.803847">
        <ele>615</ele>
        <time>2023-05-07T09:33:20Z</time>
      </trkpt>
      <trkpt lat="45.457809" lon="1.803874">
        <ele>615</ele>
        <time>2023-05-07T09:33:21Z</time>
      </trkpt>
      <trkpt lat="45.457786" lon="1.803900">
        <ele>615</ele>
        <time>2023-05-07T09:33:22Z</time>
      </trkpt>
      <trkpt lat="45.457762" lon="1.803926">
        <ele>615</ele>
        <time>2023-05-07T09:33:23Z</time>
      </trkpt>
      <trkpt lat="45.457741" lon="1.803950">
        <ele>615</ele>
        <time>2023-05-07T09:33:24Z</time>
      </trkpt>
      <trkpt lat="45.457719" lon="1.803973">
        <ele>615</ele>
        <time>2023-05-07T09:33:25Z</time>
      </trkpt>
      <trkpt lat="45.457698" lon="1.803991">
        <ele>615</ele>
        <time>2023-05-07T09:33:26Z</time>
      </trkpt>
      <trkpt lat="45.457676" lon="1.804009">
        <ele>615</ele>
        <time>2023-05-07T09:33:27Z</time>
      </trkpt>
      <trkpt lat="45.457653" lon="1.804017">
        <ele>614</ele>
        <time>2023-05-07T09:33:28Z</time>
      </trkpt>
      <trkpt lat="45.457630" lon="1.804026">
        <ele>614</ele>
        <time>2023-05-07T09:33:29Z</time>
      </trkpt>
      <trkpt lat="45.457605" lon="1.804028">
        <ele>614</ele>
        <time>2023-05-07T09:33:30Z</time>
      </trkpt>
      <trkpt lat="45.457581" lon="1.804030">
        <ele>614</ele>
        <time>2023-05-07T09:33:31Z</time>
      </trkpt>
      <trkpt lat="45.457553" lon="1.804028">
        <ele>614</ele>
        <time>2023-05-07T09:33:32Z</time>
      </trkpt>
      <trkpt lat="45.457525" lon="1.804027">
        <ele>613</ele>
        <time>2023-05-07T09:33:33Z</time>
      </trkpt>
      <trkpt lat="45.457492" lon="1.804023">
        <ele>613</ele>
        <time>2023-05-07T09:33:34Z</time>
      </trkpt>
      <trkpt lat="45.457458" lon="1.804018">
        <ele>613</ele>
        <time>2023-05-07T09:33:35Z</time>
      </trkpt>
      <trkpt lat="45.457422" lon="1.804011">
        <ele>613</ele>
        <time>2023-05-07T09:33:36Z</time>
      </trkpt>
      <trkpt lat="45.457386" lon="1.804004">
        <ele>613</ele>
        <time>2023-05-07T09:33:37Z</time>
      </trkpt>
      <trkpt lat="45.457354" lon="1.803996">
        <ele>612</ele>
        <time>2023-05-07T09:33:38Z</time>
      </trkpt>
      <trkpt lat="45.457321" lon="1.803988">
        <ele>612</ele>
        <time>2023-05-07T09:33:39Z</time>
      </trkpt>
      <trkpt lat="45.457290" lon="1.803979">
        <ele>612</ele>
        <time>2023-05-07T09:33:40Z</time>
      </trkpt>
      <trkpt lat="45.457260" lon="1.803971">
        <ele>612</ele>
        <time>2023-05-07T09:33:41Z</time>
      </trkpt>
      <trkpt lat="45.457233" lon="1.803965">
        <ele>612</ele>
        <time>2023-05-07T09:33:42Z</time>
      </trkpt>
      <trkpt lat="45.457205" lon="1.803958">
        <ele>611</ele>
        <time>2023-05-07T09:33:43Z</time>
      </trkpt>
      <trkpt lat="45.457180" lon="1.803950">
        <ele>611</ele>
        <time>2023-05-07T09:33:44Z</time>
      </trkpt>
      <trkpt lat="45.457154" lon="1.803941">
        <ele>611</ele>
        <time>2023-05-07T09:33:45Z</time>
      </trkpt>
      <trkpt lat="45.457129" lon="1.803936">
        <ele>611</ele>
        <time>2023-05-07T09:33:46Z</time>
      </trkpt>
      <trkpt lat="45.457103" lon="1.803931">
        <ele>611</ele>
        <time>2023-05-07T09:33:47Z</time>
      </trkpt>
      <trkpt lat="45.457073" lon="1.803933">
        <ele>611</ele>
        <time>2023-05-07T09:33:48Z</time>
      </trkpt>
      <trkpt lat="45.457043" lon="1.803935">
        <ele>611</ele>
        <time>2023-05-07T09:33:49Z</time>
      </trkpt>
      <trkpt lat="45.457012" lon="1.803940">
        <ele>611</ele>
        <time>2023-05-07T09:33:50Z</time>
      </trkpt>
      <trkpt lat="45.456981" lon="1.803945">
        <ele>611</ele>
        <time>2023-05-07T09:33:51Z</time>
      </trkpt>
      <trkpt lat="45.456951" lon="1.803951">
        <ele>611</ele>
        <time>2023-05-07T09:33:52Z</time>
      </trkpt>
      <trkpt lat="45.456921" lon="1.803958">
        <ele>610</ele>
        <time>2023-05-07T09:33:53Z</time>
      </trkpt>
      <trkpt lat="45.456894" lon="1.803965">
        <ele>610</ele>
        <time>2023-05-07T09:33:54Z</time>
      </trkpt>
      <trkpt lat="45.456866" lon="1.803972">
        <ele>610</ele>
        <time>2023-05-07T09:33:55Z</time>
      </trkpt>
      <trkpt lat="45.456843" lon="1.803982">
        <ele>610</ele>
        <time>2023-05-07T09:33:56Z</time>
      </trkpt>
      <trkpt lat="45.456821" lon="1.803991">
        <ele>610</ele>
        <time>2023-05-07T09:33:57Z</time>
      </trkpt>
      <trkpt lat="45.456790" lon="1.804006">
        <ele>609</ele>
        <time>2023-05-07T09:34:05Z</time>
      </trkpt>
      <trkpt lat="45.456788" lon="1.804009">
        <ele>609</ele>
        <time>2023-05-07T09:34:06Z</time>
      </trkpt>
      <trkpt lat="45.456786" lon="1.804012">
        <ele>609</ele>
        <time>2023-05-07T09:34:07Z</time>
      </trkpt>
      <trkpt lat="45.456789" lon="1.804011">
        <ele>609</ele>
        <time>2023-05-07T09:34:08Z</time>
      </trkpt>
      <trkpt lat="45.456792" lon="1.804010">
        <ele>609</ele>
        <time>2023-05-07T09:34:09Z</time>
      </trkpt>
      <trkpt lat="45.456795" lon="1.804008">
        <ele>609</ele>
        <time>2023-05-07T09:34:10Z</time>
      </trkpt>
      <trkpt lat="45.456798" lon="1.804008">
        <ele>609</ele>
        <time>2023-05-07T09:34:11Z</time>
      </trkpt>
      <trkpt lat="45.456801" lon="1.804007">
        <ele>609</ele>
        <time>2023-05-07T09:34:12Z</time>
      </trkpt>
      <trkpt lat="45.456799" lon="1.804004">
        <ele>608</ele>
        <time>2023-05-07T09:34:13Z</time>
      </trkpt>
      <trkpt lat="45.456797" lon="1.804002">
        <ele>608</ele>
        <time>2023-05-07T09:34:14Z</time>
      </trkpt>
      <trkpt lat="45.456784" lon="1.804017">
        <ele>608</ele>
        <time>2023-05-07T09:34:51Z</time>
      </trkpt>
      <trkpt lat="45.456771" lon="1.804028">
        <ele>608</ele>
        <time>2023-05-07T09:34:52Z</time>
      </trkpt>
      <trkpt lat="45.456758" lon="1.804040">
        <ele>608</ele>
        <time>2023-05-07T09:34:53Z</time>
      </trkpt>
      <trkpt lat="45.456743" lon="1.804048">
        <ele>608</ele>
        <time>2023-05-07T09:34:54Z</time>
      </trkpt>
      <trkpt lat="45.456727" lon="1.804056">
        <ele>608</ele>
        <time>2023-05-07T09:34:55Z</time>
      </trkpt>
      <trkpt lat="45.456705" lon="1.804064">
        <ele>608</ele>
        <time>2023-05-07T09:34:56Z</time>
      </trkpt>
      <trkpt lat="45.456683" lon="1.804072">
        <ele>608</ele>
        <time>2023-05-07T09:34:57Z</time>
      </trkpt>
      <trkpt lat="45.456658" lon="1.804083">
        <ele>608</ele>
        <time>2023-05-07T09:34:58Z</time>
      </trkpt>
      <trkpt lat="45.456632" lon="1.804093">
        <ele>608</ele>
        <time>2023-05-07T09:34:59Z</time>
      </trkpt>
      <trkpt lat="45.456607" lon="1.804104">
        <ele>608</ele>
        <time>2023-05-07T09:35:00Z</time>
      </trkpt>
      <trkpt lat="45.456582" lon="1.804115">
        <ele>608</ele>
        <time>2023-05-07T09:35:01Z</time>
      </trkpt>
      <trkpt lat="45.456556" lon="1.804127">
        <ele>608</ele>
        <time>2023-05-07T09:35:02Z</time>
      </trkpt>
      <trkpt lat="45.456530" lon="1.804139">
        <ele>608</ele>
        <time>2023-05-07T09:35:03Z</time>
      </trkpt>
      <trkpt lat="45.456503" lon="1.804153">
        <ele>608</ele>
        <time>2023-05-07T09:35:04Z</time>
      </trkpt>
      <trkpt lat="45.456476" lon="1.804167">
        <ele>608</ele>
        <time>2023-05-07T09:35:05Z</time>
      </trkpt>
      <trkpt lat="45.456450" lon="1.804179">
        <ele>608</ele>
        <time>2023-05-07T09:35:06Z</time>
      </trkpt>
      <trkpt lat="45.456424" lon="1.804191">
        <ele>608</ele>
        <time>2023-05-07T09:35:07Z</time>
      </trkpt>
      <trkpt lat="45.456401" lon="1.804197">
        <ele>608</ele>
        <time>2023-05-07T09:35:08Z</time>
      </trkpt>
      <trkpt lat="45.456379" lon="1.804203">
        <ele>608</ele>
        <time>2023-05-07T09:35:09Z</time>
      </trkpt>
      <trkpt lat="45.456355" lon="1.804209">
        <ele>608</ele>
        <time>2023-05-07T09:35:10Z</time>
      </trkpt>
      <trkpt lat="45.456331" lon="1.804215">
        <ele>608</ele>
        <time>2023-05-07T09:35:11Z</time>
      </trkpt>
      <trkpt lat="45.456304" lon="1.804224">
        <ele>608</ele>
        <time>2023-05-07T09:35:12Z</time>
      </trkpt>
      <trkpt lat="45.456277" lon="1.804232">
        <ele>607</ele>
        <time>2023-05-07T09:35:13Z</time>
      </trkpt>
      <trkpt lat="45.456254" lon="1.804243">
        <ele>607</ele>
        <time>2023-05-07T09:35:14Z</time>
      </trkpt>
      <trkpt lat="45.456230" lon="1.804254">
        <ele>607</ele>
        <time>2023-05-07T09:35:15Z</time>
      </trkpt>
      <trkpt lat="45.456210" lon="1.804265">
        <ele>607</ele>
        <time>2023-05-07T09:35:16Z</time>
      </trkpt>
      <trkpt lat="45.456189" lon="1.804275">
        <ele>607</ele>
        <time>2023-05-07T09:35:17Z</time>
      </trkpt>
      <trkpt lat="45.456167" lon="1.804285">
        <ele>607</ele>
        <time>2023-05-07T09:35:18Z</time>
      </trkpt>
      <trkpt lat="45.456145" lon="1.804294">
        <ele>607</ele>
        <time>2023-05-07T09:35:19Z</time>
      </trkpt>
      <trkpt lat="45.456121" lon="1.804301">
        <ele>607</ele>
        <time>2023-05-07T09:35:20Z</time>
      </trkpt>
      <trkpt lat="45.456096" lon="1.804308">
        <ele>607</ele>
        <time>2023-05-07T09:35:21Z</time>
      </trkpt>
      <trkpt lat="45.456070" lon="1.804309">
        <ele>607</ele>
        <time>2023-05-07T09:35:22Z</time>
      </trkpt>
      <trkpt lat="45.456044" lon="1.804311">
        <ele>607</ele>
        <time>2023-05-07T09:35:23Z</time>
      </trkpt>
      <trkpt lat="45.456020" lon="1.804311">
        <ele>607</ele>
        <time>2023-05-07T09:35:24Z</time>
      </trkpt>
      <trkpt lat="45.455997" lon="1.804311">
        <ele>607</ele>
        <time>2023-05-07T09:35:25Z</time>
      </trkpt>
      <trkpt lat="45.455976" lon="1.804312">
        <ele>607</ele>
        <time>2023-05-07T09:35:26Z</time>
      </trkpt>
      <trkpt lat="45.455956" lon="1.804314">
        <ele>607</ele>
        <time>2023-05-07T09:35:27Z</time>
      </trkpt>
      <trkpt lat="45.455937" lon="1.804316">
        <ele>606</ele>
        <time>2023-05-07T09:35:28Z</time>
      </trkpt>
      <trkpt lat="45.455918" lon="1.804318">
        <ele>606</ele>
        <time>2023-05-07T09:35:29Z</time>
      </trkpt>
      <trkpt lat="45.455900" lon="1.804318">
        <ele>606</ele>
        <time>2023-05-07T09:35:30Z</time>
      </trkpt>
      <trkpt lat="45.455883" lon="1.804318">
        <ele>606</ele>
        <time>2023-05-07T09:35:31Z</time>
      </trkpt>
      <trkpt lat="45.455867" lon="1.804321">
        <ele>606</ele>
        <time>2023-05-07T09:35:32Z</time>
      </trkpt>
      <trkpt lat="45.455851" lon="1.804323">
        <ele>606</ele>
        <time>2023-05-07T09:35:33Z</time>
      </trkpt>
      <trkpt lat="45.455836" lon="1.804328">
        <ele>606</ele>
        <time>2023-05-07T09:35:34Z</time>
      </trkpt>
      <trkpt lat="45.455822" lon="1.804332">
        <ele>606</ele>
        <time>2023-05-07T09:35:35Z</time>
      </trkpt>
      <trkpt lat="45.455804" lon="1.804337">
        <ele>606</ele>
        <time>2023-05-07T09:35:36Z</time>
      </trkpt>
      <trkpt lat="45.455787" lon="1.804342">
        <ele>606</ele>
        <time>2023-05-07T09:35:37Z</time>
      </trkpt>
      <trkpt lat="45.455768" lon="1.804346">
        <ele>606</ele>
        <time>2023-05-07T09:35:38Z</time>
      </trkpt>
      <trkpt lat="45.455749" lon="1.804350">
        <ele>606</ele>
        <time>2023-05-07T09:35:39Z</time>
      </trkpt>
      <trkpt lat="45.455725" lon="1.804348">
        <ele>606</ele>
        <time>2023-05-07T09:35:40Z</time>
      </trkpt>
      <trkpt lat="45.455702" lon="1.804346">
        <ele>606</ele>
        <time>2023-05-07T09:35:41Z</time>
      </trkpt>
      <trkpt lat="45.455677" lon="1.804341">
        <ele>606</ele>
        <time>2023-05-07T09:35:42Z</time>
      </trkpt>
      <trkpt lat="45.455653" lon="1.804335">
        <ele>605</ele>
        <time>2023-05-07T09:35:43Z</time>
      </trkpt>
      <trkpt lat="45.455634" lon="1.804331">
        <ele>605</ele>
        <time>2023-05-07T09:35:44Z</time>
      </trkpt>
      <trkpt lat="45.455615" lon="1.804327">
        <ele>605</ele>
        <time>2023-05-07T09:35:45Z</time>
      </trkpt>
      <trkpt lat="45.455600" lon="1.804324">
        <ele>605</ele>
        <time>2023-05-07T09:35:46Z</time>
      </trkpt>
      <trkpt lat="45.455585" lon="1.804322">
        <ele>605</ele>
        <time>2023-05-07T09:35:47Z</time>
      </trkpt>
      <trkpt lat="45.455571" lon="1.804322">
        <ele>605</ele>
        <time>2023-05-07T09:35:48Z</time>
      </trkpt>
      <trkpt lat="45.455558" lon="1.804322">
        <ele>605</ele>
        <time>2023-05-07T09:35:49Z</time>
      </trkpt>
      <trkpt lat="45.455545" lon="1.804323">
        <ele>605</ele>
        <time>2023-05-07T09:35:50Z</time>
      </trkpt>
      <trkpt lat="45.455530" lon="1.804325">
        <ele>605</ele>
        <time>2023-05-07T09:35:51Z</time>
      </trkpt>
      <trkpt lat="45.455515" lon="1.804328">
        <ele>605</ele>
        <time>2023-05-07T09:35:52Z</time>
      </trkpt>
      <trkpt lat="45.455496" lon="1.804332">
        <ele>604</ele>
        <time>2023-05-07T09:35:53Z</time>
      </trkpt>
      <trkpt lat="45.455477" lon="1.804335">
        <ele>604</ele>
        <time>2023-05-07T09:35:54Z</time>
      </trkpt>
      <trkpt lat="45.455456" lon="1.804339">
        <ele>604</ele>
        <time>2023-05-07T09:35:55Z</time>
      </trkpt>
      <trkpt lat="45.455436" lon="1.804344">
        <ele>604</ele>
        <time>2023-05-07T09:35:56Z</time>
      </trkpt>
      <trkpt lat="45.455414" lon="1.804349">
        <ele>604</ele>
        <time>2023-05-07T09:35:57Z</time>
      </trkpt>
      <trkpt lat="45.455392" lon="1.804354">
        <ele>603</ele>
        <time>2023-05-07T09:35:58Z</time>
      </trkpt>
      <trkpt lat="45.455370" lon="1.804357">
        <ele>603</ele>
        <time>2023-05-07T09:35:59Z</time>
      </trkpt>
      <trkpt lat="45.455348" lon="1.804360">
        <ele>603</ele>
        <time>2023-05-07T09:36:00Z</time>
      </trkpt>
      <trkpt lat="45.455326" lon="1.804360">
        <ele>603</ele>
        <time>2023-05-07T09:36:01Z</time>
      </trkpt>
      <trkpt lat="45.455304" lon="1.804360">
        <ele>603</ele>
        <time>2023-05-07T09:36:02Z</time>
      </trkpt>
      <trkpt lat="45.455283" lon="1.804354">
        <ele>602</ele>
        <time>2023-05-07T09:36:03Z</time>
      </trkpt>
      <trkpt lat="45.455263" lon="1.804349">
        <ele>602</ele>
        <time>2023-05-07T09:36:04Z</time>
      </trkpt>
      <trkpt lat="45.455244" lon="1.804341">
        <ele>602</ele>
        <time>2023-05-07T09:36:05Z</time>
      </trkpt>
      <trkpt lat="45.455226" lon="1.804333">
        <ele>602</ele>
        <time>2023-05-07T09:36:06Z</time>
      </trkpt>
      <trkpt lat="45.455210" lon="1.804326">
        <ele>602</ele>
        <time>2023-05-07T09:36:07Z</time>
      </trkpt>
      <trkpt lat="45.455194" lon="1.804319">
        <ele>601</ele>
        <time>2023-05-07T09:36:08Z</time>
      </trkpt>
      <trkpt lat="45.455178" lon="1.804317">
        <ele>601</ele>
        <time>2023-05-07T09:36:09Z</time>
      </trkpt>
      <trkpt lat="45.455161" lon="1.804314">
        <ele>601</ele>
        <time>2023-05-07T09:36:10Z</time>
      </trkpt>
      <trkpt lat="45.455142" lon="1.804318">
        <ele>601</ele>
        <time>2023-05-07T09:36:11Z</time>
      </trkpt>
      <trkpt lat="45.455123" lon="1.804323">
        <ele>601</ele>
        <time>2023-05-07T09:36:12Z</time>
      </trkpt>
      <trkpt lat="45.455101" lon="1.804331">
        <ele>600</ele>
        <time>2023-05-07T09:36:13Z</time>
      </trkpt>
      <trkpt lat="45.455079" lon="1.804340">
        <ele>600</ele>
        <time>2023-05-07T09:36:14Z</time>
      </trkpt>
      <trkpt lat="45.455058" lon="1.804348">
        <ele>600</ele>
        <time>2023-05-07T09:36:15Z</time>
      </trkpt>
      <trkpt lat="45.455038" lon="1.804355">
        <ele>600</ele>
        <time>2023-05-07T09:36:16Z</time>
      </trkpt>
      <trkpt lat="45.455021" lon="1.804362">
        <ele>600</ele>
        <time>2023-05-07T09:36:17Z</time>
      </trkpt>
      <trkpt lat="45.455005" lon="1.804369">
        <ele>599</ele>
        <time>2023-05-07T09:36:18Z</time>
      </trkpt>
      <trkpt lat="45.454990" lon="1.804374">
        <ele>599</ele>
        <time>2023-05-07T09:36:19Z</time>
      </trkpt>
      <trkpt lat="45.454975" lon="1.804380">
        <ele>599</ele>
        <time>2023-05-07T09:36:20Z</time>
      </trkpt>
      <trkpt lat="45.454962" lon="1.804390">
        <ele>599</ele>
        <time>2023-05-07T09:36:21Z</time>
      </trkpt>
      <trkpt lat="45.454949" lon="1.804399">
        <ele>599</ele>
        <time>2023-05-07T09:36:22Z</time>
      </trkpt>
      <trkpt lat="45.454934" lon="1.804407">
        <ele>599</ele>
        <time>2023-05-07T09:36:23Z</time>
      </trkpt>
      <trkpt lat="45.454920" lon="1.804416">
        <ele>599</ele>
        <time>2023-05-07T09:36:24Z</time>
      </trkpt>
      <trkpt lat="45.454906" lon="1.804423">
        <ele>599</ele>
        <time>2023-05-07T09:36:25Z</time>
      </trkpt>
      <trkpt lat="45.454892" lon="1.804431">
        <ele>599</ele>
        <time>2023-05-07T09:36:26Z</time>
      </trkpt>
      <trkpt lat="45.454878" lon="1.804437">
        <ele>599</ele>
        <time>2023-05-07T09:36:27Z</time>
      </trkpt>
      <trkpt lat="45.454864" lon="1.804443">
        <ele>598</ele>
        <time>2023-05-07T09:36:28Z</time>
      </trkpt>
      <trkpt lat="45.454849" lon="1.804451">
        <ele>598</ele>
        <time>2023-05-07T09:36:29Z</time>
      </trkpt>
      <trkpt lat="45.454834" lon="1.804459">
        <ele>598</ele>
        <time>2023-05-07T09:36:30Z</time>
      </trkpt>
      <trkpt lat="45.454817" lon="1.804465">
        <ele>598</ele>
        <time>2023-05-07T09:36:31Z</time>
      </trkpt>
      <trkpt lat="45.454800" lon="1.804472">
        <ele>598</ele>
        <time>2023-05-07T09:36:32Z</time>
      </trkpt>
      <trkpt lat="45.454782" lon="1.804478">
        <ele>598</ele>
        <time>2023-05-07T09:36:33Z</time>
      </trkpt>
      <trkpt lat="45.454764" lon="1.804484">
        <ele>598</ele>
        <time>2023-05-07T09:36:34Z</time>
      </trkpt>
      <trkpt lat="45.454747" lon="1.804493">
        <ele>598</ele>
        <time>2023-05-07T09:36:35Z</time>
      </trkpt>
      <trkpt lat="45.454729" lon="1.804501">
        <ele>598</ele>
        <time>2023-05-07T09:36:36Z</time>
      </trkpt>
      <trkpt lat="45.454711" lon="1.804512">
        <ele>598</ele>
        <time>2023-05-07T09:36:37Z</time>
      </trkpt>
      <trkpt lat="45.454693" lon="1.804523">
        <ele>597</ele>
        <time>2023-05-07T09:36:38Z</time>
      </trkpt>
      <trkpt lat="45.454676" lon="1.804534">
        <ele>597</ele>
        <time>2023-05-07T09:36:39Z</time>
      </trkpt>
      <trkpt lat="45.454659" lon="1.804545">
        <ele>597</ele>
        <time>2023-05-07T09:36:40Z</time>
      </trkpt>
      <trkpt lat="45.454643" lon="1.804554">
        <ele>597</ele>
        <time>2023-05-07T09:36:41Z</time>
      </trkpt>
      <trkpt lat="45.454626" lon="1.804564">
        <ele>597</ele>
        <time>2023-05-07T09:36:42Z</time>
      </trkpt>
      <trkpt lat="45.454611" lon="1.804574">
        <ele>597</ele>
        <time>2023-05-07T09:36:43Z</time>
      </trkpt>
      <trkpt lat="45.454595" lon="1.804585">
        <ele>597</ele>
        <time>2023-05-07T09:36:44Z</time>
      </trkpt>
      <trkpt lat="45.454580" lon="1.804597">
        <ele>597</ele>
        <time>2023-05-07T09:36:45Z</time>
      </trkpt>
      <trkpt lat="45.454566" lon="1.804609">
        <ele>597</ele>
        <time>2023-05-07T09:36:46Z</time>
      </trkpt>
      <trkpt lat="45.454554" lon="1.804620">
        <ele>597</ele>
        <time>2023-05-07T09:36:47Z</time>
      </trkpt>
      <trkpt lat="45.454541" lon="1.804631">
        <ele>596</ele>
        <time>2023-05-07T09:36:48Z</time>
      </trkpt>
      <trkpt lat="45.454529" lon="1.804642">
        <ele>596</ele>
        <time>2023-05-07T09:36:49Z</time>
      </trkpt>
      <trkpt lat="45.454517" lon="1.804653">
        <ele>596</ele>
        <time>2023-05-07T09:36:50Z</time>
      </trkpt>
      <trkpt lat="45.454504" lon="1.804666">
        <ele>596</ele>
        <time>2023-05-07T09:36:51Z</time>
      </trkpt>
      <trkpt lat="45.454490" lon="1.804680">
        <ele>596</ele>
        <time>2023-05-07T09:36:52Z</time>
      </trkpt>
      <trkpt lat="45.454476" lon="1.804696">
        <ele>596</ele>
        <time>2023-05-07T09:36:53Z</time>
      </trkpt>
      <trkpt lat="45.454463" lon="1.804712">
        <ele>596</ele>
        <time>2023-05-07T09:36:54Z</time>
      </trkpt>
      <trkpt lat="45.454450" lon="1.804732">
        <ele>596</ele>
        <time>2023-05-07T09:36:55Z</time>
      </trkpt>
      <trkpt lat="45.454438" lon="1.804751">
        <ele>596</ele>
        <time>2023-05-07T09:36:56Z</time>
      </trkpt>
      <trkpt lat="45.454429" lon="1.804773">
        <ele>596</ele>
        <time>2023-05-07T09:36:57Z</time>
      </trkpt>
      <trkpt lat="45.454420" lon="1.804795">
        <ele>595</ele>
        <time>2023-05-07T09:36:58Z</time>
      </trkpt>
      <trkpt lat="45.454416" lon="1.804819">
        <ele>595</ele>
        <time>2023-05-07T09:36:59Z</time>
      </trkpt>
      <trkpt lat="45.454412" lon="1.804844">
        <ele>595</ele>
        <time>2023-05-07T09:37:00Z</time>
      </trkpt>
      <trkpt lat="45.454414" lon="1.804869">
        <ele>595</ele>
        <time>2023-05-07T09:37:01Z</time>
      </trkpt>
      <trkpt lat="45.454415" lon="1.804895">
        <ele>595</ele>
        <time>2023-05-07T09:37:02Z</time>
      </trkpt>
      <trkpt lat="45.454419" lon="1.804920">
        <ele>594</ele>
        <time>2023-05-07T09:37:03Z</time>
      </trkpt>
      <trkpt lat="45.454423" lon="1.804946">
        <ele>594</ele>
        <time>2023-05-07T09:37:04Z</time>
      </trkpt>
      <trkpt lat="45.454428" lon="1.804971">
        <ele>594</ele>
        <time>2023-05-07T09:37:05Z</time>
      </trkpt>
      <trkpt lat="45.454434" lon="1.804997">
        <ele>594</ele>
        <time>2023-05-07T09:37:06Z</time>
      </trkpt>
      <trkpt lat="45.454439" lon="1.805025">
        <ele>594</ele>
        <time>2023-05-07T09:37:07Z</time>
      </trkpt>
      <trkpt lat="45.454445" lon="1.805054">
        <ele>593</ele>
        <time>2023-05-07T09:37:08Z</time>
      </trkpt>
      <trkpt lat="45.454454" lon="1.805085">
        <ele>593</ele>
        <time>2023-05-07T09:37:09Z</time>
      </trkpt>
      <trkpt lat="45.454462" lon="1.805117">
        <ele>593</ele>
        <time>2023-05-07T09:37:10Z</time>
      </trkpt>
      <trkpt lat="45.454472" lon="1.805149">
        <ele>593</ele>
        <time>2023-05-07T09:37:11Z</time>
      </trkpt>
      <trkpt lat="45.454482" lon="1.805182">
        <ele>593</ele>
        <time>2023-05-07T09:37:12Z</time>
      </trkpt>
      <trkpt lat="45.454493" lon="1.805217">
        <ele>592</ele>
        <time>2023-05-07T09:37:13Z</time>
      </trkpt>
      <trkpt lat="45.454504" lon="1.805253">
        <ele>592</ele>
        <time>2023-05-07T09:37:14Z</time>
      </trkpt>
      <trkpt lat="45.454512" lon="1.805293">
        <ele>592</ele>
        <time>2023-05-07T09:37:15Z</time>
      </trkpt>
      <trkpt lat="45.454521" lon="1.805333">
        <ele>592</ele>
        <time>2023-05-07T09:37:16Z</time>
      </trkpt>
      <trkpt lat="45.454527" lon="1.805375">
        <ele>592</ele>
        <time>2023-05-07T09:37:17Z</time>
      </trkpt>
      <trkpt lat="45.454533" lon="1.805416">
        <ele>591</ele>
        <time>2023-05-07T09:37:18Z</time>
      </trkpt>
      <trkpt lat="45.454538" lon="1.805454">
        <ele>591</ele>
        <time>2023-05-07T09:37:19Z</time>
      </trkpt>
      <trkpt lat="45.454543" lon="1.805492">
        <ele>591</ele>
        <time>2023-05-07T09:37:20Z</time>
      </trkpt>
      <trkpt lat="45.454548" lon="1.805528">
        <ele>591</ele>
        <time>2023-05-07T09:37:21Z</time>
      </trkpt>
      <trkpt lat="45.454553" lon="1.805565">
        <ele>591</ele>
        <time>2023-05-07T09:37:22Z</time>
      </trkpt>
      <trkpt lat="45.454560" lon="1.805600">
        <ele>590</ele>
        <time>2023-05-07T09:37:23Z</time>
      </trkpt>
      <trkpt lat="45.454566" lon="1.805636">
        <ele>590</ele>
        <time>2023-05-07T09:37:24Z</time>
      </trkpt>
      <trkpt lat="45.454572" lon="1.805671">
        <ele>590</ele>
        <time>2023-05-07T09:37:25Z</time>
      </trkpt>
      <trkpt lat="45.454579" lon="1.805706">
        <ele>590</ele>
        <time>2023-05-07T09:37:26Z</time>
      </trkpt>
      <trkpt lat="45.454586" lon="1.805739">
        <ele>590</ele>
        <time>2023-05-07T09:37:27Z</time>
      </trkpt>
      <trkpt lat="45.454593" lon="1.805772">
        <ele>590</ele>
        <time>2023-05-07T09:37:28Z</time>
      </trkpt>
      <trkpt lat="45.454602" lon="1.805802">
        <ele>590</ele>
        <time>2023-05-07T09:37:29Z</time>
      </trkpt>
      <trkpt lat="45.454611" lon="1.805831">
        <ele>590</ele>
        <time>2023-05-07T09:37:30Z</time>
      </trkpt>
      <trkpt lat="45.454623" lon="1.805856">
        <ele>590</ele>
        <time>2023-05-07T09:37:31Z</time>
      </trkpt>
      <trkpt lat="45.454635" lon="1.805881">
        <ele>590</ele>
        <time>2023-05-07T09:37:32Z</time>
      </trkpt>
      <trkpt lat="45.454650" lon="1.805899">
        <ele>589</ele>
        <time>2023-05-07T09:37:33Z</time>
      </trkpt>
      <trkpt lat="45.454664" lon="1.805918">
        <ele>589</ele>
        <time>2023-05-07T09:37:34Z</time>
      </trkpt>
      <trkpt lat="45.454679" lon="1.805933">
        <ele>589</ele>
        <time>2023-05-07T09:37:35Z</time>
      </trkpt>
      <trkpt lat="45.454694" lon="1.805947">
        <ele>589</ele>
        <time>2023-05-07T09:37:36Z</time>
      </trkpt>
      <trkpt lat="45.454709" lon="1.805960">
        <ele>589</ele>
        <time>2023-05-07T09:37:37Z</time>
      </trkpt>
      <trkpt lat="45.454725" lon="1.805972">
        <ele>589</ele>
        <time>2023-05-07T09:37:38Z</time>
      </trkpt>
      <trkpt lat="45.454739" lon="1.805984">
        <ele>589</ele>
        <time>2023-05-07T09:37:39Z</time>
      </trkpt>
      <trkpt lat="45.454754" lon="1.805996">
        <ele>589</ele>
        <time>2023-05-07T09:37:40Z</time>
      </trkpt>
      <trkpt lat="45.454769" lon="1.806004">
        <ele>589</ele>
        <time>2023-05-07T09:37:41Z</time>
      </trkpt>
      <trkpt lat="45.454785" lon="1.806013">
        <ele>589</ele>
        <time>2023-05-07T09:37:42Z</time>
      </trkpt>
      <trkpt lat="45.454800" lon="1.806018">
        <ele>589</ele>
        <time>2023-05-07T09:37:43Z</time>
      </trkpt>
      <trkpt lat="45.454816" lon="1.806023">
        <ele>589</ele>
        <time>2023-05-07T09:37:44Z</time>
      </trkpt>
      <trkpt lat="45.454834" lon="1.806026">
        <ele>589</ele>
        <time>2023-05-07T09:37:45Z</time>
      </trkpt>
      <trkpt lat="45.454851" lon="1.806029">
        <ele>589</ele>
        <time>2023-05-07T09:37:46Z</time>
      </trkpt>
      <trkpt lat="45.454870" lon="1.806033">
        <ele>589</ele>
        <time>2023-05-07T09:37:47Z</time>
      </trkpt>
      <trkpt lat="45.454889" lon="1.806036">
        <ele>589</ele>
        <time>2023-05-07T09:37:48Z</time>
      </trkpt>
      <trkpt lat="45.454907" lon="1.806038">
        <ele>589</ele>
        <time>2023-05-07T09:37:49Z</time>
      </trkpt>
      <trkpt lat="45.454925" lon="1.806040">
        <ele>589</ele>
        <time>2023-05-07T09:37:50Z</time>
      </trkpt>
      <trkpt lat="45.454942" lon="1.806039">
        <ele>589</ele>
        <time>2023-05-07T09:37:51Z</time>
      </trkpt>
      <trkpt lat="45.454959" lon="1.806039">
        <ele>589</ele>
        <time>2023-05-07T09:37:52Z</time>
      </trkpt>
      <trkpt lat="45.454975" lon="1.806036">
        <ele>589</ele>
        <time>2023-05-07T09:37:53Z</time>
      </trkpt>
      <trkpt lat="45.454991" lon="1.806033">
        <ele>589</ele>
        <time>2023-05-07T09:37:54Z</time>
      </trkpt>
      <trkpt lat="45.455006" lon="1.806028">
        <ele>589</ele>
        <time>2023-05-07T09:37:55Z</time>
      </trkpt>
      <trkpt lat="45.455021" lon="1.806023">
        <ele>589</ele>
        <time>2023-05-07T09:37:56Z</time>
      </trkpt>
      <trkpt lat="45.455036" lon="1.806014">
        <ele>589</ele>
        <time>2023-05-07T09:37:57Z</time>
      </trkpt>
      <trkpt lat="45.455050" lon="1.806006">
        <ele>589</ele>
        <time>2023-05-07T09:37:58Z</time>
      </trkpt>
      <trkpt lat="45.455065" lon="1.805994">
        <ele>589</ele>
        <time>2023-05-07T09:37:59Z</time>
      </trkpt>
      <trkpt lat="45.455081" lon="1.805982">
        <ele>589</ele>
        <time>2023-05-07T09:38:00Z</time>
      </trkpt>
      <trkpt lat="45.455096" lon="1.805971">
        <ele>589</ele>
        <time>2023-05-07T09:38:01Z</time>
      </trkpt>
      <trkpt lat="45.455112" lon="1.805957">
        <ele>589</ele>
        <time>2023-05-07T09:38:02Z</time>
      </trkpt>
      <trkpt lat="45.455129" lon="1.805943">
        <ele>589</ele>
        <time>2023-05-07T09:38:03Z</time>
      </trkpt>
      <trkpt lat="45.455144" lon="1.805929">
        <ele>589</ele>
        <time>2023-05-07T09:38:04Z</time>
      </trkpt>
      <trkpt lat="45.455159" lon="1.805916">
        <ele>589</ele>
        <time>2023-05-07T09:38:05Z</time>
      </trkpt>
      <trkpt lat="45.455173" lon="1.805903">
        <ele>589</ele>
        <time>2023-05-07T09:38:06Z</time>
      </trkpt>
      <trkpt lat="45.455187" lon="1.805889">
        <ele>589</ele>
        <time>2023-05-07T09:38:07Z</time>
      </trkpt>
      <trkpt lat="45.455201" lon="1.805876">
        <ele>589</ele>
        <time>2023-05-07T09:38:08Z</time>
      </trkpt>
      <trkpt lat="45.455215" lon="1.805862">
        <ele>589</ele>
        <time>2023-05-07T09:38:09Z</time>
      </trkpt>
      <trkpt lat="45.455228" lon="1.805849">
        <ele>589</ele>
        <time>2023-05-07T09:38:10Z</time>
      </trkpt>
      <trkpt lat="45.455241" lon="1.805836">
        <ele>589</ele>
        <time>2023-05-07T09:38:11Z</time>
      </trkpt>
      <trkpt lat="45.455255" lon="1.805822">
        <ele>590</ele>
        <time>2023-05-07T09:38:12Z</time>
      </trkpt>
      <trkpt lat="45.455267" lon="1.805808">
        <ele>590</ele>
        <time>2023-05-07T09:38:13Z</time>
      </trkpt>
      <trkpt lat="45.455280" lon="1.805794">
        <ele>590</ele>
        <time>2023-05-07T09:38:14Z</time>
      </trkpt>
      <trkpt lat="45.455292" lon="1.805780">
        <ele>590</ele>
        <time>2023-05-07T09:38:15Z</time>
      </trkpt>
      <trkpt lat="45.455306" lon="1.805764">
        <ele>590</ele>
        <time>2023-05-07T09:38:16Z</time>
      </trkpt>
      <trkpt lat="45.455320" lon="1.805748">
        <ele>590</ele>
        <time>2023-05-07T09:38:17Z</time>
      </trkpt>
      <trkpt lat="45.455334" lon="1.805733">
        <ele>590</ele>
        <time>2023-05-07T09:38:18Z</time>
      </trkpt>
      <trkpt lat="45.455348" lon="1.805718">
        <ele>590</ele>
        <time>2023-05-07T09:38:19Z</time>
      </trkpt>
      <trkpt lat="45.455363" lon="1.805704">
        <ele>590</ele>
        <time>2023-05-07T09:38:20Z</time>
      </trkpt>
      <trkpt lat="45.455377" lon="1.805691">
        <ele>590</ele>
        <time>2023-05-07T09:38:21Z</time>
      </trkpt>
      <trkpt lat="45.455392" lon="1.805679">
        <ele>590</ele>
        <time>2023-05-07T09:38:22Z</time>
      </trkpt>
      <trkpt lat="45.455407" lon="1.805667">
        <ele>590</ele>
        <time>2023-05-07T09:38:23Z</time>
      </trkpt>
      <trkpt lat="45.455423" lon="1.805651">
        <ele>590</ele>
        <time>2023-05-07T09:38:24Z</time>
      </trkpt>
      <trkpt lat="45.455438" lon="1.805635">
        <ele>590</ele>
        <time>2023-05-07T09:38:25Z</time>
      </trkpt>
      <trkpt lat="45.455454" lon="1.805619">
        <ele>590</ele>
        <time>2023-05-07T09:38:26Z</time>
      </trkpt>
      <trkpt lat="45.455471" lon="1.805607">
        <ele>590</ele>
        <time>2023-05-07T09:38:27Z</time>
      </trkpt>
      <trkpt lat="45.455489" lon="1.805595">
        <ele>590</ele>
        <time>2023-05-07T09:38:28Z</time>
      </trkpt>
      <trkpt lat="45.455508" lon="1.805585">
        <ele>590</ele>
        <time>2023-05-07T09:38:29Z</time>
      </trkpt>
      <trkpt lat="45.455527" lon="1.805574">
        <ele>590</ele>
        <time>2023-05-07T09:38:30Z</time>
      </trkpt>
      <trkpt lat="45.455547" lon="1.805566">
        <ele>590</ele>
        <time>2023-05-07T09:38:31Z</time>
      </trkpt>
      <trkpt lat="45.455567" lon="1.805558">
        <ele>591</ele>
        <time>2023-05-07T09:38:32Z</time>
      </trkpt>
      <trkpt lat="45.455587" lon="1.805550">
        <ele>591</ele>
        <time>2023-05-07T09:38:33Z</time>
      </trkpt>
      <trkpt lat="45.455608" lon="1.805543">
        <ele>591</ele>
        <time>2023-05-07T09:38:34Z</time>
      </trkpt>
      <trkpt lat="45.455628" lon="1.805536">
        <ele>591</ele>
        <time>2023-05-07T09:38:35Z</time>
      </trkpt>
      <trkpt lat="45.455649" lon="1.805530">
        <ele>591</ele>
        <time>2023-05-07T09:38:36Z</time>
      </trkpt>
      <trkpt lat="45.455670" lon="1.805524">
        <ele>591</ele>
        <time>2023-05-07T09:38:37Z</time>
      </trkpt>
      <trkpt lat="45.455691" lon="1.805518">
        <ele>591</ele>
        <time>2023-05-07T09:38:38Z</time>
      </trkpt>
      <trkpt lat="45.455711" lon="1.805512">
        <ele>591</ele>
        <time>2023-05-07T09:38:39Z</time>
      </trkpt>
      <trkpt lat="45.455730" lon="1.805505">
        <ele>591</ele>
        <time>2023-05-07T09:38:40Z</time>
      </trkpt>
      <trkpt lat="45.455749" lon="1.805498">
        <ele>591</ele>
        <time>2023-05-07T09:38:41Z</time>
      </trkpt>
      <trkpt lat="45.455769" lon="1.805491">
        <ele>591</ele>
        <time>2023-05-07T09:38:42Z</time>
      </trkpt>
      <trkpt lat="45.455788" lon="1.805484">
        <ele>591</ele>
        <time>2023-05-07T09:38:43Z</time>
      </trkpt>
      <trkpt lat="45.455806" lon="1.805478">
        <ele>591</ele>
        <time>2023-05-07T09:38:44Z</time>
      </trkpt>
      <trkpt lat="45.455824" lon="1.805471">
        <ele>591</ele>
        <time>2023-05-07T09:38:45Z</time>
      </trkpt>
      <trkpt lat="45.455840" lon="1.805465">
        <ele>591</ele>
        <time>2023-05-07T09:38:46Z</time>
      </trkpt>
      <trkpt lat="45.455856" lon="1.805460">
        <ele>592</ele>
        <time>2023-05-07T09:38:47Z</time>
      </trkpt>
      <trkpt lat="45.455870" lon="1.805454">
        <ele>592</ele>
        <time>2023-05-07T09:38:48Z</time>
      </trkpt>
      <trkpt lat="45.455885" lon="1.805449">
        <ele>592</ele>
        <time>2023-05-07T09:38:49Z</time>
      </trkpt>
      <trkpt lat="45.455901" lon="1.805444">
        <ele>592</ele>
        <time>2023-05-07T09:38:50Z</time>
      </trkpt>
      <trkpt lat="45.455917" lon="1.805438">
        <ele>592</ele>
        <time>2023-05-07T09:38:51Z</time>
      </trkpt>
      <trkpt lat="45.455934" lon="1.805434">
        <ele>592</ele>
        <time>2023-05-07T09:38:52Z</time>
      </trkpt>
      <trkpt lat="45.455950" lon="1.805430">
        <ele>592</ele>
        <time>2023-05-07T09:38:53Z</time>
      </trkpt>
      <trkpt lat="45.455967" lon="1.805429">
        <ele>592</ele>
        <time>2023-05-07T09:38:54Z</time>
      </trkpt>
      <trkpt lat="45.455985" lon="1.805427">
        <ele>592</ele>
        <time>2023-05-07T09:38:55Z</time>
      </trkpt>
      <trkpt lat="45.456003" lon="1.805426">
        <ele>592</ele>
        <time>2023-05-07T09:38:56Z</time>
      </trkpt>
      <trkpt lat="45.456020" lon="1.805425">
        <ele>592</ele>
        <time>2023-05-07T09:38:57Z</time>
      </trkpt>
      <trkpt lat="45.456038" lon="1.805424">
        <ele>592</ele>
        <time>2023-05-07T09:38:58Z</time>
      </trkpt>
      <trkpt lat="45.456058" lon="1.805421">
        <ele>592</ele>
        <time>2023-05-07T09:38:59Z</time>
      </trkpt>
      <trkpt lat="45.456077" lon="1.805418">
        <ele>592</ele>
        <time>2023-05-07T09:39:00Z</time>
      </trkpt>
      <trkpt lat="45.456100" lon="1.805415">
        <ele>592</ele>
        <time>2023-05-07T09:39:01Z</time>
      </trkpt>
      <trkpt lat="45.456122" lon="1.805411">
        <ele>593</ele>
        <time>2023-05-07T09:39:02Z</time>
      </trkpt>
      <trkpt lat="45.456142" lon="1.805409">
        <ele>593</ele>
        <time>2023-05-07T09:39:03Z</time>
      </trkpt>
      <trkpt lat="45.456161" lon="1.805407">
        <ele>593</ele>
        <time>2023-05-07T09:39:04Z</time>
      </trkpt>
      <trkpt lat="45.456181" lon="1.805405">
        <ele>593</ele>
        <time>2023-05-07T09:39:05Z</time>
      </trkpt>
      <trkpt lat="45.456200" lon="1.805403">
        <ele>593</ele>
        <time>2023-05-07T09:39:06Z</time>
      </trkpt>
      <trkpt lat="45.456218" lon="1.805401">
        <ele>593</ele>
        <time>2023-05-07T09:39:07Z</time>
      </trkpt>
      <trkpt lat="45.456237" lon="1.805401">
        <ele>593</ele>
        <time>2023-05-07T09:39:08Z</time>
      </trkpt>
      <trkpt lat="45.456255" lon="1.805400">
        <ele>593</ele>
        <time>2023-05-07T09:39:09Z</time>
      </trkpt>
      <trkpt lat="45.456273" lon="1.805400">
        <ele>593</ele>
        <time>2023-05-07T09:39:10Z</time>
      </trkpt>
      <trkpt lat="45.456290" lon="1.805402">
        <ele>593</ele>
        <time>2023-05-07T09:39:11Z</time>
      </trkpt>
      <trkpt lat="45.456308" lon="1.805404">
        <ele>593</ele>
        <time>2023-05-07T09:39:12Z</time>
      </trkpt>
      <trkpt lat="45.456325" lon="1.805408">
        <ele>593</ele>
        <time>2023-05-07T09:39:13Z</time>
      </trkpt>
      <trkpt lat="45.456342" lon="1.805413">
        <ele>593</ele>
        <time>2023-05-07T09:39:14Z</time>
      </trkpt>
      <trkpt lat="45.456361" lon="1.805417">
        <ele>593</ele>
        <time>2023-05-07T09:39:15Z</time>
      </trkpt>
      <trkpt lat="45.456380" lon="1.805421">
        <ele>593</ele>
        <time>2023-05-07T09:39:16Z</time>
      </trkpt>
      <trkpt lat="45.456398" lon="1.805426">
        <ele>593</ele>
        <time>2023-05-07T09:39:17Z</time>
      </trkpt>
      <trkpt lat="45.456419" lon="1.805431">
        <ele>593</ele>
        <time>2023-05-07T09:39:18Z</time>
      </trkpt>
      <trkpt lat="45.456439" lon="1.805437">
        <ele>593</ele>
        <time>2023-05-07T09:39:19Z</time>
      </trkpt>
      <trkpt lat="45.456459" lon="1.805444">
        <ele>593</ele>
        <time>2023-05-07T09:39:20Z</time>
      </trkpt>
      <trkpt lat="45.456479" lon="1.805451">
        <ele>593</ele>
        <time>2023-05-07T09:39:21Z</time>
      </trkpt>
      <trkpt lat="45.456497" lon="1.805458">
        <ele>594</ele>
        <time>2023-05-07T09:39:22Z</time>
      </trkpt>
      <trkpt lat="45.456516" lon="1.805465">
        <ele>594</ele>
        <time>2023-05-07T09:39:23Z</time>
      </trkpt>
      <trkpt lat="45.456536" lon="1.805472">
        <ele>594</ele>
        <time>2023-05-07T09:39:24Z</time>
      </trkpt>
      <trkpt lat="45.456556" lon="1.805479">
        <ele>594</ele>
        <time>2023-05-07T09:39:25Z</time>
      </trkpt>
      <trkpt lat="45.456576" lon="1.805487">
        <ele>594</ele>
        <time>2023-05-07T09:39:26Z</time>
      </trkpt>
      <trkpt lat="45.456597" lon="1.805495">
        <ele>594</ele>
        <time>2023-05-07T09:39:27Z</time>
      </trkpt>
      <trkpt lat="45.456615" lon="1.805504">
        <ele>594</ele>
        <time>2023-05-07T09:39:28Z</time>
      </trkpt>
      <trkpt lat="45.456633" lon="1.805513">
        <ele>594</ele>
        <time>2023-05-07T09:39:29Z</time>
      </trkpt>
      <trkpt lat="45.456652" lon="1.805522">
        <ele>594</ele>
        <time>2023-05-07T09:39:30Z</time>
      </trkpt>
      <trkpt lat="45.456670" lon="1.805532">
        <ele>594</ele>
        <time>2023-05-07T09:39:31Z</time>
      </trkpt>
      <trkpt lat="45.456687" lon="1.805542">
        <ele>594</ele>
        <time>2023-05-07T09:39:32Z</time>
      </trkpt>
      <trkpt lat="45.456705" lon="1.805553">
        <ele>594</ele>
        <time>2023-05-07T09:39:33Z</time>
      </trkpt>
      <trkpt lat="45.456721" lon="1.805562">
        <ele>594</ele>
        <time>2023-05-07T09:39:34Z</time>
      </trkpt>
      <trkpt lat="45.456738" lon="1.805572">
        <ele>594</ele>
        <time>2023-05-07T09:39:35Z</time>
      </trkpt>
      <trkpt lat="45.456755" lon="1.805581">
        <ele>594</ele>
        <time>2023-05-07T09:39:36Z</time>
      </trkpt>
      <trkpt lat="45.456772" lon="1.805589">
        <ele>594</ele>
        <time>2023-05-07T09:39:37Z</time>
      </trkpt>
      <trkpt lat="45.456788" lon="1.805598">
        <ele>594</ele>
        <time>2023-05-07T09:39:38Z</time>
      </trkpt>
      <trkpt lat="45.456804" lon="1.805608">
        <ele>594</ele>
        <time>2023-05-07T09:39:39Z</time>
      </trkpt>
      <trkpt lat="45.456820" lon="1.805617">
        <ele>594</ele>
        <time>2023-05-07T09:39:40Z</time>
      </trkpt>
      <trkpt lat="45.456838" lon="1.805628">
        <ele>594</ele>
        <time>2023-05-07T09:39:41Z</time>
      </trkpt>
      <trkpt lat="45.456855" lon="1.805638">
        <ele>595</ele>
        <time>2023-05-07T09:39:42Z</time>
      </trkpt>
      <trkpt lat="45.456872" lon="1.805647">
        <ele>595</ele>
        <time>2023-05-07T09:39:43Z</time>
      </trkpt>
      <trkpt lat="45.456889" lon="1.805657">
        <ele>595</ele>
        <time>2023-05-07T09:39:44Z</time>
      </trkpt>
      <trkpt lat="45.456904" lon="1.805665">
        <ele>595</ele>
        <time>2023-05-07T09:39:45Z</time>
      </trkpt>
      <trkpt lat="45.456919" lon="1.805673">
        <ele>595</ele>
        <time>2023-05-07T09:39:46Z</time>
      </trkpt>
      <trkpt lat="45.456935" lon="1.805680">
        <ele>595</ele>
        <time>2023-05-07T09:39:47Z</time>
      </trkpt>
      <trkpt lat="45.456951" lon="1.805687">
        <ele>595</ele>
        <time>2023-05-07T09:39:48Z</time>
      </trkpt>
      <trkpt lat="45.456967" lon="1.805695">
        <ele>595</ele>
        <time>2023-05-07T09:39:49Z</time>
      </trkpt>
      <trkpt lat="45.456983" lon="1.805703">
        <ele>595</ele>
        <time>2023-05-07T09:39:50Z</time>
      </trkpt>
      <trkpt lat="45.456999" lon="1.805712">
        <ele>595</ele>
        <time>2023-05-07T09:39:51Z</time>
      </trkpt>
      <trkpt lat="45.457016" lon="1.805722">
        <ele>595</ele>
        <time>2023-05-07T09:39:52Z</time>
      </trkpt>
      <trkpt lat="45.457034" lon="1.805732">
        <ele>595</ele>
        <time>2023-05-07T09:39:53Z</time>
      </trkpt>
      <trkpt lat="45.457052" lon="1.805743">
        <ele>595</ele>
        <time>2023-05-07T09:39:54Z</time>
      </trkpt>
      <trkpt lat="45.457071" lon="1.805753">
        <ele>595</ele>
        <time>2023-05-07T09:39:55Z</time>
      </trkpt>
      <trkpt lat="45.457090" lon="1.805763">
        <ele>595</ele>
        <time>2023-05-07T09:39:56Z</time>
      </trkpt>
      <trkpt lat="45.457108" lon="1.805771">
        <ele>596</ele>
        <time>2023-05-07T09:39:57Z</time>
      </trkpt>
      <trkpt lat="45.457126" lon="1.805778">
        <ele>596</ele>
        <time>2023-05-07T09:39:58Z</time>
      </trkpt>
      <trkpt lat="45.457142" lon="1.805787">
        <ele>596</ele>
        <time>2023-05-07T09:39:59Z</time>
      </trkpt>
      <trkpt lat="45.457158" lon="1.805797">
        <ele>596</ele>
        <time>2023-05-07T09:40:00Z</time>
      </trkpt>
      <trkpt lat="45.457176" lon="1.805809">
        <ele>596</ele>
        <time>2023-05-07T09:40:01Z</time>
      </trkpt>
      <trkpt lat="45.457194" lon="1.805821">
        <ele>596</ele>
        <time>2023-05-07T09:40:02Z</time>
      </trkpt>
      <trkpt lat="45.457214" lon="1.805832">
        <ele>596</ele>
        <time>2023-05-07T09:40:03Z</time>
      </trkpt>
      <trkpt lat="45.457235" lon="1.805844">
        <ele>596</ele>
        <time>2023-05-07T09:40:04Z</time>
      </trkpt>
      <trkpt lat="45.457259" lon="1.805856">
        <ele>596</ele>
        <time>2023-05-07T09:40:05Z</time>
      </trkpt>
      <trkpt lat="45.457282" lon="1.805869">
        <ele>596</ele>
        <time>2023-05-07T09:40:06Z</time>
      </trkpt>
      <trkpt lat="45.457307" lon="1.805883">
        <ele>596</ele>
        <time>2023-05-07T09:40:07Z</time>
      </trkpt>
      <trkpt lat="45.457332" lon="1.805897">
        <ele>595</ele>
        <time>2023-05-07T09:40:08Z</time>
      </trkpt>
      <trkpt lat="45.457355" lon="1.805911">
        <ele>595</ele>
        <time>2023-05-07T09:40:09Z</time>
      </trkpt>
      <trkpt lat="45.457379" lon="1.805925">
        <ele>595</ele>
        <time>2023-05-07T09:40:10Z</time>
      </trkpt>
      <trkpt lat="45.457402" lon="1.805938">
        <ele>595</ele>
        <time>2023-05-07T09:40:11Z</time>
      </trkpt>
      <trkpt lat="45.457425" lon="1.805951">
        <ele>595</ele>
        <time>2023-05-07T09:40:12Z</time>
      </trkpt>
      <trkpt lat="45.457447" lon="1.805963">
        <ele>595</ele>
        <time>2023-05-07T09:40:13Z</time>
      </trkpt>
      <trkpt lat="45.457468" lon="1.805975">
        <ele>595</ele>
        <time>2023-05-07T09:40:14Z</time>
      </trkpt>
      <trkpt lat="45.457489" lon="1.805985">
        <ele>595</ele>
        <time>2023-05-07T09:40:15Z</time>
      </trkpt>
      <trkpt lat="45.457510" lon="1.805995">
        <ele>595</ele>
        <time>2023-05-07T09:40:16Z</time>
      </trkpt>
      <trkpt lat="45.457531" lon="1.806004">
        <ele>595</ele>
        <time>2023-05-07T09:40:17Z</time>
      </trkpt>
      <trkpt lat="45.457552" lon="1.806013">
        <ele>595</ele>
        <time>2023-05-07T09:40:18Z</time>
      </trkpt>
      <trkpt lat="45.457574" lon="1.806022">
        <ele>595</ele>
        <time>2023-05-07T09:40:19Z</time>
      </trkpt>
      <trkpt lat="45.457596" lon="1.806031">
        <ele>595</ele>
        <time>2023-05-07T09:40:20Z</time>
      </trkpt>
      <trkpt lat="45.457617" lon="1.806040">
        <ele>595</ele>
        <time>2023-05-07T09:40:21Z</time>
      </trkpt>
      <trkpt lat="45.457638" lon="1.806050">
        <ele>595</ele>
        <time>2023-05-07T09:40:22Z</time>
      </trkpt>
      <trkpt lat="45.457659" lon="1.806060">
        <ele>594</ele>
        <time>2023-05-07T09:40:23Z</time>
      </trkpt>
      <trkpt lat="45.457680" lon="1.806070">
        <ele>594</ele>
        <time>2023-05-07T09:40:24Z</time>
      </trkpt>
      <trkpt lat="45.457700" lon="1.806080">
        <ele>594</ele>
        <time>2023-05-07T09:40:25Z</time>
      </trkpt>
      <trkpt lat="45.457721" lon="1.806091">
        <ele>594</ele>
        <time>2023-05-07T09:40:26Z</time>
      </trkpt>
      <trkpt lat="45.457742" lon="1.806102">
        <ele>594</ele>
        <time>2023-05-07T09:40:27Z</time>
      </trkpt>
      <trkpt lat="45.457763" lon="1.806113">
        <ele>594</ele>
        <time>2023-05-07T09:40:28Z</time>
      </trkpt>
      <trkpt lat="45.457785" lon="1.806127">
        <ele>594</ele>
        <time>2023-05-07T09:40:29Z</time>
      </trkpt>
      <trkpt lat="45.457807" lon="1.806140">
        <ele>594</ele>
        <time>2023-05-07T09:40:30Z</time>
      </trkpt>
      <trkpt lat="45.457831" lon="1.806155">
        <ele>594</ele>
        <time>2023-05-07T09:40:31Z</time>
      </trkpt>
      <trkpt lat="45.457855" lon="1.806169">
        <ele>594</ele>
        <time>2023-05-07T09:40:32Z</time>
      </trkpt>
      <trkpt lat="45.457882" lon="1.806183">
        <ele>593</ele>
        <time>2023-05-07T09:40:33Z</time>
      </trkpt>
      <trkpt lat="45.457908" lon="1.806197">
        <ele>593</ele>
        <time>2023-05-07T09:40:34Z</time>
      </trkpt>
      <trkpt lat="45.457936" lon="1.806211">
        <ele>593</ele>
        <time>2023-05-07T09:40:35Z</time>
      </trkpt>
      <trkpt lat="45.457964" lon="1.806225">
        <ele>593</ele>
        <time>2023-05-07T09:40:36Z</time>
      </trkpt>
      <trkpt lat="45.457992" lon="1.806237">
        <ele>593</ele>
        <time>2023-05-07T09:40:37Z</time>
      </trkpt>
      <trkpt lat="45.458020" lon="1.806249">
        <ele>593</ele>
        <time>2023-05-07T09:40:38Z</time>
      </trkpt>
      <trkpt lat="45.458048" lon="1.806261">
        <ele>593</ele>
        <time>2023-05-07T09:40:39Z</time>
      </trkpt>
      <trkpt lat="45.458077" lon="1.806273">
        <ele>593</ele>
        <time>2023-05-07T09:40:40Z</time>
      </trkpt>
      <trkpt lat="45.458104" lon="1.806284">
        <ele>593</ele>
        <time>2023-05-07T09:40:41Z</time>
      </trkpt>
      <trkpt lat="45.458132" lon="1.806295">
        <ele>593</ele>
        <time>2023-05-07T09:40:42Z</time>
      </trkpt>
      <trkpt lat="45.458156" lon="1.806306">
        <ele>592</ele>
        <time>2023-05-07T09:40:43Z</time>
      </trkpt>
      <trkpt lat="45.458180" lon="1.806317">
        <ele>592</ele>
        <time>2023-05-07T09:40:44Z</time>
      </trkpt>
      <trkpt lat="45.458203" lon="1.806328">
        <ele>592</ele>
        <time>2023-05-07T09:40:45Z</time>
      </trkpt>
      <trkpt lat="45.458226" lon="1.806339">
        <ele>592</ele>
        <time>2023-05-07T09:40:46Z</time>
      </trkpt>
      <trkpt lat="45.458250" lon="1.806348">
        <ele>592</ele>
        <time>2023-05-07T09:40:47Z</time>
      </trkpt>
      <trkpt lat="45.458275" lon="1.806358">
        <ele>592</ele>
        <time>2023-05-07T09:40:48Z</time>
      </trkpt>
      <trkpt lat="45.458300" lon="1.806366">
        <ele>592</ele>
        <time>2023-05-07T09:40:49Z</time>
      </trkpt>
      <trkpt lat="45.458324" lon="1.806375">
        <ele>592</ele>
        <time>2023-05-07T09:40:50Z</time>
      </trkpt>
      <trkpt lat="45.458348" lon="1.806384">
        <ele>592</ele>
        <time>2023-05-07T09:40:51Z</time>
      </trkpt>
      <trkpt lat="45.458372" lon="1.806394">
        <ele>592</ele>
        <time>2023-05-07T09:40:52Z</time>
      </trkpt>
      <trkpt lat="45.458394" lon="1.806403">
        <ele>592</ele>
        <time>2023-05-07T09:40:53Z</time>
      </trkpt>
      <trkpt lat="45.458417" lon="1.806412">
        <ele>592</ele>
        <time>2023-05-07T09:40:54Z</time>
      </trkpt>
      <trkpt lat="45.458439" lon="1.806420">
        <ele>592</ele>
        <time>2023-05-07T09:40:55Z</time>
      </trkpt>
      <trkpt lat="45.458461" lon="1.806428">
        <ele>592</ele>
        <time>2023-05-07T09:40:56Z</time>
      </trkpt>
      <trkpt lat="45.458483" lon="1.806433">
        <ele>592</ele>
        <time>2023-05-07T09:40:57Z</time>
      </trkpt>
      <trkpt lat="45.458504" lon="1.806437">
        <ele>592</ele>
        <time>2023-05-07T09:40:58Z</time>
      </trkpt>
      <trkpt lat="45.458526" lon="1.806442">
        <ele>592</ele>
        <time>2023-05-07T09:40:59Z</time>
      </trkpt>
      <trkpt lat="45.458548" lon="1.806443">
        <ele>592</ele>
        <time>2023-05-07T09:41:00Z</time>
      </trkpt>
      <trkpt lat="45.458570" lon="1.806444">
        <ele>592</ele>
        <time>2023-05-07T09:41:01Z</time>
      </trkpt>
      <trkpt lat="45.458594" lon="1.806446">
        <ele>592</ele>
        <time>2023-05-07T09:41:02Z</time>
      </trkpt>
      <trkpt lat="45.458618" lon="1.806447">
        <ele>592</ele>
        <time>2023-05-07T09:41:03Z</time>
      </trkpt>
      <trkpt lat="45.458644" lon="1.806451">
        <ele>592</ele>
        <time>2023-05-07T09:41:04Z</time>
      </trkpt>
      <trkpt lat="45.458670" lon="1.806454">
        <ele>592</ele>
        <time>2023-05-07T09:41:05Z</time>
      </trkpt>
      <trkpt lat="45.458696" lon="1.806458">
        <ele>592</ele>
        <time>2023-05-07T09:41:06Z</time>
      </trkpt>
      <trkpt lat="45.458723" lon="1.806463">
        <ele>592</ele>
        <time>2023-05-07T09:41:07Z</time>
      </trkpt>
      <trkpt lat="45.458746" lon="1.806469">
        <ele>591</ele>
        <time>2023-05-07T09:41:08Z</time>
      </trkpt>
      <trkpt lat="45.458770" lon="1.806476">
        <ele>591</ele>
        <time>2023-05-07T09:41:09Z</time>
      </trkpt>
      <trkpt lat="45.458790" lon="1.806483">
        <ele>591</ele>
        <time>2023-05-07T09:41:10Z</time>
      </trkpt>
      <trkpt lat="45.458811" lon="1.806491">
        <ele>591</ele>
        <time>2023-05-07T09:41:11Z</time>
      </trkpt>
      <trkpt lat="45.458831" lon="1.806500">
        <ele>591</ele>
        <time>2023-05-07T09:41:12Z</time>
      </trkpt>
      <trkpt lat="45.458852" lon="1.806509">
        <ele>590</ele>
        <time>2023-05-07T09:41:13Z</time>
      </trkpt>
      <trkpt lat="45.458874" lon="1.806520">
        <ele>590</ele>
        <time>2023-05-07T09:41:14Z</time>
      </trkpt>
      <trkpt lat="45.458896" lon="1.806530">
        <ele>590</ele>
        <time>2023-05-07T09:41:15Z</time>
      </trkpt>
      <trkpt lat="45.458919" lon="1.806542">
        <ele>590</ele>
        <time>2023-05-07T09:41:16Z</time>
      </trkpt>
      <trkpt lat="45.458941" lon="1.806553">
        <ele>590</ele>
        <time>2023-05-07T09:41:17Z</time>
      </trkpt>
      <trkpt lat="45.458964" lon="1.806565">
        <ele>590</ele>
        <time>2023-05-07T09:41:18Z</time>
      </trkpt>
      <trkpt lat="45.458986" lon="1.806577">
        <ele>590</ele>
        <time>2023-05-07T09:41:19Z</time>
      </trkpt>
      <trkpt lat="45.459008" lon="1.806589">
        <ele>590</ele>
        <time>2023-05-07T09:41:20Z</time>
      </trkpt>
      <trkpt lat="45.459030" lon="1.806601">
        <ele>590</ele>
        <time>2023-05-07T09:41:21Z</time>
      </trkpt>
      <trkpt lat="45.459052" lon="1.806612">
        <ele>590</ele>
        <time>2023-05-07T09:41:22Z</time>
      </trkpt>
      <trkpt lat="45.459074" lon="1.806624">
        <ele>590</ele>
        <time>2023-05-07T09:41:23Z</time>
      </trkpt>
      <trkpt lat="45.459096" lon="1.806635">
        <ele>590</ele>
        <time>2023-05-07T09:41:24Z</time>
      </trkpt>
      <trkpt lat="45.459118" lon="1.806647">
        <ele>590</ele>
        <time>2023-05-07T09:41:25Z</time>
      </trkpt>
      <trkpt lat="45.459139" lon="1.806657">
        <ele>590</ele>
        <time>2023-05-07T09:41:26Z</time>
      </trkpt>
      <trkpt lat="45.459160" lon="1.806667">
        <ele>590</ele>
        <time>2023-05-07T09:41:27Z</time>
      </trkpt>
      <trkpt lat="45.459181" lon="1.806675">
        <ele>589</ele>
        <time>2023-05-07T09:41:28Z</time>
      </trkpt>
      <trkpt lat="45.459203" lon="1.806683">
        <ele>589</ele>
        <time>2023-05-07T09:41:29Z</time>
      </trkpt>
      <trkpt lat="45.459225" lon="1.806689">
        <ele>589</ele>
        <time>2023-05-07T09:41:30Z</time>
      </trkpt>
      <trkpt lat="45.459247" lon="1.806695">
        <ele>589</ele>
        <time>2023-05-07T09:41:31Z</time>
      </trkpt>
      <trkpt lat="45.459270" lon="1.806699">
        <ele>589</ele>
        <time>2023-05-07T09:41:32Z</time>
      </trkpt>
      <trkpt lat="45.459292" lon="1.806703">
        <ele>589</ele>
        <time>2023-05-07T09:41:33Z</time>
      </trkpt>
      <trkpt lat="45.459314" lon="1.806705">
        <ele>589</ele>
        <time>2023-05-07T09:41:34Z</time>
      </trkpt>
      <trkpt lat="45.459335" lon="1.806707">
        <ele>589</ele>
        <time>2023-05-07T09:41:35Z</time>
      </trkpt>
      <trkpt lat="45.459355" lon="1.806708">
        <ele>589</ele>
        <time>2023-05-07T09:41:36Z</time>
      </trkpt>
      <trkpt lat="45.459376" lon="1.806709">
        <ele>589</ele>
        <time>2023-05-07T09:41:37Z</time>
      </trkpt>
      <trkpt lat="45.459395" lon="1.806708">
        <ele>589</ele>
        <time>2023-05-07T09:41:38Z</time>
      </trkpt>
      <trkpt lat="45.459415" lon="1.806708">
        <ele>589</ele>
        <time>2023-05-07T09:41:39Z</time>
      </trkpt>
      <trkpt lat="45.459435" lon="1.806708">
        <ele>589</ele>
        <time>2023-05-07T09:41:40Z</time>
      </trkpt>
      <trkpt lat="45.459455" lon="1.806708">
        <ele>589</ele>
        <time>2023-05-07T09:41:41Z</time>
      </trkpt>
      <trkpt lat="45.459476" lon="1.806705">
        <ele>589</ele>
        <time>2023-05-07T09:41:42Z</time>
      </trkpt>
      <trkpt lat="45.459496" lon="1.806701">
        <ele>589</ele>
        <time>2023-05-07T09:41:43Z</time>
      </trkpt>
      <trkpt lat="45.459517" lon="1.806694">
        <ele>589</ele>
        <time>2023-05-07T09:41:44Z</time>
      </trkpt>
      <trkpt lat="45.459539" lon="1.806687">
        <ele>589</ele>
        <time>2023-05-07T09:41:45Z</time>
      </trkpt>
      <trkpt lat="45.459562" lon="1.806676">
        <ele>589</ele>
        <time>2023-05-07T09:41:46Z</time>
      </trkpt>
      <trkpt lat="45.459585" lon="1.806665">
        <ele>590</ele>
        <time>2023-05-07T09:41:47Z</time>
      </trkpt>
      <trkpt lat="45.459608" lon="1.806655">
        <ele>590</ele>
        <time>2023-05-07T09:41:48Z</time>
      </trkpt>
      <trkpt lat="45.459631" lon="1.806644">
        <ele>590</ele>
        <time>2023-05-07T09:41:49Z</time>
      </trkpt>
      <trkpt lat="45.459650" lon="1.806637">
        <ele>590</ele>
        <time>2023-05-07T09:41:50Z</time>
      </trkpt>
      <trkpt lat="45.459669" lon="1.806630">
        <ele>590</ele>
        <time>2023-05-07T09:41:51Z</time>
      </trkpt>
      <trkpt lat="45.459689" lon="1.806626">
        <ele>590</ele>
        <time>2023-05-07T09:41:52Z</time>
      </trkpt>
      <trkpt lat="45.459708" lon="1.806622">
        <ele>590</ele>
        <time>2023-05-07T09:41:53Z</time>
      </trkpt>
      <trkpt lat="45.459728" lon="1.806621">
        <ele>590</ele>
        <time>2023-05-07T09:41:54Z</time>
      </trkpt>
      <trkpt lat="45.459747" lon="1.806620">
        <ele>590</ele>
        <time>2023-05-07T09:41:55Z</time>
      </trkpt>
      <trkpt lat="45.459766" lon="1.806622">
        <ele>590</ele>
        <time>2023-05-07T09:41:56Z</time>
      </trkpt>
      <trkpt lat="45.459785" lon="1.806624">
        <ele>590</ele>
        <time>2023-05-07T09:41:57Z</time>
      </trkpt>
      <trkpt lat="45.459801" lon="1.806626">
        <ele>590</ele>
        <time>2023-05-07T09:41:58Z</time>
      </trkpt>
      <trkpt lat="45.459818" lon="1.806629">
        <ele>590</ele>
        <time>2023-05-07T09:41:59Z</time>
      </trkpt>
      <trkpt lat="45.459832" lon="1.806631">
        <ele>590</ele>
        <time>2023-05-07T09:42:00Z</time>
      </trkpt>
      <trkpt lat="45.459846" lon="1.806634">
        <ele>590</ele>
        <time>2023-05-07T09:42:01Z</time>
      </trkpt>
      <trkpt lat="45.459859" lon="1.806640">
        <ele>590</ele>
        <time>2023-05-07T09:42:02Z</time>
      </trkpt>
      <trkpt lat="45.459873" lon="1.806646">
        <ele>590</ele>
        <time>2023-05-07T09:42:03Z</time>
      </trkpt>
      <trkpt lat="45.459887" lon="1.806657">
        <ele>590</ele>
        <time>2023-05-07T09:42:04Z</time>
      </trkpt>
      <trkpt lat="45.459902" lon="1.806667">
        <ele>590</ele>
        <time>2023-05-07T09:42:05Z</time>
      </trkpt>
      <trkpt lat="45.459920" lon="1.806679">
        <ele>590</ele>
        <time>2023-05-07T09:42:06Z</time>
      </trkpt>
      <trkpt lat="45.459938" lon="1.806690">
        <ele>590</ele>
        <time>2023-05-07T09:42:07Z</time>
      </trkpt>
      <trkpt lat="45.459957" lon="1.806696">
        <ele>590</ele>
        <time>2023-05-07T09:42:08Z</time>
      </trkpt>
      <trkpt lat="45.459976" lon="1.806703">
        <ele>590</ele>
        <time>2023-05-07T09:42:09Z</time>
      </trkpt>
      <trkpt lat="45.459995" lon="1.806707">
        <ele>590</ele>
        <time>2023-05-07T09:42:10Z</time>
      </trkpt>
      <trkpt lat="45.460013" lon="1.806711">
        <ele>590</ele>
        <time>2023-05-07T09:42:11Z</time>
      </trkpt>
      <trkpt lat="45.460031" lon="1.806718">
        <ele>590</ele>
        <time>2023-05-07T09:42:12Z</time>
      </trkpt>
      <trkpt lat="45.460049" lon="1.806725">
        <ele>590</ele>
        <time>2023-05-07T09:42:13Z</time>
      </trkpt>
      <trkpt lat="45.460067" lon="1.806734">
        <ele>590</ele>
        <time>2023-05-07T09:42:14Z</time>
      </trkpt>
      <trkpt lat="45.460084" lon="1.806744">
        <ele>590</ele>
        <time>2023-05-07T09:42:15Z</time>
      </trkpt>
      <trkpt lat="45.460102" lon="1.806754">
        <ele>590</ele>
        <time>2023-05-07T09:42:16Z</time>
      </trkpt>
      <trkpt lat="45.460119" lon="1.806764">
        <ele>590</ele>
        <time>2023-05-07T09:42:17Z</time>
      </trkpt>
      <trkpt lat="45.460138" lon="1.806774">
        <ele>590</ele>
        <time>2023-05-07T09:42:18Z</time>
      </trkpt>
      <trkpt lat="45.460157" lon="1.806784">
        <ele>590</ele>
        <time>2023-05-07T09:42:19Z</time>
      </trkpt>
      <trkpt lat="45.460176" lon="1.806791">
        <ele>590</ele>
        <time>2023-05-07T09:42:20Z</time>
      </trkpt>
      <trkpt lat="45.460196" lon="1.806798">
        <ele>590</ele>
        <time>2023-05-07T09:42:21Z</time>
      </trkpt>
      <trkpt lat="45.460215" lon="1.806805">
        <ele>590</ele>
        <time>2023-05-07T09:42:22Z</time>
      </trkpt>
      <trkpt lat="45.460232" lon="1.806811">
        <ele>590</ele>
        <time>2023-05-07T09:42:23Z</time>
      </trkpt>
      <trkpt lat="45.460249" lon="1.806817">
        <ele>590</ele>
        <time>2023-05-07T09:42:24Z</time>
      </trkpt>
      <trkpt lat="45.460266" lon="1.806823">
        <ele>590</ele>
        <time>2023-05-07T09:42:25Z</time>
      </trkpt>
      <trkpt lat="45.460283" lon="1.806828">
        <ele>590</ele>
        <time>2023-05-07T09:42:26Z</time>
      </trkpt>
      <trkpt lat="45.460300" lon="1.806833">
        <ele>590</ele>
        <time>2023-05-07T09:42:27Z</time>
      </trkpt>
      <trkpt lat="45.460318" lon="1.806840">
        <ele>590</ele>
        <time>2023-05-07T09:42:28Z</time>
      </trkpt>
      <trkpt lat="45.460337" lon="1.806847">
        <ele>590</ele>
        <time>2023-05-07T09:42:29Z</time>
      </trkpt>
      <trkpt lat="45.460353" lon="1.806858">
        <ele>590</ele>
        <time>2023-05-07T09:42:30Z</time>
      </trkpt>
      <trkpt lat="45.460370" lon="1.806870">
        <ele>590</ele>
        <time>2023-05-07T09:42:31Z</time>
      </trkpt>
      <trkpt lat="45.460382" lon="1.806886">
        <ele>590</ele>
        <time>2023-05-07T09:42:32Z</time>
      </trkpt>
      <trkpt lat="45.460395" lon="1.806902">
        <ele>590</ele>
        <time>2023-05-07T09:42:33Z</time>
      </trkpt>
      <trkpt lat="45.460404" lon="1.806922">
        <ele>590</ele>
        <time>2023-05-07T09:42:34Z</time>
      </trkpt>
      <trkpt lat="45.460413" lon="1.806941">
        <ele>590</ele>
        <time>2023-05-07T09:42:35Z</time>
      </trkpt>
      <trkpt lat="45.460419" lon="1.806963">
        <ele>590</ele>
        <time>2023-05-07T09:42:36Z</time>
      </trkpt>
      <trkpt lat="45.460424" lon="1.806986">
        <ele>591</ele>
        <time>2023-05-07T09:42:37Z</time>
      </trkpt>
      <trkpt lat="45.460427" lon="1.807010">
        <ele>591</ele>
        <time>2023-05-07T09:42:38Z</time>
      </trkpt>
      <trkpt lat="45.460431" lon="1.807034">
        <ele>591</ele>
        <time>2023-05-07T09:42:39Z</time>
      </trkpt>
      <trkpt lat="45.460434" lon="1.807062">
        <ele>591</ele>
        <time>2023-05-07T09:42:40Z</time>
      </trkpt>
      <trkpt lat="45.460437" lon="1.807089">
        <ele>591</ele>
        <time>2023-05-07T09:42:41Z</time>
      </trkpt>
      <trkpt lat="45.460442" lon="1.807117">
        <ele>591</ele>
        <time>2023-05-07T09:42:42Z</time>
      </trkpt>
      <trkpt lat="45.460446" lon="1.807146">
        <ele>591</ele>
        <time>2023-05-07T09:42:43Z</time>
      </trkpt>
      <trkpt lat="45.460450" lon="1.807173">
        <ele>591</ele>
        <time>2023-05-07T09:42:44Z</time>
      </trkpt>
      <trkpt lat="45.460453" lon="1.807201">
        <ele>591</ele>
        <time>2023-05-07T09:42:45Z</time>
      </trkpt>
      <trkpt lat="45.460455" lon="1.807228">
        <ele>591</ele>
        <time>2023-05-07T09:42:46Z</time>
      </trkpt>
      <trkpt lat="45.460457" lon="1.807254">
        <ele>591</ele>
        <time>2023-05-07T09:42:47Z</time>
      </trkpt>
      <trkpt lat="45.460459" lon="1.807281">
        <ele>591</ele>
        <time>2023-05-07T09:42:48Z</time>
      </trkpt>
      <trkpt lat="45.460461" lon="1.807308">
        <ele>591</ele>
        <time>2023-05-07T09:42:49Z</time>
      </trkpt>
      <trkpt lat="45.460464" lon="1.807332">
        <ele>591</ele>
        <time>2023-05-07T09:42:50Z</time>
      </trkpt>
      <trkpt lat="45.460468" lon="1.807356">
        <ele>591</ele>
        <time>2023-05-07T09:42:51Z</time>
      </trkpt>
      <trkpt lat="45.460474" lon="1.807379">
        <ele>591</ele>
        <time>2023-05-07T09:42:52Z</time>
      </trkpt>
      <trkpt lat="45.460480" lon="1.807402">
        <ele>591</ele>
        <time>2023-05-07T09:42:53Z</time>
      </trkpt>
      <trkpt lat="45.460488" lon="1.807424">
        <ele>591</ele>
        <time>2023-05-07T09:42:54Z</time>
      </trkpt>
      <trkpt lat="45.460496" lon="1.807445">
        <ele>591</ele>
        <time>2023-05-07T09:42:55Z</time>
      </trkpt>
      <trkpt lat="45.460504" lon="1.807464">
        <ele>591</ele>
        <time>2023-05-07T09:42:56Z</time>
      </trkpt>
      <trkpt lat="45.460512" lon="1.807482">
        <ele>592</ele>
        <time>2023-05-07T09:42:57Z</time>
      </trkpt>
      <trkpt lat="45.460518" lon="1.807495">
        <ele>592</ele>
        <time>2023-05-07T09:42:58Z</time>
      </trkpt>
      <trkpt lat="45.460525" lon="1.807507">
        <ele>592</ele>
        <time>2023-05-07T09:42:59Z</time>
      </trkpt>
      <trkpt lat="45.460532" lon="1.807519">
        <ele>592</ele>
        <time>2023-05-07T09:43:00Z</time>
      </trkpt>
      <trkpt lat="45.460539" lon="1.807530">
        <ele>592</ele>
        <time>2023-05-07T09:43:01Z</time>
      </trkpt>
      <trkpt lat="45.460548" lon="1.807547">
        <ele>592</ele>
        <time>2023-05-07T09:43:02Z</time>
      </trkpt>
      <trkpt lat="45.460557" lon="1.807563">
        <ele>592</ele>
        <time>2023-05-07T09:43:03Z</time>
      </trkpt>
      <trkpt lat="45.460569" lon="1.807587">
        <ele>592</ele>
        <time>2023-05-07T09:43:04Z</time>
      </trkpt>
      <trkpt lat="45.460582" lon="1.807610">
        <ele>592</ele>
        <time>2023-05-07T09:43:05Z</time>
      </trkpt>
      <trkpt lat="45.460597" lon="1.807637">
        <ele>592</ele>
        <time>2023-05-07T09:43:06Z</time>
      </trkpt>
      <trkpt lat="45.460613" lon="1.807664">
        <ele>592</ele>
        <time>2023-05-07T09:43:07Z</time>
      </trkpt>
      <trkpt lat="45.460627" lon="1.807691">
        <ele>592</ele>
        <time>2023-05-07T09:43:08Z</time>
      </trkpt>
      <trkpt lat="45.460641" lon="1.807717">
        <ele>592</ele>
        <time>2023-05-07T09:43:09Z</time>
      </trkpt>
      <trkpt lat="45.460655" lon="1.807741">
        <ele>592</ele>
        <time>2023-05-07T09:43:10Z</time>
      </trkpt>
      <trkpt lat="45.460669" lon="1.807766">
        <ele>592</ele>
        <time>2023-05-07T09:43:11Z</time>
      </trkpt>
      <trkpt lat="45.460682" lon="1.807787">
        <ele>592</ele>
        <time>2023-05-07T09:43:12Z</time>
      </trkpt>
      <trkpt lat="45.460696" lon="1.807809">
        <ele>592</ele>
        <time>2023-05-07T09:43:13Z</time>
      </trkpt>
      <trkpt lat="45.460708" lon="1.807832">
        <ele>592</ele>
        <time>2023-05-07T09:43:14Z</time>
      </trkpt>
      <trkpt lat="45.460721" lon="1.807855">
        <ele>592</ele>
        <time>2023-05-07T09:43:15Z</time>
      </trkpt>
      <trkpt lat="45.460733" lon="1.807880">
        <ele>592</ele>
        <time>2023-05-07T09:43:16Z</time>
      </trkpt>
      <trkpt lat="45.460745" lon="1.807904">
        <ele>593</ele>
        <time>2023-05-07T09:43:17Z</time>
      </trkpt>
      <trkpt lat="45.460755" lon="1.807927">
        <ele>593</ele>
        <time>2023-05-07T09:43:18Z</time>
      </trkpt>
      <trkpt lat="45.460766" lon="1.807950">
        <ele>593</ele>
        <time>2023-05-07T09:43:19Z</time>
      </trkpt>
      <trkpt lat="45.460777" lon="1.807968">
        <ele>593</ele>
        <time>2023-05-07T09:43:20Z</time>
      </trkpt>
      <trkpt lat="45.460787" lon="1.807986">
        <ele>593</ele>
        <time>2023-05-07T09:43:21Z</time>
      </trkpt>
      <trkpt lat="45.460797" lon="1.808002">
        <ele>593</ele>
        <time>2023-05-07T09:43:22Z</time>
      </trkpt>
      <trkpt lat="45.460807" lon="1.808017">
        <ele>593</ele>
        <time>2023-05-07T09:43:23Z</time>
      </trkpt>
      <trkpt lat="45.460818" lon="1.808034">
        <ele>593</ele>
        <time>2023-05-07T09:43:24Z</time>
      </trkpt>
      <trkpt lat="45.460828" lon="1.808051">
        <ele>593</ele>
        <time>2023-05-07T09:43:25Z</time>
      </trkpt>
      <trkpt lat="45.460840" lon="1.808072">
        <ele>593</ele>
        <time>2023-05-07T09:43:26Z</time>
      </trkpt>
      <trkpt lat="45.460852" lon="1.808093">
        <ele>593</ele>
        <time>2023-05-07T09:43:27Z</time>
      </trkpt>
      <trkpt lat="45.460866" lon="1.808116">
        <ele>593</ele>
        <time>2023-05-07T09:43:28Z</time>
      </trkpt>
      <trkpt lat="45.460881" lon="1.808139">
        <ele>593</ele>
        <time>2023-05-07T09:43:29Z</time>
      </trkpt>
      <trkpt lat="45.460893" lon="1.808161">
        <ele>593</ele>
        <time>2023-05-07T09:43:30Z</time>
      </trkpt>
      <trkpt lat="45.460905" lon="1.808184">
        <ele>593</ele>
        <time>2023-05-07T09:43:31Z</time>
      </trkpt>
      <trkpt lat="45.460913" lon="1.808205">
        <ele>594</ele>
        <time>2023-05-07T09:43:32Z</time>
      </trkpt>
      <trkpt lat="45.460921" lon="1.808227">
        <ele>594</ele>
        <time>2023-05-07T09:43:33Z</time>
      </trkpt>
      <trkpt lat="45.460930" lon="1.808250">
        <ele>594</ele>
        <time>2023-05-07T09:43:34Z</time>
      </trkpt>
      <trkpt lat="45.460939" lon="1.808273">
        <ele>594</ele>
        <time>2023-05-07T09:43:35Z</time>
      </trkpt>
      <trkpt lat="45.460952" lon="1.808295">
        <ele>594</ele>
        <time>2023-05-07T09:43:36Z</time>
      </trkpt>
      <trkpt lat="45.460965" lon="1.808317">
        <ele>594</ele>
        <time>2023-05-07T09:43:37Z</time>
      </trkpt>
      <trkpt lat="45.460979" lon="1.808337">
        <ele>594</ele>
        <time>2023-05-07T09:43:38Z</time>
      </trkpt>
      <trkpt lat="45.460993" lon="1.808356">
        <ele>594</ele>
        <time>2023-05-07T09:43:39Z</time>
      </trkpt>
      <trkpt lat="45.461007" lon="1.808372">
        <ele>594</ele>
        <time>2023-05-07T09:43:40Z</time>
      </trkpt>
      <trkpt lat="45.461021" lon="1.808388">
        <ele>594</ele>
        <time>2023-05-07T09:43:41Z</time>
      </trkpt>
      <trkpt lat="45.461038" lon="1.808403">
        <ele>594</ele>
        <time>2023-05-07T09:43:42Z</time>
      </trkpt>
      <trkpt lat="45.461056" lon="1.808418">
        <ele>594</ele>
        <time>2023-05-07T09:43:43Z</time>
      </trkpt>
      <trkpt lat="45.461076" lon="1.808428">
        <ele>594</ele>
        <time>2023-05-07T09:43:44Z</time>
      </trkpt>
      <trkpt lat="45.461097" lon="1.808439">
        <ele>594</ele>
        <time>2023-05-07T09:43:45Z</time>
      </trkpt>
      <trkpt lat="45.461119" lon="1.808450">
        <ele>594</ele>
        <time>2023-05-07T09:43:46Z</time>
      </trkpt>
      <trkpt lat="45.461142" lon="1.808460">
        <ele>595</ele>
        <time>2023-05-07T09:43:47Z</time>
      </trkpt>
      <trkpt lat="45.461161" lon="1.808472">
        <ele>595</ele>
        <time>2023-05-07T09:43:48Z</time>
      </trkpt>
      <trkpt lat="45.461181" lon="1.808483">
        <ele>595</ele>
        <time>2023-05-07T09:43:49Z</time>
      </trkpt>
      <trkpt lat="45.461201" lon="1.808495">
        <ele>595</ele>
        <time>2023-05-07T09:43:50Z</time>
      </trkpt>
      <trkpt lat="45.461217" lon="1.808506">
        <ele>595</ele>
        <time>2023-05-07T09:43:51Z</time>
      </trkpt>
      <trkpt lat="45.461233" lon="1.808517">
        <ele>595</ele>
        <time>2023-05-07T09:43:52Z</time>
      </trkpt>
      <trkpt lat="45.461247" lon="1.808526">
        <ele>595</ele>
        <time>2023-05-07T09:43:53Z</time>
      </trkpt>
      <trkpt lat="45.461260" lon="1.808534">
        <ele>595</ele>
        <time>2023-05-07T09:43:54Z</time>
      </trkpt>
      <trkpt lat="45.461274" lon="1.808543">
        <ele>595</ele>
        <time>2023-05-07T09:43:55Z</time>
      </trkpt>
      <trkpt lat="45.461287" lon="1.808553">
        <ele>595</ele>
        <time>2023-05-07T09:43:56Z</time>
      </trkpt>
      <trkpt lat="45.461300" lon="1.808563">
        <ele>595</ele>
        <time>2023-05-07T09:43:57Z</time>
      </trkpt>
      <trkpt lat="45.461316" lon="1.808574">
        <ele>595</ele>
        <time>2023-05-07T09:43:58Z</time>
      </trkpt>
      <trkpt lat="45.461333" lon="1.808586">
        <ele>595</ele>
        <time>2023-05-07T09:43:59Z</time>
      </trkpt>
      <trkpt lat="45.461350" lon="1.808597">
        <ele>595</ele>
        <time>2023-05-07T09:44:00Z</time>
      </trkpt>
      <trkpt lat="45.461368" lon="1.808607">
        <ele>595</ele>
        <time>2023-05-07T09:44:01Z</time>
      </trkpt>
      <trkpt lat="45.461383" lon="1.808615">
        <ele>596</ele>
        <time>2023-05-07T09:44:02Z</time>
      </trkpt>
      <trkpt lat="45.461399" lon="1.808623">
        <ele>596</ele>
        <time>2023-05-07T09:44:03Z</time>
      </trkpt>
      <trkpt lat="45.461412" lon="1.808630">
        <ele>596</ele>
        <time>2023-05-07T09:44:04Z</time>
      </trkpt>
      <trkpt lat="45.461425" lon="1.808636">
        <ele>596</ele>
        <time>2023-05-07T09:44:05Z</time>
      </trkpt>
      <trkpt lat="45.461437" lon="1.808645">
        <ele>596</ele>
        <time>2023-05-07T09:44:06Z</time>
      </trkpt>
      <trkpt lat="45.461450" lon="1.808655">
        <ele>596</ele>
        <time>2023-05-07T09:44:07Z</time>
      </trkpt>
      <trkpt lat="45.461466" lon="1.808666">
        <ele>596</ele>
        <time>2023-05-07T09:44:08Z</time>
      </trkpt>
      <trkpt lat="45.461482" lon="1.808677">
        <ele>596</ele>
        <time>2023-05-07T09:44:09Z</time>
      </trkpt>
      <trkpt lat="45.461501" lon="1.808690">
        <ele>596</ele>
        <time>2023-05-07T09:44:10Z</time>
      </trkpt>
      <trkpt lat="45.461520" lon="1.808703">
        <ele>596</ele>
        <time>2023-05-07T09:44:11Z</time>
      </trkpt>
      <trkpt lat="45.461541" lon="1.808718">
        <ele>596</ele>
        <time>2023-05-07T09:44:12Z</time>
      </trkpt>
      <trkpt lat="45.461562" lon="1.808733">
        <ele>596</ele>
        <time>2023-05-07T09:44:13Z</time>
      </trkpt>
      <trkpt lat="45.461581" lon="1.808749">
        <ele>596</ele>
        <time>2023-05-07T09:44:14Z</time>
      </trkpt>
      <trkpt lat="45.461600" lon="1.808764">
        <ele>596</ele>
        <time>2023-05-07T09:44:15Z</time>
      </trkpt>
      <trkpt lat="45.461617" lon="1.808780">
        <ele>596</ele>
        <time>2023-05-07T09:44:16Z</time>
      </trkpt>
      <trkpt lat="45.461633" lon="1.808796">
        <ele>596</ele>
        <time>2023-05-07T09:44:17Z</time>
      </trkpt>
      <trkpt lat="45.461649" lon="1.808811">
        <ele>596</ele>
        <time>2023-05-07T09:44:18Z</time>
      </trkpt>
      <trkpt lat="45.461664" lon="1.808825">
        <ele>596</ele>
        <time>2023-05-07T09:44:19Z</time>
      </trkpt>
      <trkpt lat="45.461678" lon="1.808836">
        <ele>596</ele>
        <time>2023-05-07T09:44:20Z</time>
      </trkpt>
      <trkpt lat="45.461692" lon="1.808846">
        <ele>596</ele>
        <time>2023-05-07T09:44:21Z</time>
      </trkpt>
      <trkpt lat="45.461706" lon="1.808854">
        <ele>596</ele>
        <time>2023-05-07T09:44:22Z</time>
      </trkpt>
      <trkpt lat="45.461719" lon="1.808862">
        <ele>596</ele>
        <time>2023-05-07T09:44:23Z</time>
      </trkpt>
      <trkpt lat="45.461734" lon="1.808869">
        <ele>596</ele>
        <time>2023-05-07T09:44:24Z</time>
      </trkpt>
      <trkpt lat="45.461748" lon="1.808877">
        <ele>596</ele>
        <time>2023-05-07T09:44:25Z</time>
      </trkpt>
      <trkpt lat="45.461766" lon="1.808885">
        <ele>596</ele>
        <time>2023-05-07T09:44:26Z</time>
      </trkpt>
      <trkpt lat="45.461783" lon="1.808893">
        <ele>596</ele>
        <time>2023-05-07T09:44:27Z</time>
      </trkpt>
      <trkpt lat="45.461801" lon="1.808899">
        <ele>596</ele>
        <time>2023-05-07T09:44:28Z</time>
      </trkpt>
      <trkpt lat="45.461818" lon="1.808905">
        <ele>596</ele>
        <time>2023-05-07T09:44:29Z</time>
      </trkpt>
      <trkpt lat="45.461835" lon="1.808908">
        <ele>596</ele>
        <time>2023-05-07T09:44:30Z</time>
      </trkpt>
      <trkpt lat="45.461852" lon="1.808911">
        <ele>596</ele>
        <time>2023-05-07T09:44:31Z</time>
      </trkpt>
      <trkpt lat="45.461869" lon="1.808912">
        <ele>596</ele>
        <time>2023-05-07T09:44:32Z</time>
      </trkpt>
      <trkpt lat="45.461885" lon="1.808912">
        <ele>596</ele>
        <time>2023-05-07T09:44:33Z</time>
      </trkpt>
      <trkpt lat="45.461903" lon="1.808914">
        <ele>596</ele>
        <time>2023-05-07T09:44:34Z</time>
      </trkpt>
      <trkpt lat="45.461922" lon="1.808915">
        <ele>596</ele>
        <time>2023-05-07T09:44:35Z</time>
      </trkpt>
      <trkpt lat="45.461942" lon="1.808916">
        <ele>596</ele>
        <time>2023-05-07T09:44:36Z</time>
      </trkpt>
      <trkpt lat="45.461962" lon="1.808917">
        <ele>596</ele>
        <time>2023-05-07T09:44:37Z</time>
      </trkpt>
      <trkpt lat="45.461983" lon="1.808919">
        <ele>596</ele>
        <time>2023-05-07T09:44:38Z</time>
      </trkpt>
      <trkpt lat="45.462003" lon="1.808922">
        <ele>596</ele>
        <time>2023-05-07T09:44:39Z</time>
      </trkpt>
      <trkpt lat="45.462023" lon="1.808929">
        <ele>596</ele>
        <time>2023-05-07T09:44:40Z</time>
      </trkpt>
      <trkpt lat="45.462043" lon="1.808935">
        <ele>596</ele>
        <time>2023-05-07T09:44:41Z</time>
      </trkpt>
      <trkpt lat="45.462062" lon="1.808943">
        <ele>596</ele>
        <time>2023-05-07T09:44:42Z</time>
      </trkpt>
      <trkpt lat="45.462082" lon="1.808952">
        <ele>596</ele>
        <time>2023-05-07T09:44:43Z</time>
      </trkpt>
      <trkpt lat="45.462099" lon="1.808959">
        <ele>596</ele>
        <time>2023-05-07T09:44:44Z</time>
      </trkpt>
      <trkpt lat="45.462116" lon="1.808967">
        <ele>596</ele>
        <time>2023-05-07T09:44:45Z</time>
      </trkpt>
      <trkpt lat="45.462128" lon="1.808971">
        <ele>596</ele>
        <time>2023-05-07T09:44:46Z</time>
      </trkpt>
      <trkpt lat="45.462141" lon="1.808975">
        <ele>596</ele>
        <time>2023-05-07T09:44:47Z</time>
      </trkpt>
      <trkpt lat="45.462151" lon="1.808980">
        <ele>596</ele>
        <time>2023-05-07T09:44:48Z</time>
      </trkpt>
      <trkpt lat="45.462161" lon="1.808984">
        <ele>596</ele>
        <time>2023-05-07T09:44:49Z</time>
      </trkpt>
      <trkpt lat="45.462174" lon="1.808987">
        <ele>596</ele>
        <time>2023-05-07T09:44:50Z</time>
      </trkpt>
      <trkpt lat="45.462187" lon="1.808990">
        <ele>596</ele>
        <time>2023-05-07T09:44:51Z</time>
      </trkpt>
      <trkpt lat="45.462207" lon="1.808992">
        <ele>596</ele>
        <time>2023-05-07T09:44:52Z</time>
      </trkpt>
      <trkpt lat="45.462228" lon="1.808993">
        <ele>596</ele>
        <time>2023-05-07T09:44:53Z</time>
      </trkpt>
      <trkpt lat="45.462248" lon="1.808993">
        <ele>596</ele>
        <time>2023-05-07T09:44:54Z</time>
      </trkpt>
      <trkpt lat="45.462269" lon="1.808993">
        <ele>596</ele>
        <time>2023-05-07T09:44:55Z</time>
      </trkpt>
      <trkpt lat="45.462287" lon="1.808991">
        <ele>596</ele>
        <time>2023-05-07T09:44:56Z</time>
      </trkpt>
      <trkpt lat="45.462305" lon="1.808990">
        <ele>596</ele>
        <time>2023-05-07T09:44:57Z</time>
      </trkpt>
      <trkpt lat="45.462323" lon="1.808985">
        <ele>596</ele>
        <time>2023-05-07T09:44:58Z</time>
      </trkpt>
      <trkpt lat="45.462340" lon="1.808980">
        <ele>596</ele>
        <time>2023-05-07T09:44:59Z</time>
      </trkpt>
      <trkpt lat="45.462362" lon="1.808974">
        <ele>596</ele>
        <time>2023-05-07T09:45:00Z</time>
      </trkpt>
      <trkpt lat="45.462383" lon="1.808969">
        <ele>596</ele>
        <time>2023-05-07T09:45:01Z</time>
      </trkpt>
      <trkpt lat="45.462404" lon="1.808963">
        <ele>596</ele>
        <time>2023-05-07T09:45:02Z</time>
      </trkpt>
      <trkpt lat="45.462425" lon="1.808957">
        <ele>596</ele>
        <time>2023-05-07T09:45:03Z</time>
      </trkpt>
      <trkpt lat="45.462447" lon="1.808952">
        <ele>596</ele>
        <time>2023-05-07T09:45:04Z</time>
      </trkpt>
      <trkpt lat="45.462468" lon="1.808947">
        <ele>596</ele>
        <time>2023-05-07T09:45:05Z</time>
      </trkpt>
      <trkpt lat="45.462489" lon="1.808943">
        <ele>596</ele>
        <time>2023-05-07T09:45:06Z</time>
      </trkpt>
      <trkpt lat="45.462507" lon="1.808934">
        <ele>596</ele>
        <time>2023-05-07T09:45:07Z</time>
      </trkpt>
      <trkpt lat="45.462525" lon="1.808926">
        <ele>596</ele>
        <time>2023-05-07T09:45:08Z</time>
      </trkpt>
      <trkpt lat="45.462542" lon="1.808915">
        <ele>596</ele>
        <time>2023-05-07T09:45:09Z</time>
      </trkpt>
      <trkpt lat="45.462558" lon="1.808904">
        <ele>596</ele>
        <time>2023-05-07T09:45:10Z</time>
      </trkpt>
      <trkpt lat="45.462574" lon="1.808896">
        <ele>596</ele>
        <time>2023-05-07T09:45:11Z</time>
      </trkpt>
      <trkpt lat="45.462589" lon="1.808887">
        <ele>597</ele>
        <time>2023-05-07T09:45:12Z</time>
      </trkpt>
      <trkpt lat="45.462598" lon="1.808883">
        <ele>597</ele>
        <time>2023-05-07T09:45:13Z</time>
      </trkpt>
      <trkpt lat="45.462607" lon="1.808879">
        <ele>597</ele>
        <time>2023-05-07T09:45:14Z</time>
      </trkpt>
      <trkpt lat="45.462616" lon="1.808875">
        <ele>597</ele>
        <time>2023-05-07T09:45:15Z</time>
      </trkpt>
      <trkpt lat="45.462618" lon="1.808874">
        <ele>597</ele>
        <time>2023-05-07T09:45:16Z</time>
      </trkpt>
      <trkpt lat="45.462621" lon="1.808873">
        <ele>597</ele>
        <time>2023-05-07T09:45:17Z</time>
      </trkpt>
      <trkpt lat="45.462623" lon="1.808871">
        <ele>597</ele>
        <time>2023-05-07T09:45:18Z</time>
      </trkpt>
      <trkpt lat="45.462625" lon="1.808870">
        <ele>597</ele>
        <time>2023-05-07T09:45:19Z</time>
      </trkpt>
      <trkpt lat="45.462627" lon="1.808869">
        <ele>597</ele>
        <time>2023-05-07T09:45:20Z</time>
      </trkpt>
      <trkpt lat="45.462636" lon="1.808864">
        <ele>597</ele>
        <time>2023-05-07T09:45:21Z</time>
      </trkpt>
      <trkpt lat="45.462644" lon="1.808860">
        <ele>598</ele>
        <time>2023-05-07T09:45:22Z</time>
      </trkpt>
      <trkpt lat="45.462654" lon="1.808857">
        <ele>598</ele>
        <time>2023-05-07T09:45:23Z</time>
      </trkpt>
      <trkpt lat="45.462663" lon="1.808854">
        <ele>598</ele>
        <time>2023-05-07T09:45:24Z</time>
      </trkpt>
      <trkpt lat="45.462668" lon="1.808855">
        <ele>598</ele>
        <time>2023-05-07T09:45:25Z</time>
      </trkpt>
      <trkpt lat="45.462672" lon="1.808856">
        <ele>598</ele>
        <time>2023-05-07T09:45:26Z</time>
      </trkpt>
      <trkpt lat="45.462677" lon="1.808857">
        <ele>598</ele>
        <time>2023-05-07T09:45:27Z</time>
      </trkpt>
      <trkpt lat="45.462681" lon="1.808858">
        <ele>598</ele>
        <time>2023-05-07T09:45:28Z</time>
      </trkpt>
      <trkpt lat="45.462686" lon="1.808859">
        <ele>598</ele>
        <time>2023-05-07T09:45:29Z</time>
      </trkpt>
      <trkpt lat="45.462692" lon="1.808857">
        <ele>598</ele>
        <time>2023-05-07T09:45:30Z</time>
      </trkpt>
      <trkpt lat="45.462699" lon="1.808855">
        <ele>598</ele>
        <time>2023-05-07T09:45:31Z</time>
      </trkpt>
      <trkpt lat="45.462706" lon="1.808849">
        <ele>598</ele>
        <time>2023-05-07T09:45:32Z</time>
      </trkpt>
      <trkpt lat="45.462713" lon="1.808844">
        <ele>598</ele>
        <time>2023-05-07T09:45:33Z</time>
      </trkpt>
      <trkpt lat="45.462722" lon="1.808838">
        <ele>598</ele>
        <time>2023-05-07T09:45:34Z</time>
      </trkpt>
      <trkpt lat="45.462732" lon="1.808833">
        <ele>598</ele>
        <time>2023-05-07T09:45:35Z</time>
      </trkpt>
      <trkpt lat="45.462743" lon="1.808827">
        <ele>598</ele>
        <time>2023-05-07T09:45:36Z</time>
      </trkpt>
      <trkpt lat="45.462754" lon="1.808822">
        <ele>599</ele>
        <time>2023-05-07T09:45:37Z</time>
      </trkpt>
      <trkpt lat="45.462767" lon="1.808815">
        <ele>599</ele>
        <time>2023-05-07T09:45:38Z</time>
      </trkpt>
      <trkpt lat="45.462781" lon="1.808808">
        <ele>599</ele>
        <time>2023-05-07T09:45:39Z</time>
      </trkpt>
      <trkpt lat="45.462797" lon="1.808804">
        <ele>599</ele>
        <time>2023-05-07T09:45:40Z</time>
      </trkpt>
      <trkpt lat="45.462814" lon="1.808799">
        <ele>599</ele>
        <time>2023-05-07T09:45:41Z</time>
      </trkpt>
      <trkpt lat="45.462830" lon="1.808796">
        <ele>599</ele>
        <time>2023-05-07T09:45:42Z</time>
      </trkpt>
      <trkpt lat="45.462847" lon="1.808792">
        <ele>599</ele>
        <time>2023-05-07T09:45:43Z</time>
      </trkpt>
      <trkpt lat="45.462864" lon="1.808790">
        <ele>599</ele>
        <time>2023-05-07T09:45:44Z</time>
      </trkpt>
      <trkpt lat="45.462880" lon="1.808788">
        <ele>599</ele>
        <time>2023-05-07T09:45:45Z</time>
      </trkpt>
      <trkpt lat="45.462893" lon="1.808784">
        <ele>599</ele>
        <time>2023-05-07T09:45:46Z</time>
      </trkpt>
      <trkpt lat="45.462906" lon="1.808780">
        <ele>599</ele>
        <time>2023-05-07T09:45:47Z</time>
      </trkpt>
      <trkpt lat="45.462914" lon="1.808772">
        <ele>599</ele>
        <time>2023-05-07T09:45:48Z</time>
      </trkpt>
      <trkpt lat="45.462923" lon="1.808763">
        <ele>599</ele>
        <time>2023-05-07T09:45:49Z</time>
      </trkpt>
      <trkpt lat="45.462931" lon="1.808754">
        <ele>599</ele>
        <time>2023-05-07T09:45:50Z</time>
      </trkpt>
      <trkpt lat="45.462937" lon="1.808744">
        <ele>599</ele>
        <time>2023-05-07T09:45:51Z</time>
      </trkpt>
      <trkpt lat="45.462943" lon="1.808733">
        <ele>600</ele>
        <time>2023-05-07T09:45:52Z</time>
      </trkpt>
      <trkpt lat="45.462946" lon="1.808727">
        <ele>600</ele>
        <time>2023-05-07T09:45:53Z</time>
      </trkpt>
      <trkpt lat="45.462949" lon="1.808721">
        <ele>600</ele>
        <time>2023-05-07T09:45:54Z</time>
      </trkpt>
      <trkpt lat="45.462953" lon="1.808713">
        <ele>600</ele>
        <time>2023-05-07T09:45:55Z</time>
      </trkpt>
      <trkpt lat="45.462958" lon="1.808704">
        <ele>600</ele>
        <time>2023-05-07T09:45:56Z</time>
      </trkpt>
      <trkpt lat="45.462967" lon="1.808695">
        <ele>600</ele>
        <time>2023-05-07T09:45:57Z</time>
      </trkpt>
      <trkpt lat="45.462977" lon="1.808685">
        <ele>600</ele>
        <time>2023-05-07T09:45:58Z</time>
      </trkpt>
      <trkpt lat="45.462986" lon="1.808674">
        <ele>600</ele>
        <time>2023-05-07T09:45:59Z</time>
      </trkpt>
      <trkpt lat="45.462995" lon="1.808663">
        <ele>600</ele>
        <time>2023-05-07T09:46:00Z</time>
      </trkpt>
      <trkpt lat="45.463004" lon="1.808649">
        <ele>600</ele>
        <time>2023-05-07T09:46:01Z</time>
      </trkpt>
      <trkpt lat="45.463014" lon="1.808635">
        <ele>601</ele>
        <time>2023-05-07T09:46:02Z</time>
      </trkpt>
      <trkpt lat="45.463020" lon="1.808619">
        <ele>601</ele>
        <time>2023-05-07T09:46:03Z</time>
      </trkpt>
      <trkpt lat="45.463026" lon="1.808603">
        <ele>601</ele>
        <time>2023-05-07T09:46:04Z</time>
      </trkpt>
      <trkpt lat="45.463029" lon="1.808594">
        <ele>601</ele>
        <time>2023-05-07T09:46:05Z</time>
      </trkpt>
      <trkpt lat="45.463032" lon="1.808585">
        <ele>601</ele>
        <time>2023-05-07T09:46:06Z</time>
      </trkpt>
      <trkpt lat="45.463039" lon="1.808572">
        <ele>601</ele>
        <time>2023-05-07T09:46:07Z</time>
      </trkpt>
      <trkpt lat="45.463045" lon="1.808558">
        <ele>601</ele>
        <time>2023-05-07T09:46:08Z</time>
      </trkpt>
      <trkpt lat="45.463053" lon="1.808547">
        <ele>601</ele>
        <time>2023-05-07T09:46:09Z</time>
      </trkpt>
      <trkpt lat="45.463061" lon="1.808535">
        <ele>601</ele>
        <time>2023-05-07T09:46:10Z</time>
      </trkpt>
      <trkpt lat="45.463070" lon="1.808522">
        <ele>601</ele>
        <time>2023-05-07T09:46:11Z</time>
      </trkpt>
      <trkpt lat="45.463079" lon="1.808509">
        <ele>602</ele>
        <time>2023-05-07T09:46:12Z</time>
      </trkpt>
      <trkpt lat="45.463085" lon="1.808494">
        <ele>602</ele>
        <time>2023-05-07T09:46:13Z</time>
      </trkpt>
      <trkpt lat="45.463092" lon="1.808480">
        <ele>602</ele>
        <time>2023-05-07T09:46:14Z</time>
      </trkpt>
      <trkpt lat="45.463098" lon="1.808466">
        <ele>602</ele>
        <time>2023-05-07T09:46:15Z</time>
      </trkpt>
      <trkpt lat="45.463103" lon="1.808452">
        <ele>602</ele>
        <time>2023-05-07T09:46:16Z</time>
      </trkpt>
      <trkpt lat="45.463108" lon="1.808436">
        <ele>602</ele>
        <time>2023-05-07T09:46:17Z</time>
      </trkpt>
      <trkpt lat="45.463114" lon="1.808420">
        <ele>602</ele>
        <time>2023-05-07T09:46:18Z</time>
      </trkpt>
      <trkpt lat="45.463120" lon="1.808402">
        <ele>602</ele>
        <time>2023-05-07T09:46:19Z</time>
      </trkpt>
      <trkpt lat="45.463126" lon="1.808383">
        <ele>602</ele>
        <time>2023-05-07T09:46:20Z</time>
      </trkpt>
      <trkpt lat="45.463132" lon="1.808365">
        <ele>602</ele>
        <time>2023-05-07T09:46:21Z</time>
      </trkpt>
      <trkpt lat="45.463138" lon="1.808346">
        <ele>603</ele>
        <time>2023-05-07T09:46:22Z</time>
      </trkpt>
      <trkpt lat="45.463144" lon="1.808329">
        <ele>603</ele>
        <time>2023-05-07T09:46:23Z</time>
      </trkpt>
      <trkpt lat="45.463149" lon="1.808313">
        <ele>603</ele>
        <time>2023-05-07T09:46:24Z</time>
      </trkpt>
      <trkpt lat="45.463155" lon="1.808297">
        <ele>603</ele>
        <time>2023-05-07T09:46:25Z</time>
      </trkpt>
      <trkpt lat="45.463161" lon="1.808282">
        <ele>603</ele>
        <time>2023-05-07T09:46:26Z</time>
      </trkpt>
      <trkpt lat="45.463164" lon="1.808267">
        <ele>603</ele>
        <time>2023-05-07T09:46:27Z</time>
      </trkpt>
      <trkpt lat="45.463168" lon="1.808252">
        <ele>603</ele>
        <time>2023-05-07T09:46:28Z</time>
      </trkpt>
      <trkpt lat="45.463169" lon="1.808234">
        <ele>603</ele>
        <time>2023-05-07T09:46:29Z</time>
      </trkpt>
      <trkpt lat="45.463170" lon="1.808216">
        <ele>603</ele>
        <time>2023-05-07T09:46:30Z</time>
      </trkpt>
      <trkpt lat="45.463171" lon="1.808201">
        <ele>603</ele>
        <time>2023-05-07T09:46:31Z</time>
      </trkpt>
      <trkpt lat="45.463173" lon="1.808186">
        <ele>604</ele>
        <time>2023-05-07T09:46:32Z</time>
      </trkpt>
      <trkpt lat="45.463174" lon="1.808173">
        <ele>604</ele>
        <time>2023-05-07T09:46:33Z</time>
      </trkpt>
      <trkpt lat="45.463175" lon="1.808160">
        <ele>604</ele>
        <time>2023-05-07T09:46:34Z</time>
      </trkpt>
      <trkpt lat="45.463176" lon="1.808147">
        <ele>604</ele>
        <time>2023-05-07T09:46:35Z</time>
      </trkpt>
      <trkpt lat="45.463177" lon="1.808134">
        <ele>604</ele>
        <time>2023-05-07T09:46:36Z</time>
      </trkpt>
      <trkpt lat="45.463177" lon="1.808116">
        <ele>604</ele>
        <time>2023-05-07T09:46:37Z</time>
      </trkpt>
      <trkpt lat="45.463177" lon="1.808099">
        <ele>604</ele>
        <time>2023-05-07T09:46:38Z</time>
      </trkpt>
      <trkpt lat="45.463177" lon="1.808076">
        <ele>604</ele>
        <time>2023-05-07T09:46:39Z</time>
      </trkpt>
      <trkpt lat="45.463178" lon="1.808053">
        <ele>604</ele>
        <time>2023-05-07T09:46:40Z</time>
      </trkpt>
      <trkpt lat="45.463180" lon="1.808028">
        <ele>604</ele>
        <time>2023-05-07T09:46:41Z</time>
      </trkpt>
      <trkpt lat="45.463182" lon="1.808003">
        <ele>604</ele>
        <time>2023-05-07T09:46:42Z</time>
      </trkpt>
      <trkpt lat="45.463184" lon="1.807979">
        <ele>604</ele>
        <time>2023-05-07T09:46:43Z</time>
      </trkpt>
      <trkpt lat="45.463186" lon="1.807954">
        <ele>604</ele>
        <time>2023-05-07T09:46:44Z</time>
      </trkpt>
      <trkpt lat="45.463186" lon="1.807934">
        <ele>604</ele>
        <time>2023-05-07T09:46:45Z</time>
      </trkpt>
      <trkpt lat="45.463186" lon="1.807915">
        <ele>604</ele>
        <time>2023-05-07T09:46:46Z</time>
      </trkpt>
      <trkpt lat="45.463185" lon="1.807898">
        <ele>605</ele>
        <time>2023-05-07T09:46:58Z</time>
      </trkpt>
      <trkpt lat="45.463184" lon="1.807886">
        <ele>605</ele>
        <time>2023-05-07T09:46:59Z</time>
      </trkpt>
      <trkpt lat="45.463184" lon="1.807874">
        <ele>605</ele>
        <time>2023-05-07T09:47:00Z</time>
      </trkpt>
      <trkpt lat="45.463184" lon="1.807861">
        <ele>605</ele>
        <time>2023-05-07T09:47:01Z</time>
      </trkpt>
      <trkpt lat="45.463183" lon="1.807847">
        <ele>606</ele>
        <time>2023-05-07T09:47:02Z</time>
      </trkpt>
      <trkpt lat="45.463183" lon="1.807832">
        <ele>606</ele>
        <time>2023-05-07T09:47:03Z</time>
      </trkpt>
      <trkpt lat="45.463183" lon="1.807816">
        <ele>606</ele>
        <time>2023-05-07T09:47:04Z</time>
      </trkpt>
      <trkpt lat="45.463189" lon="1.807800">
        <ele>606</ele>
        <time>2023-05-07T09:47:24Z</time>
      </trkpt>
      <trkpt lat="45.463190" lon="1.807791">
        <ele>606</ele>
        <time>2023-05-07T09:47:25Z</time>
      </trkpt>
      <trkpt lat="45.463191" lon="1.807782">
        <ele>606</ele>
        <time>2023-05-07T09:47:26Z</time>
      </trkpt>
      <trkpt lat="45.463190" lon="1.807773">
        <ele>606</ele>
        <time>2023-05-07T09:47:27Z</time>
      </trkpt>
      <trkpt lat="45.463188" lon="1.807765">
        <ele>606</ele>
        <time>2023-05-07T09:47:28Z</time>
      </trkpt>
      <trkpt lat="45.463187" lon="1.807752">
        <ele>606</ele>
        <time>2023-05-07T09:47:29Z</time>
      </trkpt>
      <trkpt lat="45.463186" lon="1.807740">
        <ele>606</ele>
        <time>2023-05-07T09:47:30Z</time>
      </trkpt>
      <trkpt lat="45.463189" lon="1.807722">
        <ele>606</ele>
        <time>2023-05-07T09:47:31Z</time>
      </trkpt>
      <trkpt lat="45.463191" lon="1.807706">
        <ele>607</ele>
        <time>2023-05-07T09:47:32Z</time>
      </trkpt>
      <trkpt lat="45.463195" lon="1.807688">
        <ele>607</ele>
        <time>2023-05-07T09:47:33Z</time>
      </trkpt>
      <trkpt lat="45.463200" lon="1.807670">
        <ele>607</ele>
        <time>2023-05-07T09:47:34Z</time>
      </trkpt>
      <trkpt lat="45.463202" lon="1.807652">
        <ele>607</ele>
        <time>2023-05-07T09:47:35Z</time>
      </trkpt>
      <trkpt lat="45.463205" lon="1.807634">
        <ele>607</ele>
        <time>2023-05-07T09:47:36Z</time>
      </trkpt>
      <trkpt lat="45.463206" lon="1.807617">
        <ele>607</ele>
        <time>2023-05-07T09:47:37Z</time>
      </trkpt>
      <trkpt lat="45.463208" lon="1.807601">
        <ele>607</ele>
        <time>2023-05-07T09:47:38Z</time>
      </trkpt>
      <trkpt lat="45.463211" lon="1.807583">
        <ele>607</ele>
        <time>2023-05-07T09:47:39Z</time>
      </trkpt>
      <trkpt lat="45.463214" lon="1.807565">
        <ele>607</ele>
        <time>2023-05-07T09:47:40Z</time>
      </trkpt>
      <trkpt lat="45.463220" lon="1.807543">
        <ele>607</ele>
        <time>2023-05-07T09:47:41Z</time>
      </trkpt>
      <trkpt lat="45.463225" lon="1.807521">
        <ele>607</ele>
        <time>2023-05-07T09:47:42Z</time>
      </trkpt>
      <trkpt lat="45.463227" lon="1.807494">
        <ele>607</ele>
        <time>2023-05-07T09:47:43Z</time>
      </trkpt>
      <trkpt lat="45.463230" lon="1.807467">
        <ele>607</ele>
        <time>2023-05-07T09:47:44Z</time>
      </trkpt>
      <trkpt lat="45.463230" lon="1.807438">
        <ele>607</ele>
        <time>2023-05-07T09:47:45Z</time>
      </trkpt>
      <trkpt lat="45.463231" lon="1.807410">
        <ele>607</ele>
        <time>2023-05-07T09:47:46Z</time>
      </trkpt>
      <trkpt lat="45.463230" lon="1.807383">
        <ele>607</ele>
        <time>2023-05-07T09:47:47Z</time>
      </trkpt>
      <trkpt lat="45.463230" lon="1.807356">
        <ele>607</ele>
        <time>2023-05-07T09:47:48Z</time>
      </trkpt>
      <trkpt lat="45.463230" lon="1.807332">
        <ele>607</ele>
        <time>2023-05-07T09:47:49Z</time>
      </trkpt>
      <trkpt lat="45.463230" lon="1.807309">
        <ele>607</ele>
        <time>2023-05-07T09:47:50Z</time>
      </trkpt>
      <trkpt lat="45.463231" lon="1.807287">
        <ele>607</ele>
        <time>2023-05-07T09:47:51Z</time>
      </trkpt>
      <trkpt lat="45.463231" lon="1.807265">
        <ele>607</ele>
        <time>2023-05-07T09:47:52Z</time>
      </trkpt>
      <trkpt lat="45.463232" lon="1.807243">
        <ele>607</ele>
        <time>2023-05-07T09:47:53Z</time>
      </trkpt>
      <trkpt lat="45.463233" lon="1.807220">
        <ele>607</ele>
        <time>2023-05-07T09:47:54Z</time>
      </trkpt>
      <trkpt lat="45.463234" lon="1.807192">
        <ele>607</ele>
        <time>2023-05-07T09:47:55Z</time>
      </trkpt>
      <trkpt lat="45.463236" lon="1.807163">
        <ele>607</ele>
        <time>2023-05-07T09:47:56Z</time>
      </trkpt>
      <trkpt lat="45.463239" lon="1.807130">
        <ele>608</ele>
        <time>2023-05-07T09:47:57Z</time>
      </trkpt>
      <trkpt lat="45.463243" lon="1.807097">
        <ele>608</ele>
        <time>2023-05-07T09:47:58Z</time>
      </trkpt>
      <trkpt lat="45.463249" lon="1.807067">
        <ele>608</ele>
        <time>2023-05-07T09:47:59Z</time>
      </trkpt>
      <trkpt lat="45.463256" lon="1.807038">
        <ele>608</ele>
        <time>2023-05-07T09:48:00Z</time>
      </trkpt>
      <trkpt lat="45.463264" lon="1.807011">
        <ele>608</ele>
        <time>2023-05-07T09:48:01Z</time>
      </trkpt>
      <trkpt lat="45.463272" lon="1.806984">
        <ele>608</ele>
        <time>2023-05-07T09:48:02Z</time>
      </trkpt>
      <trkpt lat="45.463279" lon="1.806959">
        <ele>608</ele>
        <time>2023-05-07T09:48:03Z</time>
      </trkpt>
      <trkpt lat="45.463286" lon="1.806933">
        <ele>608</ele>
        <time>2023-05-07T09:48:04Z</time>
      </trkpt>
      <trkpt lat="45.463293" lon="1.806910">
        <ele>608</ele>
        <time>2023-05-07T09:48:05Z</time>
      </trkpt>
      <trkpt lat="45.463299" lon="1.806887">
        <ele>608</ele>
        <time>2023-05-07T09:48:06Z</time>
      </trkpt>
      <trkpt lat="45.463307" lon="1.806860">
        <ele>609</ele>
        <time>2023-05-07T09:48:07Z</time>
      </trkpt>
      <trkpt lat="45.463314" lon="1.806834">
        <ele>609</ele>
        <time>2023-05-07T09:48:08Z</time>
      </trkpt>
      <trkpt lat="45.463327" lon="1.806806">
        <ele>609</ele>
        <time>2023-05-07T09:48:09Z</time>
      </trkpt>
      <trkpt lat="45.463341" lon="1.806779">
        <ele>609</ele>
        <time>2023-05-07T09:48:10Z</time>
      </trkpt>
      <trkpt lat="45.463357" lon="1.806753">
        <ele>609</ele>
        <time>2023-05-07T09:48:11Z</time>
      </trkpt>
      <trkpt lat="45.463373" lon="1.806728">
        <ele>610</ele>
        <time>2023-05-07T09:48:12Z</time>
      </trkpt>
      <trkpt lat="45.463388" lon="1.806710">
        <ele>610</ele>
        <time>2023-05-07T09:48:13Z</time>
      </trkpt>
      <trkpt lat="45.463403" lon="1.806692">
        <ele>610</ele>
        <time>2023-05-07T09:48:14Z</time>
      </trkpt>
      <trkpt lat="45.463418" lon="1.806681">
        <ele>610</ele>
        <time>2023-05-07T09:48:15Z</time>
      </trkpt>
      <trkpt lat="45.463434" lon="1.806670">
        <ele>610</ele>
        <time>2023-05-07T09:48:16Z</time>
      </trkpt>
      <trkpt lat="45.463451" lon="1.806661">
        <ele>611</ele>
        <time>2023-05-07T09:48:17Z</time>
      </trkpt>
      <trkpt lat="45.463469" lon="1.806652">
        <ele>611</ele>
        <time>2023-05-07T09:48:18Z</time>
      </trkpt>
      <trkpt lat="45.463487" lon="1.806644">
        <ele>611</ele>
        <time>2023-05-07T09:48:19Z</time>
      </trkpt>
      <trkpt lat="45.463505" lon="1.806636">
        <ele>611</ele>
        <time>2023-05-07T09:48:20Z</time>
      </trkpt>
      <trkpt lat="45.463522" lon="1.806628">
        <ele>611</ele>
        <time>2023-05-07T09:48:21Z</time>
      </trkpt>
      <trkpt lat="45.463539" lon="1.806619">
        <ele>612</ele>
        <time>2023-05-07T09:48:22Z</time>
      </trkpt>
      <trkpt lat="45.463551" lon="1.806614">
        <ele>612</ele>
        <time>2023-05-07T09:48:23Z</time>
      </trkpt>
      <trkpt lat="45.463563" lon="1.806609">
        <ele>612</ele>
        <time>2023-05-07T09:48:24Z</time>
      </trkpt>
      <trkpt lat="45.463575" lon="1.806604">
        <ele>612</ele>
        <time>2023-05-07T09:48:25Z</time>
      </trkpt>
      <trkpt lat="45.463586" lon="1.806598">
        <ele>612</ele>
        <time>2023-05-07T09:48:26Z</time>
      </trkpt>
      <trkpt lat="45.463601" lon="1.806588">
        <ele>612</ele>
        <time>2023-05-07T09:48:27Z</time>
      </trkpt>
      <trkpt lat="45.463615" lon="1.806578">
        <ele>612</ele>
        <time>2023-05-07T09:48:28Z</time>
      </trkpt>
      <trkpt lat="45.463631" lon="1.806561">
        <ele>612</ele>
        <time>2023-05-07T09:48:29Z</time>
      </trkpt>
      <trkpt lat="45.463647" lon="1.806545">
        <ele>612</ele>
        <time>2023-05-07T09:48:30Z</time>
      </trkpt>
      <trkpt lat="45.463663" lon="1.806528">
        <ele>612</ele>
        <time>2023-05-07T09:48:31Z</time>
      </trkpt>
      <trkpt lat="45.463679" lon="1.806506">
        <ele>613</ele>
        <time>2023-05-07T09:48:32Z</time>
      </trkpt>
      <trkpt lat="45.463696" lon="1.806483">
        <ele>613</ele>
        <time>2023-05-07T09:48:33Z</time>
      </trkpt>
      <trkpt lat="45.463713" lon="1.806463">
        <ele>613</ele>
        <time>2023-05-07T09:48:34Z</time>
      </trkpt>
      <trkpt lat="45.463730" lon="1.806442">
        <ele>613</ele>
        <time>2023-05-07T09:48:35Z</time>
      </trkpt>
      <trkpt lat="45.463747" lon="1.806424">
        <ele>613</ele>
        <time>2023-05-07T09:48:36Z</time>
      </trkpt>
      <trkpt lat="45.463763" lon="1.806407">
        <ele>614</ele>
        <time>2023-05-07T09:48:37Z</time>
      </trkpt>
      <trkpt lat="45.463778" lon="1.806389">
        <ele>614</ele>
        <time>2023-05-07T09:48:38Z</time>
      </trkpt>
      <trkpt lat="45.463794" lon="1.806372">
        <ele>614</ele>
        <time>2023-05-07T09:48:39Z</time>
      </trkpt>
      <trkpt lat="45.463809" lon="1.806358">
        <ele>614</ele>
        <time>2023-05-07T09:48:40Z</time>
      </trkpt>
      <trkpt lat="45.463824" lon="1.806345">
        <ele>614</ele>
        <time>2023-05-07T09:48:41Z</time>
      </trkpt>
      <trkpt lat="45.463839" lon="1.806333">
        <ele>615</ele>
        <time>2023-05-07T09:48:42Z</time>
      </trkpt>
      <trkpt lat="45.463853" lon="1.806321">
        <ele>615</ele>
        <time>2023-05-07T09:48:43Z</time>
      </trkpt>
      <trkpt lat="45.463866" lon="1.806309">
        <ele>615</ele>
        <time>2023-05-07T09:48:44Z</time>
      </trkpt>
      <trkpt lat="45.463879" lon="1.806297">
        <ele>615</ele>
        <time>2023-05-07T09:48:45Z</time>
      </trkpt>
      <trkpt lat="45.463892" lon="1.806286">
        <ele>615</ele>
        <time>2023-05-07T09:48:46Z</time>
      </trkpt>
      <trkpt lat="45.463905" lon="1.806276">
        <ele>616</ele>
        <time>2023-05-07T09:48:47Z</time>
      </trkpt>
      <trkpt lat="45.463919" lon="1.806264">
        <ele>616</ele>
        <time>2023-05-07T09:48:48Z</time>
      </trkpt>
      <trkpt lat="45.463933" lon="1.806252">
        <ele>616</ele>
        <time>2023-05-07T09:48:49Z</time>
      </trkpt>
      <trkpt lat="45.463948" lon="1.806240">
        <ele>616</ele>
        <time>2023-05-07T09:48:50Z</time>
      </trkpt>
      <trkpt lat="45.463964" lon="1.806229">
        <ele>616</ele>
        <time>2023-05-07T09:48:51Z</time>
      </trkpt>
      <trkpt lat="45.463977" lon="1.806217">
        <ele>616</ele>
        <time>2023-05-07T09:48:52Z</time>
      </trkpt>
      <trkpt lat="45.463991" lon="1.806205">
        <ele>616</ele>
        <time>2023-05-07T09:48:53Z</time>
      </trkpt>
      <trkpt lat="45.464001" lon="1.806194">
        <ele>616</ele>
        <time>2023-05-07T09:48:54Z</time>
      </trkpt>
      <trkpt lat="45.464012" lon="1.806182">
        <ele>616</ele>
        <time>2023-05-07T09:48:55Z</time>
      </trkpt>
      <trkpt lat="45.464022" lon="1.806172">
        <ele>616</ele>
        <time>2023-05-07T09:48:56Z</time>
      </trkpt>
      <trkpt lat="45.464032" lon="1.806162">
        <ele>617</ele>
        <time>2023-05-07T09:48:57Z</time>
      </trkpt>
      <trkpt lat="45.464046" lon="1.806150">
        <ele>617</ele>
        <time>2023-05-07T09:48:58Z</time>
      </trkpt>
      <trkpt lat="45.464060" lon="1.806139">
        <ele>617</ele>
        <time>2023-05-07T09:48:59Z</time>
      </trkpt>
      <trkpt lat="45.464073" lon="1.806129">
        <ele>617</ele>
        <time>2023-05-07T09:49:00Z</time>
      </trkpt>
      <trkpt lat="45.464087" lon="1.806119">
        <ele>617</ele>
        <time>2023-05-07T09:49:01Z</time>
      </trkpt>
      <trkpt lat="45.464098" lon="1.806110">
        <ele>618</ele>
        <time>2023-05-07T09:49:02Z</time>
      </trkpt>
      <trkpt lat="45.464109" lon="1.806102">
        <ele>618</ele>
        <time>2023-05-07T09:49:03Z</time>
      </trkpt>
      <trkpt lat="45.464121" lon="1.806094">
        <ele>618</ele>
        <time>2023-05-07T09:49:04Z</time>
      </trkpt>
      <trkpt lat="45.464133" lon="1.806086">
        <ele>618</ele>
        <time>2023-05-07T09:49:05Z</time>
      </trkpt>
      <trkpt lat="45.464146" lon="1.806075">
        <ele>618</ele>
        <time>2023-05-07T09:49:06Z</time>
      </trkpt>
      <trkpt lat="45.464159" lon="1.806063">
        <ele>618</ele>
        <time>2023-05-07T09:49:07Z</time>
      </trkpt>
      <trkpt lat="45.464174" lon="1.806048">
        <ele>618</ele>
        <time>2023-05-07T09:49:08Z</time>
      </trkpt>
      <trkpt lat="45.464189" lon="1.806033">
        <ele>618</ele>
        <time>2023-05-07T09:49:09Z</time>
      </trkpt>
      <trkpt lat="45.464203" lon="1.806017">
        <ele>618</ele>
        <time>2023-05-07T09:49:10Z</time>
      </trkpt>
      <trkpt lat="45.464217" lon="1.806001">
        <ele>618</ele>
        <time>2023-05-07T09:49:11Z</time>
      </trkpt>
      <trkpt lat="45.464225" lon="1.805984">
        <ele>619</ele>
        <time>2023-05-07T09:49:12Z</time>
      </trkpt>
      <trkpt lat="45.464234" lon="1.805968">
        <ele>619</ele>
        <time>2023-05-07T09:49:13Z</time>
      </trkpt>
      <trkpt lat="45.464240" lon="1.805956">
        <ele>619</ele>
        <time>2023-05-07T09:49:14Z</time>
      </trkpt>
      <trkpt lat="45.464246" lon="1.805943">
        <ele>619</ele>
        <time>2023-05-07T09:49:15Z</time>
      </trkpt>
      <trkpt lat="45.464253" lon="1.805934">
        <ele>619</ele>
        <time>2023-05-07T09:49:16Z</time>
      </trkpt>
      <trkpt lat="45.464259" lon="1.805925">
        <ele>620</ele>
        <time>2023-05-07T09:49:17Z</time>
      </trkpt>
      <trkpt lat="45.464269" lon="1.805914">
        <ele>620</ele>
        <time>2023-05-07T09:49:18Z</time>
      </trkpt>
      <trkpt lat="45.464278" lon="1.805904">
        <ele>620</ele>
        <time>2023-05-07T09:49:19Z</time>
      </trkpt>
      <trkpt lat="45.464290" lon="1.805894">
        <ele>620</ele>
        <time>2023-05-07T09:49:20Z</time>
      </trkpt>
      <trkpt lat="45.464303" lon="1.805883">
        <ele>620</ele>
        <time>2023-05-07T09:49:21Z</time>
      </trkpt>
      <trkpt lat="45.464316" lon="1.805874">
        <ele>620</ele>
        <time>2023-05-07T09:49:22Z</time>
      </trkpt>
      <trkpt lat="45.464330" lon="1.805865">
        <ele>620</ele>
        <time>2023-05-07T09:49:23Z</time>
      </trkpt>
      <trkpt lat="45.464342" lon="1.805859">
        <ele>620</ele>
        <time>2023-05-07T09:49:24Z</time>
      </trkpt>
      <trkpt lat="45.464354" lon="1.805854">
        <ele>620</ele>
        <time>2023-05-07T09:49:25Z</time>
      </trkpt>
      <trkpt lat="45.464363" lon="1.805848">
        <ele>620</ele>
        <time>2023-05-07T09:49:26Z</time>
      </trkpt>
      <trkpt lat="45.464374" lon="1.805842">
        <ele>621</ele>
        <time>2023-05-07T09:49:27Z</time>
      </trkpt>
      <trkpt lat="45.464382" lon="1.805835">
        <ele>621</ele>
        <time>2023-05-07T09:49:28Z</time>
      </trkpt>
      <trkpt lat="45.464391" lon="1.805827">
        <ele>621</ele>
        <time>2023-05-07T09:49:29Z</time>
      </trkpt>
      <trkpt lat="45.464401" lon="1.805816">
        <ele>621</ele>
        <time>2023-05-07T09:49:30Z</time>
      </trkpt>
      <trkpt lat="45.464410" lon="1.805804">
        <ele>621</ele>
        <time>2023-05-07T09:49:31Z</time>
      </trkpt>
      <trkpt lat="45.464422" lon="1.805789">
        <ele>621</ele>
        <time>2023-05-07T09:49:32Z</time>
      </trkpt>
      <trkpt lat="45.464433" lon="1.805774">
        <ele>621</ele>
        <time>2023-05-07T09:49:33Z</time>
      </trkpt>
      <trkpt lat="45.464447" lon="1.805758">
        <ele>621</ele>
        <time>2023-05-07T09:49:34Z</time>
      </trkpt>
      <trkpt lat="45.464461" lon="1.805743">
        <ele>621</ele>
        <time>2023-05-07T09:49:35Z</time>
      </trkpt>
      <trkpt lat="45.464475" lon="1.805729">
        <ele>621</ele>
        <time>2023-05-07T09:49:36Z</time>
      </trkpt>
      <trkpt lat="45.464490" lon="1.805715">
        <ele>622</ele>
        <time>2023-05-07T09:49:37Z</time>
      </trkpt>
      <trkpt lat="45.464503" lon="1.805707">
        <ele>622</ele>
        <time>2023-05-07T09:49:38Z</time>
      </trkpt>
      <trkpt lat="45.464516" lon="1.805699">
        <ele>622</ele>
        <time>2023-05-07T09:49:39Z</time>
      </trkpt>
      <trkpt lat="45.464528" lon="1.805697">
        <ele>622</ele>
        <time>2023-05-07T09:49:40Z</time>
      </trkpt>
      <trkpt lat="45.464540" lon="1.805694">
        <ele>622</ele>
        <time>2023-05-07T09:49:41Z</time>
      </trkpt>
      <trkpt lat="45.464547" lon="1.805701">
        <ele>624</ele>
        <time>2023-05-07T09:50:36Z</time>
      </trkpt>
      <trkpt lat="45.464553" lon="1.805706">
        <ele>624</ele>
        <time>2023-05-07T09:50:37Z</time>
      </trkpt>
      <trkpt lat="45.464559" lon="1.805710">
        <ele>624</ele>
        <time>2023-05-07T09:50:38Z</time>
      </trkpt>
      <trkpt lat="45.464566" lon="1.805718">
        <ele>624</ele>
        <time>2023-05-07T09:50:39Z</time>
      </trkpt>
      <trkpt lat="45.464573" lon="1.805726">
        <ele>624</ele>
        <time>2023-05-07T09:50:40Z</time>
      </trkpt>
      <trkpt lat="45.464582" lon="1.805740">
        <ele>624</ele>
        <time>2023-05-07T09:50:41Z</time>
      </trkpt>
      <trkpt lat="45.464592" lon="1.805754">
        <ele>624</ele>
        <time>2023-05-07T09:50:42Z</time>
      </trkpt>
      <trkpt lat="45.464605" lon="1.805772">
        <ele>624</ele>
        <time>2023-05-07T09:50:43Z</time>
      </trkpt>
      <trkpt lat="45.464617" lon="1.805790">
        <ele>624</ele>
        <time>2023-05-07T09:50:44Z</time>
      </trkpt>
      <trkpt lat="45.464630" lon="1.805812">
        <ele>624</ele>
        <time>2023-05-07T09:50:45Z</time>
      </trkpt>
      <trkpt lat="45.464644" lon="1.805835">
        <ele>624</ele>
        <time>2023-05-07T09:50:46Z</time>
      </trkpt>
      <trkpt lat="45.464657" lon="1.805859">
        <ele>624</ele>
        <time>2023-05-07T09:50:47Z</time>
      </trkpt>
      <trkpt lat="45.464670" lon="1.805883">
        <ele>624</ele>
        <time>2023-05-07T09:50:48Z</time>
      </trkpt>
      <trkpt lat="45.464684" lon="1.805909">
        <ele>624</ele>
        <time>2023-05-07T09:50:49Z</time>
      </trkpt>
      <trkpt lat="45.464697" lon="1.805935">
        <ele>624</ele>
        <time>2023-05-07T09:50:50Z</time>
      </trkpt>
      <trkpt lat="45.464713" lon="1.805962">
        <ele>624</ele>
        <time>2023-05-07T09:50:51Z</time>
      </trkpt>
      <trkpt lat="45.464728" lon="1.805990">
        <ele>624</ele>
        <time>2023-05-07T09:50:52Z</time>
      </trkpt>
      <trkpt lat="45.464743" lon="1.806018">
        <ele>624</ele>
        <time>2023-05-07T09:50:53Z</time>
      </trkpt>
      <trkpt lat="45.464758" lon="1.806046">
        <ele>624</ele>
        <time>2023-05-07T09:50:54Z</time>
      </trkpt>
      <trkpt lat="45.464772" lon="1.806071">
        <ele>624</ele>
        <time>2023-05-07T09:50:55Z</time>
      </trkpt>
      <trkpt lat="45.464786" lon="1.806096">
        <ele>624</ele>
        <time>2023-05-07T09:50:56Z</time>
      </trkpt>
      <trkpt lat="45.464800" lon="1.806120">
        <ele>624</ele>
        <time>2023-05-07T09:50:57Z</time>
      </trkpt>
      <trkpt lat="45.464815" lon="1.806143">
        <ele>623</ele>
        <time>2023-05-07T09:50:58Z</time>
      </trkpt>
      <trkpt lat="45.464830" lon="1.806167">
        <ele>623</ele>
        <time>2023-05-07T09:50:59Z</time>
      </trkpt>
      <trkpt lat="45.464844" lon="1.806191">
        <ele>623</ele>
        <time>2023-05-07T09:51:00Z</time>
      </trkpt>
      <trkpt lat="45.464858" lon="1.806215">
        <ele>623</ele>
        <time>2023-05-07T09:51:01Z</time>
      </trkpt>
      <trkpt lat="45.464871" lon="1.806238">
        <ele>623</ele>
        <time>2023-05-07T09:51:02Z</time>
      </trkpt>
      <trkpt lat="45.464882" lon="1.806263">
        <ele>623</ele>
        <time>2023-05-07T09:51:03Z</time>
      </trkpt>
      <trkpt lat="45.464893" lon="1.806287">
        <ele>623</ele>
        <time>2023-05-07T09:51:04Z</time>
      </trkpt>
      <trkpt lat="45.464903" lon="1.806313">
        <ele>623</ele>
        <time>2023-05-07T09:51:05Z</time>
      </trkpt>
      <trkpt lat="45.464914" lon="1.806339">
        <ele>623</ele>
        <time>2023-05-07T09:51:06Z</time>
      </trkpt>
      <trkpt lat="45.464923" lon="1.806365">
        <ele>623</ele>
        <time>2023-05-07T09:51:07Z</time>
      </trkpt>
      <trkpt lat="45.464932" lon="1.806392">
        <ele>623</ele>
        <time>2023-05-07T09:51:08Z</time>
      </trkpt>
      <trkpt lat="45.464942" lon="1.806419">
        <ele>623</ele>
        <time>2023-05-07T09:51:09Z</time>
      </trkpt>
      <trkpt lat="45.464952" lon="1.806447">
        <ele>623</ele>
        <time>2023-05-07T09:51:10Z</time>
      </trkpt>
      <trkpt lat="45.464964" lon="1.806475">
        <ele>623</ele>
        <time>2023-05-07T09:51:11Z</time>
      </trkpt>
      <trkpt lat="45.464976" lon="1.806502">
        <ele>623</ele>
        <time>2023-05-07T09:51:12Z</time>
      </trkpt>
      <trkpt lat="45.464990" lon="1.806529">
        <ele>623</ele>
        <time>2023-05-07T09:51:13Z</time>
      </trkpt>
      <trkpt lat="45.465003" lon="1.806555">
        <ele>623</ele>
        <time>2023-05-07T09:51:14Z</time>
      </trkpt>
      <trkpt lat="45.465017" lon="1.806580">
        <ele>623</ele>
        <time>2023-05-07T09:51:15Z</time>
      </trkpt>
      <trkpt lat="45.465031" lon="1.806606">
        <ele>623</ele>
        <time>2023-05-07T09:51:16Z</time>
      </trkpt>
      <trkpt lat="45.465043" lon="1.806629">
        <ele>623</ele>
        <time>2023-05-07T09:51:17Z</time>
      </trkpt>
      <trkpt lat="45.465055" lon="1.806652">
        <ele>623</ele>
        <time>2023-05-07T09:51:18Z</time>
      </trkpt>
      <trkpt lat="45.465066" lon="1.806675">
        <ele>623</ele>
        <time>2023-05-07T09:51:19Z</time>
      </trkpt>
      <trkpt lat="45.465077" lon="1.806698">
        <ele>623</ele>
        <time>2023-05-07T09:51:20Z</time>
      </trkpt>
      <trkpt lat="45.465086" lon="1.806722">
        <ele>623</ele>
        <time>2023-05-07T09:51:21Z</time>
      </trkpt>
      <trkpt lat="45.465095" lon="1.806746">
        <ele>624</ele>
        <time>2023-05-07T09:51:22Z</time>
      </trkpt>
      <trkpt lat="45.465105" lon="1.806770">
        <ele>624</ele>
        <time>2023-05-07T09:51:23Z</time>
      </trkpt>
      <trkpt lat="45.465116" lon="1.806794">
        <ele>624</ele>
        <time>2023-05-07T09:51:24Z</time>
      </trkpt>
      <trkpt lat="45.465128" lon="1.806818">
        <ele>624</ele>
        <time>2023-05-07T09:51:25Z</time>
      </trkpt>
      <trkpt lat="45.465141" lon="1.806842">
        <ele>624</ele>
        <time>2023-05-07T09:51:26Z</time>
      </trkpt>
      <trkpt lat="45.465153" lon="1.806868">
        <ele>624</ele>
        <time>2023-05-07T09:51:27Z</time>
      </trkpt>
      <trkpt lat="45.465165" lon="1.806894">
        <ele>624</ele>
        <time>2023-05-07T09:51:28Z</time>
      </trkpt>
      <trkpt lat="45.465178" lon="1.806921">
        <ele>624</ele>
        <time>2023-05-07T09:51:29Z</time>
      </trkpt>
      <trkpt lat="45.465190" lon="1.806947">
        <ele>624</ele>
        <time>2023-05-07T09:51:30Z</time>
      </trkpt>
      <trkpt lat="45.465203" lon="1.806975">
        <ele>624</ele>
        <time>2023-05-07T09:51:31Z</time>
      </trkpt>
      <trkpt lat="45.465215" lon="1.807003">
        <ele>624</ele>
        <time>2023-05-07T09:51:32Z</time>
      </trkpt>
      <trkpt lat="45.465227" lon="1.807033">
        <ele>624</ele>
        <time>2023-05-07T09:51:33Z</time>
      </trkpt>
      <trkpt lat="45.465238" lon="1.807063">
        <ele>624</ele>
        <time>2023-05-07T09:51:34Z</time>
      </trkpt>
      <trkpt lat="45.465251" lon="1.807093">
        <ele>624</ele>
        <time>2023-05-07T09:51:35Z</time>
      </trkpt>
      <trkpt lat="45.465263" lon="1.807123">
        <ele>624</ele>
        <time>2023-05-07T09:51:36Z</time>
      </trkpt>
      <trkpt lat="45.465277" lon="1.807148">
        <ele>624</ele>
        <time>2023-05-07T09:51:37Z</time>
      </trkpt>
      <trkpt lat="45.465291" lon="1.807174">
        <ele>624</ele>
        <time>2023-05-07T09:51:38Z</time>
      </trkpt>
      <trkpt lat="45.465306" lon="1.807198">
        <ele>624</ele>
        <time>2023-05-07T09:51:39Z</time>
      </trkpt>
      <trkpt lat="45.465320" lon="1.807223">
        <ele>624</ele>
        <time>2023-05-07T09:51:40Z</time>
      </trkpt>
      <trkpt lat="45.465334" lon="1.807248">
        <ele>624</ele>
        <time>2023-05-07T09:51:41Z</time>
      </trkpt>
      <trkpt lat="45.465349" lon="1.807273">
        <ele>624</ele>
        <time>2023-05-07T09:51:42Z</time>
      </trkpt>
      <trkpt lat="45.465364" lon="1.807300">
        <ele>624</ele>
        <time>2023-05-07T09:51:43Z</time>
      </trkpt>
      <trkpt lat="45.465379" lon="1.807326">
        <ele>624</ele>
        <time>2023-05-07T09:51:44Z</time>
      </trkpt>
      <trkpt lat="45.465393" lon="1.807355">
        <ele>624</ele>
        <time>2023-05-07T09:51:45Z</time>
      </trkpt>
      <trkpt lat="45.465408" lon="1.807384">
        <ele>624</ele>
        <time>2023-05-07T09:51:46Z</time>
      </trkpt>
      <trkpt lat="45.465423" lon="1.807413">
        <ele>624</ele>
        <time>2023-05-07T09:51:47Z</time>
      </trkpt>
      <trkpt lat="45.465437" lon="1.807442">
        <ele>624</ele>
        <time>2023-05-07T09:51:48Z</time>
      </trkpt>
      <trkpt lat="45.465452" lon="1.807471">
        <ele>624</ele>
        <time>2023-05-07T09:51:49Z</time>
      </trkpt>
      <trkpt lat="45.465467" lon="1.807499">
        <ele>624</ele>
        <time>2023-05-07T09:51:50Z</time>
      </trkpt>
      <trkpt lat="45.465480" lon="1.807527">
        <ele>624</ele>
        <time>2023-05-07T09:51:51Z</time>
      </trkpt>
      <trkpt lat="45.465494" lon="1.807554">
        <ele>625</ele>
        <time>2023-05-07T09:51:52Z</time>
      </trkpt>
      <trkpt lat="45.465507" lon="1.807581">
        <ele>625</ele>
        <time>2023-05-07T09:51:53Z</time>
      </trkpt>
      <trkpt lat="45.465520" lon="1.807608">
        <ele>625</ele>
        <time>2023-05-07T09:51:54Z</time>
      </trkpt>
      <trkpt lat="45.465531" lon="1.807633">
        <ele>625</ele>
        <time>2023-05-07T09:51:55Z</time>
      </trkpt>
      <trkpt lat="45.465543" lon="1.807659">
        <ele>625</ele>
        <time>2023-05-07T09:51:56Z</time>
      </trkpt>
      <trkpt lat="45.465554" lon="1.807684">
        <ele>625</ele>
        <time>2023-05-07T09:51:57Z</time>
      </trkpt>
      <trkpt lat="45.465566" lon="1.807709">
        <ele>625</ele>
        <time>2023-05-07T09:51:58Z</time>
      </trkpt>
      <trkpt lat="45.465579" lon="1.807733">
        <ele>625</ele>
        <time>2023-05-07T09:51:59Z</time>
      </trkpt>
      <trkpt lat="45.465592" lon="1.807757">
        <ele>625</ele>
        <time>2023-05-07T09:52:00Z</time>
      </trkpt>
      <trkpt lat="45.465608" lon="1.807772">
        <ele>625</ele>
        <time>2023-05-07T09:52:01Z</time>
      </trkpt>
      <trkpt lat="45.465624" lon="1.807786">
        <ele>625</ele>
        <time>2023-05-07T09:52:02Z</time>
      </trkpt>
      <trkpt lat="45.465642" lon="1.807789">
        <ele>625</ele>
        <time>2023-05-07T09:52:03Z</time>
      </trkpt>
      <trkpt lat="45.465659" lon="1.807792">
        <ele>625</ele>
        <time>2023-05-07T09:52:04Z</time>
      </trkpt>
      <trkpt lat="45.465675" lon="1.807785">
        <ele>625</ele>
        <time>2023-05-07T09:52:05Z</time>
      </trkpt>
      <trkpt lat="45.465691" lon="1.807778">
        <ele>625</ele>
        <time>2023-05-07T09:52:06Z</time>
      </trkpt>
      <trkpt lat="45.465703" lon="1.807762">
        <ele>625</ele>
        <time>2023-05-07T09:52:07Z</time>
      </trkpt>
      <trkpt lat="45.465716" lon="1.807747">
        <ele>625</ele>
        <time>2023-05-07T09:52:08Z</time>
      </trkpt>
      <trkpt lat="45.465725" lon="1.807728">
        <ele>625</ele>
        <time>2023-05-07T09:52:09Z</time>
      </trkpt>
      <trkpt lat="45.465735" lon="1.807708">
        <ele>625</ele>
        <time>2023-05-07T09:52:10Z</time>
      </trkpt>
      <trkpt lat="45.465741" lon="1.807686">
        <ele>625</ele>
        <time>2023-05-07T09:52:11Z</time>
      </trkpt>
      <trkpt lat="45.465748" lon="1.807664">
        <ele>625</ele>
        <time>2023-05-07T09:52:12Z</time>
      </trkpt>
      <trkpt lat="45.465753" lon="1.807640">
        <ele>625</ele>
        <time>2023-05-07T09:52:13Z</time>
      </trkpt>
      <trkpt lat="45.465758" lon="1.807616">
        <ele>625</ele>
        <time>2023-05-07T09:52:14Z</time>
      </trkpt>
      <trkpt lat="45.465761" lon="1.807591">
        <ele>625</ele>
        <time>2023-05-07T09:52:15Z</time>
      </trkpt>
      <trkpt lat="45.465764" lon="1.807565">
        <ele>625</ele>
        <time>2023-05-07T09:52:16Z</time>
      </trkpt>
      <trkpt lat="45.465767" lon="1.807540">
        <ele>625</ele>
        <time>2023-05-07T09:52:17Z</time>
      </trkpt>
      <trkpt lat="45.465770" lon="1.807514">
        <ele>625</ele>
        <time>2023-05-07T09:52:18Z</time>
      </trkpt>
      <trkpt lat="45.465775" lon="1.807489">
        <ele>625</ele>
        <time>2023-05-07T09:52:19Z</time>
      </trkpt>
      <trkpt lat="45.465780" lon="1.807464">
        <ele>625</ele>
        <time>2023-05-07T09:52:20Z</time>
      </trkpt>
      <trkpt lat="45.465787" lon="1.807440">
        <ele>625</ele>
        <time>2023-05-07T09:52:21Z</time>
      </trkpt>
      <trkpt lat="45.465794" lon="1.807416">
        <ele>625</ele>
        <time>2023-05-07T09:52:22Z</time>
      </trkpt>
      <trkpt lat="45.465803" lon="1.807394">
        <ele>625</ele>
        <time>2023-05-07T09:52:23Z</time>
      </trkpt>
      <trkpt lat="45.465812" lon="1.807372">
        <ele>625</ele>
        <time>2023-05-07T09:52:24Z</time>
      </trkpt>
      <trkpt lat="45.465821" lon="1.807350">
        <ele>625</ele>
        <time>2023-05-07T09:52:25Z</time>
      </trkpt>
      <trkpt lat="45.465831" lon="1.807328">
        <ele>625</ele>
        <time>2023-05-07T09:52:26Z</time>
      </trkpt>
      <trkpt lat="45.465839" lon="1.807306">
        <ele>626</ele>
        <time>2023-05-07T09:52:27Z</time>
      </trkpt>
      <trkpt lat="45.465847" lon="1.807284">
        <ele>626</ele>
        <time>2023-05-07T09:52:28Z</time>
      </trkpt>
      <trkpt lat="45.465854" lon="1.807260">
        <ele>626</ele>
        <time>2023-05-07T09:52:29Z</time>
      </trkpt>
      <trkpt lat="45.465860" lon="1.807237">
        <ele>626</ele>
        <time>2023-05-07T09:52:30Z</time>
      </trkpt>
      <trkpt lat="45.465864" lon="1.807213">
        <ele>626</ele>
        <time>2023-05-07T09:52:31Z</time>
      </trkpt>
      <trkpt lat="45.465869" lon="1.807189">
        <ele>627</ele>
        <time>2023-05-07T09:52:32Z</time>
      </trkpt>
      <trkpt lat="45.465871" lon="1.807166">
        <ele>627</ele>
        <time>2023-05-07T09:52:33Z</time>
      </trkpt>
      <trkpt lat="45.465873" lon="1.807143">
        <ele>627</ele>
        <time>2023-05-07T09:52:34Z</time>
      </trkpt>
      <trkpt lat="45.465873" lon="1.807119">
        <ele>627</ele>
        <time>2023-05-07T09:52:35Z</time>
      </trkpt>
      <trkpt lat="45.465872" lon="1.807096">
        <ele>627</ele>
        <time>2023-05-07T09:52:36Z</time>
      </trkpt>
      <trkpt lat="45.465870" lon="1.807071">
        <ele>628</ele>
        <time>2023-05-07T09:52:37Z</time>
      </trkpt>
      <trkpt lat="45.465868" lon="1.807046">
        <ele>628</ele>
        <time>2023-05-07T09:52:38Z</time>
      </trkpt>
      <trkpt lat="45.465866" lon="1.807023">
        <ele>628</ele>
        <time>2023-05-07T09:52:39Z</time>
      </trkpt>
      <trkpt lat="45.465864" lon="1.807001">
        <ele>628</ele>
        <time>2023-05-07T09:52:40Z</time>
      </trkpt>
      <trkpt lat="45.465863" lon="1.806981">
        <ele>628</ele>
        <time>2023-05-07T09:52:41Z</time>
      </trkpt>
      <trkpt lat="45.465863" lon="1.806961">
        <ele>629</ele>
        <time>2023-05-07T09:52:42Z</time>
      </trkpt>
      <trkpt lat="45.465865" lon="1.806939">
        <ele>629</ele>
        <time>2023-05-07T09:52:43Z</time>
      </trkpt>
      <trkpt lat="45.465867" lon="1.806917">
        <ele>629</ele>
        <time>2023-05-07T09:52:44Z</time>
      </trkpt>
      <trkpt lat="45.465870" lon="1.806894">
        <ele>629</ele>
        <time>2023-05-07T09:52:45Z</time>
      </trkpt>
      <trkpt lat="45.465873" lon="1.806870">
        <ele>629</ele>
        <time>2023-05-07T09:52:46Z</time>
      </trkpt>
      <trkpt lat="45.465876" lon="1.806847">
        <ele>629</ele>
        <time>2023-05-07T09:52:47Z</time>
      </trkpt>
      <trkpt lat="45.465879" lon="1.806823">
        <ele>629</ele>
        <time>2023-05-07T09:52:48Z</time>
      </trkpt>
      <trkpt lat="45.465881" lon="1.806799">
        <ele>629</ele>
        <time>2023-05-07T09:52:49Z</time>
      </trkpt>
      <trkpt lat="45.465883" lon="1.806776">
        <ele>629</ele>
        <time>2023-05-07T09:52:50Z</time>
      </trkpt>
      <trkpt lat="45.465883" lon="1.806752">
        <ele>629</ele>
        <time>2023-05-07T09:52:51Z</time>
      </trkpt>
      <trkpt lat="45.465882" lon="1.806729">
        <ele>630</ele>
        <time>2023-05-07T09:52:52Z</time>
      </trkpt>
      <trkpt lat="45.465877" lon="1.806704">
        <ele>630</ele>
        <time>2023-05-07T09:52:53Z</time>
      </trkpt>
      <trkpt lat="45.465873" lon="1.806679">
        <ele>630</ele>
        <time>2023-05-07T09:52:54Z</time>
      </trkpt>
      <trkpt lat="45.465865" lon="1.806649">
        <ele>630</ele>
        <time>2023-05-07T09:52:55Z</time>
      </trkpt>
      <trkpt lat="45.465857" lon="1.806620">
        <ele>630</ele>
        <time>2023-05-07T09:52:56Z</time>
      </trkpt>
      <trkpt lat="45.465847" lon="1.806587">
        <ele>630</ele>
        <time>2023-05-07T09:52:57Z</time>
      </trkpt>
      <trkpt lat="45.465837" lon="1.806554">
        <ele>630</ele>
        <time>2023-05-07T09:52:58Z</time>
      </trkpt>
      <trkpt lat="45.465825" lon="1.806518">
        <ele>630</ele>
        <time>2023-05-07T09:52:59Z</time>
      </trkpt>
      <trkpt lat="45.465812" lon="1.806483">
        <ele>630</ele>
        <time>2023-05-07T09:53:00Z</time>
      </trkpt>
      <trkpt lat="45.465797" lon="1.806448">
        <ele>630</ele>
        <time>2023-05-07T09:53:01Z</time>
      </trkpt>
      <trkpt lat="45.465782" lon="1.806413">
        <ele>630</ele>
        <time>2023-05-07T09:53:02Z</time>
      </trkpt>
      <trkpt lat="45.465766" lon="1.806382">
        <ele>630</ele>
        <time>2023-05-07T09:53:03Z</time>
      </trkpt>
      <trkpt lat="45.465750" lon="1.806350">
        <ele>630</ele>
        <time>2023-05-07T09:53:04Z</time>
      </trkpt>
      <trkpt lat="45.465737" lon="1.806322">
        <ele>630</ele>
        <time>2023-05-07T09:53:05Z</time>
      </trkpt>
      <trkpt lat="45.465724" lon="1.806294">
        <ele>630</ele>
        <time>2023-05-07T09:53:06Z</time>
      </trkpt>
      <trkpt lat="45.465715" lon="1.806269">
        <ele>630</ele>
        <time>2023-05-07T09:53:07Z</time>
      </trkpt>
      <trkpt lat="45.465705" lon="1.806244">
        <ele>630</ele>
        <time>2023-05-07T09:53:08Z</time>
      </trkpt>
      <trkpt lat="45.465699" lon="1.806221">
        <ele>630</ele>
        <time>2023-05-07T09:53:09Z</time>
      </trkpt>
      <trkpt lat="45.465693" lon="1.806199">
        <ele>630</ele>
        <time>2023-05-07T09:53:10Z</time>
      </trkpt>
      <trkpt lat="45.465691" lon="1.806177">
        <ele>630</ele>
        <time>2023-05-07T09:53:11Z</time>
      </trkpt>
      <trkpt lat="45.465688" lon="1.806155">
        <ele>630</ele>
        <time>2023-05-07T09:53:12Z</time>
      </trkpt>
      <trkpt lat="45.465687" lon="1.806133">
        <ele>630</ele>
        <time>2023-05-07T09:53:13Z</time>
      </trkpt>
      <trkpt lat="45.465685" lon="1.806112">
        <ele>630</ele>
        <time>2023-05-07T09:53:14Z</time>
      </trkpt>
      <trkpt lat="45.465681" lon="1.806089">
        <ele>630</ele>
        <time>2023-05-07T09:53:15Z</time>
      </trkpt>
      <trkpt lat="45.465677" lon="1.806066">
        <ele>630</ele>
        <time>2023-05-07T09:53:16Z</time>
      </trkpt>
      <trkpt lat="45.465672" lon="1.806039">
        <ele>630</ele>
        <time>2023-05-07T09:53:17Z</time>
      </trkpt>
      <trkpt lat="45.465667" lon="1.806012">
        <ele>630</ele>
        <time>2023-05-07T09:53:18Z</time>
      </trkpt>
      <trkpt lat="45.465660" lon="1.805982">
        <ele>630</ele>
        <time>2023-05-07T09:53:19Z</time>
      </trkpt>
      <trkpt lat="45.465654" lon="1.805953">
        <ele>630</ele>
        <time>2023-05-07T09:53:20Z</time>
      </trkpt>
      <trkpt lat="45.465646" lon="1.805922">
        <ele>630</ele>
        <time>2023-05-07T09:53:21Z</time>
      </trkpt>
      <trkpt lat="45.465637" lon="1.805891">
        <ele>630</ele>
        <time>2023-05-07T09:53:22Z</time>
      </trkpt>
      <trkpt lat="45.465630" lon="1.805862">
        <ele>629</ele>
        <time>2023-05-07T09:53:23Z</time>
      </trkpt>
      <trkpt lat="45.465623" lon="1.805833">
        <ele>629</ele>
        <time>2023-05-07T09:53:24Z</time>
      </trkpt>
      <trkpt lat="45.465618" lon="1.805805">
        <ele>629</ele>
        <time>2023-05-07T09:53:25Z</time>
      </trkpt>
      <trkpt lat="45.465613" lon="1.805777">
        <ele>629</ele>
        <time>2023-05-07T09:53:26Z</time>
      </trkpt>
      <trkpt lat="45.465611" lon="1.805749">
        <ele>629</ele>
        <time>2023-05-07T09:53:27Z</time>
      </trkpt>
      <trkpt lat="45.465609" lon="1.805721">
        <ele>629</ele>
        <time>2023-05-07T09:53:28Z</time>
      </trkpt>
      <trkpt lat="45.465611" lon="1.805693">
        <ele>629</ele>
        <time>2023-05-07T09:53:29Z</time>
      </trkpt>
      <trkpt lat="45.465613" lon="1.805666">
        <ele>629</ele>
        <time>2023-05-07T09:53:30Z</time>
      </trkpt>
      <trkpt lat="45.465617" lon="1.805637">
        <ele>629</ele>
        <time>2023-05-07T09:53:31Z</time>
      </trkpt>
      <trkpt lat="45.465621" lon="1.805608">
        <ele>629</ele>
        <time>2023-05-07T09:53:32Z</time>
      </trkpt>
      <trkpt lat="45.465628" lon="1.805577">
        <ele>629</ele>
        <time>2023-05-07T09:53:33Z</time>
      </trkpt>
      <trkpt lat="45.465635" lon="1.805547">
        <ele>629</ele>
        <time>2023-05-07T09:53:34Z</time>
      </trkpt>
      <trkpt lat="45.465642" lon="1.805517">
        <ele>629</ele>
        <time>2023-05-07T09:53:35Z</time>
      </trkpt>
      <trkpt lat="45.465650" lon="1.805487">
        <ele>629</ele>
        <time>2023-05-07T09:53:36Z</time>
      </trkpt>
      <trkpt lat="45.465657" lon="1.805459">
        <ele>629</ele>
        <time>2023-05-07T09:53:37Z</time>
      </trkpt>
      <trkpt lat="45.465665" lon="1.805430">
        <ele>629</ele>
        <time>2023-05-07T09:53:38Z</time>
      </trkpt>
      <trkpt lat="45.465672" lon="1.805403">
        <ele>629</ele>
        <time>2023-05-07T09:53:39Z</time>
      </trkpt>
      <trkpt lat="45.465680" lon="1.805375">
        <ele>629</ele>
        <time>2023-05-07T09:53:40Z</time>
      </trkpt>
      <trkpt lat="45.465688" lon="1.805348">
        <ele>629</ele>
        <time>2023-05-07T09:53:41Z</time>
      </trkpt>
      <trkpt lat="45.465696" lon="1.805322">
        <ele>629</ele>
        <time>2023-05-07T09:53:42Z</time>
      </trkpt>
      <trkpt lat="45.465704" lon="1.805295">
        <ele>629</ele>
        <time>2023-05-07T09:53:43Z</time>
      </trkpt>
      <trkpt lat="45.465712" lon="1.805269">
        <ele>629</ele>
        <time>2023-05-07T09:53:44Z</time>
      </trkpt>
      <trkpt lat="45.465720" lon="1.805242">
        <ele>629</ele>
        <time>2023-05-07T09:53:45Z</time>
      </trkpt>
      <trkpt lat="45.465727" lon="1.805216">
        <ele>629</ele>
        <time>2023-05-07T09:53:46Z</time>
      </trkpt>
      <trkpt lat="45.465735" lon="1.805190">
        <ele>629</ele>
        <time>2023-05-07T09:53:47Z</time>
      </trkpt>
      <trkpt lat="45.465743" lon="1.805163">
        <ele>629</ele>
        <time>2023-05-07T09:53:48Z</time>
      </trkpt>
      <trkpt lat="45.465753" lon="1.805138">
        <ele>629</ele>
        <time>2023-05-07T09:53:49Z</time>
      </trkpt>
      <trkpt lat="45.465762" lon="1.805113">
        <ele>629</ele>
        <time>2023-05-07T09:53:50Z</time>
      </trkpt>
      <trkpt lat="45.465771" lon="1.805091">
        <ele>629</ele>
        <time>2023-05-07T09:53:51Z</time>
      </trkpt>
      <trkpt lat="45.465779" lon="1.805069">
        <ele>629</ele>
        <time>2023-05-07T09:53:52Z</time>
      </trkpt>
      <trkpt lat="45.465788" lon="1.805050">
        <ele>629</ele>
        <time>2023-05-07T09:53:53Z</time>
      </trkpt>
      <trkpt lat="45.465797" lon="1.805030">
        <ele>629</ele>
        <time>2023-05-07T09:53:54Z</time>
      </trkpt>
      <trkpt lat="45.465814" lon="1.804995">
        <ele>631</ele>
        <time>2023-05-07T09:55:04Z</time>
      </trkpt>
      <trkpt lat="45.465819" lon="1.804984">
        <ele>631</ele>
        <time>2023-05-07T09:55:05Z</time>
      </trkpt>
      <trkpt lat="45.465824" lon="1.804972">
        <ele>631</ele>
        <time>2023-05-07T09:55:06Z</time>
      </trkpt>
      <trkpt lat="45.465829" lon="1.804961">
        <ele>631</ele>
        <time>2023-05-07T09:55:07Z</time>
      </trkpt>
      <trkpt lat="45.465834" lon="1.804949">
        <ele>631</ele>
        <time>2023-05-07T09:55:08Z</time>
      </trkpt>
      <trkpt lat="45.465842" lon="1.804931">
        <ele>631</ele>
        <time>2023-05-07T09:55:09Z</time>
      </trkpt>
      <trkpt lat="45.465850" lon="1.804913">
        <ele>631</ele>
        <time>2023-05-07T09:55:10Z</time>
      </trkpt>
      <trkpt lat="45.465862" lon="1.804889">
        <ele>631</ele>
        <time>2023-05-07T09:55:11Z</time>
      </trkpt>
      <trkpt lat="45.465873" lon="1.804865">
        <ele>631</ele>
        <time>2023-05-07T09:55:12Z</time>
      </trkpt>
      <trkpt lat="45.465885" lon="1.804838">
        <ele>631</ele>
        <time>2023-05-07T09:55:13Z</time>
      </trkpt>
      <trkpt lat="45.465896" lon="1.804811">
        <ele>631</ele>
        <time>2023-05-07T09:55:14Z</time>
      </trkpt>
      <trkpt lat="45.465903" lon="1.804782">
        <ele>631</ele>
        <time>2023-05-07T09:55:15Z</time>
      </trkpt>
      <trkpt lat="45.465910" lon="1.804754">
        <ele>631</ele>
        <time>2023-05-07T09:55:16Z</time>
      </trkpt>
      <trkpt lat="45.465914" lon="1.804727">
        <ele>631</ele>
        <time>2023-05-07T09:55:17Z</time>
      </trkpt>
      <trkpt lat="45.465917" lon="1.804700">
        <ele>631</ele>
        <time>2023-05-07T09:55:18Z</time>
      </trkpt>
      <trkpt lat="45.465918" lon="1.804677">
        <ele>631</ele>
        <time>2023-05-07T09:55:19Z</time>
      </trkpt>
      <trkpt lat="45.465918" lon="1.804654">
        <ele>631</ele>
        <time>2023-05-07T09:55:20Z</time>
      </trkpt>
      <trkpt lat="45.465919" lon="1.804631">
        <ele>631</ele>
        <time>2023-05-07T09:55:21Z</time>
      </trkpt>
      <trkpt lat="45.465920" lon="1.804609">
        <ele>631</ele>
        <time>2023-05-07T09:55:22Z</time>
      </trkpt>
      <trkpt lat="45.465922" lon="1.804583">
        <ele>631</ele>
        <time>2023-05-07T09:55:23Z</time>
      </trkpt>
      <trkpt lat="45.465924" lon="1.804557">
        <ele>631</ele>
        <time>2023-05-07T09:55:24Z</time>
      </trkpt>
      <trkpt lat="45.465927" lon="1.804527">
        <ele>631</ele>
        <time>2023-05-07T09:55:25Z</time>
      </trkpt>
      <trkpt lat="45.465930" lon="1.804497">
        <ele>631</ele>
        <time>2023-05-07T09:55:26Z</time>
      </trkpt>
      <trkpt lat="45.465934" lon="1.804466">
        <ele>631</ele>
        <time>2023-05-07T09:55:27Z</time>
      </trkpt>
      <trkpt lat="45.465938" lon="1.804436">
        <ele>631</ele>
        <time>2023-05-07T09:55:28Z</time>
      </trkpt>
      <trkpt lat="45.465942" lon="1.804406">
        <ele>631</ele>
        <time>2023-05-07T09:55:29Z</time>
      </trkpt>
      <trkpt lat="45.465946" lon="1.804376">
        <ele>631</ele>
        <time>2023-05-07T09:55:30Z</time>
      </trkpt>
      <trkpt lat="45.465949" lon="1.804348">
        <ele>631</ele>
        <time>2023-05-07T09:55:31Z</time>
      </trkpt>
      <trkpt lat="45.465952" lon="1.804321">
        <ele>632</ele>
        <time>2023-05-07T09:55:32Z</time>
      </trkpt>
      <trkpt lat="45.465955" lon="1.804296">
        <ele>632</ele>
        <time>2023-05-07T09:55:33Z</time>
      </trkpt>
      <trkpt lat="45.465958" lon="1.804272">
        <ele>632</ele>
        <time>2023-05-07T09:55:34Z</time>
      </trkpt>
      <trkpt lat="45.465961" lon="1.804247">
        <ele>632</ele>
        <time>2023-05-07T09:55:35Z</time>
      </trkpt>
      <trkpt lat="45.465963" lon="1.804223">
        <ele>632</ele>
        <time>2023-05-07T09:55:36Z</time>
      </trkpt>
      <trkpt lat="45.465966" lon="1.804199">
        <ele>632</ele>
        <time>2023-05-07T09:55:37Z</time>
      </trkpt>
      <trkpt lat="45.465970" lon="1.804174">
        <ele>632</ele>
        <time>2023-05-07T09:55:38Z</time>
      </trkpt>
      <trkpt lat="45.465973" lon="1.804148">
        <ele>632</ele>
        <time>2023-05-07T09:55:39Z</time>
      </trkpt>
      <trkpt lat="45.465977" lon="1.804121">
        <ele>632</ele>
        <time>2023-05-07T09:55:40Z</time>
      </trkpt>
      <trkpt lat="45.465980" lon="1.804094">
        <ele>632</ele>
        <time>2023-05-07T09:55:41Z</time>
      </trkpt>
      <trkpt lat="45.465984" lon="1.804067">
        <ele>633</ele>
        <time>2023-05-07T09:55:42Z</time>
      </trkpt>
      <trkpt lat="45.465986" lon="1.804038">
        <ele>633</ele>
        <time>2023-05-07T09:55:43Z</time>
      </trkpt>
      <trkpt lat="45.465988" lon="1.804010">
        <ele>633</ele>
        <time>2023-05-07T09:55:44Z</time>
      </trkpt>
      <trkpt lat="45.465989" lon="1.803981">
        <ele>633</ele>
        <time>2023-05-07T09:55:45Z</time>
      </trkpt>
      <trkpt lat="45.465990" lon="1.803953">
        <ele>633</ele>
        <time>2023-05-07T09:55:46Z</time>
      </trkpt>
      <trkpt lat="45.465991" lon="1.803924">
        <ele>633</ele>
        <time>2023-05-07T09:55:47Z</time>
      </trkpt>
      <trkpt lat="45.465992" lon="1.803896">
        <ele>633</ele>
        <time>2023-05-07T09:55:48Z</time>
      </trkpt>
      <trkpt lat="45.465993" lon="1.803867">
        <ele>633</ele>
        <time>2023-05-07T09:55:49Z</time>
      </trkpt>
      <trkpt lat="45.465994" lon="1.803839">
        <ele>633</ele>
        <time>2023-05-07T09:55:50Z</time>
      </trkpt>
      <trkpt lat="45.465994" lon="1.803813">
        <ele>633</ele>
        <time>2023-05-07T09:55:51Z</time>
      </trkpt>
      <trkpt lat="45.465994" lon="1.803786">
        <ele>634</ele>
        <time>2023-05-07T09:55:52Z</time>
      </trkpt>
      <trkpt lat="45.465993" lon="1.803763">
        <ele>634</ele>
        <time>2023-05-07T09:55:53Z</time>
      </trkpt>
      <trkpt lat="45.465992" lon="1.803739">
        <ele>634</ele>
        <time>2023-05-07T09:55:54Z</time>
      </trkpt>
      <trkpt lat="45.465989" lon="1.803716">
        <ele>634</ele>
        <time>2023-05-07T09:55:55Z</time>
      </trkpt>
      <trkpt lat="45.465987" lon="1.803694">
        <ele>634</ele>
        <time>2023-05-07T09:55:56Z</time>
      </trkpt>
      <trkpt lat="45.465984" lon="1.803671">
        <ele>634</ele>
        <time>2023-05-07T09:55:57Z</time>
      </trkpt>
      <trkpt lat="45.465980" lon="1.803648">
        <ele>634</ele>
        <time>2023-05-07T09:55:58Z</time>
      </trkpt>
      <trkpt lat="45.465978" lon="1.803624">
        <ele>634</ele>
        <time>2023-05-07T09:55:59Z</time>
      </trkpt>
      <trkpt lat="45.465976" lon="1.803600">
        <ele>634</ele>
        <time>2023-05-07T09:56:00Z</time>
      </trkpt>
      <trkpt lat="45.465977" lon="1.803576">
        <ele>634</ele>
        <time>2023-05-07T09:56:01Z</time>
      </trkpt>
      <trkpt lat="45.465977" lon="1.803551">
        <ele>635</ele>
        <time>2023-05-07T09:56:02Z</time>
      </trkpt>
      <trkpt lat="45.465979" lon="1.803527">
        <ele>635</ele>
        <time>2023-05-07T09:56:03Z</time>
      </trkpt>
      <trkpt lat="45.465981" lon="1.803502">
        <ele>635</ele>
        <time>2023-05-07T09:56:04Z</time>
      </trkpt>
      <trkpt lat="45.465985" lon="1.803473">
        <ele>635</ele>
        <time>2023-05-07T09:56:05Z</time>
      </trkpt>
      <trkpt lat="45.465989" lon="1.803444">
        <ele>635</ele>
        <time>2023-05-07T09:56:06Z</time>
      </trkpt>
      <trkpt lat="45.465995" lon="1.803411">
        <ele>635</ele>
        <time>2023-05-07T09:56:07Z</time>
      </trkpt>
      <trkpt lat="45.466000" lon="1.803378">
        <ele>635</ele>
        <time>2023-05-07T09:56:08Z</time>
      </trkpt>
      <trkpt lat="45.466005" lon="1.803338">
        <ele>635</ele>
        <time>2023-05-07T09:56:09Z</time>
      </trkpt>
      <trkpt lat="45.466011" lon="1.803298">
        <ele>635</ele>
        <time>2023-05-07T09:56:10Z</time>
      </trkpt>
      <trkpt lat="45.466017" lon="1.803254">
        <ele>635</ele>
        <time>2023-05-07T09:56:11Z</time>
      </trkpt>
      <trkpt lat="45.466023" lon="1.803209">
        <ele>635</ele>
        <time>2023-05-07T09:56:12Z</time>
      </trkpt>
      <trkpt lat="45.466029" lon="1.803165">
        <ele>635</ele>
        <time>2023-05-07T09:56:13Z</time>
      </trkpt>
      <trkpt lat="45.466035" lon="1.803121">
        <ele>635</ele>
        <time>2023-05-07T09:56:14Z</time>
      </trkpt>
      <trkpt lat="45.466038" lon="1.803085">
        <ele>635</ele>
        <time>2023-05-07T09:56:15Z</time>
      </trkpt>
      <trkpt lat="45.466042" lon="1.803050">
        <ele>635</ele>
        <time>2023-05-07T09:56:16Z</time>
      </trkpt>
      <trkpt lat="45.466043" lon="1.803026">
        <ele>635</ele>
        <time>2023-05-07T09:56:17Z</time>
      </trkpt>
      <trkpt lat="45.466045" lon="1.803002">
        <ele>634</ele>
        <time>2023-05-07T09:56:18Z</time>
      </trkpt>
      <trkpt lat="45.466044" lon="1.802982">
        <ele>634</ele>
        <time>2023-05-07T09:56:19Z</time>
      </trkpt>
      <trkpt lat="45.466044" lon="1.802962">
        <ele>634</ele>
        <time>2023-05-07T09:56:20Z</time>
      </trkpt>
      <trkpt lat="45.466042" lon="1.802941">
        <ele>634</ele>
        <time>2023-05-07T09:56:21Z</time>
      </trkpt>
      <trkpt lat="45.466040" lon="1.802920">
        <ele>634</ele>
        <time>2023-05-07T09:56:22Z</time>
      </trkpt>
      <trkpt lat="45.466037" lon="1.802898">
        <ele>634</ele>
        <time>2023-05-07T09:56:23Z</time>
      </trkpt>
      <trkpt lat="45.466034" lon="1.802876">
        <ele>634</ele>
        <time>2023-05-07T09:56:24Z</time>
      </trkpt>
      <trkpt lat="45.466028" lon="1.802852">
        <ele>634</ele>
        <time>2023-05-07T09:56:25Z</time>
      </trkpt>
      <trkpt lat="45.466023" lon="1.802829">
        <ele>634</ele>
        <time>2023-05-07T09:56:26Z</time>
      </trkpt>
      <trkpt lat="45.466015" lon="1.802803">
        <ele>634</ele>
        <time>2023-05-07T09:56:27Z</time>
      </trkpt>
      <trkpt lat="45.466008" lon="1.802778">
        <ele>634</ele>
        <time>2023-05-07T09:56:28Z</time>
      </trkpt>
      <trkpt lat="45.465999" lon="1.802747">
        <ele>634</ele>
        <time>2023-05-07T09:56:29Z</time>
      </trkpt>
      <trkpt lat="45.465990" lon="1.802717">
        <ele>634</ele>
        <time>2023-05-07T09:56:30Z</time>
      </trkpt>
      <trkpt lat="45.465982" lon="1.802686">
        <ele>634</ele>
        <time>2023-05-07T09:56:31Z</time>
      </trkpt>
      <trkpt lat="45.465974" lon="1.802654">
        <ele>634</ele>
        <time>2023-05-07T09:56:32Z</time>
      </trkpt>
      <trkpt lat="45.465968" lon="1.802622">
        <ele>634</ele>
        <time>2023-05-07T09:56:33Z</time>
      </trkpt>
      <trkpt lat="45.465962" lon="1.802590">
        <ele>634</ele>
        <time>2023-05-07T09:56:34Z</time>
      </trkpt>
      <trkpt lat="45.465957" lon="1.802560">
        <ele>634</ele>
        <time>2023-05-07T09:56:35Z</time>
      </trkpt>
      <trkpt lat="45.465953" lon="1.802529">
        <ele>634</ele>
        <time>2023-05-07T09:56:36Z</time>
      </trkpt>
      <trkpt lat="45.465949" lon="1.802501">
        <ele>634</ele>
        <time>2023-05-07T09:56:37Z</time>
      </trkpt>
      <trkpt lat="45.465946" lon="1.802473">
        <ele>634</ele>
        <time>2023-05-07T09:56:38Z</time>
      </trkpt>
      <trkpt lat="45.465942" lon="1.802446">
        <ele>634</ele>
        <time>2023-05-07T09:56:39Z</time>
      </trkpt>
      <trkpt lat="45.465939" lon="1.802419">
        <ele>634</ele>
        <time>2023-05-07T09:56:40Z</time>
      </trkpt>
      <trkpt lat="45.465936" lon="1.802393">
        <ele>634</ele>
        <time>2023-05-07T09:56:41Z</time>
      </trkpt>
      <trkpt lat="45.465934" lon="1.802367">
        <ele>634</ele>
        <time>2023-05-07T09:56:42Z</time>
      </trkpt>
      <trkpt lat="45.465931" lon="1.802343">
        <ele>634</ele>
        <time>2023-05-07T09:56:43Z</time>
      </trkpt>
      <trkpt lat="45.465929" lon="1.802319">
        <ele>634</ele>
        <time>2023-05-07T09:56:44Z</time>
      </trkpt>
      <trkpt lat="45.465925" lon="1.802297">
        <ele>634</ele>
        <time>2023-05-07T09:56:45Z</time>
      </trkpt>
      <trkpt lat="45.465920" lon="1.802274">
        <ele>634</ele>
        <time>2023-05-07T09:56:46Z</time>
      </trkpt>
      <trkpt lat="45.465916" lon="1.802252">
        <ele>634</ele>
        <time>2023-05-07T09:56:47Z</time>
      </trkpt>
      <trkpt lat="45.465909" lon="1.802230">
        <ele>634</ele>
        <time>2023-05-07T09:56:48Z</time>
      </trkpt>
      <trkpt lat="45.465901" lon="1.802208">
        <ele>634</ele>
        <time>2023-05-07T09:56:49Z</time>
      </trkpt>
      <trkpt lat="45.465891" lon="1.802188">
        <ele>634</ele>
        <time>2023-05-07T09:56:50Z</time>
      </trkpt>
      <trkpt lat="45.465880" lon="1.802169">
        <ele>634</ele>
        <time>2023-05-07T09:56:51Z</time>
      </trkpt>
      <trkpt lat="45.465871" lon="1.802148">
        <ele>634</ele>
        <time>2023-05-07T09:56:52Z</time>
      </trkpt>
      <trkpt lat="45.465861" lon="1.802127">
        <ele>634</ele>
        <time>2023-05-07T09:56:53Z</time>
      </trkpt>
      <trkpt lat="45.465854" lon="1.802107">
        <ele>634</ele>
        <time>2023-05-07T09:56:54Z</time>
      </trkpt>
      <trkpt lat="45.465846" lon="1.802087">
        <ele>634</ele>
        <time>2023-05-07T09:56:55Z</time>
      </trkpt>
      <trkpt lat="45.465840" lon="1.802068">
        <ele>634</ele>
        <time>2023-05-07T09:56:56Z</time>
      </trkpt>
      <trkpt lat="45.465834" lon="1.802049">
        <ele>634</ele>
        <time>2023-05-07T09:56:57Z</time>
      </trkpt>
      <trkpt lat="45.465831" lon="1.802029">
        <ele>634</ele>
        <time>2023-05-07T09:56:58Z</time>
      </trkpt>
      <trkpt lat="45.465829" lon="1.802008">
        <ele>634</ele>
        <time>2023-05-07T09:56:59Z</time>
      </trkpt>
      <trkpt lat="45.465827" lon="1.801988">
        <ele>634</ele>
        <time>2023-05-07T09:57:00Z</time>
      </trkpt>
      <trkpt lat="45.465825" lon="1.801968">
        <ele>634</ele>
        <time>2023-05-07T09:57:01Z</time>
      </trkpt>
      <trkpt lat="45.465822" lon="1.801947">
        <ele>635</ele>
        <time>2023-05-07T09:57:02Z</time>
      </trkpt>
      <trkpt lat="45.465818" lon="1.801926">
        <ele>635</ele>
        <time>2023-05-07T09:57:03Z</time>
      </trkpt>
      <trkpt lat="45.465812" lon="1.801902">
        <ele>635</ele>
        <time>2023-05-07T09:57:04Z</time>
      </trkpt>
      <trkpt lat="45.465805" lon="1.801878">
        <ele>635</ele>
        <time>2023-05-07T09:57:05Z</time>
      </trkpt>
      <trkpt lat="45.465795" lon="1.801845">
        <ele>635</ele>
        <time>2023-05-07T09:57:06Z</time>
      </trkpt>
      <trkpt lat="45.465785" lon="1.801811">
        <ele>635</ele>
        <time>2023-05-07T09:57:07Z</time>
      </trkpt>
      <trkpt lat="45.465777" lon="1.801776">
        <ele>635</ele>
        <time>2023-05-07T09:57:08Z</time>
      </trkpt>
      <trkpt lat="45.465768" lon="1.801741">
        <ele>635</ele>
        <time>2023-05-07T09:57:09Z</time>
      </trkpt>
      <trkpt lat="45.465761" lon="1.801711">
        <ele>635</ele>
        <time>2023-05-07T09:57:10Z</time>
      </trkpt>
      <trkpt lat="45.465754" lon="1.801681">
        <ele>635</ele>
        <time>2023-05-07T09:57:11Z</time>
      </trkpt>
      <trkpt lat="45.465747" lon="1.801656">
        <ele>635</ele>
        <time>2023-05-07T09:57:12Z</time>
      </trkpt>
      <trkpt lat="45.465740" lon="1.801631">
        <ele>635</ele>
        <time>2023-05-07T09:57:13Z</time>
      </trkpt>
      <trkpt lat="45.465731" lon="1.801608">
        <ele>635</ele>
        <time>2023-05-07T09:57:14Z</time>
      </trkpt>
      <trkpt lat="45.465723" lon="1.801585">
        <ele>635</ele>
        <time>2023-05-07T09:57:15Z</time>
      </trkpt>
      <trkpt lat="45.465715" lon="1.801565">
        <ele>635</ele>
        <time>2023-05-07T09:57:16Z</time>
      </trkpt>
      <trkpt lat="45.465707" lon="1.801545">
        <ele>635</ele>
        <time>2023-05-07T09:57:17Z</time>
      </trkpt>
      <trkpt lat="45.465700" lon="1.801526">
        <ele>635</ele>
        <time>2023-05-07T09:57:18Z</time>
      </trkpt>
      <trkpt lat="45.465693" lon="1.801508">
        <ele>635</ele>
        <time>2023-05-07T09:57:19Z</time>
      </trkpt>
      <trkpt lat="45.465687" lon="1.801491">
        <ele>635</ele>
        <time>2023-05-07T09:57:20Z</time>
      </trkpt>
      <trkpt lat="45.465680" lon="1.801474">
        <ele>635</ele>
        <time>2023-05-07T09:57:21Z</time>
      </trkpt>
      <trkpt lat="45.465673" lon="1.801456">
        <ele>635</ele>
        <time>2023-05-07T09:57:22Z</time>
      </trkpt>
      <trkpt lat="45.465665" lon="1.801438">
        <ele>635</ele>
        <time>2023-05-07T09:57:23Z</time>
      </trkpt>
      <trkpt lat="45.465657" lon="1.801419">
        <ele>635</ele>
        <time>2023-05-07T09:57:24Z</time>
      </trkpt>
      <trkpt lat="45.465648" lon="1.801400">
        <ele>635</ele>
        <time>2023-05-07T09:57:25Z</time>
      </trkpt>
      <trkpt lat="45.465642" lon="1.801378">
        <ele>635</ele>
        <time>2023-05-07T09:57:26Z</time>
      </trkpt>
      <trkpt lat="45.465636" lon="1.801356">
        <ele>635</ele>
        <time>2023-05-07T09:57:27Z</time>
      </trkpt>
      <trkpt lat="45.465631" lon="1.801329">
        <ele>635</ele>
        <time>2023-05-07T09:57:28Z</time>
      </trkpt>
      <trkpt lat="45.465627" lon="1.801303">
        <ele>635</ele>
        <time>2023-05-07T09:57:29Z</time>
      </trkpt>
      <trkpt lat="45.465623" lon="1.801275">
        <ele>635</ele>
        <time>2023-05-07T09:57:30Z</time>
      </trkpt>
      <trkpt lat="45.465619" lon="1.801248">
        <ele>635</ele>
        <time>2023-05-07T09:57:31Z</time>
      </trkpt>
      <trkpt lat="45.465615" lon="1.801221">
        <ele>635</ele>
        <time>2023-05-07T09:57:32Z</time>
      </trkpt>
      <trkpt lat="45.465610" lon="1.801195">
        <ele>635</ele>
        <time>2023-05-07T09:57:33Z</time>
      </trkpt>
      <trkpt lat="45.465604" lon="1.801169">
        <ele>635</ele>
        <time>2023-05-07T09:57:34Z</time>
      </trkpt>
      <trkpt lat="45.465597" lon="1.801143">
        <ele>635</ele>
        <time>2023-05-07T09:57:35Z</time>
      </trkpt>
      <trkpt lat="45.465589" lon="1.801116">
        <ele>635</ele>
        <time>2023-05-07T09:57:36Z</time>
      </trkpt>
      <trkpt lat="45.465581" lon="1.801089">
        <ele>635</ele>
        <time>2023-05-07T09:57:37Z</time>
      </trkpt>
      <trkpt lat="45.465572" lon="1.801063">
        <ele>635</ele>
        <time>2023-05-07T09:57:38Z</time>
      </trkpt>
      <trkpt lat="45.465562" lon="1.801036">
        <ele>635</ele>
        <time>2023-05-07T09:57:39Z</time>
      </trkpt>
      <trkpt lat="45.465553" lon="1.801012">
        <ele>635</ele>
        <time>2023-05-07T09:57:40Z</time>
      </trkpt>
      <trkpt lat="45.465544" lon="1.800988">
        <ele>635</ele>
        <time>2023-05-07T09:57:41Z</time>
      </trkpt>
      <trkpt lat="45.465536" lon="1.800963">
        <ele>635</ele>
        <time>2023-05-07T09:57:42Z</time>
      </trkpt>
      <trkpt lat="45.465527" lon="1.800939">
        <ele>635</ele>
        <time>2023-05-07T09:57:43Z</time>
      </trkpt>
      <trkpt lat="45.465521" lon="1.800914">
        <ele>635</ele>
        <time>2023-05-07T09:57:44Z</time>
      </trkpt>
      <trkpt lat="45.465515" lon="1.800890">
        <ele>635</ele>
        <time>2023-05-07T09:57:45Z</time>
      </trkpt>
      <trkpt lat="45.465511" lon="1.800866">
        <ele>635</ele>
        <time>2023-05-07T09:57:46Z</time>
      </trkpt>
      <trkpt lat="45.465506" lon="1.800841">
        <ele>635</ele>
        <time>2023-05-07T09:57:47Z</time>
      </trkpt>
      <trkpt lat="45.465500" lon="1.800821">
        <ele>635</ele>
        <time>2023-05-07T09:57:48Z</time>
      </trkpt>
      <trkpt lat="45.465493" lon="1.800801">
        <ele>635</ele>
        <time>2023-05-07T09:57:49Z</time>
      </trkpt>
      <trkpt lat="45.465487" lon="1.800782">
        <ele>635</ele>
        <time>2023-05-07T09:57:50Z</time>
      </trkpt>
      <trkpt lat="45.465480" lon="1.800763">
        <ele>635</ele>
        <time>2023-05-07T09:57:51Z</time>
      </trkpt>
      <trkpt lat="45.465473" lon="1.800739">
        <ele>636</ele>
        <time>2023-05-07T09:57:52Z</time>
      </trkpt>
      <trkpt lat="45.465466" lon="1.800715">
        <ele>636</ele>
        <time>2023-05-07T09:57:53Z</time>
      </trkpt>
      <trkpt lat="45.465458" lon="1.800687">
        <ele>636</ele>
        <time>2023-05-07T09:57:54Z</time>
      </trkpt>
      <trkpt lat="45.465450" lon="1.800659">
        <ele>636</ele>
        <time>2023-05-07T09:57:55Z</time>
      </trkpt>
      <trkpt lat="45.465443" lon="1.800631">
        <ele>636</ele>
        <time>2023-05-07T09:57:56Z</time>
      </trkpt>
      <trkpt lat="45.465436" lon="1.800604">
        <ele>636</ele>
        <time>2023-05-07T09:57:57Z</time>
      </trkpt>
      <trkpt lat="45.465425" lon="1.800581">
        <ele>636</ele>
        <time>2023-05-07T09:57:58Z</time>
      </trkpt>
      <trkpt lat="45.465415" lon="1.800559">
        <ele>636</ele>
        <time>2023-05-07T09:57:59Z</time>
      </trkpt>
      <trkpt lat="45.465403" lon="1.800543">
        <ele>636</ele>
        <time>2023-05-07T09:58:00Z</time>
      </trkpt>
      <trkpt lat="45.465392" lon="1.800528">
        <ele>636</ele>
        <time>2023-05-07T09:58:01Z</time>
      </trkpt>
      <trkpt lat="45.465380" lon="1.800515">
        <ele>636</ele>
        <time>2023-05-07T09:58:02Z</time>
      </trkpt>
      <trkpt lat="45.465368" lon="1.800501">
        <ele>636</ele>
        <time>2023-05-07T09:58:03Z</time>
      </trkpt>
      <trkpt lat="45.465353" lon="1.800485">
        <ele>636</ele>
        <time>2023-05-07T09:58:04Z</time>
      </trkpt>
      <trkpt lat="45.465338" lon="1.800468">
        <ele>636</ele>
        <time>2023-05-07T09:58:05Z</time>
      </trkpt>
      <trkpt lat="45.465322" lon="1.800446">
        <ele>636</ele>
        <time>2023-05-07T09:58:06Z</time>
      </trkpt>
      <trkpt lat="45.465305" lon="1.800423">
        <ele>636</ele>
        <time>2023-05-07T09:58:07Z</time>
      </trkpt>
      <trkpt lat="45.465291" lon="1.800394">
        <ele>635</ele>
        <time>2023-05-07T09:58:08Z</time>
      </trkpt>
      <trkpt lat="45.465277" lon="1.800366">
        <ele>635</ele>
        <time>2023-05-07T09:58:09Z</time>
      </trkpt>
      <trkpt lat="45.465269" lon="1.800335">
        <ele>635</ele>
        <time>2023-05-07T09:58:10Z</time>
      </trkpt>
      <trkpt lat="45.465260" lon="1.800304">
        <ele>635</ele>
        <time>2023-05-07T09:58:11Z</time>
      </trkpt>
      <trkpt lat="45.465256" lon="1.800273">
        <ele>635</ele>
        <time>2023-05-07T09:58:12Z</time>
      </trkpt>
      <trkpt lat="45.465251" lon="1.800242">
        <ele>635</ele>
        <time>2023-05-07T09:58:13Z</time>
      </trkpt>
      <trkpt lat="45.465247" lon="1.800210">
        <ele>635</ele>
        <time>2023-05-07T09:58:14Z</time>
      </trkpt>
      <trkpt lat="45.465244" lon="1.800177">
        <ele>635</ele>
        <time>2023-05-07T09:58:15Z</time>
      </trkpt>
      <trkpt lat="45.465238" lon="1.800144">
        <ele>635</ele>
        <time>2023-05-07T09:58:16Z</time>
      </trkpt>
      <trkpt lat="45.465233" lon="1.800111">
        <ele>635</ele>
        <time>2023-05-07T09:58:17Z</time>
      </trkpt>
      <trkpt lat="45.465227" lon="1.800081">
        <ele>635</ele>
        <time>2023-05-07T09:58:18Z</time>
      </trkpt>
      <trkpt lat="45.465220" lon="1.800050">
        <ele>635</ele>
        <time>2023-05-07T09:58:19Z</time>
      </trkpt>
      <trkpt lat="45.465213" lon="1.800023">
        <ele>635</ele>
        <time>2023-05-07T09:58:20Z</time>
      </trkpt>
      <trkpt lat="45.465206" lon="1.799995">
        <ele>635</ele>
        <time>2023-05-07T09:58:21Z</time>
      </trkpt>
      <trkpt lat="45.465200" lon="1.799968">
        <ele>635</ele>
        <time>2023-05-07T09:58:22Z</time>
      </trkpt>
      <trkpt lat="45.465194" lon="1.799941">
        <ele>634</ele>
        <time>2023-05-07T09:58:23Z</time>
      </trkpt>
      <trkpt lat="45.465190" lon="1.799916">
        <ele>634</ele>
        <time>2023-05-07T09:58:24Z</time>
      </trkpt>
      <trkpt lat="45.465187" lon="1.799891">
        <ele>634</ele>
        <time>2023-05-07T09:58:25Z</time>
      </trkpt>
      <trkpt lat="45.465184" lon="1.799865">
        <ele>634</ele>
        <time>2023-05-07T09:58:26Z</time>
      </trkpt>
      <trkpt lat="45.465181" lon="1.799839">
        <ele>634</ele>
        <time>2023-05-07T09:58:27Z</time>
      </trkpt>
      <trkpt lat="45.465179" lon="1.799811">
        <ele>634</ele>
        <time>2023-05-07T09:58:28Z</time>
      </trkpt>
      <trkpt lat="45.465176" lon="1.799784">
        <ele>634</ele>
        <time>2023-05-07T09:58:29Z</time>
      </trkpt>
      <trkpt lat="45.465174" lon="1.799755">
        <ele>634</ele>
        <time>2023-05-07T09:58:30Z</time>
      </trkpt>
      <trkpt lat="45.465172" lon="1.799726">
        <ele>634</ele>
        <time>2023-05-07T09:58:31Z</time>
      </trkpt>
      <trkpt lat="45.465173" lon="1.799698">
        <ele>634</ele>
        <time>2023-05-07T09:58:32Z</time>
      </trkpt>
      <trkpt lat="45.465173" lon="1.799671">
        <ele>634</ele>
        <time>2023-05-07T09:58:33Z</time>
      </trkpt>
      <trkpt lat="45.465174" lon="1.799644">
        <ele>634</ele>
        <time>2023-05-07T09:58:34Z</time>
      </trkpt>
      <trkpt lat="45.465174" lon="1.799617">
        <ele>634</ele>
        <time>2023-05-07T09:58:35Z</time>
      </trkpt>
      <trkpt lat="45.465174" lon="1.799591">
        <ele>634</ele>
        <time>2023-05-07T09:58:36Z</time>
      </trkpt>
      <trkpt lat="45.465173" lon="1.799565">
        <ele>634</ele>
        <time>2023-05-07T09:58:37Z</time>
      </trkpt>
      <trkpt lat="45.465168" lon="1.799541">
        <ele>634</ele>
        <time>2023-05-07T09:58:38Z</time>
      </trkpt>
      <trkpt lat="45.465163" lon="1.799516">
        <ele>634</ele>
        <time>2023-05-07T09:58:39Z</time>
      </trkpt>
      <trkpt lat="45.465156" lon="1.799491">
        <ele>634</ele>
        <time>2023-05-07T09:58:40Z</time>
      </trkpt>
      <trkpt lat="45.465149" lon="1.799466">
        <ele>634</ele>
        <time>2023-05-07T09:58:41Z</time>
      </trkpt>
      <trkpt lat="45.465141" lon="1.799440">
        <ele>635</ele>
        <time>2023-05-07T09:58:42Z</time>
      </trkpt>
      <trkpt lat="45.465133" lon="1.799414">
        <ele>635</ele>
        <time>2023-05-07T09:58:43Z</time>
      </trkpt>
      <trkpt lat="45.465124" lon="1.799390">
        <ele>635</ele>
        <time>2023-05-07T09:58:44Z</time>
      </trkpt>
      <trkpt lat="45.465115" lon="1.799366">
        <ele>635</ele>
        <time>2023-05-07T09:58:45Z</time>
      </trkpt>
      <trkpt lat="45.465105" lon="1.799346">
        <ele>635</ele>
        <time>2023-05-07T09:58:46Z</time>
      </trkpt>
      <trkpt lat="45.465095" lon="1.799325">
        <ele>635</ele>
        <time>2023-05-07T09:58:47Z</time>
      </trkpt>
      <trkpt lat="45.465084" lon="1.799307">
        <ele>635</ele>
        <time>2023-05-07T09:58:48Z</time>
      </trkpt>
      <trkpt lat="45.465073" lon="1.799289">
        <ele>635</ele>
        <time>2023-05-07T09:58:49Z</time>
      </trkpt>
      <trkpt lat="45.465061" lon="1.799272">
        <ele>635</ele>
        <time>2023-05-07T09:58:50Z</time>
      </trkpt>
      <trkpt lat="45.465049" lon="1.799255">
        <ele>635</ele>
        <time>2023-05-07T09:58:51Z</time>
      </trkpt>
      <trkpt lat="45.465037" lon="1.799237">
        <ele>635</ele>
        <time>2023-05-07T09:58:52Z</time>
      </trkpt>
      <trkpt lat="45.465024" lon="1.799220">
        <ele>635</ele>
        <time>2023-05-07T09:58:53Z</time>
      </trkpt>
      <trkpt lat="45.465012" lon="1.799203">
        <ele>635</ele>
        <time>2023-05-07T09:58:54Z</time>
      </trkpt>
      <trkpt lat="45.464999" lon="1.799185">
        <ele>635</ele>
        <time>2023-05-07T09:58:55Z</time>
      </trkpt>
      <trkpt lat="45.464985" lon="1.799168">
        <ele>635</ele>
        <time>2023-05-07T09:58:56Z</time>
      </trkpt>
      <trkpt lat="45.464972" lon="1.799150">
        <ele>636</ele>
        <time>2023-05-07T09:58:57Z</time>
      </trkpt>
      <trkpt lat="45.464959" lon="1.799133">
        <ele>636</ele>
        <time>2023-05-07T09:58:58Z</time>
      </trkpt>
      <trkpt lat="45.464946" lon="1.799115">
        <ele>636</ele>
        <time>2023-05-07T09:58:59Z</time>
      </trkpt>
      <trkpt lat="45.464933" lon="1.799096">
        <ele>636</ele>
        <time>2023-05-07T09:59:00Z</time>
      </trkpt>
      <trkpt lat="45.464921" lon="1.799077">
        <ele>636</ele>
        <time>2023-05-07T09:59:01Z</time>
      </trkpt>
      <trkpt lat="45.464909" lon="1.799058">
        <ele>636</ele>
        <time>2023-05-07T09:59:02Z</time>
      </trkpt>
      <trkpt lat="45.464897" lon="1.799038">
        <ele>636</ele>
        <time>2023-05-07T09:59:03Z</time>
      </trkpt>
      <trkpt lat="45.464886" lon="1.799019">
        <ele>636</ele>
        <time>2023-05-07T09:59:04Z</time>
      </trkpt>
      <trkpt lat="45.464876" lon="1.799001">
        <ele>636</ele>
        <time>2023-05-07T09:59:05Z</time>
      </trkpt>
      <trkpt lat="45.464865" lon="1.798983">
        <ele>636</ele>
        <time>2023-05-07T09:59:06Z</time>
      </trkpt>
      <trkpt lat="45.464854" lon="1.798966">
        <ele>637</ele>
        <time>2023-05-07T09:59:07Z</time>
      </trkpt>
      <trkpt lat="45.464843" lon="1.798949">
        <ele>637</ele>
        <time>2023-05-07T09:59:08Z</time>
      </trkpt>
      <trkpt lat="45.464832" lon="1.798932">
        <ele>637</ele>
        <time>2023-05-07T09:59:09Z</time>
      </trkpt>
      <trkpt lat="45.464821" lon="1.798916">
        <ele>637</ele>
        <time>2023-05-07T09:59:10Z</time>
      </trkpt>
      <trkpt lat="45.464810" lon="1.798900">
        <ele>637</ele>
        <time>2023-05-07T09:59:11Z</time>
      </trkpt>
      <trkpt lat="45.464799" lon="1.798884">
        <ele>637</ele>
        <time>2023-05-07T09:59:12Z</time>
      </trkpt>
      <trkpt lat="45.464789" lon="1.798869">
        <ele>637</ele>
        <time>2023-05-07T09:59:13Z</time>
      </trkpt>
      <trkpt lat="45.464777" lon="1.798854">
        <ele>637</ele>
        <time>2023-05-07T09:59:14Z</time>
      </trkpt>
      <trkpt lat="45.464766" lon="1.798839">
        <ele>637</ele>
        <time>2023-05-07T09:59:15Z</time>
      </trkpt>
      <trkpt lat="45.464753" lon="1.798825">
        <ele>637</ele>
        <time>2023-05-07T09:59:16Z</time>
      </trkpt>
      <trkpt lat="45.464741" lon="1.798811">
        <ele>638</ele>
        <time>2023-05-07T09:59:17Z</time>
      </trkpt>
      <trkpt lat="45.464728" lon="1.798797">
        <ele>638</ele>
        <time>2023-05-07T09:59:18Z</time>
      </trkpt>
      <trkpt lat="45.464715" lon="1.798783">
        <ele>638</ele>
        <time>2023-05-07T09:59:19Z</time>
      </trkpt>
      <trkpt lat="45.464703" lon="1.798769">
        <ele>638</ele>
        <time>2023-05-07T09:59:20Z</time>
      </trkpt>
      <trkpt lat="45.464691" lon="1.798756">
        <ele>638</ele>
        <time>2023-05-07T09:59:21Z</time>
      </trkpt>
      <trkpt lat="45.464677" lon="1.798742">
        <ele>638</ele>
        <time>2023-05-07T09:59:22Z</time>
      </trkpt>
      <trkpt lat="45.464664" lon="1.798728">
        <ele>638</ele>
        <time>2023-05-07T09:59:23Z</time>
      </trkpt>
      <trkpt lat="45.464650" lon="1.798713">
        <ele>638</ele>
        <time>2023-05-07T09:59:24Z</time>
      </trkpt>
      <trkpt lat="45.464636" lon="1.798697">
        <ele>638</ele>
        <time>2023-05-07T09:59:25Z</time>
      </trkpt>
      <trkpt lat="45.464622" lon="1.798680">
        <ele>638</ele>
        <time>2023-05-07T09:59:26Z</time>
      </trkpt>
      <trkpt lat="45.464608" lon="1.798663">
        <ele>639</ele>
        <time>2023-05-07T09:59:27Z</time>
      </trkpt>
      <trkpt lat="45.464593" lon="1.798646">
        <ele>639</ele>
        <time>2023-05-07T09:59:28Z</time>
      </trkpt>
      <trkpt lat="45.464578" lon="1.798629">
        <ele>639</ele>
        <time>2023-05-07T09:59:29Z</time>
      </trkpt>
      <trkpt lat="45.464562" lon="1.798612">
        <ele>639</ele>
        <time>2023-05-07T09:59:30Z</time>
      </trkpt>
      <trkpt lat="45.464546" lon="1.798595">
        <ele>639</ele>
        <time>2023-05-07T09:59:31Z</time>
      </trkpt>
      <trkpt lat="45.464530" lon="1.798578">
        <ele>639</ele>
        <time>2023-05-07T09:59:32Z</time>
      </trkpt>
      <trkpt lat="45.464514" lon="1.798561">
        <ele>639</ele>
        <time>2023-05-07T09:59:33Z</time>
      </trkpt>
      <trkpt lat="45.464499" lon="1.798542">
        <ele>639</ele>
        <time>2023-05-07T09:59:34Z</time>
      </trkpt>
      <trkpt lat="45.464484" lon="1.798523">
        <ele>639</ele>
        <time>2023-05-07T09:59:35Z</time>
      </trkpt>
      <trkpt lat="45.464469" lon="1.798504">
        <ele>639</ele>
        <time>2023-05-07T09:59:36Z</time>
      </trkpt>
      <trkpt lat="45.464453" lon="1.798485">
        <ele>639</ele>
        <time>2023-05-07T09:59:37Z</time>
      </trkpt>
      <trkpt lat="45.464435" lon="1.798466">
        <ele>639</ele>
        <time>2023-05-07T09:59:38Z</time>
      </trkpt>
      <trkpt lat="45.464417" lon="1.798446">
        <ele>639</ele>
        <time>2023-05-07T09:59:39Z</time>
      </trkpt>
      <trkpt lat="45.464396" lon="1.798428">
        <ele>639</ele>
        <time>2023-05-07T09:59:40Z</time>
      </trkpt>
      <trkpt lat="45.464375" lon="1.798410">
        <ele>639</ele>
        <time>2023-05-07T09:59:41Z</time>
      </trkpt>
      <trkpt lat="45.464352" lon="1.798393">
        <ele>639</ele>
        <time>2023-05-07T09:59:42Z</time>
      </trkpt>
      <trkpt lat="45.464329" lon="1.798377">
        <ele>639</ele>
        <time>2023-05-07T09:59:43Z</time>
      </trkpt>
      <trkpt lat="45.464304" lon="1.798359">
        <ele>639</ele>
        <time>2023-05-07T09:59:44Z</time>
      </trkpt>
      <trkpt lat="45.464279" lon="1.798341">
        <ele>639</ele>
        <time>2023-05-07T09:59:45Z</time>
      </trkpt>
      <trkpt lat="45.464250" lon="1.798320">
        <ele>639</ele>
        <time>2023-05-07T09:59:46Z</time>
      </trkpt>
      <trkpt lat="45.464222" lon="1.798298">
        <ele>639</ele>
        <time>2023-05-07T09:59:47Z</time>
      </trkpt>
      <trkpt lat="45.464191" lon="1.798270">
        <ele>639</ele>
        <time>2023-05-07T09:59:48Z</time>
      </trkpt>
      <trkpt lat="45.464160" lon="1.798242">
        <ele>639</ele>
        <time>2023-05-07T09:59:49Z</time>
      </trkpt>
      <trkpt lat="45.464131" lon="1.798211">
        <ele>639</ele>
        <time>2023-05-07T09:59:50Z</time>
      </trkpt>
      <trkpt lat="45.464102" lon="1.798180">
        <ele>639</ele>
        <time>2023-05-07T09:59:51Z</time>
      </trkpt>
      <trkpt lat="45.464076" lon="1.798147">
        <ele>639</ele>
        <time>2023-05-07T09:59:52Z</time>
      </trkpt>
      <trkpt lat="45.464050" lon="1.798115">
        <ele>638</ele>
        <time>2023-05-07T09:59:53Z</time>
      </trkpt>
      <trkpt lat="45.464026" lon="1.798081">
        <ele>638</ele>
        <time>2023-05-07T09:59:54Z</time>
      </trkpt>
      <trkpt lat="45.464003" lon="1.798047">
        <ele>638</ele>
        <time>2023-05-07T09:59:55Z</time>
      </trkpt>
      <trkpt lat="45.463981" lon="1.798010">
        <ele>638</ele>
        <time>2023-05-07T09:59:56Z</time>
      </trkpt>
      <trkpt lat="45.463958" lon="1.797973">
        <ele>638</ele>
        <time>2023-05-07T09:59:57Z</time>
      </trkpt>
      <trkpt lat="45.463935" lon="1.797933">
        <ele>638</ele>
        <time>2023-05-07T09:59:58Z</time>
      </trkpt>
      <trkpt lat="45.463912" lon="1.797893">
        <ele>638</ele>
        <time>2023-05-07T09:59:59Z</time>
      </trkpt>
      <trkpt lat="45.463888" lon="1.797846">
        <ele>638</ele>
        <time>2023-05-07T10:00:00Z</time>
      </trkpt>
      <trkpt lat="45.463864" lon="1.797800">
        <ele>638</ele>
        <time>2023-05-07T10:00:01Z</time>
      </trkpt>
      <trkpt lat="45.463838" lon="1.797747">
        <ele>638</ele>
        <time>2023-05-07T10:00:02Z</time>
      </trkpt>
      <trkpt lat="45.463812" lon="1.797695">
        <ele>637</ele>
        <time>2023-05-07T10:00:03Z</time>
      </trkpt>
      <trkpt lat="45.463783" lon="1.797641">
        <ele>637</ele>
        <time>2023-05-07T10:00:04Z</time>
      </trkpt>
      <trkpt lat="45.463755" lon="1.797588">
        <ele>637</ele>
        <time>2023-05-07T10:00:05Z</time>
      </trkpt>
      <trkpt lat="45.463723" lon="1.797533">
        <ele>637</ele>
        <time>2023-05-07T10:00:06Z</time>
      </trkpt>
      <trkpt lat="45.463692" lon="1.797478">
        <ele>637</ele>
        <time>2023-05-07T10:00:07Z</time>
      </trkpt>
      <trkpt lat="45.463660" lon="1.797420">
        <ele>636</ele>
        <time>2023-05-07T10:00:08Z</time>
      </trkpt>
      <trkpt lat="45.463628" lon="1.797363">
        <ele>636</ele>
        <time>2023-05-07T10:00:09Z</time>
      </trkpt>
      <trkpt lat="45.463597" lon="1.797305">
        <ele>636</ele>
        <time>2023-05-07T10:00:10Z</time>
      </trkpt>
      <trkpt lat="45.463567" lon="1.797247">
        <ele>636</ele>
        <time>2023-05-07T10:00:11Z</time>
      </trkpt>
      <trkpt lat="45.463538" lon="1.797188">
        <ele>636</ele>
        <time>2023-05-07T10:00:12Z</time>
      </trkpt>
      <trkpt lat="45.463510" lon="1.797129">
        <ele>635</ele>
        <time>2023-05-07T10:00:13Z</time>
      </trkpt>
      <trkpt lat="45.463478" lon="1.797065">
        <ele>635</ele>
        <time>2023-05-07T10:00:14Z</time>
      </trkpt>
      <trkpt lat="45.463446" lon="1.797001">
        <ele>635</ele>
        <time>2023-05-07T10:00:15Z</time>
      </trkpt>
      <trkpt lat="45.463411" lon="1.796938">
        <ele>635</ele>
        <time>2023-05-07T10:00:16Z</time>
      </trkpt>
      <trkpt lat="45.463377" lon="1.796875">
        <ele>635</ele>
        <time>2023-05-07T10:00:17Z</time>
      </trkpt>
      <trkpt lat="45.463342" lon="1.796815">
        <ele>634</ele>
        <time>2023-05-07T10:00:18Z</time>
      </trkpt>
      <trkpt lat="45.463307" lon="1.796755">
        <ele>634</ele>
        <time>2023-05-07T10:00:19Z</time>
      </trkpt>
      <trkpt lat="45.463275" lon="1.796699">
        <ele>634</ele>
        <time>2023-05-07T10:00:20Z</time>
      </trkpt>
      <trkpt lat="45.463242" lon="1.796644">
        <ele>634</ele>
        <time>2023-05-07T10:00:21Z</time>
      </trkpt>
      <trkpt lat="45.463215" lon="1.796595">
        <ele>634</ele>
        <time>2023-05-07T10:00:22Z</time>
      </trkpt>
      <trkpt lat="45.463188" lon="1.796546">
        <ele>633</ele>
        <time>2023-05-07T10:00:23Z</time>
      </trkpt>
      <trkpt lat="45.463163" lon="1.796502">
        <ele>633</ele>
        <time>2023-05-07T10:00:24Z</time>
      </trkpt>
      <trkpt lat="45.463138" lon="1.796459">
        <ele>633</ele>
        <time>2023-05-07T10:00:25Z</time>
      </trkpt>
      <trkpt lat="45.463113" lon="1.796420">
        <ele>633</ele>
        <time>2023-05-07T10:00:26Z</time>
      </trkpt>
      <trkpt lat="45.463089" lon="1.796381">
        <ele>633</ele>
        <time>2023-05-07T10:00:27Z</time>
      </trkpt>
      <trkpt lat="45.463064" lon="1.796344">
        <ele>633</ele>
        <time>2023-05-07T10:00:28Z</time>
      </trkpt>
      <trkpt lat="45.463039" lon="1.796307">
        <ele>633</ele>
        <time>2023-05-07T10:00:29Z</time>
      </trkpt>
      <trkpt lat="45.463013" lon="1.796272">
        <ele>633</ele>
        <time>2023-05-07T10:00:30Z</time>
      </trkpt>
      <trkpt lat="45.462987" lon="1.796237">
        <ele>633</ele>
        <time>2023-05-07T10:00:31Z</time>
      </trkpt>
      <trkpt lat="45.462962" lon="1.796205">
        <ele>633</ele>
        <time>2023-05-07T10:00:32Z</time>
      </trkpt>
      <trkpt lat="45.462938" lon="1.796172">
        <ele>632</ele>
        <time>2023-05-07T10:00:33Z</time>
      </trkpt>
      <trkpt lat="45.462914" lon="1.796139">
        <ele>632</ele>
        <time>2023-05-07T10:00:34Z</time>
      </trkpt>
      <trkpt lat="45.462890" lon="1.796106">
        <ele>632</ele>
        <time>2023-05-07T10:00:35Z</time>
      </trkpt>
      <trkpt lat="45.462867" lon="1.796073">
        <ele>632</ele>
        <time>2023-05-07T10:00:36Z</time>
      </trkpt>
      <trkpt lat="45.462844" lon="1.796041">
        <ele>632</ele>
        <time>2023-05-07T10:00:37Z</time>
      </trkpt>
      <trkpt lat="45.462823" lon="1.796010">
        <ele>632</ele>
        <time>2023-05-07T10:00:38Z</time>
      </trkpt>
      <trkpt lat="45.462802" lon="1.795979">
        <ele>632</ele>
        <time>2023-05-07T10:00:39Z</time>
      </trkpt>
      <trkpt lat="45.462781" lon="1.795951">
        <ele>632</ele>
        <time>2023-05-07T10:00:40Z</time>
      </trkpt>
      <trkpt lat="45.462761" lon="1.795922">
        <ele>632</ele>
        <time>2023-05-07T10:00:41Z</time>
      </trkpt>
      <trkpt lat="45.462741" lon="1.795893">
        <ele>632</ele>
        <time>2023-05-07T10:00:42Z</time>
      </trkpt>
      <trkpt lat="45.462721" lon="1.795864">
        <ele>632</ele>
        <time>2023-05-07T10:00:43Z</time>
      </trkpt>
      <trkpt lat="45.462701" lon="1.795835">
        <ele>632</ele>
        <time>2023-05-07T10:00:44Z</time>
      </trkpt>
      <trkpt lat="45.462682" lon="1.795806">
        <ele>632</ele>
        <time>2023-05-07T10:00:45Z</time>
      </trkpt>
      <trkpt lat="45.462663" lon="1.795777">
        <ele>632</ele>
        <time>2023-05-07T10:00:46Z</time>
      </trkpt>
      <trkpt lat="45.462644" lon="1.795749">
        <ele>632</ele>
        <time>2023-05-07T10:00:47Z</time>
      </trkpt>
      <trkpt lat="45.462626" lon="1.795721">
        <ele>632</ele>
        <time>2023-05-07T10:00:48Z</time>
      </trkpt>
      <trkpt lat="45.462608" lon="1.795693">
        <ele>632</ele>
        <time>2023-05-07T10:00:49Z</time>
      </trkpt>
      <trkpt lat="45.462590" lon="1.795666">
        <ele>632</ele>
        <time>2023-05-07T10:00:50Z</time>
      </trkpt>
      <trkpt lat="45.462571" lon="1.795638">
        <ele>632</ele>
        <time>2023-05-07T10:00:51Z</time>
      </trkpt>
      <trkpt lat="45.462552" lon="1.795611">
        <ele>632</ele>
        <time>2023-05-07T10:00:52Z</time>
      </trkpt>
      <trkpt lat="45.462532" lon="1.795585">
        <ele>632</ele>
        <time>2023-05-07T10:00:53Z</time>
      </trkpt>
      <trkpt lat="45.462511" lon="1.795560">
        <ele>632</ele>
        <time>2023-05-07T10:00:54Z</time>
      </trkpt>
      <trkpt lat="45.462490" lon="1.795536">
        <ele>632</ele>
        <time>2023-05-07T10:00:55Z</time>
      </trkpt>
      <trkpt lat="45.462469" lon="1.795514">
        <ele>632</ele>
        <time>2023-05-07T10:00:56Z</time>
      </trkpt>
      <trkpt lat="45.462447" lon="1.795492">
        <ele>632</ele>
        <time>2023-05-07T10:00:57Z</time>
      </trkpt>
      <trkpt lat="45.462426" lon="1.795473">
        <ele>632</ele>
        <time>2023-05-07T10:00:58Z</time>
      </trkpt>
      <trkpt lat="45.462405" lon="1.795454">
        <ele>632</ele>
        <time>2023-05-07T10:00:59Z</time>
      </trkpt>
      <trkpt lat="45.462386" lon="1.795437">
        <ele>632</ele>
        <time>2023-05-07T10:01:00Z</time>
      </trkpt>
      <trkpt lat="45.462366" lon="1.795420">
        <ele>632</ele>
        <time>2023-05-07T10:01:01Z</time>
      </trkpt>
      <trkpt lat="45.462347" lon="1.795404">
        <ele>632</ele>
        <time>2023-05-07T10:01:02Z</time>
      </trkpt>
      <trkpt lat="45.462328" lon="1.795389">
        <ele>632</ele>
        <time>2023-05-07T10:01:03Z</time>
      </trkpt>
      <trkpt lat="45.462308" lon="1.795373">
        <ele>632</ele>
        <time>2023-05-07T10:01:04Z</time>
      </trkpt>
      <trkpt lat="45.462288" lon="1.795359">
        <ele>632</ele>
        <time>2023-05-07T10:01:05Z</time>
      </trkpt>
      <trkpt lat="45.462266" lon="1.795345">
        <ele>632</ele>
        <time>2023-05-07T10:01:06Z</time>
      </trkpt>
      <trkpt lat="45.462244" lon="1.795331">
        <ele>633</ele>
        <time>2023-05-07T10:01:07Z</time>
      </trkpt>
      <trkpt lat="45.462222" lon="1.795320">
        <ele>633</ele>
        <time>2023-05-07T10:01:08Z</time>
      </trkpt>
      <trkpt lat="45.462200" lon="1.795309">
        <ele>633</ele>
        <time>2023-05-07T10:01:09Z</time>
      </trkpt>
      <trkpt lat="45.462181" lon="1.795300">
        <ele>633</ele>
        <time>2023-05-07T10:01:10Z</time>
      </trkpt>
      <trkpt lat="45.462162" lon="1.795290">
        <ele>633</ele>
        <time>2023-05-07T10:01:11Z</time>
      </trkpt>
      <trkpt lat="45.462147" lon="1.795277">
        <ele>633</ele>
        <time>2023-05-07T10:01:12Z</time>
      </trkpt>
      <trkpt lat="45.462133" lon="1.795263">
        <ele>633</ele>
        <time>2023-05-07T10:01:13Z</time>
      </trkpt>
      <trkpt lat="45.462122" lon="1.795246">
        <ele>633</ele>
        <time>2023-05-07T10:01:14Z</time>
      </trkpt>
      <trkpt lat="45.462111" lon="1.795228">
        <ele>633</ele>
        <time>2023-05-07T10:01:15Z</time>
      </trkpt>
      <trkpt lat="45.462109" lon="1.795210">
        <ele>633</ele>
        <time>2023-05-07T10:01:16Z</time>
      </trkpt>
      <trkpt lat="45.462106" lon="1.795192">
        <ele>634</ele>
        <time>2023-05-07T10:01:17Z</time>
      </trkpt>
      <trkpt lat="45.462111" lon="1.795171">
        <ele>634</ele>
        <time>2023-05-07T10:01:18Z</time>
      </trkpt>
      <trkpt lat="45.462116" lon="1.795149">
        <ele>634</ele>
        <time>2023-05-07T10:01:19Z</time>
      </trkpt>
      <trkpt lat="45.462126" lon="1.795125">
        <ele>634</ele>
        <time>2023-05-07T10:01:20Z</time>
      </trkpt>
      <trkpt lat="45.462136" lon="1.795100">
        <ele>634</ele>
        <time>2023-05-07T10:01:21Z</time>
      </trkpt>
      <trkpt lat="45.462148" lon="1.795073">
        <ele>635</ele>
        <time>2023-05-07T10:01:22Z</time>
      </trkpt>
      <trkpt lat="45.462159" lon="1.795046">
        <ele>635</ele>
        <time>2023-05-07T10:01:23Z</time>
      </trkpt>
      <trkpt lat="45.462171" lon="1.795021">
        <ele>635</ele>
        <time>2023-05-07T10:01:24Z</time>
      </trkpt>
      <trkpt lat="45.462183" lon="1.794996">
        <ele>635</ele>
        <time>2023-05-07T10:01:25Z</time>
      </trkpt>
      <trkpt lat="45.462195" lon="1.794973">
        <ele>635</ele>
        <time>2023-05-07T10:01:26Z</time>
      </trkpt>
      <trkpt lat="45.462208" lon="1.794951">
        <ele>635</ele>
        <time>2023-05-07T10:01:27Z</time>
      </trkpt>
      <trkpt lat="45.462220" lon="1.794929">
        <ele>635</ele>
        <time>2023-05-07T10:01:28Z</time>
      </trkpt>
      <trkpt lat="45.462232" lon="1.794907">
        <ele>635</ele>
        <time>2023-05-07T10:01:29Z</time>
      </trkpt>
      <trkpt lat="45.462245" lon="1.794884">
        <ele>635</ele>
        <time>2023-05-07T10:01:30Z</time>
      </trkpt>
      <trkpt lat="45.462258" lon="1.794862">
        <ele>635</ele>
        <time>2023-05-07T10:01:31Z</time>
      </trkpt>
      <trkpt lat="45.462273" lon="1.794838">
        <ele>636</ele>
        <time>2023-05-07T10:01:32Z</time>
      </trkpt>
      <trkpt lat="45.462287" lon="1.794814">
        <ele>636</ele>
        <time>2023-05-07T10:01:33Z</time>
      </trkpt>
      <trkpt lat="45.462304" lon="1.794787">
        <ele>636</ele>
        <time>2023-05-07T10:01:34Z</time>
      </trkpt>
      <trkpt lat="45.462320" lon="1.794760">
        <ele>636</ele>
        <time>2023-05-07T10:01:35Z</time>
      </trkpt>
      <trkpt lat="45.462338" lon="1.794734">
        <ele>636</ele>
        <time>2023-05-07T10:01:36Z</time>
      </trkpt>
      <trkpt lat="45.462356" lon="1.794708">
        <ele>637</ele>
        <time>2023-05-07T10:01:37Z</time>
      </trkpt>
      <trkpt lat="45.462375" lon="1.794684">
        <ele>637</ele>
        <time>2023-05-07T10:01:38Z</time>
      </trkpt>
      <trkpt lat="45.462394" lon="1.794660">
        <ele>637</ele>
        <time>2023-05-07T10:01:39Z</time>
      </trkpt>
      <trkpt lat="45.462412" lon="1.794635">
        <ele>637</ele>
        <time>2023-05-07T10:01:40Z</time>
      </trkpt>
      <trkpt lat="45.462431" lon="1.794610">
        <ele>637</ele>
        <time>2023-05-07T10:01:41Z</time>
      </trkpt>
      <trkpt lat="45.462449" lon="1.794587">
        <ele>637</ele>
        <time>2023-05-07T10:01:42Z</time>
      </trkpt>
      <trkpt lat="45.462466" lon="1.794563">
        <ele>637</ele>
        <time>2023-05-07T10:01:43Z</time>
      </trkpt>
      <trkpt lat="45.462483" lon="1.794543">
        <ele>637</ele>
        <time>2023-05-07T10:01:44Z</time>
      </trkpt>
      <trkpt lat="45.462501" lon="1.794522">
        <ele>637</ele>
        <time>2023-05-07T10:01:45Z</time>
      </trkpt>
      <trkpt lat="45.462519" lon="1.794504">
        <ele>637</ele>
        <time>2023-05-07T10:01:46Z</time>
      </trkpt>
      <trkpt lat="45.462537" lon="1.794485">
        <ele>638</ele>
        <time>2023-05-07T10:01:47Z</time>
      </trkpt>
      <trkpt lat="45.462556" lon="1.794466">
        <ele>638</ele>
        <time>2023-05-07T10:01:48Z</time>
      </trkpt>
      <trkpt lat="45.462575" lon="1.794447">
        <ele>638</ele>
        <time>2023-05-07T10:01:49Z</time>
      </trkpt>
      <trkpt lat="45.462593" lon="1.794429">
        <ele>638</ele>
        <time>2023-05-07T10:01:50Z</time>
      </trkpt>
      <trkpt lat="45.462612" lon="1.794410">
        <ele>638</ele>
        <time>2023-05-07T10:01:51Z</time>
      </trkpt>
      <trkpt lat="45.462632" lon="1.794393">
        <ele>638</ele>
        <time>2023-05-07T10:01:52Z</time>
      </trkpt>
      <trkpt lat="45.462652" lon="1.794376">
        <ele>638</ele>
        <time>2023-05-07T10:01:53Z</time>
      </trkpt>
      <trkpt lat="45.462671" lon="1.794360">
        <ele>638</ele>
        <time>2023-05-07T10:01:54Z</time>
      </trkpt>
      <trkpt lat="45.462691" lon="1.794344">
        <ele>638</ele>
        <time>2023-05-07T10:01:55Z</time>
      </trkpt>
      <trkpt lat="45.462708" lon="1.794328">
        <ele>638</ele>
        <time>2023-05-07T10:01:56Z</time>
      </trkpt>
      <trkpt lat="45.462726" lon="1.794313">
        <ele>639</ele>
        <time>2023-05-07T10:01:57Z</time>
      </trkpt>
      <trkpt lat="45.462741" lon="1.794296">
        <ele>639</ele>
        <time>2023-05-07T10:01:58Z</time>
      </trkpt>
      <trkpt lat="45.462756" lon="1.794279">
        <ele>639</ele>
        <time>2023-05-07T10:01:59Z</time>
      </trkpt>
      <trkpt lat="45.462769" lon="1.794261">
        <ele>639</ele>
        <time>2023-05-07T10:02:00Z</time>
      </trkpt>
      <trkpt lat="45.462782" lon="1.794244">
        <ele>639</ele>
        <time>2023-05-07T10:02:01Z</time>
      </trkpt>
      <trkpt lat="45.462793" lon="1.794228">
        <ele>640</ele>
        <time>2023-05-07T10:02:02Z</time>
      </trkpt>
      <trkpt lat="45.462805" lon="1.794212">
        <ele>640</ele>
        <time>2023-05-07T10:02:03Z</time>
      </trkpt>
      <trkpt lat="45.462817" lon="1.794198">
        <ele>640</ele>
        <time>2023-05-07T10:02:04Z</time>
      </trkpt>
      <trkpt lat="45.462828" lon="1.794185">
        <ele>640</ele>
        <time>2023-05-07T10:02:05Z</time>
      </trkpt>
      <trkpt lat="45.462846" lon="1.794179">
        <ele>641</ele>
        <time>2023-05-07T10:02:48Z</time>
      </trkpt>
      <trkpt lat="45.462852" lon="1.794180">
        <ele>641</ele>
        <time>2023-05-07T10:02:49Z</time>
      </trkpt>
      <trkpt lat="45.462858" lon="1.794180">
        <ele>641</ele>
        <time>2023-05-07T10:02:50Z</time>
      </trkpt>
      <trkpt lat="45.462866" lon="1.794176">
        <ele>641</ele>
        <time>2023-05-07T10:02:51Z</time>
      </trkpt>
      <trkpt lat="45.462874" lon="1.794172">
        <ele>641</ele>
        <time>2023-05-07T10:02:52Z</time>
      </trkpt>
      <trkpt lat="45.462888" lon="1.794163">
        <ele>641</ele>
        <time>2023-05-07T10:02:53Z</time>
      </trkpt>
      <trkpt lat="45.462901" lon="1.794153">
        <ele>641</ele>
        <time>2023-05-07T10:02:54Z</time>
      </trkpt>
      <trkpt lat="45.462919" lon="1.794139">
        <ele>641</ele>
        <time>2023-05-07T10:02:55Z</time>
      </trkpt>
      <trkpt lat="45.462938" lon="1.794126">
        <ele>641</ele>
        <time>2023-05-07T10:02:56Z</time>
      </trkpt>
      <trkpt lat="45.462959" lon="1.794112">
        <ele>641</ele>
        <time>2023-05-07T10:02:57Z</time>
      </trkpt>
      <trkpt lat="45.462980" lon="1.794098">
        <ele>641</ele>
        <time>2023-05-07T10:02:58Z</time>
      </trkpt>
      <trkpt lat="45.463003" lon="1.794086">
        <ele>641</ele>
        <time>2023-05-07T10:02:59Z</time>
      </trkpt>
      <trkpt lat="45.463026" lon="1.794074">
        <ele>641</ele>
        <time>2023-05-07T10:03:00Z</time>
      </trkpt>
      <trkpt lat="45.463053" lon="1.794060">
        <ele>641</ele>
        <time>2023-05-07T10:03:01Z</time>
      </trkpt>
      <trkpt lat="45.463079" lon="1.794047">
        <ele>641</ele>
        <time>2023-05-07T10:03:02Z</time>
      </trkpt>
      <trkpt lat="45.463108" lon="1.794032">
        <ele>641</ele>
        <time>2023-05-07T10:03:03Z</time>
      </trkpt>
      <trkpt lat="45.463138" lon="1.794016">
        <ele>641</ele>
        <time>2023-05-07T10:03:04Z</time>
      </trkpt>
      <trkpt lat="45.463168" lon="1.793996">
        <ele>641</ele>
        <time>2023-05-07T10:03:05Z</time>
      </trkpt>
      <trkpt lat="45.463198" lon="1.793975">
        <ele>641</ele>
        <time>2023-05-07T10:03:06Z</time>
      </trkpt>
      <trkpt lat="45.463227" lon="1.793952">
        <ele>641</ele>
        <time>2023-05-07T10:03:07Z</time>
      </trkpt>
      <trkpt lat="45.463256" lon="1.793929">
        <ele>641</ele>
        <time>2023-05-07T10:03:08Z</time>
      </trkpt>
      <trkpt lat="45.463282" lon="1.793906">
        <ele>641</ele>
        <time>2023-05-07T10:03:09Z</time>
      </trkpt>
      <trkpt lat="45.463307" lon="1.793883">
        <ele>641</ele>
        <time>2023-05-07T10:03:10Z</time>
      </trkpt>
      <trkpt lat="45.463328" lon="1.793861">
        <ele>641</ele>
        <time>2023-05-07T10:03:11Z</time>
      </trkpt>
      <trkpt lat="45.463348" lon="1.793840">
        <ele>641</ele>
        <time>2023-05-07T10:03:12Z</time>
      </trkpt>
      <trkpt lat="45.463361" lon="1.793820">
        <ele>641</ele>
        <time>2023-05-07T10:03:13Z</time>
      </trkpt>
      <trkpt lat="45.463375" lon="1.793801">
        <ele>641</ele>
        <time>2023-05-07T10:03:14Z</time>
      </trkpt>
      <trkpt lat="45.463384" lon="1.793783">
        <ele>641</ele>
        <time>2023-05-07T10:03:15Z</time>
      </trkpt>
      <trkpt lat="45.463392" lon="1.793764">
        <ele>641</ele>
        <time>2023-05-07T10:03:16Z</time>
      </trkpt>
      <trkpt lat="45.463402" lon="1.793746">
        <ele>641</ele>
        <time>2023-05-07T10:03:17Z</time>
      </trkpt>
      <trkpt lat="45.463411" lon="1.793729">
        <ele>641</ele>
        <time>2023-05-07T10:03:18Z</time>
      </trkpt>
      <trkpt lat="45.463426" lon="1.793708">
        <ele>641</ele>
        <time>2023-05-07T10:03:19Z</time>
      </trkpt>
      <trkpt lat="45.463440" lon="1.793688">
        <ele>641</ele>
        <time>2023-05-07T10:03:20Z</time>
      </trkpt>
      <trkpt lat="45.463462" lon="1.793664">
        <ele>641</ele>
        <time>2023-05-07T10:03:21Z</time>
      </trkpt>
      <trkpt lat="45.463484" lon="1.793641">
        <ele>641</ele>
        <time>2023-05-07T10:03:22Z</time>
      </trkpt>
      <trkpt lat="45.463511" lon="1.793614">
        <ele>641</ele>
        <time>2023-05-07T10:03:23Z</time>
      </trkpt>
      <trkpt lat="45.463538" lon="1.793586">
        <ele>641</ele>
        <time>2023-05-07T10:03:24Z</time>
      </trkpt>
      <trkpt lat="45.463568" lon="1.793555">
        <ele>641</ele>
        <time>2023-05-07T10:03:25Z</time>
      </trkpt>
      <trkpt lat="45.463599" lon="1.793525">
        <ele>641</ele>
        <time>2023-05-07T10:03:26Z</time>
      </trkpt>
      <trkpt lat="45.463632" lon="1.793492">
        <ele>641</ele>
        <time>2023-05-07T10:03:27Z</time>
      </trkpt>
      <trkpt lat="45.463665" lon="1.793459">
        <ele>640</ele>
        <time>2023-05-07T10:03:28Z</time>
      </trkpt>
      <trkpt lat="45.463698" lon="1.793425">
        <ele>640</ele>
        <time>2023-05-07T10:03:29Z</time>
      </trkpt>
      <trkpt lat="45.463732" lon="1.793390">
        <ele>640</ele>
        <time>2023-05-07T10:03:30Z</time>
      </trkpt>
      <trkpt lat="45.463767" lon="1.793354">
        <ele>640</ele>
        <time>2023-05-07T10:03:31Z</time>
      </trkpt>
      <trkpt lat="45.463802" lon="1.793317">
        <ele>640</ele>
        <time>2023-05-07T10:03:32Z</time>
      </trkpt>
      <trkpt lat="45.463839" lon="1.793277">
        <ele>640</ele>
        <time>2023-05-07T10:03:33Z</time>
      </trkpt>
      <trkpt lat="45.463877" lon="1.793237">
        <ele>640</ele>
        <time>2023-05-07T10:03:34Z</time>
      </trkpt>
      <trkpt lat="45.463916" lon="1.793196">
        <ele>640</ele>
        <time>2023-05-07T10:03:35Z</time>
      </trkpt>
      <trkpt lat="45.463956" lon="1.793155">
        <ele>640</ele>
        <time>2023-05-07T10:03:36Z</time>
      </trkpt>
      <trkpt lat="45.463997" lon="1.793113">
        <ele>640</ele>
        <time>2023-05-07T10:03:37Z</time>
      </trkpt>
      <trkpt lat="45.464037" lon="1.793070">
        <ele>639</ele>
        <time>2023-05-07T10:03:38Z</time>
      </trkpt>
      <trkpt lat="45.464080" lon="1.793025">
        <ele>639</ele>
        <time>2023-05-07T10:03:39Z</time>
      </trkpt>
      <trkpt lat="45.464122" lon="1.792980">
        <ele>639</ele>
        <time>2023-05-07T10:03:40Z</time>
      </trkpt>
      <trkpt lat="45.464165" lon="1.792935">
        <ele>639</ele>
        <time>2023-05-07T10:03:41Z</time>
      </trkpt>
      <trkpt lat="45.464210" lon="1.792890">
        <ele>639</ele>
        <time>2023-05-07T10:03:42Z</time>
      </trkpt>
      <trkpt lat="45.464255" lon="1.792844">
        <ele>638</ele>
        <time>2023-05-07T10:03:43Z</time>
      </trkpt>
      <trkpt lat="45.464303" lon="1.792800">
        <ele>638</ele>
        <time>2023-05-07T10:03:44Z</time>
      </trkpt>
      <trkpt lat="45.464350" lon="1.792757">
        <ele>638</ele>
        <time>2023-05-07T10:03:45Z</time>
      </trkpt>
      <trkpt lat="45.464401" lon="1.792716">
        <ele>638</ele>
        <time>2023-05-07T10:03:46Z</time>
      </trkpt>
      <trkpt lat="45.464452" lon="1.792676">
        <ele>638</ele>
        <time>2023-05-07T10:03:47Z</time>
      </trkpt>
      <trkpt lat="45.464505" lon="1.792638">
        <ele>638</ele>
        <time>2023-05-07T10:03:48Z</time>
      </trkpt>
      <trkpt lat="45.464559" lon="1.792600">
        <ele>638</ele>
        <time>2023-05-07T10:03:49Z</time>
      </trkpt>
      <trkpt lat="45.464617" lon="1.792563">
        <ele>638</ele>
        <time>2023-05-07T10:03:50Z</time>
      </trkpt>
      <trkpt lat="45.464675" lon="1.792526">
        <ele>638</ele>
        <time>2023-05-07T10:03:51Z</time>
      </trkpt>
      <trkpt lat="45.464730" lon="1.792497">
        <ele>638</ele>
        <time>2023-05-07T10:03:52Z</time>
      </trkpt>
      <trkpt lat="45.464785" lon="1.792467">
        <ele>637</ele>
        <time>2023-05-07T10:03:53Z</time>
      </trkpt>
      <trkpt lat="45.464841" lon="1.792438">
        <ele>637</ele>
        <time>2023-05-07T10:03:54Z</time>
      </trkpt>
      <trkpt lat="45.464898" lon="1.792414">
        <ele>637</ele>
        <time>2023-05-07T10:03:55Z</time>
      </trkpt>
      <trkpt lat="45.464956" lon="1.792390">
        <ele>637</ele>
        <time>2023-05-07T10:03:56Z</time>
      </trkpt>
      <trkpt lat="45.465016" lon="1.792372">
        <ele>637</ele>
        <time>2023-05-07T10:03:57Z</time>
      </trkpt>
      <trkpt lat="45.465076" lon="1.792354">
        <ele>636</ele>
        <time>2023-05-07T10:03:58Z</time>
      </trkpt>
      <trkpt lat="45.465138" lon="1.792346">
        <ele>636</ele>
        <time>2023-05-07T10:03:59Z</time>
      </trkpt>
      <trkpt lat="45.465199" lon="1.792337">
        <ele>636</ele>
        <time>2023-05-07T10:04:00Z</time>
      </trkpt>
      <trkpt lat="45.465261" lon="1.792339">
        <ele>636</ele>
        <time>2023-05-07T10:04:01Z</time>
      </trkpt>
      <trkpt lat="45.465324" lon="1.792341">
        <ele>636</ele>
        <time>2023-05-07T10:04:02Z</time>
      </trkpt>
      <trkpt lat="45.465387" lon="1.792351">
        <ele>635</ele>
        <time>2023-05-07T10:04:03Z</time>
      </trkpt>
      <trkpt lat="45.465450" lon="1.792361">
        <ele>635</ele>
        <time>2023-05-07T10:04:04Z</time>
      </trkpt>
      <trkpt lat="45.465513" lon="1.792376">
        <ele>635</ele>
        <time>2023-05-07T10:04:05Z</time>
      </trkpt>
      <trkpt lat="45.465576" lon="1.792391">
        <ele>635</ele>
        <time>2023-05-07T10:04:06Z</time>
      </trkpt>
      <trkpt lat="45.465640" lon="1.792407">
        <ele>635</ele>
        <time>2023-05-07T10:04:07Z</time>
      </trkpt>
      <trkpt lat="45.465703" lon="1.792423">
        <ele>634</ele>
        <time>2023-05-07T10:04:08Z</time>
      </trkpt>
      <trkpt lat="45.465768" lon="1.792437">
        <ele>634</ele>
        <time>2023-05-07T10:04:09Z</time>
      </trkpt>
      <trkpt lat="45.465834" lon="1.792452">
        <ele>634</ele>
        <time>2023-05-07T10:04:10Z</time>
      </trkpt>
      <trkpt lat="45.465901" lon="1.792464">
        <ele>634</ele>
        <time>2023-05-07T10:04:11Z</time>
      </trkpt>
      <trkpt lat="45.465969" lon="1.792476">
        <ele>634</ele>
        <time>2023-05-07T10:04:12Z</time>
      </trkpt>
      <trkpt lat="45.466037" lon="1.792490">
        <ele>633</ele>
        <time>2023-05-07T10:04:13Z</time>
      </trkpt>
      <trkpt lat="45.466106" lon="1.792505">
        <ele>633</ele>
        <time>2023-05-07T10:04:14Z</time>
      </trkpt>
      <trkpt lat="45.466177" lon="1.792523">
        <ele>633</ele>
        <time>2023-05-07T10:04:15Z</time>
      </trkpt>
      <trkpt lat="45.466248" lon="1.792541">
        <ele>633</ele>
        <time>2023-05-07T10:04:16Z</time>
      </trkpt>
      <trkpt lat="45.466319" lon="1.792560">
        <ele>633</ele>
        <time>2023-05-07T10:04:17Z</time>
      </trkpt>
      <trkpt lat="45.466391" lon="1.792579">
        <ele>632</ele>
        <time>2023-05-07T10:04:18Z</time>
      </trkpt>
      <trkpt lat="45.466464" lon="1.792596">
        <ele>632</ele>
        <time>2023-05-07T10:04:19Z</time>
      </trkpt>
      <trkpt lat="45.466536" lon="1.792613">
        <ele>631</ele>
        <time>2023-05-07T10:04:20Z</time>
      </trkpt>
      <trkpt lat="45.466607" lon="1.792627">
        <ele>631</ele>
        <time>2023-05-07T10:04:21Z</time>
      </trkpt>
      <trkpt lat="45.466679" lon="1.792641">
        <ele>631</ele>
        <time>2023-05-07T10:04:22Z</time>
      </trkpt>
      <trkpt lat="45.466750" lon="1.792655">
        <ele>630</ele>
        <time>2023-05-07T10:04:23Z</time>
      </trkpt>
      <trkpt lat="45.466821" lon="1.792669">
        <ele>630</ele>
        <time>2023-05-07T10:04:24Z</time>
      </trkpt>
      <trkpt lat="45.466891" lon="1.792683">
        <ele>630</ele>
        <time>2023-05-07T10:04:25Z</time>
      </trkpt>
      <trkpt lat="45.466962" lon="1.792698">
        <ele>630</ele>
        <time>2023-05-07T10:04:26Z</time>
      </trkpt>
      <trkpt lat="45.467032" lon="1.792713">
        <ele>630</ele>
        <time>2023-05-07T10:04:27Z</time>
      </trkpt>
      <trkpt lat="45.467102" lon="1.792729">
        <ele>629</ele>
        <time>2023-05-07T10:04:28Z</time>
      </trkpt>
      <trkpt lat="45.467170" lon="1.792748">
        <ele>629</ele>
        <time>2023-05-07T10:04:29Z</time>
      </trkpt>
      <trkpt lat="45.467239" lon="1.792768">
        <ele>629</ele>
        <time>2023-05-07T10:04:30Z</time>
      </trkpt>
      <trkpt lat="45.467306" lon="1.792795">
        <ele>629</ele>
        <time>2023-05-07T10:04:31Z</time>
      </trkpt>
      <trkpt lat="45.467374" lon="1.792823">
        <ele>629</ele>
        <time>2023-05-07T10:04:32Z</time>
      </trkpt>
      <trkpt lat="45.467439" lon="1.792863">
        <ele>628</ele>
        <time>2023-05-07T10:04:33Z</time>
      </trkpt>
      <trkpt lat="45.467504" lon="1.792903">
        <ele>628</ele>
        <time>2023-05-07T10:04:34Z</time>
      </trkpt>
      <trkpt lat="45.467566" lon="1.792958">
        <ele>628</ele>
        <time>2023-05-07T10:04:35Z</time>
      </trkpt>
      <trkpt lat="45.467629" lon="1.793012">
        <ele>628</ele>
        <time>2023-05-07T10:04:36Z</time>
      </trkpt>
      <trkpt lat="45.467692" lon="1.793077">
        <ele>628</ele>
        <time>2023-05-07T10:04:37Z</time>
      </trkpt>
      <trkpt lat="45.467754" lon="1.793142">
        <ele>627</ele>
        <time>2023-05-07T10:04:38Z</time>
      </trkpt>
      <trkpt lat="45.467815" lon="1.793213">
        <ele>627</ele>
        <time>2023-05-07T10:04:39Z</time>
      </trkpt>
      <trkpt lat="45.467875" lon="1.793283">
        <ele>627</ele>
        <time>2023-05-07T10:04:40Z</time>
      </trkpt>
      <trkpt lat="45.467932" lon="1.793354">
        <ele>627</ele>
        <time>2023-05-07T10:04:41Z</time>
      </trkpt>
      <trkpt lat="45.467989" lon="1.793424">
        <ele>627</ele>
        <time>2023-05-07T10:04:42Z</time>
      </trkpt>
      <trkpt lat="45.468043" lon="1.793492">
        <ele>626</ele>
        <time>2023-05-07T10:04:43Z</time>
      </trkpt>
      <trkpt lat="45.468096" lon="1.793560">
        <ele>626</ele>
        <time>2023-05-07T10:04:44Z</time>
      </trkpt>
      <trkpt lat="45.468148" lon="1.793625">
        <ele>625</ele>
        <time>2023-05-07T10:04:45Z</time>
      </trkpt>
      <trkpt lat="45.468200" lon="1.793689">
        <ele>625</ele>
        <time>2023-05-07T10:04:46Z</time>
      </trkpt>
      <trkpt lat="45.468250" lon="1.793751">
        <ele>625</ele>
        <time>2023-05-07T10:04:47Z</time>
      </trkpt>
      <trkpt lat="45.468300" lon="1.793814">
        <ele>624</ele>
        <time>2023-05-07T10:04:48Z</time>
      </trkpt>
      <trkpt lat="45.468347" lon="1.793877">
        <ele>624</ele>
        <time>2023-05-07T10:04:49Z</time>
      </trkpt>
      <trkpt lat="45.468393" lon="1.793941">
        <ele>623</ele>
        <time>2023-05-07T10:04:50Z</time>
      </trkpt>
      <trkpt lat="45.468434" lon="1.794006">
        <ele>623</ele>
        <time>2023-05-07T10:04:51Z</time>
      </trkpt>
      <trkpt lat="45.468475" lon="1.794071">
        <ele>623</ele>
        <time>2023-05-07T10:04:52Z</time>
      </trkpt>
      <trkpt lat="45.468514" lon="1.794131">
        <ele>622</ele>
        <time>2023-05-07T10:04:53Z</time>
      </trkpt>
      <trkpt lat="45.468553" lon="1.794191">
        <ele>622</ele>
        <time>2023-05-07T10:04:54Z</time>
      </trkpt>
      <trkpt lat="45.468595" lon="1.794239">
        <ele>622</ele>
        <time>2023-05-07T10:04:55Z</time>
      </trkpt>
      <trkpt lat="45.468637" lon="1.794288">
        <ele>622</ele>
        <time>2023-05-07T10:04:56Z</time>
      </trkpt>
      <trkpt lat="45.468682" lon="1.794322">
        <ele>622</ele>
        <time>2023-05-07T10:04:57Z</time>
      </trkpt>
      <trkpt lat="45.468728" lon="1.794356">
        <ele>621</ele>
        <time>2023-05-07T10:04:58Z</time>
      </trkpt>
      <trkpt lat="45.468775" lon="1.794380">
        <ele>621</ele>
        <time>2023-05-07T10:04:59Z</time>
      </trkpt>
      <trkpt lat="45.468822" lon="1.794403">
        <ele>621</ele>
        <time>2023-05-07T10:05:00Z</time>
      </trkpt>
      <trkpt lat="45.468866" lon="1.794426">
        <ele>621</ele>
        <time>2023-05-07T10:05:01Z</time>
      </trkpt>
      <trkpt lat="45.468910" lon="1.794449">
        <ele>621</ele>
        <time>2023-05-07T10:05:02Z</time>
      </trkpt>
      <trkpt lat="45.468953" lon="1.794473">
        <ele>620</ele>
        <time>2023-05-07T10:05:03Z</time>
      </trkpt>
      <trkpt lat="45.468995" lon="1.794498">
        <ele>620</ele>
        <time>2023-05-07T10:05:04Z</time>
      </trkpt>
      <trkpt lat="45.469036" lon="1.794523">
        <ele>620</ele>
        <time>2023-05-07T10:05:05Z</time>
      </trkpt>
      <trkpt lat="45.469078" lon="1.794547">
        <ele>620</ele>
        <time>2023-05-07T10:05:06Z</time>
      </trkpt>
      <trkpt lat="45.469121" lon="1.794570">
        <ele>620</ele>
        <time>2023-05-07T10:05:07Z</time>
      </trkpt>
      <trkpt lat="45.469164" lon="1.794593">
        <ele>619</ele>
        <time>2023-05-07T10:05:08Z</time>
      </trkpt>
      <trkpt lat="45.469210" lon="1.794616">
        <ele>619</ele>
        <time>2023-05-07T10:05:09Z</time>
      </trkpt>
      <trkpt lat="45.469257" lon="1.794639">
        <ele>619</ele>
        <time>2023-05-07T10:05:10Z</time>
      </trkpt>
      <trkpt lat="45.469310" lon="1.794665">
        <ele>619</ele>
        <time>2023-05-07T10:05:11Z</time>
      </trkpt>
      <trkpt lat="45.469362" lon="1.794690">
        <ele>619</ele>
        <time>2023-05-07T10:05:12Z</time>
      </trkpt>
      <trkpt lat="45.469423" lon="1.794719">
        <ele>619</ele>
        <time>2023-05-07T10:05:13Z</time>
      </trkpt>
      <trkpt lat="45.469484" lon="1.794748">
        <ele>619</ele>
        <time>2023-05-07T10:05:14Z</time>
      </trkpt>
      <trkpt lat="45.469550" lon="1.794782">
        <ele>619</ele>
        <time>2023-05-07T10:05:15Z</time>
      </trkpt>
      <trkpt lat="45.469616" lon="1.794815">
        <ele>619</ele>
        <time>2023-05-07T10:05:16Z</time>
      </trkpt>
      <trkpt lat="45.469685" lon="1.794858">
        <ele>619</ele>
        <time>2023-05-07T10:05:17Z</time>
      </trkpt>
      <trkpt lat="45.469755" lon="1.794901">
        <ele>618</ele>
        <time>2023-05-07T10:05:18Z</time>
      </trkpt>
      <trkpt lat="45.469824" lon="1.794957">
        <ele>618</ele>
        <time>2023-05-07T10:05:19Z</time>
      </trkpt>
      <trkpt lat="45.469893" lon="1.795012">
        <ele>618</ele>
        <time>2023-05-07T10:05:20Z</time>
      </trkpt>
      <trkpt lat="45.469959" lon="1.795073">
        <ele>618</ele>
        <time>2023-05-07T10:05:21Z</time>
      </trkpt>
      <trkpt lat="45.470024" lon="1.795133">
        <ele>618</ele>
        <time>2023-05-07T10:05:22Z</time>
      </trkpt>
      <trkpt lat="45.470088" lon="1.795194">
        <ele>617</ele>
        <time>2023-05-07T10:05:23Z</time>
      </trkpt>
      <trkpt lat="45.470152" lon="1.795255">
        <ele>617</ele>
        <time>2023-05-07T10:05:24Z</time>
      </trkpt>
      <trkpt lat="45.470212" lon="1.795314">
        <ele>616</ele>
        <time>2023-05-07T10:05:25Z</time>
      </trkpt>
      <trkpt lat="45.470273" lon="1.795374">
        <ele>616</ele>
        <time>2023-05-07T10:05:26Z</time>
      </trkpt>
      <trkpt lat="45.470330" lon="1.795436">
        <ele>616</ele>
        <time>2023-05-07T10:05:27Z</time>
      </trkpt>
      <trkpt lat="45.470388" lon="1.795497">
        <ele>615</ele>
        <time>2023-05-07T10:05:28Z</time>
      </trkpt>
      <trkpt lat="45.470442" lon="1.795559">
        <ele>615</ele>
        <time>2023-05-07T10:05:29Z</time>
      </trkpt>
      <trkpt lat="45.470495" lon="1.795622">
        <ele>614</ele>
        <time>2023-05-07T10:05:30Z</time>
      </trkpt>
      <trkpt lat="45.470550" lon="1.795691">
        <ele>614</ele>
        <time>2023-05-07T10:05:31Z</time>
      </trkpt>
      <trkpt lat="45.470605" lon="1.795761">
        <ele>614</ele>
        <time>2023-05-07T10:05:32Z</time>
      </trkpt>
      <trkpt lat="45.470660" lon="1.795830">
        <ele>613</ele>
        <time>2023-05-07T10:05:33Z</time>
      </trkpt>
      <trkpt lat="45.470716" lon="1.795900">
        <ele>613</ele>
        <time>2023-05-07T10:05:34Z</time>
      </trkpt>
      <trkpt lat="45.470768" lon="1.795967">
        <ele>613</ele>
        <time>2023-05-07T10:05:35Z</time>
      </trkpt>
      <trkpt lat="45.470821" lon="1.796034">
        <ele>613</ele>
        <time>2023-05-07T10:05:36Z</time>
      </trkpt>
      <trkpt lat="45.470873" lon="1.796102">
        <ele>613</ele>
        <time>2023-05-07T10:05:37Z</time>
      </trkpt>
      <trkpt lat="45.470925" lon="1.796170">
        <ele>612</ele>
        <time>2023-05-07T10:05:38Z</time>
      </trkpt>
      <trkpt lat="45.470974" lon="1.796240">
        <ele>612</ele>
        <time>2023-05-07T10:05:39Z</time>
      </trkpt>
      <trkpt lat="45.471024" lon="1.796309">
        <ele>611</ele>
        <time>2023-05-07T10:05:40Z</time>
      </trkpt>
      <trkpt lat="45.471069" lon="1.796386">
        <ele>611</ele>
        <time>2023-05-07T10:05:41Z</time>
      </trkpt>
      <trkpt lat="45.471114" lon="1.796463">
        <ele>611</ele>
        <time>2023-05-07T10:05:42Z</time>
      </trkpt>
      <trkpt lat="45.471149" lon="1.796550">
        <ele>610</ele>
        <time>2023-05-07T10:05:43Z</time>
      </trkpt>
      <trkpt lat="45.471184" lon="1.796637">
        <ele>610</ele>
        <time>2023-05-07T10:05:44Z</time>
      </trkpt>
      <trkpt lat="45.471207" lon="1.796729">
        <ele>610</ele>
        <time>2023-05-07T10:05:45Z</time>
      </trkpt>
      <trkpt lat="45.471230" lon="1.796821">
        <ele>610</ele>
        <time>2023-05-07T10:05:46Z</time>
      </trkpt>
      <trkpt lat="45.471249" lon="1.796914">
        <ele>610</ele>
        <time>2023-05-07T10:05:47Z</time>
      </trkpt>
      <trkpt lat="45.471267" lon="1.797006">
        <ele>609</ele>
        <time>2023-05-07T10:05:48Z</time>
      </trkpt>
      <trkpt lat="45.471287" lon="1.797100">
        <ele>609</ele>
        <time>2023-05-07T10:05:49Z</time>
      </trkpt>
      <trkpt lat="45.471306" lon="1.797194">
        <ele>608</ele>
        <time>2023-05-07T10:05:50Z</time>
      </trkpt>
      <trkpt lat="45.471328" lon="1.797285">
        <ele>608</ele>
        <time>2023-05-07T10:05:51Z</time>
      </trkpt>
      <trkpt lat="45.471349" lon="1.797377">
        <ele>608</ele>
        <time>2023-05-07T10:05:52Z</time>
      </trkpt>
      <trkpt lat="45.471380" lon="1.797461">
        <ele>607</ele>
        <time>2023-05-07T10:05:53Z</time>
      </trkpt>
      <trkpt lat="45.471412" lon="1.797546">
        <ele>607</ele>
        <time>2023-05-07T10:05:54Z</time>
      </trkpt>
      <trkpt lat="45.471457" lon="1.797612">
        <ele>607</ele>
        <time>2023-05-07T10:05:55Z</time>
      </trkpt>
      <trkpt lat="45.471502" lon="1.797679">
        <ele>607</ele>
        <time>2023-05-07T10:05:56Z</time>
      </trkpt>
      <trkpt lat="45.471561" lon="1.797718">
        <ele>607</ele>
        <time>2023-05-07T10:05:57Z</time>
      </trkpt>
      <trkpt lat="45.471620" lon="1.797758">
        <ele>606</ele>
        <time>2023-05-07T10:05:58Z</time>
      </trkpt>
      <trkpt lat="45.471685" lon="1.797772">
        <ele>606</ele>
        <time>2023-05-07T10:05:59Z</time>
      </trkpt>
      <trkpt lat="45.471751" lon="1.797787">
        <ele>605</ele>
        <time>2023-05-07T10:06:00Z</time>
      </trkpt>
      <trkpt lat="45.471812" lon="1.797793">
        <ele>605</ele>
        <time>2023-05-07T10:06:01Z</time>
      </trkpt>
      <trkpt lat="45.471874" lon="1.797799">
        <ele>605</ele>
        <time>2023-05-07T10:06:02Z</time>
      </trkpt>
      <trkpt lat="45.471925" lon="1.797809">
        <ele>604</ele>
        <time>2023-05-07T10:06:03Z</time>
      </trkpt>
      <trkpt lat="45.471977" lon="1.797819">
        <ele>604</ele>
        <time>2023-05-07T10:06:04Z</time>
      </trkpt>
      <trkpt lat="45.472015" lon="1.797838">
        <ele>603</ele>
        <time>2023-05-07T10:06:05Z</time>
      </trkpt>
      <trkpt lat="45.472054" lon="1.797857">
        <ele>603</ele>
        <time>2023-05-07T10:06:06Z</time>
      </trkpt>
      <trkpt lat="45.472084" lon="1.797882">
        <ele>603</ele>
        <time>2023-05-07T10:06:07Z</time>
      </trkpt>
      <trkpt lat="45.472115" lon="1.797907">
        <ele>602</ele>
        <time>2023-05-07T10:06:08Z</time>
      </trkpt>
      <trkpt lat="45.472148" lon="1.797930">
        <ele>602</ele>
        <time>2023-05-07T10:06:09Z</time>
      </trkpt>
      <trkpt lat="45.472181" lon="1.797953">
        <ele>601</ele>
        <time>2023-05-07T10:06:10Z</time>
      </trkpt>
      <trkpt lat="45.472216" lon="1.797966">
        <ele>601</ele>
        <time>2023-05-07T10:06:11Z</time>
      </trkpt>
      <trkpt lat="45.472252" lon="1.797979">
        <ele>601</ele>
        <time>2023-05-07T10:06:12Z</time>
      </trkpt>
      <trkpt lat="45.472289" lon="1.797981">
        <ele>600</ele>
        <time>2023-05-07T10:06:13Z</time>
      </trkpt>
      <trkpt lat="45.472326" lon="1.797984">
        <ele>600</ele>
        <time>2023-05-07T10:06:14Z</time>
      </trkpt>
      <trkpt lat="45.472360" lon="1.797982">
        <ele>600</ele>
        <time>2023-05-07T10:06:15Z</time>
      </trkpt>
      <trkpt lat="45.472395" lon="1.797979">
        <ele>600</ele>
        <time>2023-05-07T10:06:16Z</time>
      </trkpt>
      <trkpt lat="45.472422" lon="1.797975">
        <ele>600</ele>
        <time>2023-05-07T10:06:17Z</time>
      </trkpt>
      <trkpt lat="45.472450" lon="1.797971">
        <ele>599</ele>
        <time>2023-05-07T10:06:18Z</time>
      </trkpt>
      <trkpt lat="45.472469" lon="1.797967">
        <ele>599</ele>
        <time>2023-05-07T10:06:19Z</time>
      </trkpt>
      <trkpt lat="45.472489" lon="1.797963">
        <ele>599</ele>
        <time>2023-05-07T10:06:20Z</time>
      </trkpt>
      <trkpt lat="45.472501" lon="1.797960">
        <ele>599</ele>
        <time>2023-05-07T10:06:21Z</time>
      </trkpt>
      <trkpt lat="45.472513" lon="1.797958">
        <ele>599</ele>
        <time>2023-05-07T10:06:22Z</time>
      </trkpt>
      <trkpt lat="45.472521" lon="1.797956">
        <ele>598</ele>
        <time>2023-05-07T10:06:23Z</time>
      </trkpt>
      <trkpt lat="45.472529" lon="1.797954">
        <ele>598</ele>
        <time>2023-05-07T10:06:24Z</time>
      </trkpt>
      <trkpt lat="45.472537" lon="1.797953">
        <ele>598</ele>
        <time>2023-05-07T10:06:25Z</time>
      </trkpt>
      <trkpt lat="45.472544" lon="1.797952">
        <ele>598</ele>
        <time>2023-05-07T10:06:26Z</time>
      </trkpt>
      <trkpt lat="45.472554" lon="1.797953">
        <ele>598</ele>
        <time>2023-05-07T10:06:27Z</time>
      </trkpt>
      <trkpt lat="45.472564" lon="1.797954">
        <ele>598</ele>
        <time>2023-05-07T10:06:28Z</time>
      </trkpt>
      <trkpt lat="45.472578" lon="1.797958">
        <ele>598</ele>
        <time>2023-05-07T10:06:29Z</time>
      </trkpt>
      <trkpt lat="45.472592" lon="1.797961">
        <ele>598</ele>
        <time>2023-05-07T10:06:30Z</time>
      </trkpt>
      <trkpt lat="45.472610" lon="1.797973">
        <ele>598</ele>
        <time>2023-05-07T10:06:31Z</time>
      </trkpt>
      <trkpt lat="45.472628" lon="1.797985">
        <ele>598</ele>
        <time>2023-05-07T10:06:32Z</time>
      </trkpt>
      <trkpt lat="45.472647" lon="1.798009">
        <ele>598</ele>
        <time>2023-05-07T10:06:33Z</time>
      </trkpt>
      <trkpt lat="45.472667" lon="1.798033">
        <ele>598</ele>
        <time>2023-05-07T10:06:34Z</time>
      </trkpt>
      <trkpt lat="45.472683" lon="1.798071">
        <ele>598</ele>
        <time>2023-05-07T10:06:35Z</time>
      </trkpt>
      <trkpt lat="45.472700" lon="1.798109">
        <ele>598</ele>
        <time>2023-05-07T10:06:36Z</time>
      </trkpt>
      <trkpt lat="45.472714" lon="1.798156">
        <ele>598</ele>
        <time>2023-05-07T10:06:37Z</time>
      </trkpt>
      <trkpt lat="45.472728" lon="1.798204">
        <ele>597</ele>
        <time>2023-05-07T10:06:38Z</time>
      </trkpt>
      <trkpt lat="45.472744" lon="1.798254">
        <ele>597</ele>
        <time>2023-05-07T10:06:39Z</time>
      </trkpt>
      <trkpt lat="45.472759" lon="1.798305">
        <ele>597</ele>
        <time>2023-05-07T10:06:40Z</time>
      </trkpt>
      <trkpt lat="45.472778" lon="1.798354">
        <ele>597</ele>
        <time>2023-05-07T10:06:41Z</time>
      </trkpt>
      <trkpt lat="45.472797" lon="1.798404">
        <ele>597</ele>
        <time>2023-05-07T10:06:42Z</time>
      </trkpt>
      <trkpt lat="45.472816" lon="1.798449">
        <ele>597</ele>
        <time>2023-05-07T10:06:43Z</time>
      </trkpt>
      <trkpt lat="45.472836" lon="1.798494">
        <ele>597</ele>
        <time>2023-05-07T10:06:44Z</time>
      </trkpt>
      <trkpt lat="45.472854" lon="1.798539">
        <ele>597</ele>
        <time>2023-05-07T10:06:45Z</time>
      </trkpt>
      <trkpt lat="45.472872" lon="1.798584">
        <ele>597</ele>
        <time>2023-05-07T10:06:46Z</time>
      </trkpt>
      <trkpt lat="45.472885" lon="1.798628">
        <ele>597</ele>
        <time>2023-05-07T10:06:47Z</time>
      </trkpt>
      <trkpt lat="45.472898" lon="1.798672">
        <ele>597</ele>
        <time>2023-05-07T10:06:48Z</time>
      </trkpt>
      <trkpt lat="45.472903" lon="1.798716">
        <ele>597</ele>
        <time>2023-05-07T10:06:49Z</time>
      </trkpt>
      <trkpt lat="45.472908" lon="1.798760">
        <ele>597</ele>
        <time>2023-05-07T10:06:50Z</time>
      </trkpt>
      <trkpt lat="45.472906" lon="1.798804">
        <ele>597</ele>
        <time>2023-05-07T10:06:51Z</time>
      </trkpt>
      <trkpt lat="45.472903" lon="1.798847">
        <ele>597</ele>
        <time>2023-05-07T10:06:52Z</time>
      </trkpt>
      <trkpt lat="45.472894" lon="1.798892">
        <ele>597</ele>
        <time>2023-05-07T10:06:53Z</time>
      </trkpt>
      <trkpt lat="45.472886" lon="1.798936">
        <ele>597</ele>
        <time>2023-05-07T10:06:54Z</time>
      </trkpt>
      <trkpt lat="45.472875" lon="1.798978">
        <ele>597</ele>
        <time>2023-05-07T10:06:55Z</time>
      </trkpt>
      <trkpt lat="45.472863" lon="1.799020">
        <ele>597</ele>
        <time>2023-05-07T10:06:56Z</time>
      </trkpt>
      <trkpt lat="45.472851" lon="1.799057">
        <ele>597</ele>
        <time>2023-05-07T10:06:57Z</time>
      </trkpt>
      <trkpt lat="45.472838" lon="1.799094">
        <ele>597</ele>
        <time>2023-05-07T10:06:58Z</time>
      </trkpt>
      <trkpt lat="45.472823" lon="1.799129">
        <ele>597</ele>
        <time>2023-05-07T10:06:59Z</time>
      </trkpt>
      <trkpt lat="45.472808" lon="1.799165">
        <ele>597</ele>
        <time>2023-05-07T10:07:00Z</time>
      </trkpt>
      <trkpt lat="45.472794" lon="1.799199">
        <ele>597</ele>
        <time>2023-05-07T10:07:01Z</time>
      </trkpt>
      <trkpt lat="45.472779" lon="1.799233">
        <ele>597</ele>
        <time>2023-05-07T10:07:02Z</time>
      </trkpt>
      <trkpt lat="45.472766" lon="1.799265">
        <ele>597</ele>
        <time>2023-05-07T10:07:03Z</time>
      </trkpt>
      <trkpt lat="45.472752" lon="1.799297">
        <ele>597</ele>
        <time>2023-05-07T10:07:04Z</time>
      </trkpt>
      <trkpt lat="45.472739" lon="1.799329">
        <ele>597</ele>
        <time>2023-05-07T10:07:05Z</time>
      </trkpt>
      <trkpt lat="45.472727" lon="1.799361">
        <ele>597</ele>
        <time>2023-05-07T10:07:06Z</time>
      </trkpt>
      <trkpt lat="45.472715" lon="1.799393">
        <ele>598</ele>
        <time>2023-05-07T10:07:07Z</time>
      </trkpt>
      <trkpt lat="45.472702" lon="1.799424">
        <ele>598</ele>
        <time>2023-05-07T10:07:08Z</time>
      </trkpt>
      <trkpt lat="45.472692" lon="1.799456">
        <ele>598</ele>
        <time>2023-05-07T10:07:09Z</time>
      </trkpt>
      <trkpt lat="45.472682" lon="1.799488">
        <ele>598</ele>
        <time>2023-05-07T10:07:10Z</time>
      </trkpt>
      <trkpt lat="45.472673" lon="1.799519">
        <ele>598</ele>
        <time>2023-05-07T10:07:11Z</time>
      </trkpt>
      <trkpt lat="45.472665" lon="1.799551">
        <ele>598</ele>
        <time>2023-05-07T10:07:12Z</time>
      </trkpt>
      <trkpt lat="45.472658" lon="1.799584">
        <ele>598</ele>
        <time>2023-05-07T10:07:13Z</time>
      </trkpt>
      <trkpt lat="45.472651" lon="1.799618">
        <ele>598</ele>
        <time>2023-05-07T10:07:14Z</time>
      </trkpt>
      <trkpt lat="45.472644" lon="1.799655">
        <ele>598</ele>
        <time>2023-05-07T10:07:15Z</time>
      </trkpt>
      <trkpt lat="45.472637" lon="1.799691">
        <ele>598</ele>
        <time>2023-05-07T10:07:16Z</time>
      </trkpt>
      <trkpt lat="45.472629" lon="1.799729">
        <ele>599</ele>
        <time>2023-05-07T10:07:17Z</time>
      </trkpt>
      <trkpt lat="45.472622" lon="1.799767">
        <ele>599</ele>
        <time>2023-05-07T10:07:18Z</time>
      </trkpt>
      <trkpt lat="45.472616" lon="1.799808">
        <ele>599</ele>
        <time>2023-05-07T10:07:19Z</time>
      </trkpt>
      <trkpt lat="45.472609" lon="1.799849">
        <ele>599</ele>
        <time>2023-05-07T10:07:20Z</time>
      </trkpt>
      <trkpt lat="45.472603" lon="1.799891">
        <ele>599</ele>
        <time>2023-05-07T10:07:21Z</time>
      </trkpt>
      <trkpt lat="45.472597" lon="1.799933">
        <ele>599</ele>
        <time>2023-05-07T10:07:22Z</time>
      </trkpt>
      <trkpt lat="45.472592" lon="1.799974">
        <ele>599</ele>
        <time>2023-05-07T10:07:23Z</time>
      </trkpt>
      <trkpt lat="45.472587" lon="1.800015">
        <ele>599</ele>
        <time>2023-05-07T10:07:24Z</time>
      </trkpt>
      <trkpt lat="45.472582" lon="1.800058">
        <ele>599</ele>
        <time>2023-05-07T10:07:25Z</time>
      </trkpt>
      <trkpt lat="45.472577" lon="1.800100">
        <ele>599</ele>
        <time>2023-05-07T10:07:26Z</time>
      </trkpt>
      <trkpt lat="45.472571" lon="1.800142">
        <ele>600</ele>
        <time>2023-05-07T10:07:27Z</time>
      </trkpt>
      <trkpt lat="45.472565" lon="1.800184">
        <ele>600</ele>
        <time>2023-05-07T10:07:28Z</time>
      </trkpt>
      <trkpt lat="45.472558" lon="1.800228">
        <ele>600</ele>
        <time>2023-05-07T10:07:29Z</time>
      </trkpt>
      <trkpt lat="45.472551" lon="1.800272">
        <ele>600</ele>
        <time>2023-05-07T10:07:30Z</time>
      </trkpt>
      <trkpt lat="45.472544" lon="1.800315">
        <ele>600</ele>
        <time>2023-05-07T10:07:31Z</time>
      </trkpt>
      <trkpt lat="45.472536" lon="1.800358">
        <ele>600</ele>
        <time>2023-05-07T10:07:32Z</time>
      </trkpt>
      <trkpt lat="45.472528" lon="1.800401">
        <ele>600</ele>
        <time>2023-05-07T10:07:33Z</time>
      </trkpt>
      <trkpt lat="45.472520" lon="1.800445">
        <ele>600</ele>
        <time>2023-05-07T10:07:34Z</time>
      </trkpt>
      <trkpt lat="45.472511" lon="1.800487">
        <ele>600</ele>
        <time>2023-05-07T10:07:35Z</time>
      </trkpt>
      <trkpt lat="45.472501" lon="1.800529">
        <ele>600</ele>
        <time>2023-05-07T10:07:36Z</time>
      </trkpt>
      <trkpt lat="45.472491" lon="1.800570">
        <ele>601</ele>
        <time>2023-05-07T10:07:37Z</time>
      </trkpt>
      <trkpt lat="45.472481" lon="1.800611">
        <ele>601</ele>
        <time>2023-05-07T10:07:38Z</time>
      </trkpt>
      <trkpt lat="45.472472" lon="1.800650">
        <ele>601</ele>
        <time>2023-05-07T10:07:39Z</time>
      </trkpt>
      <trkpt lat="45.472463" lon="1.800689">
        <ele>601</ele>
        <time>2023-05-07T10:07:40Z</time>
      </trkpt>
      <trkpt lat="45.472453" lon="1.800730">
        <ele>601</ele>
        <time>2023-05-07T10:07:41Z</time>
      </trkpt>
      <trkpt lat="45.472443" lon="1.800771">
        <ele>601</ele>
        <time>2023-05-07T10:07:42Z</time>
      </trkpt>
      <trkpt lat="45.472433" lon="1.800813">
        <ele>601</ele>
        <time>2023-05-07T10:07:43Z</time>
      </trkpt>
      <trkpt lat="45.472423" lon="1.800856">
        <ele>601</ele>
        <time>2023-05-07T10:07:44Z</time>
      </trkpt>
      <trkpt lat="45.472413" lon="1.800901">
        <ele>601</ele>
        <time>2023-05-07T10:07:45Z</time>
      </trkpt>
      <trkpt lat="45.472402" lon="1.800946">
        <ele>601</ele>
        <time>2023-05-07T10:07:46Z</time>
      </trkpt>
      <trkpt lat="45.472392" lon="1.800993">
        <ele>601</ele>
        <time>2023-05-07T10:07:47Z</time>
      </trkpt>
      <trkpt lat="45.472382" lon="1.801041">
        <ele>601</ele>
        <time>2023-05-07T10:07:48Z</time>
      </trkpt>
      <trkpt lat="45.472371" lon="1.801089">
        <ele>601</ele>
        <time>2023-05-07T10:07:49Z</time>
      </trkpt>
      <trkpt lat="45.472360" lon="1.801138">
        <ele>601</ele>
        <time>2023-05-07T10:07:50Z</time>
      </trkpt>
      <trkpt lat="45.472348" lon="1.801191">
        <ele>601</ele>
        <time>2023-05-07T10:07:51Z</time>
      </trkpt>
      <trkpt lat="45.472336" lon="1.801244">
        <ele>601</ele>
        <time>2023-05-07T10:07:52Z</time>
      </trkpt>
      <trkpt lat="45.472322" lon="1.801298">
        <ele>601</ele>
        <time>2023-05-07T10:07:53Z</time>
      </trkpt>
      <trkpt lat="45.472309" lon="1.801352">
        <ele>601</ele>
        <time>2023-05-07T10:07:54Z</time>
      </trkpt>
      <trkpt lat="45.472293" lon="1.801409">
        <ele>601</ele>
        <time>2023-05-07T10:07:55Z</time>
      </trkpt>
      <trkpt lat="45.472278" lon="1.801466">
        <ele>601</ele>
        <time>2023-05-07T10:07:56Z</time>
      </trkpt>
      <trkpt lat="45.472260" lon="1.801524">
        <ele>601</ele>
        <time>2023-05-07T10:07:57Z</time>
      </trkpt>
      <trkpt lat="45.472243" lon="1.801582">
        <ele>601</ele>
        <time>2023-05-07T10:07:58Z</time>
      </trkpt>
      <trkpt lat="45.472225" lon="1.801639">
        <ele>601</ele>
        <time>2023-05-07T10:07:59Z</time>
      </trkpt>
      <trkpt lat="45.472208" lon="1.801696">
        <ele>601</ele>
        <time>2023-05-07T10:08:00Z</time>
      </trkpt>
      <trkpt lat="45.472191" lon="1.801750">
        <ele>601</ele>
        <time>2023-05-07T10:08:01Z</time>
      </trkpt>
      <trkpt lat="45.472175" lon="1.801804">
        <ele>601</ele>
        <time>2023-05-07T10:08:02Z</time>
      </trkpt>
      <trkpt lat="45.472159" lon="1.801857">
        <ele>601</ele>
        <time>2023-05-07T10:08:03Z</time>
      </trkpt>
      <trkpt lat="45.472143" lon="1.801910">
        <ele>601</ele>
        <time>2023-05-07T10:08:04Z</time>
      </trkpt>
      <trkpt lat="45.472126" lon="1.801963">
        <ele>601</ele>
        <time>2023-05-07T10:08:05Z</time>
      </trkpt>
      <trkpt lat="45.472110" lon="1.802016">
        <ele>601</ele>
        <time>2023-05-07T10:08:06Z</time>
      </trkpt>
      <trkpt lat="45.472093" lon="1.802069">
        <ele>601</ele>
        <time>2023-05-07T10:08:07Z</time>
      </trkpt>
      <trkpt lat="45.472076" lon="1.802122">
        <ele>601</ele>
        <time>2023-05-07T10:08:08Z</time>
      </trkpt>
      <trkpt lat="45.472058" lon="1.802176">
        <ele>601</ele>
        <time>2023-05-07T10:08:09Z</time>
      </trkpt>
      <trkpt lat="45.472040" lon="1.802230">
        <ele>601</ele>
        <time>2023-05-07T10:08:10Z</time>
      </trkpt>
      <trkpt lat="45.472022" lon="1.802286">
        <ele>601</ele>
        <time>2023-05-07T10:08:11Z</time>
      </trkpt>
      <trkpt lat="45.472004" lon="1.802341">
        <ele>601</ele>
        <time>2023-05-07T10:08:12Z</time>
      </trkpt>
      <trkpt lat="45.471987" lon="1.802397">
        <ele>601</ele>
        <time>2023-05-07T10:08:13Z</time>
      </trkpt>
      <trkpt lat="45.471969" lon="1.802453">
        <ele>601</ele>
        <time>2023-05-07T10:08:14Z</time>
      </trkpt>
      <trkpt lat="45.471950" lon="1.802509">
        <ele>601</ele>
        <time>2023-05-07T10:08:15Z</time>
      </trkpt>
      <trkpt lat="45.471932" lon="1.802565">
        <ele>601</ele>
        <time>2023-05-07T10:08:16Z</time>
      </trkpt>
      <trkpt lat="45.471912" lon="1.802625">
        <ele>601</ele>
        <time>2023-05-07T10:08:17Z</time>
      </trkpt>
      <trkpt lat="45.471893" lon="1.802684">
        <ele>600</ele>
        <time>2023-05-07T10:08:18Z</time>
      </trkpt>
      <trkpt lat="45.471874" lon="1.802745">
        <ele>600</ele>
        <time>2023-05-07T10:08:19Z</time>
      </trkpt>
      <trkpt lat="45.471855" lon="1.802806">
        <ele>600</ele>
        <time>2023-05-07T10:08:20Z</time>
      </trkpt>
      <trkpt lat="45.471836" lon="1.802869">
        <ele>600</ele>
        <time>2023-05-07T10:08:21Z</time>
      </trkpt>
      <trkpt lat="45.471817" lon="1.802931">
        <ele>600</ele>
        <time>2023-05-07T10:08:22Z</time>
      </trkpt>
      <trkpt lat="45.471799" lon="1.802993">
        <ele>600</ele>
        <time>2023-05-07T10:08:23Z</time>
      </trkpt>
      <trkpt lat="45.471780" lon="1.803054">
        <ele>600</ele>
        <time>2023-05-07T10:08:24Z</time>
      </trkpt>
      <trkpt lat="45.471763" lon="1.803114">
        <ele>600</ele>
        <time>2023-05-07T10:08:25Z</time>
      </trkpt>
      <trkpt lat="45.471746" lon="1.803174">
        <ele>600</ele>
        <time>2023-05-07T10:08:26Z</time>
      </trkpt>
      <trkpt lat="45.471730" lon="1.803231">
        <ele>600</ele>
        <time>2023-05-07T10:08:27Z</time>
      </trkpt>
      <trkpt lat="45.471713" lon="1.803289">
        <ele>600</ele>
        <time>2023-05-07T10:08:28Z</time>
      </trkpt>
      <trkpt lat="45.471696" lon="1.803342">
        <ele>600</ele>
        <time>2023-05-07T10:08:29Z</time>
      </trkpt>
      <trkpt lat="45.471679" lon="1.803396">
        <ele>600</ele>
        <time>2023-05-07T10:08:30Z</time>
      </trkpt>
      <trkpt lat="45.471661" lon="1.803450">
        <ele>600</ele>
        <time>2023-05-07T10:08:31Z</time>
      </trkpt>
      <trkpt lat="45.471644" lon="1.803504">
        <ele>600</ele>
        <time>2023-05-07T10:08:32Z</time>
      </trkpt>
      <trkpt lat="45.471627" lon="1.803559">
        <ele>600</ele>
        <time>2023-05-07T10:08:33Z</time>
      </trkpt>
      <trkpt lat="45.471610" lon="1.803614">
        <ele>600</ele>
        <time>2023-05-07T10:08:34Z</time>
      </trkpt>
      <trkpt lat="45.471594" lon="1.803669">
        <ele>600</ele>
        <time>2023-05-07T10:08:35Z</time>
      </trkpt>
      <trkpt lat="45.471578" lon="1.803725">
        <ele>600</ele>
        <time>2023-05-07T10:08:36Z</time>
      </trkpt>
      <trkpt lat="45.471562" lon="1.803777">
        <ele>600</ele>
        <time>2023-05-07T10:08:37Z</time>
      </trkpt>
      <trkpt lat="45.471547" lon="1.803829">
        <ele>600</ele>
        <time>2023-05-07T10:08:38Z</time>
      </trkpt>
      <trkpt lat="45.471530" lon="1.803876">
        <ele>600</ele>
        <time>2023-05-07T10:08:39Z</time>
      </trkpt>
      <trkpt lat="45.471514" lon="1.803923">
        <ele>600</ele>
        <time>2023-05-07T10:08:40Z</time>
      </trkpt>
      <trkpt lat="45.471497" lon="1.803967">
        <ele>600</ele>
        <time>2023-05-07T10:08:41Z</time>
      </trkpt>
      <trkpt lat="45.471480" lon="1.804011">
        <ele>600</ele>
        <time>2023-05-07T10:08:42Z</time>
      </trkpt>
      <trkpt lat="45.471463" lon="1.804052">
        <ele>600</ele>
        <time>2023-05-07T10:08:43Z</time>
      </trkpt>
      <trkpt lat="45.471446" lon="1.804093">
        <ele>600</ele>
        <time>2023-05-07T10:08:44Z</time>
      </trkpt>
      <trkpt lat="45.471428" lon="1.804129">
        <ele>600</ele>
        <time>2023-05-07T10:08:45Z</time>
      </trkpt>
      <trkpt lat="45.471410" lon="1.804166">
        <ele>600</ele>
        <time>2023-05-07T10:08:46Z</time>
      </trkpt>
      <trkpt lat="45.471393" lon="1.804199">
        <ele>600</ele>
        <time>2023-05-07T10:08:47Z</time>
      </trkpt>
      <trkpt lat="45.471376" lon="1.804232">
        <ele>600</ele>
        <time>2023-05-07T10:08:48Z</time>
      </trkpt>
      <trkpt lat="45.471361" lon="1.804262">
        <ele>600</ele>
        <time>2023-05-07T10:08:49Z</time>
      </trkpt>
      <trkpt lat="45.471346" lon="1.804292">
        <ele>600</ele>
        <time>2023-05-07T10:08:50Z</time>
      </trkpt>
      <trkpt lat="45.471333" lon="1.804321">
        <ele>600</ele>
        <time>2023-05-07T10:08:51Z</time>
      </trkpt>
      <trkpt lat="45.471320" lon="1.804350">
        <ele>600</ele>
        <time>2023-05-07T10:08:52Z</time>
      </trkpt>
      <trkpt lat="45.471309" lon="1.804378">
        <ele>600</ele>
        <time>2023-05-07T10:08:53Z</time>
      </trkpt>
      <trkpt lat="45.471297" lon="1.804405">
        <ele>600</ele>
        <time>2023-05-07T10:08:54Z</time>
      </trkpt>
      <trkpt lat="45.471287" lon="1.804429">
        <ele>600</ele>
        <time>2023-05-07T10:08:55Z</time>
      </trkpt>
      <trkpt lat="45.471276" lon="1.804454">
        <ele>600</ele>
        <time>2023-05-07T10:08:56Z</time>
      </trkpt>
      <trkpt lat="45.471267" lon="1.804478">
        <ele>600</ele>
        <time>2023-05-07T10:08:57Z</time>
      </trkpt>
      <trkpt lat="45.471257" lon="1.804502">
        <ele>600</ele>
        <time>2023-05-07T10:08:58Z</time>
      </trkpt>
      <trkpt lat="45.471248" lon="1.804526">
        <ele>600</ele>
        <time>2023-05-07T10:08:59Z</time>
      </trkpt>
      <trkpt lat="45.471239" lon="1.804550">
        <ele>600</ele>
        <time>2023-05-07T10:09:00Z</time>
      </trkpt>
      <trkpt lat="45.471231" lon="1.804579">
        <ele>600</ele>
        <time>2023-05-07T10:09:01Z</time>
      </trkpt>
      <trkpt lat="45.471223" lon="1.804608">
        <ele>601</ele>
        <time>2023-05-07T10:09:02Z</time>
      </trkpt>
      <trkpt lat="45.471216" lon="1.804639">
        <ele>601</ele>
        <time>2023-05-07T10:09:03Z</time>
      </trkpt>
      <trkpt lat="45.471209" lon="1.804670">
        <ele>601</ele>
        <time>2023-05-07T10:09:04Z</time>
      </trkpt>
      <trkpt lat="45.471203" lon="1.804701">
        <ele>601</ele>
        <time>2023-05-07T10:09:05Z</time>
      </trkpt>
      <trkpt lat="45.471196" lon="1.804732">
        <ele>601</ele>
        <time>2023-05-07T10:09:06Z</time>
      </trkpt>
      <trkpt lat="45.471190" lon="1.804764">
        <ele>602</ele>
        <time>2023-05-07T10:09:07Z</time>
      </trkpt>
      <trkpt lat="45.471184" lon="1.804796">
        <ele>602</ele>
        <time>2023-05-07T10:09:08Z</time>
      </trkpt>
      <trkpt lat="45.471177" lon="1.804825">
        <ele>602</ele>
        <time>2023-05-07T10:09:09Z</time>
      </trkpt>
      <trkpt lat="45.471170" lon="1.804854">
        <ele>602</ele>
        <time>2023-05-07T10:09:10Z</time>
      </trkpt>
      <trkpt lat="45.471165" lon="1.804884">
        <ele>602</ele>
        <time>2023-05-07T10:09:11Z</time>
      </trkpt>
      <trkpt lat="45.471161" lon="1.804913">
        <ele>602</ele>
        <time>2023-05-07T10:09:12Z</time>
      </trkpt>
      <trkpt lat="45.471156" lon="1.804946">
        <ele>602</ele>
        <time>2023-05-07T10:09:13Z</time>
      </trkpt>
      <trkpt lat="45.471152" lon="1.804979">
        <ele>602</ele>
        <time>2023-05-07T10:09:14Z</time>
      </trkpt>
      <trkpt lat="45.471147" lon="1.805015">
        <ele>602</ele>
        <time>2023-05-07T10:09:15Z</time>
      </trkpt>
      <trkpt lat="45.471142" lon="1.805051">
        <ele>602</ele>
        <time>2023-05-07T10:09:16Z</time>
      </trkpt>
      <trkpt lat="45.471137" lon="1.805088">
        <ele>603</ele>
        <time>2023-05-07T10:09:17Z</time>
      </trkpt>
      <trkpt lat="45.471133" lon="1.805125">
        <ele>603</ele>
        <time>2023-05-07T10:09:18Z</time>
      </trkpt>
      <trkpt lat="45.471130" lon="1.805162">
        <ele>603</ele>
        <time>2023-05-07T10:09:19Z</time>
      </trkpt>
      <trkpt lat="45.471127" lon="1.805199">
        <ele>603</ele>
        <time>2023-05-07T10:09:20Z</time>
      </trkpt>
      <trkpt lat="45.471125" lon="1.805237">
        <ele>603</ele>
        <time>2023-05-07T10:09:21Z</time>
      </trkpt>
      <trkpt lat="45.471123" lon="1.805274">
        <ele>604</ele>
        <time>2023-05-07T10:09:22Z</time>
      </trkpt>
      <trkpt lat="45.471120" lon="1.805316">
        <ele>604</ele>
        <time>2023-05-07T10:09:23Z</time>
      </trkpt>
      <trkpt lat="45.471118" lon="1.805357">
        <ele>604</ele>
        <time>2023-05-07T10:09:24Z</time>
      </trkpt>
      <trkpt lat="45.471115" lon="1.805403">
        <ele>604</ele>
        <time>2023-05-07T10:09:25Z</time>
      </trkpt>
      <trkpt lat="45.471112" lon="1.805449">
        <ele>604</ele>
        <time>2023-05-07T10:09:26Z</time>
      </trkpt>
      <trkpt lat="45.471109" lon="1.805495">
        <ele>604</ele>
        <time>2023-05-07T10:09:27Z</time>
      </trkpt>
      <trkpt lat="45.471106" lon="1.805541">
        <ele>604</ele>
        <time>2023-05-07T10:09:28Z</time>
      </trkpt>
      <trkpt lat="45.471104" lon="1.805588">
        <ele>604</ele>
        <time>2023-05-07T10:09:29Z</time>
      </trkpt>
      <trkpt lat="45.471102" lon="1.805636">
        <ele>604</ele>
        <time>2023-05-07T10:09:30Z</time>
      </trkpt>
      <trkpt lat="45.471100" lon="1.805682">
        <ele>604</ele>
        <time>2023-05-07T10:09:31Z</time>
      </trkpt>
      <trkpt lat="45.471097" lon="1.805727">
        <ele>605</ele>
        <time>2023-05-07T10:09:32Z</time>
      </trkpt>
      <trkpt lat="45.471092" lon="1.805771">
        <ele>605</ele>
        <time>2023-05-07T10:09:33Z</time>
      </trkpt>
      <trkpt lat="45.471088" lon="1.805815">
        <ele>605</ele>
        <time>2023-05-07T10:09:34Z</time>
      </trkpt>
      <trkpt lat="45.471083" lon="1.805859">
        <ele>605</ele>
        <time>2023-05-07T10:09:35Z</time>
      </trkpt>
      <trkpt lat="45.471078" lon="1.805902">
        <ele>605</ele>
        <time>2023-05-07T10:09:36Z</time>
      </trkpt>
      <trkpt lat="45.471075" lon="1.805946">
        <ele>605</ele>
        <time>2023-05-07T10:09:37Z</time>
      </trkpt>
      <trkpt lat="45.471072" lon="1.805990">
        <ele>605</ele>
        <time>2023-05-07T10:09:38Z</time>
      </trkpt>
      <trkpt lat="45.471069" lon="1.806034">
        <ele>605</ele>
        <time>2023-05-07T10:09:39Z</time>
      </trkpt>
      <trkpt lat="45.471065" lon="1.806078">
        <ele>605</ele>
        <time>2023-05-07T10:09:40Z</time>
      </trkpt>
      <trkpt lat="45.471061" lon="1.806121">
        <ele>605</ele>
        <time>2023-05-07T10:09:41Z</time>
      </trkpt>
      <trkpt lat="45.471058" lon="1.806165">
        <ele>605</ele>
        <time>2023-05-07T10:09:42Z</time>
      </trkpt>
      <trkpt lat="45.471055" lon="1.806208">
        <ele>605</ele>
        <time>2023-05-07T10:09:43Z</time>
      </trkpt>
      <trkpt lat="45.471052" lon="1.806251">
        <ele>605</ele>
        <time>2023-05-07T10:09:44Z</time>
      </trkpt>
      <trkpt lat="45.471049" lon="1.806295">
        <ele>605</ele>
        <time>2023-05-07T10:09:45Z</time>
      </trkpt>
      <trkpt lat="45.471047" lon="1.806340">
        <ele>605</ele>
        <time>2023-05-07T10:09:46Z</time>
      </trkpt>
      <trkpt lat="45.471044" lon="1.806385">
        <ele>605</ele>
        <time>2023-05-07T10:09:47Z</time>
      </trkpt>
      <trkpt lat="45.471041" lon="1.806430">
        <ele>605</ele>
        <time>2023-05-07T10:09:48Z</time>
      </trkpt>
      <trkpt lat="45.471037" lon="1.806474">
        <ele>605</ele>
        <time>2023-05-07T10:09:49Z</time>
      </trkpt>
      <trkpt lat="45.471034" lon="1.806517">
        <ele>605</ele>
        <time>2023-05-07T10:09:50Z</time>
      </trkpt>
      <trkpt lat="45.471031" lon="1.806562">
        <ele>605</ele>
        <time>2023-05-07T10:09:51Z</time>
      </trkpt>
      <trkpt lat="45.471027" lon="1.806607">
        <ele>605</ele>
        <time>2023-05-07T10:09:52Z</time>
      </trkpt>
      <trkpt lat="45.471024" lon="1.806656">
        <ele>605</ele>
        <time>2023-05-07T10:09:53Z</time>
      </trkpt>
      <trkpt lat="45.471021" lon="1.806706">
        <ele>605</ele>
        <time>2023-05-07T10:09:54Z</time>
      </trkpt>
      <trkpt lat="45.471017" lon="1.806757">
        <ele>605</ele>
        <time>2023-05-07T10:09:55Z</time>
      </trkpt>
      <trkpt lat="45.471013" lon="1.806807">
        <ele>605</ele>
        <time>2023-05-07T10:09:56Z</time>
      </trkpt>
      <trkpt lat="45.471009" lon="1.806858">
        <ele>605</ele>
        <time>2023-05-07T10:09:57Z</time>
      </trkpt>
      <trkpt lat="45.471006" lon="1.806909">
        <ele>605</ele>
        <time>2023-05-07T10:09:58Z</time>
      </trkpt>
      <trkpt lat="45.471001" lon="1.806958">
        <ele>605</ele>
        <time>2023-05-07T10:09:59Z</time>
      </trkpt>
      <trkpt lat="45.470997" lon="1.807008">
        <ele>605</ele>
        <time>2023-05-07T10:10:00Z</time>
      </trkpt>
      <trkpt lat="45.470993" lon="1.807057">
        <ele>605</ele>
        <time>2023-05-07T10:10:01Z</time>
      </trkpt>
      <trkpt lat="45.470989" lon="1.807106">
        <ele>606</ele>
        <time>2023-05-07T10:10:02Z</time>
      </trkpt>
      <trkpt lat="45.470985" lon="1.807154">
        <ele>606</ele>
        <time>2023-05-07T10:10:03Z</time>
      </trkpt>
      <trkpt lat="45.470982" lon="1.807201">
        <ele>606</ele>
        <time>2023-05-07T10:10:04Z</time>
      </trkpt>
      <trkpt lat="45.470981" lon="1.807246">
        <ele>606</ele>
        <time>2023-05-07T10:10:05Z</time>
      </trkpt>
      <trkpt lat="45.470980" lon="1.807290">
        <ele>606</ele>
        <time>2023-05-07T10:10:06Z</time>
      </trkpt>
      <trkpt lat="45.470981" lon="1.807336">
        <ele>606</ele>
        <time>2023-05-07T10:10:07Z</time>
      </trkpt>
      <trkpt lat="45.470982" lon="1.807382">
        <ele>606</ele>
        <time>2023-05-07T10:10:08Z</time>
      </trkpt>
      <trkpt lat="45.470985" lon="1.807434">
        <ele>606</ele>
        <time>2023-05-07T10:10:09Z</time>
      </trkpt>
      <trkpt lat="45.470989" lon="1.807486">
        <ele>606</ele>
        <time>2023-05-07T10:10:10Z</time>
      </trkpt>
      <trkpt lat="45.470994" lon="1.807540">
        <ele>606</ele>
        <time>2023-05-07T10:10:11Z</time>
      </trkpt>
      <trkpt lat="45.470999" lon="1.807595">
        <ele>606</ele>
        <time>2023-05-07T10:10:12Z</time>
      </trkpt>
      <trkpt lat="45.471007" lon="1.807654">
        <ele>606</ele>
        <time>2023-05-07T10:10:13Z</time>
      </trkpt>
      <trkpt lat="45.471015" lon="1.807713">
        <ele>606</ele>
        <time>2023-05-07T10:10:14Z</time>
      </trkpt>
      <trkpt lat="45.471024" lon="1.807771">
        <ele>606</ele>
        <time>2023-05-07T10:10:15Z</time>
      </trkpt>
      <trkpt lat="45.471033" lon="1.807830">
        <ele>606</ele>
        <time>2023-05-07T10:10:16Z</time>
      </trkpt>
      <trkpt lat="45.471042" lon="1.807888">
        <ele>606</ele>
        <time>2023-05-07T10:10:17Z</time>
      </trkpt>
      <trkpt lat="45.471051" lon="1.807947">
        <ele>606</ele>
        <time>2023-05-07T10:10:18Z</time>
      </trkpt>
      <trkpt lat="45.471060" lon="1.808008">
        <ele>606</ele>
        <time>2023-05-07T10:10:19Z</time>
      </trkpt>
      <trkpt lat="45.471068" lon="1.808069">
        <ele>606</ele>
        <time>2023-05-07T10:10:20Z</time>
      </trkpt>
      <trkpt lat="45.471076" lon="1.808132">
        <ele>606</ele>
        <time>2023-05-07T10:10:21Z</time>
      </trkpt>
      <trkpt lat="45.471084" lon="1.808194">
        <ele>606</ele>
        <time>2023-05-07T10:10:22Z</time>
      </trkpt>
      <trkpt lat="45.471093" lon="1.808258">
        <ele>606</ele>
        <time>2023-05-07T10:10:23Z</time>
      </trkpt>
      <trkpt lat="45.471102" lon="1.808322">
        <ele>606</ele>
        <time>2023-05-07T10:10:24Z</time>
      </trkpt>
      <trkpt lat="45.471112" lon="1.808383">
        <ele>606</ele>
        <time>2023-05-07T10:10:25Z</time>
      </trkpt>
      <trkpt lat="45.471123" lon="1.808445">
        <ele>606</ele>
        <time>2023-05-07T10:10:26Z</time>
      </trkpt>
      <trkpt lat="45.471132" lon="1.808507">
        <ele>606</ele>
        <time>2023-05-07T10:10:27Z</time>
      </trkpt>
      <trkpt lat="45.471141" lon="1.808569">
        <ele>606</ele>
        <time>2023-05-07T10:10:28Z</time>
      </trkpt>
      <trkpt lat="45.471152" lon="1.808634">
        <ele>606</ele>
        <time>2023-05-07T10:10:29Z</time>
      </trkpt>
      <trkpt lat="45.471162" lon="1.808699">
        <ele>606</ele>
        <time>2023-05-07T10:10:30Z</time>
      </trkpt>
      <trkpt lat="45.471173" lon="1.808765">
        <ele>606</ele>
        <time>2023-05-07T10:10:31Z</time>
      </trkpt>
      <trkpt lat="45.471184" lon="1.808830">
        <ele>606</ele>
        <time>2023-05-07T10:10:32Z</time>
      </trkpt>
      <trkpt lat="45.471194" lon="1.808899">
        <ele>606</ele>
        <time>2023-05-07T10:10:33Z</time>
      </trkpt>
      <trkpt lat="45.471205" lon="1.808968">
        <ele>606</ele>
        <time>2023-05-07T10:10:34Z</time>
      </trkpt>
      <trkpt lat="45.471216" lon="1.809039">
        <ele>606</ele>
        <time>2023-05-07T10:10:35Z</time>
      </trkpt>
      <trkpt lat="45.471227" lon="1.809110">
        <ele>606</ele>
        <time>2023-05-07T10:10:36Z</time>
      </trkpt>
      <trkpt lat="45.471239" lon="1.809190">
        <ele>606</ele>
        <time>2023-05-07T10:10:37Z</time>
      </trkpt>
      <trkpt lat="45.471251" lon="1.809269">
        <ele>605</ele>
        <time>2023-05-07T10:10:38Z</time>
      </trkpt>
      <trkpt lat="45.471266" lon="1.809356">
        <ele>605</ele>
        <time>2023-05-07T10:10:39Z</time>
      </trkpt>
      <trkpt lat="45.471280" lon="1.809442">
        <ele>605</ele>
        <time>2023-05-07T10:10:40Z</time>
      </trkpt>
      <trkpt lat="45.471297" lon="1.809533">
        <ele>605</ele>
        <time>2023-05-07T10:10:41Z</time>
      </trkpt>
      <trkpt lat="45.471315" lon="1.809624">
        <ele>605</ele>
        <time>2023-05-07T10:10:42Z</time>
      </trkpt>
      <trkpt lat="45.471336" lon="1.809714">
        <ele>604</ele>
        <time>2023-05-07T10:10:43Z</time>
      </trkpt>
      <trkpt lat="45.471357" lon="1.809805">
        <ele>604</ele>
        <time>2023-05-07T10:10:44Z</time>
      </trkpt>
      <trkpt lat="45.471380" lon="1.809891">
        <ele>604</ele>
        <time>2023-05-07T10:10:45Z</time>
      </trkpt>
      <trkpt lat="45.471404" lon="1.809978">
        <ele>604</ele>
        <time>2023-05-07T10:10:46Z</time>
      </trkpt>
      <trkpt lat="45.471427" lon="1.810060">
        <ele>604</ele>
        <time>2023-05-07T10:10:47Z</time>
      </trkpt>
      <trkpt lat="45.471451" lon="1.810142">
        <ele>603</ele>
        <time>2023-05-07T10:10:48Z</time>
      </trkpt>
      <trkpt lat="45.471472" lon="1.810218">
        <ele>603</ele>
        <time>2023-05-07T10:10:49Z</time>
      </trkpt>
      <trkpt lat="45.471494" lon="1.810293">
        <ele>603</ele>
        <time>2023-05-07T10:10:50Z</time>
      </trkpt>
      <trkpt lat="45.471511" lon="1.810365">
        <ele>603</ele>
        <time>2023-05-07T10:10:51Z</time>
      </trkpt>
      <trkpt lat="45.471528" lon="1.810436">
        <ele>603</ele>
        <time>2023-05-07T10:10:52Z</time>
      </trkpt>
      <trkpt lat="45.471536" lon="1.810500">
        <ele>602</ele>
        <time>2023-05-07T10:10:53Z</time>
      </trkpt>
      <trkpt lat="45.471545" lon="1.810564">
        <ele>602</ele>
        <time>2023-05-07T10:10:54Z</time>
      </trkpt>
      <trkpt lat="45.471542" lon="1.810625">
        <ele>602</ele>
        <time>2023-05-07T10:10:55Z</time>
      </trkpt>
      <trkpt lat="45.471540" lon="1.810687">
        <ele>602</ele>
        <time>2023-05-07T10:10:56Z</time>
      </trkpt>
      <trkpt lat="45.471531" lon="1.810744">
        <ele>602</ele>
        <time>2023-05-07T10:10:57Z</time>
      </trkpt>
      <trkpt lat="45.471522" lon="1.810801">
        <ele>602</ele>
        <time>2023-05-07T10:10:58Z</time>
      </trkpt>
      <trkpt lat="45.471511" lon="1.810853">
        <ele>602</ele>
        <time>2023-05-07T10:10:59Z</time>
      </trkpt>
      <trkpt lat="45.471500" lon="1.810905">
        <ele>602</ele>
        <time>2023-05-07T10:11:00Z</time>
      </trkpt>
      <trkpt lat="45.471490" lon="1.810955">
        <ele>602</ele>
        <time>2023-05-07T10:11:01Z</time>
      </trkpt>
      <trkpt lat="45.471480" lon="1.811006">
        <ele>602</ele>
        <time>2023-05-07T10:11:02Z</time>
      </trkpt>
      <trkpt lat="45.471473" lon="1.811055">
        <ele>602</ele>
        <time>2023-05-07T10:11:03Z</time>
      </trkpt>
      <trkpt lat="45.471466" lon="1.811104">
        <ele>602</ele>
        <time>2023-05-07T10:11:04Z</time>
      </trkpt>
      <trkpt lat="45.471462" lon="1.811150">
        <ele>602</ele>
        <time>2023-05-07T10:11:05Z</time>
      </trkpt>
      <trkpt lat="45.471457" lon="1.811196">
        <ele>602</ele>
        <time>2023-05-07T10:11:06Z</time>
      </trkpt>
      <trkpt lat="45.471454" lon="1.811242">
        <ele>602</ele>
        <time>2023-05-07T10:11:07Z</time>
      </trkpt>
      <trkpt lat="45.471451" lon="1.811287">
        <ele>602</ele>
        <time>2023-05-07T10:11:08Z</time>
      </trkpt>
      <trkpt lat="45.471449" lon="1.811334">
        <ele>602</ele>
        <time>2023-05-07T10:11:09Z</time>
      </trkpt>
      <trkpt lat="45.471446" lon="1.811381">
        <ele>602</ele>
        <time>2023-05-07T10:11:10Z</time>
      </trkpt>
      <trkpt lat="45.471444" lon="1.811428">
        <ele>602</ele>
        <time>2023-05-07T10:11:11Z</time>
      </trkpt>
      <trkpt lat="45.471442" lon="1.811474">
        <ele>602</ele>
        <time>2023-05-07T10:11:12Z</time>
      </trkpt>
      <trkpt lat="45.471439" lon="1.811521">
        <ele>602</ele>
        <time>2023-05-07T10:11:13Z</time>
      </trkpt>
      <trkpt lat="45.471436" lon="1.811567">
        <ele>602</ele>
        <time>2023-05-07T10:11:14Z</time>
      </trkpt>
      <trkpt lat="45.471432" lon="1.811610">
        <ele>602</ele>
        <time>2023-05-07T10:11:15Z</time>
      </trkpt>
      <trkpt lat="45.471428" lon="1.811653">
        <ele>602</ele>
        <time>2023-05-07T10:11:16Z</time>
      </trkpt>
      <trkpt lat="45.471422" lon="1.811697">
        <ele>602</ele>
        <time>2023-05-07T10:11:17Z</time>
      </trkpt>
      <trkpt lat="45.471416" lon="1.811740">
        <ele>602</ele>
        <time>2023-05-07T10:11:18Z</time>
      </trkpt>
      <trkpt lat="45.471409" lon="1.811781">
        <ele>602</ele>
        <time>2023-05-07T10:11:19Z</time>
      </trkpt>
      <trkpt lat="45.471402" lon="1.811823">
        <ele>602</ele>
        <time>2023-05-07T10:11:20Z</time>
      </trkpt>
      <trkpt lat="45.471395" lon="1.811863">
        <ele>602</ele>
        <time>2023-05-07T10:11:21Z</time>
      </trkpt>
      <trkpt lat="45.471388" lon="1.811903">
        <ele>602</ele>
        <time>2023-05-07T10:11:22Z</time>
      </trkpt>
      <trkpt lat="45.471381" lon="1.811942">
        <ele>602</ele>
        <time>2023-05-07T10:11:23Z</time>
      </trkpt>
      <trkpt lat="45.471374" lon="1.811981">
        <ele>602</ele>
        <time>2023-05-07T10:11:24Z</time>
      </trkpt>
      <trkpt lat="45.471369" lon="1.812020">
        <ele>602</ele>
        <time>2023-05-07T10:11:25Z</time>
      </trkpt>
      <trkpt lat="45.471364" lon="1.812060">
        <ele>602</ele>
        <time>2023-05-07T10:11:26Z</time>
      </trkpt>
      <trkpt lat="45.471361" lon="1.812100">
        <ele>603</ele>
        <time>2023-05-07T10:11:27Z</time>
      </trkpt>
      <trkpt lat="45.471359" lon="1.812140">
        <ele>603</ele>
        <time>2023-05-07T10:11:28Z</time>
      </trkpt>
      <trkpt lat="45.471359" lon="1.812179">
        <ele>603</ele>
        <time>2023-05-07T10:11:29Z</time>
      </trkpt>
      <trkpt lat="45.471359" lon="1.812219">
        <ele>603</ele>
        <time>2023-05-07T10:11:30Z</time>
      </trkpt>
      <trkpt lat="45.471362" lon="1.812256">
        <ele>603</ele>
        <time>2023-05-07T10:11:31Z</time>
      </trkpt>
      <trkpt lat="45.471365" lon="1.812293">
        <ele>603</ele>
        <time>2023-05-07T10:11:32Z</time>
      </trkpt>
      <trkpt lat="45.471370" lon="1.812328">
        <ele>603</ele>
        <time>2023-05-07T10:11:33Z</time>
      </trkpt>
      <trkpt lat="45.471375" lon="1.812364">
        <ele>603</ele>
        <time>2023-05-07T10:11:34Z</time>
      </trkpt>
      <trkpt lat="45.471381" lon="1.812398">
        <ele>603</ele>
        <time>2023-05-07T10:11:35Z</time>
      </trkpt>
      <trkpt lat="45.471387" lon="1.812433">
        <ele>603</ele>
        <time>2023-05-07T10:11:36Z</time>
      </trkpt>
      <trkpt lat="45.471393" lon="1.812463">
        <ele>603</ele>
        <time>2023-05-07T10:11:37Z</time>
      </trkpt>
      <trkpt lat="45.471399" lon="1.812492">
        <ele>603</ele>
        <time>2023-05-07T10:11:38Z</time>
      </trkpt>
      <trkpt lat="45.471403" lon="1.812520">
        <ele>603</ele>
        <time>2023-05-07T10:11:39Z</time>
      </trkpt>
      <trkpt lat="45.471407" lon="1.812548">
        <ele>603</ele>
        <time>2023-05-07T10:11:40Z</time>
      </trkpt>
      <trkpt lat="45.471411" lon="1.812576">
        <ele>603</ele>
        <time>2023-05-07T10:11:41Z</time>
      </trkpt>
      <trkpt lat="45.471414" lon="1.812603">
        <ele>604</ele>
        <time>2023-05-07T10:11:42Z</time>
      </trkpt>
      <trkpt lat="45.471418" lon="1.812631">
        <ele>604</ele>
        <time>2023-05-07T10:11:43Z</time>
      </trkpt>
      <trkpt lat="45.471423" lon="1.812659">
        <ele>604</ele>
        <time>2023-05-07T10:11:44Z</time>
      </trkpt>
      <trkpt lat="45.471428" lon="1.812688">
        <ele>604</ele>
        <time>2023-05-07T10:11:45Z</time>
      </trkpt>
      <trkpt lat="45.471433" lon="1.812717">
        <ele>604</ele>
        <time>2023-05-07T10:11:46Z</time>
      </trkpt>
      <trkpt lat="45.471440" lon="1.812745">
        <ele>604</ele>
        <time>2023-05-07T10:11:47Z</time>
      </trkpt>
      <trkpt lat="45.471446" lon="1.812774">
        <ele>604</ele>
        <time>2023-05-07T10:11:48Z</time>
      </trkpt>
      <trkpt lat="45.471453" lon="1.812803">
        <ele>604</ele>
        <time>2023-05-07T10:11:49Z</time>
      </trkpt>
      <trkpt lat="45.471459" lon="1.812832">
        <ele>604</ele>
        <time>2023-05-07T10:11:50Z</time>
      </trkpt>
      <trkpt lat="45.471467" lon="1.812862">
        <ele>604</ele>
        <time>2023-05-07T10:11:51Z</time>
      </trkpt>
      <trkpt lat="45.471474" lon="1.812891">
        <ele>605</ele>
        <time>2023-05-07T10:11:52Z</time>
      </trkpt>
      <trkpt lat="45.471480" lon="1.812921">
        <ele>605</ele>
        <time>2023-05-07T10:11:53Z</time>
      </trkpt>
      <trkpt lat="45.471487" lon="1.812951">
        <ele>605</ele>
        <time>2023-05-07T10:11:54Z</time>
      </trkpt>
      <trkpt lat="45.471493" lon="1.812980">
        <ele>605</ele>
        <time>2023-05-07T10:11:55Z</time>
      </trkpt>
      <trkpt lat="45.471499" lon="1.813008">
        <ele>605</ele>
        <time>2023-05-07T10:11:56Z</time>
      </trkpt>
      <trkpt lat="45.471505" lon="1.813036">
        <ele>605</ele>
        <time>2023-05-07T10:11:57Z</time>
      </trkpt>
      <trkpt lat="45.471511" lon="1.813064">
        <ele>605</ele>
        <time>2023-05-07T10:11:58Z</time>
      </trkpt>
      <trkpt lat="45.471516" lon="1.813091">
        <ele>605</ele>
        <time>2023-05-07T10:11:59Z</time>
      </trkpt>
      <trkpt lat="45.471521" lon="1.813118">
        <ele>605</ele>
        <time>2023-05-07T10:12:00Z</time>
      </trkpt>
      <trkpt lat="45.471527" lon="1.813147">
        <ele>605</ele>
        <time>2023-05-07T10:12:01Z</time>
      </trkpt>
      <trkpt lat="45.471532" lon="1.813176">
        <ele>606</ele>
        <time>2023-05-07T10:12:02Z</time>
      </trkpt>
      <trkpt lat="45.471537" lon="1.813204">
        <ele>606</ele>
        <time>2023-05-07T10:12:03Z</time>
      </trkpt>
      <trkpt lat="45.471542" lon="1.813232">
        <ele>606</ele>
        <time>2023-05-07T10:12:04Z</time>
      </trkpt>
      <trkpt lat="45.471546" lon="1.813260">
        <ele>606</ele>
        <time>2023-05-07T10:12:05Z</time>
      </trkpt>
      <trkpt lat="45.471550" lon="1.813288">
        <ele>606</ele>
        <time>2023-05-07T10:12:06Z</time>
      </trkpt>
      <trkpt lat="45.471552" lon="1.813317">
        <ele>606</ele>
        <time>2023-05-07T10:12:07Z</time>
      </trkpt>
      <trkpt lat="45.471554" lon="1.813346">
        <ele>606</ele>
        <time>2023-05-07T10:12:08Z</time>
      </trkpt>
      <trkpt lat="45.471556" lon="1.813374">
        <ele>606</ele>
        <time>2023-05-07T10:12:09Z</time>
      </trkpt>
      <trkpt lat="45.471558" lon="1.813403">
        <ele>606</ele>
        <time>2023-05-07T10:12:10Z</time>
      </trkpt>
      <trkpt lat="45.471560" lon="1.813431">
        <ele>606</ele>
        <time>2023-05-07T10:12:11Z</time>
      </trkpt>
      <trkpt lat="45.471562" lon="1.813459">
        <ele>607</ele>
        <time>2023-05-07T10:12:12Z</time>
      </trkpt>
      <trkpt lat="45.471563" lon="1.813487">
        <ele>607</ele>
        <time>2023-05-07T10:12:13Z</time>
      </trkpt>
      <trkpt lat="45.471564" lon="1.813514">
        <ele>607</ele>
        <time>2023-05-07T10:12:14Z</time>
      </trkpt>
      <trkpt lat="45.471565" lon="1.813543">
        <ele>607</ele>
        <time>2023-05-07T10:12:15Z</time>
      </trkpt>
      <trkpt lat="45.471567" lon="1.813571">
        <ele>607</ele>
        <time>2023-05-07T10:12:16Z</time>
      </trkpt>
      <trkpt lat="45.471569" lon="1.813599">
        <ele>608</ele>
        <time>2023-05-07T10:12:17Z</time>
      </trkpt>
      <trkpt lat="45.471572" lon="1.813628">
        <ele>608</ele>
        <time>2023-05-07T10:12:18Z</time>
      </trkpt>
      <trkpt lat="45.471576" lon="1.813656">
        <ele>608</ele>
        <time>2023-05-07T10:12:19Z</time>
      </trkpt>
      <trkpt lat="45.471580" lon="1.813684">
        <ele>608</ele>
        <time>2023-05-07T10:12:20Z</time>
      </trkpt>
      <trkpt lat="45.471586" lon="1.813711">
        <ele>608</ele>
        <time>2023-05-07T10:12:21Z</time>
      </trkpt>
      <trkpt lat="45.471592" lon="1.813739">
        <ele>609</ele>
        <time>2023-05-07T10:12:22Z</time>
      </trkpt>
      <trkpt lat="45.471600" lon="1.813768">
        <ele>609</ele>
        <time>2023-05-07T10:12:23Z</time>
      </trkpt>
      <trkpt lat="45.471607" lon="1.813797">
        <ele>609</ele>
        <time>2023-05-07T10:12:24Z</time>
      </trkpt>
      <trkpt lat="45.471615" lon="1.813827">
        <ele>609</ele>
        <time>2023-05-07T10:12:25Z</time>
      </trkpt>
      <trkpt lat="45.471622" lon="1.813856">
        <ele>609</ele>
        <time>2023-05-07T10:12:26Z</time>
      </trkpt>
      <trkpt lat="45.471630" lon="1.813886">
        <ele>609</ele>
        <time>2023-05-07T10:12:27Z</time>
      </trkpt>
      <trkpt lat="45.471637" lon="1.813916">
        <ele>609</ele>
        <time>2023-05-07T10:12:28Z</time>
      </trkpt>
      <trkpt lat="45.471645" lon="1.813945">
        <ele>609</ele>
        <time>2023-05-07T10:12:29Z</time>
      </trkpt>
      <trkpt lat="45.471653" lon="1.813973">
        <ele>609</ele>
        <time>2023-05-07T10:12:30Z</time>
      </trkpt>
      <trkpt lat="45.471662" lon="1.814002">
        <ele>609</ele>
        <time>2023-05-07T10:12:31Z</time>
      </trkpt>
      <trkpt lat="45.471671" lon="1.814030">
        <ele>610</ele>
        <time>2023-05-07T10:12:32Z</time>
      </trkpt>
      <trkpt lat="45.471682" lon="1.814058">
        <ele>610</ele>
        <time>2023-05-07T10:12:33Z</time>
      </trkpt>
      <trkpt lat="45.471692" lon="1.814086">
        <ele>610</ele>
        <time>2023-05-07T10:12:34Z</time>
      </trkpt>
      <trkpt lat="45.471702" lon="1.814113">
        <ele>610</ele>
        <time>2023-05-07T10:12:35Z</time>
      </trkpt>
      <trkpt lat="45.471712" lon="1.814140">
        <ele>610</ele>
        <time>2023-05-07T10:12:36Z</time>
      </trkpt>
      <trkpt lat="45.471723" lon="1.814167">
        <ele>610</ele>
        <time>2023-05-07T10:12:37Z</time>
      </trkpt>
      <trkpt lat="45.471733" lon="1.814195">
        <ele>610</ele>
        <time>2023-05-07T10:12:38Z</time>
      </trkpt>
      <trkpt lat="45.471745" lon="1.814223">
        <ele>610</ele>
        <time>2023-05-07T10:12:39Z</time>
      </trkpt>
      <trkpt lat="45.471756" lon="1.814250">
        <ele>610</ele>
        <time>2023-05-07T10:12:40Z</time>
      </trkpt>
      <trkpt lat="45.471768" lon="1.814276">
        <ele>610</ele>
        <time>2023-05-07T10:12:41Z</time>
      </trkpt>
      <trkpt lat="45.471779" lon="1.814302">
        <ele>610</ele>
        <time>2023-05-07T10:12:42Z</time>
      </trkpt>
      <trkpt lat="45.471791" lon="1.814326">
        <ele>610</ele>
        <time>2023-05-07T10:12:43Z</time>
      </trkpt>
      <trkpt lat="45.471802" lon="1.814350">
        <ele>610</ele>
        <time>2023-05-07T10:12:44Z</time>
      </trkpt>
      <trkpt lat="45.471814" lon="1.814372">
        <ele>610</ele>
        <time>2023-05-07T10:12:45Z</time>
      </trkpt>
      <trkpt lat="45.471826" lon="1.814394">
        <ele>610</ele>
        <time>2023-05-07T10:12:46Z</time>
      </trkpt>
      <trkpt lat="45.471838" lon="1.814414">
        <ele>611</ele>
        <time>2023-05-07T10:12:47Z</time>
      </trkpt>
      <trkpt lat="45.471851" lon="1.814434">
        <ele>611</ele>
        <time>2023-05-07T10:12:48Z</time>
      </trkpt>
      <trkpt lat="45.471861" lon="1.814454">
        <ele>611</ele>
        <time>2023-05-07T10:12:49Z</time>
      </trkpt>
      <trkpt lat="45.471871" lon="1.814475">
        <ele>611</ele>
        <time>2023-05-07T10:12:50Z</time>
      </trkpt>
      <trkpt lat="45.471879" lon="1.814496">
        <ele>611</ele>
        <time>2023-05-07T10:12:51Z</time>
      </trkpt>
      <trkpt lat="45.471888" lon="1.814517">
        <ele>611</ele>
        <time>2023-05-07T10:12:52Z</time>
      </trkpt>
      <trkpt lat="45.471896" lon="1.814537">
        <ele>611</ele>
        <time>2023-05-07T10:12:53Z</time>
      </trkpt>
      <trkpt lat="45.471905" lon="1.814558">
        <ele>611</ele>
        <time>2023-05-07T10:12:54Z</time>
      </trkpt>
      <trkpt lat="45.471914" lon="1.814574">
        <ele>611</ele>
        <time>2023-05-07T10:12:55Z</time>
      </trkpt>
      <trkpt lat="45.471923" lon="1.814591">
        <ele>611</ele>
        <time>2023-05-07T10:12:56Z</time>
      </trkpt>
      <trkpt lat="45.471933" lon="1.814604">
        <ele>612</ele>
        <time>2023-05-07T10:12:57Z</time>
      </trkpt>
      <trkpt lat="45.471943" lon="1.814617">
        <ele>612</ele>
        <time>2023-05-07T10:12:58Z</time>
      </trkpt>
      <trkpt lat="45.471950" lon="1.814630">
        <ele>612</ele>
        <time>2023-05-07T10:12:59Z</time>
      </trkpt>
      <trkpt lat="45.471956" lon="1.814643">
        <ele>612</ele>
        <time>2023-05-07T10:13:00Z</time>
      </trkpt>
      <trkpt lat="45.471958" lon="1.814647">
        <ele>612</ele>
        <time>2023-05-07T10:13:01Z</time>
      </trkpt>
      <trkpt lat="45.471959" lon="1.814651">
        <ele>612</ele>
        <time>2023-05-07T10:13:02Z</time>
      </trkpt>
      <trkpt lat="45.471960" lon="1.814655">
        <ele>612</ele>
        <time>2023-05-07T10:13:03Z</time>
      </trkpt>
      <trkpt lat="45.471962" lon="1.814666">
        <ele>612</ele>
        <time>2023-05-07T10:13:04Z</time>
      </trkpt>
      <trkpt lat="45.471965" lon="1.814676">
        <ele>612</ele>
        <time>2023-05-07T10:13:05Z</time>
      </trkpt>
      <trkpt lat="45.471969" lon="1.814690">
        <ele>612</ele>
        <time>2023-05-07T10:13:06Z</time>
      </trkpt>
      <trkpt lat="45.471972" lon="1.814703">
        <ele>612</ele>
        <time>2023-05-07T10:13:07Z</time>
      </trkpt>
      <trkpt lat="45.471981" lon="1.814723">
        <ele>612</ele>
        <time>2023-05-07T10:13:08Z</time>
      </trkpt>
      <trkpt lat="45.471989" lon="1.814743">
        <ele>612</ele>
        <time>2023-05-07T10:13:09Z</time>
      </trkpt>
      <trkpt lat="45.472000" lon="1.814768">
        <ele>612</ele>
        <time>2023-05-07T10:13:10Z</time>
      </trkpt>
      <trkpt lat="45.472011" lon="1.814792">
        <ele>612</ele>
        <time>2023-05-07T10:13:11Z</time>
      </trkpt>
      <trkpt lat="45.472022" lon="1.814817">
        <ele>613</ele>
        <time>2023-05-07T10:13:12Z</time>
      </trkpt>
      <trkpt lat="45.472033" lon="1.814842">
        <ele>613</ele>
        <time>2023-05-07T10:13:13Z</time>
      </trkpt>
      <trkpt lat="45.472042" lon="1.814866">
        <ele>613</ele>
        <time>2023-05-07T10:13:14Z</time>
      </trkpt>
      <trkpt lat="45.472051" lon="1.814889">
        <ele>613</ele>
        <time>2023-05-07T10:13:15Z</time>
      </trkpt>
      <trkpt lat="45.472059" lon="1.814912">
        <ele>613</ele>
        <time>2023-05-07T10:13:16Z</time>
      </trkpt>
      <trkpt lat="45.472067" lon="1.814936">
        <ele>613</ele>
        <time>2023-05-07T10:13:17Z</time>
      </trkpt>
      <trkpt lat="45.472076" lon="1.814960">
        <ele>613</ele>
        <time>2023-05-07T10:13:18Z</time>
      </trkpt>
      <trkpt lat="45.472086" lon="1.814984">
        <ele>613</ele>
        <time>2023-05-07T10:13:19Z</time>
      </trkpt>
      <trkpt lat="45.472098" lon="1.815011">
        <ele>613</ele>
        <time>2023-05-07T10:13:20Z</time>
      </trkpt>
      <trkpt lat="45.472111" lon="1.815038">
        <ele>613</ele>
        <time>2023-05-07T10:13:21Z</time>
      </trkpt>
      <trkpt lat="45.472126" lon="1.815068">
        <ele>613</ele>
        <time>2023-05-07T10:13:22Z</time>
      </trkpt>
      <trkpt lat="45.472141" lon="1.815098">
        <ele>613</ele>
        <time>2023-05-07T10:13:23Z</time>
      </trkpt>
      <trkpt lat="45.472158" lon="1.815135">
        <ele>613</ele>
        <time>2023-05-07T10:13:24Z</time>
      </trkpt>
      <trkpt lat="45.472175" lon="1.815171">
        <ele>613</ele>
        <time>2023-05-07T10:13:25Z</time>
      </trkpt>
      <trkpt lat="45.472194" lon="1.815215">
        <ele>613</ele>
        <time>2023-05-07T10:13:26Z</time>
      </trkpt>
      <trkpt lat="45.472214" lon="1.815260">
        <ele>613</ele>
        <time>2023-05-07T10:13:27Z</time>
      </trkpt>
      <trkpt lat="45.472235" lon="1.815310">
        <ele>613</ele>
        <time>2023-05-07T10:13:28Z</time>
      </trkpt>
      <trkpt lat="45.472256" lon="1.815360">
        <ele>613</ele>
        <time>2023-05-07T10:13:29Z</time>
      </trkpt>
      <trkpt lat="45.472276" lon="1.815417">
        <ele>613</ele>
        <time>2023-05-07T10:13:30Z</time>
      </trkpt>
      <trkpt lat="45.472297" lon="1.815474">
        <ele>613</ele>
        <time>2023-05-07T10:13:31Z</time>
      </trkpt>
      <trkpt lat="45.472316" lon="1.815533">
        <ele>613</ele>
        <time>2023-05-07T10:13:32Z</time>
      </trkpt>
      <trkpt lat="45.472335" lon="1.815593">
        <ele>613</ele>
        <time>2023-05-07T10:13:33Z</time>
      </trkpt>
      <trkpt lat="45.472352" lon="1.815652">
        <ele>613</ele>
        <time>2023-05-07T10:13:34Z</time>
      </trkpt>
      <trkpt lat="45.472369" lon="1.815710">
        <ele>613</ele>
        <time>2023-05-07T10:13:35Z</time>
      </trkpt>
      <trkpt lat="45.472383" lon="1.815766">
        <ele>613</ele>
        <time>2023-05-07T10:13:36Z</time>
      </trkpt>
      <trkpt lat="45.472397" lon="1.815821">
        <ele>613</ele>
        <time>2023-05-07T10:13:37Z</time>
      </trkpt>
      <trkpt lat="45.472409" lon="1.815871">
        <ele>612</ele>
        <time>2023-05-07T10:13:38Z</time>
      </trkpt>
      <trkpt lat="45.472422" lon="1.815922">
        <ele>612</ele>
        <time>2023-05-07T10:13:39Z</time>
      </trkpt>
      <trkpt lat="45.472431" lon="1.815967">
        <ele>612</ele>
        <time>2023-05-07T10:13:40Z</time>
      </trkpt>
      <trkpt lat="45.472440" lon="1.816013">
        <ele>612</ele>
        <time>2023-05-07T10:13:41Z</time>
      </trkpt>
      <trkpt lat="45.472448" lon="1.816055">
        <ele>612</ele>
        <time>2023-05-07T10:13:42Z</time>
      </trkpt>
      <trkpt lat="45.472457" lon="1.816097">
        <ele>612</ele>
        <time>2023-05-07T10:13:43Z</time>
      </trkpt>
      <trkpt lat="45.472465" lon="1.816137">
        <ele>612</ele>
        <time>2023-05-07T10:13:44Z</time>
      </trkpt>
      <trkpt lat="45.472473" lon="1.816177">
        <ele>612</ele>
        <time>2023-05-07T10:13:45Z</time>
      </trkpt>
      <trkpt lat="45.472482" lon="1.816214">
        <ele>612</ele>
        <time>2023-05-07T10:13:46Z</time>
      </trkpt>
      <trkpt lat="45.472492" lon="1.816252">
        <ele>612</ele>
        <time>2023-05-07T10:13:47Z</time>
      </trkpt>
      <trkpt lat="45.472502" lon="1.816287">
        <ele>612</ele>
        <time>2023-05-07T10:13:48Z</time>
      </trkpt>
      <trkpt lat="45.472512" lon="1.816322">
        <ele>612</ele>
        <time>2023-05-07T10:13:49Z</time>
      </trkpt>
      <trkpt lat="45.472520" lon="1.816358">
        <ele>612</ele>
        <time>2023-05-07T10:13:50Z</time>
      </trkpt>
      <trkpt lat="45.472529" lon="1.816393">
        <ele>612</ele>
        <time>2023-05-07T10:13:51Z</time>
      </trkpt>
      <trkpt lat="45.472537" lon="1.816427">
        <ele>612</ele>
        <time>2023-05-07T10:13:52Z</time>
      </trkpt>
      <trkpt lat="45.472544" lon="1.816460">
        <ele>612</ele>
        <time>2023-05-07T10:13:53Z</time>
      </trkpt>
      <trkpt lat="45.472552" lon="1.816489">
        <ele>612</ele>
        <time>2023-05-07T10:13:54Z</time>
      </trkpt>
      <trkpt lat="45.472560" lon="1.816519">
        <ele>612</ele>
        <time>2023-05-07T10:13:55Z</time>
      </trkpt>
      <trkpt lat="45.472568" lon="1.816548">
        <ele>612</ele>
        <time>2023-05-07T10:13:56Z</time>
      </trkpt>
      <trkpt lat="45.472577" lon="1.816577">
        <ele>612</ele>
        <time>2023-05-07T10:13:57Z</time>
      </trkpt>
      <trkpt lat="45.472584" lon="1.816609">
        <ele>612</ele>
        <time>2023-05-07T10:13:58Z</time>
      </trkpt>
      <trkpt lat="45.472591" lon="1.816641">
        <ele>612</ele>
        <time>2023-05-07T10:13:59Z</time>
      </trkpt>
      <trkpt lat="45.472599" lon="1.816673">
        <ele>612</ele>
        <time>2023-05-07T10:14:00Z</time>
      </trkpt>
      <trkpt lat="45.472606" lon="1.816705">
        <ele>612</ele>
        <time>2023-05-07T10:14:01Z</time>
      </trkpt>
      <trkpt lat="45.472615" lon="1.816737">
        <ele>612</ele>
        <time>2023-05-07T10:14:02Z</time>
      </trkpt>
      <trkpt lat="45.472623" lon="1.816769">
        <ele>612</ele>
        <time>2023-05-07T10:14:03Z</time>
      </trkpt>
      <trkpt lat="45.472633" lon="1.816802">
        <ele>612</ele>
        <time>2023-05-07T10:14:04Z</time>
      </trkpt>
      <trkpt lat="45.472642" lon="1.816834">
        <ele>612</ele>
        <time>2023-05-07T10:14:05Z</time>
      </trkpt>
      <trkpt lat="45.472652" lon="1.816865">
        <ele>612</ele>
        <time>2023-05-07T10:14:06Z</time>
      </trkpt>
      <trkpt lat="45.472662" lon="1.816896">
        <ele>613</ele>
        <time>2023-05-07T10:14:07Z</time>
      </trkpt>
      <trkpt lat="45.472671" lon="1.816926">
        <ele>613</ele>
        <time>2023-05-07T10:14:08Z</time>
      </trkpt>
      <trkpt lat="45.472680" lon="1.816956">
        <ele>613</ele>
        <time>2023-05-07T10:14:09Z</time>
      </trkpt>
      <trkpt lat="45.472690" lon="1.816987">
        <ele>613</ele>
        <time>2023-05-07T10:14:10Z</time>
      </trkpt>
      <trkpt lat="45.472699" lon="1.817018">
        <ele>613</ele>
        <time>2023-05-07T10:14:11Z</time>
      </trkpt>
      <trkpt lat="45.472709" lon="1.817047">
        <ele>613</ele>
        <time>2023-05-07T10:14:12Z</time>
      </trkpt>
      <trkpt lat="45.472719" lon="1.817076">
        <ele>613</ele>
        <time>2023-05-07T10:14:13Z</time>
      </trkpt>
      <trkpt lat="45.472728" lon="1.817103">
        <ele>613</ele>
        <time>2023-05-07T10:14:14Z</time>
      </trkpt>
      <trkpt lat="45.472738" lon="1.817129">
        <ele>613</ele>
        <time>2023-05-07T10:14:15Z</time>
      </trkpt>
      <trkpt lat="45.472747" lon="1.817154">
        <ele>613</ele>
        <time>2023-05-07T10:14:16Z</time>
      </trkpt>
      <trkpt lat="45.472757" lon="1.817179">
        <ele>613</ele>
        <time>2023-05-07T10:14:17Z</time>
      </trkpt>
      <trkpt lat="45.472766" lon="1.817203">
        <ele>613</ele>
        <time>2023-05-07T10:14:18Z</time>
      </trkpt>
      <trkpt lat="45.472775" lon="1.817227">
        <ele>613</ele>
        <time>2023-05-07T10:14:19Z</time>
      </trkpt>
      <trkpt lat="45.472784" lon="1.817250">
        <ele>613</ele>
        <time>2023-05-07T10:14:20Z</time>
      </trkpt>
      <trkpt lat="45.472792" lon="1.817273">
        <ele>613</ele>
        <time>2023-05-07T10:14:21Z</time>
      </trkpt>
      <trkpt lat="45.472801" lon="1.817297">
        <ele>613</ele>
        <time>2023-05-07T10:14:22Z</time>
      </trkpt>
      <trkpt lat="45.472810" lon="1.817320">
        <ele>613</ele>
        <time>2023-05-07T10:14:23Z</time>
      </trkpt>
      <trkpt lat="45.472819" lon="1.817344">
        <ele>613</ele>
        <time>2023-05-07T10:14:24Z</time>
      </trkpt>
      <trkpt lat="45.472828" lon="1.817367">
        <ele>613</ele>
        <time>2023-05-07T10:14:25Z</time>
      </trkpt>
      <trkpt lat="45.472836" lon="1.817387">
        <ele>613</ele>
        <time>2023-05-07T10:14:26Z</time>
      </trkpt>
      <trkpt lat="45.472845" lon="1.817408">
        <ele>613</ele>
        <time>2023-05-07T10:14:27Z</time>
      </trkpt>
      <trkpt lat="45.472853" lon="1.817426">
        <ele>613</ele>
        <time>2023-05-07T10:14:28Z</time>
      </trkpt>
      <trkpt lat="45.472860" lon="1.817444">
        <ele>613</ele>
        <time>2023-05-07T10:14:29Z</time>
      </trkpt>
      <trkpt lat="45.472869" lon="1.817462">
        <ele>613</ele>
        <time>2023-05-07T10:14:30Z</time>
      </trkpt>
      <trkpt lat="45.472877" lon="1.817479">
        <ele>613</ele>
        <time>2023-05-07T10:14:31Z</time>
      </trkpt>
      <trkpt lat="45.472885" lon="1.817496">
        <ele>614</ele>
        <time>2023-05-07T10:14:32Z</time>
      </trkpt>
      <trkpt lat="45.472894" lon="1.817514">
        <ele>614</ele>
        <time>2023-05-07T10:14:33Z</time>
      </trkpt>
      <trkpt lat="45.472902" lon="1.817529">
        <ele>614</ele>
        <time>2023-05-07T10:14:34Z</time>
      </trkpt>
      <trkpt lat="45.472910" lon="1.817544">
        <ele>614</ele>
        <time>2023-05-07T10:14:35Z</time>
      </trkpt>
      <trkpt lat="45.472919" lon="1.817557">
        <ele>614</ele>
        <time>2023-05-07T10:14:36Z</time>
      </trkpt>
      <trkpt lat="45.472928" lon="1.817570">
        <ele>614</ele>
        <time>2023-05-07T10:14:37Z</time>
      </trkpt>
      <trkpt lat="45.472938" lon="1.817579">
        <ele>614</ele>
        <time>2023-05-07T10:14:38Z</time>
      </trkpt>
      <trkpt lat="45.472949" lon="1.817587">
        <ele>614</ele>
        <time>2023-05-07T10:14:39Z</time>
      </trkpt>
      <trkpt lat="45.472960" lon="1.817596">
        <ele>614</ele>
        <time>2023-05-07T10:14:40Z</time>
      </trkpt>
      <trkpt lat="45.472972" lon="1.817605">
        <ele>614</ele>
        <time>2023-05-07T10:14:41Z</time>
      </trkpt>
      <trkpt lat="45.472983" lon="1.817618">
        <ele>615</ele>
        <time>2023-05-07T10:14:42Z</time>
      </trkpt>
      <trkpt lat="45.472995" lon="1.817631">
        <ele>615</ele>
        <time>2023-05-07T10:14:43Z</time>
      </trkpt>
      <trkpt lat="45.473006" lon="1.817646">
        <ele>615</ele>
        <time>2023-05-07T10:14:44Z</time>
      </trkpt>
      <trkpt lat="45.473017" lon="1.817662">
        <ele>615</ele>
        <time>2023-05-07T10:14:45Z</time>
      </trkpt>
      <trkpt lat="45.473028" lon="1.817679">
        <ele>615</ele>
        <time>2023-05-07T10:14:46Z</time>
      </trkpt>
      <trkpt lat="45.473039" lon="1.817696">
        <ele>615</ele>
        <time>2023-05-07T10:14:47Z</time>
      </trkpt>
      <trkpt lat="45.473052" lon="1.817711">
        <ele>615</ele>
        <time>2023-05-07T10:14:48Z</time>
      </trkpt>
      <trkpt lat="45.473065" lon="1.817726">
        <ele>615</ele>
        <time>2023-05-07T10:14:49Z</time>
      </trkpt>
      <trkpt lat="45.473078" lon="1.817741">
        <ele>615</ele>
        <time>2023-05-07T10:14:50Z</time>
      </trkpt>
      <trkpt lat="45.473092" lon="1.817756">
        <ele>615</ele>
        <time>2023-05-07T10:14:51Z</time>
      </trkpt>
      <trkpt lat="45.473106" lon="1.817770">
        <ele>616</ele>
        <time>2023-05-07T10:14:52Z</time>
      </trkpt>
      <trkpt lat="45.473119" lon="1.817785">
        <ele>616</ele>
        <time>2023-05-07T10:14:53Z</time>
      </trkpt>
      <trkpt lat="45.473132" lon="1.817800">
        <ele>616</ele>
        <time>2023-05-07T10:14:54Z</time>
      </trkpt>
      <trkpt lat="45.473144" lon="1.817815">
        <ele>616</ele>
        <time>2023-05-07T10:14:55Z</time>
      </trkpt>
      <trkpt lat="45.473155" lon="1.817830">
        <ele>616</ele>
        <time>2023-05-07T10:14:56Z</time>
      </trkpt>
      <trkpt lat="45.473167" lon="1.817845">
        <ele>616</ele>
        <time>2023-05-07T10:14:57Z</time>
      </trkpt>
      <trkpt lat="45.473179" lon="1.817860">
        <ele>616</ele>
        <time>2023-05-07T10:14:58Z</time>
      </trkpt>
      <trkpt lat="45.473192" lon="1.817875">
        <ele>616</ele>
        <time>2023-05-07T10:14:59Z</time>
      </trkpt>
      <trkpt lat="45.473206" lon="1.817891">
        <ele>616</ele>
        <time>2023-05-07T10:15:00Z</time>
      </trkpt>
      <trkpt lat="45.473220" lon="1.817907">
        <ele>616</ele>
        <time>2023-05-07T10:15:01Z</time>
      </trkpt>
      <trkpt lat="45.473234" lon="1.817925">
        <ele>616</ele>
        <time>2023-05-07T10:15:02Z</time>
      </trkpt>
      <trkpt lat="45.473248" lon="1.817942">
        <ele>616</ele>
        <time>2023-05-07T10:15:03Z</time>
      </trkpt>
      <trkpt lat="45.473261" lon="1.817962">
        <ele>616</ele>
        <time>2023-05-07T10:15:04Z</time>
      </trkpt>
      <trkpt lat="45.473273" lon="1.817983">
        <ele>616</ele>
        <time>2023-05-07T10:15:05Z</time>
      </trkpt>
      <trkpt lat="45.473283" lon="1.818005">
        <ele>616</ele>
        <time>2023-05-07T10:15:06Z</time>
      </trkpt>
      <trkpt lat="45.473293" lon="1.818027">
        <ele>617</ele>
        <time>2023-05-07T10:15:07Z</time>
      </trkpt>
      <trkpt lat="45.473302" lon="1.818048">
        <ele>617</ele>
        <time>2023-05-07T10:15:08Z</time>
      </trkpt>
      <trkpt lat="45.473312" lon="1.818070">
        <ele>617</ele>
        <time>2023-05-07T10:15:09Z</time>
      </trkpt>
      <trkpt lat="45.473324" lon="1.818089">
        <ele>617</ele>
        <time>2023-05-07T10:15:10Z</time>
      </trkpt>
      <trkpt lat="45.473336" lon="1.818108">
        <ele>617</ele>
        <time>2023-05-07T10:15:11Z</time>
      </trkpt>
      <trkpt lat="45.473349" lon="1.818124">
        <ele>618</ele>
        <time>2023-05-07T10:15:12Z</time>
      </trkpt>
      <trkpt lat="45.473480" lon="1.818265">
        <ele>618</ele>
        <time>2023-05-07T10:15:21Z</time>
      </trkpt>
      <trkpt lat="45.473492" lon="1.818306">
        <ele>619</ele>
        <time>2023-05-07T10:15:23Z</time>
      </trkpt>
      <trkpt lat="45.473489" lon="1.818326">
        <ele>619</ele>
        <time>2023-05-07T10:15:24Z</time>
      </trkpt>
      <trkpt lat="45.473485" lon="1.818347">
        <ele>619</ele>
        <time>2023-05-07T10:15:25Z</time>
      </trkpt>
      <trkpt lat="45.473475" lon="1.818363">
        <ele>619</ele>
        <time>2023-05-07T10:15:26Z</time>
      </trkpt>
      <trkpt lat="45.473464" lon="1.818379">
        <ele>620</ele>
        <time>2023-05-07T10:15:27Z</time>
      </trkpt>
      <trkpt lat="45.473440" lon="1.818404">
        <ele>623</ele>
        <time>2023-05-07T10:15:47Z</time>
      </trkpt>
      <trkpt lat="45.473433" lon="1.818412">
        <ele>623</ele>
        <time>2023-05-07T10:15:48Z</time>
      </trkpt>
      <trkpt lat="45.473426" lon="1.818421">
        <ele>623</ele>
        <time>2023-05-07T10:15:49Z</time>
      </trkpt>
      <trkpt lat="45.473419" lon="1.818430">
        <ele>623</ele>
        <time>2023-05-07T10:15:50Z</time>
      </trkpt>
      <trkpt lat="45.473419" lon="1.818433">
        <ele>623</ele>
        <time>2023-05-07T10:15:51Z</time>
      </trkpt>
      <trkpt lat="45.473419" lon="1.818435">
        <ele>623</ele>
        <time>2023-05-07T10:15:52Z</time>
      </trkpt>
      <trkpt lat="45.473420" lon="1.818438">
        <ele>623</ele>
        <time>2023-05-07T10:15:53Z</time>
      </trkpt>
      <trkpt lat="45.473420" lon="1.818446">
        <ele>623</ele>
        <time>2023-05-07T10:15:54Z</time>
      </trkpt>
      <trkpt lat="45.473421" lon="1.818454">
        <ele>623</ele>
        <time>2023-05-07T10:15:55Z</time>
      </trkpt>
      <trkpt lat="45.473421" lon="1.818462">
        <ele>623</ele>
        <time>2023-05-07T10:15:56Z</time>
      </trkpt>
      <trkpt lat="45.473338" lon="1.818604">
        <ele>623</ele>
        <time>2023-05-07T10:18:16Z</time>
      </trkpt>
      <trkpt lat="45.473330" lon="1.818603">
        <ele>623</ele>
        <time>2023-05-07T10:18:17Z</time>
      </trkpt>
      <trkpt lat="45.473322" lon="1.818602">
        <ele>623</ele>
        <time>2023-05-07T10:18:18Z</time>
      </trkpt>
      <trkpt lat="45.473229" lon="1.818662">
        <ele>624</ele>
        <time>2023-05-07T10:20:12Z</time>
      </trkpt>
      <trkpt lat="45.473220" lon="1.818687">
        <ele>624</ele>
        <time>2023-05-07T10:20:13Z</time>
      </trkpt>
      <trkpt lat="45.473214" lon="1.818711">
        <ele>624</ele>
        <time>2023-05-07T10:20:14Z</time>
      </trkpt>
      <trkpt lat="45.473209" lon="1.818736">
        <ele>624</ele>
        <time>2023-05-07T10:20:15Z</time>
      </trkpt>
      <trkpt lat="45.473207" lon="1.818761">
        <ele>624</ele>
        <time>2023-05-07T10:20:16Z</time>
      </trkpt>
      <trkpt lat="45.473206" lon="1.818785">
        <ele>624</ele>
        <time>2023-05-07T10:20:17Z</time>
      </trkpt>
      <trkpt lat="45.473205" lon="1.818810">
        <ele>624</ele>
        <time>2023-05-07T10:20:18Z</time>
      </trkpt>
      <trkpt lat="45.473204" lon="1.818834">
        <ele>624</ele>
        <time>2023-05-07T10:20:19Z</time>
      </trkpt>
      <trkpt lat="45.473202" lon="1.818858">
        <ele>624</ele>
        <time>2023-05-07T10:20:20Z</time>
      </trkpt>
      <trkpt lat="45.473201" lon="1.818883">
        <ele>624</ele>
        <time>2023-05-07T10:20:21Z</time>
      </trkpt>
      <trkpt lat="45.473199" lon="1.818905">
        <ele>625</ele>
        <time>2023-05-07T10:20:22Z</time>
      </trkpt>
      <trkpt lat="45.473197" lon="1.818928">
        <ele>625</ele>
        <time>2023-05-07T10:20:23Z</time>
      </trkpt>
      <trkpt lat="45.473198" lon="1.818946">
        <ele>625</ele>
        <time>2023-05-07T10:20:24Z</time>
      </trkpt>
      <trkpt lat="45.473200" lon="1.818964">
        <ele>625</ele>
        <time>2023-05-07T10:20:25Z</time>
      </trkpt>
      <trkpt lat="45.473205" lon="1.818980">
        <ele>625</ele>
        <time>2023-05-07T10:20:26Z</time>
      </trkpt>
      <trkpt lat="45.473210" lon="1.818997">
        <ele>626</ele>
        <time>2023-05-07T10:20:27Z</time>
      </trkpt>
      <trkpt lat="45.473215" lon="1.819015">
        <ele>626</ele>
        <time>2023-05-07T10:20:28Z</time>
      </trkpt>
      <trkpt lat="45.473220" lon="1.819033">
        <ele>626</ele>
        <time>2023-05-07T10:20:29Z</time>
      </trkpt>
      <trkpt lat="45.473224" lon="1.819052">
        <ele>626</ele>
        <time>2023-05-07T10:20:30Z</time>
      </trkpt>
      <trkpt lat="45.473228" lon="1.819071">
        <ele>626</ele>
        <time>2023-05-07T10:20:31Z</time>
      </trkpt>
      <trkpt lat="45.473234" lon="1.819089">
        <ele>627</ele>
        <time>2023-05-07T10:20:32Z</time>
      </trkpt>
      <trkpt lat="45.473240" lon="1.819107">
        <ele>627</ele>
        <time>2023-05-07T10:20:33Z</time>
      </trkpt>
      <trkpt lat="45.473247" lon="1.819120">
        <ele>627</ele>
        <time>2023-05-07T10:20:34Z</time>
      </trkpt>
      <trkpt lat="45.473255" lon="1.819133">
        <ele>627</ele>
        <time>2023-05-07T10:20:35Z</time>
      </trkpt>
      <trkpt lat="45.473264" lon="1.819139">
        <ele>627</ele>
        <time>2023-05-07T10:20:36Z</time>
      </trkpt>
      <trkpt lat="45.473274" lon="1.819146">
        <ele>627</ele>
        <time>2023-05-07T10:20:37Z</time>
      </trkpt>
      <trkpt lat="45.473286" lon="1.819147">
        <ele>627</ele>
        <time>2023-05-07T10:20:38Z</time>
      </trkpt>
      <trkpt lat="45.473297" lon="1.819148">
        <ele>627</ele>
        <time>2023-05-07T10:20:39Z</time>
      </trkpt>
      <trkpt lat="45.473310" lon="1.819150">
        <ele>627</ele>
        <time>2023-05-07T10:20:40Z</time>
      </trkpt>
      <trkpt lat="45.473323" lon="1.819151">
        <ele>627</ele>
        <time>2023-05-07T10:20:41Z</time>
      </trkpt>
      <trkpt lat="45.473336" lon="1.819152">
        <ele>628</ele>
        <time>2023-05-07T10:20:42Z</time>
      </trkpt>
      <trkpt lat="45.473348" lon="1.819153">
        <ele>628</ele>
        <time>2023-05-07T10:20:43Z</time>
      </trkpt>
      <trkpt lat="45.473360" lon="1.819151">
        <ele>628</ele>
        <time>2023-05-07T10:20:44Z</time>
      </trkpt>
      <trkpt lat="45.473371" lon="1.819149">
        <ele>628</ele>
        <time>2023-05-07T10:20:45Z</time>
      </trkpt>
      <trkpt lat="45.473382" lon="1.819148">
        <ele>628</ele>
        <time>2023-05-07T10:20:46Z</time>
      </trkpt>
      <trkpt lat="45.473394" lon="1.819147">
        <ele>628</ele>
        <time>2023-05-07T10:20:47Z</time>
      </trkpt>
      <trkpt lat="45.473407" lon="1.819147">
        <ele>628</ele>
        <time>2023-05-07T10:20:48Z</time>
      </trkpt>
      <trkpt lat="45.473420" lon="1.819148">
        <ele>628</ele>
        <time>2023-05-07T10:20:49Z</time>
      </trkpt>
      <trkpt lat="45.473435" lon="1.819150">
        <ele>628</ele>
        <time>2023-05-07T10:20:50Z</time>
      </trkpt>
      <trkpt lat="45.473450" lon="1.819152">
        <ele>628</ele>
        <time>2023-05-07T10:20:51Z</time>
      </trkpt>
      <trkpt lat="45.473466" lon="1.819153">
        <ele>629</ele>
        <time>2023-05-07T10:20:52Z</time>
      </trkpt>
      <trkpt lat="45.473482" lon="1.819155">
        <ele>629</ele>
        <time>2023-05-07T10:20:53Z</time>
      </trkpt>
      <trkpt lat="45.473499" lon="1.819157">
        <ele>629</ele>
        <time>2023-05-07T10:20:54Z</time>
      </trkpt>
      <trkpt lat="45.473516" lon="1.819160">
        <ele>629</ele>
        <time>2023-05-07T10:20:55Z</time>
      </trkpt>
      <trkpt lat="45.473533" lon="1.819163">
        <ele>629</ele>
        <time>2023-05-07T10:20:56Z</time>
      </trkpt>
      <trkpt lat="45.473549" lon="1.819166">
        <ele>630</ele>
        <time>2023-05-07T10:20:57Z</time>
      </trkpt>
      <trkpt lat="45.473565" lon="1.819170">
        <ele>630</ele>
        <time>2023-05-07T10:20:58Z</time>
      </trkpt>
      <trkpt lat="45.473581" lon="1.819174">
        <ele>630</ele>
        <time>2023-05-07T10:20:59Z</time>
      </trkpt>
      <trkpt lat="45.473597" lon="1.819177">
        <ele>630</ele>
        <time>2023-05-07T10:21:00Z</time>
      </trkpt>
      <trkpt lat="45.473614" lon="1.819180">
        <ele>630</ele>
        <time>2023-05-07T10:21:01Z</time>
      </trkpt>
      <trkpt lat="45.473629" lon="1.819183">
        <ele>631</ele>
        <time>2023-05-07T10:21:02Z</time>
      </trkpt>
      <trkpt lat="45.473644" lon="1.819187">
        <ele>631</ele>
        <time>2023-05-07T10:21:03Z</time>
      </trkpt>
      <trkpt lat="45.473659" lon="1.819192">
        <ele>631</ele>
        <time>2023-05-07T10:21:04Z</time>
      </trkpt>
      <trkpt lat="45.473673" lon="1.819197">
        <ele>631</ele>
        <time>2023-05-07T10:21:05Z</time>
      </trkpt>
      <trkpt lat="45.473688" lon="1.819203">
        <ele>631</ele>
        <time>2023-05-07T10:21:06Z</time>
      </trkpt>
      <trkpt lat="45.473703" lon="1.819210">
        <ele>632</ele>
        <time>2023-05-07T10:21:07Z</time>
      </trkpt>
      <trkpt lat="45.473717" lon="1.819218">
        <ele>632</ele>
        <time>2023-05-07T10:21:08Z</time>
      </trkpt>
      <trkpt lat="45.473732" lon="1.819225">
        <ele>632</ele>
        <time>2023-05-07T10:21:09Z</time>
      </trkpt>
      <trkpt lat="45.473746" lon="1.819232">
        <ele>632</ele>
        <time>2023-05-07T10:21:10Z</time>
      </trkpt>
      <trkpt lat="45.473760" lon="1.819238">
        <ele>632</ele>
        <time>2023-05-07T10:21:11Z</time>
      </trkpt>
      <trkpt lat="45.473773" lon="1.819244">
        <ele>632</ele>
        <time>2023-05-07T10:21:12Z</time>
      </trkpt>
      <trkpt lat="45.473786" lon="1.819250">
        <ele>632</ele>
        <time>2023-05-07T10:21:13Z</time>
      </trkpt>
      <trkpt lat="45.473798" lon="1.819256">
        <ele>632</ele>
        <time>2023-05-07T10:21:14Z</time>
      </trkpt>
      <trkpt lat="45.473811" lon="1.819262">
        <ele>632</ele>
        <time>2023-05-07T10:21:15Z</time>
      </trkpt>
      <trkpt lat="45.473823" lon="1.819269">
        <ele>632</ele>
        <time>2023-05-07T10:21:16Z</time>
      </trkpt>
      <trkpt lat="45.473835" lon="1.819277">
        <ele>633</ele>
        <time>2023-05-07T10:21:17Z</time>
      </trkpt>
      <trkpt lat="45.473848" lon="1.819285">
        <ele>633</ele>
        <time>2023-05-07T10:21:18Z</time>
      </trkpt>
      <trkpt lat="45.473861" lon="1.819293">
        <ele>633</ele>
        <time>2023-05-07T10:21:19Z</time>
      </trkpt>
      <trkpt lat="45.473874" lon="1.819302">
        <ele>633</ele>
        <time>2023-05-07T10:21:20Z</time>
      </trkpt>
      <trkpt lat="45.473888" lon="1.819310">
        <ele>633</ele>
        <time>2023-05-07T10:21:21Z</time>
      </trkpt>
      <trkpt lat="45.473902" lon="1.819320">
        <ele>634</ele>
        <time>2023-05-07T10:21:22Z</time>
      </trkpt>
      <trkpt lat="45.473917" lon="1.819330">
        <ele>634</ele>
        <time>2023-05-07T10:21:23Z</time>
      </trkpt>
      <trkpt lat="45.473932" lon="1.819340">
        <ele>634</ele>
        <time>2023-05-07T10:21:24Z</time>
      </trkpt>
      <trkpt lat="45.473946" lon="1.819350">
        <ele>634</ele>
        <time>2023-05-07T10:21:25Z</time>
      </trkpt>
      <trkpt lat="45.473961" lon="1.819360">
        <ele>634</ele>
        <time>2023-05-07T10:21:26Z</time>
      </trkpt>
      <trkpt lat="45.473976" lon="1.819370">
        <ele>635</ele>
        <time>2023-05-07T10:21:27Z</time>
      </trkpt>
      <trkpt lat="45.473991" lon="1.819381">
        <ele>635</ele>
        <time>2023-05-07T10:21:28Z</time>
      </trkpt>
      <trkpt lat="45.474006" lon="1.819392">
        <ele>635</ele>
        <time>2023-05-07T10:21:29Z</time>
      </trkpt>
      <trkpt lat="45.474021" lon="1.819403">
        <ele>635</ele>
        <time>2023-05-07T10:21:30Z</time>
      </trkpt>
      <trkpt lat="45.474036" lon="1.819414">
        <ele>635</ele>
        <time>2023-05-07T10:21:31Z</time>
      </trkpt>
      <trkpt lat="45.474051" lon="1.819427">
        <ele>635</ele>
        <time>2023-05-07T10:21:32Z</time>
      </trkpt>
      <trkpt lat="45.474066" lon="1.819440">
        <ele>635</ele>
        <time>2023-05-07T10:21:33Z</time>
      </trkpt>
      <trkpt lat="45.474082" lon="1.819452">
        <ele>635</ele>
        <time>2023-05-07T10:21:34Z</time>
      </trkpt>
      <trkpt lat="45.474097" lon="1.819464">
        <ele>635</ele>
        <time>2023-05-07T10:21:35Z</time>
      </trkpt>
      <trkpt lat="45.474112" lon="1.819473">
        <ele>635</ele>
        <time>2023-05-07T10:21:36Z</time>
      </trkpt>
      <trkpt lat="45.474128" lon="1.819483">
        <ele>636</ele>
        <time>2023-05-07T10:21:37Z</time>
      </trkpt>
      <trkpt lat="45.474143" lon="1.819490">
        <ele>636</ele>
        <time>2023-05-07T10:21:38Z</time>
      </trkpt>
      <trkpt lat="45.474159" lon="1.819498">
        <ele>636</ele>
        <time>2023-05-07T10:21:39Z</time>
      </trkpt>
      <trkpt lat="45.474175" lon="1.819507">
        <ele>636</ele>
        <time>2023-05-07T10:21:40Z</time>
      </trkpt>
      <trkpt lat="45.474191" lon="1.819516">
        <ele>636</ele>
        <time>2023-05-07T10:21:41Z</time>
      </trkpt>
      <trkpt lat="45.474206" lon="1.819525">
        <ele>636</ele>
        <time>2023-05-07T10:21:42Z</time>
      </trkpt>
      <trkpt lat="45.474222" lon="1.819534">
        <ele>636</ele>
        <time>2023-05-07T10:21:43Z</time>
      </trkpt>
      <trkpt lat="45.474238" lon="1.819542">
        <ele>636</ele>
        <time>2023-05-07T10:21:44Z</time>
      </trkpt>
      <trkpt lat="45.474255" lon="1.819550">
        <ele>636</ele>
        <time>2023-05-07T10:21:45Z</time>
      </trkpt>
      <trkpt lat="45.474272" lon="1.819558">
        <ele>636</ele>
        <time>2023-05-07T10:21:46Z</time>
      </trkpt>
      <trkpt lat="45.474289" lon="1.819566">
        <ele>637</ele>
        <time>2023-05-07T10:21:47Z</time>
      </trkpt>
      <trkpt lat="45.474307" lon="1.819575">
        <ele>637</ele>
        <time>2023-05-07T10:21:48Z</time>
      </trkpt>
      <trkpt lat="45.474324" lon="1.819584">
        <ele>637</ele>
        <time>2023-05-07T10:21:49Z</time>
      </trkpt>
      <trkpt lat="45.474342" lon="1.819593">
        <ele>637</ele>
        <time>2023-05-07T10:21:50Z</time>
      </trkpt>
      <trkpt lat="45.474360" lon="1.819602">
        <ele>637</ele>
        <time>2023-05-07T10:21:51Z</time>
      </trkpt>
      <trkpt lat="45.474379" lon="1.819611">
        <ele>637</ele>
        <time>2023-05-07T10:21:52Z</time>
      </trkpt>
      <trkpt lat="45.474397" lon="1.819619">
        <ele>637</ele>
        <time>2023-05-07T10:21:53Z</time>
      </trkpt>
      <trkpt lat="45.474415" lon="1.819627">
        <ele>637</ele>
        <time>2023-05-07T10:21:54Z</time>
      </trkpt>
      <trkpt lat="45.474433" lon="1.819634">
        <ele>637</ele>
        <time>2023-05-07T10:21:55Z</time>
      </trkpt>
      <trkpt lat="45.474451" lon="1.819641">
        <ele>637</ele>
        <time>2023-05-07T10:21:56Z</time>
      </trkpt>
      <trkpt lat="45.474469" lon="1.819648">
        <ele>638</ele>
        <time>2023-05-07T10:21:57Z</time>
      </trkpt>
      <trkpt lat="45.474487" lon="1.819653">
        <ele>638</ele>
        <time>2023-05-07T10:21:58Z</time>
      </trkpt>
      <trkpt lat="45.474505" lon="1.819659">
        <ele>638</ele>
        <time>2023-05-07T10:21:59Z</time>
      </trkpt>
      <trkpt lat="45.474524" lon="1.819660">
        <ele>638</ele>
        <time>2023-05-07T10:22:00Z</time>
      </trkpt>
      <trkpt lat="45.474544" lon="1.819662">
        <ele>638</ele>
        <time>2023-05-07T10:22:01Z</time>
      </trkpt>
      <trkpt lat="45.474563" lon="1.819658">
        <ele>638</ele>
        <time>2023-05-07T10:22:02Z</time>
      </trkpt>
      <trkpt lat="45.474582" lon="1.819653">
        <ele>638</ele>
        <time>2023-05-07T10:22:03Z</time>
      </trkpt>
      <trkpt lat="45.474600" lon="1.819644">
        <ele>638</ele>
        <time>2023-05-07T10:22:04Z</time>
      </trkpt>
      <trkpt lat="45.474619" lon="1.819634">
        <ele>638</ele>
        <time>2023-05-07T10:22:05Z</time>
      </trkpt>
      <trkpt lat="45.474636" lon="1.819621">
        <ele>638</ele>
        <time>2023-05-07T10:22:06Z</time>
      </trkpt>
      <trkpt lat="45.474654" lon="1.819608">
        <ele>638</ele>
        <time>2023-05-07T10:22:07Z</time>
      </trkpt>
      <trkpt lat="45.474671" lon="1.819593">
        <ele>638</ele>
        <time>2023-05-07T10:22:08Z</time>
      </trkpt>
      <trkpt lat="45.474688" lon="1.819578">
        <ele>638</ele>
        <time>2023-05-07T10:22:09Z</time>
      </trkpt>
      <trkpt lat="45.474704" lon="1.819562">
        <ele>638</ele>
        <time>2023-05-07T10:22:10Z</time>
      </trkpt>
      <trkpt lat="45.474720" lon="1.819546">
        <ele>638</ele>
        <time>2023-05-07T10:22:11Z</time>
      </trkpt>
      <trkpt lat="45.474735" lon="1.819529">
        <ele>638</ele>
        <time>2023-05-07T10:22:12Z</time>
      </trkpt>
      <trkpt lat="45.474750" lon="1.819512">
        <ele>638</ele>
        <time>2023-05-07T10:22:13Z</time>
      </trkpt>
      <trkpt lat="45.474764" lon="1.819494">
        <ele>638</ele>
        <time>2023-05-07T10:22:14Z</time>
      </trkpt>
      <trkpt lat="45.474778" lon="1.819476">
        <ele>638</ele>
        <time>2023-05-07T10:22:15Z</time>
      </trkpt>
      <trkpt lat="45.474792" lon="1.819457">
        <ele>638</ele>
        <time>2023-05-07T10:22:16Z</time>
      </trkpt>
      <trkpt lat="45.474806" lon="1.819439">
        <ele>638</ele>
        <time>2023-05-07T10:22:17Z</time>
      </trkpt>
      <trkpt lat="45.474820" lon="1.819420">
        <ele>638</ele>
        <time>2023-05-07T10:22:18Z</time>
      </trkpt>
      <trkpt lat="45.474834" lon="1.819402">
        <ele>638</ele>
        <time>2023-05-07T10:22:19Z</time>
      </trkpt>
      <trkpt lat="45.474849" lon="1.819384">
        <ele>638</ele>
        <time>2023-05-07T10:22:20Z</time>
      </trkpt>
      <trkpt lat="45.474864" lon="1.819367">
        <ele>638</ele>
        <time>2023-05-07T10:22:21Z</time>
      </trkpt>
      <trkpt lat="45.474880" lon="1.819350">
        <ele>638</ele>
        <time>2023-05-07T10:22:22Z</time>
      </trkpt>
      <trkpt lat="45.474896" lon="1.819333">
        <ele>638</ele>
        <time>2023-05-07T10:22:23Z</time>
      </trkpt>
      <trkpt lat="45.474912" lon="1.819316">
        <ele>638</ele>
        <time>2023-05-07T10:22:24Z</time>
      </trkpt>
      <trkpt lat="45.474929" lon="1.819299">
        <ele>638</ele>
        <time>2023-05-07T10:22:25Z</time>
      </trkpt>
      <trkpt lat="45.474945" lon="1.819283">
        <ele>638</ele>
        <time>2023-05-07T10:22:26Z</time>
      </trkpt>
      <trkpt lat="45.474961" lon="1.819266">
        <ele>639</ele>
        <time>2023-05-07T10:22:27Z</time>
      </trkpt>
      <trkpt lat="45.474978" lon="1.819251">
        <ele>639</ele>
        <time>2023-05-07T10:22:28Z</time>
      </trkpt>
      <trkpt lat="45.474994" lon="1.819235">
        <ele>639</ele>
        <time>2023-05-07T10:22:29Z</time>
      </trkpt>
      <trkpt lat="45.475010" lon="1.819220">
        <ele>639</ele>
        <time>2023-05-07T10:22:30Z</time>
      </trkpt>
      <trkpt lat="45.475027" lon="1.819204">
        <ele>639</ele>
        <time>2023-05-07T10:22:31Z</time>
      </trkpt>
      <trkpt lat="45.475044" lon="1.819189">
        <ele>639</ele>
        <time>2023-05-07T10:22:32Z</time>
      </trkpt>
      <trkpt lat="45.475061" lon="1.819174">
        <ele>639</ele>
        <time>2023-05-07T10:22:33Z</time>
      </trkpt>
      <trkpt lat="45.475078" lon="1.819161">
        <ele>639</ele>
        <time>2023-05-07T10:22:34Z</time>
      </trkpt>
      <trkpt lat="45.475095" lon="1.819147">
        <ele>639</ele>
        <time>2023-05-07T10:22:35Z</time>
      </trkpt>
      <trkpt lat="45.475111" lon="1.819136">
        <ele>639</ele>
        <time>2023-05-07T10:22:36Z</time>
      </trkpt>
      <trkpt lat="45.475127" lon="1.819124">
        <ele>639</ele>
        <time>2023-05-07T10:22:37Z</time>
      </trkpt>
      <trkpt lat="45.475141" lon="1.819113">
        <ele>639</ele>
        <time>2023-05-07T10:22:38Z</time>
      </trkpt>
      <trkpt lat="45.475155" lon="1.819102">
        <ele>639</ele>
        <time>2023-05-07T10:22:39Z</time>
      </trkpt>
      <trkpt lat="45.475169" lon="1.819091">
        <ele>639</ele>
        <time>2023-05-07T10:22:40Z</time>
      </trkpt>
      <trkpt lat="45.475184" lon="1.819079">
        <ele>639</ele>
        <time>2023-05-07T10:22:41Z</time>
      </trkpt>
      <trkpt lat="45.475200" lon="1.819068">
        <ele>639</ele>
        <time>2023-05-07T10:22:42Z</time>
      </trkpt>
      <trkpt lat="45.475216" lon="1.819056">
        <ele>639</ele>
        <time>2023-05-07T10:22:43Z</time>
      </trkpt>
      <trkpt lat="45.475233" lon="1.819046">
        <ele>639</ele>
        <time>2023-05-07T10:22:44Z</time>
      </trkpt>
      <trkpt lat="45.475250" lon="1.819035">
        <ele>639</ele>
        <time>2023-05-07T10:22:45Z</time>
      </trkpt>
      <trkpt lat="45.475268" lon="1.819025">
        <ele>639</ele>
        <time>2023-05-07T10:22:46Z</time>
      </trkpt>
      <trkpt lat="45.475285" lon="1.819015">
        <ele>640</ele>
        <time>2023-05-07T10:22:47Z</time>
      </trkpt>
      <trkpt lat="45.475302" lon="1.819008">
        <ele>640</ele>
        <time>2023-05-07T10:22:48Z</time>
      </trkpt>
      <trkpt lat="45.475320" lon="1.819000">
        <ele>640</ele>
        <time>2023-05-07T10:22:49Z</time>
      </trkpt>
      <trkpt lat="45.475338" lon="1.818994">
        <ele>640</ele>
        <time>2023-05-07T10:22:50Z</time>
      </trkpt>
      <trkpt lat="45.475356" lon="1.818988">
        <ele>640</ele>
        <time>2023-05-07T10:22:51Z</time>
      </trkpt>
      <trkpt lat="45.475375" lon="1.818982">
        <ele>640</ele>
        <time>2023-05-07T10:22:52Z</time>
      </trkpt>
      <trkpt lat="45.475394" lon="1.818976">
        <ele>640</ele>
        <time>2023-05-07T10:22:53Z</time>
      </trkpt>
      <trkpt lat="45.475413" lon="1.818972">
        <ele>640</ele>
        <time>2023-05-07T10:22:54Z</time>
      </trkpt>
      <trkpt lat="45.475433" lon="1.818968">
        <ele>640</ele>
        <time>2023-05-07T10:22:55Z</time>
      </trkpt>
      <trkpt lat="45.475454" lon="1.818966">
        <ele>640</ele>
        <time>2023-05-07T10:22:56Z</time>
      </trkpt>
      <trkpt lat="45.475474" lon="1.818964">
        <ele>640</ele>
        <time>2023-05-07T10:22:57Z</time>
      </trkpt>
      <trkpt lat="45.475494" lon="1.818966">
        <ele>640</ele>
        <time>2023-05-07T10:22:58Z</time>
      </trkpt>
      <trkpt lat="45.475515" lon="1.818968">
        <ele>640</ele>
        <time>2023-05-07T10:22:59Z</time>
      </trkpt>
      <trkpt lat="45.475535" lon="1.818971">
        <ele>640</ele>
        <time>2023-05-07T10:23:00Z</time>
      </trkpt>
      <trkpt lat="45.475556" lon="1.818974">
        <ele>640</ele>
        <time>2023-05-07T10:23:01Z</time>
      </trkpt>
      <trkpt lat="45.475576" lon="1.818978">
        <ele>640</ele>
        <time>2023-05-07T10:23:02Z</time>
      </trkpt>
      <trkpt lat="45.475596" lon="1.818982">
        <ele>640</ele>
        <time>2023-05-07T10:23:03Z</time>
      </trkpt>
      <trkpt lat="45.475615" lon="1.818988">
        <ele>640</ele>
        <time>2023-05-07T10:23:04Z</time>
      </trkpt>
      <trkpt lat="45.475634" lon="1.818995">
        <ele>640</ele>
        <time>2023-05-07T10:23:05Z</time>
      </trkpt>
      <trkpt lat="45.475652" lon="1.819001">
        <ele>640</ele>
        <time>2023-05-07T10:23:06Z</time>
      </trkpt>
      <trkpt lat="45.475671" lon="1.819008">
        <ele>640</ele>
        <time>2023-05-07T10:23:07Z</time>
      </trkpt>
      <trkpt lat="45.475688" lon="1.819016">
        <ele>640</ele>
        <time>2023-05-07T10:23:08Z</time>
      </trkpt>
      <trkpt lat="45.475705" lon="1.819025">
        <ele>640</ele>
        <time>2023-05-07T10:23:09Z</time>
      </trkpt>
      <trkpt lat="45.475721" lon="1.819033">
        <ele>640</ele>
        <time>2023-05-07T10:23:10Z</time>
      </trkpt>
      <trkpt lat="45.475738" lon="1.819042">
        <ele>640</ele>
        <time>2023-05-07T10:23:11Z</time>
      </trkpt>
      <trkpt lat="45.475756" lon="1.819051">
        <ele>640</ele>
        <time>2023-05-07T10:23:12Z</time>
      </trkpt>
      <trkpt lat="45.475773" lon="1.819060">
        <ele>640</ele>
        <time>2023-05-07T10:23:13Z</time>
      </trkpt>
      <trkpt lat="45.475791" lon="1.819069">
        <ele>640</ele>
        <time>2023-05-07T10:23:14Z</time>
      </trkpt>
      <trkpt lat="45.475809" lon="1.819078">
        <ele>640</ele>
        <time>2023-05-07T10:23:15Z</time>
      </trkpt>
      <trkpt lat="45.475827" lon="1.819088">
        <ele>640</ele>
        <time>2023-05-07T10:23:16Z</time>
      </trkpt>
      <trkpt lat="45.475844" lon="1.819097">
        <ele>640</ele>
        <time>2023-05-07T10:23:17Z</time>
      </trkpt>
      <trkpt lat="45.475861" lon="1.819106">
        <ele>640</ele>
        <time>2023-05-07T10:23:18Z</time>
      </trkpt>
      <trkpt lat="45.475878" lon="1.819116">
        <ele>640</ele>
        <time>2023-05-07T10:23:19Z</time>
      </trkpt>
      <trkpt lat="45.475896" lon="1.819125">
        <ele>640</ele>
        <time>2023-05-07T10:23:20Z</time>
      </trkpt>
      <trkpt lat="45.475913" lon="1.819134">
        <ele>640</ele>
        <time>2023-05-07T10:23:21Z</time>
      </trkpt>
      <trkpt lat="45.475930" lon="1.819139">
        <ele>640</ele>
        <time>2023-05-07T10:23:22Z</time>
      </trkpt>
      <trkpt lat="45.475946" lon="1.819144">
        <ele>640</ele>
        <time>2023-05-07T10:23:23Z</time>
      </trkpt>
      <trkpt lat="45.475962" lon="1.819146">
        <ele>640</ele>
        <time>2023-05-07T10:23:24Z</time>
      </trkpt>
      <trkpt lat="45.475977" lon="1.819148">
        <ele>640</ele>
        <time>2023-05-07T10:23:25Z</time>
      </trkpt>
      <trkpt lat="45.475992" lon="1.819149">
        <ele>640</ele>
        <time>2023-05-07T10:23:26Z</time>
      </trkpt>
      <trkpt lat="45.476007" lon="1.819149">
        <ele>641</ele>
        <time>2023-05-07T10:23:27Z</time>
      </trkpt>
      <trkpt lat="45.476021" lon="1.819147">
        <ele>641</ele>
        <time>2023-05-07T10:23:28Z</time>
      </trkpt>
      <trkpt lat="45.476036" lon="1.819145">
        <ele>641</ele>
        <time>2023-05-07T10:23:29Z</time>
      </trkpt>
      <trkpt lat="45.476050" lon="1.819141">
        <ele>641</ele>
        <time>2023-05-07T10:23:30Z</time>
      </trkpt>
      <trkpt lat="45.476064" lon="1.819137">
        <ele>641</ele>
        <time>2023-05-07T10:23:31Z</time>
      </trkpt>
      <trkpt lat="45.476079" lon="1.819130">
        <ele>641</ele>
        <time>2023-05-07T10:23:32Z</time>
      </trkpt>
      <trkpt lat="45.476093" lon="1.819124">
        <ele>641</ele>
        <time>2023-05-07T10:23:33Z</time>
      </trkpt>
      <trkpt lat="45.476108" lon="1.819115">
        <ele>641</ele>
        <time>2023-05-07T10:23:34Z</time>
      </trkpt>
      <trkpt lat="45.476122" lon="1.819106">
        <ele>641</ele>
        <time>2023-05-07T10:23:35Z</time>
      </trkpt>
      <trkpt lat="45.476135" lon="1.819097">
        <ele>641</ele>
        <time>2023-05-07T10:23:36Z</time>
      </trkpt>
      <trkpt lat="45.476149" lon="1.819087">
        <ele>641</ele>
        <time>2023-05-07T10:23:37Z</time>
      </trkpt>
      <trkpt lat="45.476162" lon="1.819078">
        <ele>641</ele>
        <time>2023-05-07T10:23:38Z</time>
      </trkpt>
      <trkpt lat="45.476175" lon="1.819069">
        <ele>641</ele>
        <time>2023-05-07T10:23:39Z</time>
      </trkpt>
      <trkpt lat="45.476187" lon="1.819059">
        <ele>641</ele>
        <time>2023-05-07T10:23:40Z</time>
      </trkpt>
      <trkpt lat="45.476199" lon="1.819050">
        <ele>641</ele>
        <time>2023-05-07T10:23:41Z</time>
      </trkpt>
      <trkpt lat="45.476212" lon="1.819040">
        <ele>641</ele>
        <time>2023-05-07T10:23:42Z</time>
      </trkpt>
      <trkpt lat="45.476225" lon="1.819030">
        <ele>641</ele>
        <time>2023-05-07T10:23:43Z</time>
      </trkpt>
      <trkpt lat="45.476237" lon="1.819020">
        <ele>641</ele>
        <time>2023-05-07T10:23:44Z</time>
      </trkpt>
      <trkpt lat="45.476249" lon="1.819010">
        <ele>641</ele>
        <time>2023-05-07T10:23:45Z</time>
      </trkpt>
      <trkpt lat="45.476261" lon="1.818999">
        <ele>641</ele>
        <time>2023-05-07T10:23:46Z</time>
      </trkpt>
      <trkpt lat="45.476273" lon="1.818988">
        <ele>641</ele>
        <time>2023-05-07T10:23:47Z</time>
      </trkpt>
      <trkpt lat="45.476284" lon="1.818976">
        <ele>641</ele>
        <time>2023-05-07T10:23:48Z</time>
      </trkpt>
      <trkpt lat="45.476295" lon="1.818965">
        <ele>641</ele>
        <time>2023-05-07T10:23:49Z</time>
      </trkpt>
      <trkpt lat="45.476306" lon="1.818950">
        <ele>641</ele>
        <time>2023-05-07T10:23:50Z</time>
      </trkpt>
      <trkpt lat="45.476317" lon="1.818935">
        <ele>641</ele>
        <time>2023-05-07T10:23:51Z</time>
      </trkpt>
      <trkpt lat="45.476327" lon="1.818920">
        <ele>641</ele>
        <time>2023-05-07T10:23:52Z</time>
      </trkpt>
      <trkpt lat="45.476338" lon="1.818905">
        <ele>641</ele>
        <time>2023-05-07T10:23:53Z</time>
      </trkpt>
      <trkpt lat="45.476348" lon="1.818892">
        <ele>641</ele>
        <time>2023-05-07T10:23:54Z</time>
      </trkpt>
      <trkpt lat="45.476358" lon="1.818879">
        <ele>641</ele>
        <time>2023-05-07T10:23:55Z</time>
      </trkpt>
      <trkpt lat="45.476369" lon="1.818867">
        <ele>641</ele>
        <time>2023-05-07T10:23:56Z</time>
      </trkpt>
      <trkpt lat="45.476380" lon="1.818855">
        <ele>641</ele>
        <time>2023-05-07T10:23:57Z</time>
      </trkpt>
      <trkpt lat="45.476391" lon="1.818843">
        <ele>641</ele>
        <time>2023-05-07T10:23:58Z</time>
      </trkpt>
      <trkpt lat="45.476402" lon="1.818830">
        <ele>641</ele>
        <time>2023-05-07T10:23:59Z</time>
      </trkpt>
      <trkpt lat="45.476413" lon="1.818817">
        <ele>641</ele>
        <time>2023-05-07T10:24:00Z</time>
      </trkpt>
      <trkpt lat="45.476425" lon="1.818805">
        <ele>641</ele>
        <time>2023-05-07T10:24:01Z</time>
      </trkpt>
      <trkpt lat="45.476438" lon="1.818790">
        <ele>641</ele>
        <time>2023-05-07T10:24:02Z</time>
      </trkpt>
      <trkpt lat="45.476450" lon="1.818775">
        <ele>641</ele>
        <time>2023-05-07T10:24:03Z</time>
      </trkpt>
      <trkpt lat="45.476462" lon="1.818758">
        <ele>641</ele>
        <time>2023-05-07T10:24:04Z</time>
      </trkpt>
      <trkpt lat="45.476475" lon="1.818742">
        <ele>641</ele>
        <time>2023-05-07T10:24:05Z</time>
      </trkpt>
      <trkpt lat="45.476486" lon="1.818723">
        <ele>641</ele>
        <time>2023-05-07T10:24:06Z</time>
      </trkpt>
      <trkpt lat="45.476497" lon="1.818704">
        <ele>641</ele>
        <time>2023-05-07T10:24:07Z</time>
      </trkpt>
      <trkpt lat="45.476506" lon="1.818687">
        <ele>641</ele>
        <time>2023-05-07T10:24:08Z</time>
      </trkpt>
      <trkpt lat="45.476515" lon="1.818669">
        <ele>641</ele>
        <time>2023-05-07T10:24:09Z</time>
      </trkpt>
      <trkpt lat="45.476522" lon="1.818655">
        <ele>641</ele>
        <time>2023-05-07T10:24:10Z</time>
      </trkpt>
      <trkpt lat="45.476529" lon="1.818641">
        <ele>641</ele>
        <time>2023-05-07T10:24:11Z</time>
      </trkpt>
      <trkpt lat="45.476538" lon="1.818627">
        <ele>641</ele>
        <time>2023-05-07T10:24:12Z</time>
      </trkpt>
      <trkpt lat="45.476546" lon="1.818613">
        <ele>641</ele>
        <time>2023-05-07T10:24:13Z</time>
      </trkpt>
      <trkpt lat="45.476555" lon="1.818598">
        <ele>641</ele>
        <time>2023-05-07T10:24:14Z</time>
      </trkpt>
      <trkpt lat="45.476563" lon="1.818583">
        <ele>641</ele>
        <time>2023-05-07T10:24:15Z</time>
      </trkpt>
      <trkpt lat="45.476572" lon="1.818567">
        <ele>641</ele>
        <time>2023-05-07T10:24:16Z</time>
      </trkpt>
      <trkpt lat="45.476581" lon="1.818550">
        <ele>642</ele>
        <time>2023-05-07T10:24:17Z</time>
      </trkpt>
      <trkpt lat="45.476590" lon="1.818530">
        <ele>642</ele>
        <time>2023-05-07T10:24:18Z</time>
      </trkpt>
      <trkpt lat="45.476599" lon="1.818510">
        <ele>642</ele>
        <time>2023-05-07T10:24:19Z</time>
      </trkpt>
      <trkpt lat="45.476610" lon="1.818489">
        <ele>642</ele>
        <time>2023-05-07T10:24:20Z</time>
      </trkpt>
      <trkpt lat="45.476622" lon="1.818468">
        <ele>642</ele>
        <time>2023-05-07T10:24:21Z</time>
      </trkpt>
      <trkpt lat="45.476635" lon="1.818448">
        <ele>642</ele>
        <time>2023-05-07T10:24:22Z</time>
      </trkpt>
      <trkpt lat="45.476647" lon="1.818429">
        <ele>642</ele>
        <time>2023-05-07T10:24:23Z</time>
      </trkpt>
      <trkpt lat="45.476660" lon="1.818410">
        <ele>642</ele>
        <time>2023-05-07T10:24:24Z</time>
      </trkpt>
      <trkpt lat="45.476672" lon="1.818390">
        <ele>642</ele>
        <time>2023-05-07T10:24:25Z</time>
      </trkpt>
      <trkpt lat="45.476684" lon="1.818371">
        <ele>642</ele>
        <time>2023-05-07T10:24:26Z</time>
      </trkpt>
      <trkpt lat="45.476696" lon="1.818352">
        <ele>642</ele>
        <time>2023-05-07T10:24:27Z</time>
      </trkpt>
      <trkpt lat="45.476709" lon="1.818331">
        <ele>642</ele>
        <time>2023-05-07T10:24:28Z</time>
      </trkpt>
      <trkpt lat="45.476721" lon="1.818310">
        <ele>642</ele>
        <time>2023-05-07T10:24:29Z</time>
      </trkpt>
      <trkpt lat="45.476735" lon="1.818287">
        <ele>642</ele>
        <time>2023-05-07T10:24:30Z</time>
      </trkpt>
      <trkpt lat="45.476749" lon="1.818265">
        <ele>642</ele>
        <time>2023-05-07T10:24:31Z</time>
      </trkpt>
      <trkpt lat="45.476764" lon="1.818241">
        <ele>642</ele>
        <time>2023-05-07T10:24:32Z</time>
      </trkpt>
      <trkpt lat="45.476779" lon="1.818218">
        <ele>642</ele>
        <time>2023-05-07T10:24:33Z</time>
      </trkpt>
      <trkpt lat="45.476794" lon="1.818195">
        <ele>642</ele>
        <time>2023-05-07T10:24:34Z</time>
      </trkpt>
      <trkpt lat="45.476809" lon="1.818172">
        <ele>642</ele>
        <time>2023-05-07T10:24:35Z</time>
      </trkpt>
      <trkpt lat="45.476823" lon="1.818150">
        <ele>642</ele>
        <time>2023-05-07T10:24:36Z</time>
      </trkpt>
      <trkpt lat="45.476838" lon="1.818129">
        <ele>642</ele>
        <time>2023-05-07T10:24:37Z</time>
      </trkpt>
      <trkpt lat="45.476853" lon="1.818108">
        <ele>642</ele>
        <time>2023-05-07T10:24:38Z</time>
      </trkpt>
      <trkpt lat="45.476867" lon="1.818088">
        <ele>642</ele>
        <time>2023-05-07T10:24:39Z</time>
      </trkpt>
      <trkpt lat="45.476882" lon="1.818067">
        <ele>642</ele>
        <time>2023-05-07T10:24:40Z</time>
      </trkpt>
      <trkpt lat="45.476897" lon="1.818046">
        <ele>642</ele>
        <time>2023-05-07T10:24:41Z</time>
      </trkpt>
      <trkpt lat="45.476912" lon="1.818026">
        <ele>643</ele>
        <time>2023-05-07T10:24:42Z</time>
      </trkpt>
      <trkpt lat="45.476928" lon="1.818005">
        <ele>643</ele>
        <time>2023-05-07T10:24:43Z</time>
      </trkpt>
      <trkpt lat="45.476942" lon="1.817986">
        <ele>643</ele>
        <time>2023-05-07T10:24:44Z</time>
      </trkpt>
      <trkpt lat="45.476957" lon="1.817968">
        <ele>643</ele>
        <time>2023-05-07T10:24:45Z</time>
      </trkpt>
      <trkpt lat="45.476971" lon="1.817950">
        <ele>643</ele>
        <time>2023-05-07T10:24:46Z</time>
      </trkpt>
      <trkpt lat="45.476984" lon="1.817932">
        <ele>643</ele>
        <time>2023-05-07T10:24:47Z</time>
      </trkpt>
      <trkpt lat="45.476999" lon="1.817915">
        <ele>643</ele>
        <time>2023-05-07T10:24:48Z</time>
      </trkpt>
      <trkpt lat="45.477013" lon="1.817898">
        <ele>643</ele>
        <time>2023-05-07T10:24:49Z</time>
      </trkpt>
      <trkpt lat="45.477029" lon="1.817880">
        <ele>643</ele>
        <time>2023-05-07T10:24:50Z</time>
      </trkpt>
      <trkpt lat="45.477045" lon="1.817863">
        <ele>643</ele>
        <time>2023-05-07T10:24:51Z</time>
      </trkpt>
      <trkpt lat="45.477062" lon="1.817845">
        <ele>643</ele>
        <time>2023-05-07T10:24:52Z</time>
      </trkpt>
      <trkpt lat="45.477079" lon="1.817827">
        <ele>643</ele>
        <time>2023-05-07T10:24:53Z</time>
      </trkpt>
      <trkpt lat="45.477095" lon="1.817810">
        <ele>643</ele>
        <time>2023-05-07T10:24:54Z</time>
      </trkpt>
      <trkpt lat="45.477111" lon="1.817792">
        <ele>643</ele>
        <time>2023-05-07T10:24:55Z</time>
      </trkpt>
      <trkpt lat="45.477126" lon="1.817773">
        <ele>643</ele>
        <time>2023-05-07T10:24:56Z</time>
      </trkpt>
      <trkpt lat="45.477142" lon="1.817754">
        <ele>643</ele>
        <time>2023-05-07T10:24:57Z</time>
      </trkpt>
      <trkpt lat="45.477159" lon="1.817732">
        <ele>643</ele>
        <time>2023-05-07T10:24:58Z</time>
      </trkpt>
      <trkpt lat="45.477176" lon="1.817711">
        <ele>643</ele>
        <time>2023-05-07T10:24:59Z</time>
      </trkpt>
      <trkpt lat="45.477195" lon="1.817687">
        <ele>643</ele>
        <time>2023-05-07T10:25:00Z</time>
      </trkpt>
      <trkpt lat="45.477215" lon="1.817664">
        <ele>643</ele>
        <time>2023-05-07T10:25:01Z</time>
      </trkpt>
      <trkpt lat="45.477236" lon="1.817638">
        <ele>643</ele>
        <time>2023-05-07T10:25:02Z</time>
      </trkpt>
      <trkpt lat="45.477257" lon="1.817612">
        <ele>643</ele>
        <time>2023-05-07T10:25:03Z</time>
      </trkpt>
      <trkpt lat="45.477278" lon="1.817586">
        <ele>643</ele>
        <time>2023-05-07T10:25:04Z</time>
      </trkpt>
      <trkpt lat="45.477299" lon="1.817560">
        <ele>643</ele>
        <time>2023-05-07T10:25:05Z</time>
      </trkpt>
      <trkpt lat="45.477319" lon="1.817533">
        <ele>643</ele>
        <time>2023-05-07T10:25:06Z</time>
      </trkpt>
      <trkpt lat="45.477340" lon="1.817507">
        <ele>643</ele>
        <time>2023-05-07T10:25:07Z</time>
      </trkpt>
      <trkpt lat="45.477359" lon="1.817481">
        <ele>643</ele>
        <time>2023-05-07T10:25:08Z</time>
      </trkpt>
      <trkpt lat="45.477378" lon="1.817454">
        <ele>643</ele>
        <time>2023-05-07T10:25:09Z</time>
      </trkpt>
      <trkpt lat="45.477395" lon="1.817425">
        <ele>643</ele>
        <time>2023-05-07T10:25:10Z</time>
      </trkpt>
      <trkpt lat="45.477411" lon="1.817397">
        <ele>643</ele>
        <time>2023-05-07T10:25:11Z</time>
      </trkpt>
      <trkpt lat="45.477424" lon="1.817368">
        <ele>643</ele>
        <time>2023-05-07T10:25:12Z</time>
      </trkpt>
      <trkpt lat="45.477437" lon="1.817338">
        <ele>643</ele>
        <time>2023-05-07T10:25:13Z</time>
      </trkpt>
      <trkpt lat="45.477448" lon="1.817310">
        <ele>643</ele>
        <time>2023-05-07T10:25:14Z</time>
      </trkpt>
      <trkpt lat="45.477459" lon="1.817282">
        <ele>643</ele>
        <time>2023-05-07T10:25:15Z</time>
      </trkpt>
      <trkpt lat="45.477469" lon="1.817256">
        <ele>643</ele>
        <time>2023-05-07T10:25:16Z</time>
      </trkpt>
      <trkpt lat="45.477480" lon="1.817230">
        <ele>643</ele>
        <time>2023-05-07T10:25:17Z</time>
      </trkpt>
      <trkpt lat="45.477488" lon="1.817202">
        <ele>642</ele>
        <time>2023-05-07T10:25:18Z</time>
      </trkpt>
      <trkpt lat="45.477497" lon="1.817175">
        <ele>642</ele>
        <time>2023-05-07T10:25:19Z</time>
      </trkpt>
      <trkpt lat="45.477506" lon="1.817146">
        <ele>642</ele>
        <time>2023-05-07T10:25:20Z</time>
      </trkpt>
      <trkpt lat="45.477515" lon="1.817117">
        <ele>642</ele>
        <time>2023-05-07T10:25:21Z</time>
      </trkpt>
      <trkpt lat="45.477523" lon="1.817089">
        <ele>642</ele>
        <time>2023-05-07T10:25:22Z</time>
      </trkpt>
      <trkpt lat="45.477531" lon="1.817061">
        <ele>642</ele>
        <time>2023-05-07T10:25:23Z</time>
      </trkpt>
      <trkpt lat="45.477539" lon="1.817035">
        <ele>642</ele>
        <time>2023-05-07T10:25:24Z</time>
      </trkpt>
      <trkpt lat="45.477546" lon="1.817008">
        <ele>642</ele>
        <time>2023-05-07T10:25:25Z</time>
      </trkpt>
      <trkpt lat="45.477551" lon="1.816982">
        <ele>642</ele>
        <time>2023-05-07T10:25:26Z</time>
      </trkpt>
      <trkpt lat="45.477556" lon="1.816955">
        <ele>642</ele>
        <time>2023-05-07T10:25:27Z</time>
      </trkpt>
      <trkpt lat="45.477561" lon="1.816929">
        <ele>642</ele>
        <time>2023-05-07T10:25:28Z</time>
      </trkpt>
      <trkpt lat="45.477565" lon="1.816902">
        <ele>642</ele>
        <time>2023-05-07T10:25:29Z</time>
      </trkpt>
      <trkpt lat="45.477571" lon="1.816877">
        <ele>642</ele>
        <time>2023-05-07T10:25:30Z</time>
      </trkpt>
      <trkpt lat="45.477577" lon="1.816853">
        <ele>642</ele>
        <time>2023-05-07T10:25:31Z</time>
      </trkpt>
      <trkpt lat="45.477584" lon="1.816830">
        <ele>642</ele>
        <time>2023-05-07T10:25:32Z</time>
      </trkpt>
      <trkpt lat="45.477591" lon="1.816807">
        <ele>642</ele>
        <time>2023-05-07T10:25:33Z</time>
      </trkpt>
      <trkpt lat="45.477598" lon="1.816783">
        <ele>642</ele>
        <time>2023-05-07T10:25:34Z</time>
      </trkpt>
      <trkpt lat="45.477604" lon="1.816759">
        <ele>642</ele>
        <time>2023-05-07T10:25:35Z</time>
      </trkpt>
      <trkpt lat="45.477610" lon="1.816734">
        <ele>642</ele>
        <time>2023-05-07T10:25:36Z</time>
      </trkpt>
      <trkpt lat="45.477617" lon="1.816708">
        <ele>642</ele>
        <time>2023-05-07T10:25:37Z</time>
      </trkpt>
      <trkpt lat="45.477622" lon="1.816684">
        <ele>642</ele>
        <time>2023-05-07T10:25:38Z</time>
      </trkpt>
      <trkpt lat="45.477628" lon="1.816659">
        <ele>642</ele>
        <time>2023-05-07T10:25:39Z</time>
      </trkpt>
      <trkpt lat="45.477785" lon="1.816539">
        <ele>642</ele>
        <time>2023-05-07T10:27:10Z</time>
      </trkpt>
      <trkpt lat="45.477801" lon="1.816544">
        <ele>642</ele>
        <time>2023-05-07T10:27:11Z</time>
      </trkpt>
      <trkpt lat="45.477816" lon="1.816550">
        <ele>642</ele>
        <time>2023-05-07T10:27:12Z</time>
      </trkpt>
      <trkpt lat="45.477833" lon="1.816555">
        <ele>642</ele>
        <time>2023-05-07T10:27:13Z</time>
      </trkpt>
      <trkpt lat="45.477850" lon="1.816561">
        <ele>642</ele>
        <time>2023-05-07T10:27:14Z</time>
      </trkpt>
      <trkpt lat="45.477869" lon="1.816567">
        <ele>642</ele>
        <time>2023-05-07T10:27:15Z</time>
      </trkpt>
      <trkpt lat="45.477888" lon="1.816574">
        <ele>642</ele>
        <time>2023-05-07T10:27:16Z</time>
      </trkpt>
      <trkpt lat="45.477907" lon="1.816580">
        <ele>642</ele>
        <time>2023-05-07T10:27:17Z</time>
      </trkpt>
      <trkpt lat="45.477926" lon="1.816587">
        <ele>642</ele>
        <time>2023-05-07T10:27:18Z</time>
      </trkpt>
      <trkpt lat="45.477945" lon="1.816592">
        <ele>642</ele>
        <time>2023-05-07T10:27:19Z</time>
      </trkpt>
      <trkpt lat="45.477964" lon="1.816598">
        <ele>642</ele>
        <time>2023-05-07T10:27:20Z</time>
      </trkpt>
      <trkpt lat="45.477981" lon="1.816604">
        <ele>642</ele>
        <time>2023-05-07T10:27:21Z</time>
      </trkpt>
      <trkpt lat="45.477998" lon="1.816611">
        <ele>642</ele>
        <time>2023-05-07T10:27:22Z</time>
      </trkpt>
      <trkpt lat="45.478013" lon="1.816616">
        <ele>642</ele>
        <time>2023-05-07T10:27:23Z</time>
      </trkpt>
      <trkpt lat="45.478029" lon="1.816622">
        <ele>642</ele>
        <time>2023-05-07T10:27:24Z</time>
      </trkpt>
      <trkpt lat="45.478044" lon="1.816629">
        <ele>642</ele>
        <time>2023-05-07T10:27:25Z</time>
      </trkpt>
      <trkpt lat="45.478059" lon="1.816635">
        <ele>642</ele>
        <time>2023-05-07T10:27:26Z</time>
      </trkpt>
      <trkpt lat="45.478073" lon="1.816643">
        <ele>643</ele>
        <time>2023-05-07T10:27:27Z</time>
      </trkpt>
      <trkpt lat="45.478088" lon="1.816651">
        <ele>643</ele>
        <time>2023-05-07T10:27:28Z</time>
      </trkpt>
      <trkpt lat="45.478102" lon="1.816659">
        <ele>643</ele>
        <time>2023-05-07T10:27:29Z</time>
      </trkpt>
      <trkpt lat="45.478115" lon="1.816667">
        <ele>643</ele>
        <time>2023-05-07T10:27:30Z</time>
      </trkpt>
      <trkpt lat="45.478129" lon="1.816674">
        <ele>643</ele>
        <time>2023-05-07T10:27:31Z</time>
      </trkpt>
      <trkpt lat="45.478143" lon="1.816681">
        <ele>643</ele>
        <time>2023-05-07T10:27:32Z</time>
      </trkpt>
      <trkpt lat="45.478158" lon="1.816686">
        <ele>643</ele>
        <time>2023-05-07T10:27:33Z</time>
      </trkpt>
      <trkpt lat="45.478173" lon="1.816692">
        <ele>643</ele>
        <time>2023-05-07T10:27:34Z</time>
      </trkpt>
      <trkpt lat="45.478187" lon="1.816696">
        <ele>643</ele>
        <time>2023-05-07T10:27:35Z</time>
      </trkpt>
      <trkpt lat="45.478201" lon="1.816700">
        <ele>643</ele>
        <time>2023-05-07T10:27:36Z</time>
      </trkpt>
      <trkpt lat="45.478215" lon="1.816705">
        <ele>644</ele>
        <time>2023-05-07T10:27:37Z</time>
      </trkpt>
      <trkpt lat="45.478229" lon="1.816709">
        <ele>644</ele>
        <time>2023-05-07T10:27:38Z</time>
      </trkpt>
      <trkpt lat="45.478243" lon="1.816715">
        <ele>644</ele>
        <time>2023-05-07T10:27:39Z</time>
      </trkpt>
      <trkpt lat="45.478257" lon="1.816720">
        <ele>644</ele>
        <time>2023-05-07T10:27:40Z</time>
      </trkpt>
      <trkpt lat="45.478272" lon="1.816726">
        <ele>644</ele>
        <time>2023-05-07T10:27:41Z</time>
      </trkpt>
      <trkpt lat="45.478287" lon="1.816732">
        <ele>644</ele>
        <time>2023-05-07T10:27:42Z</time>
      </trkpt>
      <trkpt lat="45.478302" lon="1.816737">
        <ele>644</ele>
        <time>2023-05-07T10:27:43Z</time>
      </trkpt>
      <trkpt lat="45.478317" lon="1.816742">
        <ele>644</ele>
        <time>2023-05-07T10:27:44Z</time>
      </trkpt>
      <trkpt lat="45.478333" lon="1.816747">
        <ele>644</ele>
        <time>2023-05-07T10:27:45Z</time>
      </trkpt>
      <trkpt lat="45.478349" lon="1.816752">
        <ele>644</ele>
        <time>2023-05-07T10:27:46Z</time>
      </trkpt>
      <trkpt lat="45.478364" lon="1.816754">
        <ele>644</ele>
        <time>2023-05-07T10:27:47Z</time>
      </trkpt>
      <trkpt lat="45.478380" lon="1.816757">
        <ele>644</ele>
        <time>2023-05-07T10:27:48Z</time>
      </trkpt>
      <trkpt lat="45.478396" lon="1.816758">
        <ele>644</ele>
        <time>2023-05-07T10:27:49Z</time>
      </trkpt>
      <trkpt lat="45.478412" lon="1.816759">
        <ele>644</ele>
        <time>2023-05-07T10:27:50Z</time>
      </trkpt>
      <trkpt lat="45.478430" lon="1.816756">
        <ele>644</ele>
        <time>2023-05-07T10:27:51Z</time>
      </trkpt>
      <trkpt lat="45.478447" lon="1.816753">
        <ele>645</ele>
        <time>2023-05-07T10:27:52Z</time>
      </trkpt>
      <trkpt lat="45.478465" lon="1.816745">
        <ele>645</ele>
        <time>2023-05-07T10:27:53Z</time>
      </trkpt>
      <trkpt lat="45.478483" lon="1.816737">
        <ele>645</ele>
        <time>2023-05-07T10:27:54Z</time>
      </trkpt>
      <trkpt lat="45.478500" lon="1.816725">
        <ele>645</ele>
        <time>2023-05-07T10:27:55Z</time>
      </trkpt>
      <trkpt lat="45.478517" lon="1.816714">
        <ele>645</ele>
        <time>2023-05-07T10:27:56Z</time>
      </trkpt>
      <trkpt lat="45.478534" lon="1.816701">
        <ele>645</ele>
        <time>2023-05-07T10:27:57Z</time>
      </trkpt>
      <trkpt lat="45.478551" lon="1.816688">
        <ele>645</ele>
        <time>2023-05-07T10:27:58Z</time>
      </trkpt>
      <trkpt lat="45.478567" lon="1.816674">
        <ele>645</ele>
        <time>2023-05-07T10:27:59Z</time>
      </trkpt>
      <trkpt lat="45.478584" lon="1.816662">
        <ele>645</ele>
        <time>2023-05-07T10:28:00Z</time>
      </trkpt>
      <trkpt lat="45.478601" lon="1.816648">
        <ele>645</ele>
        <time>2023-05-07T10:28:01Z</time>
      </trkpt>
      <trkpt lat="45.478618" lon="1.816635">
        <ele>645</ele>
        <time>2023-05-07T10:28:02Z</time>
      </trkpt>
      <trkpt lat="45.478635" lon="1.816621">
        <ele>645</ele>
        <time>2023-05-07T10:28:03Z</time>
      </trkpt>
      <trkpt lat="45.478652" lon="1.816607">
        <ele>645</ele>
        <time>2023-05-07T10:28:04Z</time>
      </trkpt>
      <trkpt lat="45.478668" lon="1.816595">
        <ele>645</ele>
        <time>2023-05-07T10:28:05Z</time>
      </trkpt>
      <trkpt lat="45.478685" lon="1.816582">
        <ele>645</ele>
        <time>2023-05-07T10:28:06Z</time>
      </trkpt>
      <trkpt lat="45.478700" lon="1.816570">
        <ele>645</ele>
        <time>2023-05-07T10:28:07Z</time>
      </trkpt>
      <trkpt lat="45.478715" lon="1.816558">
        <ele>645</ele>
        <time>2023-05-07T10:28:08Z</time>
      </trkpt>
      <trkpt lat="45.478730" lon="1.816546">
        <ele>645</ele>
        <time>2023-05-07T10:28:09Z</time>
      </trkpt>
      <trkpt lat="45.478745" lon="1.816534">
        <ele>645</ele>
        <time>2023-05-07T10:28:10Z</time>
      </trkpt>
      <trkpt lat="45.478760" lon="1.816523">
        <ele>645</ele>
        <time>2023-05-07T10:28:11Z</time>
      </trkpt>
      <trkpt lat="45.478775" lon="1.816511">
        <ele>645</ele>
        <time>2023-05-07T10:28:12Z</time>
      </trkpt>
      <trkpt lat="45.478792" lon="1.816500">
        <ele>645</ele>
        <time>2023-05-07T10:28:13Z</time>
      </trkpt>
      <trkpt lat="45.478809" lon="1.816489">
        <ele>645</ele>
        <time>2023-05-07T10:28:14Z</time>
      </trkpt>
      <trkpt lat="45.478828" lon="1.816479">
        <ele>645</ele>
        <time>2023-05-07T10:28:15Z</time>
      </trkpt>
      <trkpt lat="45.478846" lon="1.816468">
        <ele>645</ele>
        <time>2023-05-07T10:28:16Z</time>
      </trkpt>
      <trkpt lat="45.478864" lon="1.816461">
        <ele>645</ele>
        <time>2023-05-07T10:28:17Z</time>
      </trkpt>
      <trkpt lat="45.478882" lon="1.816453">
        <ele>645</ele>
        <time>2023-05-07T10:28:18Z</time>
      </trkpt>
      <trkpt lat="45.478899" lon="1.816447">
        <ele>645</ele>
        <time>2023-05-07T10:28:19Z</time>
      </trkpt>
      <trkpt lat="45.478916" lon="1.816442">
        <ele>645</ele>
        <time>2023-05-07T10:28:20Z</time>
      </trkpt>
      <trkpt lat="45.478931" lon="1.816441">
        <ele>645</ele>
        <time>2023-05-07T10:28:21Z</time>
      </trkpt>
      <trkpt lat="45.478946" lon="1.816440">
        <ele>645</ele>
        <time>2023-05-07T10:28:22Z</time>
      </trkpt>
      <trkpt lat="45.478959" lon="1.816442">
        <ele>645</ele>
        <time>2023-05-07T10:28:23Z</time>
      </trkpt>
      <trkpt lat="45.478973" lon="1.816444">
        <ele>645</ele>
        <time>2023-05-07T10:28:24Z</time>
      </trkpt>
      <trkpt lat="45.478986" lon="1.816446">
        <ele>645</ele>
        <time>2023-05-07T10:28:25Z</time>
      </trkpt>
      <trkpt lat="45.479000" lon="1.816448">
        <ele>645</ele>
        <time>2023-05-07T10:28:26Z</time>
      </trkpt>
      <trkpt lat="45.479015" lon="1.816447">
        <ele>646</ele>
        <time>2023-05-07T10:28:27Z</time>
      </trkpt>
      <trkpt lat="45.479030" lon="1.816446">
        <ele>646</ele>
        <time>2023-05-07T10:28:28Z</time>
      </trkpt>
      <trkpt lat="45.479047" lon="1.816442">
        <ele>646</ele>
        <time>2023-05-07T10:28:29Z</time>
      </trkpt>
      <trkpt lat="45.479065" lon="1.816439">
        <ele>646</ele>
        <time>2023-05-07T10:28:30Z</time>
      </trkpt>
      <trkpt lat="45.479084" lon="1.816433">
        <ele>646</ele>
        <time>2023-05-07T10:28:31Z</time>
      </trkpt>
      <trkpt lat="45.479103" lon="1.816428">
        <ele>646</ele>
        <time>2023-05-07T10:28:32Z</time>
      </trkpt>
      <trkpt lat="45.479126" lon="1.816422">
        <ele>646</ele>
        <time>2023-05-07T10:28:33Z</time>
      </trkpt>
      <trkpt lat="45.479149" lon="1.816416">
        <ele>646</ele>
        <time>2023-05-07T10:28:34Z</time>
      </trkpt>
      <trkpt lat="45.479171" lon="1.816410">
        <ele>646</ele>
        <time>2023-05-07T10:28:35Z</time>
      </trkpt>
      <trkpt lat="45.479194" lon="1.816405">
        <ele>646</ele>
        <time>2023-05-07T10:28:36Z</time>
      </trkpt>
      <trkpt lat="45.479216" lon="1.816401">
        <ele>646</ele>
        <time>2023-05-07T10:28:37Z</time>
      </trkpt>
      <trkpt lat="45.479238" lon="1.816396">
        <ele>646</ele>
        <time>2023-05-07T10:28:38Z</time>
      </trkpt>
      <trkpt lat="45.479259" lon="1.816392">
        <ele>646</ele>
        <time>2023-05-07T10:28:39Z</time>
      </trkpt>
      <trkpt lat="45.479280" lon="1.816388">
        <ele>646</ele>
        <time>2023-05-07T10:28:40Z</time>
      </trkpt>
      <trkpt lat="45.479299" lon="1.816384">
        <ele>646</ele>
        <time>2023-05-07T10:28:41Z</time>
      </trkpt>
      <trkpt lat="45.479318" lon="1.816380">
        <ele>646</ele>
        <time>2023-05-07T10:28:42Z</time>
      </trkpt>
      <trkpt lat="45.479338" lon="1.816374">
        <ele>646</ele>
        <time>2023-05-07T10:28:43Z</time>
      </trkpt>
      <trkpt lat="45.479358" lon="1.816368">
        <ele>646</ele>
        <time>2023-05-07T10:28:44Z</time>
      </trkpt>
      <trkpt lat="45.479380" lon="1.816363">
        <ele>646</ele>
        <time>2023-05-07T10:28:45Z</time>
      </trkpt>
      <trkpt lat="45.479402" lon="1.816357">
        <ele>646</ele>
        <time>2023-05-07T10:28:46Z</time>
      </trkpt>
      <trkpt lat="45.479424" lon="1.816351">
        <ele>646</ele>
        <time>2023-05-07T10:28:47Z</time>
      </trkpt>
      <trkpt lat="45.479445" lon="1.816346">
        <ele>646</ele>
        <time>2023-05-07T10:28:48Z</time>
      </trkpt>
      <trkpt lat="45.479464" lon="1.816341">
        <ele>646</ele>
        <time>2023-05-07T10:28:49Z</time>
      </trkpt>
      <trkpt lat="45.479483" lon="1.816336">
        <ele>646</ele>
        <time>2023-05-07T10:28:50Z</time>
      </trkpt>
      <trkpt lat="45.479501" lon="1.816331">
        <ele>646</ele>
        <time>2023-05-07T10:28:51Z</time>
      </trkpt>
      <trkpt lat="45.479519" lon="1.816327">
        <ele>647</ele>
        <time>2023-05-07T10:28:52Z</time>
      </trkpt>
      <trkpt lat="45.479538" lon="1.816324">
        <ele>647</ele>
        <time>2023-05-07T10:28:53Z</time>
      </trkpt>
      <trkpt lat="45.479557" lon="1.816321">
        <ele>647</ele>
        <time>2023-05-07T10:28:54Z</time>
      </trkpt>
      <trkpt lat="45.479577" lon="1.816317">
        <ele>647</ele>
        <time>2023-05-07T10:28:55Z</time>
      </trkpt>
      <trkpt lat="45.479597" lon="1.816313">
        <ele>647</ele>
        <time>2023-05-07T10:28:56Z</time>
      </trkpt>
      <trkpt lat="45.479618" lon="1.816308">
        <ele>647</ele>
        <time>2023-05-07T10:28:57Z</time>
      </trkpt>
      <trkpt lat="45.479640" lon="1.816304">
        <ele>647</ele>
        <time>2023-05-07T10:28:58Z</time>
      </trkpt>
      <trkpt lat="45.479661" lon="1.816298">
        <ele>647</ele>
        <time>2023-05-07T10:28:59Z</time>
      </trkpt>
      <trkpt lat="45.479683" lon="1.816293">
        <ele>647</ele>
        <time>2023-05-07T10:29:00Z</time>
      </trkpt>
      <trkpt lat="45.479703" lon="1.816287">
        <ele>647</ele>
        <time>2023-05-07T10:29:01Z</time>
      </trkpt>
      <trkpt lat="45.479723" lon="1.816281">
        <ele>647</ele>
        <time>2023-05-07T10:29:02Z</time>
      </trkpt>
      <trkpt lat="45.479739" lon="1.816274">
        <ele>647</ele>
        <time>2023-05-07T10:29:03Z</time>
      </trkpt>
      <trkpt lat="45.479755" lon="1.816268">
        <ele>647</ele>
        <time>2023-05-07T10:29:04Z</time>
      </trkpt>
      <trkpt lat="45.479769" lon="1.816258">
        <ele>647</ele>
        <time>2023-05-07T10:29:05Z</time>
      </trkpt>
      <trkpt lat="45.479783" lon="1.816248">
        <ele>647</ele>
        <time>2023-05-07T10:29:06Z</time>
      </trkpt>
      <trkpt lat="45.479796" lon="1.816234">
        <ele>647</ele>
        <time>2023-05-07T10:29:07Z</time>
      </trkpt>
      <trkpt lat="45.479809" lon="1.816221">
        <ele>647</ele>
        <time>2023-05-07T10:29:08Z</time>
      </trkpt>
      <trkpt lat="45.479816" lon="1.816204">
        <ele>647</ele>
        <time>2023-05-07T10:29:09Z</time>
      </trkpt>
      <trkpt lat="45.479823" lon="1.816187">
        <ele>647</ele>
        <time>2023-05-07T10:29:10Z</time>
      </trkpt>
      <trkpt lat="45.479823" lon="1.816170">
        <ele>647</ele>
        <time>2023-05-07T10:29:11Z</time>
      </trkpt>
      <trkpt lat="45.479823" lon="1.816152">
        <ele>647</ele>
        <time>2023-05-07T10:29:12Z</time>
      </trkpt>
      <trkpt lat="45.479818" lon="1.816134">
        <ele>647</ele>
        <time>2023-05-07T10:29:13Z</time>
      </trkpt>
      <trkpt lat="45.479814" lon="1.816117">
        <ele>647</ele>
        <time>2023-05-07T10:29:14Z</time>
      </trkpt>
      <trkpt lat="45.479808" lon="1.816101">
        <ele>647</ele>
        <time>2023-05-07T10:29:15Z</time>
      </trkpt>
      <trkpt lat="45.479802" lon="1.816086">
        <ele>647</ele>
        <time>2023-05-07T10:29:16Z</time>
      </trkpt>
      <trkpt lat="45.479797" lon="1.816068">
        <ele>647</ele>
        <time>2023-05-07T10:29:17Z</time>
      </trkpt>
      <trkpt lat="45.479791" lon="1.816051">
        <ele>646</ele>
        <time>2023-05-07T10:29:18Z</time>
      </trkpt>
      <trkpt lat="45.479787" lon="1.816031">
        <ele>646</ele>
        <time>2023-05-07T10:29:19Z</time>
      </trkpt>
      <trkpt lat="45.479782" lon="1.816010">
        <ele>646</ele>
        <time>2023-05-07T10:29:20Z</time>
      </trkpt>
      <trkpt lat="45.479775" lon="1.815988">
        <ele>646</ele>
        <time>2023-05-07T10:29:21Z</time>
      </trkpt>
      <trkpt lat="45.479768" lon="1.815966">
        <ele>646</ele>
        <time>2023-05-07T10:29:22Z</time>
      </trkpt>
      <trkpt lat="45.479759" lon="1.815941">
        <ele>646</ele>
        <time>2023-05-07T10:29:23Z</time>
      </trkpt>
      <trkpt lat="45.479750" lon="1.815916">
        <ele>646</ele>
        <time>2023-05-07T10:29:24Z</time>
      </trkpt>
      <trkpt lat="45.479741" lon="1.815889">
        <ele>646</ele>
        <time>2023-05-07T10:29:25Z</time>
      </trkpt>
      <trkpt lat="45.479732" lon="1.815864">
        <ele>646</ele>
        <time>2023-05-07T10:29:26Z</time>
      </trkpt>
      <trkpt lat="45.479727" lon="1.815836">
        <ele>646</ele>
        <time>2023-05-07T10:29:27Z</time>
      </trkpt>
      <trkpt lat="45.479721" lon="1.815808">
        <ele>646</ele>
        <time>2023-05-07T10:29:28Z</time>
      </trkpt>
      <trkpt lat="45.479716" lon="1.815776">
        <ele>646</ele>
        <time>2023-05-07T10:29:29Z</time>
      </trkpt>
      <trkpt lat="45.479711" lon="1.815743">
        <ele>646</ele>
        <time>2023-05-07T10:29:30Z</time>
      </trkpt>
      <trkpt lat="45.479706" lon="1.815706">
        <ele>646</ele>
        <time>2023-05-07T10:29:31Z</time>
      </trkpt>
      <trkpt lat="45.479701" lon="1.815670">
        <ele>646</ele>
        <time>2023-05-07T10:29:32Z</time>
      </trkpt>
      <trkpt lat="45.479694" lon="1.815630">
        <ele>646</ele>
        <time>2023-05-07T10:29:33Z</time>
      </trkpt>
      <trkpt lat="45.479687" lon="1.815591">
        <ele>646</ele>
        <time>2023-05-07T10:29:34Z</time>
      </trkpt>
      <trkpt lat="45.479678" lon="1.815551">
        <ele>646</ele>
        <time>2023-05-07T10:29:35Z</time>
      </trkpt>
      <trkpt lat="45.479670" lon="1.815511">
        <ele>646</ele>
        <time>2023-05-07T10:29:36Z</time>
      </trkpt>
      <trkpt lat="45.479661" lon="1.815471">
        <ele>646</ele>
        <time>2023-05-07T10:29:37Z</time>
      </trkpt>
      <trkpt lat="45.479652" lon="1.815431">
        <ele>645</ele>
        <time>2023-05-07T10:29:38Z</time>
      </trkpt>
      <trkpt lat="45.479642" lon="1.815390">
        <ele>645</ele>
        <time>2023-05-07T10:29:39Z</time>
      </trkpt>
      <trkpt lat="45.479632" lon="1.815349">
        <ele>645</ele>
        <time>2023-05-07T10:29:40Z</time>
      </trkpt>
      <trkpt lat="45.479620" lon="1.815309">
        <ele>645</ele>
        <time>2023-05-07T10:29:41Z</time>
      </trkpt>
      <trkpt lat="45.479609" lon="1.815269">
        <ele>645</ele>
        <time>2023-05-07T10:29:42Z</time>
      </trkpt>
      <trkpt lat="45.479599" lon="1.815230">
        <ele>644</ele>
        <time>2023-05-07T10:29:43Z</time>
      </trkpt>
      <trkpt lat="45.479588" lon="1.815191">
        <ele>644</ele>
        <time>2023-05-07T10:29:44Z</time>
      </trkpt>
      <trkpt lat="45.479582" lon="1.815153">
        <ele>644</ele>
        <time>2023-05-07T10:29:45Z</time>
      </trkpt>
      <trkpt lat="45.479576" lon="1.815114">
        <ele>644</ele>
        <time>2023-05-07T10:29:46Z</time>
      </trkpt>
      <trkpt lat="45.479572" lon="1.815073">
        <ele>644</ele>
        <time>2023-05-07T10:29:47Z</time>
      </trkpt>
      <trkpt lat="45.479568" lon="1.815032">
        <ele>643</ele>
        <time>2023-05-07T10:29:48Z</time>
      </trkpt>
      <trkpt lat="45.479563" lon="1.814987">
        <ele>643</ele>
        <time>2023-05-07T10:29:49Z</time>
      </trkpt>
      <trkpt lat="45.479557" lon="1.814942">
        <ele>643</ele>
        <time>2023-05-07T10:29:50Z</time>
      </trkpt>
      <trkpt lat="45.479549" lon="1.814894">
        <ele>643</ele>
        <time>2023-05-07T10:29:51Z</time>
      </trkpt>
      <trkpt lat="45.479540" lon="1.814846">
        <ele>643</ele>
        <time>2023-05-07T10:29:52Z</time>
      </trkpt>
      <trkpt lat="45.479529" lon="1.814795">
        <ele>643</ele>
        <time>2023-05-07T10:29:53Z</time>
      </trkpt>
      <trkpt lat="45.479518" lon="1.814745">
        <ele>643</ele>
        <time>2023-05-07T10:29:54Z</time>
      </trkpt>
      <trkpt lat="45.479507" lon="1.814695">
        <ele>643</ele>
        <time>2023-05-07T10:29:55Z</time>
      </trkpt>
      <trkpt lat="45.479496" lon="1.814645">
        <ele>643</ele>
        <time>2023-05-07T10:29:56Z</time>
      </trkpt>
      <trkpt lat="45.479488" lon="1.814598">
        <ele>643</ele>
        <time>2023-05-07T10:29:57Z</time>
      </trkpt>
      <trkpt lat="45.479480" lon="1.814550">
        <ele>642</ele>
        <time>2023-05-07T10:29:58Z</time>
      </trkpt>
      <trkpt lat="45.479475" lon="1.814505">
        <ele>642</ele>
        <time>2023-05-07T10:29:59Z</time>
      </trkpt>
      <trkpt lat="45.479471" lon="1.814459">
        <ele>642</ele>
        <time>2023-05-07T10:30:00Z</time>
      </trkpt>
      <trkpt lat="45.479469" lon="1.814418">
        <ele>642</ele>
        <time>2023-05-07T10:30:01Z</time>
      </trkpt>
      <trkpt lat="45.479468" lon="1.814376">
        <ele>642</ele>
        <time>2023-05-07T10:30:02Z</time>
      </trkpt>
      <trkpt lat="45.479466" lon="1.814334">
        <ele>641</ele>
        <time>2023-05-07T10:30:03Z</time>
      </trkpt>
      <trkpt lat="45.479464" lon="1.814293">
        <ele>641</ele>
        <time>2023-05-07T10:30:04Z</time>
      </trkpt>
      <trkpt lat="45.479459" lon="1.814237">
        <ele>640</ele>
        <time>2023-05-07T10:30:05Z</time>
      </trkpt>
      <trkpt lat="45.479455" lon="1.814182">
        <ele>640</ele>
        <time>2023-05-07T10:30:06Z</time>
      </trkpt>
      <trkpt lat="45.479449" lon="1.814124">
        <ele>640</ele>
        <time>2023-05-07T10:30:07Z</time>
      </trkpt>
      <trkpt lat="45.479444" lon="1.814066">
        <ele>639</ele>
        <time>2023-05-07T10:30:08Z</time>
      </trkpt>
      <trkpt lat="45.479440" lon="1.814013">
        <ele>639</ele>
        <time>2023-05-07T10:30:09Z</time>
      </trkpt>
      <trkpt lat="45.479436" lon="1.813959">
        <ele>639</ele>
        <time>2023-05-07T10:30:10Z</time>
      </trkpt>
      <trkpt lat="45.479438" lon="1.813914">
        <ele>639</ele>
        <time>2023-05-07T10:30:11Z</time>
      </trkpt>
      <trkpt lat="45.479439" lon="1.813868">
        <ele>639</ele>
        <time>2023-05-07T10:30:12Z</time>
      </trkpt>
      <trkpt lat="45.479444" lon="1.813826">
        <ele>638</ele>
        <time>2023-05-07T10:30:13Z</time>
      </trkpt>
      <trkpt lat="45.479450" lon="1.813784">
        <ele>638</ele>
        <time>2023-05-07T10:30:14Z</time>
      </trkpt>
      <trkpt lat="45.479459" lon="1.813744">
        <ele>637</ele>
        <time>2023-05-07T10:30:15Z</time>
      </trkpt>
      <trkpt lat="45.479467" lon="1.813705">
        <ele>637</ele>
        <time>2023-05-07T10:30:16Z</time>
      </trkpt>
      <trkpt lat="45.479478" lon="1.813668">
        <ele>637</ele>
        <time>2023-05-07T10:30:17Z</time>
      </trkpt>
      <trkpt lat="45.479488" lon="1.813631">
        <ele>636</ele>
        <time>2023-05-07T10:30:18Z</time>
      </trkpt>
      <trkpt lat="45.479497" lon="1.813596">
        <ele>636</ele>
        <time>2023-05-07T10:30:19Z</time>
      </trkpt>
      <trkpt lat="45.479506" lon="1.813560">
        <ele>636</ele>
        <time>2023-05-07T10:30:20Z</time>
      </trkpt>
      <trkpt lat="45.479513" lon="1.813522">
        <ele>636</ele>
        <time>2023-05-07T10:30:21Z</time>
      </trkpt>
      <trkpt lat="45.479521" lon="1.813483">
        <ele>636</ele>
        <time>2023-05-07T10:30:22Z</time>
      </trkpt>
      <trkpt lat="45.479527" lon="1.813444">
        <ele>635</ele>
        <time>2023-05-07T10:30:23Z</time>
      </trkpt>
      <trkpt lat="45.479533" lon="1.813404">
        <ele>635</ele>
        <time>2023-05-07T10:30:24Z</time>
      </trkpt>
      <trkpt lat="45.479538" lon="1.813368">
        <ele>634</ele>
        <time>2023-05-07T10:30:25Z</time>
      </trkpt>
      <trkpt lat="45.479543" lon="1.813331">
        <ele>634</ele>
        <time>2023-05-07T10:30:26Z</time>
      </trkpt>
      <trkpt lat="45.479548" lon="1.813297">
        <ele>634</ele>
        <time>2023-05-07T10:30:27Z</time>
      </trkpt>
      <trkpt lat="45.479554" lon="1.813263">
        <ele>633</ele>
        <time>2023-05-07T10:30:28Z</time>
      </trkpt>
      <trkpt lat="45.479558" lon="1.813231">
        <ele>633</ele>
        <time>2023-05-07T10:30:29Z</time>
      </trkpt>
      <trkpt lat="45.479562" lon="1.813198">
        <ele>633</ele>
        <time>2023-05-07T10:30:30Z</time>
      </trkpt>
      <trkpt lat="45.479564" lon="1.813168">
        <ele>633</ele>
        <time>2023-05-07T10:30:31Z</time>
      </trkpt>
      <trkpt lat="45.479566" lon="1.813138">
        <ele>633</ele>
        <time>2023-05-07T10:30:32Z</time>
      </trkpt>
      <trkpt lat="45.479568" lon="1.813111">
        <ele>632</ele>
        <time>2023-05-07T10:30:33Z</time>
      </trkpt>
      <trkpt lat="45.479568" lon="1.813083">
        <ele>632</ele>
        <time>2023-05-07T10:30:34Z</time>
      </trkpt>
      <trkpt lat="45.479569" lon="1.813057">
        <ele>631</ele>
        <time>2023-05-07T10:30:35Z</time>
      </trkpt>
      <trkpt lat="45.479570" lon="1.813031">
        <ele>631</ele>
        <time>2023-05-07T10:30:36Z</time>
      </trkpt>
      <trkpt lat="45.479572" lon="1.813006">
        <ele>631</ele>
        <time>2023-05-07T10:30:37Z</time>
      </trkpt>
      <trkpt lat="45.479574" lon="1.812981">
        <ele>630</ele>
        <time>2023-05-07T10:30:38Z</time>
      </trkpt>
      <trkpt lat="45.479578" lon="1.812955">
        <ele>630</ele>
        <time>2023-05-07T10:30:39Z</time>
      </trkpt>
      <trkpt lat="45.479581" lon="1.812928">
        <ele>629</ele>
        <time>2023-05-07T10:30:40Z</time>
      </trkpt>
      <trkpt lat="45.479585" lon="1.812901">
        <ele>629</ele>
        <time>2023-05-07T10:30:41Z</time>
      </trkpt>
      <trkpt lat="45.479589" lon="1.812874">
        <ele>629</ele>
        <time>2023-05-07T10:30:42Z</time>
      </trkpt>
      <trkpt lat="45.479592" lon="1.812848">
        <ele>628</ele>
        <time>2023-05-07T10:30:43Z</time>
      </trkpt>
      <trkpt lat="45.479595" lon="1.812821">
        <ele>628</ele>
        <time>2023-05-07T10:30:44Z</time>
      </trkpt>
      <trkpt lat="45.479596" lon="1.812795">
        <ele>628</ele>
        <time>2023-05-07T10:30:45Z</time>
      </trkpt>
      <trkpt lat="45.479597" lon="1.812768">
        <ele>628</ele>
        <time>2023-05-07T10:30:46Z</time>
      </trkpt>
      <trkpt lat="45.479596" lon="1.812738">
        <ele>628</ele>
        <time>2023-05-07T10:30:47Z</time>
      </trkpt>
      <trkpt lat="45.479595" lon="1.812708">
        <ele>627</ele>
        <time>2023-05-07T10:30:48Z</time>
      </trkpt>
      <trkpt lat="45.479593" lon="1.812677">
        <ele>627</ele>
        <time>2023-05-07T10:30:49Z</time>
      </trkpt>
      <trkpt lat="45.479591" lon="1.812645">
        <ele>626</ele>
        <time>2023-05-07T10:30:50Z</time>
      </trkpt>
      <trkpt lat="45.479588" lon="1.812614">
        <ele>626</ele>
        <time>2023-05-07T10:30:51Z</time>
      </trkpt>
      <trkpt lat="45.479585" lon="1.812583">
        <ele>626</ele>
        <time>2023-05-07T10:30:52Z</time>
      </trkpt>
      <trkpt lat="45.479581" lon="1.812551">
        <ele>625</ele>
        <time>2023-05-07T10:30:53Z</time>
      </trkpt>
      <trkpt lat="45.479577" lon="1.812519">
        <ele>625</ele>
        <time>2023-05-07T10:30:54Z</time>
      </trkpt>
      <trkpt lat="45.479572" lon="1.812489">
        <ele>625</ele>
        <time>2023-05-07T10:30:55Z</time>
      </trkpt>
      <trkpt lat="45.479568" lon="1.812458">
        <ele>625</ele>
        <time>2023-05-07T10:30:56Z</time>
      </trkpt>
      <trkpt lat="45.479564" lon="1.812429">
        <ele>625</ele>
        <time>2023-05-07T10:30:57Z</time>
      </trkpt>
      <trkpt lat="45.479559" lon="1.812401">
        <ele>624</ele>
        <time>2023-05-07T10:30:58Z</time>
      </trkpt>
      <trkpt lat="45.479553" lon="1.812370">
        <ele>624</ele>
        <time>2023-05-07T10:30:59Z</time>
      </trkpt>
      <trkpt lat="45.479547" lon="1.812340">
        <ele>624</ele>
        <time>2023-05-07T10:31:00Z</time>
      </trkpt>
      <trkpt lat="45.479539" lon="1.812306">
        <ele>624</ele>
        <time>2023-05-07T10:31:01Z</time>
      </trkpt>
      <trkpt lat="45.479531" lon="1.812272">
        <ele>624</ele>
        <time>2023-05-07T10:31:02Z</time>
      </trkpt>
      <trkpt lat="45.479525" lon="1.812234">
        <ele>623</ele>
        <time>2023-05-07T10:31:03Z</time>
      </trkpt>
      <trkpt lat="45.479519" lon="1.812196">
        <ele>623</ele>
        <time>2023-05-07T10:31:04Z</time>
      </trkpt>
      <trkpt lat="45.479519" lon="1.812153">
        <ele>623</ele>
        <time>2023-05-07T10:31:05Z</time>
      </trkpt>
      <trkpt lat="45.479519" lon="1.812109">
        <ele>623</ele>
        <time>2023-05-07T10:31:06Z</time>
      </trkpt>
      <trkpt lat="45.479525" lon="1.812067">
        <ele>623</ele>
        <time>2023-05-07T10:31:07Z</time>
      </trkpt>
      <trkpt lat="45.479531" lon="1.812025">
        <ele>622</ele>
        <time>2023-05-07T10:31:08Z</time>
      </trkpt>
      <trkpt lat="45.479541" lon="1.811986">
        <ele>622</ele>
        <time>2023-05-07T10:31:09Z</time>
      </trkpt>
      <trkpt lat="45.479551" lon="1.811948">
        <ele>622</ele>
        <time>2023-05-07T10:31:10Z</time>
      </trkpt>
      <trkpt lat="45.479563" lon="1.811909">
        <ele>622</ele>
        <time>2023-05-07T10:31:11Z</time>
      </trkpt>
      <trkpt lat="45.479575" lon="1.811870">
        <ele>622</ele>
        <time>2023-05-07T10:31:12Z</time>
      </trkpt>
      <trkpt lat="45.479589" lon="1.811832">
        <ele>621</ele>
        <time>2023-05-07T10:31:13Z</time>
      </trkpt>
      <trkpt lat="45.479603" lon="1.811794">
        <ele>621</ele>
        <time>2023-05-07T10:31:14Z</time>
      </trkpt>
      <trkpt lat="45.479616" lon="1.811756">
        <ele>621</ele>
        <time>2023-05-07T10:31:15Z</time>
      </trkpt>
      <trkpt lat="45.479630" lon="1.811718">
        <ele>621</ele>
        <time>2023-05-07T10:31:16Z</time>
      </trkpt>
      <trkpt lat="45.479643" lon="1.811680">
        <ele>621</ele>
        <time>2023-05-07T10:31:17Z</time>
      </trkpt>
      <trkpt lat="45.479656" lon="1.811641">
        <ele>621</ele>
        <time>2023-05-07T10:31:18Z</time>
      </trkpt>
      <trkpt lat="45.479669" lon="1.811604">
        <ele>621</ele>
        <time>2023-05-07T10:31:19Z</time>
      </trkpt>
      <trkpt lat="45.479682" lon="1.811567">
        <ele>621</ele>
        <time>2023-05-07T10:31:20Z</time>
      </trkpt>
      <trkpt lat="45.479694" lon="1.811530">
        <ele>621</ele>
        <time>2023-05-07T10:31:21Z</time>
      </trkpt>
      <trkpt lat="45.479707" lon="1.811493">
        <ele>621</ele>
        <time>2023-05-07T10:31:22Z</time>
      </trkpt>
      <trkpt lat="45.479718" lon="1.811461">
        <ele>620</ele>
        <time>2023-05-07T10:31:23Z</time>
      </trkpt>
      <trkpt lat="45.479730" lon="1.811430">
        <ele>620</ele>
        <time>2023-05-07T10:31:24Z</time>
      </trkpt>
      <trkpt lat="45.479742" lon="1.811398">
        <ele>620</ele>
        <time>2023-05-07T10:31:25Z</time>
      </trkpt>
      <trkpt lat="45.479754" lon="1.811367">
        <ele>620</ele>
        <time>2023-05-07T10:31:26Z</time>
      </trkpt>
      <trkpt lat="45.479766" lon="1.811335">
        <ele>620</ele>
        <time>2023-05-07T10:31:27Z</time>
      </trkpt>
      <trkpt lat="45.479778" lon="1.811302">
        <ele>620</ele>
        <time>2023-05-07T10:31:28Z</time>
      </trkpt>
      <trkpt lat="45.479787" lon="1.811270">
        <ele>620</ele>
        <time>2023-05-07T10:31:29Z</time>
      </trkpt>
      <trkpt lat="45.479796" lon="1.811237">
        <ele>620</ele>
        <time>2023-05-07T10:31:30Z</time>
      </trkpt>
      <trkpt lat="45.479802" lon="1.811205">
        <ele>620</ele>
        <time>2023-05-07T10:31:31Z</time>
      </trkpt>
      <trkpt lat="45.479810" lon="1.811173">
        <ele>620</ele>
        <time>2023-05-07T10:31:32Z</time>
      </trkpt>
      <trkpt lat="45.479815" lon="1.811143">
        <ele>620</ele>
        <time>2023-05-07T10:31:33Z</time>
      </trkpt>
      <trkpt lat="45.479821" lon="1.811113">
        <ele>620</ele>
        <time>2023-05-07T10:31:34Z</time>
      </trkpt>
      <trkpt lat="45.479825" lon="1.811085">
        <ele>620</ele>
        <time>2023-05-07T10:31:35Z</time>
      </trkpt>
      <trkpt lat="45.479829" lon="1.811056">
        <ele>620</ele>
        <time>2023-05-07T10:31:36Z</time>
      </trkpt>
      <trkpt lat="45.479832" lon="1.811028">
        <ele>620</ele>
        <time>2023-05-07T10:31:37Z</time>
      </trkpt>
      <trkpt lat="45.479835" lon="1.810999">
        <ele>620</ele>
        <time>2023-05-07T10:31:38Z</time>
      </trkpt>
      <trkpt lat="45.479838" lon="1.810970">
        <ele>620</ele>
        <time>2023-05-07T10:31:39Z</time>
      </trkpt>
      <trkpt lat="45.479841" lon="1.810941">
        <ele>620</ele>
        <time>2023-05-07T10:31:40Z</time>
      </trkpt>
      <trkpt lat="45.479846" lon="1.810912">
        <ele>620</ele>
        <time>2023-05-07T10:31:41Z</time>
      </trkpt>
      <trkpt lat="45.479851" lon="1.810882">
        <ele>620</ele>
        <time>2023-05-07T10:31:42Z</time>
      </trkpt>
      <trkpt lat="45.479858" lon="1.810855">
        <ele>619</ele>
        <time>2023-05-07T10:31:43Z</time>
      </trkpt>
      <trkpt lat="45.479865" lon="1.810828">
        <ele>619</ele>
        <time>2023-05-07T10:31:44Z</time>
      </trkpt>
      <trkpt lat="45.479873" lon="1.810804">
        <ele>619</ele>
        <time>2023-05-07T10:31:45Z</time>
      </trkpt>
      <trkpt lat="45.479881" lon="1.810779">
        <ele>619</ele>
        <time>2023-05-07T10:31:46Z</time>
      </trkpt>
      <trkpt lat="45.479890" lon="1.810759">
        <ele>619</ele>
        <time>2023-05-07T10:31:47Z</time>
      </trkpt>
      <trkpt lat="45.479899" lon="1.810738">
        <ele>619</ele>
        <time>2023-05-07T10:31:48Z</time>
      </trkpt>
      <trkpt lat="45.479906" lon="1.810721">
        <ele>619</ele>
        <time>2023-05-07T10:31:49Z</time>
      </trkpt>
      <trkpt lat="45.479913" lon="1.810704">
        <ele>619</ele>
        <time>2023-05-07T10:31:50Z</time>
      </trkpt>
      <trkpt lat="45.479919" lon="1.810687">
        <ele>619</ele>
        <time>2023-05-07T10:31:51Z</time>
      </trkpt>
      <trkpt lat="45.479924" lon="1.810671">
        <ele>619</ele>
        <time>2023-05-07T10:31:52Z</time>
      </trkpt>
      <trkpt lat="45.479927" lon="1.810652">
        <ele>619</ele>
        <time>2023-05-07T10:31:53Z</time>
      </trkpt>
      <trkpt lat="45.479930" lon="1.810633">
        <ele>619</ele>
        <time>2023-05-07T10:31:54Z</time>
      </trkpt>
      <trkpt lat="45.479933" lon="1.810609">
        <ele>619</ele>
        <time>2023-05-07T10:31:55Z</time>
      </trkpt>
      <trkpt lat="45.479936" lon="1.810585">
        <ele>619</ele>
        <time>2023-05-07T10:31:56Z</time>
      </trkpt>
      <trkpt lat="45.479942" lon="1.810561">
        <ele>619</ele>
        <time>2023-05-07T10:31:57Z</time>
      </trkpt>
      <trkpt lat="45.479947" lon="1.810538">
        <ele>619</ele>
        <time>2023-05-07T10:31:58Z</time>
      </trkpt>
      <trkpt lat="45.479953" lon="1.810518">
        <ele>619</ele>
        <time>2023-05-07T10:31:59Z</time>
      </trkpt>
      <trkpt lat="45.479959" lon="1.810498">
        <ele>619</ele>
        <time>2023-05-07T10:32:00Z</time>
      </trkpt>
      <trkpt lat="45.479965" lon="1.810481">
        <ele>619</ele>
        <time>2023-05-07T10:32:01Z</time>
      </trkpt>
      <trkpt lat="45.479971" lon="1.810464">
        <ele>619</ele>
        <time>2023-05-07T10:32:02Z</time>
      </trkpt>
      <trkpt lat="45.479978" lon="1.810445">
        <ele>619</ele>
        <time>2023-05-07T10:32:03Z</time>
      </trkpt>
      <trkpt lat="45.479985" lon="1.810427">
        <ele>619</ele>
        <time>2023-05-07T10:32:04Z</time>
      </trkpt>
      <trkpt lat="45.479993" lon="1.810406">
        <ele>619</ele>
        <time>2023-05-07T10:32:05Z</time>
      </trkpt>
      <trkpt lat="45.480001" lon="1.810386">
        <ele>619</ele>
        <time>2023-05-07T10:32:06Z</time>
      </trkpt>
      <trkpt lat="45.480008" lon="1.810367">
        <ele>620</ele>
        <time>2023-05-07T10:32:07Z</time>
      </trkpt>
      <trkpt lat="45.480016" lon="1.810348">
        <ele>620</ele>
        <time>2023-05-07T10:32:08Z</time>
      </trkpt>
      <trkpt lat="45.480034" lon="1.810307">
        <ele>615</ele>
        <time>2023-05-07T10:33:26Z</time>
      </trkpt>
      <trkpt lat="45.480042" lon="1.810293">
        <ele>615</ele>
        <time>2023-05-07T10:33:27Z</time>
      </trkpt>
      <trkpt lat="45.480051" lon="1.810278">
        <ele>615</ele>
        <time>2023-05-07T10:33:28Z</time>
      </trkpt>
      <trkpt lat="45.480061" lon="1.810271">
        <ele>615</ele>
        <time>2023-05-07T10:33:29Z</time>
      </trkpt>
      <trkpt lat="45.480072" lon="1.810264">
        <ele>615</ele>
        <time>2023-05-07T10:33:30Z</time>
      </trkpt>
      <trkpt lat="45.480089" lon="1.810259">
        <ele>615</ele>
        <time>2023-05-07T10:33:31Z</time>
      </trkpt>
      <trkpt lat="45.480106" lon="1.810255">
        <ele>616</ele>
        <time>2023-05-07T10:33:32Z</time>
      </trkpt>
      <trkpt lat="45.480127" lon="1.810253">
        <ele>616</ele>
        <time>2023-05-07T10:33:33Z</time>
      </trkpt>
      <trkpt lat="45.480147" lon="1.810250">
        <ele>616</ele>
        <time>2023-05-07T10:33:34Z</time>
      </trkpt>
      <trkpt lat="45.480169" lon="1.810250">
        <ele>616</ele>
        <time>2023-05-07T10:33:35Z</time>
      </trkpt>
      <trkpt lat="45.480190" lon="1.810250">
        <ele>616</ele>
        <time>2023-05-07T10:33:36Z</time>
      </trkpt>
      <trkpt lat="45.480211" lon="1.810249">
        <ele>616</ele>
        <time>2023-05-07T10:33:37Z</time>
      </trkpt>
      <trkpt lat="45.480232" lon="1.810248">
        <ele>616</ele>
        <time>2023-05-07T10:33:38Z</time>
      </trkpt>
      <trkpt lat="45.480252" lon="1.810244">
        <ele>616</ele>
        <time>2023-05-07T10:33:39Z</time>
      </trkpt>
      <trkpt lat="45.480272" lon="1.810239">
        <ele>616</ele>
        <time>2023-05-07T10:33:40Z</time>
      </trkpt>
      <trkpt lat="45.480293" lon="1.810230">
        <ele>616</ele>
        <time>2023-05-07T10:33:41Z</time>
      </trkpt>
      <trkpt lat="45.480314" lon="1.810220">
        <ele>617</ele>
        <time>2023-05-07T10:33:42Z</time>
      </trkpt>
      <trkpt lat="45.480334" lon="1.810210">
        <ele>617</ele>
        <time>2023-05-07T10:33:43Z</time>
      </trkpt>
      <trkpt lat="45.480355" lon="1.810199">
        <ele>617</ele>
        <time>2023-05-07T10:33:44Z</time>
      </trkpt>
      <trkpt lat="45.480376" lon="1.810188">
        <ele>617</ele>
        <time>2023-05-07T10:33:45Z</time>
      </trkpt>
      <trkpt lat="45.480398" lon="1.810178">
        <ele>617</ele>
        <time>2023-05-07T10:33:46Z</time>
      </trkpt>
      <trkpt lat="45.480418" lon="1.810167">
        <ele>617</ele>
        <time>2023-05-07T10:33:47Z</time>
      </trkpt>
      <trkpt lat="45.480439" lon="1.810157">
        <ele>617</ele>
        <time>2023-05-07T10:33:48Z</time>
      </trkpt>
      <trkpt lat="45.480459" lon="1.810146">
        <ele>617</ele>
        <time>2023-05-07T10:33:49Z</time>
      </trkpt>
      <trkpt lat="45.480478" lon="1.810136">
        <ele>617</ele>
        <time>2023-05-07T10:33:50Z</time>
      </trkpt>
      <trkpt lat="45.480495" lon="1.810123">
        <ele>617</ele>
        <time>2023-05-07T10:33:51Z</time>
      </trkpt>
      <trkpt lat="45.480512" lon="1.810111">
        <ele>618</ele>
        <time>2023-05-07T10:33:52Z</time>
      </trkpt>
      <trkpt lat="45.480525" lon="1.810096">
        <ele>618</ele>
        <time>2023-05-07T10:33:53Z</time>
      </trkpt>
      <trkpt lat="45.480539" lon="1.810081">
        <ele>618</ele>
        <time>2023-05-07T10:33:54Z</time>
      </trkpt>
      <trkpt lat="45.480550" lon="1.810068">
        <ele>618</ele>
        <time>2023-05-07T10:33:55Z</time>
      </trkpt>
      <trkpt lat="45.480562" lon="1.810054">
        <ele>618</ele>
        <time>2023-05-07T10:33:56Z</time>
      </trkpt>
      <trkpt lat="45.480573" lon="1.810042">
        <ele>618</ele>
        <time>2023-05-07T10:33:57Z</time>
      </trkpt>
      <trkpt lat="45.480585" lon="1.810030">
        <ele>618</ele>
        <time>2023-05-07T10:33:58Z</time>
      </trkpt>
      <trkpt lat="45.480594" lon="1.810016">
        <ele>618</ele>
        <time>2023-05-07T10:33:59Z</time>
      </trkpt>
      <trkpt lat="45.480603" lon="1.810003">
        <ele>618</ele>
        <time>2023-05-07T10:34:00Z</time>
      </trkpt>
      <trkpt lat="45.480609" lon="1.809987">
        <ele>618</ele>
        <time>2023-05-07T10:34:01Z</time>
      </trkpt>
      <trkpt lat="45.480615" lon="1.809971">
        <ele>618</ele>
        <time>2023-05-07T10:34:02Z</time>
      </trkpt>
      <trkpt lat="45.480620" lon="1.809951">
        <ele>618</ele>
        <time>2023-05-07T10:34:03Z</time>
      </trkpt>
      <trkpt lat="45.480625" lon="1.809932">
        <ele>618</ele>
        <time>2023-05-07T10:34:04Z</time>
      </trkpt>
      <trkpt lat="45.480630" lon="1.809912">
        <ele>618</ele>
        <time>2023-05-07T10:34:05Z</time>
      </trkpt>
      <trkpt lat="45.480635" lon="1.809893">
        <ele>618</ele>
        <time>2023-05-07T10:34:06Z</time>
      </trkpt>
      <trkpt lat="45.480640" lon="1.809874">
        <ele>619</ele>
        <time>2023-05-07T10:34:07Z</time>
      </trkpt>
      <trkpt lat="45.480645" lon="1.809856">
        <ele>619</ele>
        <time>2023-05-07T10:34:08Z</time>
      </trkpt>
      <trkpt lat="45.480648" lon="1.809837">
        <ele>619</ele>
        <time>2023-05-07T10:34:09Z</time>
      </trkpt>
      <trkpt lat="45.480652" lon="1.809818">
        <ele>619</ele>
        <time>2023-05-07T10:34:10Z</time>
      </trkpt>
      <trkpt lat="45.480652" lon="1.809797">
        <ele>619</ele>
        <time>2023-05-07T10:34:11Z</time>
      </trkpt>
      <trkpt lat="45.480652" lon="1.809777">
        <ele>619</ele>
        <time>2023-05-07T10:34:12Z</time>
      </trkpt>
      <trkpt lat="45.480648" lon="1.809756">
        <ele>619</ele>
        <time>2023-05-07T10:34:13Z</time>
      </trkpt>
      <trkpt lat="45.480644" lon="1.809735">
        <ele>619</ele>
        <time>2023-05-07T10:34:14Z</time>
      </trkpt>
      <trkpt lat="45.480640" lon="1.809713">
        <ele>619</ele>
        <time>2023-05-07T10:34:15Z</time>
      </trkpt>
      <trkpt lat="45.480636" lon="1.809690">
        <ele>619</ele>
        <time>2023-05-07T10:34:16Z</time>
      </trkpt>
      <trkpt lat="45.480632" lon="1.809669">
        <ele>619</ele>
        <time>2023-05-07T10:34:17Z</time>
      </trkpt>
      <trkpt lat="45.480628" lon="1.809649">
        <ele>619</ele>
        <time>2023-05-07T10:34:18Z</time>
      </trkpt>
      <trkpt lat="45.480624" lon="1.809635">
        <ele>619</ele>
        <time>2023-05-07T10:34:19Z</time>
      </trkpt>
      <trkpt lat="45.480620" lon="1.809621">
        <ele>619</ele>
        <time>2023-05-07T10:34:20Z</time>
      </trkpt>
      <trkpt lat="45.480618" lon="1.809609">
        <ele>619</ele>
        <time>2023-05-07T10:34:21Z</time>
      </trkpt>
      <trkpt lat="45.480615" lon="1.809597">
        <ele>619</ele>
        <time>2023-05-07T10:34:22Z</time>
      </trkpt>
      <trkpt lat="45.480616" lon="1.809582">
        <ele>619</ele>
        <time>2023-05-07T10:34:23Z</time>
      </trkpt>
      <trkpt lat="45.480617" lon="1.809567">
        <ele>619</ele>
        <time>2023-05-07T10:34:24Z</time>
      </trkpt>
      <trkpt lat="45.480622" lon="1.809548">
        <ele>619</ele>
        <time>2023-05-07T10:34:25Z</time>
      </trkpt>
      <trkpt lat="45.480627" lon="1.809529">
        <ele>619</ele>
        <time>2023-05-07T10:34:26Z</time>
      </trkpt>
      <trkpt lat="45.480633" lon="1.809506">
        <ele>619</ele>
        <time>2023-05-07T10:34:27Z</time>
      </trkpt>
      <trkpt lat="45.480639" lon="1.809483">
        <ele>619</ele>
        <time>2023-05-07T10:34:28Z</time>
      </trkpt>
      <trkpt lat="45.480643" lon="1.809458">
        <ele>619</ele>
        <time>2023-05-07T10:34:29Z</time>
      </trkpt>
      <trkpt lat="45.480647" lon="1.809434">
        <ele>619</ele>
        <time>2023-05-07T10:34:30Z</time>
      </trkpt>
      <trkpt lat="45.480651" lon="1.809408">
        <ele>619</ele>
        <time>2023-05-07T10:34:31Z</time>
      </trkpt>
      <trkpt lat="45.480655" lon="1.809383">
        <ele>619</ele>
        <time>2023-05-07T10:34:32Z</time>
      </trkpt>
      <trkpt lat="45.480659" lon="1.809359">
        <ele>619</ele>
        <time>2023-05-07T10:34:33Z</time>
      </trkpt>
      <trkpt lat="45.480662" lon="1.809334">
        <ele>619</ele>
        <time>2023-05-07T10:34:34Z</time>
      </trkpt>
      <trkpt lat="45.480663" lon="1.809311">
        <ele>619</ele>
        <time>2023-05-07T10:34:35Z</time>
      </trkpt>
      <trkpt lat="45.480663" lon="1.809287">
        <ele>619</ele>
        <time>2023-05-07T10:34:36Z</time>
      </trkpt>
      <trkpt lat="45.480660" lon="1.809266">
        <ele>620</ele>
        <time>2023-05-07T10:34:37Z</time>
      </trkpt>
      <trkpt lat="45.480657" lon="1.809244">
        <ele>620</ele>
        <time>2023-05-07T10:34:38Z</time>
      </trkpt>
      <trkpt lat="45.480653" lon="1.809223">
        <ele>620</ele>
        <time>2023-05-07T10:34:39Z</time>
      </trkpt>
      <trkpt lat="45.480649" lon="1.809201">
        <ele>620</ele>
        <time>2023-05-07T10:34:40Z</time>
      </trkpt>
      <trkpt lat="45.480647" lon="1.809181">
        <ele>620</ele>
        <time>2023-05-07T10:34:41Z</time>
      </trkpt>
      <trkpt lat="45.480645" lon="1.809161">
        <ele>620</ele>
        <time>2023-05-07T10:34:42Z</time>
      </trkpt>
      <trkpt lat="45.480648" lon="1.809144">
        <ele>620</ele>
        <time>2023-05-07T10:34:43Z</time>
      </trkpt>
      <trkpt lat="45.480651" lon="1.809128">
        <ele>620</ele>
        <time>2023-05-07T10:34:44Z</time>
      </trkpt>
      <trkpt lat="45.480656" lon="1.809109">
        <ele>620</ele>
        <time>2023-05-07T10:34:45Z</time>
      </trkpt>
      <trkpt lat="45.480662" lon="1.809091">
        <ele>620</ele>
        <time>2023-05-07T10:34:46Z</time>
      </trkpt>
      <trkpt lat="45.480668" lon="1.809072">
        <ele>620</ele>
        <time>2023-05-07T10:34:47Z</time>
      </trkpt>
      <trkpt lat="45.480674" lon="1.809052">
        <ele>620</ele>
        <time>2023-05-07T10:34:48Z</time>
      </trkpt>
      <trkpt lat="45.480681" lon="1.809034">
        <ele>620</ele>
        <time>2023-05-07T10:34:49Z</time>
      </trkpt>
      <trkpt lat="45.480688" lon="1.809016">
        <ele>620</ele>
        <time>2023-05-07T10:34:50Z</time>
      </trkpt>
      <trkpt lat="45.480697" lon="1.809000">
        <ele>620</ele>
        <time>2023-05-07T10:34:51Z</time>
      </trkpt>
      <trkpt lat="45.480707" lon="1.808984">
        <ele>620</ele>
        <time>2023-05-07T10:34:52Z</time>
      </trkpt>
      <trkpt lat="45.480716" lon="1.808968">
        <ele>620</ele>
        <time>2023-05-07T10:34:53Z</time>
      </trkpt>
      <trkpt lat="45.480726" lon="1.808953">
        <ele>620</ele>
        <time>2023-05-07T10:34:54Z</time>
      </trkpt>
      <trkpt lat="45.480730" lon="1.808945">
        <ele>620</ele>
        <time>2023-05-07T10:34:55Z</time>
      </trkpt>
      <trkpt lat="45.480734" lon="1.808938">
        <ele>620</ele>
        <time>2023-05-07T10:34:56Z</time>
      </trkpt>
      <trkpt lat="45.480738" lon="1.808927">
        <ele>620</ele>
        <time>2023-05-07T10:34:57Z</time>
      </trkpt>
      <trkpt lat="45.480741" lon="1.808915">
        <ele>620</ele>
        <time>2023-05-07T10:34:58Z</time>
      </trkpt>
      <trkpt lat="45.480742" lon="1.808901">
        <ele>620</ele>
        <time>2023-05-07T10:34:59Z</time>
      </trkpt>
      <trkpt lat="45.480743" lon="1.808888">
        <ele>620</ele>
        <time>2023-05-07T10:35:00Z</time>
      </trkpt>
      <trkpt lat="45.480743" lon="1.808870">
        <ele>620</ele>
        <time>2023-05-07T10:35:01Z</time>
      </trkpt>
      <trkpt lat="45.480744" lon="1.808852">
        <ele>621</ele>
        <time>2023-05-07T10:35:02Z</time>
      </trkpt>
      <trkpt lat="45.480743" lon="1.808831">
        <ele>620</ele>
        <time>2023-05-07T10:35:03Z</time>
      </trkpt>
      <trkpt lat="45.480743" lon="1.808809">
        <ele>620</ele>
        <time>2023-05-07T10:35:04Z</time>
      </trkpt>
      <trkpt lat="45.480742" lon="1.808785">
        <ele>620</ele>
        <time>2023-05-07T10:35:05Z</time>
      </trkpt>
      <trkpt lat="45.480740" lon="1.808760">
        <ele>620</ele>
        <time>2023-05-07T10:35:06Z</time>
      </trkpt>
      <trkpt lat="45.480738" lon="1.808734">
        <ele>620</ele>
        <time>2023-05-07T10:35:07Z</time>
      </trkpt>
      <trkpt lat="45.480736" lon="1.808709">
        <ele>620</ele>
        <time>2023-05-07T10:35:08Z</time>
      </trkpt>
      <trkpt lat="45.480735" lon="1.808685">
        <ele>620</ele>
        <time>2023-05-07T10:35:09Z</time>
      </trkpt>
      <trkpt lat="45.480735" lon="1.808661">
        <ele>620</ele>
        <time>2023-05-07T10:35:10Z</time>
      </trkpt>
      <trkpt lat="45.480736" lon="1.808640">
        <ele>620</ele>
        <time>2023-05-07T10:35:11Z</time>
      </trkpt>
      <trkpt lat="45.480738" lon="1.808619">
        <ele>620</ele>
        <time>2023-05-07T10:35:12Z</time>
      </trkpt>
      <trkpt lat="45.480742" lon="1.808597">
        <ele>620</ele>
        <time>2023-05-07T10:35:13Z</time>
      </trkpt>
      <trkpt lat="45.480746" lon="1.808576">
        <ele>620</ele>
        <time>2023-05-07T10:35:14Z</time>
      </trkpt>
      <trkpt lat="45.480753" lon="1.808554">
        <ele>620</ele>
        <time>2023-05-07T10:35:15Z</time>
      </trkpt>
      <trkpt lat="45.480760" lon="1.808532">
        <ele>620</ele>
        <time>2023-05-07T10:35:16Z</time>
      </trkpt>
      <trkpt lat="45.480768" lon="1.808510">
        <ele>620</ele>
        <time>2023-05-07T10:35:17Z</time>
      </trkpt>
      <trkpt lat="45.480776" lon="1.808488">
        <ele>620</ele>
        <time>2023-05-07T10:35:18Z</time>
      </trkpt>
      <trkpt lat="45.480783" lon="1.808466">
        <ele>620</ele>
        <time>2023-05-07T10:35:19Z</time>
      </trkpt>
      <trkpt lat="45.480790" lon="1.808444">
        <ele>620</ele>
        <time>2023-05-07T10:35:20Z</time>
      </trkpt>
      <trkpt lat="45.480798" lon="1.808421">
        <ele>620</ele>
        <time>2023-05-07T10:35:21Z</time>
      </trkpt>
      <trkpt lat="45.480804" lon="1.808398">
        <ele>620</ele>
        <time>2023-05-07T10:35:22Z</time>
      </trkpt>
      <trkpt lat="45.480812" lon="1.808374">
        <ele>619</ele>
        <time>2023-05-07T10:35:23Z</time>
      </trkpt>
      <trkpt lat="45.480819" lon="1.808350">
        <ele>619</ele>
        <time>2023-05-07T10:35:24Z</time>
      </trkpt>
      <trkpt lat="45.480827" lon="1.808327">
        <ele>619</ele>
        <time>2023-05-07T10:35:25Z</time>
      </trkpt>
      <trkpt lat="45.480836" lon="1.808304">
        <ele>619</ele>
        <time>2023-05-07T10:35:26Z</time>
      </trkpt>
      <trkpt lat="45.480842" lon="1.808281">
        <ele>619</ele>
        <time>2023-05-07T10:35:27Z</time>
      </trkpt>
      <trkpt lat="45.480849" lon="1.808258">
        <ele>619</ele>
        <time>2023-05-07T10:35:28Z</time>
      </trkpt>
      <trkpt lat="45.480852" lon="1.808234">
        <ele>619</ele>
        <time>2023-05-07T10:35:29Z</time>
      </trkpt>
      <trkpt lat="45.480855" lon="1.808209">
        <ele>619</ele>
        <time>2023-05-07T10:35:30Z</time>
      </trkpt>
      <trkpt lat="45.480856" lon="1.808185">
        <ele>619</ele>
        <time>2023-05-07T10:35:31Z</time>
      </trkpt>
      <trkpt lat="45.480857" lon="1.808160">
        <ele>620</ele>
        <time>2023-05-07T10:35:32Z</time>
      </trkpt>
      <trkpt lat="45.480855" lon="1.808136">
        <ele>620</ele>
        <time>2023-05-07T10:35:33Z</time>
      </trkpt>
      <trkpt lat="45.480854" lon="1.808112">
        <ele>620</ele>
        <time>2023-05-07T10:35:34Z</time>
      </trkpt>
      <trkpt lat="45.480851" lon="1.808089">
        <ele>620</ele>
        <time>2023-05-07T10:35:35Z</time>
      </trkpt>
      <trkpt lat="45.480848" lon="1.808066">
        <ele>620</ele>
        <time>2023-05-07T10:35:36Z</time>
      </trkpt>
      <trkpt lat="45.480840" lon="1.808043">
        <ele>620</ele>
        <time>2023-05-07T10:35:37Z</time>
      </trkpt>
      <trkpt lat="45.480833" lon="1.808021">
        <ele>620</ele>
        <time>2023-05-07T10:35:38Z</time>
      </trkpt>
      <trkpt lat="45.480824" lon="1.807999">
        <ele>620</ele>
        <time>2023-05-07T10:35:39Z</time>
      </trkpt>
      <trkpt lat="45.480814" lon="1.807977">
        <ele>620</ele>
        <time>2023-05-07T10:35:40Z</time>
      </trkpt>
      <trkpt lat="45.480805" lon="1.807955">
        <ele>620</ele>
        <time>2023-05-07T10:35:41Z</time>
      </trkpt>
      <trkpt lat="45.480795" lon="1.807933">
        <ele>621</ele>
        <time>2023-05-07T10:35:42Z</time>
      </trkpt>
      <trkpt lat="45.480788" lon="1.807911">
        <ele>621</ele>
        <time>2023-05-07T10:35:43Z</time>
      </trkpt>
      <trkpt lat="45.480780" lon="1.807889">
        <ele>621</ele>
        <time>2023-05-07T10:35:44Z</time>
      </trkpt>
      <trkpt lat="45.480773" lon="1.807865">
        <ele>621</ele>
        <time>2023-05-07T10:35:45Z</time>
      </trkpt>
      <trkpt lat="45.480766" lon="1.807841">
        <ele>621</ele>
        <time>2023-05-07T10:35:46Z</time>
      </trkpt>
      <trkpt lat="45.480759" lon="1.807816">
        <ele>621</ele>
        <time>2023-05-07T10:35:47Z</time>
      </trkpt>
      <trkpt lat="45.480751" lon="1.807791">
        <ele>621</ele>
        <time>2023-05-07T10:35:48Z</time>
      </trkpt>
      <trkpt lat="45.480742" lon="1.807764">
        <ele>621</ele>
        <time>2023-05-07T10:35:49Z</time>
      </trkpt>
      <trkpt lat="45.480733" lon="1.807737">
        <ele>621</ele>
        <time>2023-05-07T10:35:50Z</time>
      </trkpt>
      <trkpt lat="45.480724" lon="1.807712">
        <ele>621</ele>
        <time>2023-05-07T10:35:51Z</time>
      </trkpt>
      <trkpt lat="45.480715" lon="1.807688">
        <ele>622</ele>
        <time>2023-05-07T10:35:52Z</time>
      </trkpt>
      <trkpt lat="45.480708" lon="1.807669">
        <ele>622</ele>
        <time>2023-05-07T10:35:53Z</time>
      </trkpt>
      <trkpt lat="45.480701" lon="1.807649">
        <ele>622</ele>
        <time>2023-05-07T10:35:54Z</time>
      </trkpt>
      <trkpt lat="45.480694" lon="1.807632">
        <ele>622</ele>
        <time>2023-05-07T10:35:55Z</time>
      </trkpt>
      <trkpt lat="45.480687" lon="1.807615">
        <ele>622</ele>
        <time>2023-05-07T10:35:56Z</time>
      </trkpt>
      <trkpt lat="45.480680" lon="1.807600">
        <ele>622</ele>
        <time>2023-05-07T10:35:57Z</time>
      </trkpt>
      <trkpt lat="45.480672" lon="1.807585">
        <ele>622</ele>
        <time>2023-05-07T10:35:58Z</time>
      </trkpt>
      <trkpt lat="45.480665" lon="1.807569">
        <ele>622</ele>
        <time>2023-05-07T10:35:59Z</time>
      </trkpt>
      <trkpt lat="45.480658" lon="1.807553">
        <ele>622</ele>
        <time>2023-05-07T10:36:00Z</time>
      </trkpt>
      <trkpt lat="45.480654" lon="1.807538">
        <ele>622</ele>
        <time>2023-05-07T10:36:01Z</time>
      </trkpt>
      <trkpt lat="45.480649" lon="1.807523">
        <ele>623</ele>
        <time>2023-05-07T10:36:02Z</time>
      </trkpt>
      <trkpt lat="45.480647" lon="1.807513">
        <ele>623</ele>
        <time>2023-05-07T10:36:03Z</time>
      </trkpt>
      <trkpt lat="45.480645" lon="1.807502">
        <ele>623</ele>
        <time>2023-05-07T10:36:04Z</time>
      </trkpt>
      <trkpt lat="45.480643" lon="1.807494">
        <ele>623</ele>
        <time>2023-05-07T10:36:05Z</time>
      </trkpt>
      <trkpt lat="45.480641" lon="1.807485">
        <ele>623</ele>
        <time>2023-05-07T10:36:06Z</time>
      </trkpt>
      <trkpt lat="45.480640" lon="1.807478">
        <ele>623</ele>
        <time>2023-05-07T10:36:07Z</time>
      </trkpt>
      <trkpt lat="45.480638" lon="1.807470">
        <ele>623</ele>
        <time>2023-05-07T10:36:08Z</time>
      </trkpt>
      <trkpt lat="45.480637" lon="1.807463">
        <ele>623</ele>
        <time>2023-05-07T10:36:09Z</time>
      </trkpt>
      <trkpt lat="45.480636" lon="1.807456">
        <ele>623</ele>
        <time>2023-05-07T10:36:10Z</time>
      </trkpt>
      <trkpt lat="45.480633" lon="1.807447">
        <ele>623</ele>
        <time>2023-05-07T10:36:11Z</time>
      </trkpt>
      <trkpt lat="45.480630" lon="1.807439">
        <ele>623</ele>
        <time>2023-05-07T10:36:12Z</time>
      </trkpt>
      <trkpt lat="45.480627" lon="1.807429">
        <ele>623</ele>
        <time>2023-05-07T10:36:13Z</time>
      </trkpt>
      <trkpt lat="45.480625" lon="1.807420">
        <ele>623</ele>
        <time>2023-05-07T10:36:14Z</time>
      </trkpt>
      <trkpt lat="45.480619" lon="1.807404">
        <ele>624</ele>
        <time>2023-05-07T10:36:26Z</time>
      </trkpt>
      <trkpt lat="45.480615" lon="1.807392">
        <ele>624</ele>
        <time>2023-05-07T10:36:27Z</time>
      </trkpt>
      <trkpt lat="45.480611" lon="1.807381">
        <ele>624</ele>
        <time>2023-05-07T10:36:28Z</time>
      </trkpt>
      <trkpt lat="45.480607" lon="1.807372">
        <ele>624</ele>
        <time>2023-05-07T10:36:29Z</time>
      </trkpt>
      <trkpt lat="45.480602" lon="1.807362">
        <ele>624</ele>
        <time>2023-05-07T10:36:30Z</time>
      </trkpt>
      <trkpt lat="45.480597" lon="1.807349">
        <ele>624</ele>
        <time>2023-05-07T10:36:31Z</time>
      </trkpt>
      <trkpt lat="45.480592" lon="1.807337">
        <ele>624</ele>
        <time>2023-05-07T10:36:32Z</time>
      </trkpt>
      <trkpt lat="45.480586" lon="1.807322">
        <ele>623</ele>
        <time>2023-05-07T10:36:33Z</time>
      </trkpt>
      <trkpt lat="45.480581" lon="1.807308">
        <ele>623</ele>
        <time>2023-05-07T10:36:34Z</time>
      </trkpt>
      <trkpt lat="45.480576" lon="1.807295">
        <ele>623</ele>
        <time>2023-05-07T10:36:35Z</time>
      </trkpt>
      <trkpt lat="45.480571" lon="1.807281">
        <ele>623</ele>
        <time>2023-05-07T10:36:36Z</time>
      </trkpt>
      <trkpt lat="45.480567" lon="1.807268">
        <ele>623</ele>
        <time>2023-05-07T10:36:37Z</time>
      </trkpt>
      <trkpt lat="45.480563" lon="1.807255">
        <ele>623</ele>
        <time>2023-05-07T10:36:38Z</time>
      </trkpt>
      <trkpt lat="45.480560" lon="1.807241">
        <ele>623</ele>
        <time>2023-05-07T10:36:39Z</time>
      </trkpt>
      <trkpt lat="45.480556" lon="1.807227">
        <ele>623</ele>
        <time>2023-05-07T10:36:40Z</time>
      </trkpt>
      <trkpt lat="45.480553" lon="1.807213">
        <ele>623</ele>
        <time>2023-05-07T10:36:41Z</time>
      </trkpt>
      <trkpt lat="45.480550" lon="1.807200">
        <ele>623</ele>
        <time>2023-05-07T10:36:42Z</time>
      </trkpt>
      <trkpt lat="45.480547" lon="1.807188">
        <ele>623</ele>
        <time>2023-05-07T10:36:43Z</time>
      </trkpt>
      <trkpt lat="45.480544" lon="1.807177">
        <ele>623</ele>
        <time>2023-05-07T10:36:44Z</time>
      </trkpt>
      <trkpt lat="45.480541" lon="1.807168">
        <ele>623</ele>
        <time>2023-05-07T10:36:45Z</time>
      </trkpt>
      <trkpt lat="45.480537" lon="1.807158">
        <ele>623</ele>
        <time>2023-05-07T10:36:46Z</time>
      </trkpt>
      <trkpt lat="45.480533" lon="1.807148">
        <ele>623</ele>
        <time>2023-05-07T10:36:47Z</time>
      </trkpt>
      <trkpt lat="45.480530" lon="1.807137">
        <ele>623</ele>
        <time>2023-05-07T10:36:48Z</time>
      </trkpt>
      <trkpt lat="45.480525" lon="1.807127">
        <ele>623</ele>
        <time>2023-05-07T10:36:49Z</time>
      </trkpt>
      <trkpt lat="45.480520" lon="1.807116">
        <ele>623</ele>
        <time>2023-05-07T10:36:50Z</time>
      </trkpt>
      <trkpt lat="45.480515" lon="1.807105">
        <ele>623</ele>
        <time>2023-05-07T10:36:51Z</time>
      </trkpt>
      <trkpt lat="45.480510" lon="1.807095">
        <ele>623</ele>
        <time>2023-05-07T10:36:52Z</time>
      </trkpt>
      <trkpt lat="45.480506" lon="1.807082">
        <ele>623</ele>
        <time>2023-05-07T10:36:53Z</time>
      </trkpt>
      <trkpt lat="45.480502" lon="1.807069">
        <ele>623</ele>
        <time>2023-05-07T10:36:54Z</time>
      </trkpt>
      <trkpt lat="45.480499" lon="1.807056">
        <ele>623</ele>
        <time>2023-05-07T10:36:55Z</time>
      </trkpt>
      <trkpt lat="45.480497" lon="1.807043">
        <ele>623</ele>
        <time>2023-05-07T10:36:56Z</time>
      </trkpt>
      <trkpt lat="45.480494" lon="1.807028">
        <ele>623</ele>
        <time>2023-05-07T10:36:57Z</time>
      </trkpt>
      <trkpt lat="45.480491" lon="1.807014">
        <ele>623</ele>
        <time>2023-05-07T10:36:58Z</time>
      </trkpt>
      <trkpt lat="45.480488" lon="1.806999">
        <ele>623</ele>
        <time>2023-05-07T10:36:59Z</time>
      </trkpt>
      <trkpt lat="45.480484" lon="1.806984">
        <ele>623</ele>
        <time>2023-05-07T10:37:00Z</time>
      </trkpt>
      <trkpt lat="45.480480" lon="1.806969">
        <ele>623</ele>
        <time>2023-05-07T10:37:01Z</time>
      </trkpt>
      <trkpt lat="45.480477" lon="1.806955">
        <ele>623</ele>
        <time>2023-05-07T10:37:02Z</time>
      </trkpt>
      <trkpt lat="45.480473" lon="1.806939">
        <ele>623</ele>
        <time>2023-05-07T10:37:03Z</time>
      </trkpt>
      <trkpt lat="45.480469" lon="1.806925">
        <ele>623</ele>
        <time>2023-05-07T10:37:04Z</time>
      </trkpt>
      <trkpt lat="45.480465" lon="1.806911">
        <ele>623</ele>
        <time>2023-05-07T10:37:05Z</time>
      </trkpt>
      <trkpt lat="45.480461" lon="1.806898">
        <ele>623</ele>
        <time>2023-05-07T10:37:06Z</time>
      </trkpt>
      <trkpt lat="45.480457" lon="1.806884">
        <ele>623</ele>
        <time>2023-05-07T10:37:07Z</time>
      </trkpt>
      <trkpt lat="45.480452" lon="1.806870">
        <ele>623</ele>
        <time>2023-05-07T10:37:08Z</time>
      </trkpt>
      <trkpt lat="45.480447" lon="1.806856">
        <ele>623</ele>
        <time>2023-05-07T10:37:09Z</time>
      </trkpt>
      <trkpt lat="45.480442" lon="1.806842">
        <ele>623</ele>
        <time>2023-05-07T10:37:10Z</time>
      </trkpt>
      <trkpt lat="45.480436" lon="1.806829">
        <ele>623</ele>
        <time>2023-05-07T10:37:11Z</time>
      </trkpt>
      <trkpt lat="45.480430" lon="1.806816">
        <ele>624</ele>
        <time>2023-05-07T10:37:12Z</time>
      </trkpt>
      <trkpt lat="45.480425" lon="1.806804">
        <ele>624</ele>
        <time>2023-05-07T10:37:13Z</time>
      </trkpt>
      <trkpt lat="45.480419" lon="1.806791">
        <ele>624</ele>
        <time>2023-05-07T10:37:14Z</time>
      </trkpt>
      <trkpt lat="45.480415" lon="1.806780">
        <ele>624</ele>
        <time>2023-05-07T10:37:15Z</time>
      </trkpt>
      <trkpt lat="45.480412" lon="1.806769">
        <ele>624</ele>
        <time>2023-05-07T10:37:16Z</time>
      </trkpt>
      <trkpt lat="45.480408" lon="1.806757">
        <ele>624</ele>
        <time>2023-05-07T10:37:17Z</time>
      </trkpt>
      <trkpt lat="45.480405" lon="1.806745">
        <ele>624</ele>
        <time>2023-05-07T10:37:18Z</time>
      </trkpt>
      <trkpt lat="45.480401" lon="1.806732">
        <ele>624</ele>
        <time>2023-05-07T10:37:19Z</time>
      </trkpt>
      <trkpt lat="45.480398" lon="1.806719">
        <ele>624</ele>
        <time>2023-05-07T10:37:20Z</time>
      </trkpt>
      <trkpt lat="45.480394" lon="1.806706">
        <ele>624</ele>
        <time>2023-05-07T10:37:21Z</time>
      </trkpt>
      <trkpt lat="45.480390" lon="1.806693">
        <ele>624</ele>
        <time>2023-05-07T10:37:22Z</time>
      </trkpt>
      <trkpt lat="45.480386" lon="1.806680">
        <ele>624</ele>
        <time>2023-05-07T10:37:23Z</time>
      </trkpt>
      <trkpt lat="45.480381" lon="1.806667">
        <ele>624</ele>
        <time>2023-05-07T10:37:24Z</time>
      </trkpt>
      <trkpt lat="45.480376" lon="1.806654">
        <ele>624</ele>
        <time>2023-05-07T10:37:25Z</time>
      </trkpt>
      <trkpt lat="45.480372" lon="1.806642">
        <ele>624</ele>
        <time>2023-05-07T10:37:26Z</time>
      </trkpt>
      <trkpt lat="45.480367" lon="1.806629">
        <ele>624</ele>
        <time>2023-05-07T10:37:27Z</time>
      </trkpt>
      <trkpt lat="45.480361" lon="1.806617">
        <ele>624</ele>
        <time>2023-05-07T10:37:28Z</time>
      </trkpt>
      <trkpt lat="45.480355" lon="1.806603">
        <ele>624</ele>
        <time>2023-05-07T10:37:29Z</time>
      </trkpt>
      <trkpt lat="45.480349" lon="1.806589">
        <ele>624</ele>
        <time>2023-05-07T10:37:30Z</time>
      </trkpt>
      <trkpt lat="45.480344" lon="1.806575">
        <ele>624</ele>
        <time>2023-05-07T10:37:31Z</time>
      </trkpt>
      <trkpt lat="45.480339" lon="1.806561">
        <ele>625</ele>
        <time>2023-05-07T10:37:32Z</time>
      </trkpt>
      <trkpt lat="45.480335" lon="1.806548">
        <ele>625</ele>
        <time>2023-05-07T10:37:33Z</time>
      </trkpt>
      <trkpt lat="45.480330" lon="1.806535">
        <ele>625</ele>
        <time>2023-05-07T10:37:34Z</time>
      </trkpt>
      <trkpt lat="45.480326" lon="1.806523">
        <ele>625</ele>
        <time>2023-05-07T10:37:35Z</time>
      </trkpt>
      <trkpt lat="45.480322" lon="1.806511">
        <ele>625</ele>
        <time>2023-05-07T10:37:36Z</time>
      </trkpt>
      <trkpt lat="45.480319" lon="1.806500">
        <ele>625</ele>
        <time>2023-05-07T10:37:37Z</time>
      </trkpt>
      <trkpt lat="45.480316" lon="1.806489">
        <ele>625</ele>
        <time>2023-05-07T10:37:38Z</time>
      </trkpt>
      <trkpt lat="45.480313" lon="1.806479">
        <ele>625</ele>
        <time>2023-05-07T10:37:39Z</time>
      </trkpt>
      <trkpt lat="45.480309" lon="1.806468">
        <ele>625</ele>
        <time>2023-05-07T10:37:40Z</time>
      </trkpt>
      <trkpt lat="45.480306" lon="1.806458">
        <ele>625</ele>
        <time>2023-05-07T10:37:41Z</time>
      </trkpt>
      <trkpt lat="45.480303" lon="1.806448">
        <ele>626</ele>
        <time>2023-05-07T10:37:42Z</time>
      </trkpt>
      <trkpt lat="45.480300" lon="1.806436">
        <ele>626</ele>
        <time>2023-05-07T10:37:43Z</time>
      </trkpt>
      <trkpt lat="45.480297" lon="1.806424">
        <ele>626</ele>
        <time>2023-05-07T10:37:44Z</time>
      </trkpt>
      <trkpt lat="45.480294" lon="1.806412">
        <ele>626</ele>
        <time>2023-05-07T10:37:45Z</time>
      </trkpt>
      <trkpt lat="45.480291" lon="1.806399">
        <ele>626</ele>
        <time>2023-05-07T10:37:46Z</time>
      </trkpt>
      <trkpt lat="45.480288" lon="1.806385">
        <ele>626</ele>
        <time>2023-05-07T10:37:47Z</time>
      </trkpt>
      <trkpt lat="45.480284" lon="1.806371">
        <ele>626</ele>
        <time>2023-05-07T10:37:48Z</time>
      </trkpt>
      <trkpt lat="45.480279" lon="1.806359">
        <ele>626</ele>
        <time>2023-05-07T10:37:49Z</time>
      </trkpt>
      <trkpt lat="45.480274" lon="1.806347">
        <ele>626</ele>
        <time>2023-05-07T10:37:50Z</time>
      </trkpt>
      <trkpt lat="45.480268" lon="1.806337">
        <ele>626</ele>
        <time>2023-05-07T10:37:51Z</time>
      </trkpt>
      <trkpt lat="45.480263" lon="1.806327">
        <ele>627</ele>
        <time>2023-05-07T10:37:52Z</time>
      </trkpt>
      <trkpt lat="45.480257" lon="1.806317">
        <ele>627</ele>
        <time>2023-05-07T10:37:53Z</time>
      </trkpt>
      <trkpt lat="45.480252" lon="1.806307">
        <ele>627</ele>
        <time>2023-05-07T10:37:54Z</time>
      </trkpt>
      <trkpt lat="45.480237" lon="1.806285">
        <ele>635</ele>
        <time>2023-05-07T10:38:56Z</time>
      </trkpt>
      <trkpt lat="45.480231" lon="1.806276">
        <ele>635</ele>
        <time>2023-05-07T10:38:57Z</time>
      </trkpt>
      <trkpt lat="45.480224" lon="1.806267">
        <ele>635</ele>
        <time>2023-05-07T10:38:58Z</time>
      </trkpt>
      <trkpt lat="45.480220" lon="1.806259">
        <ele>635</ele>
        <time>2023-05-07T10:38:59Z</time>
      </trkpt>
      <trkpt lat="45.480216" lon="1.806252">
        <ele>635</ele>
        <time>2023-05-07T10:39:00Z</time>
      </trkpt>
      <trkpt lat="45.480212" lon="1.806242">
        <ele>635</ele>
        <time>2023-05-07T10:39:01Z</time>
      </trkpt>
      <trkpt lat="45.480209" lon="1.806233">
        <ele>635</ele>
        <time>2023-05-07T10:39:02Z</time>
      </trkpt>
      <trkpt lat="45.480205" lon="1.806223">
        <ele>635</ele>
        <time>2023-05-07T10:39:03Z</time>
      </trkpt>
      <trkpt lat="45.480202" lon="1.806212">
        <ele>635</ele>
        <time>2023-05-07T10:39:04Z</time>
      </trkpt>
      <trkpt lat="45.480198" lon="1.806199">
        <ele>635</ele>
        <time>2023-05-07T10:39:05Z</time>
      </trkpt>
      <trkpt lat="45.480193" lon="1.806186">
        <ele>635</ele>
        <time>2023-05-07T10:39:06Z</time>
      </trkpt>
      <trkpt lat="45.480187" lon="1.806169">
        <ele>636</ele>
        <time>2023-05-07T10:39:07Z</time>
      </trkpt>
      <trkpt lat="45.480181" lon="1.806152">
        <ele>636</ele>
        <time>2023-05-07T10:39:08Z</time>
      </trkpt>
      <trkpt lat="45.480174" lon="1.806134">
        <ele>636</ele>
        <time>2023-05-07T10:39:09Z</time>
      </trkpt>
      <trkpt lat="45.480168" lon="1.806116">
        <ele>636</ele>
        <time>2023-05-07T10:39:10Z</time>
      </trkpt>
      <trkpt lat="45.480163" lon="1.806096">
        <ele>636</ele>
        <time>2023-05-07T10:39:11Z</time>
      </trkpt>
      <trkpt lat="45.480157" lon="1.806076">
        <ele>636</ele>
        <time>2023-05-07T10:39:12Z</time>
      </trkpt>
      <trkpt lat="45.480153" lon="1.806056">
        <ele>636</ele>
        <time>2023-05-07T10:39:13Z</time>
      </trkpt>
      <trkpt lat="45.480148" lon="1.806035">
        <ele>636</ele>
        <time>2023-05-07T10:39:14Z</time>
      </trkpt>
      <trkpt lat="45.480143" lon="1.806013">
        <ele>636</ele>
        <time>2023-05-07T10:39:15Z</time>
      </trkpt>
      <trkpt lat="45.480138" lon="1.805991">
        <ele>636</ele>
        <time>2023-05-07T10:39:16Z</time>
      </trkpt>
      <trkpt lat="45.480133" lon="1.805970">
        <ele>636</ele>
        <time>2023-05-07T10:39:17Z</time>
      </trkpt>
      <trkpt lat="45.480127" lon="1.805948">
        <ele>636</ele>
        <time>2023-05-07T10:39:18Z</time>
      </trkpt>
      <trkpt lat="45.480121" lon="1.805927">
        <ele>636</ele>
        <time>2023-05-07T10:39:19Z</time>
      </trkpt>
      <trkpt lat="45.480115" lon="1.805906">
        <ele>636</ele>
        <time>2023-05-07T10:39:20Z</time>
      </trkpt>
      <trkpt lat="45.480107" lon="1.805884">
        <ele>636</ele>
        <time>2023-05-07T10:39:21Z</time>
      </trkpt>
      <trkpt lat="45.480100" lon="1.805863">
        <ele>636</ele>
        <time>2023-05-07T10:39:22Z</time>
      </trkpt>
      <trkpt lat="45.480092" lon="1.805841">
        <ele>636</ele>
        <time>2023-05-07T10:39:23Z</time>
      </trkpt>
      <trkpt lat="45.480084" lon="1.805819">
        <ele>636</ele>
        <time>2023-05-07T10:39:24Z</time>
      </trkpt>
      <trkpt lat="45.480077" lon="1.805797">
        <ele>636</ele>
        <time>2023-05-07T10:39:25Z</time>
      </trkpt>
      <trkpt lat="45.480069" lon="1.805775">
        <ele>636</ele>
        <time>2023-05-07T10:39:26Z</time>
      </trkpt>
      <trkpt lat="45.480061" lon="1.805753">
        <ele>636</ele>
        <time>2023-05-07T10:39:27Z</time>
      </trkpt>
      <trkpt lat="45.480053" lon="1.805731">
        <ele>636</ele>
        <time>2023-05-07T10:39:28Z</time>
      </trkpt>
      <trkpt lat="45.480045" lon="1.805709">
        <ele>636</ele>
        <time>2023-05-07T10:39:29Z</time>
      </trkpt>
      <trkpt lat="45.480037" lon="1.805688">
        <ele>636</ele>
        <time>2023-05-07T10:39:30Z</time>
      </trkpt>
      <trkpt lat="45.480029" lon="1.805664">
        <ele>636</ele>
        <time>2023-05-07T10:39:31Z</time>
      </trkpt>
      <trkpt lat="45.480021" lon="1.805641">
        <ele>637</ele>
        <time>2023-05-07T10:39:32Z</time>
      </trkpt>
      <trkpt lat="45.480012" lon="1.805617">
        <ele>637</ele>
        <time>2023-05-07T10:39:33Z</time>
      </trkpt>
      <trkpt lat="45.480004" lon="1.805593">
        <ele>637</ele>
        <time>2023-05-07T10:39:34Z</time>
      </trkpt>
      <trkpt lat="45.479995" lon="1.805569">
        <ele>637</ele>
        <time>2023-05-07T10:39:35Z</time>
      </trkpt>
      <trkpt lat="45.479987" lon="1.805545">
        <ele>637</ele>
        <time>2023-05-07T10:39:36Z</time>
      </trkpt>
      <trkpt lat="45.479978" lon="1.805521">
        <ele>637</ele>
        <time>2023-05-07T10:39:37Z</time>
      </trkpt>
      <trkpt lat="45.479970" lon="1.805497">
        <ele>637</ele>
        <time>2023-05-07T10:39:38Z</time>
      </trkpt>
      <trkpt lat="45.479961" lon="1.805473">
        <ele>637</ele>
        <time>2023-05-07T10:39:39Z</time>
      </trkpt>
      <trkpt lat="45.479953" lon="1.805449">
        <ele>637</ele>
        <time>2023-05-07T10:39:40Z</time>
      </trkpt>
      <trkpt lat="45.479945" lon="1.805426">
        <ele>637</ele>
        <time>2023-05-07T10:39:41Z</time>
      </trkpt>
      <trkpt lat="45.479938" lon="1.805403">
        <ele>637</ele>
        <time>2023-05-07T10:39:42Z</time>
      </trkpt>
      <trkpt lat="45.479931" lon="1.805380">
        <ele>637</ele>
        <time>2023-05-07T10:39:43Z</time>
      </trkpt>
      <trkpt lat="45.479923" lon="1.805357">
        <ele>637</ele>
        <time>2023-05-07T10:39:44Z</time>
      </trkpt>
      <trkpt lat="45.479916" lon="1.805335">
        <ele>637</ele>
        <time>2023-05-07T10:39:45Z</time>
      </trkpt>
      <trkpt lat="45.479909" lon="1.805314">
        <ele>637</ele>
        <time>2023-05-07T10:39:46Z</time>
      </trkpt>
      <trkpt lat="45.479902" lon="1.805292">
        <ele>637</ele>
        <time>2023-05-07T10:39:47Z</time>
      </trkpt>
      <trkpt lat="45.479895" lon="1.805271">
        <ele>637</ele>
        <time>2023-05-07T10:39:48Z</time>
      </trkpt>
      <trkpt lat="45.479887" lon="1.805251">
        <ele>637</ele>
        <time>2023-05-07T10:39:49Z</time>
      </trkpt>
      <trkpt lat="45.479880" lon="1.805230">
        <ele>637</ele>
        <time>2023-05-07T10:39:50Z</time>
      </trkpt>
      <trkpt lat="45.479872" lon="1.805209">
        <ele>637</ele>
        <time>2023-05-07T10:39:51Z</time>
      </trkpt>
      <trkpt lat="45.479864" lon="1.805188">
        <ele>637</ele>
        <time>2023-05-07T10:39:52Z</time>
      </trkpt>
      <trkpt lat="45.479856" lon="1.805164">
        <ele>637</ele>
        <time>2023-05-07T10:39:53Z</time>
      </trkpt>
      <trkpt lat="45.479849" lon="1.805140">
        <ele>637</ele>
        <time>2023-05-07T10:39:54Z</time>
      </trkpt>
      <trkpt lat="45.479840" lon="1.805117">
        <ele>637</ele>
        <time>2023-05-07T10:39:55Z</time>
      </trkpt>
      <trkpt lat="45.479831" lon="1.805093">
        <ele>637</ele>
        <time>2023-05-07T10:39:56Z</time>
      </trkpt>
      <trkpt lat="45.479822" lon="1.805071">
        <ele>638</ele>
        <time>2023-05-07T10:39:57Z</time>
      </trkpt>
      <trkpt lat="45.479812" lon="1.805050">
        <ele>638</ele>
        <time>2023-05-07T10:39:58Z</time>
      </trkpt>
      <trkpt lat="45.479803" lon="1.805028">
        <ele>638</ele>
        <time>2023-05-07T10:39:59Z</time>
      </trkpt>
      <trkpt lat="45.479794" lon="1.805006">
        <ele>638</ele>
        <time>2023-05-07T10:40:00Z</time>
      </trkpt>
      <trkpt lat="45.479786" lon="1.804985">
        <ele>638</ele>
        <time>2023-05-07T10:40:01Z</time>
      </trkpt>
      <trkpt lat="45.479779" lon="1.804965">
        <ele>638</ele>
        <time>2023-05-07T10:40:02Z</time>
      </trkpt>
      <trkpt lat="45.479772" lon="1.804945">
        <ele>638</ele>
        <time>2023-05-07T10:40:03Z</time>
      </trkpt>
      <trkpt lat="45.479765" lon="1.804925">
        <ele>638</ele>
        <time>2023-05-07T10:40:04Z</time>
      </trkpt>
      <trkpt lat="45.479757" lon="1.804904">
        <ele>638</ele>
        <time>2023-05-07T10:40:05Z</time>
      </trkpt>
      <trkpt lat="45.479750" lon="1.804883">
        <ele>638</ele>
        <time>2023-05-07T10:40:06Z</time>
      </trkpt>
      <trkpt lat="45.479741" lon="1.804860">
        <ele>638</ele>
        <time>2023-05-07T10:40:07Z</time>
      </trkpt>
      <trkpt lat="45.479732" lon="1.804837">
        <ele>638</ele>
        <time>2023-05-07T10:40:08Z</time>
      </trkpt>
      <trkpt lat="45.479723" lon="1.804811">
        <ele>638</ele>
        <time>2023-05-07T10:40:09Z</time>
      </trkpt>
      <trkpt lat="45.479714" lon="1.804785">
        <ele>638</ele>
        <time>2023-05-07T10:40:10Z</time>
      </trkpt>
      <trkpt lat="45.479705" lon="1.804758">
        <ele>638</ele>
        <time>2023-05-07T10:40:11Z</time>
      </trkpt>
      <trkpt lat="45.479697" lon="1.804732">
        <ele>638</ele>
        <time>2023-05-07T10:40:12Z</time>
      </trkpt>
      <trkpt lat="45.479688" lon="1.804704">
        <ele>638</ele>
        <time>2023-05-07T10:40:13Z</time>
      </trkpt>
      <trkpt lat="45.479679" lon="1.804677">
        <ele>638</ele>
        <time>2023-05-07T10:40:14Z</time>
      </trkpt>
      <trkpt lat="45.479669" lon="1.804650">
        <ele>638</ele>
        <time>2023-05-07T10:40:15Z</time>
      </trkpt>
      <trkpt lat="45.479659" lon="1.804623">
        <ele>638</ele>
        <time>2023-05-07T10:40:16Z</time>
      </trkpt>
      <trkpt lat="45.479650" lon="1.804597">
        <ele>638</ele>
        <time>2023-05-07T10:40:17Z</time>
      </trkpt>
      <trkpt lat="45.479640" lon="1.804572">
        <ele>637</ele>
        <time>2023-05-07T10:40:18Z</time>
      </trkpt>
      <trkpt lat="45.479631" lon="1.804547">
        <ele>637</ele>
        <time>2023-05-07T10:40:19Z</time>
      </trkpt>
      <trkpt lat="45.479622" lon="1.804523">
        <ele>637</ele>
        <time>2023-05-07T10:40:20Z</time>
      </trkpt>
      <trkpt lat="45.479613" lon="1.804498">
        <ele>637</ele>
        <time>2023-05-07T10:40:21Z</time>
      </trkpt>
      <trkpt lat="45.479604" lon="1.804474">
        <ele>637</ele>
        <time>2023-05-07T10:40:22Z</time>
      </trkpt>
      <trkpt lat="45.479596" lon="1.804449">
        <ele>637</ele>
        <time>2023-05-07T10:40:23Z</time>
      </trkpt>
      <trkpt lat="45.479588" lon="1.804424">
        <ele>637</ele>
        <time>2023-05-07T10:40:24Z</time>
      </trkpt>
      <trkpt lat="45.479579" lon="1.804401">
        <ele>637</ele>
        <time>2023-05-07T10:40:25Z</time>
      </trkpt>
      <trkpt lat="45.479570" lon="1.804378">
        <ele>637</ele>
        <time>2023-05-07T10:40:26Z</time>
      </trkpt>
      <trkpt lat="45.479560" lon="1.804355">
        <ele>637</ele>
        <time>2023-05-07T10:40:27Z</time>
      </trkpt>
      <trkpt lat="45.479549" lon="1.804331">
        <ele>637</ele>
        <time>2023-05-07T10:40:28Z</time>
      </trkpt>
      <trkpt lat="45.479539" lon="1.804306">
        <ele>637</ele>
        <time>2023-05-07T10:40:29Z</time>
      </trkpt>
      <trkpt lat="45.479530" lon="1.804280">
        <ele>637</ele>
        <time>2023-05-07T10:40:30Z</time>
      </trkpt>
      <trkpt lat="45.479522" lon="1.804252">
        <ele>637</ele>
        <time>2023-05-07T10:40:31Z</time>
      </trkpt>
      <trkpt lat="45.479514" lon="1.804224">
        <ele>637</ele>
        <time>2023-05-07T10:40:32Z</time>
      </trkpt>
      <trkpt lat="45.479506" lon="1.804196">
        <ele>637</ele>
        <time>2023-05-07T10:40:33Z</time>
      </trkpt>
      <trkpt lat="45.479498" lon="1.804169">
        <ele>637</ele>
        <time>2023-05-07T10:40:34Z</time>
      </trkpt>
      <trkpt lat="45.479490" lon="1.804142">
        <ele>637</ele>
        <time>2023-05-07T10:40:35Z</time>
      </trkpt>
      <trkpt lat="45.479483" lon="1.804115">
        <ele>637</ele>
        <time>2023-05-07T10:40:36Z</time>
      </trkpt>
      <trkpt lat="45.479473" lon="1.804089">
        <ele>637</ele>
        <time>2023-05-07T10:40:37Z</time>
      </trkpt>
      <trkpt lat="45.479463" lon="1.804064">
        <ele>637</ele>
        <time>2023-05-07T10:40:38Z</time>
      </trkpt>
      <trkpt lat="45.479453" lon="1.804039">
        <ele>637</ele>
        <time>2023-05-07T10:40:39Z</time>
      </trkpt>
      <trkpt lat="45.479443" lon="1.804014">
        <ele>637</ele>
        <time>2023-05-07T10:40:40Z</time>
      </trkpt>
      <trkpt lat="45.479432" lon="1.803989">
        <ele>637</ele>
        <time>2023-05-07T10:40:41Z</time>
      </trkpt>
      <trkpt lat="45.479421" lon="1.803964">
        <ele>637</ele>
        <time>2023-05-07T10:40:42Z</time>
      </trkpt>
      <trkpt lat="45.479411" lon="1.803939">
        <ele>637</ele>
        <time>2023-05-07T10:40:43Z</time>
      </trkpt>
      <trkpt lat="45.479401" lon="1.803914">
        <ele>637</ele>
        <time>2023-05-07T10:40:44Z</time>
      </trkpt>
      <trkpt lat="45.479392" lon="1.803885">
        <ele>637</ele>
        <time>2023-05-07T10:40:45Z</time>
      </trkpt>
      <trkpt lat="45.479382" lon="1.803856">
        <ele>637</ele>
        <time>2023-05-07T10:40:46Z</time>
      </trkpt>
      <trkpt lat="45.479373" lon="1.803823">
        <ele>637</ele>
        <time>2023-05-07T10:40:47Z</time>
      </trkpt>
      <trkpt lat="45.479364" lon="1.803791">
        <ele>637</ele>
        <time>2023-05-07T10:40:48Z</time>
      </trkpt>
      <trkpt lat="45.479355" lon="1.803760">
        <ele>637</ele>
        <time>2023-05-07T10:40:49Z</time>
      </trkpt>
      <trkpt lat="45.479346" lon="1.803729">
        <ele>637</ele>
        <time>2023-05-07T10:40:50Z</time>
      </trkpt>
      <trkpt lat="45.479337" lon="1.803703">
        <ele>637</ele>
        <time>2023-05-07T10:40:51Z</time>
      </trkpt>
      <trkpt lat="45.479328" lon="1.803676">
        <ele>637</ele>
        <time>2023-05-07T10:40:52Z</time>
      </trkpt>
      <trkpt lat="45.479318" lon="1.803651">
        <ele>637</ele>
        <time>2023-05-07T10:40:53Z</time>
      </trkpt>
      <trkpt lat="45.479307" lon="1.803625">
        <ele>637</ele>
        <time>2023-05-07T10:40:54Z</time>
      </trkpt>
      <trkpt lat="45.479297" lon="1.803598">
        <ele>637</ele>
        <time>2023-05-07T10:40:55Z</time>
      </trkpt>
      <trkpt lat="45.479287" lon="1.803570">
        <ele>637</ele>
        <time>2023-05-07T10:40:56Z</time>
      </trkpt>
      <trkpt lat="45.479277" lon="1.803537">
        <ele>637</ele>
        <time>2023-05-07T10:40:57Z</time>
      </trkpt>
      <trkpt lat="45.479267" lon="1.803504">
        <ele>637</ele>
        <time>2023-05-07T10:40:58Z</time>
      </trkpt>
      <trkpt lat="45.479256" lon="1.803466">
        <ele>637</ele>
        <time>2023-05-07T10:40:59Z</time>
      </trkpt>
      <trkpt lat="45.479245" lon="1.803429">
        <ele>637</ele>
        <time>2023-05-07T10:41:00Z</time>
      </trkpt>
      <trkpt lat="45.479234" lon="1.803389">
        <ele>637</ele>
        <time>2023-05-07T10:41:01Z</time>
      </trkpt>
      <trkpt lat="45.479223" lon="1.803349">
        <ele>637</ele>
        <time>2023-05-07T10:41:02Z</time>
      </trkpt>
      <trkpt lat="45.479212" lon="1.803308">
        <ele>636</ele>
        <time>2023-05-07T10:41:03Z</time>
      </trkpt>
      <trkpt lat="45.479201" lon="1.803268">
        <ele>636</ele>
        <time>2023-05-07T10:41:04Z</time>
      </trkpt>
      <trkpt lat="45.479188" lon="1.803228">
        <ele>636</ele>
        <time>2023-05-07T10:41:05Z</time>
      </trkpt>
      <trkpt lat="45.479176" lon="1.803189">
        <ele>636</ele>
        <time>2023-05-07T10:41:06Z</time>
      </trkpt>
      <trkpt lat="45.479163" lon="1.803150">
        <ele>636</ele>
        <time>2023-05-07T10:41:07Z</time>
      </trkpt>
      <trkpt lat="45.479149" lon="1.803110">
        <ele>636</ele>
        <time>2023-05-07T10:41:08Z</time>
      </trkpt>
      <trkpt lat="45.479134" lon="1.803070">
        <ele>636</ele>
        <time>2023-05-07T10:41:09Z</time>
      </trkpt>
      <trkpt lat="45.479119" lon="1.803029">
        <ele>636</ele>
        <time>2023-05-07T10:41:10Z</time>
      </trkpt>
      <trkpt lat="45.479102" lon="1.802988">
        <ele>636</ele>
        <time>2023-05-07T10:41:11Z</time>
      </trkpt>
      <trkpt lat="45.479085" lon="1.802948">
        <ele>636</ele>
        <time>2023-05-07T10:41:12Z</time>
      </trkpt>
      <trkpt lat="45.479069" lon="1.802913">
        <ele>635</ele>
        <time>2023-05-07T10:41:13Z</time>
      </trkpt>
      <trkpt lat="45.479054" lon="1.802878">
        <ele>635</ele>
        <time>2023-05-07T10:41:14Z</time>
      </trkpt>
      <trkpt lat="45.479042" lon="1.802852">
        <ele>635</ele>
        <time>2023-05-07T10:41:15Z</time>
      </trkpt>
      <trkpt lat="45.479031" lon="1.802827">
        <ele>635</ele>
        <time>2023-05-07T10:41:16Z</time>
      </trkpt>
      <trkpt lat="45.479021" lon="1.802801">
        <ele>632</ele>
        <time>2023-05-07T10:42:35Z</time>
      </trkpt>
      <trkpt lat="45.479020" lon="1.802793">
        <ele>632</ele>
        <time>2023-05-07T10:42:36Z</time>
      </trkpt>
      <trkpt lat="45.479019" lon="1.802786">
        <ele>632</ele>
        <time>2023-05-07T10:42:37Z</time>
      </trkpt>
      <trkpt lat="45.479019" lon="1.802776">
        <ele>632</ele>
        <time>2023-05-07T10:42:38Z</time>
      </trkpt>
      <trkpt lat="45.479018" lon="1.802766">
        <ele>632</ele>
        <time>2023-05-07T10:42:39Z</time>
      </trkpt>
      <trkpt lat="45.479016" lon="1.802749">
        <ele>632</ele>
        <time>2023-05-07T10:42:40Z</time>
      </trkpt>
      <trkpt lat="45.479014" lon="1.802733">
        <ele>632</ele>
        <time>2023-05-07T10:42:41Z</time>
      </trkpt>
      <trkpt lat="45.479009" lon="1.802711">
        <ele>632</ele>
        <time>2023-05-07T10:42:42Z</time>
      </trkpt>
      <trkpt lat="45.479003" lon="1.802690">
        <ele>632</ele>
        <time>2023-05-07T10:42:43Z</time>
      </trkpt>
      <trkpt lat="45.478995" lon="1.802665">
        <ele>632</ele>
        <time>2023-05-07T10:42:44Z</time>
      </trkpt>
      <trkpt lat="45.478986" lon="1.802639">
        <ele>632</ele>
        <time>2023-05-07T10:42:45Z</time>
      </trkpt>
      <trkpt lat="45.478975" lon="1.802611">
        <ele>632</ele>
        <time>2023-05-07T10:42:46Z</time>
      </trkpt>
      <trkpt lat="45.478965" lon="1.802583">
        <ele>632</ele>
        <time>2023-05-07T10:42:47Z</time>
      </trkpt>
      <trkpt lat="45.478955" lon="1.802556">
        <ele>632</ele>
        <time>2023-05-07T10:42:48Z</time>
      </trkpt>
      <trkpt lat="45.478944" lon="1.802529">
        <ele>632</ele>
        <time>2023-05-07T10:42:49Z</time>
      </trkpt>
      <trkpt lat="45.478936" lon="1.802505">
        <ele>632</ele>
        <time>2023-05-07T10:42:50Z</time>
      </trkpt>
      <trkpt lat="45.478927" lon="1.802481">
        <ele>632</ele>
        <time>2023-05-07T10:42:51Z</time>
      </trkpt>
      <trkpt lat="45.478920" lon="1.802460">
        <ele>632</ele>
        <time>2023-05-07T10:42:52Z</time>
      </trkpt>
      <trkpt lat="45.478912" lon="1.802439">
        <ele>631</ele>
        <time>2023-05-07T10:42:53Z</time>
      </trkpt>
      <trkpt lat="45.478905" lon="1.802418">
        <ele>631</ele>
        <time>2023-05-07T10:42:54Z</time>
      </trkpt>
      <trkpt lat="45.478898" lon="1.802396">
        <ele>631</ele>
        <time>2023-05-07T10:42:55Z</time>
      </trkpt>
      <trkpt lat="45.478891" lon="1.802374">
        <ele>631</ele>
        <time>2023-05-07T10:42:56Z</time>
      </trkpt>
      <trkpt lat="45.478883" lon="1.802351">
        <ele>631</ele>
        <time>2023-05-07T10:42:57Z</time>
      </trkpt>
      <trkpt lat="45.478875" lon="1.802329">
        <ele>631</ele>
        <time>2023-05-07T10:42:58Z</time>
      </trkpt>
      <trkpt lat="45.478867" lon="1.802306">
        <ele>631</ele>
        <time>2023-05-07T10:42:59Z</time>
      </trkpt>
      <trkpt lat="45.478859" lon="1.802283">
        <ele>631</ele>
        <time>2023-05-07T10:43:00Z</time>
      </trkpt>
      <trkpt lat="45.478851" lon="1.802259">
        <ele>631</ele>
        <time>2023-05-07T10:43:01Z</time>
      </trkpt>
      <trkpt lat="45.478843" lon="1.802235">
        <ele>631</ele>
        <time>2023-05-07T10:43:02Z</time>
      </trkpt>
      <trkpt lat="45.478835" lon="1.802211">
        <ele>631</ele>
        <time>2023-05-07T10:43:03Z</time>
      </trkpt>
      <trkpt lat="45.478826" lon="1.802187">
        <ele>631</ele>
        <time>2023-05-07T10:43:04Z</time>
      </trkpt>
      <trkpt lat="45.478817" lon="1.802163">
        <ele>631</ele>
        <time>2023-05-07T10:43:05Z</time>
      </trkpt>
      <trkpt lat="45.478808" lon="1.802140">
        <ele>631</ele>
        <time>2023-05-07T10:43:06Z</time>
      </trkpt>
      <trkpt lat="45.478799" lon="1.802116">
        <ele>631</ele>
        <time>2023-05-07T10:43:07Z</time>
      </trkpt>
      <trkpt lat="45.478790" lon="1.802092">
        <ele>631</ele>
        <time>2023-05-07T10:43:08Z</time>
      </trkpt>
      <trkpt lat="45.478781" lon="1.802068">
        <ele>631</ele>
        <time>2023-05-07T10:43:09Z</time>
      </trkpt>
      <trkpt lat="45.478771" lon="1.802044">
        <ele>631</ele>
        <time>2023-05-07T10:43:10Z</time>
      </trkpt>
      <trkpt lat="45.478761" lon="1.802020">
        <ele>631</ele>
        <time>2023-05-07T10:43:11Z</time>
      </trkpt>
      <trkpt lat="45.478752" lon="1.801995">
        <ele>631</ele>
        <time>2023-05-07T10:43:12Z</time>
      </trkpt>
      <trkpt lat="45.478744" lon="1.801971">
        <ele>631</ele>
        <time>2023-05-07T10:43:13Z</time>
      </trkpt>
      <trkpt lat="45.478736" lon="1.801948">
        <ele>631</ele>
        <time>2023-05-07T10:43:14Z</time>
      </trkpt>
      <trkpt lat="45.478729" lon="1.801924">
        <ele>631</ele>
        <time>2023-05-07T10:43:15Z</time>
      </trkpt>
      <trkpt lat="45.478720" lon="1.801897">
        <ele>631</ele>
        <time>2023-05-07T10:43:16Z</time>
      </trkpt>
      <trkpt lat="45.478712" lon="1.801871">
        <ele>631</ele>
        <time>2023-05-07T10:43:17Z</time>
      </trkpt>
      <trkpt lat="45.478701" lon="1.801840">
        <ele>631</ele>
        <time>2023-05-07T10:43:18Z</time>
      </trkpt>
      <trkpt lat="45.478691" lon="1.801809">
        <ele>631</ele>
        <time>2023-05-07T10:43:19Z</time>
      </trkpt>
      <trkpt lat="45.478681" lon="1.801780">
        <ele>631</ele>
        <time>2023-05-07T10:43:20Z</time>
      </trkpt>
      <trkpt lat="45.478670" lon="1.801751">
        <ele>631</ele>
        <time>2023-05-07T10:43:21Z</time>
      </trkpt>
      <trkpt lat="45.478661" lon="1.801726">
        <ele>631</ele>
        <time>2023-05-07T10:43:22Z</time>
      </trkpt>
      <trkpt lat="45.478652" lon="1.801702">
        <ele>631</ele>
        <time>2023-05-07T10:43:23Z</time>
      </trkpt>
      <trkpt lat="45.478645" lon="1.801678">
        <ele>631</ele>
        <time>2023-05-07T10:43:24Z</time>
      </trkpt>
      <trkpt lat="45.478637" lon="1.801655">
        <ele>631</ele>
        <time>2023-05-07T10:43:25Z</time>
      </trkpt>
      <trkpt lat="45.478629" lon="1.801632">
        <ele>631</ele>
        <time>2023-05-07T10:43:26Z</time>
      </trkpt>
      <trkpt lat="45.478623" lon="1.801612">
        <ele>631</ele>
        <time>2023-05-07T10:43:27Z</time>
      </trkpt>
      <trkpt lat="45.478616" lon="1.801591">
        <ele>631</ele>
        <time>2023-05-07T10:43:28Z</time>
      </trkpt>
      <trkpt lat="45.478609" lon="1.801573">
        <ele>631</ele>
        <time>2023-05-07T10:43:29Z</time>
      </trkpt>
      <trkpt lat="45.478602" lon="1.801554">
        <ele>631</ele>
        <time>2023-05-07T10:43:30Z</time>
      </trkpt>
      <trkpt lat="45.478595" lon="1.801535">
        <ele>631</ele>
        <time>2023-05-07T10:43:31Z</time>
      </trkpt>
      <trkpt lat="45.478588" lon="1.801516">
        <ele>631</ele>
        <time>2023-05-07T10:43:32Z</time>
      </trkpt>
      <trkpt lat="45.478582" lon="1.801495">
        <ele>631</ele>
        <time>2023-05-07T10:43:33Z</time>
      </trkpt>
      <trkpt lat="45.478576" lon="1.801474">
        <ele>631</ele>
        <time>2023-05-07T10:43:34Z</time>
      </trkpt>
      <trkpt lat="45.478569" lon="1.801452">
        <ele>631</ele>
        <time>2023-05-07T10:43:35Z</time>
      </trkpt>
      <trkpt lat="45.478561" lon="1.801430">
        <ele>631</ele>
        <time>2023-05-07T10:43:36Z</time>
      </trkpt>
      <trkpt lat="45.478551" lon="1.801409">
        <ele>631</ele>
        <time>2023-05-07T10:43:37Z</time>
      </trkpt>
      <trkpt lat="45.478540" lon="1.801388">
        <ele>631</ele>
        <time>2023-05-07T10:43:38Z</time>
      </trkpt>
      <trkpt lat="45.478529" lon="1.801370">
        <ele>631</ele>
        <time>2023-05-07T10:43:39Z</time>
      </trkpt>
      <trkpt lat="45.478518" lon="1.801351">
        <ele>631</ele>
        <time>2023-05-07T10:43:40Z</time>
      </trkpt>
      <trkpt lat="45.478509" lon="1.801335">
        <ele>631</ele>
        <time>2023-05-07T10:43:41Z</time>
      </trkpt>
      <trkpt lat="45.478499" lon="1.801318">
        <ele>631</ele>
        <time>2023-05-07T10:43:42Z</time>
      </trkpt>
      <trkpt lat="45.478492" lon="1.801302">
        <ele>631</ele>
        <time>2023-05-07T10:43:43Z</time>
      </trkpt>
      <trkpt lat="45.478485" lon="1.801286">
        <ele>631</ele>
        <time>2023-05-07T10:43:44Z</time>
      </trkpt>
      <trkpt lat="45.478480" lon="1.801269">
        <ele>631</ele>
        <time>2023-05-07T10:43:45Z</time>
      </trkpt>
      <trkpt lat="45.478475" lon="1.801251">
        <ele>631</ele>
        <time>2023-05-07T10:43:46Z</time>
      </trkpt>
      <trkpt lat="45.478469" lon="1.801231">
        <ele>631</ele>
        <time>2023-05-07T10:43:47Z</time>
      </trkpt>
      <trkpt lat="45.478463" lon="1.801210">
        <ele>631</ele>
        <time>2023-05-07T10:43:48Z</time>
      </trkpt>
      <trkpt lat="45.478455" lon="1.801187">
        <ele>631</ele>
        <time>2023-05-07T10:43:49Z</time>
      </trkpt>
      <trkpt lat="45.478446" lon="1.801164">
        <ele>631</ele>
        <time>2023-05-07T10:43:50Z</time>
      </trkpt>
      <trkpt lat="45.478434" lon="1.801141">
        <ele>631</ele>
        <time>2023-05-07T10:43:51Z</time>
      </trkpt>
      <trkpt lat="45.478423" lon="1.801118">
        <ele>631</ele>
        <time>2023-05-07T10:43:52Z</time>
      </trkpt>
      <trkpt lat="45.478410" lon="1.801095">
        <ele>631</ele>
        <time>2023-05-07T10:43:53Z</time>
      </trkpt>
      <trkpt lat="45.478397" lon="1.801073">
        <ele>631</ele>
        <time>2023-05-07T10:43:54Z</time>
      </trkpt>
      <trkpt lat="45.478386" lon="1.801049">
        <ele>631</ele>
        <time>2023-05-07T10:43:55Z</time>
      </trkpt>
      <trkpt lat="45.478376" lon="1.801025">
        <ele>631</ele>
        <time>2023-05-07T10:43:56Z</time>
      </trkpt>
      <trkpt lat="45.478369" lon="1.801003">
        <ele>631</ele>
        <time>2023-05-07T10:43:57Z</time>
      </trkpt>
      <trkpt lat="45.478362" lon="1.800981">
        <ele>631</ele>
        <time>2023-05-07T10:43:58Z</time>
      </trkpt>
      <trkpt lat="45.478356" lon="1.800957">
        <ele>631</ele>
        <time>2023-05-07T10:43:59Z</time>
      </trkpt>
      <trkpt lat="45.478350" lon="1.800934">
        <ele>631</ele>
        <time>2023-05-07T10:44:00Z</time>
      </trkpt>
      <trkpt lat="45.478342" lon="1.800910">
        <ele>631</ele>
        <time>2023-05-07T10:44:01Z</time>
      </trkpt>
      <trkpt lat="45.478333" lon="1.800886">
        <ele>632</ele>
        <time>2023-05-07T10:44:02Z</time>
      </trkpt>
      <trkpt lat="45.478323" lon="1.800861">
        <ele>632</ele>
        <time>2023-05-07T10:44:03Z</time>
      </trkpt>
      <trkpt lat="45.478312" lon="1.800835">
        <ele>632</ele>
        <time>2023-05-07T10:44:04Z</time>
      </trkpt>
      <trkpt lat="45.478299" lon="1.800810">
        <ele>632</ele>
        <time>2023-05-07T10:44:05Z</time>
      </trkpt>
      <trkpt lat="45.478287" lon="1.800784">
        <ele>632</ele>
        <time>2023-05-07T10:44:06Z</time>
      </trkpt>
      <trkpt lat="45.478275" lon="1.800759">
        <ele>632</ele>
        <time>2023-05-07T10:44:07Z</time>
      </trkpt>
      <trkpt lat="45.478262" lon="1.800734">
        <ele>632</ele>
        <time>2023-05-07T10:44:08Z</time>
      </trkpt>
      <trkpt lat="45.478251" lon="1.800708">
        <ele>632</ele>
        <time>2023-05-07T10:44:09Z</time>
      </trkpt>
      <trkpt lat="45.478239" lon="1.800682">
        <ele>632</ele>
        <time>2023-05-07T10:44:10Z</time>
      </trkpt>
      <trkpt lat="45.478229" lon="1.800657">
        <ele>632</ele>
        <time>2023-05-07T10:44:11Z</time>
      </trkpt>
      <trkpt lat="45.478219" lon="1.800632">
        <ele>632</ele>
        <time>2023-05-07T10:44:12Z</time>
      </trkpt>
      <trkpt lat="45.478208" lon="1.800612">
        <ele>632</ele>
        <time>2023-05-07T10:44:13Z</time>
      </trkpt>
      <trkpt lat="45.478196" lon="1.800593">
        <ele>632</ele>
        <time>2023-05-07T10:44:14Z</time>
      </trkpt>
      <trkpt lat="45.478180" lon="1.800575">
        <ele>632</ele>
        <time>2023-05-07T10:44:15Z</time>
      </trkpt>
      <trkpt lat="45.478163" lon="1.800557">
        <ele>632</ele>
        <time>2023-05-07T10:44:16Z</time>
      </trkpt>
      <trkpt lat="45.478149" lon="1.800540">
        <ele>632</ele>
        <time>2023-05-07T10:44:17Z</time>
      </trkpt>
      <trkpt lat="45.478135" lon="1.800523">
        <ele>632</ele>
        <time>2023-05-07T10:44:18Z</time>
      </trkpt>
      <trkpt lat="45.478128" lon="1.800499">
        <ele>632</ele>
        <time>2023-05-07T10:44:19Z</time>
      </trkpt>
      <trkpt lat="45.478120" lon="1.800476">
        <ele>632</ele>
        <time>2023-05-07T10:44:20Z</time>
      </trkpt>
      <trkpt lat="45.478115" lon="1.800447">
        <ele>632</ele>
        <time>2023-05-07T10:44:21Z</time>
      </trkpt>
      <trkpt lat="45.478111" lon="1.800418">
        <ele>632</ele>
        <time>2023-05-07T10:44:22Z</time>
      </trkpt>
      <trkpt lat="45.478104" lon="1.800388">
        <ele>631</ele>
        <time>2023-05-07T10:44:23Z</time>
      </trkpt>
      <trkpt lat="45.478098" lon="1.800359">
        <ele>631</ele>
        <time>2023-05-07T10:44:24Z</time>
      </trkpt>
      <trkpt lat="45.478090" lon="1.800335">
        <ele>631</ele>
        <time>2023-05-07T10:44:25Z</time>
      </trkpt>
      <trkpt lat="45.478083" lon="1.800311">
        <ele>631</ele>
        <time>2023-05-07T10:44:26Z</time>
      </trkpt>
      <trkpt lat="45.478078" lon="1.800294">
        <ele>631</ele>
        <time>2023-05-07T10:44:27Z</time>
      </trkpt>
      <trkpt lat="45.478073" lon="1.800276">
        <ele>631</ele>
        <time>2023-05-07T10:44:28Z</time>
      </trkpt>
      <trkpt lat="45.478068" lon="1.800256">
        <ele>631</ele>
        <time>2023-05-07T10:44:29Z</time>
      </trkpt>
      <trkpt lat="45.478063" lon="1.800235">
        <ele>631</ele>
        <time>2023-05-07T10:44:30Z</time>
      </trkpt>
      <trkpt lat="45.478058" lon="1.800211">
        <ele>631</ele>
        <time>2023-05-07T10:44:31Z</time>
      </trkpt>
      <trkpt lat="45.478052" lon="1.800187">
        <ele>631</ele>
        <time>2023-05-07T10:44:32Z</time>
      </trkpt>
      <trkpt lat="45.478046" lon="1.800162">
        <ele>631</ele>
        <time>2023-05-07T10:44:33Z</time>
      </trkpt>
      <trkpt lat="45.478041" lon="1.800137">
        <ele>631</ele>
        <time>2023-05-07T10:44:34Z</time>
      </trkpt>
      <trkpt lat="45.478032" lon="1.800110">
        <ele>631</ele>
        <time>2023-05-07T10:44:35Z</time>
      </trkpt>
      <trkpt lat="45.478024" lon="1.800083">
        <ele>631</ele>
        <time>2023-05-07T10:44:36Z</time>
      </trkpt>
      <trkpt lat="45.478012" lon="1.800053">
        <ele>631</ele>
        <time>2023-05-07T10:44:37Z</time>
      </trkpt>
      <trkpt lat="45.478000" lon="1.800023">
        <ele>630</ele>
        <time>2023-05-07T10:44:38Z</time>
      </trkpt>
      <trkpt lat="45.477987" lon="1.799995">
        <ele>630</ele>
        <time>2023-05-07T10:44:39Z</time>
      </trkpt>
      <trkpt lat="45.477974" lon="1.799967">
        <ele>630</ele>
        <time>2023-05-07T10:44:40Z</time>
      </trkpt>
      <trkpt lat="45.477961" lon="1.799942">
        <ele>630</ele>
        <time>2023-05-07T10:44:41Z</time>
      </trkpt>
      <trkpt lat="45.477949" lon="1.799917">
        <ele>630</ele>
        <time>2023-05-07T10:44:42Z</time>
      </trkpt>
      <trkpt lat="45.477937" lon="1.799896">
        <ele>630</ele>
        <time>2023-05-07T10:44:43Z</time>
      </trkpt>
      <trkpt lat="45.477925" lon="1.799874">
        <ele>630</ele>
        <time>2023-05-07T10:44:44Z</time>
      </trkpt>
      <trkpt lat="45.477912" lon="1.799854">
        <ele>630</ele>
        <time>2023-05-07T10:44:45Z</time>
      </trkpt>
      <trkpt lat="45.477900" lon="1.799833">
        <ele>630</ele>
        <time>2023-05-07T10:44:46Z</time>
      </trkpt>
      <trkpt lat="45.477887" lon="1.799807">
        <ele>630</ele>
        <time>2023-05-07T10:44:47Z</time>
      </trkpt>
      <trkpt lat="45.477874" lon="1.799781">
        <ele>629</ele>
        <time>2023-05-07T10:44:48Z</time>
      </trkpt>
      <trkpt lat="45.477862" lon="1.799745">
        <ele>629</ele>
        <time>2023-05-07T10:44:49Z</time>
      </trkpt>
      <trkpt lat="45.477850" lon="1.799710">
        <ele>629</ele>
        <time>2023-05-07T10:44:50Z</time>
      </trkpt>
      <trkpt lat="45.477838" lon="1.799670">
        <ele>629</ele>
        <time>2023-05-07T10:44:51Z</time>
      </trkpt>
      <trkpt lat="45.477826" lon="1.799631">
        <ele>629</ele>
        <time>2023-05-07T10:44:52Z</time>
      </trkpt>
      <trkpt lat="45.477812" lon="1.799596">
        <ele>629</ele>
        <time>2023-05-07T10:44:53Z</time>
      </trkpt>
      <trkpt lat="45.477798" lon="1.799560">
        <ele>629</ele>
        <time>2023-05-07T10:44:54Z</time>
      </trkpt>
      <trkpt lat="45.477782" lon="1.799532">
        <ele>629</ele>
        <time>2023-05-07T10:44:55Z</time>
      </trkpt>
      <trkpt lat="45.477767" lon="1.799503">
        <ele>629</ele>
        <time>2023-05-07T10:44:56Z</time>
      </trkpt>
      <trkpt lat="45.477751" lon="1.799479">
        <ele>629</ele>
        <time>2023-05-07T10:44:57Z</time>
      </trkpt>
      <trkpt lat="45.477735" lon="1.799454">
        <ele>628</ele>
        <time>2023-05-07T10:44:58Z</time>
      </trkpt>
      <trkpt lat="45.477722" lon="1.799430">
        <ele>628</ele>
        <time>2023-05-07T10:44:59Z</time>
      </trkpt>
      <trkpt lat="45.477708" lon="1.799406">
        <ele>628</ele>
        <time>2023-05-07T10:45:00Z</time>
      </trkpt>
      <trkpt lat="45.477695" lon="1.799384">
        <ele>628</ele>
        <time>2023-05-07T10:45:01Z</time>
      </trkpt>
      <trkpt lat="45.477682" lon="1.799363">
        <ele>628</ele>
        <time>2023-05-07T10:45:02Z</time>
      </trkpt>
      <trkpt lat="45.477668" lon="1.799340">
        <ele>628</ele>
        <time>2023-05-07T10:45:03Z</time>
      </trkpt>
      <trkpt lat="45.477653" lon="1.799318">
        <ele>628</ele>
        <time>2023-05-07T10:45:04Z</time>
      </trkpt>
      <trkpt lat="45.477640" lon="1.799292">
        <ele>628</ele>
        <time>2023-05-07T10:45:05Z</time>
      </trkpt>
      <trkpt lat="45.477627" lon="1.799265">
        <ele>628</ele>
        <time>2023-05-07T10:45:06Z</time>
      </trkpt>
      <trkpt lat="45.477618" lon="1.799241">
        <ele>628</ele>
        <time>2023-05-07T10:45:07Z</time>
      </trkpt>
      <trkpt lat="45.477609" lon="1.799217">
        <ele>628</ele>
        <time>2023-05-07T10:45:08Z</time>
      </trkpt>
      <trkpt lat="45.477605" lon="1.799199">
        <ele>628</ele>
        <time>2023-05-07T10:45:09Z</time>
      </trkpt>
      <trkpt lat="45.477600" lon="1.799181">
        <ele>628</ele>
        <time>2023-05-07T10:45:10Z</time>
      </trkpt>
      <trkpt lat="45.477596" lon="1.799163">
        <ele>628</ele>
        <time>2023-05-07T10:45:11Z</time>
      </trkpt>
      <trkpt lat="45.477591" lon="1.799146">
        <ele>628</ele>
        <time>2023-05-07T10:45:12Z</time>
      </trkpt>
      <trkpt lat="45.477586" lon="1.799128">
        <ele>627</ele>
        <time>2023-05-07T10:45:13Z</time>
      </trkpt>
      <trkpt lat="45.477580" lon="1.799109">
        <ele>627</ele>
        <time>2023-05-07T10:45:14Z</time>
      </trkpt>
      <trkpt lat="45.477573" lon="1.799088">
        <ele>627</ele>
        <time>2023-05-07T10:45:15Z</time>
      </trkpt>
      <trkpt lat="45.477565" lon="1.799067">
        <ele>627</ele>
        <time>2023-05-07T10:45:16Z</time>
      </trkpt>
      <trkpt lat="45.477556" lon="1.799044">
        <ele>627</ele>
        <time>2023-05-07T10:45:17Z</time>
      </trkpt>
      <trkpt lat="45.477547" lon="1.799021">
        <ele>627</ele>
        <time>2023-05-07T10:45:18Z</time>
      </trkpt>
      <trkpt lat="45.477536" lon="1.798997">
        <ele>627</ele>
        <time>2023-05-07T10:45:19Z</time>
      </trkpt>
      <trkpt lat="45.477524" lon="1.798973">
        <ele>627</ele>
        <time>2023-05-07T10:45:20Z</time>
      </trkpt>
      <trkpt lat="45.477513" lon="1.798949">
        <ele>627</ele>
        <time>2023-05-07T10:45:21Z</time>
      </trkpt>
      <trkpt lat="45.477501" lon="1.798926">
        <ele>627</ele>
        <time>2023-05-07T10:45:22Z</time>
      </trkpt>
      <trkpt lat="45.477491" lon="1.798902">
        <ele>627</ele>
        <time>2023-05-07T10:45:23Z</time>
      </trkpt>
      <trkpt lat="45.477481" lon="1.798879">
        <ele>627</ele>
        <time>2023-05-07T10:45:24Z</time>
      </trkpt>
      <trkpt lat="45.477472" lon="1.798851">
        <ele>627</ele>
        <time>2023-05-07T10:45:25Z</time>
      </trkpt>
      <trkpt lat="45.477462" lon="1.798822">
        <ele>627</ele>
        <time>2023-05-07T10:45:26Z</time>
      </trkpt>
      <trkpt lat="45.477452" lon="1.798792">
        <ele>627</ele>
        <time>2023-05-07T10:45:27Z</time>
      </trkpt>
      <trkpt lat="45.477441" lon="1.798761">
        <ele>627</ele>
        <time>2023-05-07T10:45:28Z</time>
      </trkpt>
      <trkpt lat="45.477430" lon="1.798733">
        <ele>627</ele>
        <time>2023-05-07T10:45:29Z</time>
      </trkpt>
      <trkpt lat="45.477418" lon="1.798706">
        <ele>627</ele>
        <time>2023-05-07T10:45:30Z</time>
      </trkpt>
      <trkpt lat="45.477405" lon="1.798684">
        <ele>627</ele>
        <time>2023-05-07T10:45:31Z</time>
      </trkpt>
      <trkpt lat="45.477392" lon="1.798662">
        <ele>627</ele>
        <time>2023-05-07T10:45:32Z</time>
      </trkpt>
      <trkpt lat="45.477378" lon="1.798641">
        <ele>626</ele>
        <time>2023-05-07T10:45:33Z</time>
      </trkpt>
      <trkpt lat="45.477364" lon="1.798620">
        <ele>626</ele>
        <time>2023-05-07T10:45:34Z</time>
      </trkpt>
      <trkpt lat="45.477353" lon="1.798596">
        <ele>626</ele>
        <time>2023-05-07T10:45:35Z</time>
      </trkpt>
      <trkpt lat="45.477342" lon="1.798572">
        <ele>626</ele>
        <time>2023-05-07T10:45:36Z</time>
      </trkpt>
      <trkpt lat="45.477336" lon="1.798546">
        <ele>626</ele>
        <time>2023-05-07T10:45:37Z</time>
      </trkpt>
      <trkpt lat="45.477330" lon="1.798519">
        <ele>626</ele>
        <time>2023-05-07T10:45:38Z</time>
      </trkpt>
      <trkpt lat="45.477328" lon="1.798496">
        <ele>626</ele>
        <time>2023-05-07T10:45:39Z</time>
      </trkpt>
      <trkpt lat="45.477326" lon="1.798473">
        <ele>626</ele>
        <time>2023-05-07T10:45:40Z</time>
      </trkpt>
      <trkpt lat="45.477326" lon="1.798450">
        <ele>626</ele>
        <time>2023-05-07T10:45:41Z</time>
      </trkpt>
      <trkpt lat="45.477327" lon="1.798428">
        <ele>626</ele>
        <time>2023-05-07T10:45:42Z</time>
      </trkpt>
      <trkpt lat="45.477328" lon="1.798406">
        <ele>626</ele>
        <time>2023-05-07T10:45:43Z</time>
      </trkpt>
      <trkpt lat="45.477330" lon="1.798383">
        <ele>626</ele>
        <time>2023-05-07T10:45:44Z</time>
      </trkpt>
      <trkpt lat="45.477331" lon="1.798360">
        <ele>626</ele>
        <time>2023-05-07T10:45:45Z</time>
      </trkpt>
      <trkpt lat="45.477332" lon="1.798337">
        <ele>626</ele>
        <time>2023-05-07T10:45:46Z</time>
      </trkpt>
      <trkpt lat="45.477333" lon="1.798311">
        <ele>626</ele>
        <time>2023-05-07T10:45:47Z</time>
      </trkpt>
      <trkpt lat="45.477334" lon="1.798285">
        <ele>626</ele>
        <time>2023-05-07T10:45:48Z</time>
      </trkpt>
      <trkpt lat="45.477336" lon="1.798259">
        <ele>626</ele>
        <time>2023-05-07T10:45:49Z</time>
      </trkpt>
      <trkpt lat="45.477337" lon="1.798234">
        <ele>626</ele>
        <time>2023-05-07T10:45:50Z</time>
      </trkpt>
      <trkpt lat="45.477339" lon="1.798209">
        <ele>626</ele>
        <time>2023-05-07T10:45:51Z</time>
      </trkpt>
      <trkpt lat="45.477342" lon="1.798184">
        <ele>626</ele>
        <time>2023-05-07T10:45:52Z</time>
      </trkpt>
      <trkpt lat="45.477344" lon="1.798161">
        <ele>626</ele>
        <time>2023-05-07T10:45:53Z</time>
      </trkpt>
      <trkpt lat="45.477347" lon="1.798139">
        <ele>626</ele>
        <time>2023-05-07T10:45:54Z</time>
      </trkpt>
      <trkpt lat="45.477350" lon="1.798115">
        <ele>626</ele>
        <time>2023-05-07T10:45:55Z</time>
      </trkpt>
      <trkpt lat="45.477354" lon="1.798091">
        <ele>626</ele>
        <time>2023-05-07T10:45:56Z</time>
      </trkpt>
      <trkpt lat="45.477356" lon="1.798064">
        <ele>626</ele>
        <time>2023-05-07T10:45:57Z</time>
      </trkpt>
      <trkpt lat="45.477359" lon="1.798037">
        <ele>626</ele>
        <time>2023-05-07T10:45:58Z</time>
      </trkpt>
      <trkpt lat="45.477360" lon="1.798011">
        <ele>626</ele>
        <time>2023-05-07T10:45:59Z</time>
      </trkpt>
      <trkpt lat="45.477362" lon="1.797985">
        <ele>626</ele>
        <time>2023-05-07T10:46:00Z</time>
      </trkpt>
      <trkpt lat="45.477363" lon="1.797963">
        <ele>626</ele>
        <time>2023-05-07T10:46:01Z</time>
      </trkpt>
      <trkpt lat="45.477365" lon="1.797942">
        <ele>626</ele>
        <time>2023-05-07T10:46:02Z</time>
      </trkpt>
      <trkpt lat="45.477365" lon="1.797923">
        <ele>626</ele>
        <time>2023-05-07T10:46:03Z</time>
      </trkpt>
      <trkpt lat="45.477366" lon="1.797905">
        <ele>626</ele>
        <time>2023-05-07T10:46:04Z</time>
      </trkpt>
      <trkpt lat="45.477365" lon="1.797886">
        <ele>626</ele>
        <time>2023-05-07T10:46:05Z</time>
      </trkpt>
      <trkpt lat="45.477363" lon="1.797867">
        <ele>626</ele>
        <time>2023-05-07T10:46:06Z</time>
      </trkpt>
      <trkpt lat="45.477361" lon="1.797846">
        <ele>626</ele>
        <time>2023-05-07T10:46:07Z</time>
      </trkpt>
      <trkpt lat="45.477359" lon="1.797825">
        <ele>626</ele>
        <time>2023-05-07T10:46:08Z</time>
      </trkpt>
      <trkpt lat="45.477356" lon="1.797800">
        <ele>626</ele>
        <time>2023-05-07T10:46:09Z</time>
      </trkpt>
      <trkpt lat="45.477353" lon="1.797775">
        <ele>626</ele>
        <time>2023-05-07T10:46:10Z</time>
      </trkpt>
      <trkpt lat="45.477348" lon="1.797750">
        <ele>626</ele>
        <time>2023-05-07T10:46:11Z</time>
      </trkpt>
      <trkpt lat="45.477344" lon="1.797725">
        <ele>626</ele>
        <time>2023-05-07T10:46:12Z</time>
      </trkpt>
      <trkpt lat="45.477341" lon="1.797701">
        <ele>626</ele>
        <time>2023-05-07T10:46:13Z</time>
      </trkpt>
      <trkpt lat="45.477337" lon="1.797677">
        <ele>626</ele>
        <time>2023-05-07T10:46:14Z</time>
      </trkpt>
      <trkpt lat="45.477334" lon="1.797654">
        <ele>626</ele>
        <time>2023-05-07T10:46:15Z</time>
      </trkpt>
      <trkpt lat="45.477330" lon="1.797628">
        <ele>626</ele>
        <time>2023-05-07T10:46:16Z</time>
      </trkpt>
      <trkpt lat="45.477327" lon="1.797603">
        <ele>626</ele>
        <time>2023-05-07T10:46:17Z</time>
      </trkpt>
      <trkpt lat="45.477323" lon="1.797577">
        <ele>626</ele>
        <time>2023-05-07T10:46:18Z</time>
      </trkpt>
      <trkpt lat="45.477320" lon="1.797551">
        <ele>626</ele>
        <time>2023-05-07T10:46:19Z</time>
      </trkpt>
      <trkpt lat="45.477314" lon="1.797522">
        <ele>626</ele>
        <time>2023-05-07T10:46:20Z</time>
      </trkpt>
      <trkpt lat="45.477309" lon="1.797494">
        <ele>626</ele>
        <time>2023-05-07T10:46:21Z</time>
      </trkpt>
      <trkpt lat="45.477302" lon="1.797464">
        <ele>626</ele>
        <time>2023-05-07T10:46:22Z</time>
      </trkpt>
      <trkpt lat="45.477295" lon="1.797435">
        <ele>625</ele>
        <time>2023-05-07T10:46:23Z</time>
      </trkpt>
      <trkpt lat="45.477289" lon="1.797404">
        <ele>625</ele>
        <time>2023-05-07T10:46:24Z</time>
      </trkpt>
      <trkpt lat="45.477283" lon="1.797373">
        <ele>625</ele>
        <time>2023-05-07T10:46:25Z</time>
      </trkpt>
      <trkpt lat="45.477278" lon="1.797340">
        <ele>625</ele>
        <time>2023-05-07T10:46:26Z</time>
      </trkpt>
      <trkpt lat="45.477275" lon="1.797306">
        <ele>625</ele>
        <time>2023-05-07T10:46:27Z</time>
      </trkpt>
      <trkpt lat="45.477273" lon="1.797273">
        <ele>625</ele>
        <time>2023-05-07T10:46:28Z</time>
      </trkpt>
      <trkpt lat="45.477271" lon="1.797240">
        <ele>625</ele>
        <time>2023-05-07T10:46:29Z</time>
      </trkpt>
      <trkpt lat="45.477269" lon="1.797211">
        <ele>625</ele>
        <time>2023-05-07T10:46:30Z</time>
      </trkpt>
      <trkpt lat="45.477266" lon="1.797182">
        <ele>625</ele>
        <time>2023-05-07T10:46:31Z</time>
      </trkpt>
      <trkpt lat="45.477264" lon="1.797157">
        <ele>625</ele>
        <time>2023-05-07T10:46:32Z</time>
      </trkpt>
      <trkpt lat="45.477261" lon="1.797132">
        <ele>625</ele>
        <time>2023-05-07T10:46:33Z</time>
      </trkpt>
      <trkpt lat="45.477256" lon="1.797109">
        <ele>625</ele>
        <time>2023-05-07T10:46:34Z</time>
      </trkpt>
      <trkpt lat="45.477252" lon="1.797087">
        <ele>625</ele>
        <time>2023-05-07T10:46:35Z</time>
      </trkpt>
      <trkpt lat="45.477245" lon="1.797061">
        <ele>625</ele>
        <time>2023-05-07T10:46:36Z</time>
      </trkpt>
      <trkpt lat="45.477238" lon="1.797035">
        <ele>625</ele>
        <time>2023-05-07T10:46:37Z</time>
      </trkpt>
      <trkpt lat="45.477231" lon="1.797007">
        <ele>624</ele>
        <time>2023-05-07T10:46:38Z</time>
      </trkpt>
      <trkpt lat="45.477224" lon="1.796979">
        <ele>624</ele>
        <time>2023-05-07T10:46:39Z</time>
      </trkpt>
      <trkpt lat="45.477215" lon="1.796953">
        <ele>624</ele>
        <time>2023-05-07T10:46:40Z</time>
      </trkpt>
      <trkpt lat="45.477207" lon="1.796926">
        <ele>624</ele>
        <time>2023-05-07T10:46:41Z</time>
      </trkpt>
      <trkpt lat="45.477199" lon="1.796901">
        <ele>624</ele>
        <time>2023-05-07T10:46:42Z</time>
      </trkpt>
      <trkpt lat="45.477190" lon="1.796876">
        <ele>624</ele>
        <time>2023-05-07T10:46:43Z</time>
      </trkpt>
      <trkpt lat="45.477181" lon="1.796850">
        <ele>624</ele>
        <time>2023-05-07T10:46:44Z</time>
      </trkpt>
      <trkpt lat="45.477171" lon="1.796825">
        <ele>624</ele>
        <time>2023-05-07T10:46:45Z</time>
      </trkpt>
      <trkpt lat="45.477161" lon="1.796796">
        <ele>624</ele>
        <time>2023-05-07T10:46:46Z</time>
      </trkpt>
      <trkpt lat="45.477151" lon="1.796768">
        <ele>624</ele>
        <time>2023-05-07T10:46:47Z</time>
      </trkpt>
      <trkpt lat="45.477140" lon="1.796738">
        <ele>623</ele>
        <time>2023-05-07T10:46:48Z</time>
      </trkpt>
      <trkpt lat="45.477129" lon="1.796708">
        <ele>623</ele>
        <time>2023-05-07T10:46:49Z</time>
      </trkpt>
      <trkpt lat="45.477117" lon="1.796676">
        <ele>623</ele>
        <time>2023-05-07T10:46:50Z</time>
      </trkpt>
      <trkpt lat="45.477105" lon="1.796644">
        <ele>623</ele>
        <time>2023-05-07T10:46:51Z</time>
      </trkpt>
      <trkpt lat="45.477093" lon="1.796614">
        <ele>623</ele>
        <time>2023-05-07T10:46:52Z</time>
      </trkpt>
      <trkpt lat="45.477080" lon="1.796583">
        <ele>623</ele>
        <time>2023-05-07T10:46:53Z</time>
      </trkpt>
      <trkpt lat="45.477068" lon="1.796552">
        <ele>623</ele>
        <time>2023-05-07T10:46:54Z</time>
      </trkpt>
      <trkpt lat="45.477055" lon="1.796525">
        <ele>623</ele>
        <time>2023-05-07T10:46:55Z</time>
      </trkpt>
      <trkpt lat="45.477042" lon="1.796497">
        <ele>623</ele>
        <time>2023-05-07T10:46:56Z</time>
      </trkpt>
      <trkpt lat="45.477033" lon="1.796467">
        <ele>623</ele>
        <time>2023-05-07T10:46:57Z</time>
      </trkpt>
      <trkpt lat="45.477023" lon="1.796437">
        <ele>623</ele>
        <time>2023-05-07T10:46:58Z</time>
      </trkpt>
      <trkpt lat="45.477019" lon="1.796403">
        <ele>623</ele>
        <time>2023-05-07T10:46:59Z</time>
      </trkpt>
      <trkpt lat="45.477015" lon="1.796368">
        <ele>623</ele>
        <time>2023-05-07T10:47:00Z</time>
      </trkpt>
      <trkpt lat="45.477013" lon="1.796329">
        <ele>623</ele>
        <time>2023-05-07T10:47:01Z</time>
      </trkpt>
      <trkpt lat="45.477011" lon="1.796290">
        <ele>623</ele>
        <time>2023-05-07T10:47:02Z</time>
      </trkpt>
      <trkpt lat="45.477008" lon="1.796252">
        <ele>622</ele>
        <time>2023-05-07T10:47:03Z</time>
      </trkpt>
      <trkpt lat="45.477005" lon="1.796213">
        <ele>622</ele>
        <time>2023-05-07T10:47:04Z</time>
      </trkpt>
      <trkpt lat="45.477001" lon="1.796181">
        <ele>622</ele>
        <time>2023-05-07T10:47:05Z</time>
      </trkpt>
      <trkpt lat="45.476997" lon="1.796149">
        <ele>622</ele>
        <time>2023-05-07T10:47:06Z</time>
      </trkpt>
      <trkpt lat="45.476993" lon="1.796120">
        <ele>622</ele>
        <time>2023-05-07T10:47:07Z</time>
      </trkpt>
      <trkpt lat="45.476988" lon="1.796092">
        <ele>621</ele>
        <time>2023-05-07T10:47:08Z</time>
      </trkpt>
      <trkpt lat="45.476984" lon="1.796060">
        <ele>621</ele>
        <time>2023-05-07T10:47:09Z</time>
      </trkpt>
      <trkpt lat="45.476980" lon="1.796029">
        <ele>621</ele>
        <time>2023-05-07T10:47:10Z</time>
      </trkpt>
      <trkpt lat="45.476973" lon="1.795990">
        <ele>621</ele>
        <time>2023-05-07T10:47:11Z</time>
      </trkpt>
      <trkpt lat="45.476965" lon="1.795952">
        <ele>621</ele>
        <time>2023-05-07T10:47:12Z</time>
      </trkpt>
      <trkpt lat="45.476955" lon="1.795908">
        <ele>621</ele>
        <time>2023-05-07T10:47:13Z</time>
      </trkpt>
      <trkpt lat="45.476944" lon="1.795864">
        <ele>621</ele>
        <time>2023-05-07T10:47:14Z</time>
      </trkpt>
      <trkpt lat="45.476932" lon="1.795817">
        <ele>621</ele>
        <time>2023-05-07T10:47:15Z</time>
      </trkpt>
      <trkpt lat="45.476919" lon="1.795771">
        <ele>621</ele>
        <time>2023-05-07T10:47:16Z</time>
      </trkpt>
      <trkpt lat="45.476907" lon="1.795727">
        <ele>621</ele>
        <time>2023-05-07T10:47:17Z</time>
      </trkpt>
      <trkpt lat="45.476894" lon="1.795683">
        <ele>620</ele>
        <time>2023-05-07T10:47:18Z</time>
      </trkpt>
      <trkpt lat="45.476882" lon="1.795641">
        <ele>620</ele>
        <time>2023-05-07T10:47:19Z</time>
      </trkpt>
      <trkpt lat="45.476870" lon="1.795600">
        <ele>620</ele>
        <time>2023-05-07T10:47:20Z</time>
      </trkpt>
      <trkpt lat="45.476859" lon="1.795564">
        <ele>620</ele>
        <time>2023-05-07T10:47:21Z</time>
      </trkpt>
      <trkpt lat="45.476849" lon="1.795527">
        <ele>620</ele>
        <time>2023-05-07T10:47:22Z</time>
      </trkpt>
      <trkpt lat="45.476840" lon="1.795494">
        <ele>619</ele>
        <time>2023-05-07T10:47:23Z</time>
      </trkpt>
      <trkpt lat="45.476832" lon="1.795461">
        <ele>619</ele>
        <time>2023-05-07T10:47:24Z</time>
      </trkpt>
      <trkpt lat="45.476822" lon="1.795428">
        <ele>619</ele>
        <time>2023-05-07T10:47:25Z</time>
      </trkpt>
      <trkpt lat="45.476813" lon="1.795395">
        <ele>619</ele>
        <time>2023-05-07T10:47:26Z</time>
      </trkpt>
      <trkpt lat="45.476802" lon="1.795360">
        <ele>619</ele>
        <time>2023-05-07T10:47:27Z</time>
      </trkpt>
      <trkpt lat="45.476791" lon="1.795326">
        <ele>619</ele>
        <time>2023-05-07T10:47:28Z</time>
      </trkpt>
      <trkpt lat="45.476779" lon="1.795289">
        <ele>619</ele>
        <time>2023-05-07T10:47:29Z</time>
      </trkpt>
      <trkpt lat="45.476767" lon="1.795253">
        <ele>619</ele>
        <time>2023-05-07T10:47:30Z</time>
      </trkpt>
      <trkpt lat="45.476754" lon="1.795213">
        <ele>619</ele>
        <time>2023-05-07T10:47:31Z</time>
      </trkpt>
      <trkpt lat="45.476742" lon="1.795174">
        <ele>619</ele>
        <time>2023-05-07T10:47:32Z</time>
      </trkpt>
      <trkpt lat="45.476733" lon="1.795135">
        <ele>618</ele>
        <time>2023-05-07T10:47:33Z</time>
      </trkpt>
      <trkpt lat="45.476724" lon="1.795096">
        <ele>618</ele>
        <time>2023-05-07T10:47:34Z</time>
      </trkpt>
      <trkpt lat="45.476717" lon="1.795056">
        <ele>618</ele>
        <time>2023-05-07T10:47:35Z</time>
      </trkpt>
      <trkpt lat="45.476710" lon="1.795015">
        <ele>618</ele>
        <time>2023-05-07T10:47:36Z</time>
      </trkpt>
      <trkpt lat="45.476705" lon="1.794974">
        <ele>618</ele>
        <time>2023-05-07T10:47:37Z</time>
      </trkpt>
      <trkpt lat="45.476700" lon="1.794932">
        <ele>617</ele>
        <time>2023-05-07T10:47:38Z</time>
      </trkpt>
      <trkpt lat="45.476696" lon="1.794889">
        <ele>617</ele>
        <time>2023-05-07T10:47:39Z</time>
      </trkpt>
      <trkpt lat="45.476692" lon="1.794847">
        <ele>617</ele>
        <time>2023-05-07T10:47:40Z</time>
      </trkpt>
      <trkpt lat="45.476694" lon="1.794804">
        <ele>617</ele>
        <time>2023-05-07T10:47:41Z</time>
      </trkpt>
      <trkpt lat="45.476695" lon="1.794761">
        <ele>617</ele>
        <time>2023-05-07T10:47:42Z</time>
      </trkpt>
      <trkpt lat="45.476701" lon="1.794719">
        <ele>616</ele>
        <time>2023-05-07T10:47:43Z</time>
      </trkpt>
      <trkpt lat="45.476706" lon="1.794676">
        <ele>616</ele>
        <time>2023-05-07T10:47:44Z</time>
      </trkpt>
      <trkpt lat="45.476714" lon="1.794633">
        <ele>616</ele>
        <time>2023-05-07T10:47:45Z</time>
      </trkpt>
      <trkpt lat="45.476722" lon="1.794590">
        <ele>616</ele>
        <time>2023-05-07T10:47:46Z</time>
      </trkpt>
      <trkpt lat="45.476730" lon="1.794546">
        <ele>616</ele>
        <time>2023-05-07T10:47:47Z</time>
      </trkpt>
      <trkpt lat="45.476737" lon="1.794503">
        <ele>615</ele>
        <time>2023-05-07T10:47:48Z</time>
      </trkpt>
      <trkpt lat="45.476743" lon="1.794458">
        <ele>615</ele>
        <time>2023-05-07T10:47:49Z</time>
      </trkpt>
      <trkpt lat="45.476749" lon="1.794412">
        <ele>615</ele>
        <time>2023-05-07T10:47:50Z</time>
      </trkpt>
      <trkpt lat="45.476753" lon="1.794365">
        <ele>615</ele>
        <time>2023-05-07T10:47:51Z</time>
      </trkpt>
      <trkpt lat="45.476757" lon="1.794318">
        <ele>615</ele>
        <time>2023-05-07T10:47:52Z</time>
      </trkpt>
      <trkpt lat="45.476760" lon="1.794271">
        <ele>615</ele>
        <time>2023-05-07T10:47:53Z</time>
      </trkpt>
      <trkpt lat="45.476762" lon="1.794223">
        <ele>615</ele>
        <time>2023-05-07T10:47:54Z</time>
      </trkpt>
      <trkpt lat="45.476762" lon="1.794175">
        <ele>615</ele>
        <time>2023-05-07T10:47:55Z</time>
      </trkpt>
      <trkpt lat="45.476761" lon="1.794127">
        <ele>615</ele>
        <time>2023-05-07T10:47:56Z</time>
      </trkpt>
      <trkpt lat="45.476759" lon="1.794081">
        <ele>615</ele>
        <time>2023-05-07T10:47:57Z</time>
      </trkpt>
      <trkpt lat="45.476757" lon="1.794036">
        <ele>614</ele>
        <time>2023-05-07T10:47:58Z</time>
      </trkpt>
      <trkpt lat="45.476753" lon="1.793992">
        <ele>614</ele>
        <time>2023-05-07T10:47:59Z</time>
      </trkpt>
      <trkpt lat="45.476749" lon="1.793949">
        <ele>614</ele>
        <time>2023-05-07T10:48:00Z</time>
      </trkpt>
      <trkpt lat="45.476743" lon="1.793904">
        <ele>614</ele>
        <time>2023-05-07T10:48:01Z</time>
      </trkpt>
      <trkpt lat="45.476738" lon="1.793860">
        <ele>614</ele>
        <time>2023-05-07T10:48:02Z</time>
      </trkpt>
      <trkpt lat="45.476733" lon="1.793816">
        <ele>613</ele>
        <time>2023-05-07T10:48:03Z</time>
      </trkpt>
      <trkpt lat="45.476728" lon="1.793772">
        <ele>613</ele>
        <time>2023-05-07T10:48:04Z</time>
      </trkpt>
      <trkpt lat="45.476723" lon="1.793730">
        <ele>613</ele>
        <time>2023-05-07T10:48:05Z</time>
      </trkpt>
      <trkpt lat="45.476717" lon="1.793688">
        <ele>613</ele>
        <time>2023-05-07T10:48:06Z</time>
      </trkpt>
      <trkpt lat="45.476712" lon="1.793648">
        <ele>613</ele>
        <time>2023-05-07T10:48:07Z</time>
      </trkpt>
      <trkpt lat="45.476707" lon="1.793608">
        <ele>612</ele>
        <time>2023-05-07T10:48:08Z</time>
      </trkpt>
      <trkpt lat="45.476702" lon="1.793570">
        <ele>612</ele>
        <time>2023-05-07T10:48:09Z</time>
      </trkpt>
      <trkpt lat="45.476697" lon="1.793531">
        <ele>612</ele>
        <time>2023-05-07T10:48:10Z</time>
      </trkpt>
      <trkpt lat="45.476692" lon="1.793495">
        <ele>612</ele>
        <time>2023-05-07T10:48:11Z</time>
      </trkpt>
      <trkpt lat="45.476687" lon="1.793459">
        <ele>612</ele>
        <time>2023-05-07T10:48:12Z</time>
      </trkpt>
      <trkpt lat="45.476684" lon="1.793424">
        <ele>611</ele>
        <time>2023-05-07T10:48:13Z</time>
      </trkpt>
      <trkpt lat="45.476680" lon="1.793389">
        <ele>611</ele>
        <time>2023-05-07T10:48:14Z</time>
      </trkpt>
      <trkpt lat="45.476679" lon="1.793352">
        <ele>611</ele>
        <time>2023-05-07T10:48:15Z</time>
      </trkpt>
      <trkpt lat="45.476678" lon="1.793315">
        <ele>611</ele>
        <time>2023-05-07T10:48:16Z</time>
      </trkpt>
      <trkpt lat="45.476678" lon="1.793274">
        <ele>611</ele>
        <time>2023-05-07T10:48:17Z</time>
      </trkpt>
      <trkpt lat="45.476679" lon="1.793234">
        <ele>610</ele>
        <time>2023-05-07T10:48:18Z</time>
      </trkpt>
      <trkpt lat="45.476680" lon="1.793191">
        <ele>610</ele>
        <time>2023-05-07T10:48:19Z</time>
      </trkpt>
      <trkpt lat="45.476681" lon="1.793148">
        <ele>610</ele>
        <time>2023-05-07T10:48:20Z</time>
      </trkpt>
      <trkpt lat="45.476682" lon="1.793104">
        <ele>610</ele>
        <time>2023-05-07T10:48:21Z</time>
      </trkpt>
      <trkpt lat="45.476683" lon="1.793060">
        <ele>610</ele>
        <time>2023-05-07T10:48:22Z</time>
      </trkpt>
      <trkpt lat="45.476684" lon="1.793019">
        <ele>610</ele>
        <time>2023-05-07T10:48:23Z</time>
      </trkpt>
      <trkpt lat="45.476685" lon="1.792979">
        <ele>610</ele>
        <time>2023-05-07T10:48:24Z</time>
      </trkpt>
      <trkpt lat="45.476687" lon="1.792947">
        <ele>610</ele>
        <time>2023-05-07T10:48:25Z</time>
      </trkpt>
      <trkpt lat="45.476689" lon="1.792915">
        <ele>610</ele>
        <time>2023-05-07T10:48:26Z</time>
      </trkpt>
      <trkpt lat="45.476690" lon="1.792892">
        <ele>610</ele>
        <time>2023-05-07T10:48:27Z</time>
      </trkpt>
      <trkpt lat="45.476691" lon="1.792869">
        <ele>609</ele>
        <time>2023-05-07T10:48:28Z</time>
      </trkpt>
      <trkpt lat="45.476691" lon="1.792851">
        <ele>609</ele>
        <time>2023-05-07T10:48:29Z</time>
      </trkpt>
      <trkpt lat="45.476691" lon="1.792833">
        <ele>608</ele>
        <time>2023-05-07T10:48:30Z</time>
      </trkpt>
      <trkpt lat="45.476695" lon="1.792809">
        <ele>608</ele>
        <time>2023-05-07T10:48:31Z</time>
      </trkpt>
      <trkpt lat="45.476699" lon="1.792786">
        <ele>608</ele>
        <time>2023-05-07T10:48:32Z</time>
      </trkpt>
      <trkpt lat="45.476707" lon="1.792754">
        <ele>608</ele>
        <time>2023-05-07T10:48:33Z</time>
      </trkpt>
      <trkpt lat="45.476715" lon="1.792722">
        <ele>608</ele>
        <time>2023-05-07T10:48:34Z</time>
      </trkpt>
      <trkpt lat="45.476724" lon="1.792688">
        <ele>608</ele>
        <time>2023-05-07T10:48:35Z</time>
      </trkpt>
      <trkpt lat="45.476732" lon="1.792655">
        <ele>608</ele>
        <time>2023-05-07T10:48:36Z</time>
      </trkpt>
      <trkpt lat="45.476740" lon="1.792622">
        <ele>608</ele>
        <time>2023-05-07T10:48:37Z</time>
      </trkpt>
      <trkpt lat="45.476748" lon="1.792590">
        <ele>607</ele>
        <time>2023-05-07T10:48:38Z</time>
      </trkpt>
      <trkpt lat="45.476758" lon="1.792557">
        <ele>607</ele>
        <time>2023-05-07T10:48:39Z</time>
      </trkpt>
      <trkpt lat="45.476767" lon="1.792525">
        <ele>607</ele>
        <time>2023-05-07T10:48:40Z</time>
      </trkpt>
      <trkpt lat="45.476776" lon="1.792494">
        <ele>607</ele>
        <time>2023-05-07T10:48:41Z</time>
      </trkpt>
      <trkpt lat="45.476786" lon="1.792462">
        <ele>607</ele>
        <time>2023-05-07T10:48:42Z</time>
      </trkpt>
      <trkpt lat="45.476795" lon="1.792432">
        <ele>607</ele>
        <time>2023-05-07T10:48:43Z</time>
      </trkpt>
      <trkpt lat="45.476805" lon="1.792401">
        <ele>607</ele>
        <time>2023-05-07T10:48:44Z</time>
      </trkpt>
      <trkpt lat="45.476812" lon="1.792371">
        <ele>607</ele>
        <time>2023-05-07T10:48:45Z</time>
      </trkpt>
      <trkpt lat="45.476820" lon="1.792340">
        <ele>607</ele>
        <time>2023-05-07T10:48:46Z</time>
      </trkpt>
      <trkpt lat="45.476829" lon="1.792309">
        <ele>607</ele>
        <time>2023-05-07T10:48:47Z</time>
      </trkpt>
      <trkpt lat="45.476838" lon="1.792277">
        <ele>607</ele>
        <time>2023-05-07T10:48:48Z</time>
      </trkpt>
      <trkpt lat="45.476848" lon="1.792245">
        <ele>607</ele>
        <time>2023-05-07T10:48:49Z</time>
      </trkpt>
      <trkpt lat="45.476859" lon="1.792213">
        <ele>607</ele>
        <time>2023-05-07T10:48:50Z</time>
      </trkpt>
      <trkpt lat="45.476872" lon="1.792181">
        <ele>607</ele>
        <time>2023-05-07T10:48:51Z</time>
      </trkpt>
      <trkpt lat="45.476884" lon="1.792149">
        <ele>607</ele>
        <time>2023-05-07T10:48:52Z</time>
      </trkpt>
      <trkpt lat="45.476897" lon="1.792117">
        <ele>607</ele>
        <time>2023-05-07T10:48:53Z</time>
      </trkpt>
      <trkpt lat="45.476910" lon="1.792085">
        <ele>607</ele>
        <time>2023-05-07T10:48:54Z</time>
      </trkpt>
      <trkpt lat="45.476923" lon="1.792054">
        <ele>607</ele>
        <time>2023-05-07T10:48:55Z</time>
      </trkpt>
      <trkpt lat="45.476936" lon="1.792024">
        <ele>607</ele>
        <time>2023-05-07T10:48:56Z</time>
      </trkpt>
      <trkpt lat="45.476949" lon="1.791995">
        <ele>607</ele>
        <time>2023-05-07T10:48:57Z</time>
      </trkpt>
      <trkpt lat="45.476963" lon="1.791966">
        <ele>607</ele>
        <time>2023-05-07T10:48:58Z</time>
      </trkpt>
      <trkpt lat="45.476977" lon="1.791938">
        <ele>607</ele>
        <time>2023-05-07T10:48:59Z</time>
      </trkpt>
      <trkpt lat="45.476992" lon="1.791909">
        <ele>607</ele>
        <time>2023-05-07T10:49:00Z</time>
      </trkpt>
      <trkpt lat="45.477007" lon="1.791884">
        <ele>607</ele>
        <time>2023-05-07T10:49:01Z</time>
      </trkpt>
      <trkpt lat="45.477023" lon="1.791858">
        <ele>607</ele>
        <time>2023-05-07T10:49:02Z</time>
      </trkpt>
      <trkpt lat="45.477039" lon="1.791832">
        <ele>607</ele>
        <time>2023-05-07T10:49:03Z</time>
      </trkpt>
      <trkpt lat="45.477055" lon="1.791807">
        <ele>607</ele>
        <time>2023-05-07T10:49:04Z</time>
      </trkpt>
      <trkpt lat="45.477070" lon="1.791783">
        <ele>607</ele>
        <time>2023-05-07T10:49:05Z</time>
      </trkpt>
      <trkpt lat="45.477086" lon="1.791759">
        <ele>607</ele>
        <time>2023-05-07T10:49:06Z</time>
      </trkpt>
      <trkpt lat="45.477102" lon="1.791736">
        <ele>607</ele>
        <time>2023-05-07T10:49:07Z</time>
      </trkpt>
      <trkpt lat="45.477119" lon="1.791714">
        <ele>607</ele>
        <time>2023-05-07T10:49:08Z</time>
      </trkpt>
      <trkpt lat="45.477137" lon="1.791692">
        <ele>607</ele>
        <time>2023-05-07T10:49:09Z</time>
      </trkpt>
      <trkpt lat="45.477156" lon="1.791671">
        <ele>607</ele>
        <time>2023-05-07T10:49:10Z</time>
      </trkpt>
      <trkpt lat="45.477177" lon="1.791649">
        <ele>607</ele>
        <time>2023-05-07T10:49:11Z</time>
      </trkpt>
      <trkpt lat="45.477198" lon="1.791627">
        <ele>607</ele>
        <time>2023-05-07T10:49:12Z</time>
      </trkpt>
      <trkpt lat="45.477219" lon="1.791604">
        <ele>607</ele>
        <time>2023-05-07T10:49:13Z</time>
      </trkpt>
      <trkpt lat="45.477241" lon="1.791581">
        <ele>607</ele>
        <time>2023-05-07T10:49:14Z</time>
      </trkpt>
      <trkpt lat="45.477261" lon="1.791557">
        <ele>607</ele>
        <time>2023-05-07T10:49:15Z</time>
      </trkpt>
      <trkpt lat="45.477281" lon="1.791533">
        <ele>607</ele>
        <time>2023-05-07T10:49:16Z</time>
      </trkpt>
      <trkpt lat="45.477301" lon="1.791506">
        <ele>607</ele>
        <time>2023-05-07T10:49:17Z</time>
      </trkpt>
      <trkpt lat="45.477320" lon="1.791480">
        <ele>607</ele>
        <time>2023-05-07T10:49:18Z</time>
      </trkpt>
      <trkpt lat="45.477339" lon="1.791453">
        <ele>607</ele>
        <time>2023-05-07T10:49:19Z</time>
      </trkpt>
      <trkpt lat="45.477358" lon="1.791426">
        <ele>607</ele>
        <time>2023-05-07T10:49:20Z</time>
      </trkpt>
      <trkpt lat="45.477375" lon="1.791400">
        <ele>607</ele>
        <time>2023-05-07T10:49:21Z</time>
      </trkpt>
      <trkpt lat="45.477391" lon="1.791376">
        <ele>608</ele>
        <time>2023-05-07T10:49:22Z</time>
      </trkpt>
      <trkpt lat="45.477406" lon="1.791352">
        <ele>608</ele>
        <time>2023-05-07T10:49:23Z</time>
      </trkpt>
      <trkpt lat="45.477422" lon="1.791328">
        <ele>608</ele>
        <time>2023-05-07T10:49:24Z</time>
      </trkpt>
      <trkpt lat="45.477437" lon="1.791305">
        <ele>608</ele>
        <time>2023-05-07T10:49:25Z</time>
      </trkpt>
      <trkpt lat="45.477452" lon="1.791282">
        <ele>608</ele>
        <time>2023-05-07T10:49:26Z</time>
      </trkpt>
      <trkpt lat="45.477467" lon="1.791261">
        <ele>608</ele>
        <time>2023-05-07T10:49:27Z</time>
      </trkpt>
      <trkpt lat="45.477481" lon="1.791241">
        <ele>608</ele>
        <time>2023-05-07T10:49:28Z</time>
      </trkpt>
      <trkpt lat="45.477497" lon="1.791222">
        <ele>608</ele>
        <time>2023-05-07T10:49:29Z</time>
      </trkpt>
      <trkpt lat="45.477512" lon="1.791203">
        <ele>608</ele>
        <time>2023-05-07T10:49:30Z</time>
      </trkpt>
      <trkpt lat="45.477527" lon="1.791184">
        <ele>608</ele>
        <time>2023-05-07T10:49:31Z</time>
      </trkpt>
      <trkpt lat="45.477543" lon="1.791165">
        <ele>608</ele>
        <time>2023-05-07T10:49:32Z</time>
      </trkpt>
      <trkpt lat="45.477558" lon="1.791147">
        <ele>608</ele>
        <time>2023-05-07T10:49:33Z</time>
      </trkpt>
      <trkpt lat="45.477574" lon="1.791129">
        <ele>608</ele>
        <time>2023-05-07T10:49:34Z</time>
      </trkpt>
      <trkpt lat="45.477591" lon="1.791111">
        <ele>608</ele>
        <time>2023-05-07T10:49:35Z</time>
      </trkpt>
      <trkpt lat="45.477609" lon="1.791094">
        <ele>608</ele>
        <time>2023-05-07T10:49:36Z</time>
      </trkpt>
      <trkpt lat="45.477629" lon="1.791074">
        <ele>608</ele>
        <time>2023-05-07T10:49:37Z</time>
      </trkpt>
      <trkpt lat="45.477649" lon="1.791054">
        <ele>608</ele>
        <time>2023-05-07T10:49:38Z</time>
      </trkpt>
      <trkpt lat="45.477670" lon="1.791033">
        <ele>608</ele>
        <time>2023-05-07T10:49:39Z</time>
      </trkpt>
      <trkpt lat="45.477691" lon="1.791012">
        <ele>608</ele>
        <time>2023-05-07T10:49:40Z</time>
      </trkpt>
      <trkpt lat="45.477710" lon="1.790988">
        <ele>608</ele>
        <time>2023-05-07T10:49:41Z</time>
      </trkpt>
      <trkpt lat="45.477728" lon="1.790964">
        <ele>608</ele>
        <time>2023-05-07T10:49:42Z</time>
      </trkpt>
      <trkpt lat="45.477747" lon="1.790939">
        <ele>608</ele>
        <time>2023-05-07T10:49:43Z</time>
      </trkpt>
      <trkpt lat="45.477767" lon="1.790913">
        <ele>608</ele>
        <time>2023-05-07T10:49:44Z</time>
      </trkpt>
      <trkpt lat="45.477787" lon="1.790887">
        <ele>608</ele>
        <time>2023-05-07T10:49:45Z</time>
      </trkpt>
      <trkpt lat="45.477808" lon="1.790858">
        <ele>608</ele>
        <time>2023-05-07T10:49:46Z</time>
      </trkpt>
      <trkpt lat="45.477830" lon="1.790828">
        <ele>608</ele>
        <time>2023-05-07T10:49:47Z</time>
      </trkpt>
      <trkpt lat="45.477851" lon="1.790799">
        <ele>608</ele>
        <time>2023-05-07T10:49:48Z</time>
      </trkpt>
      <trkpt lat="45.477871" lon="1.790770">
        <ele>608</ele>
        <time>2023-05-07T10:49:49Z</time>
      </trkpt>
      <trkpt lat="45.477892" lon="1.790740">
        <ele>608</ele>
        <time>2023-05-07T10:49:50Z</time>
      </trkpt>
      <trkpt lat="45.477911" lon="1.790712">
        <ele>608</ele>
        <time>2023-05-07T10:49:51Z</time>
      </trkpt>
      <trkpt lat="45.477931" lon="1.790685">
        <ele>608</ele>
        <time>2023-05-07T10:49:52Z</time>
      </trkpt>
      <trkpt lat="45.477951" lon="1.790655">
        <ele>608</ele>
        <time>2023-05-07T10:49:53Z</time>
      </trkpt>
      <trkpt lat="45.477971" lon="1.790626">
        <ele>608</ele>
        <time>2023-05-07T10:49:54Z</time>
      </trkpt>
      <trkpt lat="45.477993" lon="1.790593">
        <ele>608</ele>
        <time>2023-05-07T10:49:55Z</time>
      </trkpt>
      <trkpt lat="45.478016" lon="1.790561">
        <ele>608</ele>
        <time>2023-05-07T10:49:56Z</time>
      </trkpt>
      <trkpt lat="45.478038" lon="1.790529">
        <ele>608</ele>
        <time>2023-05-07T10:49:57Z</time>
      </trkpt>
      <trkpt lat="45.478059" lon="1.790493">
        <ele>608</ele>
        <time>2023-05-07T10:49:58Z</time>
      </trkpt>
      <trkpt lat="45.478080" lon="1.790458">
        <ele>608</ele>
        <time>2023-05-07T10:49:59Z</time>
      </trkpt>
      <trkpt lat="45.478096" lon="1.790419">
        <ele>608</ele>
        <time>2023-05-07T10:50:00Z</time>
      </trkpt>
      <trkpt lat="45.478113" lon="1.790381">
        <ele>608</ele>
        <time>2023-05-07T10:50:01Z</time>
      </trkpt>
      <trkpt lat="45.478124" lon="1.790343">
        <ele>608</ele>
        <time>2023-05-07T10:50:02Z</time>
      </trkpt>
      <trkpt lat="45.478136" lon="1.790304">
        <ele>608</ele>
        <time>2023-05-07T10:50:03Z</time>
      </trkpt>
      <trkpt lat="45.478146" lon="1.790266">
        <ele>608</ele>
        <time>2023-05-07T10:50:04Z</time>
      </trkpt>
      <trkpt lat="45.478156" lon="1.790228">
        <ele>608</ele>
        <time>2023-05-07T10:50:05Z</time>
      </trkpt>
      <trkpt lat="45.478166" lon="1.790188">
        <ele>608</ele>
        <time>2023-05-07T10:50:06Z</time>
      </trkpt>
      <trkpt lat="45.478175" lon="1.790148">
        <ele>608</ele>
        <time>2023-05-07T10:50:07Z</time>
      </trkpt>
      <trkpt lat="45.478183" lon="1.790109">
        <ele>607</ele>
        <time>2023-05-07T10:50:08Z</time>
      </trkpt>
      <trkpt lat="45.478191" lon="1.790070">
        <ele>607</ele>
        <time>2023-05-07T10:50:09Z</time>
      </trkpt>
      <trkpt lat="45.478195" lon="1.790031">
        <ele>607</ele>
        <time>2023-05-07T10:50:10Z</time>
      </trkpt>
      <trkpt lat="45.478200" lon="1.789993">
        <ele>607</ele>
        <time>2023-05-07T10:50:11Z</time>
      </trkpt>
      <trkpt lat="45.478199" lon="1.789955">
        <ele>607</ele>
        <time>2023-05-07T10:50:12Z</time>
      </trkpt>
      <trkpt lat="45.478199" lon="1.789916">
        <ele>607</ele>
        <time>2023-05-07T10:50:13Z</time>
      </trkpt>
      <trkpt lat="45.478193" lon="1.789882">
        <ele>607</ele>
        <time>2023-05-07T10:50:14Z</time>
      </trkpt>
      <trkpt lat="45.478187" lon="1.789848">
        <ele>607</ele>
        <time>2023-05-07T10:50:15Z</time>
      </trkpt>
      <trkpt lat="45.478181" lon="1.789814">
        <ele>607</ele>
        <time>2023-05-07T10:50:16Z</time>
      </trkpt>
      <trkpt lat="45.478171" lon="1.789782">
        <ele>607</ele>
        <time>2023-05-07T10:50:17Z</time>
      </trkpt>
      <trkpt lat="45.478160" lon="1.789750">
        <ele>607</ele>
        <time>2023-05-07T10:50:18Z</time>
      </trkpt>
      <trkpt lat="45.478147" lon="1.789718">
        <ele>607</ele>
        <time>2023-05-07T10:50:19Z</time>
      </trkpt>
      <trkpt lat="45.478134" lon="1.789687">
        <ele>607</ele>
        <time>2023-05-07T10:50:20Z</time>
      </trkpt>
      <trkpt lat="45.478120" lon="1.789656">
        <ele>607</ele>
        <time>2023-05-07T10:50:21Z</time>
      </trkpt>
      <trkpt lat="45.478106" lon="1.789626">
        <ele>607</ele>
        <time>2023-05-07T10:50:22Z</time>
      </trkpt>
      <trkpt lat="45.478089" lon="1.789596">
        <ele>607</ele>
        <time>2023-05-07T10:50:23Z</time>
      </trkpt>
      <trkpt lat="45.478071" lon="1.789566">
        <ele>607</ele>
        <time>2023-05-07T10:50:24Z</time>
      </trkpt>
      <trkpt lat="45.478053" lon="1.789537">
        <ele>607</ele>
        <time>2023-05-07T10:50:25Z</time>
      </trkpt>
      <trkpt lat="45.478032" lon="1.789510">
        <ele>607</ele>
        <time>2023-05-07T10:50:26Z</time>
      </trkpt>
      <trkpt lat="45.478011" lon="1.789484">
        <ele>607</ele>
        <time>2023-05-07T10:50:27Z</time>
      </trkpt>
      <trkpt lat="45.477990" lon="1.789462">
        <ele>607</ele>
        <time>2023-05-07T10:50:28Z</time>
      </trkpt>
      <trkpt lat="45.477970" lon="1.789440">
        <ele>607</ele>
        <time>2023-05-07T10:50:29Z</time>
      </trkpt>
      <trkpt lat="45.477953" lon="1.789422">
        <ele>607</ele>
        <time>2023-05-07T10:50:30Z</time>
      </trkpt>
      <trkpt lat="45.477935" lon="1.789405">
        <ele>607</ele>
        <time>2023-05-07T10:50:31Z</time>
      </trkpt>
      <trkpt lat="45.477918" lon="1.789389">
        <ele>607</ele>
        <time>2023-05-07T10:50:32Z</time>
      </trkpt>
      <trkpt lat="45.477901" lon="1.789373">
        <ele>607</ele>
        <time>2023-05-07T10:50:33Z</time>
      </trkpt>
      <trkpt lat="45.477883" lon="1.789355">
        <ele>607</ele>
        <time>2023-05-07T10:50:34Z</time>
      </trkpt>
      <trkpt lat="45.477865" lon="1.789337">
        <ele>607</ele>
        <time>2023-05-07T10:50:35Z</time>
      </trkpt>
      <trkpt lat="45.477849" lon="1.789322">
        <ele>607</ele>
        <time>2023-05-07T10:50:36Z</time>
      </trkpt>
      <trkpt lat="45.477834" lon="1.789306">
        <ele>607</ele>
        <time>2023-05-07T10:50:37Z</time>
      </trkpt>
      <trkpt lat="45.477818" lon="1.789290">
        <ele>607</ele>
        <time>2023-05-07T10:50:38Z</time>
      </trkpt>
      <trkpt lat="45.477802" lon="1.789275">
        <ele>607</ele>
        <time>2023-05-07T10:50:39Z</time>
      </trkpt>
      <trkpt lat="45.477783" lon="1.789259">
        <ele>607</ele>
        <time>2023-05-07T10:50:40Z</time>
      </trkpt>
      <trkpt lat="45.477764" lon="1.789244">
        <ele>607</ele>
        <time>2023-05-07T10:50:41Z</time>
      </trkpt>
      <trkpt lat="45.477745" lon="1.789225">
        <ele>607</ele>
        <time>2023-05-07T10:50:42Z</time>
      </trkpt>
      <trkpt lat="45.477725" lon="1.789205">
        <ele>607</ele>
        <time>2023-05-07T10:50:43Z</time>
      </trkpt>
      <trkpt lat="45.477703" lon="1.789184">
        <ele>607</ele>
        <time>2023-05-07T10:50:44Z</time>
      </trkpt>
      <trkpt lat="45.477680" lon="1.789162">
        <ele>607</ele>
        <time>2023-05-07T10:50:45Z</time>
      </trkpt>
      <trkpt lat="45.477656" lon="1.789142">
        <ele>607</ele>
        <time>2023-05-07T10:50:46Z</time>
      </trkpt>
      <trkpt lat="45.477632" lon="1.789123">
        <ele>607</ele>
        <time>2023-05-07T10:50:47Z</time>
      </trkpt>
      <trkpt lat="45.477611" lon="1.789104">
        <ele>607</ele>
        <time>2023-05-07T10:50:48Z</time>
      </trkpt>
      <trkpt lat="45.477590" lon="1.789086">
        <ele>607</ele>
        <time>2023-05-07T10:50:49Z</time>
      </trkpt>
      <trkpt lat="45.477573" lon="1.789068">
        <ele>607</ele>
        <time>2023-05-07T10:50:50Z</time>
      </trkpt>
      <trkpt lat="45.477557" lon="1.789049">
        <ele>607</ele>
        <time>2023-05-07T10:50:51Z</time>
      </trkpt>
      <trkpt lat="45.477541" lon="1.789036">
        <ele>607</ele>
        <time>2023-05-07T10:50:52Z</time>
      </trkpt>
      <trkpt lat="45.477526" lon="1.789022">
        <ele>607</ele>
        <time>2023-05-07T10:50:53Z</time>
      </trkpt>
      <trkpt lat="45.477507" lon="1.789012">
        <ele>607</ele>
        <time>2023-05-07T10:50:54Z</time>
      </trkpt>
      <trkpt lat="45.477489" lon="1.789002">
        <ele>607</ele>
        <time>2023-05-07T10:50:55Z</time>
      </trkpt>
      <trkpt lat="45.477467" lon="1.788987">
        <ele>607</ele>
        <time>2023-05-07T10:50:56Z</time>
      </trkpt>
      <trkpt lat="45.477445" lon="1.788973">
        <ele>608</ele>
        <time>2023-05-07T10:50:57Z</time>
      </trkpt>
      <trkpt lat="45.477420" lon="1.788954">
        <ele>608</ele>
        <time>2023-05-07T10:50:58Z</time>
      </trkpt>
      <trkpt lat="45.477395" lon="1.788935">
        <ele>608</ele>
        <time>2023-05-07T10:50:59Z</time>
      </trkpt>
      <trkpt lat="45.477371" lon="1.788918">
        <ele>608</ele>
        <time>2023-05-07T10:51:00Z</time>
      </trkpt>
      <trkpt lat="45.477346" lon="1.788900">
        <ele>608</ele>
        <time>2023-05-07T10:51:01Z</time>
      </trkpt>
      <trkpt lat="45.477322" lon="1.788881">
        <ele>608</ele>
        <time>2023-05-07T10:51:02Z</time>
      </trkpt>
      <trkpt lat="45.477298" lon="1.788863">
        <ele>608</ele>
        <time>2023-05-07T10:51:03Z</time>
      </trkpt>
      <trkpt lat="45.477276" lon="1.788841">
        <ele>608</ele>
        <time>2023-05-07T10:51:04Z</time>
      </trkpt>
      <trkpt lat="45.477254" lon="1.788820">
        <ele>608</ele>
        <time>2023-05-07T10:51:05Z</time>
      </trkpt>
      <trkpt lat="45.477232" lon="1.788796">
        <ele>608</ele>
        <time>2023-05-07T10:51:06Z</time>
      </trkpt>
      <trkpt lat="45.477210" lon="1.788773">
        <ele>608</ele>
        <time>2023-05-07T10:51:07Z</time>
      </trkpt>
      <trkpt lat="45.477190" lon="1.788748">
        <ele>608</ele>
        <time>2023-05-07T10:51:08Z</time>
      </trkpt>
      <trkpt lat="45.477169" lon="1.788723">
        <ele>608</ele>
        <time>2023-05-07T10:51:09Z</time>
      </trkpt>
      <trkpt lat="45.477152" lon="1.788700">
        <ele>608</ele>
        <time>2023-05-07T10:51:10Z</time>
      </trkpt>
      <trkpt lat="45.477134" lon="1.788678">
        <ele>608</ele>
        <time>2023-05-07T10:51:11Z</time>
      </trkpt>
      <trkpt lat="45.477117" lon="1.788658">
        <ele>608</ele>
        <time>2023-05-07T10:51:12Z</time>
      </trkpt>
      <trkpt lat="45.477100" lon="1.788639">
        <ele>608</ele>
        <time>2023-05-07T10:51:13Z</time>
      </trkpt>
      <trkpt lat="45.477081" lon="1.788620">
        <ele>608</ele>
        <time>2023-05-07T10:51:14Z</time>
      </trkpt>
      <trkpt lat="45.477063" lon="1.788600">
        <ele>608</ele>
        <time>2023-05-07T10:51:15Z</time>
      </trkpt>
      <trkpt lat="45.477044" lon="1.788581">
        <ele>608</ele>
        <time>2023-05-07T10:51:16Z</time>
      </trkpt>
      <trkpt lat="45.477025" lon="1.788562">
        <ele>608</ele>
        <time>2023-05-07T10:51:17Z</time>
      </trkpt>
      <trkpt lat="45.477006" lon="1.788544">
        <ele>608</ele>
        <time>2023-05-07T10:51:18Z</time>
      </trkpt>
      <trkpt lat="45.476986" lon="1.788527">
        <ele>608</ele>
        <time>2023-05-07T10:51:19Z</time>
      </trkpt>
      <trkpt lat="45.476965" lon="1.788510">
        <ele>608</ele>
        <time>2023-05-07T10:51:20Z</time>
      </trkpt>
      <trkpt lat="45.476943" lon="1.788490">
        <ele>608</ele>
        <time>2023-05-07T10:51:21Z</time>
      </trkpt>
      <trkpt lat="45.476921" lon="1.788470">
        <ele>608</ele>
        <time>2023-05-07T10:51:22Z</time>
      </trkpt>
      <trkpt lat="45.476898" lon="1.788445">
        <ele>607</ele>
        <time>2023-05-07T10:51:23Z</time>
      </trkpt>
      <trkpt lat="45.476874" lon="1.788420">
        <ele>607</ele>
        <time>2023-05-07T10:51:24Z</time>
      </trkpt>
      <trkpt lat="45.476850" lon="1.788399">
        <ele>607</ele>
        <time>2023-05-07T10:51:25Z</time>
      </trkpt>
      <trkpt lat="45.476827" lon="1.788377">
        <ele>607</ele>
        <time>2023-05-07T10:51:26Z</time>
      </trkpt>
      <trkpt lat="45.476804" lon="1.788362">
        <ele>607</ele>
        <time>2023-05-07T10:51:27Z</time>
      </trkpt>
      <trkpt lat="45.476781" lon="1.788346">
        <ele>607</ele>
        <time>2023-05-07T10:51:28Z</time>
      </trkpt>
      <trkpt lat="45.476758" lon="1.788331">
        <ele>607</ele>
        <time>2023-05-07T10:51:29Z</time>
      </trkpt>
      <trkpt lat="45.476734" lon="1.788316">
        <ele>607</ele>
        <time>2023-05-07T10:51:30Z</time>
      </trkpt>
      <trkpt lat="45.476707" lon="1.788298">
        <ele>607</ele>
        <time>2023-05-07T10:51:31Z</time>
      </trkpt>
      <trkpt lat="45.476680" lon="1.788281">
        <ele>607</ele>
        <time>2023-05-07T10:51:32Z</time>
      </trkpt>
      <trkpt lat="45.476654" lon="1.788260">
        <ele>607</ele>
        <time>2023-05-07T10:51:33Z</time>
      </trkpt>
      <trkpt lat="45.476628" lon="1.788239">
        <ele>607</ele>
        <time>2023-05-07T10:51:34Z</time>
      </trkpt>
      <trkpt lat="45.476607" lon="1.788216">
        <ele>607</ele>
        <time>2023-05-07T10:51:35Z</time>
      </trkpt>
      <trkpt lat="45.476586" lon="1.788193">
        <ele>607</ele>
        <time>2023-05-07T10:51:36Z</time>
      </trkpt>
      <trkpt lat="45.476568" lon="1.788165">
        <ele>607</ele>
        <time>2023-05-07T10:51:37Z</time>
      </trkpt>
      <trkpt lat="45.476551" lon="1.788138">
        <ele>607</ele>
        <time>2023-05-07T10:51:38Z</time>
      </trkpt>
      <trkpt lat="45.476535" lon="1.788105">
        <ele>607</ele>
        <time>2023-05-07T10:51:39Z</time>
      </trkpt>
      <trkpt lat="45.476518" lon="1.788072">
        <ele>607</ele>
        <time>2023-05-07T10:51:40Z</time>
      </trkpt>
      <trkpt lat="45.476501" lon="1.788036">
        <ele>607</ele>
        <time>2023-05-07T10:51:41Z</time>
      </trkpt>
      <trkpt lat="45.476484" lon="1.788000">
        <ele>607</ele>
        <time>2023-05-07T10:51:42Z</time>
      </trkpt>
      <trkpt lat="45.476467" lon="1.787962">
        <ele>607</ele>
        <time>2023-05-07T10:51:43Z</time>
      </trkpt>
      <trkpt lat="45.476450" lon="1.787924">
        <ele>607</ele>
        <time>2023-05-07T10:51:44Z</time>
      </trkpt>
      <trkpt lat="45.476434" lon="1.787886">
        <ele>607</ele>
        <time>2023-05-07T10:51:45Z</time>
      </trkpt>
      <trkpt lat="45.476419" lon="1.787847">
        <ele>607</ele>
        <time>2023-05-07T10:51:46Z</time>
      </trkpt>
      <trkpt lat="45.476403" lon="1.787808">
        <ele>607</ele>
        <time>2023-05-07T10:51:47Z</time>
      </trkpt>
      <trkpt lat="45.476388" lon="1.787769">
        <ele>607</ele>
        <time>2023-05-07T10:51:48Z</time>
      </trkpt>
      <trkpt lat="45.476373" lon="1.787729">
        <ele>607</ele>
        <time>2023-05-07T10:51:49Z</time>
      </trkpt>
      <trkpt lat="45.476357" lon="1.787689">
        <ele>607</ele>
        <time>2023-05-07T10:51:50Z</time>
      </trkpt>
      <trkpt lat="45.476342" lon="1.787651">
        <ele>607</ele>
        <time>2023-05-07T10:51:51Z</time>
      </trkpt>
      <trkpt lat="45.476327" lon="1.787613">
        <ele>607</ele>
        <time>2023-05-07T10:51:52Z</time>
      </trkpt>
      <trkpt lat="45.476313" lon="1.787576">
        <ele>607</ele>
        <time>2023-05-07T10:51:53Z</time>
      </trkpt>
      <trkpt lat="45.476298" lon="1.787539">
        <ele>607</ele>
        <time>2023-05-07T10:51:54Z</time>
      </trkpt>
      <trkpt lat="45.476284" lon="1.787505">
        <ele>607</ele>
        <time>2023-05-07T10:51:55Z</time>
      </trkpt>
      <trkpt lat="45.476270" lon="1.787470">
        <ele>607</ele>
        <time>2023-05-07T10:51:56Z</time>
      </trkpt>
      <trkpt lat="45.476256" lon="1.787439">
        <ele>607</ele>
        <time>2023-05-07T10:51:57Z</time>
      </trkpt>
      <trkpt lat="45.476242" lon="1.787407">
        <ele>606</ele>
        <time>2023-05-07T10:51:58Z</time>
      </trkpt>
      <trkpt lat="45.476228" lon="1.787374">
        <ele>606</ele>
        <time>2023-05-07T10:51:59Z</time>
      </trkpt>
      <trkpt lat="45.476213" lon="1.787341">
        <ele>606</ele>
        <time>2023-05-07T10:52:00Z</time>
      </trkpt>
      <trkpt lat="45.476199" lon="1.787305">
        <ele>606</ele>
        <time>2023-05-07T10:52:01Z</time>
      </trkpt>
      <trkpt lat="45.476185" lon="1.787269">
        <ele>606</ele>
        <time>2023-05-07T10:52:02Z</time>
      </trkpt>
      <trkpt lat="45.476171" lon="1.787232">
        <ele>606</ele>
        <time>2023-05-07T10:52:03Z</time>
      </trkpt>
      <trkpt lat="45.476157" lon="1.787194">
        <ele>606</ele>
        <time>2023-05-07T10:52:04Z</time>
      </trkpt>
      <trkpt lat="45.476143" lon="1.787152">
        <ele>606</ele>
        <time>2023-05-07T10:52:05Z</time>
      </trkpt>
      <trkpt lat="45.476128" lon="1.787111">
        <ele>606</ele>
        <time>2023-05-07T10:52:06Z</time>
      </trkpt>
      <trkpt lat="45.476114" lon="1.787069">
        <ele>606</ele>
        <time>2023-05-07T10:52:07Z</time>
      </trkpt>
      <trkpt lat="45.476099" lon="1.787026">
        <ele>606</ele>
        <time>2023-05-07T10:52:08Z</time>
      </trkpt>
      <trkpt lat="45.476087" lon="1.786984">
        <ele>606</ele>
        <time>2023-05-07T10:52:09Z</time>
      </trkpt>
      <trkpt lat="45.476075" lon="1.786943">
        <ele>606</ele>
        <time>2023-05-07T10:52:10Z</time>
      </trkpt>
      <trkpt lat="45.476067" lon="1.786900">
        <ele>606</ele>
        <time>2023-05-07T10:52:11Z</time>
      </trkpt>
      <trkpt lat="45.476059" lon="1.786856">
        <ele>606</ele>
        <time>2023-05-07T10:52:12Z</time>
      </trkpt>
      <trkpt lat="45.476053" lon="1.786815">
        <ele>605</ele>
        <time>2023-05-07T10:52:13Z</time>
      </trkpt>
      <trkpt lat="45.476047" lon="1.786773">
        <ele>605</ele>
        <time>2023-05-07T10:52:14Z</time>
      </trkpt>
      <trkpt lat="45.476039" lon="1.786734">
        <ele>605</ele>
        <time>2023-05-07T10:52:15Z</time>
      </trkpt>
      <trkpt lat="45.476032" lon="1.786696">
        <ele>605</ele>
        <time>2023-05-07T10:52:16Z</time>
      </trkpt>
      <trkpt lat="45.476023" lon="1.786657">
        <ele>605</ele>
        <time>2023-05-07T10:52:17Z</time>
      </trkpt>
      <trkpt lat="45.476014" lon="1.786618">
        <ele>605</ele>
        <time>2023-05-07T10:52:18Z</time>
      </trkpt>
      <trkpt lat="45.476004" lon="1.786578">
        <ele>605</ele>
        <time>2023-05-07T10:52:19Z</time>
      </trkpt>
      <trkpt lat="45.475994" lon="1.786537">
        <ele>605</ele>
        <time>2023-05-07T10:52:20Z</time>
      </trkpt>
      <trkpt lat="45.475981" lon="1.786494">
        <ele>605</ele>
        <time>2023-05-07T10:52:21Z</time>
      </trkpt>
      <trkpt lat="45.475969" lon="1.786450">
        <ele>605</ele>
        <time>2023-05-07T10:52:22Z</time>
      </trkpt>
      <trkpt lat="45.475957" lon="1.786404">
        <ele>604</ele>
        <time>2023-05-07T10:52:23Z</time>
      </trkpt>
      <trkpt lat="45.475944" lon="1.786358">
        <ele>604</ele>
        <time>2023-05-07T10:52:24Z</time>
      </trkpt>
      <trkpt lat="45.475932" lon="1.786309">
        <ele>604</ele>
        <time>2023-05-07T10:52:25Z</time>
      </trkpt>
      <trkpt lat="45.475919" lon="1.786261">
        <ele>604</ele>
        <time>2023-05-07T10:52:26Z</time>
      </trkpt>
      <trkpt lat="45.475906" lon="1.786210">
        <ele>604</ele>
        <time>2023-05-07T10:52:27Z</time>
      </trkpt>
      <trkpt lat="45.475893" lon="1.786160">
        <ele>604</ele>
        <time>2023-05-07T10:52:28Z</time>
      </trkpt>
      <trkpt lat="45.475883" lon="1.786113">
        <ele>604</ele>
        <time>2023-05-07T10:52:29Z</time>
      </trkpt>
      <trkpt lat="45.475873" lon="1.786066">
        <ele>604</ele>
        <time>2023-05-07T10:52:30Z</time>
      </trkpt>
      <trkpt lat="45.475868" lon="1.786025">
        <ele>604</ele>
        <time>2023-05-07T10:52:31Z</time>
      </trkpt>
      <trkpt lat="45.475863" lon="1.785984">
        <ele>604</ele>
        <time>2023-05-07T10:52:32Z</time>
      </trkpt>
      <trkpt lat="45.475859" lon="1.785947">
        <ele>604</ele>
        <time>2023-05-07T10:52:33Z</time>
      </trkpt>
      <trkpt lat="45.475856" lon="1.785910">
        <ele>604</ele>
        <time>2023-05-07T10:52:34Z</time>
      </trkpt>
      <trkpt lat="45.475850" lon="1.785877">
        <ele>604</ele>
        <time>2023-05-07T10:52:35Z</time>
      </trkpt>
      <trkpt lat="45.475844" lon="1.785844">
        <ele>604</ele>
        <time>2023-05-07T10:52:36Z</time>
      </trkpt>
      <trkpt lat="45.475838" lon="1.785812">
        <ele>604</ele>
        <time>2023-05-07T10:52:37Z</time>
      </trkpt>
      <trkpt lat="45.475831" lon="1.785780">
        <ele>603</ele>
        <time>2023-05-07T10:52:38Z</time>
      </trkpt>
      <trkpt lat="45.475823" lon="1.785748">
        <ele>603</ele>
        <time>2023-05-07T10:52:39Z</time>
      </trkpt>
      <trkpt lat="45.475814" lon="1.785719">
        <ele>603</ele>
        <time>2023-05-07T10:52:40Z</time>
      </trkpt>
      <trkpt lat="45.475805" lon="1.785690">
        <ele>603</ele>
        <time>2023-05-07T10:52:41Z</time>
      </trkpt>
      <trkpt lat="45.475793" lon="1.785662">
        <ele>603</ele>
        <time>2023-05-07T10:52:42Z</time>
      </trkpt>
      <trkpt lat="45.475781" lon="1.785634">
        <ele>603</ele>
        <time>2023-05-07T10:52:43Z</time>
      </trkpt>
      <trkpt lat="45.475767" lon="1.785607">
        <ele>603</ele>
        <time>2023-05-07T10:52:44Z</time>
      </trkpt>
      <trkpt lat="45.475752" lon="1.785580">
        <ele>603</ele>
        <time>2023-05-07T10:52:45Z</time>
      </trkpt>
      <trkpt lat="45.475738" lon="1.785554">
        <ele>603</ele>
        <time>2023-05-07T10:52:46Z</time>
      </trkpt>
      <trkpt lat="45.475723" lon="1.785528">
        <ele>603</ele>
        <time>2023-05-07T10:52:47Z</time>
      </trkpt>
      <trkpt lat="45.475710" lon="1.785506">
        <ele>602</ele>
        <time>2023-05-07T10:52:48Z</time>
      </trkpt>
      <trkpt lat="45.475696" lon="1.785485">
        <ele>602</ele>
        <time>2023-05-07T10:52:49Z</time>
      </trkpt>
      <trkpt lat="45.475685" lon="1.785466">
        <ele>602</ele>
        <time>2023-05-07T10:52:50Z</time>
      </trkpt>
      <trkpt lat="45.475674" lon="1.785447">
        <ele>602</ele>
        <time>2023-05-07T10:52:51Z</time>
      </trkpt>
      <trkpt lat="45.475663" lon="1.785428">
        <ele>602</ele>
        <time>2023-05-07T10:52:52Z</time>
      </trkpt>
      <trkpt lat="45.475650" lon="1.785406">
        <ele>602</ele>
        <time>2023-05-07T10:52:53Z</time>
      </trkpt>
      <trkpt lat="45.475636" lon="1.785385">
        <ele>602</ele>
        <time>2023-05-07T10:52:54Z</time>
      </trkpt>
      <trkpt lat="45.475620" lon="1.785365">
        <ele>602</ele>
        <time>2023-05-07T10:52:55Z</time>
      </trkpt>
      <trkpt lat="45.475603" lon="1.785344">
        <ele>602</ele>
        <time>2023-05-07T10:52:56Z</time>
      </trkpt>
      <trkpt lat="45.475586" lon="1.785324">
        <ele>602</ele>
        <time>2023-05-07T10:52:57Z</time>
      </trkpt>
      <trkpt lat="45.475565" lon="1.785303">
        <ele>602</ele>
        <time>2023-05-07T10:52:58Z</time>
      </trkpt>
      <trkpt lat="45.475543" lon="1.785282">
        <ele>602</ele>
        <time>2023-05-07T10:52:59Z</time>
      </trkpt>
      <trkpt lat="45.475520" lon="1.785265">
        <ele>602</ele>
        <time>2023-05-07T10:53:00Z</time>
      </trkpt>
      <trkpt lat="45.475497" lon="1.785247">
        <ele>602</ele>
        <time>2023-05-07T10:53:01Z</time>
      </trkpt>
      <trkpt lat="45.475474" lon="1.785232">
        <ele>602</ele>
        <time>2023-05-07T10:53:02Z</time>
      </trkpt>
      <trkpt lat="45.475451" lon="1.785217">
        <ele>602</ele>
        <time>2023-05-07T10:53:03Z</time>
      </trkpt>
      <trkpt lat="45.475428" lon="1.785203">
        <ele>602</ele>
        <time>2023-05-07T10:53:04Z</time>
      </trkpt>
      <trkpt lat="45.475405" lon="1.785188">
        <ele>602</ele>
        <time>2023-05-07T10:53:05Z</time>
      </trkpt>
      <trkpt lat="45.475381" lon="1.785173">
        <ele>602</ele>
        <time>2023-05-07T10:53:06Z</time>
      </trkpt>
      <trkpt lat="45.475359" lon="1.785157">
        <ele>602</ele>
        <time>2023-05-07T10:53:07Z</time>
      </trkpt>
      <trkpt lat="45.475337" lon="1.785141">
        <ele>602</ele>
        <time>2023-05-07T10:53:08Z</time>
      </trkpt>
      <trkpt lat="45.475315" lon="1.785121">
        <ele>602</ele>
        <time>2023-05-07T10:53:09Z</time>
      </trkpt>
      <trkpt lat="45.475292" lon="1.785101">
        <ele>602</ele>
        <time>2023-05-07T10:53:10Z</time>
      </trkpt>
      <trkpt lat="45.475268" lon="1.785079">
        <ele>602</ele>
        <time>2023-05-07T10:53:11Z</time>
      </trkpt>
      <trkpt lat="45.475243" lon="1.785057">
        <ele>602</ele>
        <time>2023-05-07T10:53:12Z</time>
      </trkpt>
      <trkpt lat="45.475219" lon="1.785035">
        <ele>602</ele>
        <time>2023-05-07T10:53:13Z</time>
      </trkpt>
      <trkpt lat="45.475195" lon="1.785013">
        <ele>602</ele>
        <time>2023-05-07T10:53:14Z</time>
      </trkpt>
      <trkpt lat="45.475170" lon="1.784990">
        <ele>602</ele>
        <time>2023-05-07T10:53:15Z</time>
      </trkpt>
      <trkpt lat="45.475145" lon="1.784968">
        <ele>602</ele>
        <time>2023-05-07T10:53:16Z</time>
      </trkpt>
      <trkpt lat="45.475121" lon="1.784947">
        <ele>602</ele>
        <time>2023-05-07T10:53:17Z</time>
      </trkpt>
      <trkpt lat="45.475096" lon="1.784926">
        <ele>602</ele>
        <time>2023-05-07T10:53:18Z</time>
      </trkpt>
      <trkpt lat="45.475074" lon="1.784906">
        <ele>602</ele>
        <time>2023-05-07T10:53:19Z</time>
      </trkpt>
      <trkpt lat="45.475052" lon="1.784886">
        <ele>602</ele>
        <time>2023-05-07T10:53:20Z</time>
      </trkpt>
      <trkpt lat="45.475032" lon="1.784865">
        <ele>602</ele>
        <time>2023-05-07T10:53:21Z</time>
      </trkpt>
      <trkpt lat="45.475012" lon="1.784844">
        <ele>602</ele>
        <time>2023-05-07T10:53:22Z</time>
      </trkpt>
      <trkpt lat="45.474991" lon="1.784818">
        <ele>602</ele>
        <time>2023-05-07T10:53:23Z</time>
      </trkpt>
      <trkpt lat="45.474970" lon="1.784792">
        <ele>602</ele>
        <time>2023-05-07T10:53:24Z</time>
      </trkpt>
      <trkpt lat="45.474946" lon="1.784763">
        <ele>602</ele>
        <time>2023-05-07T10:53:25Z</time>
      </trkpt>
      <trkpt lat="45.474923" lon="1.784734">
        <ele>602</ele>
        <time>2023-05-07T10:53:26Z</time>
      </trkpt>
      <trkpt lat="45.474892" lon="1.784706">
        <ele>602</ele>
        <time>2023-05-07T10:53:27Z</time>
      </trkpt>
      <trkpt lat="45.474861" lon="1.784677">
        <ele>601</ele>
        <time>2023-05-07T10:53:28Z</time>
      </trkpt>
      <trkpt lat="45.474830" lon="1.784648">
        <ele>601</ele>
        <time>2023-05-07T10:53:29Z</time>
      </trkpt>
    </trkseg>
  </trk>
</gpx>